<?xml version='1.0' encoding='UTF-8'?><gpx version="1.1" creator="JPX - https://github.com/jenetics/jpx" xmlns="http://www.topografix.com/GPX/1/1"><trk><trkseg><trkpt lat="43.5048369" lon="10.6201512"><ele>309.0</ele><time>2026-04-18T05:59:56.505Z</time></trkpt><trkpt lat="43.5048841" lon="10.6200715"><ele>309.0</ele><time>2026-04-18T05:59:59.51Z</time></trkpt><trkpt lat="43.50493" lon="10.6199887"><ele>309.0</ele><time>2026-04-18T06:00:01.524Z</time></trkpt><trkpt lat="43.5049684" lon="10.6199011"><ele>309.0</ele><time>2026-04-18T06:00:03.516Z</time></trkpt><trkpt lat="43.5050176" lon="10.6198245"><ele>309.0</ele><time>2026-04-18T06:00:05.512Z</time></trkpt><trkpt lat="43.5050665" lon="10.619722"><ele>309.0</ele><time>2026-04-18T06:00:07.517Z</time></trkpt><trkpt lat="43.5051003" lon="10.6196229"><ele>309.0</ele><time>2026-04-18T06:00:09.515Z</time></trkpt><trkpt lat="43.5051515" lon="10.6195022"><ele>309.0</ele><time>2026-04-18T06:00:11.513Z</time></trkpt><trkpt lat="43.5052068" lon="10.6193924"><ele>309.0</ele><time>2026-04-18T06:00:13.515Z</time></trkpt><trkpt lat="43.5052886" lon="10.6193553"><ele>309.0</ele><time>2026-04-18T06:00:15.508Z</time></trkpt><trkpt lat="43.5053745" lon="10.6193704"><ele>309.0</ele><time>2026-04-18T06:00:17.507Z</time></trkpt><trkpt lat="43.5054666" lon="10.6194018"><ele>307.7142857142857</ele><time>2026-04-18T06:00:19.519Z</time></trkpt><trkpt lat="43.5055354" lon="10.6194359"><ele>306.42857142857144</ele><time>2026-04-18T06:00:21.514Z</time></trkpt><trkpt lat="43.5055973" lon="10.6194604"><ele>305.1428571428571</ele><time>2026-04-18T06:00:23.517Z</time></trkpt><trkpt lat="43.505662" lon="10.6194679"><ele>303.8571428571429</ele><time>2026-04-18T06:00:25.509Z</time></trkpt><trkpt lat="43.5057363" lon="10.6194685"><ele>302.57142857142856</ele><time>2026-04-18T06:00:27.509Z</time></trkpt><trkpt lat="43.5058089" lon="10.6194759"><ele>301.2857142857143</ele><time>2026-04-18T06:00:29.517Z</time></trkpt><trkpt lat="43.5058815" lon="10.6194599"><ele>300.0</ele><time>2026-04-18T06:00:31.508Z</time></trkpt><trkpt lat="43.5059731" lon="10.6194293"><ele>300.0</ele><time>2026-04-18T06:00:33.518Z</time></trkpt><trkpt lat="43.5060744" lon="10.6193791"><ele>300.0</ele><time>2026-04-18T06:00:35.516Z</time></trkpt><trkpt lat="43.5061931" lon="10.6193361"><ele>300.0</ele><time>2026-04-18T06:00:37.513Z</time></trkpt><trkpt lat="43.5062563" lon="10.6193198"><ele>300.0</ele><time>2026-04-18T06:00:38.51Z</time></trkpt><trkpt lat="43.5063263" lon="10.6193045"><ele>300.0</ele><time>2026-04-18T06:00:39.51Z</time></trkpt><trkpt lat="43.5064482" lon="10.6192963"><ele>298.1666666666667</ele><time>2026-04-18T06:00:41.512Z</time></trkpt><trkpt lat="43.5065598" lon="10.6193162"><ele>296.3333333333333</ele><time>2026-04-18T06:00:43.51Z</time></trkpt><trkpt lat="43.506634" lon="10.6193057"><ele>294.5</ele><time>2026-04-18T06:00:45.515Z</time></trkpt><trkpt lat="43.5067067" lon="10.6192822"><ele>292.66666666666663</ele><time>2026-04-18T06:00:48.514Z</time></trkpt><trkpt lat="43.5067782" lon="10.6192417"><ele>290.8333333333333</ele><time>2026-04-18T06:00:52.506Z</time></trkpt><trkpt lat="43.5068511" lon="10.6192438"><ele>289.0</ele><time>2026-04-18T06:00:56.514Z</time></trkpt><trkpt lat="43.5069235" lon="10.6191625"><ele>289.0</ele><time>2026-04-18T06:01:01.522Z</time></trkpt><trkpt lat="43.5069901" lon="10.6190522"><ele>289.0</ele><time>2026-04-18T06:01:03.52Z</time></trkpt><trkpt lat="43.5070368" lon="10.6189851"><ele>289.0</ele><time>2026-04-18T06:01:04.522Z</time></trkpt><trkpt lat="43.5070891" lon="10.6189035"><ele>289.0</ele><time>2026-04-18T06:01:05.516Z</time></trkpt><trkpt lat="43.5071565" lon="10.6188336"><ele>289.0</ele><time>2026-04-18T06:01:06.513Z</time></trkpt><trkpt lat="43.5072208" lon="10.6187787"><ele>289.0</ele><time>2026-04-18T06:01:07.513Z</time></trkpt><trkpt lat="43.5073114" lon="10.6187443"><ele>288.3333333333333</ele><time>2026-04-18T06:01:09.518Z</time></trkpt><trkpt lat="43.5073958" lon="10.6187316"><ele>287.66666666666663</ele><time>2026-04-18T06:01:12.519Z</time></trkpt><trkpt lat="43.5074789" lon="10.6187198"><ele>287.0</ele><time>2026-04-18T06:01:47.521Z</time></trkpt><trkpt lat="43.5075888" lon="10.6186466"><ele>286.3333333333333</ele><time>2026-04-18T06:01:49.514Z</time></trkpt><trkpt lat="43.5076486" lon="10.6185851"><ele>285.6666666666667</ele><time>2026-04-18T06:01:50.508Z</time></trkpt><trkpt lat="43.5077041" lon="10.6185228"><ele>285.0</ele><time>2026-04-18T06:01:51.51Z</time></trkpt><trkpt lat="43.5077608" lon="10.6184553"><ele>285.0</ele><time>2026-04-18T06:01:52.513Z</time></trkpt><trkpt lat="43.5078115" lon="10.6183817"><ele>285.0</ele><time>2026-04-18T06:01:53.517Z</time></trkpt><trkpt lat="43.507874" lon="10.6182869"><ele>285.0</ele><time>2026-04-18T06:01:54.516Z</time></trkpt><trkpt lat="43.5079339" lon="10.6181747"><ele>285.0</ele><time>2026-04-18T06:01:55.512Z</time></trkpt><trkpt lat="43.5079786" lon="10.6180533"><ele>285.0</ele><time>2026-04-18T06:01:56.51Z</time></trkpt><trkpt lat="43.5080319" lon="10.6179267"><ele>285.8</ele><time>2026-04-18T06:01:57.523Z</time></trkpt><trkpt lat="43.5080922" lon="10.6177732"><ele>286.6</ele><time>2026-04-18T06:01:58.506Z</time></trkpt><trkpt lat="43.5081456" lon="10.6176257"><ele>287.4</ele><time>2026-04-18T06:01:59.508Z</time></trkpt><trkpt lat="43.5081903" lon="10.6174962"><ele>288.2</ele><time>2026-04-18T06:02:00.509Z</time></trkpt><trkpt lat="43.5082234" lon="10.617378"><ele>289.0</ele><time>2026-04-18T06:02:01.511Z</time></trkpt><trkpt lat="43.5082639" lon="10.617273"><ele>289.0</ele><time>2026-04-18T06:02:02.512Z</time></trkpt><trkpt lat="43.5082947" lon="10.617192"><ele>289.0</ele><time>2026-04-18T06:02:03.51Z</time></trkpt><trkpt lat="43.508354" lon="10.6171093"><ele>289.0</ele><time>2026-04-18T06:02:05.517Z</time></trkpt><trkpt lat="43.5084424" lon="10.616997"><ele>289.0</ele><time>2026-04-18T06:02:07.516Z</time></trkpt><trkpt lat="43.5084951" lon="10.6169093"><ele>289.0</ele><time>2026-04-18T06:02:08.52Z</time></trkpt><trkpt lat="43.5085448" lon="10.6168347"><ele>289.0</ele><time>2026-04-18T06:02:09.503Z</time></trkpt><trkpt lat="43.5086069" lon="10.616756"><ele>289.5</ele><time>2026-04-18T06:02:10.509Z</time></trkpt><trkpt lat="43.5086756" lon="10.6166766"><ele>290.0</ele><time>2026-04-18T06:02:11.511Z</time></trkpt><trkpt lat="43.5087401" lon="10.6166056"><ele>290.5</ele><time>2026-04-18T06:02:12.52Z</time></trkpt><trkpt lat="43.5087983" lon="10.6165349"><ele>291.0</ele><time>2026-04-18T06:02:13.512Z</time></trkpt><trkpt lat="43.508851" lon="10.6164732"><ele>291.5</ele><time>2026-04-18T06:02:14.519Z</time></trkpt><trkpt lat="43.5089299" lon="10.6163954"><ele>292.0</ele><time>2026-04-18T06:02:16.512Z</time></trkpt><trkpt lat="43.5089979" lon="10.6164"><ele>292.0</ele><time>2026-04-18T06:02:19.508Z</time></trkpt><trkpt lat="43.509063" lon="10.6164435"><ele>292.0</ele><time>2026-04-18T06:02:47.512Z</time></trkpt><trkpt lat="43.5091136" lon="10.6165487"><ele>292.0</ele><time>2026-04-18T06:02:49.513Z</time></trkpt><trkpt lat="43.5091704" lon="10.6166357"><ele>292.0</ele><time>2026-04-18T06:02:51.512Z</time></trkpt><trkpt lat="43.5092465" lon="10.6167337"><ele>292.0</ele><time>2026-04-18T06:03:56.51Z</time></trkpt><trkpt lat="43.5092871" lon="10.6168554"><ele>292.0</ele><time>2026-04-18T06:03:58.513Z</time></trkpt><trkpt lat="43.5093307" lon="10.6169442"><ele>292.0</ele><time>2026-04-18T06:03:59.503Z</time></trkpt><trkpt lat="43.5093824" lon="10.6170289"><ele>292.0</ele><time>2026-04-18T06:04:00.51Z</time></trkpt><trkpt lat="43.5094376" lon="10.6171233"><ele>292.0</ele><time>2026-04-18T06:04:01.505Z</time></trkpt><trkpt lat="43.5094969" lon="10.6172318"><ele>292.0</ele><time>2026-04-18T06:04:02.516Z</time></trkpt><trkpt lat="43.5095565" lon="10.6173412"><ele>292.0</ele><time>2026-04-18T06:04:03.501Z</time></trkpt><trkpt lat="43.5096178" lon="10.6174575"><ele>290.8</ele><time>2026-04-18T06:04:04.516Z</time></trkpt><trkpt lat="43.5096925" lon="10.6175622"><ele>289.6</ele><time>2026-04-18T06:04:05.511Z</time></trkpt><trkpt lat="43.5097555" lon="10.6176836"><ele>288.40000000000003</ele><time>2026-04-18T06:04:06.518Z</time></trkpt><trkpt lat="43.509805" lon="10.61782"><ele>287.2</ele><time>2026-04-18T06:04:07.509Z</time></trkpt><trkpt lat="43.5098514" lon="10.6179539"><ele>286.0</ele><time>2026-04-18T06:04:08.515Z</time></trkpt><trkpt lat="43.5098935" lon="10.6180582"><ele>285.25</ele><time>2026-04-18T06:04:09.496Z</time></trkpt><trkpt lat="43.5099118" lon="10.6181461"><ele>284.5</ele><time>2026-04-18T06:04:10.505Z</time></trkpt><trkpt lat="43.5099479" lon="10.6183037"><ele>283.75</ele><time>2026-04-18T06:04:12.515Z</time></trkpt><trkpt lat="43.5100251" lon="10.6184352"><ele>283.0</ele><time>2026-04-18T06:04:14.508Z</time></trkpt><trkpt lat="43.5101672" lon="10.6185049"><ele>283.0</ele><time>2026-04-18T06:04:16.518Z</time></trkpt><trkpt lat="43.5102927" lon="10.6184754"><ele>283.0</ele><time>2026-04-18T06:04:18.511Z</time></trkpt><trkpt lat="43.510365" lon="10.6184237"><ele>283.0</ele><time>2026-04-18T06:04:19.513Z</time></trkpt><trkpt lat="43.5104352" lon="10.6183842"><ele>283.0</ele><time>2026-04-18T06:04:20.515Z</time></trkpt><trkpt lat="43.5105037" lon="10.6183352"><ele>283.0</ele><time>2026-04-18T06:04:21.512Z</time></trkpt><trkpt lat="43.5105809" lon="10.6182731"><ele>281.0</ele><time>2026-04-18T06:04:22.518Z</time></trkpt><trkpt lat="43.5106605" lon="10.6182203"><ele>279.0</ele><time>2026-04-18T06:04:23.51Z</time></trkpt><trkpt lat="43.510748" lon="10.618184"><ele>277.0</ele><time>2026-04-18T06:04:24.541Z</time></trkpt><trkpt lat="43.5108412" lon="10.6181629"><ele>275.0</ele><time>2026-04-18T06:04:25.513Z</time></trkpt><trkpt lat="43.5109346" lon="10.6181607"><ele>273.0</ele><time>2026-04-18T06:04:26.51Z</time></trkpt><trkpt lat="43.5110399" lon="10.6181819"><ele>273.0</ele><time>2026-04-18T06:04:27.51Z</time></trkpt><trkpt lat="43.5111539" lon="10.6182039"><ele>273.0</ele><time>2026-04-18T06:04:28.514Z</time></trkpt><trkpt lat="43.5112759" lon="10.6182382"><ele>273.0</ele><time>2026-04-18T06:04:29.516Z</time></trkpt><trkpt lat="43.5113929" lon="10.6182601"><ele>273.0</ele><time>2026-04-18T06:04:30.516Z</time></trkpt><trkpt lat="43.5115085" lon="10.618287"><ele>270.75</ele><time>2026-04-18T06:04:31.521Z</time></trkpt><trkpt lat="43.5116161" lon="10.6183182"><ele>268.5</ele><time>2026-04-18T06:04:32.504Z</time></trkpt><trkpt lat="43.5117224" lon="10.6183643"><ele>266.25</ele><time>2026-04-18T06:04:33.509Z</time></trkpt><trkpt lat="43.5118287" lon="10.6184254"><ele>264.0</ele><time>2026-04-18T06:04:34.512Z</time></trkpt><trkpt lat="43.5119304" lon="10.6184948"><ele>264.0</ele><time>2026-04-18T06:04:35.581Z</time></trkpt><trkpt lat="43.5120233" lon="10.6185905"><ele>264.0</ele><time>2026-04-18T06:04:36.559Z</time></trkpt><trkpt lat="43.5121231" lon="10.6186912"><ele>264.0</ele><time>2026-04-18T06:04:37.552Z</time></trkpt><trkpt lat="43.5122277" lon="10.6187842"><ele>264.0</ele><time>2026-04-18T06:04:38.552Z</time></trkpt><trkpt lat="43.5123416" lon="10.6188572"><ele>261.75</ele><time>2026-04-18T06:04:39.554Z</time></trkpt><trkpt lat="43.5124637" lon="10.6189249"><ele>259.5</ele><time>2026-04-18T06:04:40.553Z</time></trkpt><trkpt lat="43.5125934" lon="10.6189848"><ele>257.25</ele><time>2026-04-18T06:04:41.554Z</time></trkpt><trkpt lat="43.5127271" lon="10.6190496"><ele>255.0</ele><time>2026-04-18T06:04:42.551Z</time></trkpt><trkpt lat="43.5128657" lon="10.6191211"><ele>252.0</ele><time>2026-04-18T06:04:43.563Z</time></trkpt><trkpt lat="43.5130036" lon="10.6191945"><ele>249.0</ele><time>2026-04-18T06:04:44.566Z</time></trkpt><trkpt lat="43.5131475" lon="10.6192709"><ele>246.0</ele><time>2026-04-18T06:04:45.559Z</time></trkpt><trkpt lat="43.5132961" lon="10.6193427"><ele>246.0</ele><time>2026-04-18T06:04:46.559Z</time></trkpt><trkpt lat="43.5134465" lon="10.6194114"><ele>246.0</ele><time>2026-04-18T06:04:47.57Z</time></trkpt><trkpt lat="43.5135952" lon="10.6194759"><ele>246.0</ele><time>2026-04-18T06:04:48.564Z</time></trkpt><trkpt lat="43.5137348" lon="10.6195347"><ele>244.0</ele><time>2026-04-18T06:04:49.568Z</time></trkpt><trkpt lat="43.5138672" lon="10.6195951"><ele>242.00000000000003</ele><time>2026-04-18T06:04:50.568Z</time></trkpt><trkpt lat="43.5139765" lon="10.6196646"><ele>240.00000000000003</ele><time>2026-04-18T06:04:51.555Z</time></trkpt><trkpt lat="43.5140475" lon="10.6197294"><ele>238.0</ele><time>2026-04-18T06:04:52.567Z</time></trkpt><trkpt lat="43.5140951" lon="10.619818"><ele>236.0</ele><time>2026-04-18T06:04:53.568Z</time></trkpt><trkpt lat="43.5141214" lon="10.6199354"><ele>236.0</ele><time>2026-04-18T06:04:54.559Z</time></trkpt><trkpt lat="43.5141104" lon="10.620064"><ele>236.0</ele><time>2026-04-18T06:04:55.568Z</time></trkpt><trkpt lat="43.5140702" lon="10.6202072"><ele>236.0</ele><time>2026-04-18T06:04:56.55Z</time></trkpt><trkpt lat="43.5139967" lon="10.6203505"><ele>236.0</ele><time>2026-04-18T06:04:57.545Z</time></trkpt><trkpt lat="43.5139124" lon="10.6204787"><ele>235.5</ele><time>2026-04-18T06:04:58.56Z</time></trkpt><trkpt lat="43.5137974" lon="10.6206339"><ele>235.0</ele><time>2026-04-18T06:04:59.556Z</time></trkpt><trkpt lat="43.5136949" lon="10.6207664"><ele>234.5</ele><time>2026-04-18T06:05:00.595Z</time></trkpt><trkpt lat="43.5136013" lon="10.6208881"><ele>234.0</ele><time>2026-04-18T06:05:01.558Z</time></trkpt><trkpt lat="43.5135176" lon="10.6209974"><ele>234.0</ele><time>2026-04-18T06:05:02.56Z</time></trkpt><trkpt lat="43.5134586" lon="10.6211018"><ele>233.99999999999997</ele><time>2026-04-18T06:05:03.556Z</time></trkpt><trkpt lat="43.5134463" lon="10.6212186"><ele>233.99999999999997</ele><time>2026-04-18T06:05:04.564Z</time></trkpt><trkpt lat="43.5134536" lon="10.6213375"><ele>234.0</ele><time>2026-04-18T06:05:05.559Z</time></trkpt><trkpt lat="43.5135039" lon="10.6214479"><ele>234.0</ele><time>2026-04-18T06:05:06.559Z</time></trkpt><trkpt lat="43.5135847" lon="10.6215366"><ele>232.0</ele><time>2026-04-18T06:05:07.567Z</time></trkpt><trkpt lat="43.5136901" lon="10.6215883"><ele>230.0</ele><time>2026-04-18T06:05:08.564Z</time></trkpt><trkpt lat="43.5138094" lon="10.6216208"><ele>228.0</ele><time>2026-04-18T06:05:09.558Z</time></trkpt><trkpt lat="43.5139414" lon="10.6216543"><ele>226.0</ele><time>2026-04-18T06:05:10.568Z</time></trkpt><trkpt lat="43.5140687" lon="10.6216856"><ele>225.25</ele><time>2026-04-18T06:05:11.565Z</time></trkpt><trkpt lat="43.5141942" lon="10.6217716"><ele>224.5</ele><time>2026-04-18T06:05:12.515Z</time></trkpt><trkpt lat="43.5143111" lon="10.621864"><ele>223.75</ele><time>2026-04-18T06:05:13.517Z</time></trkpt><trkpt lat="43.5144473" lon="10.6219621"><ele>223.0</ele><time>2026-04-18T06:05:14.519Z</time></trkpt><trkpt lat="43.5145913" lon="10.6220444"><ele>220.0</ele><time>2026-04-18T06:05:15.528Z</time></trkpt><trkpt lat="43.514745" lon="10.6220939"><ele>217.0</ele><time>2026-04-18T06:05:16.562Z</time></trkpt><trkpt lat="43.5149087" lon="10.6221389"><ele>214.0</ele><time>2026-04-18T06:05:17.56Z</time></trkpt><trkpt lat="43.5150811" lon="10.6221763"><ele>214.0</ele><time>2026-04-18T06:05:18.56Z</time></trkpt><trkpt lat="43.5152547" lon="10.6221992"><ele>214.0</ele><time>2026-04-18T06:05:19.567Z</time></trkpt><trkpt lat="43.5154294" lon="10.622205"><ele>214.0</ele><time>2026-04-18T06:05:20.564Z</time></trkpt><trkpt lat="43.5156018" lon="10.6222058"><ele>212.0</ele><time>2026-04-18T06:05:21.58Z</time></trkpt><trkpt lat="43.5157687" lon="10.622204"><ele>210.0</ele><time>2026-04-18T06:05:22.565Z</time></trkpt><trkpt lat="43.515942" lon="10.6222084"><ele>208.0</ele><time>2026-04-18T06:05:23.566Z</time></trkpt><trkpt lat="43.5161076" lon="10.6222513"><ele>206.33333333333331</ele><time>2026-04-18T06:05:24.563Z</time></trkpt><trkpt lat="43.5162702" lon="10.6223183"><ele>204.66666666666669</ele><time>2026-04-18T06:05:25.57Z</time></trkpt><trkpt lat="43.5164124" lon="10.6224306"><ele>203.0</ele><time>2026-04-18T06:05:26.563Z</time></trkpt><trkpt lat="43.5165565" lon="10.6225758"><ele>203.0</ele><time>2026-04-18T06:05:27.566Z</time></trkpt><trkpt lat="43.5166554" lon="10.622742"><ele>203.0</ele><time>2026-04-18T06:05:28.572Z</time></trkpt><trkpt lat="43.5167391" lon="10.622946"><ele>203.0</ele><time>2026-04-18T06:05:29.558Z</time></trkpt><trkpt lat="43.5168261" lon="10.623157"><ele>202.66666666666669</ele><time>2026-04-18T06:05:30.557Z</time></trkpt><trkpt lat="43.5168885" lon="10.623358"><ele>202.33333333333331</ele><time>2026-04-18T06:05:31.561Z</time></trkpt><trkpt lat="43.5169344" lon="10.6235642"><ele>202.0</ele><time>2026-04-18T06:05:32.569Z</time></trkpt><trkpt lat="43.5169801" lon="10.6237507"><ele>201.75</ele><time>2026-04-18T06:05:33.559Z</time></trkpt><trkpt lat="43.517051" lon="10.6239029"><ele>201.5</ele><time>2026-04-18T06:05:34.565Z</time></trkpt><trkpt lat="43.517153" lon="10.6240327"><ele>201.25</ele><time>2026-04-18T06:05:35.52Z</time></trkpt><trkpt lat="43.5172872" lon="10.6241302"><ele>201.0</ele><time>2026-04-18T06:05:36.512Z</time></trkpt><trkpt lat="43.5174423" lon="10.6241869"><ele>198.0</ele><time>2026-04-18T06:05:37.515Z</time></trkpt><trkpt lat="43.5176019" lon="10.6242344"><ele>195.0</ele><time>2026-04-18T06:05:38.522Z</time></trkpt><trkpt lat="43.5177803" lon="10.6242737"><ele>192.0</ele><time>2026-04-18T06:05:39.519Z</time></trkpt><trkpt lat="43.5179603" lon="10.6243113"><ele>188.0</ele><time>2026-04-18T06:05:40.511Z</time></trkpt><trkpt lat="43.5181278" lon="10.6243408"><ele>184.0</ele><time>2026-04-18T06:05:41.516Z</time></trkpt><trkpt lat="43.5182995" lon="10.6243763"><ele>180.0</ele><time>2026-04-18T06:05:42.527Z</time></trkpt><trkpt lat="43.5184675" lon="10.6244212"><ele>180.0</ele><time>2026-04-18T06:05:43.517Z</time></trkpt><trkpt lat="43.5186326" lon="10.6244676"><ele>180.0</ele><time>2026-04-18T06:05:44.507Z</time></trkpt><trkpt lat="43.5187911" lon="10.6245159"><ele>180.0</ele><time>2026-04-18T06:05:45.562Z</time></trkpt><trkpt lat="43.5189436" lon="10.6245519"><ele>178.4</ele><time>2026-04-18T06:05:46.554Z</time></trkpt><trkpt lat="43.5190812" lon="10.6245831"><ele>176.8</ele><time>2026-04-18T06:05:47.559Z</time></trkpt><trkpt lat="43.5192003" lon="10.6246149"><ele>175.2</ele><time>2026-04-18T06:05:48.558Z</time></trkpt><trkpt lat="43.5192881" lon="10.6246503"><ele>173.6</ele><time>2026-04-18T06:05:49.558Z</time></trkpt><trkpt lat="43.5193678" lon="10.6246874"><ele>172.0</ele><time>2026-04-18T06:05:50.569Z</time></trkpt><trkpt lat="43.5194477" lon="10.6247243"><ele>172.0</ele><time>2026-04-18T06:05:52.559Z</time></trkpt><trkpt lat="43.519524" lon="10.6247528"><ele>172.0</ele><time>2026-04-18T06:05:55.563Z</time></trkpt><trkpt lat="43.519618" lon="10.6247834"><ele>172.0</ele><time>2026-04-18T06:05:57.56Z</time></trkpt><trkpt lat="43.519686" lon="10.6248363"><ele>172.0</ele><time>2026-04-18T06:05:58.57Z</time></trkpt><trkpt lat="43.5197781" lon="10.6249233"><ele>172.0</ele><time>2026-04-18T06:05:59.561Z</time></trkpt><trkpt lat="43.519866" lon="10.624994"><ele>170.25</ele><time>2026-04-18T06:06:00.607Z</time></trkpt><trkpt lat="43.5199631" lon="10.6250874"><ele>168.5</ele><time>2026-04-18T06:06:01.568Z</time></trkpt><trkpt lat="43.5200793" lon="10.6251794"><ele>166.75</ele><time>2026-04-18T06:06:02.561Z</time></trkpt><trkpt lat="43.5201905" lon="10.6252724"><ele>165.0</ele><time>2026-04-18T06:06:03.561Z</time></trkpt><trkpt lat="43.520291" lon="10.6253679"><ele>164.8</ele><time>2026-04-18T06:06:04.562Z</time></trkpt><trkpt lat="43.5203939" lon="10.6254435"><ele>164.6</ele><time>2026-04-18T06:06:05.559Z</time></trkpt><trkpt lat="43.5204821" lon="10.6255049"><ele>164.39999999999998</ele><time>2026-04-18T06:06:06.562Z</time></trkpt><trkpt lat="43.520549" lon="10.6255817"><ele>164.2</ele><time>2026-04-18T06:06:07.561Z</time></trkpt><trkpt lat="43.5206043" lon="10.6256864"><ele>164.0</ele><time>2026-04-18T06:06:08.562Z</time></trkpt><trkpt lat="43.5206412" lon="10.625806"><ele>164.0</ele><time>2026-04-18T06:06:09.557Z</time></trkpt><trkpt lat="43.5206756" lon="10.6259508"><ele>164.0</ele><time>2026-04-18T06:06:10.559Z</time></trkpt><trkpt lat="43.5207231" lon="10.6260891"><ele>164.0</ele><time>2026-04-18T06:06:11.562Z</time></trkpt><trkpt lat="43.5207738" lon="10.6261994"><ele>164.0</ele><time>2026-04-18T06:06:12.559Z</time></trkpt><trkpt lat="43.5208528" lon="10.6262785"><ele>164.0</ele><time>2026-04-18T06:06:13.559Z</time></trkpt><trkpt lat="43.5209497" lon="10.6263385"><ele>164.0</ele><time>2026-04-18T06:06:14.555Z</time></trkpt><trkpt lat="43.5210562" lon="10.6263997"><ele>164.0</ele><time>2026-04-18T06:06:15.564Z</time></trkpt><trkpt lat="43.5211639" lon="10.6264527"><ele>164.0</ele><time>2026-04-18T06:06:16.549Z</time></trkpt><trkpt lat="43.5212897" lon="10.62653"><ele>164.0</ele><time>2026-04-18T06:06:17.565Z</time></trkpt><trkpt lat="43.5214099" lon="10.6266119"><ele>163.25</ele><time>2026-04-18T06:06:18.558Z</time></trkpt><trkpt lat="43.5215276" lon="10.6266893"><ele>162.5</ele><time>2026-04-18T06:06:19.559Z</time></trkpt><trkpt lat="43.521646" lon="10.6267637"><ele>161.75</ele><time>2026-04-18T06:06:20.561Z</time></trkpt><trkpt lat="43.5217654" lon="10.6268283"><ele>161.0</ele><time>2026-04-18T06:06:21.563Z</time></trkpt><trkpt lat="43.5218833" lon="10.6268913"><ele>161.0</ele><time>2026-04-18T06:06:22.563Z</time></trkpt><trkpt lat="43.5220068" lon="10.626936"><ele>161.0</ele><time>2026-04-18T06:06:23.568Z</time></trkpt><trkpt lat="43.5221349" lon="10.6269769"><ele>161.0</ele><time>2026-04-18T06:06:24.601Z</time></trkpt><trkpt lat="43.5222691" lon="10.6270109"><ele>161.0</ele><time>2026-04-18T06:06:25.571Z</time></trkpt><trkpt lat="43.5224136" lon="10.6270574"><ele>160.0</ele><time>2026-04-18T06:06:26.569Z</time></trkpt><trkpt lat="43.5225656" lon="10.6271043"><ele>159.0</ele><time>2026-04-18T06:06:27.568Z</time></trkpt><trkpt lat="43.5227102" lon="10.6271526"><ele>158.0</ele><time>2026-04-18T06:06:28.571Z</time></trkpt><trkpt lat="43.5228371" lon="10.627178"><ele>157.0</ele><time>2026-04-18T06:06:29.565Z</time></trkpt><trkpt lat="43.5229639" lon="10.6272145"><ele>155.6</ele><time>2026-04-18T06:06:30.569Z</time></trkpt><trkpt lat="43.5230776" lon="10.6272566"><ele>154.2</ele><time>2026-04-18T06:06:31.562Z</time></trkpt><trkpt lat="43.5231823" lon="10.6273031"><ele>152.8</ele><time>2026-04-18T06:06:32.565Z</time></trkpt><trkpt lat="43.5232696" lon="10.6273785"><ele>151.4</ele><time>2026-04-18T06:06:33.562Z</time></trkpt><trkpt lat="43.5233356" lon="10.6274695"><ele>150.0</ele><time>2026-04-18T06:06:34.563Z</time></trkpt><trkpt lat="43.523403" lon="10.6275668"><ele>150.0</ele><time>2026-04-18T06:06:35.568Z</time></trkpt><trkpt lat="43.5234741" lon="10.6276612"><ele>150.0</ele><time>2026-04-18T06:06:36.564Z</time></trkpt><trkpt lat="43.5235514" lon="10.6277328"><ele>150.0</ele><time>2026-04-18T06:06:37.561Z</time></trkpt><trkpt lat="43.5236469" lon="10.6277516"><ele>150.0</ele><time>2026-04-18T06:06:38.518Z</time></trkpt><trkpt lat="43.5237495" lon="10.6277423"><ele>150.0</ele><time>2026-04-18T06:06:39.524Z</time></trkpt><trkpt lat="43.5238578" lon="10.6277264"><ele>148.66666666666666</ele><time>2026-04-18T06:06:40.512Z</time></trkpt><trkpt lat="43.5239428" lon="10.6277325"><ele>147.33333333333334</ele><time>2026-04-18T06:06:41.514Z</time></trkpt><trkpt lat="43.5240299" lon="10.6277414"><ele>146.0</ele><time>2026-04-18T06:06:42.509Z</time></trkpt><trkpt lat="43.5241181" lon="10.627755"><ele>144.66666666666669</ele><time>2026-04-18T06:06:43.57Z</time></trkpt><trkpt lat="43.5242157" lon="10.6277479"><ele>143.33333333333334</ele><time>2026-04-18T06:06:45.545Z</time></trkpt><trkpt lat="43.5242633" lon="10.6276812"><ele>142.0</ele><time>2026-04-18T06:06:47.549Z</time></trkpt><trkpt lat="43.5242875" lon="10.6276001"><ele>142.0</ele><time>2026-04-18T06:06:50.558Z</time></trkpt><trkpt lat="43.5243447" lon="10.6275624"><ele>142.0</ele><time>2026-04-18T06:06:52.556Z</time></trkpt><trkpt lat="43.524451" lon="10.6275532"><ele>142.0</ele><time>2026-04-18T06:06:54.568Z</time></trkpt><trkpt lat="43.5245478" lon="10.6275501"><ele>142.0</ele><time>2026-04-18T06:06:56.566Z</time></trkpt><trkpt lat="43.5244821" lon="10.62756"><ele>142.0</ele><time>2026-04-18T06:07:04.556Z</time></trkpt><trkpt lat="43.5244124" lon="10.6275807"><ele>142.0</ele><time>2026-04-18T06:07:06.563Z</time></trkpt><trkpt lat="43.524347" lon="10.6276197"><ele>142.0</ele><time>2026-04-18T06:07:08.553Z</time></trkpt><trkpt lat="43.5242617" lon="10.6275193"><ele>142.0</ele><time>2026-04-18T06:07:12.567Z</time></trkpt><trkpt lat="43.5242369" lon="10.6273778"><ele>142.0</ele><time>2026-04-18T06:07:14.569Z</time></trkpt><trkpt lat="43.524252" lon="10.6272734"><ele>142.0</ele><time>2026-04-18T06:07:15.564Z</time></trkpt><trkpt lat="43.5242618" lon="10.6271341"><ele>142.0</ele><time>2026-04-18T06:07:16.554Z</time></trkpt><trkpt lat="43.5242701" lon="10.6269918"><ele>142.2</ele><time>2026-04-18T06:07:17.567Z</time></trkpt><trkpt lat="43.5242872" lon="10.6268544"><ele>142.39999999999998</ele><time>2026-04-18T06:07:18.565Z</time></trkpt><trkpt lat="43.5242975" lon="10.6267111"><ele>142.60000000000002</ele><time>2026-04-18T06:07:19.591Z</time></trkpt><trkpt lat="43.5243076" lon="10.6265843"><ele>142.8</ele><time>2026-04-18T06:07:20.569Z</time></trkpt><trkpt lat="43.5243178" lon="10.6264663"><ele>143.0</ele><time>2026-04-18T06:07:21.562Z</time></trkpt><trkpt lat="43.5243418" lon="10.6263493"><ele>143.0</ele><time>2026-04-18T06:07:22.564Z</time></trkpt><trkpt lat="43.5243929" lon="10.6262463"><ele>143.0</ele><time>2026-04-18T06:07:23.573Z</time></trkpt><trkpt lat="43.5245128" lon="10.6261413"><ele>143.0</ele><time>2026-04-18T06:07:24.578Z</time></trkpt><trkpt lat="43.5246008" lon="10.6260008"><ele>143.0</ele><time>2026-04-18T06:07:25.568Z</time></trkpt><trkpt lat="43.5246975" lon="10.6258426"><ele>139.33333333333331</ele><time>2026-04-18T06:07:26.562Z</time></trkpt><trkpt lat="43.524799" lon="10.6256796"><ele>135.66666666666666</ele><time>2026-04-18T06:07:27.563Z</time></trkpt><trkpt lat="43.5249054" lon="10.6255097"><ele>132.0</ele><time>2026-04-18T06:07:28.567Z</time></trkpt><trkpt lat="43.5250033" lon="10.6253485"><ele>131.0</ele><time>2026-04-18T06:07:29.573Z</time></trkpt><trkpt lat="43.5250949" lon="10.6251911"><ele>130.0</ele><time>2026-04-18T06:07:30.57Z</time></trkpt><trkpt lat="43.5251857" lon="10.6250426"><ele>129.0</ele><time>2026-04-18T06:07:31.567Z</time></trkpt><trkpt lat="43.5252854" lon="10.6249089"><ele>128.0</ele><time>2026-04-18T06:07:32.555Z</time></trkpt><trkpt lat="43.5253905" lon="10.6247805"><ele>127.25</ele><time>2026-04-18T06:07:33.561Z</time></trkpt><trkpt lat="43.5255019" lon="10.6246484"><ele>126.5</ele><time>2026-04-18T06:07:34.56Z</time></trkpt><trkpt lat="43.5256058" lon="10.6245122"><ele>125.75</ele><time>2026-04-18T06:07:35.563Z</time></trkpt><trkpt lat="43.5257096" lon="10.6243788"><ele>125.0</ele><time>2026-04-18T06:07:36.558Z</time></trkpt><trkpt lat="43.5258073" lon="10.624259"><ele>123.25</ele><time>2026-04-18T06:07:37.564Z</time></trkpt><trkpt lat="43.525897" lon="10.6241333"><ele>121.5</ele><time>2026-04-18T06:07:38.566Z</time></trkpt><trkpt lat="43.5259852" lon="10.6240026"><ele>119.75</ele><time>2026-04-18T06:07:39.56Z</time></trkpt><trkpt lat="43.5260626" lon="10.6238702"><ele>118.0</ele><time>2026-04-18T06:07:40.577Z</time></trkpt><trkpt lat="43.5261265" lon="10.6237567"><ele>118.00000000000001</ele><time>2026-04-18T06:07:41.567Z</time></trkpt><trkpt lat="43.5261906" lon="10.6236603"><ele>118.0</ele><time>2026-04-18T06:07:42.568Z</time></trkpt><trkpt lat="43.5262294" lon="10.6235574"><ele>118.0</ele><time>2026-04-18T06:07:43.568Z</time></trkpt><trkpt lat="43.5262442" lon="10.6234612"><ele>118.0</ele><time>2026-04-18T06:07:44.569Z</time></trkpt><trkpt lat="43.526243" lon="10.6233606"><ele>118.00000000000001</ele><time>2026-04-18T06:07:45.57Z</time></trkpt><trkpt lat="43.526201" lon="10.6232532"><ele>118.0</ele><time>2026-04-18T06:07:46.57Z</time></trkpt><trkpt lat="43.5261322" lon="10.6231446"><ele>117.80000000000001</ele><time>2026-04-18T06:07:47.56Z</time></trkpt><trkpt lat="43.5260658" lon="10.6230445"><ele>117.60000000000001</ele><time>2026-04-18T06:07:48.566Z</time></trkpt><trkpt lat="43.5260052" lon="10.6229559"><ele>117.39999999999999</ele><time>2026-04-18T06:07:49.562Z</time></trkpt><trkpt lat="43.5259242" lon="10.6228589"><ele>117.19999999999999</ele><time>2026-04-18T06:07:50.562Z</time></trkpt><trkpt lat="43.5258428" lon="10.6227658"><ele>117.0</ele><time>2026-04-18T06:07:51.561Z</time></trkpt><trkpt lat="43.525749" lon="10.6226823"><ele>115.6</ele><time>2026-04-18T06:07:52.561Z</time></trkpt><trkpt lat="43.5256431" lon="10.6226036"><ele>114.19999999999999</ele><time>2026-04-18T06:07:53.549Z</time></trkpt><trkpt lat="43.5255426" lon="10.6225334"><ele>112.8</ele><time>2026-04-18T06:07:54.557Z</time></trkpt><trkpt lat="43.5254611" lon="10.6224581"><ele>111.4</ele><time>2026-04-18T06:07:55.556Z</time></trkpt><trkpt lat="43.5253974" lon="10.6223835"><ele>110.0</ele><time>2026-04-18T06:07:56.558Z</time></trkpt><trkpt lat="43.5253432" lon="10.622283"><ele>109.99999999999999</ele><time>2026-04-18T06:07:57.566Z</time></trkpt><trkpt lat="43.5253082" lon="10.6221773"><ele>110.0</ele><time>2026-04-18T06:07:58.571Z</time></trkpt><trkpt lat="43.5252763" lon="10.6220763"><ele>110.0</ele><time>2026-04-18T06:07:59.562Z</time></trkpt><trkpt lat="43.5252328" lon="10.6219759"><ele>110.0</ele><time>2026-04-18T06:08:00.555Z</time></trkpt><trkpt lat="43.5252017" lon="10.6218655"><ele>109.99999999999999</ele><time>2026-04-18T06:08:01.558Z</time></trkpt><trkpt lat="43.5252076" lon="10.6217572"><ele>110.0</ele><time>2026-04-18T06:08:02.555Z</time></trkpt><trkpt lat="43.5252421" lon="10.6216713"><ele>110.6</ele><time>2026-04-18T06:08:03.566Z</time></trkpt><trkpt lat="43.5253045" lon="10.6215895"><ele>111.2</ele><time>2026-04-18T06:08:05.568Z</time></trkpt><trkpt lat="43.5254038" lon="10.6215558"><ele>111.80000000000001</ele><time>2026-04-18T06:08:08.566Z</time></trkpt><trkpt lat="43.5255481" lon="10.6215668"><ele>112.4</ele><time>2026-04-18T06:08:10.561Z</time></trkpt><trkpt lat="43.5256408" lon="10.6215677"><ele>113.0</ele><time>2026-04-18T06:08:11.555Z</time></trkpt><trkpt lat="43.5257299" lon="10.6215722"><ele>113.0</ele><time>2026-04-18T06:08:12.565Z</time></trkpt><trkpt lat="43.5258443" lon="10.6215794"><ele>113.0</ele><time>2026-04-18T06:08:13.559Z</time></trkpt><trkpt lat="43.5259745" lon="10.6215842"><ele>113.0</ele><time>2026-04-18T06:08:14.569Z</time></trkpt><trkpt lat="43.5261144" lon="10.6215871"><ele>113.0</ele><time>2026-04-18T06:08:15.561Z</time></trkpt><trkpt lat="43.5262589" lon="10.6215899"><ele>112.25</ele><time>2026-04-18T06:08:16.565Z</time></trkpt><trkpt lat="43.5264014" lon="10.6215906"><ele>111.5</ele><time>2026-04-18T06:08:17.559Z</time></trkpt><trkpt lat="43.5265423" lon="10.6215941"><ele>110.75</ele><time>2026-04-18T06:08:18.569Z</time></trkpt><trkpt lat="43.526682" lon="10.6215991"><ele>110.0</ele><time>2026-04-18T06:08:19.555Z</time></trkpt><trkpt lat="43.5268172" lon="10.6216032"><ele>110.0</ele><time>2026-04-18T06:08:20.563Z</time></trkpt><trkpt lat="43.5269411" lon="10.6216036"><ele>110.0</ele><time>2026-04-18T06:08:21.564Z</time></trkpt><trkpt lat="43.527065" lon="10.6216043"><ele>110.0</ele><time>2026-04-18T06:08:22.565Z</time></trkpt><trkpt lat="43.527184" lon="10.6216067"><ele>110.0</ele><time>2026-04-18T06:08:23.561Z</time></trkpt><trkpt lat="43.5273024" lon="10.6216152"><ele>109.0</ele><time>2026-04-18T06:08:24.57Z</time></trkpt><trkpt lat="43.5274168" lon="10.6216157"><ele>108.0</ele><time>2026-04-18T06:08:25.565Z</time></trkpt><trkpt lat="43.5275242" lon="10.6215974"><ele>107.0</ele><time>2026-04-18T06:08:26.562Z</time></trkpt><trkpt lat="43.5276304" lon="10.6215623"><ele>106.0</ele><time>2026-04-18T06:08:27.566Z</time></trkpt><trkpt lat="43.5277329" lon="10.621516"><ele>105.0</ele><time>2026-04-18T06:08:28.567Z</time></trkpt><trkpt lat="43.5278242" lon="10.6214682"><ele>104.0</ele><time>2026-04-18T06:08:29.561Z</time></trkpt><trkpt lat="43.5279115" lon="10.6214215"><ele>103.0</ele><time>2026-04-18T06:08:30.563Z</time></trkpt><trkpt lat="43.5279884" lon="10.6213835"><ele>102.0</ele><time>2026-04-18T06:08:31.561Z</time></trkpt><trkpt lat="43.5280637" lon="10.6213388"><ele>101.0</ele><time>2026-04-18T06:08:32.562Z</time></trkpt><trkpt lat="43.5281438" lon="10.6212955"><ele>100.0</ele><time>2026-04-18T06:08:33.556Z</time></trkpt><trkpt lat="43.5282209" lon="10.6212516"><ele>99.0</ele><time>2026-04-18T06:08:34.556Z</time></trkpt><trkpt lat="43.5282966" lon="10.6212097"><ele>99.0</ele><time>2026-04-18T06:08:35.552Z</time></trkpt><trkpt lat="43.5283763" lon="10.621173"><ele>99.0</ele><time>2026-04-18T06:08:36.551Z</time></trkpt><trkpt lat="43.5284569" lon="10.6211375"><ele>99.0</ele><time>2026-04-18T06:08:37.562Z</time></trkpt><trkpt lat="43.5285344" lon="10.6211017"><ele>99.0</ele><time>2026-04-18T06:08:38.569Z</time></trkpt><trkpt lat="43.5286168" lon="10.6210717"><ele>99.0</ele><time>2026-04-18T06:08:39.558Z</time></trkpt><trkpt lat="43.5287027" lon="10.6210354"><ele>99.0</ele><time>2026-04-18T06:08:40.555Z</time></trkpt><trkpt lat="43.5287846" lon="10.6210005"><ele>99.0</ele><time>2026-04-18T06:08:41.548Z</time></trkpt><trkpt lat="43.5288695" lon="10.6209647"><ele>99.0</ele><time>2026-04-18T06:08:42.565Z</time></trkpt><trkpt lat="43.5289547" lon="10.6209341"><ele>99.0</ele><time>2026-04-18T06:08:43.563Z</time></trkpt><trkpt lat="43.5290376" lon="10.6209094"><ele>99.0</ele><time>2026-04-18T06:08:44.56Z</time></trkpt><trkpt lat="43.5291203" lon="10.6208901"><ele>99.0</ele><time>2026-04-18T06:08:45.557Z</time></trkpt><trkpt lat="43.5292073" lon="10.620877"><ele>99.0</ele><time>2026-04-18T06:08:46.556Z</time></trkpt><trkpt lat="43.5292964" lon="10.6208714"><ele>99.0</ele><time>2026-04-18T06:08:47.547Z</time></trkpt><trkpt lat="43.5293944" lon="10.6208676"><ele>99.0</ele><time>2026-04-18T06:08:48.558Z</time></trkpt><trkpt lat="43.529484" lon="10.6208678"><ele>99.0</ele><time>2026-04-18T06:08:49.556Z</time></trkpt><trkpt lat="43.5295713" lon="10.6208756"><ele>99.0</ele><time>2026-04-18T06:08:50.562Z</time></trkpt><trkpt lat="43.529663" lon="10.6208951"><ele>99.0</ele><time>2026-04-18T06:08:51.564Z</time></trkpt><trkpt lat="43.5297571" lon="10.6209155"><ele>98.2</ele><time>2026-04-18T06:08:52.565Z</time></trkpt><trkpt lat="43.529855" lon="10.620941"><ele>97.4</ele><time>2026-04-18T06:08:53.566Z</time></trkpt><trkpt lat="43.5299514" lon="10.6209662"><ele>96.6</ele><time>2026-04-18T06:08:54.559Z</time></trkpt><trkpt lat="43.5300527" lon="10.6209911"><ele>95.8</ele><time>2026-04-18T06:08:55.567Z</time></trkpt><trkpt lat="43.5301585" lon="10.6210217"><ele>95.0</ele><time>2026-04-18T06:08:56.562Z</time></trkpt><trkpt lat="43.5302672" lon="10.6210576"><ele>95.0</ele><time>2026-04-18T06:08:57.563Z</time></trkpt><trkpt lat="43.5303769" lon="10.6210874"><ele>95.0</ele><time>2026-04-18T06:08:58.573Z</time></trkpt><trkpt lat="43.5304876" lon="10.6211128"><ele>95.0</ele><time>2026-04-18T06:08:59.566Z</time></trkpt><trkpt lat="43.5306013" lon="10.6211244"><ele>95.0</ele><time>2026-04-18T06:09:00.566Z</time></trkpt><trkpt lat="43.5307133" lon="10.6211034"><ele>93.6</ele><time>2026-04-18T06:09:01.568Z</time></trkpt><trkpt lat="43.5308203" lon="10.6210602"><ele>92.2</ele><time>2026-04-18T06:09:02.559Z</time></trkpt><trkpt lat="43.5309174" lon="10.6209815"><ele>90.80000000000001</ele><time>2026-04-18T06:09:03.567Z</time></trkpt><trkpt lat="43.5310005" lon="10.6208853"><ele>89.4</ele><time>2026-04-18T06:09:04.565Z</time></trkpt><trkpt lat="43.5310612" lon="10.6207699"><ele>88.0</ele><time>2026-04-18T06:09:05.568Z</time></trkpt><trkpt lat="43.5311111" lon="10.6206368"><ele>88.0</ele><time>2026-04-18T06:09:06.566Z</time></trkpt><trkpt lat="43.5311635" lon="10.6205047"><ele>88.0</ele><time>2026-04-18T06:09:07.558Z</time></trkpt><trkpt lat="43.5312207" lon="10.6203742"><ele>88.0</ele><time>2026-04-18T06:09:08.563Z</time></trkpt><trkpt lat="43.5312801" lon="10.6202413"><ele>88.0</ele><time>2026-04-18T06:09:09.552Z</time></trkpt><trkpt lat="43.5313336" lon="10.6201063"><ele>88.0</ele><time>2026-04-18T06:09:10.556Z</time></trkpt><trkpt lat="43.5313907" lon="10.6199719"><ele>86.0</ele><time>2026-04-18T06:09:11.55Z</time></trkpt><trkpt lat="43.5314544" lon="10.619839"><ele>84.0</ele><time>2026-04-18T06:09:12.565Z</time></trkpt><trkpt lat="43.5315275" lon="10.6197142"><ele>82.0</ele><time>2026-04-18T06:09:13.567Z</time></trkpt><trkpt lat="43.5316168" lon="10.6195935"><ele>80.0</ele><time>2026-04-18T06:09:14.56Z</time></trkpt><trkpt lat="43.5317292" lon="10.6194925"><ele>80.25</ele><time>2026-04-18T06:09:15.573Z</time></trkpt><trkpt lat="43.5318481" lon="10.6194152"><ele>80.5</ele><time>2026-04-18T06:09:16.555Z</time></trkpt><trkpt lat="43.5319819" lon="10.619363"><ele>80.75</ele><time>2026-04-18T06:09:17.615Z</time></trkpt><trkpt lat="43.5320783" lon="10.6193604"><ele>81.0</ele><time>2026-04-18T06:09:18.516Z</time></trkpt><trkpt lat="43.5322258" lon="10.6193364"><ele>78.33333333333333</ele><time>2026-04-18T06:09:19.517Z</time></trkpt><trkpt lat="43.5323862" lon="10.6193354"><ele>75.66666666666666</ele><time>2026-04-18T06:09:20.522Z</time></trkpt><trkpt lat="43.5325327" lon="10.6193678"><ele>73.0</ele><time>2026-04-18T06:09:21.509Z</time></trkpt><trkpt lat="43.5326742" lon="10.6194044"><ele>73.0</ele><time>2026-04-18T06:09:22.516Z</time></trkpt><trkpt lat="43.5328015" lon="10.6194433"><ele>73.0</ele><time>2026-04-18T06:09:23.514Z</time></trkpt><trkpt lat="43.5329372" lon="10.6194946"><ele>73.0</ele><time>2026-04-18T06:09:24.504Z</time></trkpt><trkpt lat="43.5330895" lon="10.6195382"><ele>73.0</ele><time>2026-04-18T06:09:25.518Z</time></trkpt><trkpt lat="43.5332286" lon="10.6195894"><ele>72.0</ele><time>2026-04-18T06:09:26.513Z</time></trkpt><trkpt lat="43.5333622" lon="10.6196293"><ele>71.0</ele><time>2026-04-18T06:09:27.512Z</time></trkpt><trkpt lat="43.5335002" lon="10.6196724"><ele>70.0</ele><time>2026-04-18T06:09:28.51Z</time></trkpt><trkpt lat="43.5336447" lon="10.619716"><ele>69.0</ele><time>2026-04-18T06:09:29.516Z</time></trkpt><trkpt lat="43.5337927" lon="10.6197472"><ele>68.75</ele><time>2026-04-18T06:09:30.505Z</time></trkpt><trkpt lat="43.5339364" lon="10.6197857"><ele>68.5</ele><time>2026-04-18T06:09:31.507Z</time></trkpt><trkpt lat="43.5340844" lon="10.6198162"><ele>68.25</ele><time>2026-04-18T06:09:32.512Z</time></trkpt><trkpt lat="43.5342306" lon="10.619846"><ele>68.0</ele><time>2026-04-18T06:09:33.505Z</time></trkpt><trkpt lat="43.5343687" lon="10.6198874"><ele>68.0</ele><time>2026-04-18T06:09:34.513Z</time></trkpt><trkpt lat="43.5345018" lon="10.6199059"><ele>68.0</ele><time>2026-04-18T06:09:35.513Z</time></trkpt><trkpt lat="43.5346457" lon="10.6198814"><ele>68.0</ele><time>2026-04-18T06:09:36.513Z</time></trkpt><trkpt lat="43.5347899" lon="10.6198368"><ele>68.0</ele><time>2026-04-18T06:09:37.505Z</time></trkpt><trkpt lat="43.5349297" lon="10.6197969"><ele>67.75</ele><time>2026-04-18T06:09:38.507Z</time></trkpt><trkpt lat="43.5350751" lon="10.619758"><ele>67.5</ele><time>2026-04-18T06:09:39.533Z</time></trkpt><trkpt lat="43.5352191" lon="10.6197151"><ele>67.25</ele><time>2026-04-18T06:09:40.507Z</time></trkpt><trkpt lat="43.5353594" lon="10.6196753"><ele>67.0</ele><time>2026-04-18T06:09:41.509Z</time></trkpt><trkpt lat="43.5354972" lon="10.6196373"><ele>66.0</ele><time>2026-04-18T06:09:42.508Z</time></trkpt><trkpt lat="43.5356474" lon="10.6196131"><ele>65.0</ele><time>2026-04-18T06:09:43.512Z</time></trkpt><trkpt lat="43.535801" lon="10.6195658"><ele>64.0</ele><time>2026-04-18T06:09:44.518Z</time></trkpt><trkpt lat="43.5359683" lon="10.6195231"><ele>64.33333333333333</ele><time>2026-04-18T06:09:45.505Z</time></trkpt><trkpt lat="43.5361307" lon="10.6194702"><ele>64.66666666666667</ele><time>2026-04-18T06:09:46.506Z</time></trkpt><trkpt lat="43.5362921" lon="10.6194164"><ele>65.0</ele><time>2026-04-18T06:09:47.508Z</time></trkpt><trkpt lat="43.5364593" lon="10.6193682"><ele>65.33333333333334</ele><time>2026-04-18T06:09:48.508Z</time></trkpt><trkpt lat="43.5366236" lon="10.619323"><ele>65.66666666666667</ele><time>2026-04-18T06:09:49.506Z</time></trkpt><trkpt lat="43.5367888" lon="10.6192726"><ele>66.0</ele><time>2026-04-18T06:09:50.503Z</time></trkpt><trkpt lat="43.5369606" lon="10.6192697"><ele>65.66666666666667</ele><time>2026-04-18T06:09:51.531Z</time></trkpt><trkpt lat="43.5371347" lon="10.6192695"><ele>65.33333333333334</ele><time>2026-04-18T06:09:52.511Z</time></trkpt><trkpt lat="43.5373146" lon="10.619264"><ele>65.0</ele><time>2026-04-18T06:09:53.503Z</time></trkpt><trkpt lat="43.537493" lon="10.6192553"><ele>65.0</ele><time>2026-04-18T06:09:54.503Z</time></trkpt><trkpt lat="43.5376794" lon="10.6192392"><ele>65.0</ele><time>2026-04-18T06:09:55.512Z</time></trkpt><trkpt lat="43.5378493" lon="10.6192262"><ele>65.0</ele><time>2026-04-18T06:09:56.513Z</time></trkpt><trkpt lat="43.5380164" lon="10.6192172"><ele>63.66666666666667</ele><time>2026-04-18T06:09:57.509Z</time></trkpt><trkpt lat="43.5381879" lon="10.6192021"><ele>62.33333333333333</ele><time>2026-04-18T06:09:58.511Z</time></trkpt><trkpt lat="43.5383621" lon="10.6192197"><ele>61.0</ele><time>2026-04-18T06:09:59.507Z</time></trkpt><trkpt lat="43.5385294" lon="10.6192344"><ele>61.0</ele><time>2026-04-18T06:10:00.507Z</time></trkpt><trkpt lat="43.5386906" lon="10.6192553"><ele>61.0</ele><time>2026-04-18T06:10:01.508Z</time></trkpt><trkpt lat="43.5388464" lon="10.6192806"><ele>61.0</ele><time>2026-04-18T06:10:02.509Z</time></trkpt><trkpt lat="43.5390161" lon="10.6192991"><ele>61.0</ele><time>2026-04-18T06:10:03.517Z</time></trkpt><trkpt lat="43.539188" lon="10.6193149"><ele>61.0</ele><time>2026-04-18T06:10:04.506Z</time></trkpt><trkpt lat="43.5393577" lon="10.6193388"><ele>61.0</ele><time>2026-04-18T06:10:05.519Z</time></trkpt><trkpt lat="43.5395307" lon="10.6193627"><ele>61.0</ele><time>2026-04-18T06:10:06.506Z</time></trkpt><trkpt lat="43.5396985" lon="10.6193656"><ele>61.0</ele><time>2026-04-18T06:10:07.507Z</time></trkpt><trkpt lat="43.5398603" lon="10.6193482"><ele>61.0</ele><time>2026-04-18T06:10:08.524Z</time></trkpt><trkpt lat="43.5400254" lon="10.6193247"><ele>61.0</ele><time>2026-04-18T06:10:09.512Z</time></trkpt><trkpt lat="43.5401875" lon="10.6192947"><ele>61.0</ele><time>2026-04-18T06:10:10.518Z</time></trkpt><trkpt lat="43.5403564" lon="10.6192621"><ele>61.0</ele><time>2026-04-18T06:10:11.519Z</time></trkpt><trkpt lat="43.5405199" lon="10.6192397"><ele>60.666666666666664</ele><time>2026-04-18T06:10:12.517Z</time></trkpt><trkpt lat="43.5406868" lon="10.6192181"><ele>60.33333333333333</ele><time>2026-04-18T06:10:13.51Z</time></trkpt><trkpt lat="43.5408564" lon="10.6191954"><ele>60.0</ele><time>2026-04-18T06:10:14.512Z</time></trkpt><trkpt lat="43.5410291" lon="10.6191657"><ele>60.0</ele><time>2026-04-18T06:10:15.521Z</time></trkpt><trkpt lat="43.541199" lon="10.6191584"><ele>60.0</ele><time>2026-04-18T06:10:16.539Z</time></trkpt><trkpt lat="43.541379" lon="10.6191607"><ele>60.0</ele><time>2026-04-18T06:10:17.51Z</time></trkpt><trkpt lat="43.5415579" lon="10.6191833"><ele>60.0</ele><time>2026-04-18T06:10:18.513Z</time></trkpt><trkpt lat="43.5417302" lon="10.6192303"><ele>60.0</ele><time>2026-04-18T06:10:19.517Z</time></trkpt><trkpt lat="43.5419027" lon="10.6192763"><ele>60.0</ele><time>2026-04-18T06:10:20.51Z</time></trkpt><trkpt lat="43.5420661" lon="10.6193402"><ele>60.0</ele><time>2026-04-18T06:10:21.515Z</time></trkpt><trkpt lat="43.542235" lon="10.6194195"><ele>60.0</ele><time>2026-04-18T06:10:22.527Z</time></trkpt><trkpt lat="43.5424056" lon="10.6195096"><ele>60.0</ele><time>2026-04-18T06:10:23.522Z</time></trkpt><trkpt lat="43.5425723" lon="10.6195929"><ele>59.66666666666667</ele><time>2026-04-18T06:10:24.504Z</time></trkpt><trkpt lat="43.5427312" lon="10.6196775"><ele>59.333333333333336</ele><time>2026-04-18T06:10:25.523Z</time></trkpt><trkpt lat="43.5428843" lon="10.6197615"><ele>59.0</ele><time>2026-04-18T06:10:26.51Z</time></trkpt><trkpt lat="43.5430362" lon="10.6198338"><ele>58.333333333333336</ele><time>2026-04-18T06:10:27.514Z</time></trkpt><trkpt lat="43.5431976" lon="10.6199064"><ele>57.66666666666667</ele><time>2026-04-18T06:10:28.528Z</time></trkpt><trkpt lat="43.5433517" lon="10.6199904"><ele>57.0</ele><time>2026-04-18T06:10:29.523Z</time></trkpt><trkpt lat="43.5435051" lon="10.6200709"><ele>57.0</ele><time>2026-04-18T06:10:30.529Z</time></trkpt><trkpt lat="43.5436587" lon="10.6201511"><ele>57.0</ele><time>2026-04-18T06:10:31.52Z</time></trkpt><trkpt lat="43.543814" lon="10.6202291"><ele>57.0</ele><time>2026-04-18T06:10:32.528Z</time></trkpt><trkpt lat="43.5439615" lon="10.6203072"><ele>56.66666666666667</ele><time>2026-04-18T06:10:33.514Z</time></trkpt><trkpt lat="43.544108" lon="10.620404"><ele>56.333333333333336</ele><time>2026-04-18T06:10:34.514Z</time></trkpt><trkpt lat="43.5442569" lon="10.6205057"><ele>56.0</ele><time>2026-04-18T06:10:35.513Z</time></trkpt><trkpt lat="43.5444164" lon="10.6206178"><ele>55.333333333333336</ele><time>2026-04-18T06:10:36.512Z</time></trkpt><trkpt lat="43.544573" lon="10.6207276"><ele>54.66666666666667</ele><time>2026-04-18T06:10:37.527Z</time></trkpt><trkpt lat="43.5447321" lon="10.6208346"><ele>54.0</ele><time>2026-04-18T06:10:38.517Z</time></trkpt><trkpt lat="43.5448813" lon="10.6209316"><ele>54.0</ele><time>2026-04-18T06:10:39.52Z</time></trkpt><trkpt lat="43.5450274" lon="10.6210347"><ele>54.0</ele><time>2026-04-18T06:10:40.525Z</time></trkpt><trkpt lat="43.5451657" lon="10.6211509"><ele>54.0</ele><time>2026-04-18T06:10:41.506Z</time></trkpt><trkpt lat="43.5453036" lon="10.6212809"><ele>53.0</ele><time>2026-04-18T06:10:42.515Z</time></trkpt><trkpt lat="43.5454365" lon="10.6213844"><ele>52.0</ele><time>2026-04-18T06:10:43.508Z</time></trkpt><trkpt lat="43.5455691" lon="10.6215389"><ele>51.0</ele><time>2026-04-18T06:10:44.511Z</time></trkpt><trkpt lat="43.5458229" lon="10.6218289"><ele>51.0</ele><time>2026-04-18T06:10:46.508Z</time></trkpt><trkpt lat="43.5459522" lon="10.6219706"><ele>51.0</ele><time>2026-04-18T06:10:47.517Z</time></trkpt><trkpt lat="43.5461063" lon="10.6220713"><ele>51.0</ele><time>2026-04-18T06:10:48.513Z</time></trkpt><trkpt lat="43.546243" lon="10.6221766"><ele>51.0</ele><time>2026-04-18T06:10:49.521Z</time></trkpt><trkpt lat="43.5463929" lon="10.6222472"><ele>51.0</ele><time>2026-04-18T06:10:50.521Z</time></trkpt><trkpt lat="43.5465439" lon="10.6223043"><ele>51.0</ele><time>2026-04-18T06:10:51.53Z</time></trkpt><trkpt lat="43.5466824" lon="10.6223831"><ele>51.0</ele><time>2026-04-18T06:10:52.517Z</time></trkpt><trkpt lat="43.5468176" lon="10.6224494"><ele>51.0</ele><time>2026-04-18T06:10:53.516Z</time></trkpt><trkpt lat="43.546967" lon="10.6224997"><ele>51.0</ele><time>2026-04-18T06:10:54.506Z</time></trkpt><trkpt lat="43.5471067" lon="10.6225359"><ele>51.0</ele><time>2026-04-18T06:10:55.518Z</time></trkpt><trkpt lat="43.5472345" lon="10.6225616"><ele>53.25</ele><time>2026-04-18T06:10:56.522Z</time></trkpt><trkpt lat="43.5473689" lon="10.6225964"><ele>55.5</ele><time>2026-04-18T06:10:57.515Z</time></trkpt><trkpt lat="43.5475054" lon="10.6226431"><ele>57.75</ele><time>2026-04-18T06:10:58.507Z</time></trkpt><trkpt lat="43.5476362" lon="10.6226952"><ele>60.0</ele><time>2026-04-18T06:10:59.499Z</time></trkpt><trkpt lat="43.547768" lon="10.6227489"><ele>60.5</ele><time>2026-04-18T06:11:00.504Z</time></trkpt><trkpt lat="43.5478928" lon="10.6228129"><ele>61.0</ele><time>2026-04-18T06:11:01.502Z</time></trkpt><trkpt lat="43.5480191" lon="10.6228842"><ele>61.5</ele><time>2026-04-18T06:11:02.5Z</time></trkpt><trkpt lat="43.5481331" lon="10.6229626"><ele>62.0</ele><time>2026-04-18T06:11:03.509Z</time></trkpt><trkpt lat="43.5482498" lon="10.6230491"><ele>60.75</ele><time>2026-04-18T06:11:04.514Z</time></trkpt><trkpt lat="43.5483603" lon="10.6231641"><ele>59.5</ele><time>2026-04-18T06:11:05.505Z</time></trkpt><trkpt lat="43.548443" lon="10.6233236"><ele>58.25</ele><time>2026-04-18T06:11:06.528Z</time></trkpt><trkpt lat="43.5485166" lon="10.6234868"><ele>57.0</ele><time>2026-04-18T06:11:07.503Z</time></trkpt><trkpt lat="43.5485797" lon="10.6236694"><ele>56.0</ele><time>2026-04-18T06:11:08.511Z</time></trkpt><trkpt lat="43.5486409" lon="10.6238625"><ele>55.0</ele><time>2026-04-18T06:11:09.494Z</time></trkpt><trkpt lat="43.5487037" lon="10.6240623"><ele>54.0</ele><time>2026-04-18T06:11:10.542Z</time></trkpt><trkpt lat="43.548849" lon="10.6244077"><ele>54.75</ele><time>2026-04-18T06:11:12.516Z</time></trkpt><trkpt lat="43.548939" lon="10.6245507"><ele>55.5</ele><time>2026-04-18T06:11:13.523Z</time></trkpt><trkpt lat="43.5490364" lon="10.6246777"><ele>56.25</ele><time>2026-04-18T06:11:14.509Z</time></trkpt><trkpt lat="43.5491366" lon="10.6247902"><ele>57.0</ele><time>2026-04-18T06:11:15.508Z</time></trkpt><trkpt lat="43.5492336" lon="10.6249126"><ele>57.0</ele><time>2026-04-18T06:11:16.518Z</time></trkpt><trkpt lat="43.5493304" lon="10.6250338"><ele>57.0</ele><time>2026-04-18T06:11:17.518Z</time></trkpt><trkpt lat="43.5494273" lon="10.6251538"><ele>57.0</ele><time>2026-04-18T06:11:18.519Z</time></trkpt><trkpt lat="43.5495307" lon="10.625262"><ele>57.0</ele><time>2026-04-18T06:11:19.52Z</time></trkpt><trkpt lat="43.5496378" lon="10.6253651"><ele>56.25</ele><time>2026-04-18T06:11:20.524Z</time></trkpt><trkpt lat="43.5497676" lon="10.6254512"><ele>55.5</ele><time>2026-04-18T06:11:21.513Z</time></trkpt><trkpt lat="43.5499014" lon="10.6255121"><ele>54.75</ele><time>2026-04-18T06:11:22.51Z</time></trkpt><trkpt lat="43.5500483" lon="10.6255595"><ele>54.0</ele><time>2026-04-18T06:11:23.516Z</time></trkpt><trkpt lat="43.5501996" lon="10.6256005"><ele>54.0</ele><time>2026-04-18T06:11:24.526Z</time></trkpt><trkpt lat="43.550347" lon="10.6256508"><ele>54.0</ele><time>2026-04-18T06:11:25.507Z</time></trkpt><trkpt lat="43.5504905" lon="10.6256898"><ele>54.0</ele><time>2026-04-18T06:11:26.529Z</time></trkpt><trkpt lat="43.5506417" lon="10.6257404"><ele>53.66666666666667</ele><time>2026-04-18T06:11:27.528Z</time></trkpt><trkpt lat="43.5508047" lon="10.6257638"><ele>53.333333333333336</ele><time>2026-04-18T06:11:28.516Z</time></trkpt><trkpt lat="43.5509591" lon="10.6257709"><ele>53.0</ele><time>2026-04-18T06:11:29.506Z</time></trkpt><trkpt lat="43.5511135" lon="10.6257649"><ele>52.333333333333336</ele><time>2026-04-18T06:11:30.521Z</time></trkpt><trkpt lat="43.5512677" lon="10.6257379"><ele>51.66666666666667</ele><time>2026-04-18T06:11:31.516Z</time></trkpt><trkpt lat="43.5514191" lon="10.6257215"><ele>51.0</ele><time>2026-04-18T06:11:32.53Z</time></trkpt><trkpt lat="43.5515716" lon="10.6257009"><ele>51.0</ele><time>2026-04-18T06:11:33.507Z</time></trkpt><trkpt lat="43.5517287" lon="10.6256777"><ele>51.0</ele><time>2026-04-18T06:11:34.515Z</time></trkpt><trkpt lat="43.5518775" lon="10.6256656"><ele>51.0</ele><time>2026-04-18T06:11:35.504Z</time></trkpt><trkpt lat="43.5520262" lon="10.6256869"><ele>51.75</ele><time>2026-04-18T06:11:36.514Z</time></trkpt><trkpt lat="43.5521586" lon="10.6257231"><ele>52.5</ele><time>2026-04-18T06:11:37.521Z</time></trkpt><trkpt lat="43.5522891" lon="10.6257802"><ele>53.25</ele><time>2026-04-18T06:11:38.509Z</time></trkpt><trkpt lat="43.5524125" lon="10.6258588"><ele>54.0</ele><time>2026-04-18T06:11:39.516Z</time></trkpt><trkpt lat="43.5525392" lon="10.6259618"><ele>54.0</ele><time>2026-04-18T06:11:40.517Z</time></trkpt><trkpt lat="43.5526564" lon="10.6261215"><ele>54.0</ele><time>2026-04-18T06:11:41.509Z</time></trkpt><trkpt lat="43.5527817" lon="10.6262296"><ele>54.0</ele><time>2026-04-18T06:11:42.511Z</time></trkpt><trkpt lat="43.5529001" lon="10.6263442"><ele>54.0</ele><time>2026-04-18T06:11:43.507Z</time></trkpt><trkpt lat="43.5530174" lon="10.6264662"><ele>54.0</ele><time>2026-04-18T06:11:44.524Z</time></trkpt><trkpt lat="43.5531398" lon="10.6265854"><ele>54.0</ele><time>2026-04-18T06:11:45.522Z</time></trkpt><trkpt lat="43.5532609" lon="10.6266939"><ele>54.0</ele><time>2026-04-18T06:11:46.514Z</time></trkpt><trkpt lat="43.5533736" lon="10.6267856"><ele>54.0</ele><time>2026-04-18T06:11:47.522Z</time></trkpt><trkpt lat="43.5535008" lon="10.6268513"><ele>54.0</ele><time>2026-04-18T06:11:48.512Z</time></trkpt><trkpt lat="43.5536384" lon="10.6268887"><ele>54.0</ele><time>2026-04-18T06:11:49.514Z</time></trkpt><trkpt lat="43.5537672" lon="10.6268978"><ele>54.0</ele><time>2026-04-18T06:11:50.508Z</time></trkpt><trkpt lat="43.5538968" lon="10.6269102"><ele>55.75</ele><time>2026-04-18T06:11:51.503Z</time></trkpt><trkpt lat="43.5540111" lon="10.6269524"><ele>57.5</ele><time>2026-04-18T06:11:52.522Z</time></trkpt><trkpt lat="43.5541111" lon="10.6270056"><ele>59.25</ele><time>2026-04-18T06:11:53.511Z</time></trkpt><trkpt lat="43.5542212" lon="10.6270754"><ele>61.0</ele><time>2026-04-18T06:11:54.523Z</time></trkpt><trkpt lat="43.5543293" lon="10.6271143"><ele>58.199999999999996</ele><time>2026-04-18T06:11:55.51Z</time></trkpt><trkpt lat="43.5544505" lon="10.6271395"><ele>55.39999999999999</ele><time>2026-04-18T06:11:56.513Z</time></trkpt><trkpt lat="43.5545619" lon="10.6271457"><ele>52.6</ele><time>2026-04-18T06:11:57.519Z</time></trkpt><trkpt lat="43.5546627" lon="10.6271521"><ele>49.8</ele><time>2026-04-18T06:11:58.522Z</time></trkpt><trkpt lat="43.5547359" lon="10.6271672"><ele>47.0</ele><time>2026-04-18T06:11:59.508Z</time></trkpt><trkpt lat="43.5548035" lon="10.6271794"><ele>47.0</ele><time>2026-04-18T06:12:00.505Z</time></trkpt><trkpt lat="43.5548592" lon="10.6272572"><ele>47.0</ele><time>2026-04-18T06:12:02.515Z</time></trkpt><trkpt lat="43.5547982" lon="10.6274288"><ele>47.0</ele><time>2026-04-18T06:12:04.504Z</time></trkpt><trkpt lat="43.5547291" lon="10.6275039"><ele>47.0</ele><time>2026-04-18T06:12:05.504Z</time></trkpt><trkpt lat="43.5546668" lon="10.6275921"><ele>47.0</ele><time>2026-04-18T06:12:06.507Z</time></trkpt><trkpt lat="43.5545894" lon="10.6277114"><ele>46.0</ele><time>2026-04-18T06:12:07.515Z</time></trkpt><trkpt lat="43.5544935" lon="10.6278441"><ele>45.0</ele><time>2026-04-18T06:12:08.508Z</time></trkpt><trkpt lat="43.5544037" lon="10.6279754"><ele>44.0</ele><time>2026-04-18T06:12:09.511Z</time></trkpt><trkpt lat="43.5543149" lon="10.6280792"><ele>43.0</ele><time>2026-04-18T06:12:10.511Z</time></trkpt><trkpt lat="43.5542258" lon="10.6281362"><ele>43.0</ele><time>2026-04-18T06:12:11.511Z</time></trkpt><trkpt lat="43.5541293" lon="10.6281666"><ele>43.0</ele><time>2026-04-18T06:12:12.51Z</time></trkpt><trkpt lat="43.5540367" lon="10.628216"><ele>43.0</ele><time>2026-04-18T06:12:13.507Z</time></trkpt><trkpt lat="43.5539422" lon="10.6282753"><ele>43.0</ele><time>2026-04-18T06:12:14.517Z</time></trkpt><trkpt lat="43.5538747" lon="10.6283824"><ele>43.0</ele><time>2026-04-18T06:12:15.513Z</time></trkpt><trkpt lat="43.5538288" lon="10.6285149"><ele>43.0</ele><time>2026-04-18T06:12:16.51Z</time></trkpt><trkpt lat="43.5537993" lon="10.628669"><ele>43.0</ele><time>2026-04-18T06:12:17.51Z</time></trkpt><trkpt lat="43.5537588" lon="10.6288478"><ele>43.0</ele><time>2026-04-18T06:12:18.518Z</time></trkpt><trkpt lat="43.5537353" lon="10.6290306"><ele>43.0</ele><time>2026-04-18T06:12:19.507Z</time></trkpt><trkpt lat="43.5537128" lon="10.6292173"><ele>43.75</ele><time>2026-04-18T06:12:20.516Z</time></trkpt><trkpt lat="43.5536879" lon="10.6294226"><ele>44.5</ele><time>2026-04-18T06:12:21.508Z</time></trkpt><trkpt lat="43.5536576" lon="10.6296109"><ele>45.25</ele><time>2026-04-18T06:12:22.514Z</time></trkpt><trkpt lat="43.5536231" lon="10.6298024"><ele>46.0</ele><time>2026-04-18T06:12:23.51Z</time></trkpt><trkpt lat="43.5535966" lon="10.6299984"><ele>46.0</ele><time>2026-04-18T06:12:24.512Z</time></trkpt><trkpt lat="43.5535749" lon="10.6301989"><ele>46.0</ele><time>2026-04-18T06:12:25.512Z</time></trkpt><trkpt lat="43.5535435" lon="10.6304195"><ele>46.0</ele><time>2026-04-18T06:12:26.513Z</time></trkpt><trkpt lat="43.5535124" lon="10.6306314"><ele>46.0</ele><time>2026-04-18T06:12:27.51Z</time></trkpt><trkpt lat="43.5534813" lon="10.6308414"><ele>46.0</ele><time>2026-04-18T06:12:28.513Z</time></trkpt><trkpt lat="43.5534537" lon="10.6310609"><ele>46.0</ele><time>2026-04-18T06:12:29.503Z</time></trkpt><trkpt lat="43.5534247" lon="10.6312736"><ele>46.0</ele><time>2026-04-18T06:12:30.511Z</time></trkpt><trkpt lat="43.5533921" lon="10.6315046"><ele>46.0</ele><time>2026-04-18T06:12:31.502Z</time></trkpt><trkpt lat="43.5533526" lon="10.6317246"><ele>46.0</ele><time>2026-04-18T06:12:32.507Z</time></trkpt><trkpt lat="43.5532988" lon="10.6319528"><ele>46.0</ele><time>2026-04-18T06:12:33.516Z</time></trkpt><trkpt lat="43.5532418" lon="10.63217"><ele>46.0</ele><time>2026-04-18T06:12:34.518Z</time></trkpt><trkpt lat="43.5531853" lon="10.6323854"><ele>46.0</ele><time>2026-04-18T06:12:35.508Z</time></trkpt><trkpt lat="43.5531282" lon="10.6325775"><ele>46.0</ele><time>2026-04-18T06:12:36.518Z</time></trkpt><trkpt lat="43.5530868" lon="10.6327578"><ele>46.0</ele><time>2026-04-18T06:12:37.514Z</time></trkpt><trkpt lat="43.5530582" lon="10.6329045"><ele>46.0</ele><time>2026-04-18T06:12:38.514Z</time></trkpt><trkpt lat="43.5530352" lon="10.6330219"><ele>46.0</ele><time>2026-04-18T06:12:39.511Z</time></trkpt><trkpt lat="43.5529821" lon="10.6330981"><ele>46.0</ele><time>2026-04-18T06:12:40.519Z</time></trkpt><trkpt lat="43.5529041" lon="10.6331204"><ele>47.8</ele><time>2026-04-18T06:12:41.516Z</time></trkpt><trkpt lat="43.5528397" lon="10.6331128"><ele>49.599999999999994</ele><time>2026-04-18T06:12:42.517Z</time></trkpt><trkpt lat="43.552764" lon="10.6330867"><ele>51.4</ele><time>2026-04-18T06:12:43.518Z</time></trkpt><trkpt lat="43.552683" lon="10.6330353"><ele>53.2</ele><time>2026-04-18T06:12:44.514Z</time></trkpt><trkpt lat="43.552574" lon="10.6329794"><ele>55.0</ele><time>2026-04-18T06:12:45.508Z</time></trkpt><trkpt lat="43.552452" lon="10.6329145"><ele>55.0</ele><time>2026-04-18T06:12:46.52Z</time></trkpt><trkpt lat="43.5523338" lon="10.6328451"><ele>55.0</ele><time>2026-04-18T06:12:47.513Z</time></trkpt><trkpt lat="43.5522123" lon="10.6327712"><ele>55.0</ele><time>2026-04-18T06:12:48.517Z</time></trkpt><trkpt lat="43.5520945" lon="10.6326898"><ele>55.0</ele><time>2026-04-18T06:12:49.515Z</time></trkpt><trkpt lat="43.5519783" lon="10.6325806"><ele>54.0</ele><time>2026-04-18T06:12:50.522Z</time></trkpt><trkpt lat="43.5518641" lon="10.6324565"><ele>53.0</ele><time>2026-04-18T06:12:51.511Z</time></trkpt><trkpt lat="43.551748" lon="10.6323275"><ele>52.0</ele><time>2026-04-18T06:12:52.518Z</time></trkpt><trkpt lat="43.5516379" lon="10.6321945"><ele>51.0</ele><time>2026-04-18T06:12:53.51Z</time></trkpt><trkpt lat="43.5515166" lon="10.6320626"><ele>50.66666666666667</ele><time>2026-04-18T06:12:54.513Z</time></trkpt><trkpt lat="43.5513867" lon="10.6319684"><ele>50.333333333333336</ele><time>2026-04-18T06:12:55.516Z</time></trkpt><trkpt lat="43.5512396" lon="10.6318889"><ele>50.0</ele><time>2026-04-18T06:12:56.511Z</time></trkpt><trkpt lat="43.551088" lon="10.6318282"><ele>50.0</ele><time>2026-04-18T06:12:57.515Z</time></trkpt><trkpt lat="43.5509306" lon="10.6317924"><ele>50.0</ele><time>2026-04-18T06:12:58.517Z</time></trkpt><trkpt lat="43.5507686" lon="10.6317674"><ele>50.0</ele><time>2026-04-18T06:12:59.513Z</time></trkpt><trkpt lat="43.5506083" lon="10.6317692"><ele>50.0</ele><time>2026-04-18T06:13:00.509Z</time></trkpt><trkpt lat="43.5504426" lon="10.6317838"><ele>50.0</ele><time>2026-04-18T06:13:01.519Z</time></trkpt><trkpt lat="43.5502741" lon="10.6318014"><ele>50.0</ele><time>2026-04-18T06:13:02.509Z</time></trkpt><trkpt lat="43.5501007" lon="10.6318268"><ele>50.66666666666667</ele><time>2026-04-18T06:13:03.513Z</time></trkpt><trkpt lat="43.549923" lon="10.6318554"><ele>51.33333333333333</ele><time>2026-04-18T06:13:04.504Z</time></trkpt><trkpt lat="43.5497469" lon="10.6318757"><ele>52.0</ele><time>2026-04-18T06:13:05.503Z</time></trkpt><trkpt lat="43.5495762" lon="10.6318902"><ele>52.25</ele><time>2026-04-18T06:13:06.513Z</time></trkpt><trkpt lat="43.549417" lon="10.6319089"><ele>52.5</ele><time>2026-04-18T06:13:07.507Z</time></trkpt><trkpt lat="43.5492689" lon="10.6319378"><ele>52.75</ele><time>2026-04-18T06:13:08.499Z</time></trkpt><trkpt lat="43.5491469" lon="10.6320242"><ele>53.0</ele><time>2026-04-18T06:13:09.507Z</time></trkpt><trkpt lat="43.5490038" lon="10.6321199"><ele>52.66666666666667</ele><time>2026-04-18T06:13:10.509Z</time></trkpt><trkpt lat="43.5488544" lon="10.6322271"><ele>52.33333333333333</ele><time>2026-04-18T06:13:11.515Z</time></trkpt><trkpt lat="43.5487075" lon="10.6323433"><ele>52.0</ele><time>2026-04-18T06:13:12.51Z</time></trkpt><trkpt lat="43.5485565" lon="10.6324604"><ele>52.0</ele><time>2026-04-18T06:13:13.505Z</time></trkpt><trkpt lat="43.5484034" lon="10.6325715"><ele>52.0</ele><time>2026-04-18T06:13:14.512Z</time></trkpt><trkpt lat="43.5482392" lon="10.6326857"><ele>52.0</ele><time>2026-04-18T06:13:15.516Z</time></trkpt><trkpt lat="43.5480845" lon="10.6328138"><ele>53.0</ele><time>2026-04-18T06:13:16.511Z</time></trkpt><trkpt lat="43.5479204" lon="10.6329366"><ele>54.0</ele><time>2026-04-18T06:13:17.515Z</time></trkpt><trkpt lat="43.5477543" lon="10.6330592"><ele>55.0</ele><time>2026-04-18T06:13:18.515Z</time></trkpt><trkpt lat="43.5475843" lon="10.6331845"><ele>55.0</ele><time>2026-04-18T06:13:19.51Z</time></trkpt><trkpt lat="43.5474089" lon="10.6332968"><ele>55.0</ele><time>2026-04-18T06:13:20.511Z</time></trkpt><trkpt lat="43.5472423" lon="10.6334074"><ele>55.0</ele><time>2026-04-18T06:13:21.512Z</time></trkpt><trkpt lat="43.5470853" lon="10.6335161"><ele>55.0</ele><time>2026-04-18T06:13:22.509Z</time></trkpt><trkpt lat="43.5469384" lon="10.6336373"><ele>55.0</ele><time>2026-04-18T06:13:23.509Z</time></trkpt><trkpt lat="43.5467995" lon="10.6337696"><ele>55.0</ele><time>2026-04-18T06:13:24.517Z</time></trkpt><trkpt lat="43.5466693" lon="10.633931"><ele>55.0</ele><time>2026-04-18T06:13:25.516Z</time></trkpt><trkpt lat="43.5465412" lon="10.6340988"><ele>55.0</ele><time>2026-04-18T06:13:26.516Z</time></trkpt><trkpt lat="43.5464012" lon="10.6342856"><ele>55.0</ele><time>2026-04-18T06:13:27.505Z</time></trkpt><trkpt lat="43.5462712" lon="10.6344643"><ele>54.33333333333333</ele><time>2026-04-18T06:13:28.5Z</time></trkpt><trkpt lat="43.5461292" lon="10.6346489"><ele>53.66666666666667</ele><time>2026-04-18T06:13:29.512Z</time></trkpt><trkpt lat="43.5459916" lon="10.6348439"><ele>53.0</ele><time>2026-04-18T06:13:30.511Z</time></trkpt><trkpt lat="43.5458517" lon="10.6350313"><ele>53.0</ele><time>2026-04-18T06:13:31.525Z</time></trkpt><trkpt lat="43.5457185" lon="10.6351936"><ele>53.0</ele><time>2026-04-18T06:13:32.514Z</time></trkpt><trkpt lat="43.545569" lon="10.6353419"><ele>53.0</ele><time>2026-04-18T06:13:33.52Z</time></trkpt><trkpt lat="43.5454132" lon="10.6354491"><ele>55.333333333333336</ele><time>2026-04-18T06:13:34.516Z</time></trkpt><trkpt lat="43.5452423" lon="10.6354857"><ele>57.66666666666667</ele><time>2026-04-18T06:13:35.514Z</time></trkpt><trkpt lat="43.5450677" lon="10.6355172"><ele>60.0</ele><time>2026-04-18T06:13:36.504Z</time></trkpt><trkpt lat="43.5448912" lon="10.6355539"><ele>60.0</ele><time>2026-04-18T06:13:37.511Z</time></trkpt><trkpt lat="43.5447101" lon="10.6355921"><ele>60.0</ele><time>2026-04-18T06:13:38.507Z</time></trkpt><trkpt lat="43.5445722" lon="10.6356435"><ele>60.0</ele><time>2026-04-18T06:13:39.511Z</time></trkpt><trkpt lat="43.5444266" lon="10.6357368"><ele>60.33333333333333</ele><time>2026-04-18T06:13:40.504Z</time></trkpt><trkpt lat="43.544286" lon="10.6358683"><ele>60.666666666666664</ele><time>2026-04-18T06:13:41.508Z</time></trkpt><trkpt lat="43.5441514" lon="10.6360223"><ele>61.0</ele><time>2026-04-18T06:13:42.502Z</time></trkpt><trkpt lat="43.5440066" lon="10.6361888"><ele>61.0</ele><time>2026-04-18T06:13:43.512Z</time></trkpt><trkpt lat="43.5438621" lon="10.6363475"><ele>61.0</ele><time>2026-04-18T06:13:44.512Z</time></trkpt><trkpt lat="43.5437098" lon="10.6365139"><ele>61.0</ele><time>2026-04-18T06:13:45.509Z</time></trkpt><trkpt lat="43.5435551" lon="10.6366956"><ele>60.33333333333333</ele><time>2026-04-18T06:13:46.507Z</time></trkpt><trkpt lat="43.543395" lon="10.6368752"><ele>59.66666666666667</ele><time>2026-04-18T06:13:47.513Z</time></trkpt><trkpt lat="43.5432354" lon="10.6370646"><ele>59.0</ele><time>2026-04-18T06:13:48.512Z</time></trkpt><trkpt lat="43.5430702" lon="10.6372659"><ele>59.0</ele><time>2026-04-18T06:13:49.52Z</time></trkpt><trkpt lat="43.5429147" lon="10.6374678"><ele>59.0</ele><time>2026-04-18T06:13:50.509Z</time></trkpt><trkpt lat="43.5427437" lon="10.6376697"><ele>59.0</ele><time>2026-04-18T06:13:51.514Z</time></trkpt><trkpt lat="43.5425683" lon="10.6378804"><ele>60.0</ele><time>2026-04-18T06:13:52.509Z</time></trkpt><trkpt lat="43.542386" lon="10.6380863"><ele>61.0</ele><time>2026-04-18T06:13:53.504Z</time></trkpt><trkpt lat="43.542213" lon="10.6382806"><ele>59.5</ele><time>2026-04-18T06:13:54.511Z</time></trkpt><trkpt lat="43.5420301" lon="10.6384795"><ele>58.0</ele><time>2026-04-18T06:13:55.502Z</time></trkpt><trkpt lat="43.5418439" lon="10.638689"><ele>58.0</ele><time>2026-04-18T06:13:56.51Z</time></trkpt><trkpt lat="43.5416637" lon="10.6388953"><ele>58.0</ele><time>2026-04-18T06:13:57.517Z</time></trkpt><trkpt lat="43.541486" lon="10.6391081"><ele>58.0</ele><time>2026-04-18T06:13:58.517Z</time></trkpt><trkpt lat="43.5413132" lon="10.6393305"><ele>58.0</ele><time>2026-04-18T06:13:59.522Z</time></trkpt><trkpt lat="43.541146" lon="10.6395829"><ele>57.0</ele><time>2026-04-18T06:14:00.518Z</time></trkpt><trkpt lat="43.5409876" lon="10.6398397"><ele>56.0</ele><time>2026-04-18T06:14:01.515Z</time></trkpt><trkpt lat="43.54084" lon="10.6401114"><ele>56.5</ele><time>2026-04-18T06:14:02.517Z</time></trkpt><trkpt lat="43.5406982" lon="10.6403925"><ele>57.0</ele><time>2026-04-18T06:14:03.518Z</time></trkpt><trkpt lat="43.5405478" lon="10.6406694"><ele>57.0</ele><time>2026-04-18T06:14:04.509Z</time></trkpt><trkpt lat="43.5404019" lon="10.6409418"><ele>57.0</ele><time>2026-04-18T06:14:05.507Z</time></trkpt><trkpt lat="43.5402479" lon="10.6412142"><ele>57.5</ele><time>2026-04-18T06:14:06.513Z</time></trkpt><trkpt lat="43.5400901" lon="10.6414768"><ele>58.0</ele><time>2026-04-18T06:14:07.507Z</time></trkpt><trkpt lat="43.5399212" lon="10.6417377"><ele>61.5</ele><time>2026-04-18T06:14:08.511Z</time></trkpt><trkpt lat="43.5397555" lon="10.641987"><ele>65.0</ele><time>2026-04-18T06:14:09.513Z</time></trkpt><trkpt lat="43.5395826" lon="10.6422255"><ele>61.5</ele><time>2026-04-18T06:14:10.511Z</time></trkpt><trkpt lat="43.5394054" lon="10.6424629"><ele>58.0</ele><time>2026-04-18T06:14:11.506Z</time></trkpt><trkpt lat="43.5392252" lon="10.6426999"><ele>65.0</ele><time>2026-04-18T06:14:12.517Z</time></trkpt><trkpt lat="43.5390537" lon="10.6429345"><ele>72.0</ele><time>2026-04-18T06:14:13.511Z</time></trkpt><trkpt lat="43.5388969" lon="10.6431754"><ele>72.0</ele><time>2026-04-18T06:14:14.51Z</time></trkpt><trkpt lat="43.5387512" lon="10.6434254"><ele>72.0</ele><time>2026-04-18T06:14:15.51Z</time></trkpt><trkpt lat="43.5386043" lon="10.6436859"><ele>69.66666666666667</ele><time>2026-04-18T06:14:16.519Z</time></trkpt><trkpt lat="43.5384803" lon="10.643946"><ele>67.33333333333334</ele><time>2026-04-18T06:14:17.522Z</time></trkpt><trkpt lat="43.5383612" lon="10.6441766"><ele>65.0</ele><time>2026-04-18T06:14:18.505Z</time></trkpt><trkpt lat="43.5382493" lon="10.6444052"><ele>67.33333333333334</ele><time>2026-04-18T06:14:19.507Z</time></trkpt><trkpt lat="43.5381513" lon="10.644622"><ele>69.66666666666667</ele><time>2026-04-18T06:14:20.505Z</time></trkpt><trkpt lat="43.538069" lon="10.6448396"><ele>72.0</ele><time>2026-04-18T06:14:21.509Z</time></trkpt><trkpt lat="43.5379966" lon="10.6450463"><ele>72.0</ele><time>2026-04-18T06:14:22.505Z</time></trkpt><trkpt lat="43.5379435" lon="10.6452494"><ele>72.0</ele><time>2026-04-18T06:14:23.51Z</time></trkpt><trkpt lat="43.537907" lon="10.6454463"><ele>72.0</ele><time>2026-04-18T06:14:24.502Z</time></trkpt><trkpt lat="43.5378566" lon="10.645651"><ele>70.75</ele><time>2026-04-18T06:14:25.508Z</time></trkpt><trkpt lat="43.5377967" lon="10.6458307"><ele>69.5</ele><time>2026-04-18T06:14:26.515Z</time></trkpt><trkpt lat="43.5377107" lon="10.6459924"><ele>68.25</ele><time>2026-04-18T06:14:27.507Z</time></trkpt><trkpt lat="43.5376037" lon="10.6461552"><ele>67.0</ele><time>2026-04-18T06:14:28.509Z</time></trkpt><trkpt lat="43.5374921" lon="10.6462916"><ele>67.0</ele><time>2026-04-18T06:14:29.517Z</time></trkpt><trkpt lat="43.5373656" lon="10.6463858"><ele>67.0</ele><time>2026-04-18T06:14:30.507Z</time></trkpt><trkpt lat="43.5372576" lon="10.6464601"><ele>67.0</ele><time>2026-04-18T06:14:31.512Z</time></trkpt><trkpt lat="43.5371509" lon="10.6464869"><ele>67.0</ele><time>2026-04-18T06:14:32.509Z</time></trkpt><trkpt lat="43.5370742" lon="10.6465091"><ele>67.0</ele><time>2026-04-18T06:14:33.506Z</time></trkpt><trkpt lat="43.5370111" lon="10.646545"><ele>67.0</ele><time>2026-04-18T06:14:35.507Z</time></trkpt><trkpt lat="43.5371206" lon="10.6465269"><ele>67.0</ele><time>2026-04-18T06:14:45.501Z</time></trkpt><trkpt lat="43.5372022" lon="10.6465182"><ele>67.0</ele><time>2026-04-18T06:14:46.502Z</time></trkpt><trkpt lat="43.5373111" lon="10.6464744"><ele>67.0</ele><time>2026-04-18T06:14:47.502Z</time></trkpt><trkpt lat="43.5374055" lon="10.6464329"><ele>67.0</ele><time>2026-04-18T06:14:48.501Z</time></trkpt><trkpt lat="43.537495" lon="10.6463738"><ele>67.0</ele><time>2026-04-18T06:14:49.504Z</time></trkpt><trkpt lat="43.5375919" lon="10.6462763"><ele>67.0</ele><time>2026-04-18T06:14:50.51Z</time></trkpt><trkpt lat="43.5376912" lon="10.6461598"><ele>67.0</ele><time>2026-04-18T06:14:51.504Z</time></trkpt><trkpt lat="43.5377664" lon="10.6460233"><ele>65.6</ele><time>2026-04-18T06:14:52.508Z</time></trkpt><trkpt lat="43.5378209" lon="10.6458908"><ele>64.2</ele><time>2026-04-18T06:14:53.506Z</time></trkpt><trkpt lat="43.5378691" lon="10.6457684"><ele>62.8</ele><time>2026-04-18T06:14:54.504Z</time></trkpt><trkpt lat="43.5379103" lon="10.6456525"><ele>61.4</ele><time>2026-04-18T06:14:55.502Z</time></trkpt><trkpt lat="43.5379772" lon="10.6455139"><ele>60.0</ele><time>2026-04-18T06:14:57.514Z</time></trkpt><trkpt lat="43.5380244" lon="10.6455828"><ele>62.5</ele><time>2026-04-18T06:14:59.502Z</time></trkpt><trkpt lat="43.5380584" lon="10.6456712"><ele>65.0</ele><time>2026-04-18T06:15:00.513Z</time></trkpt><trkpt lat="43.538085" lon="10.6457701"><ele>67.5</ele><time>2026-04-18T06:15:01.506Z</time></trkpt><trkpt lat="43.5380989" lon="10.6458721"><ele>70.0</ele><time>2026-04-18T06:15:02.505Z</time></trkpt><trkpt lat="43.5381145" lon="10.6459933"><ele>72.5</ele><time>2026-04-18T06:15:03.503Z</time></trkpt><trkpt lat="43.5381366" lon="10.6460982"><ele>75.0</ele><time>2026-04-18T06:15:04.5Z</time></trkpt><trkpt lat="43.5381761" lon="10.6462804"><ele>75.0</ele><time>2026-04-18T06:15:06.506Z</time></trkpt><trkpt lat="43.5382254" lon="10.6463638"><ele>75.0</ele><time>2026-04-18T06:15:07.51Z</time></trkpt><trkpt lat="43.538296" lon="10.646451"><ele>75.0</ele><time>2026-04-18T06:15:08.505Z</time></trkpt><trkpt lat="43.5383698" lon="10.646538"><ele>75.0</ele><time>2026-04-18T06:15:09.498Z</time></trkpt><trkpt lat="43.538447" lon="10.6466259"><ele>75.0</ele><time>2026-04-18T06:15:10.509Z</time></trkpt><trkpt lat="43.5385252" lon="10.6467246"><ele>75.0</ele><time>2026-04-18T06:15:11.504Z</time></trkpt><trkpt lat="43.5386117" lon="10.6468142"><ele>75.0</ele><time>2026-04-18T06:15:12.508Z</time></trkpt><trkpt lat="43.538721" lon="10.6468989"><ele>75.0</ele><time>2026-04-18T06:15:13.508Z</time></trkpt><trkpt lat="43.5388172" lon="10.6469923"><ele>75.0</ele><time>2026-04-18T06:15:14.498Z</time></trkpt><trkpt lat="43.5389026" lon="10.647065"><ele>76.2</ele><time>2026-04-18T06:15:15.499Z</time></trkpt><trkpt lat="43.5389911" lon="10.6471102"><ele>77.4</ele><time>2026-04-18T06:15:16.498Z</time></trkpt><trkpt lat="43.5390888" lon="10.6471554"><ele>78.6</ele><time>2026-04-18T06:15:17.503Z</time></trkpt><trkpt lat="43.5391799" lon="10.6472049"><ele>79.8</ele><time>2026-04-18T06:15:18.496Z</time></trkpt><trkpt lat="43.5392797" lon="10.6472516"><ele>81.0</ele><time>2026-04-18T06:15:19.5Z</time></trkpt><trkpt lat="43.5393675" lon="10.6473114"><ele>81.0</ele><time>2026-04-18T06:15:20.502Z</time></trkpt><trkpt lat="43.5394408" lon="10.6473997"><ele>81.0</ele><time>2026-04-18T06:15:21.508Z</time></trkpt><trkpt lat="43.5395137" lon="10.6474924"><ele>81.0</ele><time>2026-04-18T06:15:22.507Z</time></trkpt><trkpt lat="43.5395862" lon="10.6475953"><ele>81.0</ele><time>2026-04-18T06:15:23.5Z</time></trkpt><trkpt lat="43.5396384" lon="10.6477012"><ele>81.0</ele><time>2026-04-18T06:15:24.503Z</time></trkpt><trkpt lat="43.5396739" lon="10.6478431"><ele>84.19999999999999</ele><time>2026-04-18T06:15:25.5Z</time></trkpt><trkpt lat="43.5397056" lon="10.6479768"><ele>87.39999999999999</ele><time>2026-04-18T06:15:26.499Z</time></trkpt><trkpt lat="43.5397355" lon="10.6481192"><ele>90.6</ele><time>2026-04-18T06:15:27.504Z</time></trkpt><trkpt lat="43.5397552" lon="10.6482475"><ele>93.8</ele><time>2026-04-18T06:15:28.503Z</time></trkpt><trkpt lat="43.5397862" lon="10.6483803"><ele>97.0</ele><time>2026-04-18T06:15:29.502Z</time></trkpt><trkpt lat="43.5398104" lon="10.6485266"><ele>97.0</ele><time>2026-04-18T06:15:30.504Z</time></trkpt><trkpt lat="43.5398526" lon="10.6486686"><ele>97.0</ele><time>2026-04-18T06:15:31.5Z</time></trkpt><trkpt lat="43.5398917" lon="10.6488014"><ele>97.0</ele><time>2026-04-18T06:15:32.503Z</time></trkpt><trkpt lat="43.5399409" lon="10.6489367"><ele>97.0</ele><time>2026-04-18T06:15:33.507Z</time></trkpt><trkpt lat="43.5399876" lon="10.6490838"><ele>97.0</ele><time>2026-04-18T06:15:34.499Z</time></trkpt><trkpt lat="43.5400547" lon="10.6492233"><ele>97.0</ele><time>2026-04-18T06:15:35.506Z</time></trkpt><trkpt lat="43.540122" lon="10.6493568"><ele>97.0</ele><time>2026-04-18T06:15:36.51Z</time></trkpt><trkpt lat="43.5401876" lon="10.6495111"><ele>97.0</ele><time>2026-04-18T06:15:37.5Z</time></trkpt><trkpt lat="43.540252" lon="10.6496175"><ele>97.0</ele><time>2026-04-18T06:15:38.504Z</time></trkpt><trkpt lat="43.5403062" lon="10.6497395"><ele>97.39999999999999</ele><time>2026-04-18T06:15:39.499Z</time></trkpt><trkpt lat="43.5403565" lon="10.6498615"><ele>97.8</ele><time>2026-04-18T06:15:40.494Z</time></trkpt><trkpt lat="43.5404148" lon="10.6499779"><ele>98.2</ele><time>2026-04-18T06:15:41.499Z</time></trkpt><trkpt lat="43.5404683" lon="10.6500909"><ele>98.6</ele><time>2026-04-18T06:15:42.497Z</time></trkpt><trkpt lat="43.5405045" lon="10.650207"><ele>99.0</ele><time>2026-04-18T06:15:43.5Z</time></trkpt><trkpt lat="43.540528" lon="10.6503179"><ele>101.33333333333333</ele><time>2026-04-18T06:15:44.499Z</time></trkpt><trkpt lat="43.5405377" lon="10.6504288"><ele>103.66666666666666</ele><time>2026-04-18T06:15:45.503Z</time></trkpt><trkpt lat="43.5405183" lon="10.6505374"><ele>106.0</ele><time>2026-04-18T06:15:46.508Z</time></trkpt><trkpt lat="43.5404955" lon="10.6506255"><ele>108.33333333333333</ele><time>2026-04-18T06:15:47.51Z</time></trkpt><trkpt lat="43.5404723" lon="10.6507078"><ele>110.66666666666666</ele><time>2026-04-18T06:15:48.509Z</time></trkpt><trkpt lat="43.5403919" lon="10.650785"><ele>113.0</ele><time>2026-04-18T06:15:50.5Z</time></trkpt><trkpt lat="43.5403128" lon="10.6507938"><ele>112.99999999999999</ele><time>2026-04-18T06:15:51.507Z</time></trkpt><trkpt lat="43.5402426" lon="10.650817"><ele>113.0</ele><time>2026-04-18T06:15:52.498Z</time></trkpt><trkpt lat="43.5401789" lon="10.6508348"><ele>113.0</ele><time>2026-04-18T06:15:53.507Z</time></trkpt><trkpt lat="43.5401079" lon="10.6508537"><ele>113.0</ele><time>2026-04-18T06:15:54.5Z</time></trkpt><trkpt lat="43.5400411" lon="10.6508719"><ele>112.99999999999999</ele><time>2026-04-18T06:15:55.506Z</time></trkpt><trkpt lat="43.5399458" lon="10.6508751"><ele>113.0</ele><time>2026-04-18T06:15:56.501Z</time></trkpt><trkpt lat="43.5398544" lon="10.6508766"><ele>112.99999999999999</ele><time>2026-04-18T06:15:57.509Z</time></trkpt><trkpt lat="43.5397823" lon="10.6508572"><ele>113.0</ele><time>2026-04-18T06:15:58.5Z</time></trkpt><trkpt lat="43.5397191" lon="10.6508445"><ele>113.0</ele><time>2026-04-18T06:15:59.5Z</time></trkpt><trkpt lat="43.539635" lon="10.6508906"><ele>113.0</ele><time>2026-04-18T06:16:00.501Z</time></trkpt><trkpt lat="43.5395675" lon="10.650951"><ele>112.99999999999999</ele><time>2026-04-18T06:16:01.498Z</time></trkpt><trkpt lat="43.5395108" lon="10.6509953"><ele>113.0</ele><time>2026-04-18T06:16:02.507Z</time></trkpt><trkpt lat="43.5394199" lon="10.6510878"><ele>116.33333333333333</ele><time>2026-04-18T06:16:04.497Z</time></trkpt><trkpt lat="43.5393625" lon="10.6511579"><ele>119.66666666666666</ele><time>2026-04-18T06:16:05.498Z</time></trkpt><trkpt lat="43.5393097" lon="10.6512279"><ele>123.0</ele><time>2026-04-18T06:16:06.5Z</time></trkpt><trkpt lat="43.5392525" lon="10.6512844"><ele>126.33333333333334</ele><time>2026-04-18T06:16:07.517Z</time></trkpt><trkpt lat="43.539131" lon="10.6513024"><ele>129.66666666666669</ele><time>2026-04-18T06:16:09.521Z</time></trkpt><trkpt lat="43.5392096" lon="10.651345"><ele>133.0</ele><time>2026-04-18T06:16:14.503Z</time></trkpt><trkpt lat="43.5392582" lon="10.6514917"><ele>133.0</ele><time>2026-04-18T06:16:16.499Z</time></trkpt><trkpt lat="43.5391864" lon="10.6516555"><ele>133.0</ele><time>2026-04-18T06:16:18.502Z</time></trkpt><trkpt lat="43.5391388" lon="10.6517312"><ele>133.0</ele><time>2026-04-18T06:16:19.509Z</time></trkpt><trkpt lat="43.5390621" lon="10.651805"><ele>133.0</ele><time>2026-04-18T06:16:20.514Z</time></trkpt><trkpt lat="43.5389572" lon="10.651786"><ele>133.0</ele><time>2026-04-18T06:16:22.518Z</time></trkpt><trkpt lat="43.5389017" lon="10.651741"><ele>133.0</ele><time>2026-04-18T06:16:23.51Z</time></trkpt><trkpt lat="43.5388421" lon="10.6517067"><ele>133.0</ele><time>2026-04-18T06:16:24.512Z</time></trkpt><trkpt lat="43.5387038" lon="10.6516355"><ele>133.0</ele><time>2026-04-18T06:16:26.51Z</time></trkpt><trkpt lat="43.5386269" lon="10.6515827"><ele>133.0</ele><time>2026-04-18T06:16:27.513Z</time></trkpt><trkpt lat="43.5385579" lon="10.65153"><ele>133.0</ele><time>2026-04-18T06:16:28.5Z</time></trkpt><trkpt lat="43.5384773" lon="10.6514866"><ele>136.33333333333334</ele><time>2026-04-18T06:16:29.508Z</time></trkpt><trkpt lat="43.5383966" lon="10.6514291"><ele>139.66666666666669</ele><time>2026-04-18T06:16:30.502Z</time></trkpt><trkpt lat="43.5383255" lon="10.6513826"><ele>143.0</ele><time>2026-04-18T06:16:31.505Z</time></trkpt><trkpt lat="43.5382552" lon="10.651323"><ele>146.33333333333334</ele><time>2026-04-18T06:16:32.511Z</time></trkpt><trkpt lat="43.5381879" lon="10.6512687"><ele>149.66666666666666</ele><time>2026-04-18T06:16:33.505Z</time></trkpt><trkpt lat="43.5381255" lon="10.6512269"><ele>153.0</ele><time>2026-04-18T06:16:34.504Z</time></trkpt><trkpt lat="43.5380139" lon="10.6512249"><ele>153.0</ele><time>2026-04-18T06:16:36.503Z</time></trkpt><trkpt lat="43.5379703" lon="10.651292"><ele>153.0</ele><time>2026-04-18T06:16:37.51Z</time></trkpt><trkpt lat="43.5379242" lon="10.6513817"><ele>153.0</ele><time>2026-04-18T06:16:38.509Z</time></trkpt><trkpt lat="43.5378827" lon="10.6514514"><ele>153.0</ele><time>2026-04-18T06:16:39.509Z</time></trkpt><trkpt lat="43.5378293" lon="10.6515295"><ele>153.0</ele><time>2026-04-18T06:16:40.507Z</time></trkpt><trkpt lat="43.5377758" lon="10.6516055"><ele>153.0</ele><time>2026-04-18T06:16:41.508Z</time></trkpt><trkpt lat="43.5377219" lon="10.6516964"><ele>153.0</ele><time>2026-04-18T06:16:42.528Z</time></trkpt><trkpt lat="43.5376397" lon="10.6517645"><ele>153.0</ele><time>2026-04-18T06:16:43.506Z</time></trkpt><trkpt lat="43.5375734" lon="10.6517757"><ele>153.0</ele><time>2026-04-18T06:16:44.505Z</time></trkpt><trkpt lat="43.5374863" lon="10.6517731"><ele>153.0</ele><time>2026-04-18T06:16:45.501Z</time></trkpt><trkpt lat="43.5374107" lon="10.6517668"><ele>153.0</ele><time>2026-04-18T06:16:46.5Z</time></trkpt><trkpt lat="43.5372803" lon="10.6517255"><ele>153.0</ele><time>2026-04-18T06:16:48.5Z</time></trkpt><trkpt lat="43.5371902" lon="10.6516974"><ele>153.0</ele><time>2026-04-18T06:16:49.506Z</time></trkpt><trkpt lat="43.5371063" lon="10.6516673"><ele>153.0</ele><time>2026-04-18T06:16:50.499Z</time></trkpt><trkpt lat="43.537036" lon="10.6516303"><ele>153.0</ele><time>2026-04-18T06:16:51.511Z</time></trkpt><trkpt lat="43.5369577" lon="10.6516031"><ele>153.0</ele><time>2026-04-18T06:16:52.502Z</time></trkpt><trkpt lat="43.5368685" lon="10.6515628"><ele>153.0</ele><time>2026-04-18T06:16:53.511Z</time></trkpt><trkpt lat="43.5367957" lon="10.6515145"><ele>152.6</ele><time>2026-04-18T06:16:54.501Z</time></trkpt><trkpt lat="43.5367272" lon="10.6514325"><ele>152.20000000000002</ele><time>2026-04-18T06:16:55.502Z</time></trkpt><trkpt lat="43.5366427" lon="10.6513478"><ele>151.8</ele><time>2026-04-18T06:16:57.501Z</time></trkpt><trkpt lat="43.5365157" lon="10.6512957"><ele>151.4</ele><time>2026-04-18T06:16:59.503Z</time></trkpt><trkpt lat="43.5364422" lon="10.6512941"><ele>151.0</ele><time>2026-04-18T06:17:00.521Z</time></trkpt><trkpt lat="43.5363581" lon="10.6513143"><ele>151.0</ele><time>2026-04-18T06:17:01.507Z</time></trkpt><trkpt lat="43.5362727" lon="10.651332"><ele>151.0</ele><time>2026-04-18T06:17:02.505Z</time></trkpt><trkpt lat="43.5361907" lon="10.6513218"><ele>151.0</ele><time>2026-04-18T06:17:03.502Z</time></trkpt><trkpt lat="43.5361229" lon="10.6513009"><ele>151.0</ele><time>2026-04-18T06:17:04.509Z</time></trkpt><trkpt lat="43.5360481" lon="10.6512914"><ele>151.0</ele><time>2026-04-18T06:17:05.51Z</time></trkpt><trkpt lat="43.5359631" lon="10.6512862"><ele>151.0</ele><time>2026-04-18T06:17:06.5Z</time></trkpt><trkpt lat="43.5358598" lon="10.6513309"><ele>149.2</ele><time>2026-04-18T06:17:07.509Z</time></trkpt><trkpt lat="43.5357457" lon="10.6513638"><ele>147.39999999999998</ele><time>2026-04-18T06:17:08.501Z</time></trkpt><trkpt lat="43.5356094" lon="10.6513479"><ele>145.6</ele><time>2026-04-18T06:17:09.509Z</time></trkpt><trkpt lat="43.5355177" lon="10.6513123"><ele>143.79999999999998</ele><time>2026-04-18T06:17:10.506Z</time></trkpt><trkpt lat="43.5354452" lon="10.6512835"><ele>142.0</ele><time>2026-04-18T06:17:11.503Z</time></trkpt><trkpt lat="43.5353702" lon="10.6512834"><ele>139.16666666666669</ele><time>2026-04-18T06:17:12.502Z</time></trkpt><trkpt lat="43.5352891" lon="10.6513041"><ele>136.33333333333334</ele><time>2026-04-18T06:17:13.502Z</time></trkpt><trkpt lat="43.5352206" lon="10.6513269"><ele>133.5</ele><time>2026-04-18T06:17:14.514Z</time></trkpt><trkpt lat="43.5351491" lon="10.6513709"><ele>130.66666666666666</ele><time>2026-04-18T06:17:15.508Z</time></trkpt><trkpt lat="43.5350837" lon="10.6514474"><ele>127.83333333333333</ele><time>2026-04-18T06:17:16.506Z</time></trkpt><trkpt lat="43.5350138" lon="10.6515077"><ele>125.0</ele><time>2026-04-18T06:17:17.501Z</time></trkpt><trkpt lat="43.5349393" lon="10.651579"><ele>124.99999999999999</ele><time>2026-04-18T06:17:18.504Z</time></trkpt><trkpt lat="43.5348731" lon="10.6516417"><ele>125.0</ele><time>2026-04-18T06:17:19.5Z</time></trkpt><trkpt lat="43.5348103" lon="10.6517079"><ele>125.0</ele><time>2026-04-18T06:17:20.505Z</time></trkpt><trkpt lat="43.5347704" lon="10.6518081"><ele>125.0</ele><time>2026-04-18T06:17:21.507Z</time></trkpt><trkpt lat="43.5347466" lon="10.6519215"><ele>124.99999999999999</ele><time>2026-04-18T06:17:22.508Z</time></trkpt><trkpt lat="43.5347418" lon="10.6520346"><ele>125.0</ele><time>2026-04-18T06:17:23.501Z</time></trkpt><trkpt lat="43.5347471" lon="10.6521379"><ele>124.16666666666666</ele><time>2026-04-18T06:17:24.503Z</time></trkpt><trkpt lat="43.5347499" lon="10.6522589"><ele>123.33333333333333</ele><time>2026-04-18T06:17:25.505Z</time></trkpt><trkpt lat="43.5347438" lon="10.652386"><ele>122.5</ele><time>2026-04-18T06:17:26.504Z</time></trkpt><trkpt lat="43.5347494" lon="10.6524863"><ele>121.66666666666666</ele><time>2026-04-18T06:17:27.512Z</time></trkpt><trkpt lat="43.5347454" lon="10.6525781"><ele>120.83333333333333</ele><time>2026-04-18T06:17:28.506Z</time></trkpt><trkpt lat="43.5347936" lon="10.6527224"><ele>120.0</ele><time>2026-04-18T06:17:30.507Z</time></trkpt><trkpt lat="43.5348379" lon="10.6528083"><ele>118.2</ele><time>2026-04-18T06:17:31.505Z</time></trkpt><trkpt lat="43.534873" lon="10.6529203"><ele>116.4</ele><time>2026-04-18T06:17:32.506Z</time></trkpt><trkpt lat="43.5349144" lon="10.6530461"><ele>114.6</ele><time>2026-04-18T06:17:33.505Z</time></trkpt><trkpt lat="43.5349489" lon="10.6531784"><ele>112.8</ele><time>2026-04-18T06:17:34.512Z</time></trkpt><trkpt lat="43.5349979" lon="10.6532992"><ele>111.0</ele><time>2026-04-18T06:17:35.504Z</time></trkpt><trkpt lat="43.5350224" lon="10.653419"><ele>111.0</ele><time>2026-04-18T06:17:36.509Z</time></trkpt><trkpt lat="43.5350473" lon="10.6535411"><ele>111.0</ele><time>2026-04-18T06:17:37.511Z</time></trkpt><trkpt lat="43.5350603" lon="10.6536651"><ele>111.0</ele><time>2026-04-18T06:17:38.504Z</time></trkpt><trkpt lat="43.5350592" lon="10.653785"><ele>111.0</ele><time>2026-04-18T06:17:39.509Z</time></trkpt><trkpt lat="43.5350536" lon="10.6538956"><ele>111.0</ele><time>2026-04-18T06:17:40.507Z</time></trkpt><trkpt lat="43.5350196" lon="10.6539951"><ele>111.0</ele><time>2026-04-18T06:17:41.51Z</time></trkpt><trkpt lat="43.5349977" lon="10.6541048"><ele>110.6</ele><time>2026-04-18T06:17:42.502Z</time></trkpt><trkpt lat="43.5349593" lon="10.6541752"><ele>110.19999999999999</ele><time>2026-04-18T06:17:43.512Z</time></trkpt><trkpt lat="43.5349042" lon="10.6543145"><ele>109.80000000000001</ele><time>2026-04-18T06:17:45.503Z</time></trkpt><trkpt lat="43.5348305" lon="10.6544561"><ele>109.4</ele><time>2026-04-18T06:17:47.506Z</time></trkpt><trkpt lat="43.5347916" lon="10.6545461"><ele>109.0</ele><time>2026-04-18T06:17:48.51Z</time></trkpt><trkpt lat="43.5347472" lon="10.6546353"><ele>109.00000000000001</ele><time>2026-04-18T06:17:49.508Z</time></trkpt><trkpt lat="43.5346988" lon="10.6547322"><ele>109.0</ele><time>2026-04-18T06:17:50.505Z</time></trkpt><trkpt lat="43.5346606" lon="10.6548174"><ele>109.0</ele><time>2026-04-18T06:17:51.508Z</time></trkpt><trkpt lat="43.5345813" lon="10.6548924"><ele>109.0</ele><time>2026-04-18T06:17:52.511Z</time></trkpt><trkpt lat="43.5344996" lon="10.6549637"><ele>109.00000000000001</ele><time>2026-04-18T06:17:53.517Z</time></trkpt><trkpt lat="43.534426" lon="10.6550202"><ele>109.0</ele><time>2026-04-18T06:17:54.511Z</time></trkpt><trkpt lat="43.5343447" lon="10.6550693"><ele>109.00000000000001</ele><time>2026-04-18T06:17:55.509Z</time></trkpt><trkpt lat="43.5342612" lon="10.6551223"><ele>109.0</ele><time>2026-04-18T06:17:56.512Z</time></trkpt><trkpt lat="43.5341789" lon="10.6551746"><ele>109.0</ele><time>2026-04-18T06:17:57.505Z</time></trkpt><trkpt lat="43.5341074" lon="10.6552188"><ele>109.0</ele><time>2026-04-18T06:17:58.516Z</time></trkpt><trkpt lat="43.5340504" lon="10.6552621"><ele>109.00000000000001</ele><time>2026-04-18T06:17:59.5Z</time></trkpt><trkpt lat="43.5339974" lon="10.6553181"><ele>109.0</ele><time>2026-04-18T06:18:00.511Z</time></trkpt><trkpt lat="43.5339482" lon="10.6553811"><ele>109.50000000000001</ele><time>2026-04-18T06:18:01.515Z</time></trkpt><trkpt lat="43.5338996" lon="10.6554684"><ele>110.0</ele><time>2026-04-18T06:18:02.512Z</time></trkpt><trkpt lat="43.5338472" lon="10.6555582"><ele>110.5</ele><time>2026-04-18T06:18:03.506Z</time></trkpt><trkpt lat="43.5338189" lon="10.655647"><ele>111.0</ele><time>2026-04-18T06:18:04.502Z</time></trkpt><trkpt lat="43.5337841" lon="10.6557563"><ele>111.50000000000001</ele><time>2026-04-18T06:18:05.517Z</time></trkpt><trkpt lat="43.5337601" lon="10.6558549"><ele>112.0</ele><time>2026-04-18T06:18:06.508Z</time></trkpt><trkpt lat="43.5337339" lon="10.6559665"><ele>112.6</ele><time>2026-04-18T06:18:07.525Z</time></trkpt><trkpt lat="43.5337159" lon="10.6560979"><ele>113.19999999999999</ele><time>2026-04-18T06:18:08.508Z</time></trkpt><trkpt lat="43.5336902" lon="10.6562213"><ele>113.8</ele><time>2026-04-18T06:18:09.515Z</time></trkpt><trkpt lat="43.5336608" lon="10.6563442"><ele>114.4</ele><time>2026-04-18T06:18:10.519Z</time></trkpt><trkpt lat="43.5336252" lon="10.6564662"><ele>115.0</ele><time>2026-04-18T06:18:11.515Z</time></trkpt><trkpt lat="43.5335883" lon="10.6565741"><ele>116.6</ele><time>2026-04-18T06:18:12.51Z</time></trkpt><trkpt lat="43.5335372" lon="10.656689"><ele>118.2</ele><time>2026-04-18T06:18:13.511Z</time></trkpt><trkpt lat="43.5334899" lon="10.6568074"><ele>119.80000000000001</ele><time>2026-04-18T06:18:14.511Z</time></trkpt><trkpt lat="43.5334392" lon="10.6569216"><ele>121.4</ele><time>2026-04-18T06:18:15.511Z</time></trkpt><trkpt lat="43.5333935" lon="10.6570294"><ele>123.0</ele><time>2026-04-18T06:18:16.506Z</time></trkpt><trkpt lat="43.5333442" lon="10.6571344"><ele>124.5</ele><time>2026-04-18T06:18:17.523Z</time></trkpt><trkpt lat="43.5332996" lon="10.6572335"><ele>126.0</ele><time>2026-04-18T06:18:18.498Z</time></trkpt><trkpt lat="43.5332446" lon="10.6573316"><ele>127.5</ele><time>2026-04-18T06:18:19.514Z</time></trkpt><trkpt lat="43.5331951" lon="10.6574145"><ele>129.0</ele><time>2026-04-18T06:18:20.511Z</time></trkpt><trkpt lat="43.5331209" lon="10.6574775"><ele>130.5</ele><time>2026-04-18T06:18:21.506Z</time></trkpt><trkpt lat="43.5330386" lon="10.6575143"><ele>132.0</ele><time>2026-04-18T06:18:22.504Z</time></trkpt><trkpt lat="43.5329486" lon="10.6575382"><ele>133.4</ele><time>2026-04-18T06:18:23.512Z</time></trkpt><trkpt lat="43.5328539" lon="10.6575609"><ele>134.79999999999998</ele><time>2026-04-18T06:18:24.508Z</time></trkpt><trkpt lat="43.5327601" lon="10.6575813"><ele>136.2</ele><time>2026-04-18T06:18:25.513Z</time></trkpt><trkpt lat="43.5326453" lon="10.6575899"><ele>137.6</ele><time>2026-04-18T06:18:26.512Z</time></trkpt><trkpt lat="43.5325515" lon="10.6576021"><ele>139.0</ele><time>2026-04-18T06:18:27.518Z</time></trkpt><trkpt lat="43.5324814" lon="10.6576158"><ele>139.0</ele><time>2026-04-18T06:18:28.517Z</time></trkpt><trkpt lat="43.5324011" lon="10.6576274"><ele>139.0</ele><time>2026-04-18T06:18:30.511Z</time></trkpt><trkpt lat="43.5324527" lon="10.6577229"><ele>139.0</ele><time>2026-04-18T06:18:35.512Z</time></trkpt><trkpt lat="43.5325153" lon="10.6577986"><ele>139.0</ele><time>2026-04-18T06:18:37.509Z</time></trkpt><trkpt lat="43.5325177" lon="10.6579413"><ele>139.0</ele><time>2026-04-18T06:18:39.506Z</time></trkpt><trkpt lat="43.5324614" lon="10.658068"><ele>141.8</ele><time>2026-04-18T06:18:41.511Z</time></trkpt><trkpt lat="43.5323524" lon="10.6581768"><ele>144.60000000000002</ele><time>2026-04-18T06:18:43.504Z</time></trkpt><trkpt lat="43.5322333" lon="10.6581733"><ele>147.4</ele><time>2026-04-18T06:18:45.509Z</time></trkpt><trkpt lat="43.5321434" lon="10.6581226"><ele>150.20000000000002</ele><time>2026-04-18T06:18:46.507Z</time></trkpt><trkpt lat="43.5320563" lon="10.6580659"><ele>153.0</ele><time>2026-04-18T06:18:47.517Z</time></trkpt><trkpt lat="43.5319783" lon="10.6580177"><ele>154.0</ele><time>2026-04-18T06:18:48.507Z</time></trkpt><trkpt lat="43.5319071" lon="10.6579611"><ele>155.0</ele><time>2026-04-18T06:18:49.522Z</time></trkpt><trkpt lat="43.5318231" lon="10.6579376"><ele>156.0</ele><time>2026-04-18T06:18:50.52Z</time></trkpt><trkpt lat="43.5317571" lon="10.6579361"><ele>157.0</ele><time>2026-04-18T06:18:51.507Z</time></trkpt><trkpt lat="43.531663" lon="10.6580288"><ele>158.0</ele><time>2026-04-18T06:18:53.513Z</time></trkpt><trkpt lat="43.5316479" lon="10.6581144"><ele>159.0</ele><time>2026-04-18T06:18:54.515Z</time></trkpt><trkpt lat="43.5317116" lon="10.6582929"><ele>159.0</ele><time>2026-04-18T06:18:56.507Z</time></trkpt><trkpt lat="43.5317647" lon="10.6583595"><ele>159.0</ele><time>2026-04-18T06:18:57.509Z</time></trkpt><trkpt lat="43.5318305" lon="10.6584277"><ele>159.0</ele><time>2026-04-18T06:18:58.508Z</time></trkpt><trkpt lat="43.5319153" lon="10.658481"><ele>159.0</ele><time>2026-04-18T06:18:59.52Z</time></trkpt><trkpt lat="43.5319934" lon="10.6585734"><ele>159.0</ele><time>2026-04-18T06:19:00.509Z</time></trkpt><trkpt lat="43.5320454" lon="10.6586758"><ele>159.0</ele><time>2026-04-18T06:19:01.503Z</time></trkpt><trkpt lat="43.53211" lon="10.6588083"><ele>159.5</ele><time>2026-04-18T06:19:02.509Z</time></trkpt><trkpt lat="43.5321806" lon="10.6589361"><ele>160.0</ele><time>2026-04-18T06:19:03.503Z</time></trkpt><trkpt lat="43.5322673" lon="10.6590788"><ele>160.5</ele><time>2026-04-18T06:19:04.511Z</time></trkpt><trkpt lat="43.5323649" lon="10.6592134"><ele>161.0</ele><time>2026-04-18T06:19:05.511Z</time></trkpt><trkpt lat="43.5324625" lon="10.6593575"><ele>165.0</ele><time>2026-04-18T06:19:06.503Z</time></trkpt><trkpt lat="43.5325608" lon="10.6595116"><ele>169.0</ele><time>2026-04-18T06:19:07.504Z</time></trkpt><trkpt lat="43.5326596" lon="10.6596807"><ele>173.0</ele><time>2026-04-18T06:19:08.515Z</time></trkpt><trkpt lat="43.5327569" lon="10.6598514"><ele>173.0</ele><time>2026-04-18T06:19:09.509Z</time></trkpt><trkpt lat="43.5328432" lon="10.6599998"><ele>173.0</ele><time>2026-04-18T06:19:10.508Z</time></trkpt><trkpt lat="43.5329299" lon="10.6601475"><ele>173.0</ele><time>2026-04-18T06:19:11.528Z</time></trkpt><trkpt lat="43.5330192" lon="10.6602929"><ele>173.0</ele><time>2026-04-18T06:19:12.506Z</time></trkpt><trkpt lat="43.5330998" lon="10.6604356"><ele>172.0</ele><time>2026-04-18T06:19:13.511Z</time></trkpt><trkpt lat="43.5331825" lon="10.6605643"><ele>171.0</ele><time>2026-04-18T06:19:14.521Z</time></trkpt><trkpt lat="43.5332744" lon="10.6606709"><ele>170.0</ele><time>2026-04-18T06:19:15.509Z</time></trkpt><trkpt lat="43.5333651" lon="10.6607525"><ele>169.0</ele><time>2026-04-18T06:19:16.509Z</time></trkpt><trkpt lat="43.533441" lon="10.6608407"><ele>169.0</ele><time>2026-04-18T06:19:17.519Z</time></trkpt><trkpt lat="43.5334917" lon="10.6608967"><ele>169.0</ele><time>2026-04-18T06:19:18.513Z</time></trkpt><trkpt lat="43.5335215" lon="10.6609776"><ele>169.0</ele><time>2026-04-18T06:19:20.512Z</time></trkpt><trkpt lat="43.533587" lon="10.6610228"><ele>169.0</ele><time>2026-04-18T06:19:26.517Z</time></trkpt><trkpt lat="43.5337061" lon="10.6610662"><ele>169.0</ele><time>2026-04-18T06:19:28.504Z</time></trkpt><trkpt lat="43.5337659" lon="10.6610947"><ele>169.0</ele><time>2026-04-18T06:19:29.511Z</time></trkpt><trkpt lat="43.5338555" lon="10.6611303"><ele>168.0</ele><time>2026-04-18T06:19:30.523Z</time></trkpt><trkpt lat="43.5339669" lon="10.6611614"><ele>167.0</ele><time>2026-04-18T06:19:31.503Z</time></trkpt><trkpt lat="43.5340569" lon="10.661193"><ele>166.0</ele><time>2026-04-18T06:19:32.513Z</time></trkpt><trkpt lat="43.5341247" lon="10.6612094"><ele>165.0</ele><time>2026-04-18T06:19:33.506Z</time></trkpt><trkpt lat="43.5341862" lon="10.6612338"><ele>164.0</ele><time>2026-04-18T06:19:34.502Z</time></trkpt><trkpt lat="43.5342282" lon="10.6613208"><ele>163.0</ele><time>2026-04-18T06:19:36.51Z</time></trkpt><trkpt lat="43.5341867" lon="10.6614458"><ele>163.0</ele><time>2026-04-18T06:19:38.505Z</time></trkpt><trkpt lat="43.5341456" lon="10.6615445"><ele>163.0</ele><time>2026-04-18T06:19:39.517Z</time></trkpt><trkpt lat="43.5341032" lon="10.6616672"><ele>163.0</ele><time>2026-04-18T06:19:40.511Z</time></trkpt><trkpt lat="43.5340672" lon="10.6617952"><ele>163.0</ele><time>2026-04-18T06:19:41.504Z</time></trkpt><trkpt lat="43.5340137" lon="10.6619225"><ele>163.0</ele><time>2026-04-18T06:19:42.506Z</time></trkpt><trkpt lat="43.5339644" lon="10.6620852"><ele>161.5</ele><time>2026-04-18T06:19:43.499Z</time></trkpt><trkpt lat="43.5339152" lon="10.6622499"><ele>160.0</ele><time>2026-04-18T06:19:44.501Z</time></trkpt><trkpt lat="43.5338545" lon="10.6624228"><ele>158.5</ele><time>2026-04-18T06:19:45.521Z</time></trkpt><trkpt lat="43.5337975" lon="10.6626"><ele>157.0</ele><time>2026-04-18T06:19:46.501Z</time></trkpt><trkpt lat="43.5337391" lon="10.6627687"><ele>160.75</ele><time>2026-04-18T06:19:47.502Z</time></trkpt><trkpt lat="43.5336829" lon="10.662954"><ele>164.5</ele><time>2026-04-18T06:19:48.492Z</time></trkpt><trkpt lat="43.5336265" lon="10.6631407"><ele>168.25</ele><time>2026-04-18T06:19:49.51Z</time></trkpt><trkpt lat="43.5335771" lon="10.6633363"><ele>172.0</ele><time>2026-04-18T06:19:50.509Z</time></trkpt><trkpt lat="43.5335409" lon="10.6635332"><ele>170.6</ele><time>2026-04-18T06:19:51.518Z</time></trkpt><trkpt lat="43.5335038" lon="10.6637035"><ele>169.2</ele><time>2026-04-18T06:19:52.511Z</time></trkpt><trkpt lat="43.5334769" lon="10.6638591"><ele>167.8</ele><time>2026-04-18T06:19:53.487Z</time></trkpt><trkpt lat="43.5334752" lon="10.6639943"><ele>166.4</ele><time>2026-04-18T06:19:54.495Z</time></trkpt><trkpt lat="43.5334672" lon="10.6641408"><ele>165.0</ele><time>2026-04-18T06:19:55.501Z</time></trkpt><trkpt lat="43.5334599" lon="10.6642959"><ele>165.0</ele><time>2026-04-18T06:19:56.496Z</time></trkpt><trkpt lat="43.5334293" lon="10.6644449"><ele>165.0</ele><time>2026-04-18T06:19:57.51Z</time></trkpt><trkpt lat="43.5333933" lon="10.6645599"><ele>165.0</ele><time>2026-04-18T06:19:58.501Z</time></trkpt><trkpt lat="43.5333214" lon="10.6646823"><ele>165.0</ele><time>2026-04-18T06:19:59.507Z</time></trkpt><trkpt lat="43.5332356" lon="10.6647961"><ele>165.0</ele><time>2026-04-18T06:20:00.507Z</time></trkpt><trkpt lat="43.5331241" lon="10.6648967"><ele>162.5</ele><time>2026-04-18T06:20:01.504Z</time></trkpt><trkpt lat="43.5330155" lon="10.6649795"><ele>160.0</ele><time>2026-04-18T06:20:02.499Z</time></trkpt><trkpt lat="43.5328816" lon="10.6650267"><ele>157.5</ele><time>2026-04-18T06:20:03.504Z</time></trkpt><trkpt lat="43.5327696" lon="10.6650582"><ele>155.0</ele><time>2026-04-18T06:20:04.505Z</time></trkpt><trkpt lat="43.5326546" lon="10.6650559"><ele>154.5</ele><time>2026-04-18T06:20:05.506Z</time></trkpt><trkpt lat="43.5325479" lon="10.6650237"><ele>154.0</ele><time>2026-04-18T06:20:06.508Z</time></trkpt><trkpt lat="43.5324434" lon="10.665002"><ele>153.5</ele><time>2026-04-18T06:20:07.502Z</time></trkpt><trkpt lat="43.5323212" lon="10.6650215"><ele>153.0</ele><time>2026-04-18T06:20:08.506Z</time></trkpt><trkpt lat="43.5322095" lon="10.6650742"><ele>153.0</ele><time>2026-04-18T06:20:09.502Z</time></trkpt><trkpt lat="43.5321161" lon="10.6651715"><ele>153.0</ele><time>2026-04-18T06:20:10.498Z</time></trkpt><trkpt lat="43.5320325" lon="10.6652953"><ele>153.0</ele><time>2026-04-18T06:20:11.513Z</time></trkpt><trkpt lat="43.531962" lon="10.6654407"><ele>153.0</ele><time>2026-04-18T06:20:12.513Z</time></trkpt><trkpt lat="43.531882" lon="10.6656242"><ele>151.0</ele><time>2026-04-18T06:20:13.504Z</time></trkpt><trkpt lat="43.5318119" lon="10.6657969"><ele>149.0</ele><time>2026-04-18T06:20:14.506Z</time></trkpt><trkpt lat="43.5317263" lon="10.6659897"><ele>147.0</ele><time>2026-04-18T06:20:15.507Z</time></trkpt><trkpt lat="43.5316353" lon="10.6661664"><ele>147.0</ele><time>2026-04-18T06:20:16.512Z</time></trkpt><trkpt lat="43.5315456" lon="10.6663365"><ele>147.0</ele><time>2026-04-18T06:20:17.502Z</time></trkpt><trkpt lat="43.5314448" lon="10.6665055"><ele>147.0</ele><time>2026-04-18T06:20:18.508Z</time></trkpt><trkpt lat="43.5313394" lon="10.6666624"><ele>148.0</ele><time>2026-04-18T06:20:19.504Z</time></trkpt><trkpt lat="43.5312229" lon="10.6668131"><ele>149.0</ele><time>2026-04-18T06:20:20.508Z</time></trkpt><trkpt lat="43.5311146" lon="10.6669592"><ele>150.0</ele><time>2026-04-18T06:20:21.508Z</time></trkpt><trkpt lat="43.5310178" lon="10.6671156"><ele>152.25</ele><time>2026-04-18T06:20:22.512Z</time></trkpt><trkpt lat="43.5309402" lon="10.6672752"><ele>154.5</ele><time>2026-04-18T06:20:23.5Z</time></trkpt><trkpt lat="43.5308552" lon="10.6674024"><ele>156.75</ele><time>2026-04-18T06:20:24.503Z</time></trkpt><trkpt lat="43.5307618" lon="10.6675128"><ele>159.0</ele><time>2026-04-18T06:20:25.521Z</time></trkpt><trkpt lat="43.5306553" lon="10.6676149"><ele>159.0</ele><time>2026-04-18T06:20:26.507Z</time></trkpt><trkpt lat="43.5305488" lon="10.6677063"><ele>159.0</ele><time>2026-04-18T06:20:27.52Z</time></trkpt><trkpt lat="43.5304443" lon="10.6677914"><ele>159.0</ele><time>2026-04-18T06:20:28.514Z</time></trkpt><trkpt lat="43.530348" lon="10.667865"><ele>159.0</ele><time>2026-04-18T06:20:29.503Z</time></trkpt><trkpt lat="43.5302837" lon="10.667944"><ele>159.0</ele><time>2026-04-18T06:20:30.507Z</time></trkpt><trkpt lat="43.53022" lon="10.6680591"><ele>160.0</ele><time>2026-04-18T06:20:31.506Z</time></trkpt><trkpt lat="43.530139" lon="10.6681724"><ele>161.0</ele><time>2026-04-18T06:20:32.501Z</time></trkpt><trkpt lat="43.5300684" lon="10.6683156"><ele>162.0</ele><time>2026-04-18T06:20:33.507Z</time></trkpt><trkpt lat="43.5300052" lon="10.6684408"><ele>163.0</ele><time>2026-04-18T06:20:34.513Z</time></trkpt><trkpt lat="43.5299381" lon="10.6685916"><ele>165.0</ele><time>2026-04-18T06:20:35.508Z</time></trkpt><trkpt lat="43.5298542" lon="10.6687444"><ele>167.0</ele><time>2026-04-18T06:20:36.507Z</time></trkpt><trkpt lat="43.5297589" lon="10.6688811"><ele>169.0</ele><time>2026-04-18T06:20:37.501Z</time></trkpt><trkpt lat="43.5296671" lon="10.6690199"><ele>171.0</ele><time>2026-04-18T06:20:38.502Z</time></trkpt><trkpt lat="43.5295702" lon="10.6691575"><ele>168.33333333333334</ele><time>2026-04-18T06:20:39.514Z</time></trkpt><trkpt lat="43.5294633" lon="10.669299"><ele>165.66666666666669</ele><time>2026-04-18T06:20:40.513Z</time></trkpt><trkpt lat="43.529342" lon="10.6694472"><ele>163.0</ele><time>2026-04-18T06:20:41.508Z</time></trkpt><trkpt lat="43.5292238" lon="10.669556"><ele>163.0</ele><time>2026-04-18T06:20:42.512Z</time></trkpt><trkpt lat="43.5290899" lon="10.6696592"><ele>163.0</ele><time>2026-04-18T06:20:43.508Z</time></trkpt><trkpt lat="43.5289534" lon="10.6697625"><ele>163.0</ele><time>2026-04-18T06:20:44.502Z</time></trkpt><trkpt lat="43.5288251" lon="10.6698983"><ele>163.0</ele><time>2026-04-18T06:20:45.506Z</time></trkpt><trkpt lat="43.5287261" lon="10.6700139"><ele>163.0</ele><time>2026-04-18T06:20:46.503Z</time></trkpt><trkpt lat="43.5286217" lon="10.6701327"><ele>163.0</ele><time>2026-04-18T06:20:47.516Z</time></trkpt><trkpt lat="43.5285195" lon="10.6702573"><ele>163.0</ele><time>2026-04-18T06:20:48.506Z</time></trkpt><trkpt lat="43.5284031" lon="10.6704025"><ele>162.33333333333334</ele><time>2026-04-18T06:20:49.507Z</time></trkpt><trkpt lat="43.5282858" lon="10.6705415"><ele>161.66666666666666</ele><time>2026-04-18T06:20:50.503Z</time></trkpt><trkpt lat="43.528159" lon="10.6706866"><ele>161.0</ele><time>2026-04-18T06:20:51.506Z</time></trkpt><trkpt lat="43.5280428" lon="10.670836"><ele>161.0</ele><time>2026-04-18T06:20:52.518Z</time></trkpt><trkpt lat="43.5279157" lon="10.6709836"><ele>161.0</ele><time>2026-04-18T06:20:53.501Z</time></trkpt><trkpt lat="43.5277985" lon="10.6711329"><ele>161.0</ele><time>2026-04-18T06:20:54.5Z</time></trkpt><trkpt lat="43.5276778" lon="10.6712812"><ele>162.66666666666666</ele><time>2026-04-18T06:20:55.51Z</time></trkpt><trkpt lat="43.5275717" lon="10.6714447"><ele>164.33333333333334</ele><time>2026-04-18T06:20:56.505Z</time></trkpt><trkpt lat="43.527467" lon="10.6716267"><ele>166.0</ele><time>2026-04-18T06:20:57.503Z</time></trkpt><trkpt lat="43.5273861" lon="10.6718244"><ele>168.66666666666669</ele><time>2026-04-18T06:20:58.511Z</time></trkpt><trkpt lat="43.5272964" lon="10.6720083"><ele>171.33333333333334</ele><time>2026-04-18T06:20:59.506Z</time></trkpt><trkpt lat="43.5272017" lon="10.672171"><ele>174.0</ele><time>2026-04-18T06:21:00.504Z</time></trkpt><trkpt lat="43.5271033" lon="10.6723165"><ele>173.25</ele><time>2026-04-18T06:21:01.513Z</time></trkpt><trkpt lat="43.5270076" lon="10.6724506"><ele>172.5</ele><time>2026-04-18T06:21:02.511Z</time></trkpt><trkpt lat="43.52687" lon="10.672521"><ele>171.75</ele><time>2026-04-18T06:21:03.507Z</time></trkpt><trkpt lat="43.526717" lon="10.6725423"><ele>171.0</ele><time>2026-04-18T06:21:04.521Z</time></trkpt><trkpt lat="43.5265963" lon="10.6725055"><ele>171.0</ele><time>2026-04-18T06:21:05.512Z</time></trkpt><trkpt lat="43.5264916" lon="10.6724699"><ele>171.0</ele><time>2026-04-18T06:21:06.507Z</time></trkpt><trkpt lat="43.5263792" lon="10.6724509"><ele>171.0</ele><time>2026-04-18T06:21:07.503Z</time></trkpt><trkpt lat="43.5262833" lon="10.6724629"><ele>171.0</ele><time>2026-04-18T06:21:08.507Z</time></trkpt><trkpt lat="43.5261883" lon="10.6725154"><ele>171.0</ele><time>2026-04-18T06:21:09.505Z</time></trkpt><trkpt lat="43.5260985" lon="10.6725782"><ele>170.8</ele><time>2026-04-18T06:21:10.505Z</time></trkpt><trkpt lat="43.5260245" lon="10.67269"><ele>170.60000000000002</ele><time>2026-04-18T06:21:11.497Z</time></trkpt><trkpt lat="43.525955" lon="10.6727896"><ele>170.4</ele><time>2026-04-18T06:21:12.501Z</time></trkpt><trkpt lat="43.5258985" lon="10.6729114"><ele>170.2</ele><time>2026-04-18T06:21:13.509Z</time></trkpt><trkpt lat="43.5258709" lon="10.6730551"><ele>170.0</ele><time>2026-04-18T06:21:14.507Z</time></trkpt><trkpt lat="43.5258722" lon="10.6732108"><ele>170.0</ele><time>2026-04-18T06:21:15.521Z</time></trkpt><trkpt lat="43.5258661" lon="10.6733548"><ele>170.0</ele><time>2026-04-18T06:21:16.503Z</time></trkpt><trkpt lat="43.525856" lon="10.6734859"><ele>170.0</ele><time>2026-04-18T06:21:17.506Z</time></trkpt><trkpt lat="43.5258482" lon="10.6736251"><ele>170.0</ele><time>2026-04-18T06:21:18.505Z</time></trkpt><trkpt lat="43.5258315" lon="10.6737611"><ele>170.0</ele><time>2026-04-18T06:21:19.504Z</time></trkpt><trkpt lat="43.5258122" lon="10.6739105"><ele>172.0</ele><time>2026-04-18T06:21:20.493Z</time></trkpt><trkpt lat="43.525798" lon="10.6740633"><ele>174.0</ele><time>2026-04-18T06:21:21.498Z</time></trkpt><trkpt lat="43.5257718" lon="10.6742308"><ele>176.0</ele><time>2026-04-18T06:21:22.5Z</time></trkpt><trkpt lat="43.5257438" lon="10.6744083"><ele>178.0</ele><time>2026-04-18T06:21:23.502Z</time></trkpt><trkpt lat="43.5257152" lon="10.6745857"><ele>179.25</ele><time>2026-04-18T06:21:24.496Z</time></trkpt><trkpt lat="43.5256825" lon="10.6747667"><ele>180.5</ele><time>2026-04-18T06:21:25.502Z</time></trkpt><trkpt lat="43.5256604" lon="10.6749252"><ele>181.75</ele><time>2026-04-18T06:21:26.508Z</time></trkpt><trkpt lat="43.5256436" lon="10.6750807"><ele>183.0</ele><time>2026-04-18T06:21:27.495Z</time></trkpt><trkpt lat="43.5256218" lon="10.6752209"><ele>183.0</ele><time>2026-04-18T06:21:28.505Z</time></trkpt><trkpt lat="43.5255625" lon="10.6753819"><ele>183.0</ele><time>2026-04-18T06:21:30.498Z</time></trkpt><trkpt lat="43.5255331" lon="10.6754677"><ele>183.0</ele><time>2026-04-18T06:21:31.503Z</time></trkpt><trkpt lat="43.5254972" lon="10.6755631"><ele>183.0</ele><time>2026-04-18T06:21:32.503Z</time></trkpt><trkpt lat="43.5254511" lon="10.6756602"><ele>183.0</ele><time>2026-04-18T06:21:33.508Z</time></trkpt><trkpt lat="43.5253991" lon="10.6757495"><ele>183.0</ele><time>2026-04-18T06:21:34.51Z</time></trkpt><trkpt lat="43.5253442" lon="10.6758163"><ele>183.0</ele><time>2026-04-18T06:21:35.493Z</time></trkpt><trkpt lat="43.525286" lon="10.675897"><ele>183.0</ele><time>2026-04-18T06:21:36.507Z</time></trkpt><trkpt lat="43.5252285" lon="10.6759836"><ele>183.0</ele><time>2026-04-18T06:21:37.498Z</time></trkpt><trkpt lat="43.5251668" lon="10.6760376"><ele>183.0</ele><time>2026-04-18T06:21:38.499Z</time></trkpt><trkpt lat="43.5251149" lon="10.6761006"><ele>183.0</ele><time>2026-04-18T06:21:39.5Z</time></trkpt><trkpt lat="43.5250413" lon="10.6761638"><ele>183.0</ele><time>2026-04-18T06:21:40.505Z</time></trkpt><trkpt lat="43.524936" lon="10.6762632"><ele>182.83333333333334</ele><time>2026-04-18T06:21:42.494Z</time></trkpt><trkpt lat="43.5248478" lon="10.6763329"><ele>182.66666666666666</ele><time>2026-04-18T06:21:43.498Z</time></trkpt><trkpt lat="43.5247558" lon="10.6763833"><ele>182.5</ele><time>2026-04-18T06:21:44.512Z</time></trkpt><trkpt lat="43.5247089" lon="10.6764549"><ele>182.33333333333331</ele><time>2026-04-18T06:21:45.498Z</time></trkpt><trkpt lat="43.5246402" lon="10.6765119"><ele>182.16666666666666</ele><time>2026-04-18T06:21:46.513Z</time></trkpt><trkpt lat="43.5245726" lon="10.676552"><ele>182.0</ele><time>2026-04-18T06:21:48.497Z</time></trkpt><trkpt lat="43.5245508" lon="10.6766683"><ele>181.6</ele><time>2026-04-18T06:21:51.496Z</time></trkpt><trkpt lat="43.5245613" lon="10.6768018"><ele>181.2</ele><time>2026-04-18T06:21:53.501Z</time></trkpt><trkpt lat="43.5245448" lon="10.6769098"><ele>180.8</ele><time>2026-04-18T06:21:55.492Z</time></trkpt><trkpt lat="43.5245403" lon="10.6770188"><ele>180.4</ele><time>2026-04-18T06:21:58.497Z</time></trkpt><trkpt lat="43.5245939" lon="10.6771226"><ele>180.0</ele><time>2026-04-18T06:22:00.502Z</time></trkpt><trkpt lat="43.5246976" lon="10.6771867"><ele>179.16666666666666</ele><time>2026-04-18T06:22:02.5Z</time></trkpt><trkpt lat="43.5247575" lon="10.6773026"><ele>178.33333333333334</ele><time>2026-04-18T06:22:04.493Z</time></trkpt><trkpt lat="43.524777" lon="10.6773879"><ele>177.5</ele><time>2026-04-18T06:22:05.504Z</time></trkpt><trkpt lat="43.5247493" lon="10.6774993"><ele>176.66666666666669</ele><time>2026-04-18T06:22:06.496Z</time></trkpt><trkpt lat="43.5247669" lon="10.6776014"><ele>175.83333333333334</ele><time>2026-04-18T06:22:07.499Z</time></trkpt><trkpt lat="43.5247708" lon="10.6777614"><ele>175.0</ele><time>2026-04-18T06:22:08.502Z</time></trkpt><trkpt lat="43.5247523" lon="10.6779174"><ele>174.25</ele><time>2026-04-18T06:22:09.506Z</time></trkpt><trkpt lat="43.5247597" lon="10.6780711"><ele>173.5</ele><time>2026-04-18T06:22:10.504Z</time></trkpt><trkpt lat="43.5247699" lon="10.6782142"><ele>172.75</ele><time>2026-04-18T06:22:11.503Z</time></trkpt><trkpt lat="43.5247789" lon="10.6783933"><ele>172.0</ele><time>2026-04-18T06:22:12.505Z</time></trkpt><trkpt lat="43.5247924" lon="10.6785627"><ele>173.39999999999998</ele><time>2026-04-18T06:22:13.5Z</time></trkpt><trkpt lat="43.5248237" lon="10.6787182"><ele>174.79999999999998</ele><time>2026-04-18T06:22:14.498Z</time></trkpt><trkpt lat="43.5248492" lon="10.6788529"><ele>176.2</ele><time>2026-04-18T06:22:15.503Z</time></trkpt><trkpt lat="43.5248786" lon="10.6789856"><ele>177.6</ele><time>2026-04-18T06:22:16.501Z</time></trkpt><trkpt lat="43.5248976" lon="10.6791258"><ele>179.0</ele><time>2026-04-18T06:22:17.511Z</time></trkpt><trkpt lat="43.5249113" lon="10.6792839"><ele>179.0</ele><time>2026-04-18T06:22:18.495Z</time></trkpt><trkpt lat="43.5249117" lon="10.6794253"><ele>179.0</ele><time>2026-04-18T06:22:19.501Z</time></trkpt><trkpt lat="43.5249018" lon="10.6795598"><ele>179.0</ele><time>2026-04-18T06:22:20.499Z</time></trkpt><trkpt lat="43.5248799" lon="10.6796965"><ele>179.0</ele><time>2026-04-18T06:22:21.501Z</time></trkpt><trkpt lat="43.5248824" lon="10.6798239"><ele>179.0</ele><time>2026-04-18T06:22:22.502Z</time></trkpt><trkpt lat="43.5249002" lon="10.6799646"><ele>179.6</ele><time>2026-04-18T06:22:23.503Z</time></trkpt><trkpt lat="43.5249307" lon="10.6801064"><ele>180.2</ele><time>2026-04-18T06:22:24.495Z</time></trkpt><trkpt lat="43.5249494" lon="10.6802514"><ele>180.79999999999998</ele><time>2026-04-18T06:22:25.504Z</time></trkpt><trkpt lat="43.5249724" lon="10.6804077"><ele>181.39999999999998</ele><time>2026-04-18T06:22:26.496Z</time></trkpt><trkpt lat="43.5249773" lon="10.6805637"><ele>182.0</ele><time>2026-04-18T06:22:27.5Z</time></trkpt><trkpt lat="43.5249842" lon="10.6807155"><ele>180.25</ele><time>2026-04-18T06:22:28.502Z</time></trkpt><trkpt lat="43.5249952" lon="10.6808757"><ele>178.5</ele><time>2026-04-18T06:22:29.496Z</time></trkpt><trkpt lat="43.524992" lon="10.6810328"><ele>176.75</ele><time>2026-04-18T06:22:30.499Z</time></trkpt><trkpt lat="43.5249879" lon="10.6812004"><ele>175.0</ele><time>2026-04-18T06:22:31.494Z</time></trkpt><trkpt lat="43.5249834" lon="10.6813652"><ele>174.4</ele><time>2026-04-18T06:22:32.504Z</time></trkpt><trkpt lat="43.5249733" lon="10.6815227"><ele>173.8</ele><time>2026-04-18T06:22:33.503Z</time></trkpt><trkpt lat="43.5249685" lon="10.6816689"><ele>173.2</ele><time>2026-04-18T06:22:34.506Z</time></trkpt><trkpt lat="43.5249656" lon="10.6818142"><ele>172.6</ele><time>2026-04-18T06:22:35.507Z</time></trkpt><trkpt lat="43.5249615" lon="10.6819616"><ele>172.0</ele><time>2026-04-18T06:22:36.499Z</time></trkpt><trkpt lat="43.5249598" lon="10.6820997"><ele>171.6</ele><time>2026-04-18T06:22:37.507Z</time></trkpt><trkpt lat="43.5249534" lon="10.6822364"><ele>171.2</ele><time>2026-04-18T06:22:38.511Z</time></trkpt><trkpt lat="43.5249644" lon="10.6823607"><ele>170.8</ele><time>2026-04-18T06:22:39.501Z</time></trkpt><trkpt lat="43.524992" lon="10.6824773"><ele>170.4</ele><time>2026-04-18T06:22:40.507Z</time></trkpt><trkpt lat="43.5250502" lon="10.6825651"><ele>170.0</ele><time>2026-04-18T06:22:41.501Z</time></trkpt><trkpt lat="43.5251442" lon="10.682606"><ele>170.0</ele><time>2026-04-18T06:22:42.502Z</time></trkpt><trkpt lat="43.5252561" lon="10.6826159"><ele>170.0</ele><time>2026-04-18T06:22:43.503Z</time></trkpt><trkpt lat="43.5253533" lon="10.6826315"><ele>170.0</ele><time>2026-04-18T06:22:44.507Z</time></trkpt><trkpt lat="43.5254359" lon="10.6826641"><ele>170.0</ele><time>2026-04-18T06:22:45.503Z</time></trkpt><trkpt lat="43.5255116" lon="10.6826955"><ele>170.0</ele><time>2026-04-18T06:22:46.494Z</time></trkpt><trkpt lat="43.5255696" lon="10.6827762"><ele>168.5</ele><time>2026-04-18T06:22:47.509Z</time></trkpt><trkpt lat="43.5256153" lon="10.6828897"><ele>167.0</ele><time>2026-04-18T06:22:48.502Z</time></trkpt><trkpt lat="43.5256384" lon="10.6829971"><ele>165.5</ele><time>2026-04-18T06:22:49.503Z</time></trkpt><trkpt lat="43.5256558" lon="10.6832011"><ele>164.0</ele><time>2026-04-18T06:22:51.499Z</time></trkpt><trkpt lat="43.5255967" lon="10.6833665"><ele>164.0</ele><time>2026-04-18T06:22:53.507Z</time></trkpt><trkpt lat="43.5255289" lon="10.6834243"><ele>164.0</ele><time>2026-04-18T06:22:54.498Z</time></trkpt><trkpt lat="43.5254509" lon="10.6834917"><ele>164.0</ele><time>2026-04-18T06:22:55.5Z</time></trkpt><trkpt lat="43.5253656" lon="10.6835518"><ele>164.0</ele><time>2026-04-18T06:22:56.518Z</time></trkpt><trkpt lat="43.5252607" lon="10.6836132"><ele>164.0</ele><time>2026-04-18T06:22:57.508Z</time></trkpt><trkpt lat="43.5251532" lon="10.6836832"><ele>161.79999999999998</ele><time>2026-04-18T06:22:58.495Z</time></trkpt><trkpt lat="43.5250585" lon="10.6837532"><ele>159.6</ele><time>2026-04-18T06:22:59.505Z</time></trkpt><trkpt lat="43.5249579" lon="10.6838211"><ele>157.4</ele><time>2026-04-18T06:23:00.5Z</time></trkpt><trkpt lat="43.5248717" lon="10.6838842"><ele>155.2</ele><time>2026-04-18T06:23:01.504Z</time></trkpt><trkpt lat="43.5247797" lon="10.6839193"><ele>153.0</ele><time>2026-04-18T06:23:02.503Z</time></trkpt><trkpt lat="43.5247098" lon="10.68392"><ele>153.0</ele><time>2026-04-18T06:23:03.502Z</time></trkpt><trkpt lat="43.5246138" lon="10.6838846"><ele>153.0</ele><time>2026-04-18T06:23:05.509Z</time></trkpt><trkpt lat="43.5245448" lon="10.6838778"><ele>153.0</ele><time>2026-04-18T06:23:07.507Z</time></trkpt><trkpt lat="43.5244791" lon="10.6840298"><ele>153.0</ele><time>2026-04-18T06:23:09.514Z</time></trkpt><trkpt lat="43.5244632" lon="10.6841373"><ele>153.0</ele><time>2026-04-18T06:23:10.511Z</time></trkpt><trkpt lat="43.5244731" lon="10.6842584"><ele>151.4</ele><time>2026-04-18T06:23:11.52Z</time></trkpt><trkpt lat="43.5244954" lon="10.6843666"><ele>149.8</ele><time>2026-04-18T06:23:12.501Z</time></trkpt><trkpt lat="43.5245274" lon="10.6844703"><ele>148.2</ele><time>2026-04-18T06:23:13.514Z</time></trkpt><trkpt lat="43.5246004" lon="10.6845498"><ele>146.6</ele><time>2026-04-18T06:23:14.506Z</time></trkpt><trkpt lat="43.5247027" lon="10.6846042"><ele>145.0</ele><time>2026-04-18T06:23:15.516Z</time></trkpt><trkpt lat="43.5247868" lon="10.6846393"><ele>145.0</ele><time>2026-04-18T06:23:16.513Z</time></trkpt><trkpt lat="43.5248669" lon="10.6846522"><ele>145.0</ele><time>2026-04-18T06:23:17.505Z</time></trkpt><trkpt lat="43.5249488" lon="10.6846168"><ele>145.0</ele><time>2026-04-18T06:23:19.509Z</time></trkpt><trkpt lat="43.5250057" lon="10.6846581"><ele>145.0</ele><time>2026-04-18T06:23:22.517Z</time></trkpt><trkpt lat="43.525102" lon="10.684728"><ele>145.0</ele><time>2026-04-18T06:23:24.509Z</time></trkpt><trkpt lat="43.5251727" lon="10.6847773"><ele>145.0</ele><time>2026-04-18T06:23:25.515Z</time></trkpt><trkpt lat="43.525242" lon="10.6848398"><ele>145.0</ele><time>2026-04-18T06:23:26.503Z</time></trkpt><trkpt lat="43.5252989" lon="10.684932"><ele>145.0</ele><time>2026-04-18T06:23:27.503Z</time></trkpt><trkpt lat="43.5253314" lon="10.6850671"><ele>145.0</ele><time>2026-04-18T06:23:28.508Z</time></trkpt><trkpt lat="43.525356" lon="10.6852333"><ele>145.0</ele><time>2026-04-18T06:23:29.498Z</time></trkpt><trkpt lat="43.5253685" lon="10.6854074"><ele>145.0</ele><time>2026-04-18T06:23:30.504Z</time></trkpt><trkpt lat="43.5254011" lon="10.6855818"><ele>146.0</ele><time>2026-04-18T06:23:31.499Z</time></trkpt><trkpt lat="43.5254388" lon="10.6857699"><ele>147.0</ele><time>2026-04-18T06:23:32.501Z</time></trkpt><trkpt lat="43.5254825" lon="10.6859123"><ele>148.0</ele><time>2026-04-18T06:23:33.505Z</time></trkpt><trkpt lat="43.525513" lon="10.6860819"><ele>149.0</ele><time>2026-04-18T06:23:34.505Z</time></trkpt><trkpt lat="43.5255335" lon="10.6862635"><ele>146.0</ele><time>2026-04-18T06:23:35.509Z</time></trkpt><trkpt lat="43.5255504" lon="10.6864618"><ele>143.0</ele><time>2026-04-18T06:23:36.504Z</time></trkpt><trkpt lat="43.5255582" lon="10.6866494"><ele>140.0</ele><time>2026-04-18T06:23:37.504Z</time></trkpt><trkpt lat="43.5255655" lon="10.6868345"><ele>137.0</ele><time>2026-04-18T06:23:38.505Z</time></trkpt><trkpt lat="43.5255448" lon="10.6870002"><ele>135.25</ele><time>2026-04-18T06:23:39.506Z</time></trkpt><trkpt lat="43.5254969" lon="10.6871728"><ele>133.5</ele><time>2026-04-18T06:23:40.502Z</time></trkpt><trkpt lat="43.5254348" lon="10.6873563"><ele>131.75</ele><time>2026-04-18T06:23:41.5Z</time></trkpt><trkpt lat="43.5253743" lon="10.687529"><ele>130.0</ele><time>2026-04-18T06:23:42.514Z</time></trkpt><trkpt lat="43.5253263" lon="10.687717"><ele>127.0</ele><time>2026-04-18T06:23:43.504Z</time></trkpt><trkpt lat="43.52528" lon="10.6879144"><ele>124.0</ele><time>2026-04-18T06:23:44.504Z</time></trkpt><trkpt lat="43.5252319" lon="10.6881067"><ele>121.0</ele><time>2026-04-18T06:23:45.502Z</time></trkpt><trkpt lat="43.5251875" lon="10.6883119"><ele>121.0</ele><time>2026-04-18T06:23:46.506Z</time></trkpt><trkpt lat="43.5251603" lon="10.688514"><ele>121.0</ele><time>2026-04-18T06:23:47.505Z</time></trkpt><trkpt lat="43.5251365" lon="10.6887267"><ele>121.0</ele><time>2026-04-18T06:23:48.503Z</time></trkpt><trkpt lat="43.5251135" lon="10.6889535"><ele>120.66666666666667</ele><time>2026-04-18T06:23:49.499Z</time></trkpt><trkpt lat="43.5250856" lon="10.6891644"><ele>120.33333333333334</ele><time>2026-04-18T06:23:50.503Z</time></trkpt><trkpt lat="43.5250531" lon="10.6893652"><ele>120.0</ele><time>2026-04-18T06:23:51.505Z</time></trkpt><trkpt lat="43.5250238" lon="10.6895612"><ele>120.0</ele><time>2026-04-18T06:23:52.5Z</time></trkpt><trkpt lat="43.525001" lon="10.6897474"><ele>120.0</ele><time>2026-04-18T06:23:53.5Z</time></trkpt><trkpt lat="43.5249779" lon="10.689944"><ele>120.0</ele><time>2026-04-18T06:23:54.504Z</time></trkpt><trkpt lat="43.5249795" lon="10.6901275"><ele>120.0</ele><time>2026-04-18T06:23:55.506Z</time></trkpt><trkpt lat="43.5250008" lon="10.6903395"><ele>118.66666666666666</ele><time>2026-04-18T06:23:56.505Z</time></trkpt><trkpt lat="43.5250373" lon="10.6905526"><ele>117.33333333333333</ele><time>2026-04-18T06:23:57.502Z</time></trkpt><trkpt lat="43.5250721" lon="10.6907768"><ele>116.0</ele><time>2026-04-18T06:23:58.505Z</time></trkpt><trkpt lat="43.525097" lon="10.6910011"><ele>114.0</ele><time>2026-04-18T06:23:59.497Z</time></trkpt><trkpt lat="43.5251292" lon="10.6912301"><ele>112.0</ele><time>2026-04-18T06:24:00.505Z</time></trkpt><trkpt lat="43.5251737" lon="10.6914446"><ele>110.0</ele><time>2026-04-18T06:24:01.504Z</time></trkpt><trkpt lat="43.5252324" lon="10.6916649"><ele>110.0</ele><time>2026-04-18T06:24:02.502Z</time></trkpt><trkpt lat="43.5252904" lon="10.6918679"><ele>110.0</ele><time>2026-04-18T06:24:03.506Z</time></trkpt><trkpt lat="43.5253367" lon="10.6920714"><ele>110.0</ele><time>2026-04-18T06:24:04.507Z</time></trkpt><trkpt lat="43.525368" lon="10.6922859"><ele>109.66666666666666</ele><time>2026-04-18T06:24:05.498Z</time></trkpt><trkpt lat="43.5253847" lon="10.6925035"><ele>109.33333333333334</ele><time>2026-04-18T06:24:06.519Z</time></trkpt><trkpt lat="43.5253988" lon="10.6927307"><ele>109.0</ele><time>2026-04-18T06:24:07.512Z</time></trkpt><trkpt lat="43.5254004" lon="10.6929292"><ele>109.0</ele><time>2026-04-18T06:24:08.506Z</time></trkpt><trkpt lat="43.5254037" lon="10.6931245"><ele>109.0</ele><time>2026-04-18T06:24:09.502Z</time></trkpt><trkpt lat="43.5254187" lon="10.6933131"><ele>109.0</ele><time>2026-04-18T06:24:10.507Z</time></trkpt><trkpt lat="43.5254603" lon="10.6934902"><ele>109.0</ele><time>2026-04-18T06:24:11.507Z</time></trkpt><trkpt lat="43.5255059" lon="10.6936757"><ele>108.33333333333334</ele><time>2026-04-18T06:24:12.507Z</time></trkpt><trkpt lat="43.5255923" lon="10.6938603"><ele>107.66666666666666</ele><time>2026-04-18T06:24:13.503Z</time></trkpt><trkpt lat="43.5256832" lon="10.6940386"><ele>107.0</ele><time>2026-04-18T06:24:14.503Z</time></trkpt><trkpt lat="43.5257672" lon="10.6942255"><ele>107.0</ele><time>2026-04-18T06:24:15.52Z</time></trkpt><trkpt lat="43.5258214" lon="10.6944172"><ele>107.0</ele><time>2026-04-18T06:24:16.512Z</time></trkpt><trkpt lat="43.5258259" lon="10.6946432"><ele>107.0</ele><time>2026-04-18T06:24:17.499Z</time></trkpt><trkpt lat="43.5258326" lon="10.6948477"><ele>106.5</ele><time>2026-04-18T06:24:18.506Z</time></trkpt><trkpt lat="43.5257951" lon="10.6950229"><ele>106.0</ele><time>2026-04-18T06:24:19.505Z</time></trkpt><trkpt lat="43.5257537" lon="10.6951758"><ele>105.5</ele><time>2026-04-18T06:24:20.511Z</time></trkpt><trkpt lat="43.5256779" lon="10.6952868"><ele>105.0</ele><time>2026-04-18T06:24:21.511Z</time></trkpt><trkpt lat="43.5256131" lon="10.6953931"><ele>104.0</ele><time>2026-04-18T06:24:22.508Z</time></trkpt><trkpt lat="43.525595" lon="10.6955119"><ele>103.0</ele><time>2026-04-18T06:24:23.507Z</time></trkpt><trkpt lat="43.5256164" lon="10.6956542"><ele>102.0</ele><time>2026-04-18T06:24:24.511Z</time></trkpt><trkpt lat="43.5256638" lon="10.6957938"><ele>101.0</ele><time>2026-04-18T06:24:25.502Z</time></trkpt><trkpt lat="43.5257012" lon="10.6959497"><ele>100.0</ele><time>2026-04-18T06:24:26.503Z</time></trkpt><trkpt lat="43.5257311" lon="10.6961315"><ele>98.75</ele><time>2026-04-18T06:24:27.506Z</time></trkpt><trkpt lat="43.5257365" lon="10.6963294"><ele>97.5</ele><time>2026-04-18T06:24:28.506Z</time></trkpt><trkpt lat="43.5257268" lon="10.6965117"><ele>96.25</ele><time>2026-04-18T06:24:29.501Z</time></trkpt><trkpt lat="43.5257074" lon="10.6967115"><ele>95.0</ele><time>2026-04-18T06:24:30.505Z</time></trkpt><trkpt lat="43.5256679" lon="10.6969078"><ele>94.5</ele><time>2026-04-18T06:24:31.493Z</time></trkpt><trkpt lat="43.525624" lon="10.6970928"><ele>94.0</ele><time>2026-04-18T06:24:32.513Z</time></trkpt><trkpt lat="43.5255549" lon="10.6972577"><ele>93.5</ele><time>2026-04-18T06:24:33.507Z</time></trkpt><trkpt lat="43.5254879" lon="10.697397"><ele>93.0</ele><time>2026-04-18T06:24:34.51Z</time></trkpt><trkpt lat="43.5254254" lon="10.6975374"><ele>92.0</ele><time>2026-04-18T06:24:35.523Z</time></trkpt><trkpt lat="43.5253816" lon="10.6976906"><ele>91.0</ele><time>2026-04-18T06:24:36.504Z</time></trkpt><trkpt lat="43.5253743" lon="10.6979019"><ele>90.0</ele><time>2026-04-18T06:24:37.506Z</time></trkpt><trkpt lat="43.5253855" lon="10.6980984"><ele>89.0</ele><time>2026-04-18T06:24:38.506Z</time></trkpt><trkpt lat="43.5254159" lon="10.6982783"><ele>89.0</ele><time>2026-04-18T06:24:39.505Z</time></trkpt><trkpt lat="43.5254683" lon="10.6984713"><ele>89.0</ele><time>2026-04-18T06:24:40.51Z</time></trkpt><trkpt lat="43.5254931" lon="10.6986602"><ele>89.0</ele><time>2026-04-18T06:24:41.507Z</time></trkpt><trkpt lat="43.5255167" lon="10.6988572"><ele>89.0</ele><time>2026-04-18T06:24:42.51Z</time></trkpt><trkpt lat="43.5255056" lon="10.6990627"><ele>88.25</ele><time>2026-04-18T06:24:43.507Z</time></trkpt><trkpt lat="43.5254577" lon="10.6992392"><ele>87.5</ele><time>2026-04-18T06:24:44.508Z</time></trkpt><trkpt lat="43.5253651" lon="10.6993562"><ele>86.75</ele><time>2026-04-18T06:24:45.506Z</time></trkpt><trkpt lat="43.5253001" lon="10.6994733"><ele>86.0</ele><time>2026-04-18T06:24:46.502Z</time></trkpt><trkpt lat="43.5252624" lon="10.699599"><ele>82.0</ele><time>2026-04-18T06:24:47.508Z</time></trkpt><trkpt lat="43.5252559" lon="10.6997232"><ele>78.0</ele><time>2026-04-18T06:24:48.492Z</time></trkpt><trkpt lat="43.5252825" lon="10.6998608"><ele>74.0</ele><time>2026-04-18T06:24:49.521Z</time></trkpt><trkpt lat="43.525334" lon="10.6999995"><ele>70.0</ele><time>2026-04-18T06:24:50.508Z</time></trkpt><trkpt lat="43.5253884" lon="10.7001689"><ele>66.0</ele><time>2026-04-18T06:24:51.502Z</time></trkpt><trkpt lat="43.5254676" lon="10.7003589"><ele>66.0</ele><time>2026-04-18T06:24:52.5Z</time></trkpt><trkpt lat="43.5255478" lon="10.700564"><ele>66.0</ele><time>2026-04-18T06:24:53.5Z</time></trkpt><trkpt lat="43.5256196" lon="10.7007534"><ele>66.0</ele><time>2026-04-18T06:24:54.502Z</time></trkpt><trkpt lat="43.5256595" lon="10.7009663"><ele>64.0</ele><time>2026-04-18T06:24:55.499Z</time></trkpt><trkpt lat="43.5256915" lon="10.7011785"><ele>62.0</ele><time>2026-04-18T06:24:56.5Z</time></trkpt><trkpt lat="43.525702" lon="10.7013867"><ele>60.0</ele><time>2026-04-18T06:24:57.5Z</time></trkpt><trkpt lat="43.5257094" lon="10.7016048"><ele>60.0</ele><time>2026-04-18T06:24:58.496Z</time></trkpt><trkpt lat="43.5257199" lon="10.7017836"><ele>60.0</ele><time>2026-04-18T06:24:59.499Z</time></trkpt><trkpt lat="43.5257366" lon="10.7019405"><ele>60.0</ele><time>2026-04-18T06:25:00.503Z</time></trkpt><trkpt lat="43.5257733" lon="10.7021053"><ele>60.0</ele><time>2026-04-18T06:25:01.515Z</time></trkpt><trkpt lat="43.5258136" lon="10.7022572"><ele>59.5</ele><time>2026-04-18T06:25:02.506Z</time></trkpt><trkpt lat="43.5258569" lon="10.7023907"><ele>59.0</ele><time>2026-04-18T06:25:03.499Z</time></trkpt><trkpt lat="43.5258887" lon="10.7025054"><ele>58.5</ele><time>2026-04-18T06:25:04.501Z</time></trkpt><trkpt lat="43.5259114" lon="10.7026062"><ele>58.0</ele><time>2026-04-18T06:25:05.504Z</time></trkpt><trkpt lat="43.5259482" lon="10.7026861"><ele>57.5</ele><time>2026-04-18T06:25:10.503Z</time></trkpt><trkpt lat="43.5260471" lon="10.7026918"><ele>57.0</ele><time>2026-04-18T06:25:12.509Z</time></trkpt><trkpt lat="43.526173" lon="10.7026078"><ele>56.8</ele><time>2026-04-18T06:25:14.501Z</time></trkpt><trkpt lat="43.5262487" lon="10.70253"><ele>56.6</ele><time>2026-04-18T06:25:15.508Z</time></trkpt><trkpt lat="43.5263286" lon="10.702455"><ele>56.39999999999999</ele><time>2026-04-18T06:25:16.51Z</time></trkpt><trkpt lat="43.5264249" lon="10.7023943"><ele>56.199999999999996</ele><time>2026-04-18T06:25:17.517Z</time></trkpt><trkpt lat="43.5265429" lon="10.7023433"><ele>56.0</ele><time>2026-04-18T06:25:18.51Z</time></trkpt><trkpt lat="43.5266793" lon="10.7023128"><ele>56.0</ele><time>2026-04-18T06:25:19.505Z</time></trkpt><trkpt lat="43.5268371" lon="10.7022957"><ele>56.0</ele><time>2026-04-18T06:25:20.507Z</time></trkpt><trkpt lat="43.527007" lon="10.7022872"><ele>56.0</ele><time>2026-04-18T06:25:21.515Z</time></trkpt><trkpt lat="43.5271731" lon="10.7022905"><ele>56.0</ele><time>2026-04-18T06:25:22.502Z</time></trkpt><trkpt lat="43.5273426" lon="10.7022816"><ele>56.0</ele><time>2026-04-18T06:25:23.509Z</time></trkpt><trkpt lat="43.5275245" lon="10.7022709"><ele>56.0</ele><time>2026-04-18T06:25:24.507Z</time></trkpt><trkpt lat="43.5277047" lon="10.7022641"><ele>56.0</ele><time>2026-04-18T06:25:25.507Z</time></trkpt><trkpt lat="43.527887" lon="10.7022586"><ele>56.0</ele><time>2026-04-18T06:25:26.506Z</time></trkpt><trkpt lat="43.5280724" lon="10.7022488"><ele>56.0</ele><time>2026-04-18T06:25:27.505Z</time></trkpt><trkpt lat="43.5282637" lon="10.7022444"><ele>55.66666666666667</ele><time>2026-04-18T06:25:28.503Z</time></trkpt><trkpt lat="43.5284576" lon="10.7022342"><ele>55.33333333333333</ele><time>2026-04-18T06:25:29.505Z</time></trkpt><trkpt lat="43.5286501" lon="10.7022327"><ele>55.0</ele><time>2026-04-18T06:25:30.5Z</time></trkpt><trkpt lat="43.5288415" lon="10.7022305"><ele>55.0</ele><time>2026-04-18T06:25:31.505Z</time></trkpt><trkpt lat="43.5290338" lon="10.7022213"><ele>55.0</ele><time>2026-04-18T06:25:32.515Z</time></trkpt><trkpt lat="43.5292247" lon="10.702201"><ele>55.0</ele><time>2026-04-18T06:25:33.51Z</time></trkpt><trkpt lat="43.5294237" lon="10.702176"><ele>54.666666666666664</ele><time>2026-04-18T06:25:34.508Z</time></trkpt><trkpt lat="43.5296157" lon="10.7021582"><ele>54.33333333333333</ele><time>2026-04-18T06:25:35.517Z</time></trkpt><trkpt lat="43.529819" lon="10.7021354"><ele>54.0</ele><time>2026-04-18T06:25:36.508Z</time></trkpt><trkpt lat="43.5300183" lon="10.7020987"><ele>54.0</ele><time>2026-04-18T06:25:37.515Z</time></trkpt><trkpt lat="43.5302238" lon="10.7020728"><ele>54.0</ele><time>2026-04-18T06:25:38.505Z</time></trkpt><trkpt lat="43.5304307" lon="10.7020339"><ele>54.0</ele><time>2026-04-18T06:25:39.516Z</time></trkpt><trkpt lat="43.5306349" lon="10.7020046"><ele>54.33333333333333</ele><time>2026-04-18T06:25:40.511Z</time></trkpt><trkpt lat="43.530846" lon="10.70197"><ele>54.666666666666664</ele><time>2026-04-18T06:25:41.503Z</time></trkpt><trkpt lat="43.5310581" lon="10.7019422"><ele>55.0</ele><time>2026-04-18T06:25:42.507Z</time></trkpt><trkpt lat="43.5312572" lon="10.7019227"><ele>55.0</ele><time>2026-04-18T06:25:43.504Z</time></trkpt><trkpt lat="43.531457" lon="10.7018805"><ele>55.0</ele><time>2026-04-18T06:25:44.499Z</time></trkpt><trkpt lat="43.5316463" lon="10.7018381"><ele>55.0</ele><time>2026-04-18T06:25:45.509Z</time></trkpt><trkpt lat="43.5318445" lon="10.7018072"><ele>55.0</ele><time>2026-04-18T06:25:46.505Z</time></trkpt><trkpt lat="43.5320251" lon="10.7017802"><ele>55.0</ele><time>2026-04-18T06:25:47.511Z</time></trkpt><trkpt lat="43.5322009" lon="10.7017509"><ele>55.0</ele><time>2026-04-18T06:25:48.507Z</time></trkpt><trkpt lat="43.5323567" lon="10.7017175"><ele>55.0</ele><time>2026-04-18T06:25:49.507Z</time></trkpt><trkpt lat="43.5325047" lon="10.7016913"><ele>55.0</ele><time>2026-04-18T06:25:50.506Z</time></trkpt><trkpt lat="43.5326456" lon="10.7016652"><ele>55.0</ele><time>2026-04-18T06:25:51.508Z</time></trkpt><trkpt lat="43.5327785" lon="10.7016382"><ele>55.0</ele><time>2026-04-18T06:25:52.504Z</time></trkpt><trkpt lat="43.5328959" lon="10.7016019"><ele>55.25</ele><time>2026-04-18T06:25:53.513Z</time></trkpt><trkpt lat="43.5330121" lon="10.7015721"><ele>55.5</ele><time>2026-04-18T06:25:54.506Z</time></trkpt><trkpt lat="43.533133" lon="10.7015287"><ele>55.75</ele><time>2026-04-18T06:25:55.504Z</time></trkpt><trkpt lat="43.5332689" lon="10.7014769"><ele>56.0</ele><time>2026-04-18T06:25:56.508Z</time></trkpt><trkpt lat="43.5334213" lon="10.7014433"><ele>56.0</ele><time>2026-04-18T06:25:57.512Z</time></trkpt><trkpt lat="43.5335933" lon="10.7014225"><ele>56.0</ele><time>2026-04-18T06:25:58.512Z</time></trkpt><trkpt lat="43.53376" lon="10.7013997"><ele>56.0</ele><time>2026-04-18T06:25:59.504Z</time></trkpt><trkpt lat="43.5339363" lon="10.7013605"><ele>56.66666666666667</ele><time>2026-04-18T06:26:00.506Z</time></trkpt><trkpt lat="43.5341056" lon="10.7013292"><ele>57.33333333333333</ele><time>2026-04-18T06:26:01.507Z</time></trkpt><trkpt lat="43.5342842" lon="10.70129"><ele>58.0</ele><time>2026-04-18T06:26:02.508Z</time></trkpt><trkpt lat="43.5344723" lon="10.7012588"><ele>57.33333333333333</ele><time>2026-04-18T06:26:03.508Z</time></trkpt><trkpt lat="43.5346587" lon="10.7012277"><ele>56.66666666666667</ele><time>2026-04-18T06:26:04.5Z</time></trkpt><trkpt lat="43.5348484" lon="10.7011972"><ele>56.0</ele><time>2026-04-18T06:26:05.5Z</time></trkpt><trkpt lat="43.5350348" lon="10.7011616"><ele>56.0</ele><time>2026-04-18T06:26:06.506Z</time></trkpt><trkpt lat="43.5352244" lon="10.7011289"><ele>56.0</ele><time>2026-04-18T06:26:07.506Z</time></trkpt><trkpt lat="43.535417" lon="10.7010898"><ele>56.0</ele><time>2026-04-18T06:26:08.505Z</time></trkpt><trkpt lat="43.535608" lon="10.7010483"><ele>56.333333333333336</ele><time>2026-04-18T06:26:09.511Z</time></trkpt><trkpt lat="43.5357927" lon="10.7010117"><ele>56.66666666666667</ele><time>2026-04-18T06:26:10.506Z</time></trkpt><trkpt lat="43.5359901" lon="10.7009686"><ele>57.0</ele><time>2026-04-18T06:26:11.512Z</time></trkpt><trkpt lat="43.5361858" lon="10.7009282"><ele>56.33333333333333</ele><time>2026-04-18T06:26:12.512Z</time></trkpt><trkpt lat="43.5363786" lon="10.7008835"><ele>55.666666666666664</ele><time>2026-04-18T06:26:13.508Z</time></trkpt><trkpt lat="43.5365836" lon="10.7008326"><ele>55.0</ele><time>2026-04-18T06:26:14.503Z</time></trkpt><trkpt lat="43.5367803" lon="10.7007871"><ele>55.0</ele><time>2026-04-18T06:26:15.5Z</time></trkpt><trkpt lat="43.5369726" lon="10.7007496"><ele>55.0</ele><time>2026-04-18T06:26:16.503Z</time></trkpt><trkpt lat="43.5371472" lon="10.7007161"><ele>55.0</ele><time>2026-04-18T06:26:17.51Z</time></trkpt><trkpt lat="43.537313" lon="10.7006836"><ele>55.666666666666664</ele><time>2026-04-18T06:26:18.51Z</time></trkpt><trkpt lat="43.5374734" lon="10.7006549"><ele>56.33333333333333</ele><time>2026-04-18T06:26:19.518Z</time></trkpt><trkpt lat="43.5376392" lon="10.7006193"><ele>57.0</ele><time>2026-04-18T06:26:20.507Z</time></trkpt><trkpt lat="43.5377962" lon="10.7005969"><ele>57.0</ele><time>2026-04-18T06:26:21.533Z</time></trkpt><trkpt lat="43.537952" lon="10.7005766"><ele>57.0</ele><time>2026-04-18T06:26:22.508Z</time></trkpt><trkpt lat="43.5381043" lon="10.7005531"><ele>57.0</ele><time>2026-04-18T06:26:23.501Z</time></trkpt><trkpt lat="43.5382517" lon="10.7005388"><ele>57.0</ele><time>2026-04-18T06:26:24.51Z</time></trkpt><trkpt lat="43.5384004" lon="10.7005155"><ele>57.0</ele><time>2026-04-18T06:26:25.504Z</time></trkpt><trkpt lat="43.5385485" lon="10.7005019"><ele>57.0</ele><time>2026-04-18T06:26:26.504Z</time></trkpt><trkpt lat="43.5386899" lon="10.7004835"><ele>57.0</ele><time>2026-04-18T06:26:27.505Z</time></trkpt><trkpt lat="43.5388457" lon="10.7004688"><ele>56.75</ele><time>2026-04-18T06:26:28.507Z</time></trkpt><trkpt lat="43.5389895" lon="10.7004486"><ele>56.5</ele><time>2026-04-18T06:26:29.513Z</time></trkpt><trkpt lat="43.5391225" lon="10.7004321"><ele>56.25</ele><time>2026-04-18T06:26:30.498Z</time></trkpt><trkpt lat="43.5392451" lon="10.7004251"><ele>56.0</ele><time>2026-04-18T06:26:31.498Z</time></trkpt><trkpt lat="43.5393586" lon="10.700413"><ele>56.0</ele><time>2026-04-18T06:26:32.497Z</time></trkpt><trkpt lat="43.539465" lon="10.7003899"><ele>55.99999999999999</ele><time>2026-04-18T06:26:33.506Z</time></trkpt><trkpt lat="43.5395643" lon="10.7003792"><ele>55.99999999999999</ele><time>2026-04-18T06:26:34.503Z</time></trkpt><trkpt lat="43.5396516" lon="10.70037"><ele>56.0</ele><time>2026-04-18T06:26:35.498Z</time></trkpt><trkpt lat="43.5397353" lon="10.7003634"><ele>56.0</ele><time>2026-04-18T06:26:36.5Z</time></trkpt><trkpt lat="43.5398099" lon="10.7003542"><ele>56.199999999999996</ele><time>2026-04-18T06:26:37.507Z</time></trkpt><trkpt lat="43.5399003" lon="10.7003297"><ele>56.39999999999999</ele><time>2026-04-18T06:26:39.508Z</time></trkpt><trkpt lat="43.5399039" lon="10.7002317"><ele>56.6</ele><time>2026-04-18T06:26:41.51Z</time></trkpt><trkpt lat="43.5398146" lon="10.7001558"><ele>56.8</ele><time>2026-04-18T06:26:43.503Z</time></trkpt><trkpt lat="43.5396729" lon="10.7001425"><ele>57.0</ele><time>2026-04-18T06:26:45.506Z</time></trkpt><trkpt lat="43.5395927" lon="10.7001594"><ele>57.0</ele><time>2026-04-18T06:26:46.502Z</time></trkpt><trkpt lat="43.5395162" lon="10.7001881"><ele>57.0</ele><time>2026-04-18T06:26:47.505Z</time></trkpt><trkpt lat="43.5394475" lon="10.7002218"><ele>57.0</ele><time>2026-04-18T06:26:48.508Z</time></trkpt><trkpt lat="43.5393625" lon="10.7003069"><ele>57.0</ele><time>2026-04-18T06:26:50.499Z</time></trkpt><trkpt lat="43.5392419" lon="10.7003658"><ele>57.0</ele><time>2026-04-18T06:26:52.504Z</time></trkpt><trkpt lat="43.5391434" lon="10.7003889"><ele>57.0</ele><time>2026-04-18T06:26:53.504Z</time></trkpt><trkpt lat="43.5390241" lon="10.7003853"><ele>57.0</ele><time>2026-04-18T06:26:54.526Z</time></trkpt><trkpt lat="43.5388974" lon="10.7004038"><ele>57.0</ele><time>2026-04-18T06:26:55.508Z</time></trkpt><trkpt lat="43.5387685" lon="10.7004187"><ele>57.0</ele><time>2026-04-18T06:26:56.506Z</time></trkpt><trkpt lat="43.5386459" lon="10.7004324"><ele>57.0</ele><time>2026-04-18T06:26:57.503Z</time></trkpt><trkpt lat="43.5385258" lon="10.7004442"><ele>57.0</ele><time>2026-04-18T06:26:58.51Z</time></trkpt><trkpt lat="43.538388" lon="10.7004676"><ele>57.0</ele><time>2026-04-18T06:26:59.506Z</time></trkpt><trkpt lat="43.538248" lon="10.7004885"><ele>57.0</ele><time>2026-04-18T06:27:00.517Z</time></trkpt><trkpt lat="43.5380981" lon="10.700515"><ele>57.0</ele><time>2026-04-18T06:27:01.505Z</time></trkpt><trkpt lat="43.5379321" lon="10.7005357"><ele>57.0</ele><time>2026-04-18T06:27:02.496Z</time></trkpt><trkpt lat="43.5377775" lon="10.700557"><ele>57.0</ele><time>2026-04-18T06:27:03.492Z</time></trkpt><trkpt lat="43.5376439" lon="10.7005834"><ele>57.0</ele><time>2026-04-18T06:27:04.499Z</time></trkpt><trkpt lat="43.5375363" lon="10.7006066"><ele>57.0</ele><time>2026-04-18T06:27:05.5Z</time></trkpt><trkpt lat="43.5374596" lon="10.700637"><ele>57.0</ele><time>2026-04-18T06:27:06.504Z</time></trkpt><trkpt lat="43.5373982" lon="10.700658"><ele>57.0</ele><time>2026-04-18T06:27:08.509Z</time></trkpt><trkpt lat="43.5373739" lon="10.7007512"><ele>57.0</ele><time>2026-04-18T06:27:16.503Z</time></trkpt><trkpt lat="43.5373825" lon="10.7009306"><ele>57.0</ele><time>2026-04-18T06:27:18.507Z</time></trkpt><trkpt lat="43.5374002" lon="10.7010524"><ele>57.0</ele><time>2026-04-18T06:27:19.508Z</time></trkpt><trkpt lat="43.5374287" lon="10.7011552"><ele>57.0</ele><time>2026-04-18T06:27:20.508Z</time></trkpt><trkpt lat="43.5374477" lon="10.7012666"><ele>57.0</ele><time>2026-04-18T06:27:21.506Z</time></trkpt><trkpt lat="43.5374682" lon="10.701382"><ele>57.0</ele><time>2026-04-18T06:27:22.507Z</time></trkpt><trkpt lat="43.5374814" lon="10.7015075"><ele>57.0</ele><time>2026-04-18T06:27:23.512Z</time></trkpt><trkpt lat="43.5375048" lon="10.7016072"><ele>56.857142857142854</ele><time>2026-04-18T06:27:24.514Z</time></trkpt><trkpt lat="43.5375177" lon="10.7017036"><ele>56.71428571428571</ele><time>2026-04-18T06:27:25.508Z</time></trkpt><trkpt lat="43.5375318" lon="10.7018038"><ele>56.57142857142857</ele><time>2026-04-18T06:27:26.521Z</time></trkpt><trkpt lat="43.537551" lon="10.7019027"><ele>56.42857142857143</ele><time>2026-04-18T06:27:27.509Z</time></trkpt><trkpt lat="43.5375713" lon="10.7020034"><ele>56.285714285714285</ele><time>2026-04-18T06:27:28.518Z</time></trkpt><trkpt lat="43.5375842" lon="10.7021096"><ele>56.14285714285714</ele><time>2026-04-18T06:27:29.501Z</time></trkpt><trkpt lat="43.5375903" lon="10.7022099"><ele>56.0</ele><time>2026-04-18T06:27:30.497Z</time></trkpt><trkpt lat="43.5375974" lon="10.7023028"><ele>55.50000000000001</ele><time>2026-04-18T06:27:31.509Z</time></trkpt><trkpt lat="43.5376093" lon="10.7023948"><ele>55.0</ele><time>2026-04-18T06:27:32.503Z</time></trkpt><trkpt lat="43.537626" lon="10.7024816"><ele>54.5</ele><time>2026-04-18T06:27:33.542Z</time></trkpt><trkpt lat="43.5376679" lon="10.7025597"><ele>54.0</ele><time>2026-04-18T06:27:34.505Z</time></trkpt><trkpt lat="43.5377253" lon="10.7026328"><ele>53.50000000000001</ele><time>2026-04-18T06:27:35.502Z</time></trkpt><trkpt lat="43.5378047" lon="10.7026955"><ele>53.0</ele><time>2026-04-18T06:27:36.495Z</time></trkpt><trkpt lat="43.5378844" lon="10.7027643"><ele>52.8</ele><time>2026-04-18T06:27:37.504Z</time></trkpt><trkpt lat="43.5379602" lon="10.7028404"><ele>52.599999999999994</ele><time>2026-04-18T06:27:38.504Z</time></trkpt><trkpt lat="43.5380439" lon="10.7029135"><ele>52.400000000000006</ele><time>2026-04-18T06:27:39.502Z</time></trkpt><trkpt lat="43.5381335" lon="10.7030006"><ele>52.2</ele><time>2026-04-18T06:27:40.517Z</time></trkpt><trkpt lat="43.5382191" lon="10.7030749"><ele>52.0</ele><time>2026-04-18T06:27:41.514Z</time></trkpt><trkpt lat="43.5383075" lon="10.7031586"><ele>51.99999999999999</ele><time>2026-04-18T06:27:42.51Z</time></trkpt><trkpt lat="43.5383915" lon="10.7032329"><ele>52.0</ele><time>2026-04-18T06:27:43.535Z</time></trkpt><trkpt lat="43.5384701" lon="10.7032945"><ele>52.0</ele><time>2026-04-18T06:27:44.496Z</time></trkpt><trkpt lat="43.5385415" lon="10.7033603"><ele>52.0</ele><time>2026-04-18T06:27:45.495Z</time></trkpt><trkpt lat="43.5386022" lon="10.7034397"><ele>51.99999999999999</ele><time>2026-04-18T06:27:46.516Z</time></trkpt><trkpt lat="43.5386257" lon="10.7035275"><ele>52.0</ele><time>2026-04-18T06:27:47.529Z</time></trkpt><trkpt lat="43.5386253" lon="10.7036379"><ele>51.6</ele><time>2026-04-18T06:27:48.512Z</time></trkpt><trkpt lat="43.5386141" lon="10.7037619"><ele>51.2</ele><time>2026-04-18T06:27:49.503Z</time></trkpt><trkpt lat="43.5386143" lon="10.7038897"><ele>50.8</ele><time>2026-04-18T06:27:50.49Z</time></trkpt><trkpt lat="43.5386515" lon="10.7040353"><ele>50.4</ele><time>2026-04-18T06:27:51.508Z</time></trkpt><trkpt lat="43.538699" lon="10.7041598"><ele>50.0</ele><time>2026-04-18T06:27:52.508Z</time></trkpt><trkpt lat="43.538773" lon="10.7042767"><ele>50.0</ele><time>2026-04-18T06:27:53.508Z</time></trkpt><trkpt lat="43.5388482" lon="10.7043705"><ele>50.0</ele><time>2026-04-18T06:27:54.514Z</time></trkpt><trkpt lat="43.5389298" lon="10.7044586"><ele>50.0</ele><time>2026-04-18T06:27:55.509Z</time></trkpt><trkpt lat="43.5389979" lon="10.7045477"><ele>50.0</ele><time>2026-04-18T06:27:56.519Z</time></trkpt><trkpt lat="43.5390532" lon="10.7046394"><ele>50.0</ele><time>2026-04-18T06:27:57.51Z</time></trkpt><trkpt lat="43.5390787" lon="10.7047354"><ele>50.0</ele><time>2026-04-18T06:27:58.506Z</time></trkpt><trkpt lat="43.5390916" lon="10.7048393"><ele>50.0</ele><time>2026-04-18T06:27:59.505Z</time></trkpt><trkpt lat="43.5390805" lon="10.7049814"><ele>50.0</ele><time>2026-04-18T06:28:00.503Z</time></trkpt><trkpt lat="43.5390652" lon="10.705161"><ele>50.0</ele><time>2026-04-18T06:28:01.528Z</time></trkpt><trkpt lat="43.5390567" lon="10.7053328"><ele>50.0</ele><time>2026-04-18T06:28:02.504Z</time></trkpt><trkpt lat="43.5390437" lon="10.7054998"><ele>50.0</ele><time>2026-04-18T06:28:03.508Z</time></trkpt><trkpt lat="43.5390276" lon="10.7056251"><ele>50.0</ele><time>2026-04-18T06:28:04.499Z</time></trkpt><trkpt lat="43.5390207" lon="10.7057428"><ele>50.0</ele><time>2026-04-18T06:28:05.515Z</time></trkpt><trkpt lat="43.5390163" lon="10.7058354"><ele>50.0</ele><time>2026-04-18T06:28:06.498Z</time></trkpt><trkpt lat="43.5390353" lon="10.706018"><ele>50.0</ele><time>2026-04-18T06:28:08.507Z</time></trkpt><trkpt lat="43.5390359" lon="10.7061382"><ele>49.8</ele><time>2026-04-18T06:28:09.508Z</time></trkpt><trkpt lat="43.5390421" lon="10.7062597"><ele>49.6</ele><time>2026-04-18T06:28:10.507Z</time></trkpt><trkpt lat="43.5390413" lon="10.7063971"><ele>49.400000000000006</ele><time>2026-04-18T06:28:11.513Z</time></trkpt><trkpt lat="43.5390426" lon="10.7065146"><ele>49.2</ele><time>2026-04-18T06:28:12.509Z</time></trkpt><trkpt lat="43.5390506" lon="10.7066475"><ele>49.0</ele><time>2026-04-18T06:28:13.545Z</time></trkpt><trkpt lat="43.5390587" lon="10.7067791"><ele>48.99999999999999</ele><time>2026-04-18T06:28:14.504Z</time></trkpt><trkpt lat="43.5390625" lon="10.7069"><ele>49.0</ele><time>2026-04-18T06:28:15.502Z</time></trkpt><trkpt lat="43.539066" lon="10.7070051"><ele>49.0</ele><time>2026-04-18T06:28:16.505Z</time></trkpt><trkpt lat="43.5390727" lon="10.7070948"><ele>49.0</ele><time>2026-04-18T06:28:17.501Z</time></trkpt><trkpt lat="43.5390763" lon="10.7072424"><ele>48.99999999999999</ele><time>2026-04-18T06:28:19.51Z</time></trkpt><trkpt lat="43.5390669" lon="10.7073745"><ele>49.0</ele><time>2026-04-18T06:28:21.511Z</time></trkpt><trkpt lat="43.5390403" lon="10.7074883"><ele>49.0</ele><time>2026-04-18T06:28:23.502Z</time></trkpt><trkpt lat="43.5389751" lon="10.7075664"><ele>49.0</ele><time>2026-04-18T06:28:25.507Z</time></trkpt><trkpt lat="43.5388946" lon="10.7076312"><ele>49.0</ele><time>2026-04-18T06:28:27.506Z</time></trkpt><trkpt lat="43.5388721" lon="10.7077508"><ele>49.0</ele><time>2026-04-18T06:28:29.519Z</time></trkpt><trkpt lat="43.5389092" lon="10.7079048"><ele>49.0</ele><time>2026-04-18T06:28:31.503Z</time></trkpt><trkpt lat="43.5389606" lon="10.7080419"><ele>49.0</ele><time>2026-04-18T06:28:33.505Z</time></trkpt><trkpt lat="43.5389794" lon="10.7081302"><ele>49.0</ele><time>2026-04-18T06:28:46.505Z</time></trkpt><trkpt lat="43.5390353" lon="10.708264"><ele>49.0</ele><time>2026-04-18T06:28:49.505Z</time></trkpt><trkpt lat="43.5391034" lon="10.7083973"><ele>49.0</ele><time>2026-04-18T06:28:51.506Z</time></trkpt><trkpt lat="43.5391448" lon="10.7084913"><ele>49.0</ele><time>2026-04-18T06:28:52.507Z</time></trkpt><trkpt lat="43.5391921" lon="10.7085956"><ele>49.0</ele><time>2026-04-18T06:28:53.51Z</time></trkpt><trkpt lat="43.5392388" lon="10.7087037"><ele>49.0</ele><time>2026-04-18T06:28:54.505Z</time></trkpt><trkpt lat="43.5392841" lon="10.7088003"><ele>49.0</ele><time>2026-04-18T06:28:55.495Z</time></trkpt><trkpt lat="43.5393382" lon="10.7088995"><ele>49.0</ele><time>2026-04-18T06:28:56.509Z</time></trkpt><trkpt lat="43.5393944" lon="10.7089933"><ele>49.0</ele><time>2026-04-18T06:28:57.514Z</time></trkpt><trkpt lat="43.5394638" lon="10.7090899"><ele>49.0</ele><time>2026-04-18T06:28:58.51Z</time></trkpt><trkpt lat="43.539536" lon="10.7091893"><ele>49.0</ele><time>2026-04-18T06:28:59.494Z</time></trkpt><trkpt lat="43.5396036" lon="10.7092701"><ele>49.0</ele><time>2026-04-18T06:29:00.502Z</time></trkpt><trkpt lat="43.5396649" lon="10.7093465"><ele>49.0</ele><time>2026-04-18T06:29:01.502Z</time></trkpt><trkpt lat="43.5397417" lon="10.7094598"><ele>49.0</ele><time>2026-04-18T06:29:03.509Z</time></trkpt><trkpt lat="43.5397824" lon="10.7095913"><ele>49.0</ele><time>2026-04-18T06:29:05.503Z</time></trkpt><trkpt lat="43.5397884" lon="10.709725"><ele>49.0</ele><time>2026-04-18T06:29:07.498Z</time></trkpt><trkpt lat="43.5398002" lon="10.7098959"><ele>49.0</ele><time>2026-04-18T06:29:09.519Z</time></trkpt><trkpt lat="43.5398419" lon="10.7100485"><ele>49.0</ele><time>2026-04-18T06:29:11.523Z</time></trkpt><trkpt lat="43.5398614" lon="10.7101347"><ele>49.0</ele><time>2026-04-18T06:29:12.502Z</time></trkpt><trkpt lat="43.5398765" lon="10.7102243"><ele>48.2</ele><time>2026-04-18T06:29:13.507Z</time></trkpt><trkpt lat="43.5399139" lon="10.710375"><ele>47.400000000000006</ele><time>2026-04-18T06:29:15.507Z</time></trkpt><trkpt lat="43.5399448" lon="10.7104876"><ele>46.6</ele><time>2026-04-18T06:29:17.507Z</time></trkpt><trkpt lat="43.5399738" lon="10.7105985"><ele>45.8</ele><time>2026-04-18T06:29:19.509Z</time></trkpt><trkpt lat="43.540014" lon="10.7107504"><ele>45.0</ele><time>2026-04-18T06:29:21.496Z</time></trkpt><trkpt lat="43.540036" lon="10.7108443"><ele>45.0</ele><time>2026-04-18T06:29:22.507Z</time></trkpt><trkpt lat="43.5400531" lon="10.7109423"><ele>45.0</ele><time>2026-04-18T06:29:23.503Z</time></trkpt><trkpt lat="43.5400826" lon="10.7110361"><ele>45.0</ele><time>2026-04-18T06:29:24.51Z</time></trkpt><trkpt lat="43.5401157" lon="10.7111397"><ele>45.0</ele><time>2026-04-18T06:29:25.508Z</time></trkpt><trkpt lat="43.5401565" lon="10.7112351"><ele>45.0</ele><time>2026-04-18T06:29:26.511Z</time></trkpt><trkpt lat="43.5402139" lon="10.7113319"><ele>45.0</ele><time>2026-04-18T06:29:27.509Z</time></trkpt><trkpt lat="43.5402801" lon="10.711418"><ele>44.8</ele><time>2026-04-18T06:29:28.514Z</time></trkpt><trkpt lat="43.5403499" lon="10.7115139"><ele>44.6</ele><time>2026-04-18T06:29:29.515Z</time></trkpt><trkpt lat="43.5404315" lon="10.7116008"><ele>44.400000000000006</ele><time>2026-04-18T06:29:30.507Z</time></trkpt><trkpt lat="43.5405031" lon="10.7117"><ele>44.2</ele><time>2026-04-18T06:29:31.513Z</time></trkpt><trkpt lat="43.5405747" lon="10.7117867"><ele>44.0</ele><time>2026-04-18T06:29:32.508Z</time></trkpt><trkpt lat="43.5406477" lon="10.7118543"><ele>43.800000000000004</ele><time>2026-04-18T06:29:33.535Z</time></trkpt><trkpt lat="43.5407301" lon="10.711906"><ele>43.6</ele><time>2026-04-18T06:29:34.509Z</time></trkpt><trkpt lat="43.5408265" lon="10.7119172"><ele>43.4</ele><time>2026-04-18T06:29:35.507Z</time></trkpt><trkpt lat="43.5409431" lon="10.7119088"><ele>43.2</ele><time>2026-04-18T06:29:36.506Z</time></trkpt><trkpt lat="43.5410707" lon="10.7119187"><ele>43.0</ele><time>2026-04-18T06:29:37.507Z</time></trkpt><trkpt lat="43.5412145" lon="10.71192"><ele>43.0</ele><time>2026-04-18T06:29:38.516Z</time></trkpt><trkpt lat="43.5413621" lon="10.7119184"><ele>43.0</ele><time>2026-04-18T06:29:39.509Z</time></trkpt><trkpt lat="43.5415082" lon="10.7119255"><ele>43.0</ele><time>2026-04-18T06:29:40.518Z</time></trkpt><trkpt lat="43.541632" lon="10.7119296"><ele>43.0</ele><time>2026-04-18T06:29:41.509Z</time></trkpt><trkpt lat="43.5417204" lon="10.7119246"><ele>42.66666666666667</ele><time>2026-04-18T06:29:42.506Z</time></trkpt><trkpt lat="43.5417822" lon="10.7119059"><ele>42.333333333333336</ele><time>2026-04-18T06:29:43.501Z</time></trkpt><trkpt lat="43.5418367" lon="10.7117805"><ele>42.0</ele><time>2026-04-18T06:29:45.514Z</time></trkpt><trkpt lat="43.5418161" lon="10.7116816"><ele>41.666666666666664</ele><time>2026-04-18T06:29:46.505Z</time></trkpt><trkpt lat="43.5417909" lon="10.711564"><ele>41.33333333333333</ele><time>2026-04-18T06:29:47.508Z</time></trkpt><trkpt lat="43.54177" lon="10.7114532"><ele>41.0</ele><time>2026-04-18T06:29:48.505Z</time></trkpt><trkpt lat="43.541747" lon="10.7113344"><ele>41.0</ele><time>2026-04-18T06:29:49.519Z</time></trkpt><trkpt lat="43.541729" lon="10.7112243"><ele>41.0</ele><time>2026-04-18T06:29:50.504Z</time></trkpt><trkpt lat="43.5417192" lon="10.711121"><ele>41.0</ele><time>2026-04-18T06:29:51.518Z</time></trkpt><trkpt lat="43.5417182" lon="10.7110174"><ele>41.0</ele><time>2026-04-18T06:29:52.507Z</time></trkpt><trkpt lat="43.5417247" lon="10.7109273"><ele>41.0</ele><time>2026-04-18T06:29:53.52Z</time></trkpt><trkpt lat="43.5417486" lon="10.7108438"><ele>41.0</ele><time>2026-04-18T06:29:54.538Z</time></trkpt><trkpt lat="43.5418151" lon="10.7107077"><ele>41.599999999999994</ele><time>2026-04-18T06:29:56.509Z</time></trkpt><trkpt lat="43.5419075" lon="10.7107121"><ele>42.2</ele><time>2026-04-18T06:29:57.514Z</time></trkpt><trkpt lat="43.5420018" lon="10.7107415"><ele>42.8</ele><time>2026-04-18T06:29:58.507Z</time></trkpt><trkpt lat="43.5421046" lon="10.7107694"><ele>43.400000000000006</ele><time>2026-04-18T06:29:59.503Z</time></trkpt><trkpt lat="43.5422009" lon="10.7107894"><ele>44.0</ele><time>2026-04-18T06:30:00.517Z</time></trkpt><trkpt lat="43.5422869" lon="10.7108095"><ele>44.166666666666664</ele><time>2026-04-18T06:30:01.506Z</time></trkpt><trkpt lat="43.5423661" lon="10.7108118"><ele>44.33333333333333</ele><time>2026-04-18T06:30:02.506Z</time></trkpt><trkpt lat="43.5424389" lon="10.7108151"><ele>44.5</ele><time>2026-04-18T06:30:03.497Z</time></trkpt><trkpt lat="43.5425111" lon="10.7108077"><ele>44.666666666666664</ele><time>2026-04-18T06:30:04.503Z</time></trkpt><trkpt lat="43.5425906" lon="10.7107982"><ele>44.833333333333336</ele><time>2026-04-18T06:30:05.507Z</time></trkpt><trkpt lat="43.5426623" lon="10.710784"><ele>45.0</ele><time>2026-04-18T06:30:06.497Z</time></trkpt><trkpt lat="43.5427347" lon="10.7107612"><ele>45.0</ele><time>2026-04-18T06:30:07.508Z</time></trkpt><trkpt lat="43.5427988" lon="10.7107363"><ele>45.0</ele><time>2026-04-18T06:30:08.513Z</time></trkpt><trkpt lat="43.5428586" lon="10.7107048"><ele>45.0</ele><time>2026-04-18T06:30:09.498Z</time></trkpt><trkpt lat="43.5429563" lon="10.7106344"><ele>45.0</ele><time>2026-04-18T06:30:11.505Z</time></trkpt><trkpt lat="43.5430279" lon="10.7105709"><ele>45.0</ele><time>2026-04-18T06:30:13.508Z</time></trkpt><trkpt lat="43.5430927" lon="10.7105808"><ele>45.0</ele><time>2026-04-18T06:30:16.508Z</time></trkpt><trkpt lat="43.5431324" lon="10.7106779"><ele>45.0</ele><time>2026-04-18T06:30:19.517Z</time></trkpt><trkpt lat="43.5431466" lon="10.7108169"><ele>45.0</ele><time>2026-04-18T06:30:21.539Z</time></trkpt><trkpt lat="43.5431635" lon="10.7109344"><ele>45.0</ele><time>2026-04-18T06:30:22.514Z</time></trkpt><trkpt lat="43.5431969" lon="10.7110595"><ele>45.0</ele><time>2026-04-18T06:30:23.503Z</time></trkpt><trkpt lat="43.5432228" lon="10.7111956"><ele>45.0</ele><time>2026-04-18T06:30:24.523Z</time></trkpt><trkpt lat="43.5432445" lon="10.7113362"><ele>44.5</ele><time>2026-04-18T06:30:25.509Z</time></trkpt><trkpt lat="43.5432596" lon="10.7115056"><ele>44.0</ele><time>2026-04-18T06:30:26.526Z</time></trkpt><trkpt lat="43.5432851" lon="10.7116862"><ele>43.5</ele><time>2026-04-18T06:30:27.509Z</time></trkpt><trkpt lat="43.5433196" lon="10.7118794"><ele>43.0</ele><time>2026-04-18T06:30:28.506Z</time></trkpt><trkpt lat="43.5433458" lon="10.7120679"><ele>43.0</ele><time>2026-04-18T06:30:29.507Z</time></trkpt><trkpt lat="43.5433704" lon="10.71227"><ele>43.0</ele><time>2026-04-18T06:30:30.514Z</time></trkpt><trkpt lat="43.5433983" lon="10.7124601"><ele>43.0</ele><time>2026-04-18T06:30:31.519Z</time></trkpt><trkpt lat="43.5434272" lon="10.7126587"><ele>43.0</ele><time>2026-04-18T06:30:32.513Z</time></trkpt><trkpt lat="43.5434581" lon="10.7128475"><ele>42.75</ele><time>2026-04-18T06:30:33.526Z</time></trkpt><trkpt lat="43.5434904" lon="10.7130238"><ele>42.5</ele><time>2026-04-18T06:30:34.496Z</time></trkpt><trkpt lat="43.5435086" lon="10.7132101"><ele>42.25</ele><time>2026-04-18T06:30:35.506Z</time></trkpt><trkpt lat="43.543525" lon="10.7133836"><ele>42.0</ele><time>2026-04-18T06:30:36.562Z</time></trkpt><trkpt lat="43.5435477" lon="10.7135541"><ele>41.666666666666664</ele><time>2026-04-18T06:30:37.529Z</time></trkpt><trkpt lat="43.5435888" lon="10.7138771"><ele>41.33333333333333</ele><time>2026-04-18T06:30:39.5Z</time></trkpt><trkpt lat="43.5436105" lon="10.7140262"><ele>41.0</ele><time>2026-04-18T06:30:40.51Z</time></trkpt><trkpt lat="43.5436292" lon="10.7141874"><ele>41.0</ele><time>2026-04-18T06:30:41.52Z</time></trkpt><trkpt lat="43.5436505" lon="10.7143508"><ele>41.0</ele><time>2026-04-18T06:30:42.507Z</time></trkpt><trkpt lat="43.5436802" lon="10.7145122"><ele>41.0</ele><time>2026-04-18T06:30:43.518Z</time></trkpt><trkpt lat="43.5437031" lon="10.7146639"><ele>41.0</ele><time>2026-04-18T06:30:44.51Z</time></trkpt><trkpt lat="43.5437256" lon="10.7147912"><ele>41.0</ele><time>2026-04-18T06:30:45.513Z</time></trkpt><trkpt lat="43.5437474" lon="10.7148958"><ele>41.83333333333333</ele><time>2026-04-18T06:30:46.518Z</time></trkpt><trkpt lat="43.5437712" lon="10.7149906"><ele>42.666666666666664</ele><time>2026-04-18T06:30:47.521Z</time></trkpt><trkpt lat="43.5437859" lon="10.7151178"><ele>43.5</ele><time>2026-04-18T06:30:49.522Z</time></trkpt><trkpt lat="43.5437175" lon="10.7151584"><ele>44.333333333333336</ele><time>2026-04-18T06:30:51.523Z</time></trkpt><trkpt lat="43.5436579" lon="10.7151231"><ele>45.16666666666667</ele><time>2026-04-18T06:30:53.523Z</time></trkpt><trkpt lat="43.5436281" lon="10.714954"><ele>46.0</ele><time>2026-04-18T06:30:55.518Z</time></trkpt><trkpt lat="43.5436014" lon="10.714827"><ele>46.0</ele><time>2026-04-18T06:30:56.538Z</time></trkpt><trkpt lat="43.5435642" lon="10.7147157"><ele>46.0</ele><time>2026-04-18T06:30:57.505Z</time></trkpt><trkpt lat="43.5435292" lon="10.7145989"><ele>46.0</ele><time>2026-04-18T06:30:58.519Z</time></trkpt><trkpt lat="43.543502" lon="10.7144869"><ele>46.0</ele><time>2026-04-18T06:30:59.518Z</time></trkpt><trkpt lat="43.5434643" lon="10.7143955"><ele>46.0</ele><time>2026-04-18T06:31:00.523Z</time></trkpt><trkpt lat="43.5434198" lon="10.714315"><ele>46.0</ele><time>2026-04-18T06:31:01.52Z</time></trkpt><trkpt lat="43.5433559" lon="10.7142294"><ele>45.16666666666667</ele><time>2026-04-18T06:31:02.519Z</time></trkpt><trkpt lat="43.5432921" lon="10.7141585"><ele>44.333333333333336</ele><time>2026-04-18T06:31:03.523Z</time></trkpt><trkpt lat="43.5432086" lon="10.7141022"><ele>43.5</ele><time>2026-04-18T06:31:04.532Z</time></trkpt><trkpt lat="43.5431318" lon="10.7140934"><ele>42.666666666666664</ele><time>2026-04-18T06:31:05.531Z</time></trkpt><trkpt lat="43.5430527" lon="10.714112"><ele>41.83333333333333</ele><time>2026-04-18T06:31:06.517Z</time></trkpt><trkpt lat="43.5429414" lon="10.714096"><ele>41.0</ele><time>2026-04-18T06:31:08.52Z</time></trkpt><trkpt lat="43.542819" lon="10.7141009"><ele>41.0</ele><time>2026-04-18T06:31:10.544Z</time></trkpt><trkpt lat="43.5427471" lon="10.7141013"><ele>41.0</ele><time>2026-04-18T06:31:11.521Z</time></trkpt><trkpt lat="43.5426615" lon="10.7140977"><ele>41.0</ele><time>2026-04-18T06:31:12.512Z</time></trkpt><trkpt lat="43.5425767" lon="10.7140907"><ele>41.0</ele><time>2026-04-18T06:31:13.516Z</time></trkpt><trkpt lat="43.5424794" lon="10.7140894"><ele>41.0</ele><time>2026-04-18T06:31:14.515Z</time></trkpt><trkpt lat="43.5423803" lon="10.7140979"><ele>41.0</ele><time>2026-04-18T06:31:15.531Z</time></trkpt><trkpt lat="43.5422778" lon="10.7141044"><ele>41.0</ele><time>2026-04-18T06:31:16.512Z</time></trkpt><trkpt lat="43.5421657" lon="10.7141158"><ele>41.0</ele><time>2026-04-18T06:31:17.512Z</time></trkpt><trkpt lat="43.5420621" lon="10.7141375"><ele>41.0</ele><time>2026-04-18T06:31:18.52Z</time></trkpt><trkpt lat="43.5419576" lon="10.7141549"><ele>41.0</ele><time>2026-04-18T06:31:19.507Z</time></trkpt><trkpt lat="43.5418563" lon="10.7141857"><ele>41.0</ele><time>2026-04-18T06:31:20.517Z</time></trkpt><trkpt lat="43.5417572" lon="10.7142157"><ele>40.8</ele><time>2026-04-18T06:31:21.506Z</time></trkpt><trkpt lat="43.5416561" lon="10.7142462"><ele>40.599999999999994</ele><time>2026-04-18T06:31:22.525Z</time></trkpt><trkpt lat="43.5415592" lon="10.7142808"><ele>40.4</ele><time>2026-04-18T06:31:23.519Z</time></trkpt><trkpt lat="43.5414623" lon="10.7143199"><ele>40.2</ele><time>2026-04-18T06:31:24.537Z</time></trkpt><trkpt lat="43.5413629" lon="10.7143485"><ele>40.0</ele><time>2026-04-18T06:31:25.521Z</time></trkpt><trkpt lat="43.5412789" lon="10.7143947"><ele>41.0</ele><time>2026-04-18T06:31:26.517Z</time></trkpt><trkpt lat="43.5412022" lon="10.7144345"><ele>42.0</ele><time>2026-04-18T06:31:27.526Z</time></trkpt><trkpt lat="43.5411164" lon="10.7144665"><ele>43.0</ele><time>2026-04-18T06:31:28.516Z</time></trkpt><trkpt lat="43.5410389" lon="10.7144902"><ele>44.0</ele><time>2026-04-18T06:31:29.523Z</time></trkpt><trkpt lat="43.540968" lon="10.7144969"><ele>45.0</ele><time>2026-04-18T06:31:30.538Z</time></trkpt><trkpt lat="43.5409021" lon="10.7145037"><ele>46.0</ele><time>2026-04-18T06:31:31.518Z</time></trkpt><trkpt lat="43.5408311" lon="10.7145054"><ele>46.0</ele><time>2026-04-18T06:31:32.507Z</time></trkpt><trkpt lat="43.5407682" lon="10.7145126"><ele>46.0</ele><time>2026-04-18T06:31:33.509Z</time></trkpt><trkpt lat="43.5406535" lon="10.7145145"><ele>46.0</ele><time>2026-04-18T06:31:35.519Z</time></trkpt><trkpt lat="43.5405466" lon="10.7145406"><ele>46.0</ele><time>2026-04-18T06:31:37.52Z</time></trkpt><trkpt lat="43.5404291" lon="10.7145573"><ele>46.0</ele><time>2026-04-18T06:31:39.541Z</time></trkpt><trkpt lat="43.5403652" lon="10.7145637"><ele>47.199999999999996</ele><time>2026-04-18T06:31:40.506Z</time></trkpt><trkpt lat="43.5402986" lon="10.7145589"><ele>48.4</ele><time>2026-04-18T06:31:41.511Z</time></trkpt><trkpt lat="43.5402282" lon="10.7145476"><ele>49.6</ele><time>2026-04-18T06:31:42.511Z</time></trkpt><trkpt lat="43.5401088" lon="10.7145256"><ele>50.8</ele><time>2026-04-18T06:31:44.509Z</time></trkpt><trkpt lat="43.5399976" lon="10.7145025"><ele>52.0</ele><time>2026-04-18T06:31:46.506Z</time></trkpt><trkpt lat="43.5399064" lon="10.7144938"><ele>52.0</ele><time>2026-04-18T06:31:48.512Z</time></trkpt><trkpt lat="43.5398288" lon="10.7144708"><ele>52.0</ele><time>2026-04-18T06:31:50.502Z</time></trkpt><trkpt lat="43.5397426" lon="10.7144627"><ele>52.0</ele><time>2026-04-18T06:31:52.499Z</time></trkpt><trkpt lat="43.5396344" lon="10.7144723"><ele>52.0</ele><time>2026-04-18T06:31:54.524Z</time></trkpt><trkpt lat="43.5395371" lon="10.7145296"><ele>52.0</ele><time>2026-04-18T06:31:56.5Z</time></trkpt><trkpt lat="43.5394719" lon="10.7146104"><ele>51.99999999999999</ele><time>2026-04-18T06:31:58.508Z</time></trkpt><trkpt lat="43.5395074" lon="10.7145232"><ele>52.0</ele><time>2026-04-18T06:32:04.514Z</time></trkpt><trkpt lat="43.5395653" lon="10.7144653"><ele>52.0</ele><time>2026-04-18T06:32:08.512Z</time></trkpt><trkpt lat="43.5394999" lon="10.7145183"><ele>52.0</ele><time>2026-04-18T06:32:17.509Z</time></trkpt><trkpt lat="43.5394241" lon="10.7145925"><ele>51.99999999999999</ele><time>2026-04-18T06:32:19.505Z</time></trkpt><trkpt lat="43.5393592" lon="10.7147222"><ele>52.0</ele><time>2026-04-18T06:32:21.505Z</time></trkpt><trkpt lat="43.5392851" lon="10.7148456"><ele>51.8</ele><time>2026-04-18T06:32:23.5Z</time></trkpt><trkpt lat="43.5392129" lon="10.7149158"><ele>51.6</ele><time>2026-04-18T06:32:25.502Z</time></trkpt><trkpt lat="43.5391222" lon="10.7148988"><ele>51.4</ele><time>2026-04-18T06:32:28.5Z</time></trkpt><trkpt lat="43.5390789" lon="10.7147865"><ele>51.199999999999996</ele><time>2026-04-18T06:32:30.496Z</time></trkpt><trkpt lat="43.5390627" lon="10.7146449"><ele>51.0</ele><time>2026-04-18T06:32:32.5Z</time></trkpt><trkpt lat="43.5390195" lon="10.7144749"><ele>49.666666666666664</ele><time>2026-04-18T06:32:34.503Z</time></trkpt><trkpt lat="43.538975" lon="10.7143855"><ele>48.333333333333336</ele><time>2026-04-18T06:32:35.513Z</time></trkpt><trkpt lat="43.5389148" lon="10.7143104"><ele>47.0</ele><time>2026-04-18T06:32:36.503Z</time></trkpt><trkpt lat="43.5388625" lon="10.7142405"><ele>45.66666666666667</ele><time>2026-04-18T06:32:37.515Z</time></trkpt><trkpt lat="43.5387674" lon="10.7141731"><ele>44.333333333333336</ele><time>2026-04-18T06:32:39.508Z</time></trkpt><trkpt lat="43.5387036" lon="10.7141086"><ele>43.0</ele><time>2026-04-18T06:32:41.513Z</time></trkpt><trkpt lat="43.5386248" lon="10.7140447"><ele>43.0</ele><time>2026-04-18T06:32:44.505Z</time></trkpt><trkpt lat="43.5385644" lon="10.7139853"><ele>43.0</ele><time>2026-04-18T06:32:47.507Z</time></trkpt><trkpt lat="43.5385086" lon="10.7139292"><ele>43.0</ele><time>2026-04-18T06:32:49.519Z</time></trkpt><trkpt lat="43.538431" lon="10.7138785"><ele>43.0</ele><time>2026-04-18T06:32:51.505Z</time></trkpt><trkpt lat="43.5383391" lon="10.713807"><ele>43.0</ele><time>2026-04-18T06:32:53.514Z</time></trkpt><trkpt lat="43.538273" lon="10.7136848"><ele>43.0</ele><time>2026-04-18T06:32:55.506Z</time></trkpt><trkpt lat="43.5382558" lon="10.7135512"><ele>42.8</ele><time>2026-04-18T06:32:57.512Z</time></trkpt><trkpt lat="43.538273" lon="10.7134178"><ele>42.599999999999994</ele><time>2026-04-18T06:32:59.504Z</time></trkpt><trkpt lat="43.5382926" lon="10.713297"><ele>42.400000000000006</ele><time>2026-04-18T06:33:01.506Z</time></trkpt><trkpt lat="43.5382937" lon="10.7131824"><ele>42.2</ele><time>2026-04-18T06:33:03.506Z</time></trkpt><trkpt lat="43.5382422" lon="10.7130939"><ele>42.0</ele><time>2026-04-18T06:33:06.521Z</time></trkpt><trkpt lat="43.538151" lon="10.7130318"><ele>42.0</ele><time>2026-04-18T06:33:08.501Z</time></trkpt><trkpt lat="43.5380625" lon="10.7129393"><ele>42.0</ele><time>2026-04-18T06:33:10.502Z</time></trkpt><trkpt lat="43.5380104" lon="10.7128888"><ele>42.0</ele><time>2026-04-18T06:33:11.506Z</time></trkpt><trkpt lat="43.53796" lon="10.7128301"><ele>42.0</ele><time>2026-04-18T06:33:12.497Z</time></trkpt><trkpt lat="43.5378961" lon="10.7127654"><ele>42.0</ele><time>2026-04-18T06:33:13.504Z</time></trkpt><trkpt lat="43.5378389" lon="10.7127028"><ele>42.0</ele><time>2026-04-18T06:33:14.491Z</time></trkpt><trkpt lat="43.5377668" lon="10.7126449"><ele>42.0</ele><time>2026-04-18T06:33:15.501Z</time></trkpt><trkpt lat="43.537708" lon="10.7125865"><ele>42.0</ele><time>2026-04-18T06:33:16.502Z</time></trkpt><trkpt lat="43.5376464" lon="10.7125258"><ele>42.0</ele><time>2026-04-18T06:33:17.5Z</time></trkpt><trkpt lat="43.5375896" lon="10.7124582"><ele>42.0</ele><time>2026-04-18T06:33:18.499Z</time></trkpt><trkpt lat="43.5375278" lon="10.7123843"><ele>42.0</ele><time>2026-04-18T06:33:19.502Z</time></trkpt><trkpt lat="43.5374656" lon="10.7123222"><ele>42.0</ele><time>2026-04-18T06:33:20.518Z</time></trkpt><trkpt lat="43.5374036" lon="10.7122602"><ele>42.0</ele><time>2026-04-18T06:33:21.504Z</time></trkpt><trkpt lat="43.5373354" lon="10.7121952"><ele>42.0</ele><time>2026-04-18T06:33:22.5Z</time></trkpt><trkpt lat="43.5372696" lon="10.7121399"><ele>42.0</ele><time>2026-04-18T06:33:23.503Z</time></trkpt><trkpt lat="43.5372128" lon="10.7120729"><ele>42.0</ele><time>2026-04-18T06:33:24.501Z</time></trkpt><trkpt lat="43.5371442" lon="10.7120102"><ele>42.0</ele><time>2026-04-18T06:33:25.504Z</time></trkpt><trkpt lat="43.5370774" lon="10.7119489"><ele>42.0</ele><time>2026-04-18T06:33:26.506Z</time></trkpt><trkpt lat="43.5370101" lon="10.7118993"><ele>42.0</ele><time>2026-04-18T06:33:27.503Z</time></trkpt><trkpt lat="43.5369364" lon="10.7118603"><ele>42.0</ele><time>2026-04-18T06:33:28.496Z</time></trkpt><trkpt lat="43.5368564" lon="10.71182"><ele>42.0</ele><time>2026-04-18T06:33:29.49Z</time></trkpt><trkpt lat="43.5367684" lon="10.7117857"><ele>42.0</ele><time>2026-04-18T06:33:30.497Z</time></trkpt><trkpt lat="43.5366762" lon="10.7117677"><ele>42.0</ele><time>2026-04-18T06:33:31.492Z</time></trkpt><trkpt lat="43.5365831" lon="10.7117495"><ele>42.0</ele><time>2026-04-18T06:33:32.503Z</time></trkpt><trkpt lat="43.5365001" lon="10.7117381"><ele>42.0</ele><time>2026-04-18T06:33:33.504Z</time></trkpt><trkpt lat="43.5364139" lon="10.7117191"><ele>42.0</ele><time>2026-04-18T06:33:34.514Z</time></trkpt><trkpt lat="43.5363385" lon="10.7117081"><ele>42.0</ele><time>2026-04-18T06:33:35.511Z</time></trkpt><trkpt lat="43.5362616" lon="10.7117144"><ele>42.0</ele><time>2026-04-18T06:33:36.512Z</time></trkpt><trkpt lat="43.5361809" lon="10.711707"><ele>42.0</ele><time>2026-04-18T06:33:37.507Z</time></trkpt><trkpt lat="43.536099" lon="10.7116931"><ele>42.0</ele><time>2026-04-18T06:33:38.501Z</time></trkpt><trkpt lat="43.5360184" lon="10.7116742"><ele>41.833333333333336</ele><time>2026-04-18T06:33:39.512Z</time></trkpt><trkpt lat="43.5359296" lon="10.7116532"><ele>41.666666666666664</ele><time>2026-04-18T06:33:40.501Z</time></trkpt><trkpt lat="43.535842" lon="10.7116395"><ele>41.5</ele><time>2026-04-18T06:33:41.505Z</time></trkpt><trkpt lat="43.5357611" lon="10.7116309"><ele>41.33333333333333</ele><time>2026-04-18T06:33:42.505Z</time></trkpt><trkpt lat="43.5356869" lon="10.7116145"><ele>41.166666666666664</ele><time>2026-04-18T06:33:43.512Z</time></trkpt><trkpt lat="43.5355809" lon="10.7115926"><ele>41.0</ele><time>2026-04-18T06:33:45.504Z</time></trkpt><trkpt lat="43.5355202" lon="10.7115693"><ele>41.0</ele><time>2026-04-18T06:33:46.505Z</time></trkpt><trkpt lat="43.5354214" lon="10.7114987"><ele>41.0</ele><time>2026-04-18T06:33:48.501Z</time></trkpt><trkpt lat="43.5353478" lon="10.711463"><ele>41.0</ele><time>2026-04-18T06:33:49.511Z</time></trkpt><trkpt lat="43.5352785" lon="10.7114429"><ele>41.0</ele><time>2026-04-18T06:33:50.505Z</time></trkpt><trkpt lat="43.5352093" lon="10.7114156"><ele>41.0</ele><time>2026-04-18T06:33:51.504Z</time></trkpt><trkpt lat="43.5351467" lon="10.7113844"><ele>41.0</ele><time>2026-04-18T06:33:52.505Z</time></trkpt><trkpt lat="43.5350411" lon="10.7113277"><ele>41.0</ele><time>2026-04-18T06:33:54.503Z</time></trkpt><trkpt lat="43.5349419" lon="10.7112734"><ele>41.0</ele><time>2026-04-18T06:33:56.506Z</time></trkpt><trkpt lat="43.5348458" lon="10.711213"><ele>41.0</ele><time>2026-04-18T06:33:58.501Z</time></trkpt><trkpt lat="43.5347787" lon="10.7111723"><ele>41.0</ele><time>2026-04-18T06:33:59.508Z</time></trkpt><trkpt lat="43.5347162" lon="10.7111268"><ele>41.0</ele><time>2026-04-18T06:34:00.507Z</time></trkpt><trkpt lat="43.5346169" lon="10.7110588"><ele>41.0</ele><time>2026-04-18T06:34:02.497Z</time></trkpt><trkpt lat="43.5345322" lon="10.7110293"><ele>41.0</ele><time>2026-04-18T06:34:04.502Z</time></trkpt><trkpt lat="43.5344429" lon="10.710996"><ele>41.0</ele><time>2026-04-18T06:34:06.512Z</time></trkpt><trkpt lat="43.5343565" lon="10.7109513"><ele>41.0</ele><time>2026-04-18T06:34:08.497Z</time></trkpt><trkpt lat="43.5342933" lon="10.7109866"><ele>41.0</ele><time>2026-04-18T06:34:10.506Z</time></trkpt><trkpt lat="43.5342357" lon="10.7110747"><ele>41.0</ele><time>2026-04-18T06:34:12.496Z</time></trkpt><trkpt lat="43.534192" lon="10.7111736"><ele>41.0</ele><time>2026-04-18T06:34:14.509Z</time></trkpt><trkpt lat="43.5341457" lon="10.711279"><ele>41.0</ele><time>2026-04-18T06:34:16.502Z</time></trkpt><trkpt lat="43.5340985" lon="10.7113876"><ele>41.0</ele><time>2026-04-18T06:34:18.503Z</time></trkpt><trkpt lat="43.5340585" lon="10.7114898"><ele>41.0</ele><time>2026-04-18T06:34:20.501Z</time></trkpt><trkpt lat="43.5340335" lon="10.7116087"><ele>41.0</ele><time>2026-04-18T06:34:22.513Z</time></trkpt><trkpt lat="43.5340082" lon="10.7116944"><ele>41.0</ele><time>2026-04-18T06:34:24.512Z</time></trkpt><trkpt lat="43.5339406" lon="10.7117293"><ele>41.0</ele><time>2026-04-18T06:34:27.504Z</time></trkpt><trkpt lat="43.5338558" lon="10.7117364"><ele>41.0</ele><time>2026-04-18T06:34:31.505Z</time></trkpt><trkpt lat="43.53378" lon="10.7117396"><ele>41.0</ele><time>2026-04-18T06:34:33.504Z</time></trkpt><trkpt lat="43.5336785" lon="10.7117593"><ele>41.0</ele><time>2026-04-18T06:34:35.503Z</time></trkpt><trkpt lat="43.5336148" lon="10.7117976"><ele>41.0</ele><time>2026-04-18T06:34:36.496Z</time></trkpt><trkpt lat="43.5335435" lon="10.7118253"><ele>41.0</ele><time>2026-04-18T06:34:37.509Z</time></trkpt><trkpt lat="43.533421" lon="10.7118774"><ele>41.57142857142857</ele><time>2026-04-18T06:34:39.515Z</time></trkpt><trkpt lat="43.5333575" lon="10.7119073"><ele>42.14285714285714</ele><time>2026-04-18T06:34:40.503Z</time></trkpt><trkpt lat="43.5332978" lon="10.7119422"><ele>42.71428571428571</ele><time>2026-04-18T06:34:41.517Z</time></trkpt><trkpt lat="43.5332351" lon="10.7119708"><ele>43.285714285714285</ele><time>2026-04-18T06:34:42.507Z</time></trkpt><trkpt lat="43.5331675" lon="10.7120024"><ele>43.85714285714286</ele><time>2026-04-18T06:34:43.499Z</time></trkpt><trkpt lat="43.5331008" lon="10.7120246"><ele>44.42857142857142</ele><time>2026-04-18T06:34:44.505Z</time></trkpt><trkpt lat="43.5330312" lon="10.7120487"><ele>45.0</ele><time>2026-04-18T06:34:45.527Z</time></trkpt><trkpt lat="43.5329638" lon="10.7120745"><ele>45.0</ele><time>2026-04-18T06:34:46.506Z</time></trkpt><trkpt lat="43.5328982" lon="10.7120979"><ele>45.0</ele><time>2026-04-18T06:34:47.505Z</time></trkpt><trkpt lat="43.5328324" lon="10.7121329"><ele>45.0</ele><time>2026-04-18T06:34:48.504Z</time></trkpt><trkpt lat="43.532772" lon="10.7121574"><ele>45.0</ele><time>2026-04-18T06:34:49.506Z</time></trkpt><trkpt lat="43.5326548" lon="10.7122052"><ele>45.0</ele><time>2026-04-18T06:34:51.503Z</time></trkpt><trkpt lat="43.5325328" lon="10.7122606"><ele>44.857142857142854</ele><time>2026-04-18T06:34:53.507Z</time></trkpt><trkpt lat="43.5324632" lon="10.7122861"><ele>44.714285714285715</ele><time>2026-04-18T06:34:54.506Z</time></trkpt><trkpt lat="43.5323927" lon="10.7122988"><ele>44.57142857142857</ele><time>2026-04-18T06:34:55.505Z</time></trkpt><trkpt lat="43.532318" lon="10.7123201"><ele>44.42857142857143</ele><time>2026-04-18T06:34:56.498Z</time></trkpt><trkpt lat="43.5322548" lon="10.71235"><ele>44.285714285714285</ele><time>2026-04-18T06:34:57.506Z</time></trkpt><trkpt lat="43.5321835" lon="10.7123748"><ele>44.142857142857146</ele><time>2026-04-18T06:34:58.5Z</time></trkpt><trkpt lat="43.5321165" lon="10.7124046"><ele>44.0</ele><time>2026-04-18T06:34:59.506Z</time></trkpt><trkpt lat="43.5320555" lon="10.7124418"><ele>43.666666666666664</ele><time>2026-04-18T06:35:00.509Z</time></trkpt><trkpt lat="43.5319843" lon="10.7124677"><ele>43.33333333333333</ele><time>2026-04-18T06:35:01.51Z</time></trkpt><trkpt lat="43.5319166" lon="10.7125089"><ele>43.0</ele><time>2026-04-18T06:35:02.51Z</time></trkpt><trkpt lat="43.5318398" lon="10.712548"><ele>42.666666666666664</ele><time>2026-04-18T06:35:03.508Z</time></trkpt><trkpt lat="43.531764" lon="10.7125864"><ele>42.333333333333336</ele><time>2026-04-18T06:35:04.503Z</time></trkpt><trkpt lat="43.5316856" lon="10.7126216"><ele>42.0</ele><time>2026-04-18T06:35:05.511Z</time></trkpt><trkpt lat="43.53161" lon="10.7126447"><ele>42.0</ele><time>2026-04-18T06:35:06.507Z</time></trkpt><trkpt lat="43.5315352" lon="10.7126716"><ele>42.0</ele><time>2026-04-18T06:35:07.505Z</time></trkpt><trkpt lat="43.531459" lon="10.7126964"><ele>42.0</ele><time>2026-04-18T06:35:08.504Z</time></trkpt><trkpt lat="43.5313852" lon="10.7127205"><ele>42.0</ele><time>2026-04-18T06:35:09.516Z</time></trkpt><trkpt lat="43.5313093" lon="10.7127443"><ele>42.0</ele><time>2026-04-18T06:35:10.508Z</time></trkpt><trkpt lat="43.5312397" lon="10.7127794"><ele>42.0</ele><time>2026-04-18T06:35:11.515Z</time></trkpt><trkpt lat="43.5311743" lon="10.7128016"><ele>42.142857142857146</ele><time>2026-04-18T06:35:12.501Z</time></trkpt><trkpt lat="43.531112" lon="10.7128206"><ele>42.285714285714285</ele><time>2026-04-18T06:35:13.506Z</time></trkpt><trkpt lat="43.5310442" lon="10.7128462"><ele>42.42857142857143</ele><time>2026-04-18T06:35:14.523Z</time></trkpt><trkpt lat="43.5309741" lon="10.7128745"><ele>42.57142857142857</ele><time>2026-04-18T06:35:15.501Z</time></trkpt><trkpt lat="43.5309036" lon="10.7129011"><ele>42.714285714285715</ele><time>2026-04-18T06:35:16.511Z</time></trkpt><trkpt lat="43.530832" lon="10.7129281"><ele>42.85714285714286</ele><time>2026-04-18T06:35:17.51Z</time></trkpt><trkpt lat="43.5307637" lon="10.7129597"><ele>43.0</ele><time>2026-04-18T06:35:18.506Z</time></trkpt><trkpt lat="43.5306847" lon="10.7129964"><ele>43.0</ele><time>2026-04-18T06:35:19.503Z</time></trkpt><trkpt lat="43.5306047" lon="10.7130187"><ele>43.0</ele><time>2026-04-18T06:35:20.502Z</time></trkpt><trkpt lat="43.5305331" lon="10.7130445"><ele>43.0</ele><time>2026-04-18T06:35:21.504Z</time></trkpt><trkpt lat="43.5304529" lon="10.7130705"><ele>43.0</ele><time>2026-04-18T06:35:22.504Z</time></trkpt><trkpt lat="43.5303761" lon="10.713104"><ele>43.0</ele><time>2026-04-18T06:35:23.5Z</time></trkpt><trkpt lat="43.5302992" lon="10.7131411"><ele>43.0</ele><time>2026-04-18T06:35:24.507Z</time></trkpt><trkpt lat="43.5302225" lon="10.7131787"><ele>43.16666666666667</ele><time>2026-04-18T06:35:25.505Z</time></trkpt><trkpt lat="43.5301501" lon="10.7132057"><ele>43.333333333333336</ele><time>2026-04-18T06:35:26.505Z</time></trkpt><trkpt lat="43.5300741" lon="10.7132278"><ele>43.5</ele><time>2026-04-18T06:35:27.495Z</time></trkpt><trkpt lat="43.529989" lon="10.7132587"><ele>43.666666666666664</ele><time>2026-04-18T06:35:28.503Z</time></trkpt><trkpt lat="43.5299085" lon="10.7132964"><ele>43.83333333333333</ele><time>2026-04-18T06:35:29.521Z</time></trkpt><trkpt lat="43.5298389" lon="10.7133281"><ele>44.0</ele><time>2026-04-18T06:35:30.503Z</time></trkpt><trkpt lat="43.52977" lon="10.7133655"><ele>44.0</ele><time>2026-04-18T06:35:31.507Z</time></trkpt><trkpt lat="43.5297014" lon="10.7133956"><ele>44.0</ele><time>2026-04-18T06:35:32.508Z</time></trkpt><trkpt lat="43.529629" lon="10.7134286"><ele>44.0</ele><time>2026-04-18T06:35:33.507Z</time></trkpt><trkpt lat="43.5295517" lon="10.7134576"><ele>44.0</ele><time>2026-04-18T06:35:34.501Z</time></trkpt><trkpt lat="43.5294702" lon="10.7134819"><ele>44.0</ele><time>2026-04-18T06:35:35.507Z</time></trkpt><trkpt lat="43.5293881" lon="10.7135155"><ele>44.0</ele><time>2026-04-18T06:35:36.502Z</time></trkpt><trkpt lat="43.5293033" lon="10.713553"><ele>43.85714285714286</ele><time>2026-04-18T06:35:37.509Z</time></trkpt><trkpt lat="43.5292303" lon="10.7135831"><ele>43.714285714285715</ele><time>2026-04-18T06:35:38.509Z</time></trkpt><trkpt lat="43.5291543" lon="10.7136121"><ele>43.57142857142857</ele><time>2026-04-18T06:35:39.502Z</time></trkpt><trkpt lat="43.5290843" lon="10.7136335"><ele>43.42857142857143</ele><time>2026-04-18T06:35:40.504Z</time></trkpt><trkpt lat="43.5290197" lon="10.7136546"><ele>43.285714285714285</ele><time>2026-04-18T06:35:41.502Z</time></trkpt><trkpt lat="43.528954" lon="10.7136786"><ele>43.142857142857146</ele><time>2026-04-18T06:35:42.507Z</time></trkpt><trkpt lat="43.5288779" lon="10.7137047"><ele>43.0</ele><time>2026-04-18T06:35:43.51Z</time></trkpt><trkpt lat="43.5287969" lon="10.713736"><ele>43.4</ele><time>2026-04-18T06:35:44.505Z</time></trkpt><trkpt lat="43.5287203" lon="10.7137641"><ele>43.8</ele><time>2026-04-18T06:35:45.498Z</time></trkpt><trkpt lat="43.5286375" lon="10.7138071"><ele>44.2</ele><time>2026-04-18T06:35:46.507Z</time></trkpt><trkpt lat="43.5285504" lon="10.7138534"><ele>44.6</ele><time>2026-04-18T06:35:47.513Z</time></trkpt><trkpt lat="43.5284592" lon="10.7138969"><ele>45.0</ele><time>2026-04-18T06:35:48.514Z</time></trkpt><trkpt lat="43.5283669" lon="10.7139334"><ele>45.0</ele><time>2026-04-18T06:35:49.5Z</time></trkpt><trkpt lat="43.5282749" lon="10.7139687"><ele>45.0</ele><time>2026-04-18T06:35:50.495Z</time></trkpt><trkpt lat="43.5281769" lon="10.7140148"><ele>45.0</ele><time>2026-04-18T06:35:51.515Z</time></trkpt><trkpt lat="43.5280753" lon="10.7140468"><ele>45.0</ele><time>2026-04-18T06:35:52.515Z</time></trkpt><trkpt lat="43.5279693" lon="10.7140847"><ele>45.0</ele><time>2026-04-18T06:35:53.501Z</time></trkpt><trkpt lat="43.5278579" lon="10.7141205"><ele>45.0</ele><time>2026-04-18T06:35:54.504Z</time></trkpt><trkpt lat="43.5277497" lon="10.7141643"><ele>45.0</ele><time>2026-04-18T06:35:55.508Z</time></trkpt><trkpt lat="43.5276446" lon="10.7142016"><ele>45.0</ele><time>2026-04-18T06:35:56.497Z</time></trkpt><trkpt lat="43.5275424" lon="10.714251"><ele>45.0</ele><time>2026-04-18T06:35:57.498Z</time></trkpt><trkpt lat="43.5274305" lon="10.71429"><ele>45.0</ele><time>2026-04-18T06:35:58.503Z</time></trkpt><trkpt lat="43.5273239" lon="10.7143241"><ele>45.0</ele><time>2026-04-18T06:35:59.501Z</time></trkpt><trkpt lat="43.5272213" lon="10.7143736"><ele>45.0</ele><time>2026-04-18T06:36:00.512Z</time></trkpt><trkpt lat="43.5271123" lon="10.7144143"><ele>45.0</ele><time>2026-04-18T06:36:01.503Z</time></trkpt><trkpt lat="43.5270146" lon="10.7144544"><ele>45.0</ele><time>2026-04-18T06:36:02.504Z</time></trkpt><trkpt lat="43.5269118" lon="10.7144952"><ele>45.0</ele><time>2026-04-18T06:36:03.502Z</time></trkpt><trkpt lat="43.5268162" lon="10.714538"><ele>46.4</ele><time>2026-04-18T06:36:04.508Z</time></trkpt><trkpt lat="43.5267235" lon="10.7145733"><ele>47.8</ele><time>2026-04-18T06:36:05.5Z</time></trkpt><trkpt lat="43.5266284" lon="10.7146237"><ele>49.2</ele><time>2026-04-18T06:36:06.502Z</time></trkpt><trkpt lat="43.5265301" lon="10.7146666"><ele>50.6</ele><time>2026-04-18T06:36:07.504Z</time></trkpt><trkpt lat="43.5264318" lon="10.714701"><ele>52.0</ele><time>2026-04-18T06:36:08.503Z</time></trkpt><trkpt lat="43.5263389" lon="10.7147387"><ele>52.0</ele><time>2026-04-18T06:36:09.513Z</time></trkpt><trkpt lat="43.5262502" lon="10.7147758"><ele>52.0</ele><time>2026-04-18T06:36:10.498Z</time></trkpt><trkpt lat="43.5261607" lon="10.7148192"><ele>52.0</ele><time>2026-04-18T06:36:11.502Z</time></trkpt><trkpt lat="43.5260714" lon="10.7148621"><ele>52.0</ele><time>2026-04-18T06:36:12.504Z</time></trkpt><trkpt lat="43.5259783" lon="10.7148978"><ele>52.0</ele><time>2026-04-18T06:36:13.505Z</time></trkpt><trkpt lat="43.5258844" lon="10.714933"><ele>50.8</ele><time>2026-04-18T06:36:14.503Z</time></trkpt><trkpt lat="43.5257912" lon="10.7149761"><ele>49.6</ele><time>2026-04-18T06:36:15.512Z</time></trkpt><trkpt lat="43.5256914" lon="10.7150162"><ele>48.4</ele><time>2026-04-18T06:36:16.497Z</time></trkpt><trkpt lat="43.5255995" lon="10.7150516"><ele>47.199999999999996</ele><time>2026-04-18T06:36:17.523Z</time></trkpt><trkpt lat="43.525513" lon="10.7150862"><ele>46.0</ele><time>2026-04-18T06:36:18.503Z</time></trkpt><trkpt lat="43.5254194" lon="10.7151156"><ele>45.599999999999994</ele><time>2026-04-18T06:36:19.497Z</time></trkpt><trkpt lat="43.5253179" lon="10.715146"><ele>45.2</ele><time>2026-04-18T06:36:20.496Z</time></trkpt><trkpt lat="43.5252272" lon="10.7151911"><ele>44.8</ele><time>2026-04-18T06:36:21.509Z</time></trkpt><trkpt lat="43.525144" lon="10.7152319"><ele>44.400000000000006</ele><time>2026-04-18T06:36:22.503Z</time></trkpt><trkpt lat="43.525061" lon="10.7152709"><ele>44.0</ele><time>2026-04-18T06:36:23.508Z</time></trkpt><trkpt lat="43.5249898" lon="10.7153021"><ele>44.666666666666664</ele><time>2026-04-18T06:36:24.512Z</time></trkpt><trkpt lat="43.5249217" lon="10.7153273"><ele>45.33333333333333</ele><time>2026-04-18T06:36:25.51Z</time></trkpt><trkpt lat="43.5248497" lon="10.7153469"><ele>46.0</ele><time>2026-04-18T06:36:26.525Z</time></trkpt><trkpt lat="43.5247828" lon="10.7153647"><ele>46.666666666666664</ele><time>2026-04-18T06:36:27.506Z</time></trkpt><trkpt lat="43.524681" lon="10.7154717"><ele>47.333333333333336</ele><time>2026-04-18T06:36:29.512Z</time></trkpt><trkpt lat="43.5246467" lon="10.715551"><ele>48.0</ele><time>2026-04-18T06:36:30.511Z</time></trkpt><trkpt lat="43.5246195" lon="10.7156294"><ele>48.0</ele><time>2026-04-18T06:36:31.498Z</time></trkpt><trkpt lat="43.5245849" lon="10.7157802"><ele>48.0</ele><time>2026-04-18T06:36:33.506Z</time></trkpt><trkpt lat="43.5245743" lon="10.7159357"><ele>48.0</ele><time>2026-04-18T06:36:35.499Z</time></trkpt><trkpt lat="43.5245627" lon="10.716062"><ele>48.0</ele><time>2026-04-18T06:36:37.506Z</time></trkpt><trkpt lat="43.5245649" lon="10.7161607"><ele>48.0</ele><time>2026-04-18T06:36:39.499Z</time></trkpt><trkpt lat="43.5245756" lon="10.716287"><ele>47.333333333333336</ele><time>2026-04-18T06:36:41.502Z</time></trkpt><trkpt lat="43.5245636" lon="10.7164217"><ele>46.666666666666664</ele><time>2026-04-18T06:36:43.51Z</time></trkpt><trkpt lat="43.5245381" lon="10.7165848"><ele>46.0</ele><time>2026-04-18T06:36:45.499Z</time></trkpt><trkpt lat="43.5245144" lon="10.7166883"><ele>45.33333333333333</ele><time>2026-04-18T06:36:46.511Z</time></trkpt><trkpt lat="43.5244933" lon="10.7167882"><ele>44.666666666666664</ele><time>2026-04-18T06:36:47.503Z</time></trkpt><trkpt lat="43.5244669" lon="10.716869"><ele>44.0</ele><time>2026-04-18T06:36:48.511Z</time></trkpt><trkpt lat="43.5244356" lon="10.7169499"><ele>44.0</ele><time>2026-04-18T06:36:49.506Z</time></trkpt><trkpt lat="43.5243871" lon="10.7171198"><ele>44.0</ele><time>2026-04-18T06:36:51.521Z</time></trkpt><trkpt lat="43.5243669" lon="10.7172079"><ele>44.0</ele><time>2026-04-18T06:36:52.506Z</time></trkpt><trkpt lat="43.5243393" lon="10.7173034"><ele>44.0</ele><time>2026-04-18T06:36:53.509Z</time></trkpt><trkpt lat="43.5243073" lon="10.7173986"><ele>44.0</ele><time>2026-04-18T06:36:54.505Z</time></trkpt><trkpt lat="43.5242719" lon="10.7174879"><ele>44.0</ele><time>2026-04-18T06:36:55.514Z</time></trkpt><trkpt lat="43.5242428" lon="10.7175958"><ele>44.0</ele><time>2026-04-18T06:36:56.503Z</time></trkpt><trkpt lat="43.5242107" lon="10.7176967"><ele>44.0</ele><time>2026-04-18T06:36:57.522Z</time></trkpt><trkpt lat="43.524181" lon="10.7178016"><ele>44.0</ele><time>2026-04-18T06:36:58.508Z</time></trkpt><trkpt lat="43.5241523" lon="10.717894"><ele>44.0</ele><time>2026-04-18T06:36:59.509Z</time></trkpt><trkpt lat="43.5241292" lon="10.7179877"><ele>44.0</ele><time>2026-04-18T06:37:00.5Z</time></trkpt><trkpt lat="43.5241058" lon="10.7180791"><ele>44.0</ele><time>2026-04-18T06:37:01.505Z</time></trkpt><trkpt lat="43.5240813" lon="10.718173"><ele>44.0</ele><time>2026-04-18T06:37:02.508Z</time></trkpt><trkpt lat="43.5240582" lon="10.7182854"><ele>44.5</ele><time>2026-04-18T06:37:03.499Z</time></trkpt><trkpt lat="43.524039" lon="10.7183871"><ele>45.0</ele><time>2026-04-18T06:37:04.513Z</time></trkpt><trkpt lat="43.5240127" lon="10.7184927"><ele>45.5</ele><time>2026-04-18T06:37:05.504Z</time></trkpt><trkpt lat="43.5239769" lon="10.7186007"><ele>46.0</ele><time>2026-04-18T06:37:06.505Z</time></trkpt><trkpt lat="43.523948" lon="10.7187183"><ele>46.5</ele><time>2026-04-18T06:37:07.517Z</time></trkpt><trkpt lat="43.5239215" lon="10.718832"><ele>47.0</ele><time>2026-04-18T06:37:08.507Z</time></trkpt><trkpt lat="43.5238895" lon="10.7189333"><ele>47.166666666666664</ele><time>2026-04-18T06:37:09.514Z</time></trkpt><trkpt lat="43.523852" lon="10.7190398"><ele>47.33333333333333</ele><time>2026-04-18T06:37:10.508Z</time></trkpt><trkpt lat="43.5238184" lon="10.7191496"><ele>47.5</ele><time>2026-04-18T06:37:11.511Z</time></trkpt><trkpt lat="43.5237897" lon="10.719265"><ele>47.666666666666664</ele><time>2026-04-18T06:37:12.507Z</time></trkpt><trkpt lat="43.5237691" lon="10.7193739"><ele>47.833333333333336</ele><time>2026-04-18T06:37:13.504Z</time></trkpt><trkpt lat="43.5237464" lon="10.7194741"><ele>48.0</ele><time>2026-04-18T06:37:14.54Z</time></trkpt><trkpt lat="43.523715" lon="10.7195649"><ele>47.5</ele><time>2026-04-18T06:37:15.505Z</time></trkpt><trkpt lat="43.5236803" lon="10.7196565"><ele>47.0</ele><time>2026-04-18T06:37:16.514Z</time></trkpt><trkpt lat="43.5236436" lon="10.7197497"><ele>46.5</ele><time>2026-04-18T06:37:17.51Z</time></trkpt><trkpt lat="43.5236062" lon="10.7198523"><ele>46.0</ele><time>2026-04-18T06:37:18.51Z</time></trkpt><trkpt lat="43.5235672" lon="10.7199584"><ele>45.5</ele><time>2026-04-18T06:37:19.501Z</time></trkpt><trkpt lat="43.5235174" lon="10.7200577"><ele>45.0</ele><time>2026-04-18T06:37:20.509Z</time></trkpt><trkpt lat="43.5234755" lon="10.7201678"><ele>45.166666666666664</ele><time>2026-04-18T06:37:21.506Z</time></trkpt><trkpt lat="43.5234296" lon="10.7202652"><ele>45.333333333333336</ele><time>2026-04-18T06:37:22.497Z</time></trkpt><trkpt lat="43.5233937" lon="10.7203857"><ele>45.5</ele><time>2026-04-18T06:37:23.513Z</time></trkpt><trkpt lat="43.5233593" lon="10.7205032"><ele>45.66666666666667</ele><time>2026-04-18T06:37:24.514Z</time></trkpt><trkpt lat="43.5233377" lon="10.7206273"><ele>45.833333333333336</ele><time>2026-04-18T06:37:25.511Z</time></trkpt><trkpt lat="43.5233175" lon="10.7207386"><ele>46.0</ele><time>2026-04-18T06:37:26.5Z</time></trkpt><trkpt lat="43.5233022" lon="10.7208551"><ele>46.0</ele><time>2026-04-18T06:37:27.51Z</time></trkpt><trkpt lat="43.5232831" lon="10.7209767"><ele>46.0</ele><time>2026-04-18T06:37:28.501Z</time></trkpt><trkpt lat="43.5232529" lon="10.721088"><ele>46.0</ele><time>2026-04-18T06:37:29.506Z</time></trkpt><trkpt lat="43.523218" lon="10.7211934"><ele>46.0</ele><time>2026-04-18T06:37:30.502Z</time></trkpt><trkpt lat="43.5231797" lon="10.7212716"><ele>46.0</ele><time>2026-04-18T06:37:31.511Z</time></trkpt><trkpt lat="43.5231397" lon="10.7213645"><ele>46.0</ele><time>2026-04-18T06:37:33.506Z</time></trkpt><trkpt lat="43.5231031" lon="10.7214647"><ele>46.0</ele><time>2026-04-18T06:37:36.503Z</time></trkpt><trkpt lat="43.5230582" lon="10.7215618"><ele>46.0</ele><time>2026-04-18T06:37:39.509Z</time></trkpt><trkpt lat="43.5230119" lon="10.721656"><ele>46.0</ele><time>2026-04-18T06:37:42.501Z</time></trkpt><trkpt lat="43.5229566" lon="10.7217657"><ele>46.0</ele><time>2026-04-18T06:37:45.511Z</time></trkpt><trkpt lat="43.5228894" lon="10.7218688"><ele>46.0</ele><time>2026-04-18T06:37:47.509Z</time></trkpt><trkpt lat="43.5228316" lon="10.7219711"><ele>46.8</ele><time>2026-04-18T06:37:49.508Z</time></trkpt><trkpt lat="43.5227723" lon="10.722071"><ele>47.599999999999994</ele><time>2026-04-18T06:37:51.497Z</time></trkpt><trkpt lat="43.5227105" lon="10.7221819"><ele>48.4</ele><time>2026-04-18T06:37:53.506Z</time></trkpt><trkpt lat="43.5226302" lon="10.7222746"><ele>49.2</ele><time>2026-04-18T06:37:55.503Z</time></trkpt><trkpt lat="43.522553" lon="10.722361"><ele>50.0</ele><time>2026-04-18T06:37:57.511Z</time></trkpt><trkpt lat="43.5224665" lon="10.7224542"><ele>50.0</ele><time>2026-04-18T06:37:59.505Z</time></trkpt><trkpt lat="43.5223916" lon="10.7225387"><ele>50.0</ele><time>2026-04-18T06:38:01.51Z</time></trkpt><trkpt lat="43.5223138" lon="10.7226333"><ele>50.0</ele><time>2026-04-18T06:38:03.541Z</time></trkpt><trkpt lat="43.5222325" lon="10.7227277"><ele>50.0</ele><time>2026-04-18T06:38:05.514Z</time></trkpt><trkpt lat="43.5221762" lon="10.7227779"><ele>50.0</ele><time>2026-04-18T06:38:06.548Z</time></trkpt><trkpt lat="43.5220748" lon="10.7228608"><ele>50.0</ele><time>2026-04-18T06:38:08.525Z</time></trkpt><trkpt lat="43.5219812" lon="10.7229484"><ele>50.0</ele><time>2026-04-18T06:38:10.523Z</time></trkpt><trkpt lat="43.5218875" lon="10.7230263"><ele>50.0</ele><time>2026-04-18T06:38:12.523Z</time></trkpt><trkpt lat="43.5217946" lon="10.7231057"><ele>50.0</ele><time>2026-04-18T06:38:14.497Z</time></trkpt><trkpt lat="43.5216962" lon="10.7231901"><ele>50.0</ele><time>2026-04-18T06:38:16.502Z</time></trkpt><trkpt lat="43.5216457" lon="10.7232462"><ele>50.00000000000001</ele><time>2026-04-18T06:38:17.512Z</time></trkpt><trkpt lat="43.5215846" lon="10.7233084"><ele>50.0</ele><time>2026-04-18T06:38:18.51Z</time></trkpt><trkpt lat="43.5215332" lon="10.7233663"><ele>50.0</ele><time>2026-04-18T06:38:19.501Z</time></trkpt><trkpt lat="43.5214708" lon="10.7234666"><ele>50.0</ele><time>2026-04-18T06:38:20.525Z</time></trkpt><trkpt lat="43.5214106" lon="10.723534"><ele>50.00000000000001</ele><time>2026-04-18T06:38:21.515Z</time></trkpt><trkpt lat="43.5213577" lon="10.7236134"><ele>50.0</ele><time>2026-04-18T06:38:22.502Z</time></trkpt><trkpt lat="43.5212865" lon="10.7237304"><ele>49.4</ele><time>2026-04-18T06:38:24.525Z</time></trkpt><trkpt lat="43.5212168" lon="10.7238452"><ele>48.8</ele><time>2026-04-18T06:38:26.496Z</time></trkpt><trkpt lat="43.5211755" lon="10.7239419"><ele>48.2</ele><time>2026-04-18T06:38:28.531Z</time></trkpt><trkpt lat="43.521129" lon="10.724036"><ele>47.6</ele><time>2026-04-18T06:38:31.507Z</time></trkpt><trkpt lat="43.5210718" lon="10.7241115"><ele>47.0</ele><time>2026-04-18T06:38:33.5Z</time></trkpt><trkpt lat="43.5210099" lon="10.7242324"><ele>47.0</ele><time>2026-04-18T06:38:35.5Z</time></trkpt><trkpt lat="43.5209665" lon="10.7243021"><ele>47.0</ele><time>2026-04-18T06:38:36.498Z</time></trkpt><trkpt lat="43.5209252" lon="10.7243863"><ele>47.0</ele><time>2026-04-18T06:38:37.514Z</time></trkpt><trkpt lat="43.520878" lon="10.7244576"><ele>47.0</ele><time>2026-04-18T06:38:38.501Z</time></trkpt><trkpt lat="43.520804" lon="10.7246031"><ele>47.0</ele><time>2026-04-18T06:38:40.501Z</time></trkpt><trkpt lat="43.5207734" lon="10.7246899"><ele>47.0</ele><time>2026-04-18T06:38:41.516Z</time></trkpt><trkpt lat="43.5207629" lon="10.7247865"><ele>47.14285714285714</ele><time>2026-04-18T06:38:42.51Z</time></trkpt><trkpt lat="43.520771" lon="10.7248858"><ele>47.285714285714285</ele><time>2026-04-18T06:38:43.511Z</time></trkpt><trkpt lat="43.5207851" lon="10.724978"><ele>47.42857142857143</ele><time>2026-04-18T06:38:44.511Z</time></trkpt><trkpt lat="43.5207896" lon="10.725085"><ele>47.57142857142857</ele><time>2026-04-18T06:38:45.503Z</time></trkpt><trkpt lat="43.5208013" lon="10.7251909"><ele>47.714285714285715</ele><time>2026-04-18T06:38:46.499Z</time></trkpt><trkpt lat="43.5207995" lon="10.7252898"><ele>47.857142857142854</ele><time>2026-04-18T06:38:47.505Z</time></trkpt><trkpt lat="43.520801" lon="10.7253983"><ele>48.0</ele><time>2026-04-18T06:38:48.501Z</time></trkpt><trkpt lat="43.5208094" lon="10.7254925"><ele>48.166666666666664</ele><time>2026-04-18T06:38:49.513Z</time></trkpt><trkpt lat="43.5208265" lon="10.7256014"><ele>48.33333333333333</ele><time>2026-04-18T06:38:50.505Z</time></trkpt><trkpt lat="43.5208425" lon="10.7257016"><ele>48.5</ele><time>2026-04-18T06:38:51.509Z</time></trkpt><trkpt lat="43.5208736" lon="10.7258058"><ele>48.666666666666664</ele><time>2026-04-18T06:38:52.505Z</time></trkpt><trkpt lat="43.5209003" lon="10.7259091"><ele>48.83333333333333</ele><time>2026-04-18T06:38:53.504Z</time></trkpt><trkpt lat="43.5209237" lon="10.7260116"><ele>49.0</ele><time>2026-04-18T06:38:54.518Z</time></trkpt><trkpt lat="43.5209486" lon="10.7261031"><ele>49.33333333333333</ele><time>2026-04-18T06:38:55.51Z</time></trkpt><trkpt lat="43.5209724" lon="10.7262538"><ele>49.666666666666664</ele><time>2026-04-18T06:38:57.509Z</time></trkpt><trkpt lat="43.5209166" lon="10.7263531"><ele>50.0</ele><time>2026-04-18T06:38:59.51Z</time></trkpt><trkpt lat="43.5208362" lon="10.7264245"><ele>50.33333333333333</ele><time>2026-04-18T06:39:01.496Z</time></trkpt><trkpt lat="43.5207655" lon="10.7264859"><ele>50.666666666666664</ele><time>2026-04-18T06:39:03.506Z</time></trkpt><trkpt lat="43.5207099" lon="10.7265276"><ele>51.0</ele><time>2026-04-18T06:39:05.509Z</time></trkpt><trkpt lat="43.5206321" lon="10.7265451"><ele>51.0</ele><time>2026-04-18T06:39:08.501Z</time></trkpt><trkpt lat="43.520569" lon="10.7265641"><ele>51.0</ele><time>2026-04-18T06:39:10.499Z</time></trkpt><trkpt lat="43.5204855" lon="10.7266236"><ele>51.0</ele><time>2026-04-18T06:39:12.513Z</time></trkpt><trkpt lat="43.5204052" lon="10.7267123"><ele>51.0</ele><time>2026-04-18T06:39:14.496Z</time></trkpt><trkpt lat="43.5203338" lon="10.7267816"><ele>51.0</ele><time>2026-04-18T06:39:16.496Z</time></trkpt><trkpt lat="43.520259" lon="10.7268542"><ele>51.0</ele><time>2026-04-18T06:39:18.511Z</time></trkpt><trkpt lat="43.5201893" lon="10.7269169"><ele>51.0</ele><time>2026-04-18T06:39:20.519Z</time></trkpt><trkpt lat="43.5201067" lon="10.7270036"><ele>51.0</ele><time>2026-04-18T06:39:22.512Z</time></trkpt><trkpt lat="43.5200404" lon="10.727068"><ele>51.0</ele><time>2026-04-18T06:39:24.512Z</time></trkpt><trkpt lat="43.5199769" lon="10.7271312"><ele>51.0</ele><time>2026-04-18T06:39:26.511Z</time></trkpt><trkpt lat="43.5199219" lon="10.7271773"><ele>51.0</ele><time>2026-04-18T06:39:28.537Z</time></trkpt><trkpt lat="43.519868" lon="10.7272449"><ele>51.0</ele><time>2026-04-18T06:39:30.524Z</time></trkpt><trkpt lat="43.5198097" lon="10.7273054"><ele>51.0</ele><time>2026-04-18T06:39:32.516Z</time></trkpt><trkpt lat="43.5197532" lon="10.7273602"><ele>51.0</ele><time>2026-04-18T06:39:34.499Z</time></trkpt><trkpt lat="43.5197031" lon="10.7274289"><ele>51.0</ele><time>2026-04-18T06:39:36.531Z</time></trkpt><trkpt lat="43.5196722" lon="10.7275226"><ele>51.0</ele><time>2026-04-18T06:39:40.508Z</time></trkpt><trkpt lat="43.5196445" lon="10.7276254"><ele>51.0</ele><time>2026-04-18T06:39:43.508Z</time></trkpt><trkpt lat="43.5196479" lon="10.7277212"><ele>51.0</ele><time>2026-04-18T06:39:48.508Z</time></trkpt><trkpt lat="43.5196429" lon="10.7278149"><ele>51.0</ele><time>2026-04-18T06:39:53.514Z</time></trkpt><trkpt lat="43.5196381" lon="10.7279224"><ele>51.833333333333336</ele><time>2026-04-18T06:39:56.501Z</time></trkpt><trkpt lat="43.5196302" lon="10.7280169"><ele>52.66666666666667</ele><time>2026-04-18T06:39:58.507Z</time></trkpt><trkpt lat="43.5196266" lon="10.7281349"><ele>53.5</ele><time>2026-04-18T06:40:00.514Z</time></trkpt><trkpt lat="43.5196218" lon="10.7282456"><ele>54.333333333333336</ele><time>2026-04-18T06:40:02.507Z</time></trkpt><trkpt lat="43.5195977" lon="10.7283384"><ele>55.16666666666667</ele><time>2026-04-18T06:40:04.509Z</time></trkpt><trkpt lat="43.5195839" lon="10.72843"><ele>56.0</ele><time>2026-04-18T06:40:06.512Z</time></trkpt><trkpt lat="43.5195731" lon="10.7285339"><ele>55.50000000000001</ele><time>2026-04-18T06:40:08.512Z</time></trkpt><trkpt lat="43.5195649" lon="10.7286259"><ele>55.0</ele><time>2026-04-18T06:40:09.507Z</time></trkpt><trkpt lat="43.5195809" lon="10.7287503"><ele>54.5</ele><time>2026-04-18T06:40:11.516Z</time></trkpt><trkpt lat="43.5195941" lon="10.7288849"><ele>54.0</ele><time>2026-04-18T06:40:13.51Z</time></trkpt><trkpt lat="43.5196155" lon="10.7290069"><ele>53.50000000000001</ele><time>2026-04-18T06:40:15.513Z</time></trkpt><trkpt lat="43.5196337" lon="10.729136"><ele>53.0</ele><time>2026-04-18T06:40:17.521Z</time></trkpt><trkpt lat="43.5196538" lon="10.7292613"><ele>54.16666666666667</ele><time>2026-04-18T06:40:19.508Z</time></trkpt><trkpt lat="43.5196623" lon="10.7293762"><ele>55.333333333333336</ele><time>2026-04-18T06:40:21.496Z</time></trkpt><trkpt lat="43.519679" lon="10.7294821"><ele>56.5</ele><time>2026-04-18T06:40:24.515Z</time></trkpt><trkpt lat="43.5196875" lon="10.7295928"><ele>57.66666666666667</ele><time>2026-04-18T06:40:27.509Z</time></trkpt><trkpt lat="43.5196893" lon="10.729699"><ele>58.833333333333336</ele><time>2026-04-18T06:40:30.502Z</time></trkpt><trkpt lat="43.5196671" lon="10.7298118"><ele>60.0</ele><time>2026-04-18T06:40:33.509Z</time></trkpt><trkpt lat="43.5196436" lon="10.7299219"><ele>60.333333333333336</ele><time>2026-04-18T06:40:36.512Z</time></trkpt><trkpt lat="43.5196126" lon="10.730038"><ele>60.66666666666667</ele><time>2026-04-18T06:40:39.522Z</time></trkpt><trkpt lat="43.5195762" lon="10.7301233"><ele>61.0</ele><time>2026-04-18T06:40:42.493Z</time></trkpt><trkpt lat="43.5195805" lon="10.7302373"><ele>61.333333333333336</ele><time>2026-04-18T06:40:46.503Z</time></trkpt><trkpt lat="43.519576" lon="10.7303742"><ele>61.66666666666667</ele><time>2026-04-18T06:40:50.504Z</time></trkpt><trkpt lat="43.5195828" lon="10.7304774"><ele>62.0</ele><time>2026-04-18T06:40:53.501Z</time></trkpt><trkpt lat="43.5195903" lon="10.7305793"><ele>62.833333333333336</ele><time>2026-04-18T06:40:56.499Z</time></trkpt><trkpt lat="43.5195987" lon="10.730688"><ele>63.66666666666667</ele><time>2026-04-18T06:40:59.492Z</time></trkpt><trkpt lat="43.5196114" lon="10.7308181"><ele>64.5</ele><time>2026-04-18T06:41:02.498Z</time></trkpt><trkpt lat="43.5196296" lon="10.7309118"><ele>65.33333333333333</ele><time>2026-04-18T06:41:04.537Z</time></trkpt><trkpt lat="43.5196324" lon="10.7310244"><ele>66.16666666666666</ele><time>2026-04-18T06:41:07.497Z</time></trkpt><trkpt lat="43.5196456" lon="10.7311202"><ele>67.0</ele><time>2026-04-18T06:41:10.511Z</time></trkpt><trkpt lat="43.5196601" lon="10.7312231"><ele>69.0</ele><time>2026-04-18T06:41:13.514Z</time></trkpt><trkpt lat="43.5196764" lon="10.7313402"><ele>71.0</ele><time>2026-04-18T06:41:17.508Z</time></trkpt><trkpt lat="43.5196792" lon="10.7314398"><ele>73.0</ele><time>2026-04-18T06:41:20.498Z</time></trkpt><trkpt lat="43.5197121" lon="10.7315316"><ele>75.0</ele><time>2026-04-18T06:41:23.51Z</time></trkpt><trkpt lat="43.5197406" lon="10.7316279"><ele>77.0</ele><time>2026-04-18T06:41:27.506Z</time></trkpt><trkpt lat="43.5197619" lon="10.7317205"><ele>79.0</ele><time>2026-04-18T06:41:30.509Z</time></trkpt><trkpt lat="43.5197815" lon="10.7318287"><ele>80.16666666666666</ele><time>2026-04-18T06:41:33.519Z</time></trkpt><trkpt lat="43.5198061" lon="10.7319302"><ele>81.33333333333333</ele><time>2026-04-18T06:41:37.503Z</time></trkpt><trkpt lat="43.5198282" lon="10.7320516"><ele>82.5</ele><time>2026-04-18T06:41:40.511Z</time></trkpt><trkpt lat="43.5198502" lon="10.7321778"><ele>83.66666666666667</ele><time>2026-04-18T06:41:43.502Z</time></trkpt><trkpt lat="43.5198584" lon="10.7322678"><ele>84.83333333333334</ele><time>2026-04-18T06:41:45.533Z</time></trkpt><trkpt lat="43.5198624" lon="10.7323603"><ele>86.0</ele><time>2026-04-18T06:41:47.506Z</time></trkpt><trkpt lat="43.5198654" lon="10.7324763"><ele>86.0</ele><time>2026-04-18T06:41:49.501Z</time></trkpt><trkpt lat="43.5198619" lon="10.732586"><ele>86.0</ele><time>2026-04-18T06:41:51.503Z</time></trkpt><trkpt lat="43.5198475" lon="10.7327111"><ele>86.0</ele><time>2026-04-18T06:41:54.503Z</time></trkpt><trkpt lat="43.519845" lon="10.7328326"><ele>86.0</ele><time>2026-04-18T06:41:57.501Z</time></trkpt><trkpt lat="43.5198603" lon="10.7329231"><ele>86.0</ele><time>2026-04-18T06:41:59.506Z</time></trkpt><trkpt lat="43.519879" lon="10.7330498"><ele>86.0</ele><time>2026-04-18T06:42:02.504Z</time></trkpt><trkpt lat="43.5198888" lon="10.7331392"><ele>87.42857142857143</ele><time>2026-04-18T06:42:04.514Z</time></trkpt><trkpt lat="43.5198904" lon="10.7332382"><ele>88.85714285714286</ele><time>2026-04-18T06:42:06.505Z</time></trkpt><trkpt lat="43.5198994" lon="10.7333309"><ele>90.28571428571428</ele><time>2026-04-18T06:42:08.514Z</time></trkpt><trkpt lat="43.5199058" lon="10.7334258"><ele>91.71428571428572</ele><time>2026-04-18T06:42:10.501Z</time></trkpt><trkpt lat="43.5198921" lon="10.7335299"><ele>93.14285714285714</ele><time>2026-04-18T06:42:12.506Z</time></trkpt><trkpt lat="43.5198655" lon="10.7336524"><ele>94.57142857142857</ele><time>2026-04-18T06:42:14.5Z</time></trkpt><trkpt lat="43.5198551" lon="10.7337424"><ele>96.0</ele><time>2026-04-18T06:42:16.504Z</time></trkpt><trkpt lat="43.5198486" lon="10.733839"><ele>96.33333333333333</ele><time>2026-04-18T06:42:18.507Z</time></trkpt><trkpt lat="43.5198322" lon="10.7340022"><ele>96.66666666666666</ele><time>2026-04-18T06:42:20.502Z</time></trkpt><trkpt lat="43.5198175" lon="10.7341315"><ele>97.0</ele><time>2026-04-18T06:42:22.521Z</time></trkpt><trkpt lat="43.5198131" lon="10.7342272"><ele>97.33333333333333</ele><time>2026-04-18T06:42:24.506Z</time></trkpt><trkpt lat="43.5198364" lon="10.7343185"><ele>97.66666666666666</ele><time>2026-04-18T06:42:26.525Z</time></trkpt><trkpt lat="43.5198946" lon="10.7343781"><ele>98.0</ele><time>2026-04-18T06:42:28.512Z</time></trkpt><trkpt lat="43.5199685" lon="10.7344214"><ele>97.99999999999999</ele><time>2026-04-18T06:42:30.503Z</time></trkpt><trkpt lat="43.5200387" lon="10.7344709"><ele>98.0</ele><time>2026-04-18T06:42:32.506Z</time></trkpt><trkpt lat="43.5201271" lon="10.7345239"><ele>98.0</ele><time>2026-04-18T06:42:34.502Z</time></trkpt><trkpt lat="43.5201848" lon="10.7345713"><ele>98.0</ele><time>2026-04-18T06:42:35.514Z</time></trkpt><trkpt lat="43.5202406" lon="10.7346184"><ele>97.99999999999999</ele><time>2026-04-18T06:42:36.511Z</time></trkpt><trkpt lat="43.5202993" lon="10.7346628"><ele>98.0</ele><time>2026-04-18T06:42:37.501Z</time></trkpt><trkpt lat="43.5203903" lon="10.734743"><ele>100.80000000000001</ele><time>2026-04-18T06:42:39.51Z</time></trkpt><trkpt lat="43.5204843" lon="10.7348251"><ele>103.6</ele><time>2026-04-18T06:42:41.509Z</time></trkpt><trkpt lat="43.5205809" lon="10.7349297"><ele>106.39999999999999</ele><time>2026-04-18T06:42:43.504Z</time></trkpt><trkpt lat="43.5206568" lon="10.7350113"><ele>109.19999999999999</ele><time>2026-04-18T06:42:45.508Z</time></trkpt><trkpt lat="43.5207106" lon="10.7351434"><ele>112.0</ele><time>2026-04-18T06:42:47.508Z</time></trkpt><trkpt lat="43.5207538" lon="10.7352878"><ele>112.50000000000001</ele><time>2026-04-18T06:42:49.514Z</time></trkpt><trkpt lat="43.520817" lon="10.7354205"><ele>113.0</ele><time>2026-04-18T06:42:51.513Z</time></trkpt><trkpt lat="43.5208976" lon="10.7355054"><ele>113.5</ele><time>2026-04-18T06:42:53.505Z</time></trkpt><trkpt lat="43.5209514" lon="10.7355723"><ele>114.0</ele><time>2026-04-18T06:42:55.497Z</time></trkpt><trkpt lat="43.521005" lon="10.7356299"><ele>114.50000000000001</ele><time>2026-04-18T06:42:58.504Z</time></trkpt><trkpt lat="43.5210515" lon="10.7356886"><ele>115.0</ele><time>2026-04-18T06:43:00.501Z</time></trkpt><trkpt lat="43.5211201" lon="10.7357426"><ele>115.00000000000001</ele><time>2026-04-18T06:43:03.504Z</time></trkpt><trkpt lat="43.5211977" lon="10.7358086"><ele>115.0</ele><time>2026-04-18T06:43:06.494Z</time></trkpt><trkpt lat="43.5212536" lon="10.7358539"><ele>115.0</ele><time>2026-04-18T06:43:08.499Z</time></trkpt><trkpt lat="43.5213102" lon="10.735898"><ele>115.0</ele><time>2026-04-18T06:43:11.495Z</time></trkpt><trkpt lat="43.5213661" lon="10.735952"><ele>115.00000000000001</ele><time>2026-04-18T06:43:14.501Z</time></trkpt><trkpt lat="43.521428" lon="10.7360225"><ele>115.0</ele><time>2026-04-18T06:43:17.5Z</time></trkpt><trkpt lat="43.5214987" lon="10.7360996"><ele>118.16666666666667</ele><time>2026-04-18T06:43:20.503Z</time></trkpt><trkpt lat="43.5215649" lon="10.7361515"><ele>121.33333333333334</ele><time>2026-04-18T06:43:22.502Z</time></trkpt><trkpt lat="43.5216208" lon="10.7362297"><ele>124.5</ele><time>2026-04-18T06:43:24.497Z</time></trkpt><trkpt lat="43.5216616" lon="10.7362996"><ele>127.66666666666666</ele><time>2026-04-18T06:43:26.493Z</time></trkpt><trkpt lat="43.5217204" lon="10.7363747"><ele>130.83333333333331</ele><time>2026-04-18T06:43:28.506Z</time></trkpt><trkpt lat="43.5217674" lon="10.7364856"><ele>134.0</ele><time>2026-04-18T06:43:30.502Z</time></trkpt><trkpt lat="43.5218302" lon="10.736596"><ele>134.0</ele><time>2026-04-18T06:43:32.492Z</time></trkpt><trkpt lat="43.5219114" lon="10.7367282"><ele>134.0</ele><time>2026-04-18T06:43:34.502Z</time></trkpt><trkpt lat="43.5219607" lon="10.736787"><ele>134.0</ele><time>2026-04-18T06:43:35.499Z</time></trkpt><trkpt lat="43.5220131" lon="10.7368571"><ele>134.0</ele><time>2026-04-18T06:43:36.508Z</time></trkpt><trkpt lat="43.5220634" lon="10.7369124"><ele>134.0</ele><time>2026-04-18T06:43:37.503Z</time></trkpt><trkpt lat="43.5221075" lon="10.7369943"><ele>134.0</ele><time>2026-04-18T06:43:39.503Z</time></trkpt><trkpt lat="43.5221186" lon="10.737134"><ele>133.6</ele><time>2026-04-18T06:43:42.501Z</time></trkpt><trkpt lat="43.5220876" lon="10.7372994"><ele>133.2</ele><time>2026-04-18T06:43:44.502Z</time></trkpt><trkpt lat="43.5220627" lon="10.7373925"><ele>132.79999999999998</ele><time>2026-04-18T06:43:45.502Z</time></trkpt><trkpt lat="43.5220301" lon="10.7375017"><ele>132.4</ele><time>2026-04-18T06:43:46.506Z</time></trkpt><trkpt lat="43.5219951" lon="10.7376111"><ele>132.0</ele><time>2026-04-18T06:43:47.503Z</time></trkpt><trkpt lat="43.521945" lon="10.7377076"><ele>134.4</ele><time>2026-04-18T06:43:48.501Z</time></trkpt><trkpt lat="43.5218806" lon="10.7377966"><ele>136.79999999999998</ele><time>2026-04-18T06:43:49.497Z</time></trkpt><trkpt lat="43.5218219" lon="10.7378539"><ele>139.2</ele><time>2026-04-18T06:43:50.512Z</time></trkpt><trkpt lat="43.5217401" lon="10.7379325"><ele>141.6</ele><time>2026-04-18T06:43:52.503Z</time></trkpt><trkpt lat="43.5217285" lon="10.7380495"><ele>144.0</ele><time>2026-04-18T06:43:54.505Z</time></trkpt><trkpt lat="43.521767" lon="10.7382043"><ele>144.0</ele><time>2026-04-18T06:43:56.501Z</time></trkpt><trkpt lat="43.5217735" lon="10.7382994"><ele>144.0</ele><time>2026-04-18T06:43:57.5Z</time></trkpt><trkpt lat="43.5217963" lon="10.7384032"><ele>144.0</ele><time>2026-04-18T06:43:58.509Z</time></trkpt><trkpt lat="43.521817" lon="10.7385206"><ele>144.0</ele><time>2026-04-18T06:43:59.519Z</time></trkpt><trkpt lat="43.5218437" lon="10.7386664"><ele>144.0</ele><time>2026-04-18T06:44:00.511Z</time></trkpt><trkpt lat="43.5218817" lon="10.7388197"><ele>144.0</ele><time>2026-04-18T06:44:01.509Z</time></trkpt><trkpt lat="43.5219284" lon="10.7389497"><ele>144.0</ele><time>2026-04-18T06:44:02.502Z</time></trkpt><trkpt lat="43.5219886" lon="10.739099"><ele>144.0</ele><time>2026-04-18T06:44:03.503Z</time></trkpt><trkpt lat="43.5220496" lon="10.7392291"><ele>144.0</ele><time>2026-04-18T06:44:04.508Z</time></trkpt><trkpt lat="43.5220881" lon="10.7393566"><ele>144.0</ele><time>2026-04-18T06:44:05.507Z</time></trkpt><trkpt lat="43.5221377" lon="10.739493"><ele>147.0</ele><time>2026-04-18T06:44:06.495Z</time></trkpt><trkpt lat="43.5221938" lon="10.7396322"><ele>150.0</ele><time>2026-04-18T06:44:07.502Z</time></trkpt><trkpt lat="43.5222473" lon="10.7397792"><ele>153.0</ele><time>2026-04-18T06:44:08.498Z</time></trkpt><trkpt lat="43.5223037" lon="10.7399272"><ele>156.0</ele><time>2026-04-18T06:44:09.496Z</time></trkpt><trkpt lat="43.522357" lon="10.7400799"><ele>157.0</ele><time>2026-04-18T06:44:10.518Z</time></trkpt><trkpt lat="43.5224194" lon="10.7402375"><ele>158.0</ele><time>2026-04-18T06:44:11.496Z</time></trkpt><trkpt lat="43.5224928" lon="10.7403831"><ele>159.0</ele><time>2026-04-18T06:44:12.508Z</time></trkpt><trkpt lat="43.5225524" lon="10.7405341"><ele>160.0</ele><time>2026-04-18T06:44:13.497Z</time></trkpt><trkpt lat="43.5226094" lon="10.7406581"><ele>160.0</ele><time>2026-04-18T06:44:14.497Z</time></trkpt><trkpt lat="43.5226546" lon="10.7407793"><ele>160.0</ele><time>2026-04-18T06:44:15.503Z</time></trkpt><trkpt lat="43.5227039" lon="10.7409016"><ele>160.0</ele><time>2026-04-18T06:44:16.494Z</time></trkpt><trkpt lat="43.5227575" lon="10.7410212"><ele>160.0</ele><time>2026-04-18T06:44:17.5Z</time></trkpt><trkpt lat="43.5228208" lon="10.741142"><ele>160.0</ele><time>2026-04-18T06:44:18.504Z</time></trkpt><trkpt lat="43.5228819" lon="10.7412527"><ele>159.8</ele><time>2026-04-18T06:44:19.496Z</time></trkpt><trkpt lat="43.5229549" lon="10.7413456"><ele>159.6</ele><time>2026-04-18T06:44:20.498Z</time></trkpt><trkpt lat="43.5230253" lon="10.7414393"><ele>159.4</ele><time>2026-04-18T06:44:21.504Z</time></trkpt><trkpt lat="43.5231051" lon="10.7415165"><ele>159.2</ele><time>2026-04-18T06:44:22.512Z</time></trkpt><trkpt lat="43.5231879" lon="10.7416014"><ele>159.0</ele><time>2026-04-18T06:44:23.51Z</time></trkpt><trkpt lat="43.5232731" lon="10.7416979"><ele>159.0</ele><time>2026-04-18T06:44:24.51Z</time></trkpt><trkpt lat="43.5233517" lon="10.7417767"><ele>159.0</ele><time>2026-04-18T06:44:25.507Z</time></trkpt><trkpt lat="43.523431" lon="10.7418536"><ele>159.0</ele><time>2026-04-18T06:44:26.503Z</time></trkpt><trkpt lat="43.5235073" lon="10.7419198"><ele>159.0</ele><time>2026-04-18T06:44:27.506Z</time></trkpt><trkpt lat="43.5235834" lon="10.7419792"><ele>159.0</ele><time>2026-04-18T06:44:28.499Z</time></trkpt><trkpt lat="43.5236699" lon="10.7420169"><ele>159.6</ele><time>2026-04-18T06:44:29.513Z</time></trkpt><trkpt lat="43.5237524" lon="10.7420217"><ele>160.2</ele><time>2026-04-18T06:44:30.502Z</time></trkpt><trkpt lat="43.523835" lon="10.7419947"><ele>160.79999999999998</ele><time>2026-04-18T06:44:31.507Z</time></trkpt><trkpt lat="43.5239228" lon="10.7419537"><ele>161.4</ele><time>2026-04-18T06:44:32.508Z</time></trkpt><trkpt lat="43.5240109" lon="10.7419025"><ele>162.0</ele><time>2026-04-18T06:44:33.513Z</time></trkpt><trkpt lat="43.5241165" lon="10.7418524"><ele>162.6</ele><time>2026-04-18T06:44:34.508Z</time></trkpt><trkpt lat="43.5242211" lon="10.7418064"><ele>163.2</ele><time>2026-04-18T06:44:35.505Z</time></trkpt><trkpt lat="43.5243267" lon="10.7417612"><ele>163.8</ele><time>2026-04-18T06:44:36.502Z</time></trkpt><trkpt lat="43.5244326" lon="10.7417113"><ele>164.4</ele><time>2026-04-18T06:44:37.506Z</time></trkpt><trkpt lat="43.5245183" lon="10.7416844"><ele>165.0</ele><time>2026-04-18T06:44:38.505Z</time></trkpt><trkpt lat="43.5245998" lon="10.7416599"><ele>166.16666666666666</ele><time>2026-04-18T06:44:39.518Z</time></trkpt><trkpt lat="43.5246797" lon="10.7416638"><ele>167.33333333333334</ele><time>2026-04-18T06:44:40.516Z</time></trkpt><trkpt lat="43.5247551" lon="10.741689"><ele>168.5</ele><time>2026-04-18T06:44:41.509Z</time></trkpt><trkpt lat="43.5248406" lon="10.7416834"><ele>169.66666666666669</ele><time>2026-04-18T06:44:42.516Z</time></trkpt><trkpt lat="43.5249303" lon="10.741665"><ele>170.83333333333334</ele><time>2026-04-18T06:44:43.512Z</time></trkpt><trkpt lat="43.5250207" lon="10.7416664"><ele>172.0</ele><time>2026-04-18T06:44:44.514Z</time></trkpt><trkpt lat="43.5251212" lon="10.7416568"><ele>172.0</ele><time>2026-04-18T06:44:45.511Z</time></trkpt><trkpt lat="43.5252229" lon="10.7416477"><ele>172.0</ele><time>2026-04-18T06:44:46.504Z</time></trkpt><trkpt lat="43.525309" lon="10.7416448"><ele>172.0</ele><time>2026-04-18T06:44:47.515Z</time></trkpt><trkpt lat="43.5253889" lon="10.7416094"><ele>172.0</ele><time>2026-04-18T06:44:48.511Z</time></trkpt><trkpt lat="43.5254585" lon="10.7415699"><ele>172.0</ele><time>2026-04-18T06:44:49.498Z</time></trkpt><trkpt lat="43.5255281" lon="10.7415231"><ele>172.0</ele><time>2026-04-18T06:44:50.498Z</time></trkpt><trkpt lat="43.5256006" lon="10.7414659"><ele>171.5</ele><time>2026-04-18T06:44:51.506Z</time></trkpt><trkpt lat="43.5256774" lon="10.7414107"><ele>171.0</ele><time>2026-04-18T06:44:52.507Z</time></trkpt><trkpt lat="43.5257455" lon="10.7413466"><ele>170.5</ele><time>2026-04-18T06:44:53.508Z</time></trkpt><trkpt lat="43.5258054" lon="10.7413119"><ele>170.0</ele><time>2026-04-18T06:44:54.495Z</time></trkpt><trkpt lat="43.5258966" lon="10.7412411"><ele>169.5</ele><time>2026-04-18T06:44:56.501Z</time></trkpt><trkpt lat="43.5259559" lon="10.7412842"><ele>169.0</ele><time>2026-04-18T06:44:58.505Z</time></trkpt><trkpt lat="43.5260371" lon="10.7413955"><ele>169.0</ele><time>2026-04-18T06:45:00.498Z</time></trkpt><trkpt lat="43.5261384" lon="10.7414797"><ele>169.0</ele><time>2026-04-18T06:45:02.507Z</time></trkpt><trkpt lat="43.5262002" lon="10.7415411"><ele>169.0</ele><time>2026-04-18T06:45:03.495Z</time></trkpt><trkpt lat="43.526264" lon="10.7416103"><ele>169.0</ele><time>2026-04-18T06:45:04.505Z</time></trkpt><trkpt lat="43.5263185" lon="10.7416569"><ele>169.0</ele><time>2026-04-18T06:45:05.5Z</time></trkpt><trkpt lat="43.5263825" lon="10.7417319"><ele>169.0</ele><time>2026-04-18T06:45:06.499Z</time></trkpt><trkpt lat="43.5264547" lon="10.7418216"><ele>169.39999999999998</ele><time>2026-04-18T06:45:07.518Z</time></trkpt><trkpt lat="43.5265233" lon="10.7419373"><ele>169.8</ele><time>2026-04-18T06:45:08.504Z</time></trkpt><trkpt lat="43.5265997" lon="10.7420476"><ele>170.2</ele><time>2026-04-18T06:45:09.513Z</time></trkpt><trkpt lat="43.5266658" lon="10.7421503"><ele>170.60000000000002</ele><time>2026-04-18T06:45:10.505Z</time></trkpt><trkpt lat="43.5267338" lon="10.74225"><ele>171.0</ele><time>2026-04-18T06:45:11.508Z</time></trkpt><trkpt lat="43.5268071" lon="10.742347"><ele>171.0</ele><time>2026-04-18T06:45:12.498Z</time></trkpt><trkpt lat="43.5268748" lon="10.7424582"><ele>171.0</ele><time>2026-04-18T06:45:13.514Z</time></trkpt><trkpt lat="43.5269435" lon="10.7425748"><ele>171.0</ele><time>2026-04-18T06:45:14.5Z</time></trkpt><trkpt lat="43.5269974" lon="10.7426909"><ele>171.0</ele><time>2026-04-18T06:45:15.504Z</time></trkpt><trkpt lat="43.5270208" lon="10.7428006"><ele>171.0</ele><time>2026-04-18T06:45:16.528Z</time></trkpt><trkpt lat="43.527053" lon="10.7429101"><ele>170.0</ele><time>2026-04-18T06:45:17.502Z</time></trkpt><trkpt lat="43.5270757" lon="10.7430046"><ele>169.0</ele><time>2026-04-18T06:45:18.499Z</time></trkpt><trkpt lat="43.5270966" lon="10.743089"><ele>168.0</ele><time>2026-04-18T06:45:19.507Z</time></trkpt><trkpt lat="43.527136" lon="10.7431849"><ele>167.0</ele><time>2026-04-18T06:45:20.499Z</time></trkpt><trkpt lat="43.5271742" lon="10.7432801"><ele>166.0</ele><time>2026-04-18T06:45:21.497Z</time></trkpt><trkpt lat="43.5272046" lon="10.743387"><ele>165.0</ele><time>2026-04-18T06:45:22.505Z</time></trkpt><trkpt lat="43.5272318" lon="10.7434803"><ele>166.0</ele><time>2026-04-18T06:45:23.516Z</time></trkpt><trkpt lat="43.5272592" lon="10.7435606"><ele>167.0</ele><time>2026-04-18T06:45:24.504Z</time></trkpt><trkpt lat="43.5273085" lon="10.743706"><ele>168.0</ele><time>2026-04-18T06:45:26.507Z</time></trkpt><trkpt lat="43.5273524" lon="10.7438529"><ele>169.0</ele><time>2026-04-18T06:45:28.511Z</time></trkpt><trkpt lat="43.5273926" lon="10.7439328"><ele>170.0</ele><time>2026-04-18T06:45:29.526Z</time></trkpt><trkpt lat="43.5274256" lon="10.7440078"><ele>171.0</ele><time>2026-04-18T06:45:30.506Z</time></trkpt><trkpt lat="43.5274841" lon="10.744088"><ele>171.0</ele><time>2026-04-18T06:45:32.513Z</time></trkpt><trkpt lat="43.5275337" lon="10.7441423"><ele>171.0</ele><time>2026-04-18T06:45:33.508Z</time></trkpt><trkpt lat="43.5276391" lon="10.7441967"><ele>171.0</ele><time>2026-04-18T06:45:35.519Z</time></trkpt><trkpt lat="43.5277431" lon="10.7442456"><ele>171.0</ele><time>2026-04-18T06:45:37.508Z</time></trkpt><trkpt lat="43.5278511" lon="10.7443185"><ele>171.0</ele><time>2026-04-18T06:45:39.526Z</time></trkpt><trkpt lat="43.5279397" lon="10.7444029"><ele>169.8</ele><time>2026-04-18T06:45:41.503Z</time></trkpt><trkpt lat="43.5280368" lon="10.7444728"><ele>168.60000000000002</ele><time>2026-04-18T06:45:43.51Z</time></trkpt><trkpt lat="43.5281078" lon="10.7445862"><ele>167.4</ele><time>2026-04-18T06:45:45.509Z</time></trkpt><trkpt lat="43.528157" lon="10.7447002"><ele>166.2</ele><time>2026-04-18T06:45:47.508Z</time></trkpt><trkpt lat="43.5282047" lon="10.7448385"><ele>165.0</ele><time>2026-04-18T06:45:49.516Z</time></trkpt><trkpt lat="43.5282861" lon="10.7449923"><ele>165.00000000000003</ele><time>2026-04-18T06:45:51.498Z</time></trkpt><trkpt lat="43.5283328" lon="10.7450575"><ele>165.0</ele><time>2026-04-18T06:45:52.508Z</time></trkpt><trkpt lat="43.5283847" lon="10.7451404"><ele>165.0</ele><time>2026-04-18T06:45:53.505Z</time></trkpt><trkpt lat="43.5284238" lon="10.7452211"><ele>165.0</ele><time>2026-04-18T06:45:54.519Z</time></trkpt><trkpt lat="43.5284709" lon="10.7453097"><ele>165.0</ele><time>2026-04-18T06:45:56.501Z</time></trkpt><trkpt lat="43.5285301" lon="10.7453472"><ele>165.00000000000003</ele><time>2026-04-18T06:46:00.512Z</time></trkpt><trkpt lat="43.5285944" lon="10.7453711"><ele>165.0</ele><time>2026-04-18T06:46:05.509Z</time></trkpt><trkpt lat="43.5286355" lon="10.7454559"><ele>164.00000000000003</ele><time>2026-04-18T06:46:07.509Z</time></trkpt><trkpt lat="43.5286785" lon="10.7455424"><ele>163.0</ele><time>2026-04-18T06:46:10.512Z</time></trkpt><trkpt lat="43.5287137" lon="10.745656"><ele>162.0</ele><time>2026-04-18T06:46:13.507Z</time></trkpt><trkpt lat="43.5286804" lon="10.7455776"><ele>161.0</ele><time>2026-04-18T06:46:25.508Z</time></trkpt><trkpt lat="43.5286343" lon="10.7454989"><ele>160.0</ele><time>2026-04-18T06:46:29.511Z</time></trkpt><trkpt lat="43.5285938" lon="10.7454127"><ele>159.00000000000003</ele><time>2026-04-18T06:46:34.509Z</time></trkpt><trkpt lat="43.5285269" lon="10.7454361"><ele>158.0</ele><time>2026-04-18T06:47:01.517Z</time></trkpt><trkpt lat="43.5285737" lon="10.7453549"><ele>158.0</ele><time>2026-04-18T06:47:30.504Z</time></trkpt><trkpt lat="43.5286396" lon="10.7453959"><ele>158.0</ele><time>2026-04-18T06:49:05.502Z</time></trkpt><trkpt lat="43.5286131" lon="10.7453059"><ele>158.0</ele><time>2026-04-18T06:49:13.528Z</time></trkpt><trkpt lat="43.5286973" lon="10.7452876"><ele>158.0</ele><time>2026-04-18T06:49:47.503Z</time></trkpt><trkpt lat="43.5287667" lon="10.7452647"><ele>158.0</ele><time>2026-04-18T06:49:49.528Z</time></trkpt><trkpt lat="43.528833" lon="10.745243"><ele>158.0</ele><time>2026-04-18T06:49:51.49Z</time></trkpt><trkpt lat="43.5289168" lon="10.7452337"><ele>158.00000000000003</ele><time>2026-04-18T06:49:54.563Z</time></trkpt><trkpt lat="43.5289851" lon="10.7452178"><ele>158.0</ele><time>2026-04-18T06:49:57.513Z</time></trkpt><trkpt lat="43.5290503" lon="10.7452028"><ele>158.0</ele><time>2026-04-18T06:50:00.517Z</time></trkpt><trkpt lat="43.5291197" lon="10.745169"><ele>158.0</ele><time>2026-04-18T06:50:03.549Z</time></trkpt><trkpt lat="43.529199" lon="10.7451405"><ele>158.0</ele><time>2026-04-18T06:50:06.501Z</time></trkpt><trkpt lat="43.5292691" lon="10.74514"><ele>158.00000000000003</ele><time>2026-04-18T06:50:09.497Z</time></trkpt><trkpt lat="43.5293527" lon="10.7451182"><ele>158.0</ele><time>2026-04-18T06:50:12.499Z</time></trkpt><trkpt lat="43.5294279" lon="10.7451445"><ele>158.00000000000003</ele><time>2026-04-18T06:50:15.5Z</time></trkpt><trkpt lat="43.5294834" lon="10.7451895"><ele>158.0</ele><time>2026-04-18T06:50:17.502Z</time></trkpt><trkpt lat="43.5295546" lon="10.7452235"><ele>158.0</ele><time>2026-04-18T06:50:20.511Z</time></trkpt><trkpt lat="43.5296265" lon="10.7452483"><ele>158.0</ele><time>2026-04-18T06:50:25.505Z</time></trkpt><trkpt lat="43.5297009" lon="10.7452879"><ele>158.0</ele><time>2026-04-18T06:50:29.501Z</time></trkpt><trkpt lat="43.5297613" lon="10.7452507"><ele>158.00000000000003</ele><time>2026-04-18T06:50:32.519Z</time></trkpt><trkpt lat="43.5298258" lon="10.7452091"><ele>158.0</ele><time>2026-04-18T06:50:34.499Z</time></trkpt><trkpt lat="43.5298965" lon="10.7451776"><ele>156.75</ele><time>2026-04-18T06:50:36.494Z</time></trkpt><trkpt lat="43.529994" lon="10.7451362"><ele>155.5</ele><time>2026-04-18T06:50:38.501Z</time></trkpt><trkpt lat="43.5300919" lon="10.7450795"><ele>154.25</ele><time>2026-04-18T06:50:40.51Z</time></trkpt><trkpt lat="43.5301953" lon="10.7449589"><ele>153.0</ele><time>2026-04-18T06:50:42.509Z</time></trkpt><trkpt lat="43.530302" lon="10.7448729"><ele>153.0</ele><time>2026-04-18T06:50:44.506Z</time></trkpt><trkpt lat="43.5303678" lon="10.7448356"><ele>153.0</ele><time>2026-04-18T06:50:45.502Z</time></trkpt><trkpt lat="43.5304403" lon="10.7448128"><ele>153.0</ele><time>2026-04-18T06:50:46.51Z</time></trkpt><trkpt lat="43.5305086" lon="10.7447835"><ele>153.0</ele><time>2026-04-18T06:50:47.512Z</time></trkpt><trkpt lat="43.5305744" lon="10.7447515"><ele>153.0</ele><time>2026-04-18T06:50:48.52Z</time></trkpt><trkpt lat="43.5306569" lon="10.7447131"><ele>153.0</ele><time>2026-04-18T06:50:49.515Z</time></trkpt><trkpt lat="43.5307339" lon="10.7446749"><ele>153.5</ele><time>2026-04-18T06:50:50.513Z</time></trkpt><trkpt lat="43.5307884" lon="10.7446259"><ele>154.0</ele><time>2026-04-18T06:50:51.503Z</time></trkpt><trkpt lat="43.5308434" lon="10.744538"><ele>154.5</ele><time>2026-04-18T06:50:52.516Z</time></trkpt><trkpt lat="43.5308802" lon="10.7444428"><ele>155.0</ele><time>2026-04-18T06:50:53.528Z</time></trkpt><trkpt lat="43.5308922" lon="10.7443412"><ele>155.5</ele><time>2026-04-18T06:50:54.54Z</time></trkpt><trkpt lat="43.5309001" lon="10.7442335"><ele>156.0</ele><time>2026-04-18T06:50:55.513Z</time></trkpt><trkpt lat="43.5309239" lon="10.7440739"><ele>156.0</ele><time>2026-04-18T06:50:57.51Z</time></trkpt><trkpt lat="43.5309281" lon="10.7439861"><ele>156.0</ele><time>2026-04-18T06:50:58.496Z</time></trkpt><trkpt lat="43.5309201" lon="10.7438401"><ele>156.0</ele><time>2026-04-18T06:51:00.51Z</time></trkpt><trkpt lat="43.5309136" lon="10.7436815"><ele>156.0</ele><time>2026-04-18T06:51:02.527Z</time></trkpt><trkpt lat="43.5309241" lon="10.7435211"><ele>156.0</ele><time>2026-04-18T06:51:04.495Z</time></trkpt><trkpt lat="43.5308972" lon="10.7433427"><ele>157.0</ele><time>2026-04-18T06:51:06.492Z</time></trkpt><trkpt lat="43.530863" lon="10.7432301"><ele>158.0</ele><time>2026-04-18T06:51:07.502Z</time></trkpt><trkpt lat="43.5308555" lon="10.7431378"><ele>159.0</ele><time>2026-04-18T06:51:08.508Z</time></trkpt><trkpt lat="43.5308695" lon="10.7430379"><ele>160.0</ele><time>2026-04-18T06:51:09.531Z</time></trkpt><trkpt lat="43.530884" lon="10.7429469"><ele>161.0</ele><time>2026-04-18T06:51:10.525Z</time></trkpt><trkpt lat="43.5309041" lon="10.7428638"><ele>162.0</ele><time>2026-04-18T06:51:11.499Z</time></trkpt><trkpt lat="43.5309344" lon="10.7426821"><ele>162.66666666666666</ele><time>2026-04-18T06:51:13.538Z</time></trkpt><trkpt lat="43.5309413" lon="10.7425937"><ele>163.33333333333334</ele><time>2026-04-18T06:51:17.517Z</time></trkpt><trkpt lat="43.5309326" lon="10.7425076"><ele>164.0</ele><time>2026-04-18T06:51:19.521Z</time></trkpt><trkpt lat="43.5309142" lon="10.7423582"><ele>164.66666666666669</ele><time>2026-04-18T06:51:21.515Z</time></trkpt><trkpt lat="43.5308873" lon="10.7422703"><ele>165.33333333333334</ele><time>2026-04-18T06:51:22.515Z</time></trkpt><trkpt lat="43.5308626" lon="10.7421663"><ele>166.0</ele><time>2026-04-18T06:51:23.505Z</time></trkpt><trkpt lat="43.5308374" lon="10.7420778"><ele>166.0</ele><time>2026-04-18T06:51:24.509Z</time></trkpt><trkpt lat="43.5308009" lon="10.7419767"><ele>166.0</ele><time>2026-04-18T06:51:25.537Z</time></trkpt><trkpt lat="43.5307613" lon="10.7418811"><ele>166.0</ele><time>2026-04-18T06:51:26.522Z</time></trkpt><trkpt lat="43.5307416" lon="10.741797"><ele>166.0</ele><time>2026-04-18T06:51:27.526Z</time></trkpt><trkpt lat="43.5307197" lon="10.7416549"><ele>166.0</ele><time>2026-04-18T06:51:29.497Z</time></trkpt><trkpt lat="43.5307095" lon="10.7415336"><ele>166.0</ele><time>2026-04-18T06:51:31.492Z</time></trkpt><trkpt lat="43.530716" lon="10.7414322"><ele>166.33333333333334</ele><time>2026-04-18T06:51:33.501Z</time></trkpt><trkpt lat="43.5307534" lon="10.7413115"><ele>166.66666666666669</ele><time>2026-04-18T06:51:35.503Z</time></trkpt><trkpt lat="43.5308066" lon="10.7411637"><ele>167.0</ele><time>2026-04-18T06:51:37.513Z</time></trkpt><trkpt lat="43.530838" lon="10.741087"><ele>167.33333333333334</ele><time>2026-04-18T06:51:38.491Z</time></trkpt><trkpt lat="43.5308589" lon="10.7409827"><ele>167.66666666666666</ele><time>2026-04-18T06:51:39.512Z</time></trkpt><trkpt lat="43.5308924" lon="10.74088"><ele>168.0</ele><time>2026-04-18T06:51:40.514Z</time></trkpt><trkpt lat="43.5309098" lon="10.7407695"><ele>168.0</ele><time>2026-04-18T06:51:41.514Z</time></trkpt><trkpt lat="43.5309399" lon="10.7406625"><ele>168.0</ele><time>2026-04-18T06:51:42.517Z</time></trkpt><trkpt lat="43.5309608" lon="10.7405566"><ele>168.0</ele><time>2026-04-18T06:51:43.509Z</time></trkpt><trkpt lat="43.5309866" lon="10.7404501"><ele>168.0</ele><time>2026-04-18T06:51:44.496Z</time></trkpt><trkpt lat="43.5310278" lon="10.7403467"><ele>168.0</ele><time>2026-04-18T06:51:45.512Z</time></trkpt><trkpt lat="43.5310666" lon="10.7402577"><ele>168.0</ele><time>2026-04-18T06:51:46.507Z</time></trkpt><trkpt lat="43.5311023" lon="10.7401671"><ele>168.2</ele><time>2026-04-18T06:51:47.525Z</time></trkpt><trkpt lat="43.5311085" lon="10.7399868"><ele>168.4</ele><time>2026-04-18T06:51:49.51Z</time></trkpt><trkpt lat="43.531115" lon="10.7398927"><ele>168.6</ele><time>2026-04-18T06:51:50.501Z</time></trkpt><trkpt lat="43.5311223" lon="10.7398054"><ele>168.79999999999998</ele><time>2026-04-18T06:51:51.506Z</time></trkpt><trkpt lat="43.5311832" lon="10.7396925"><ele>169.0</ele><time>2026-04-18T06:51:53.509Z</time></trkpt><trkpt lat="43.5312738" lon="10.7395941"><ele>166.79999999999998</ele><time>2026-04-18T06:51:55.505Z</time></trkpt><trkpt lat="43.5313389" lon="10.7395459"><ele>164.6</ele><time>2026-04-18T06:51:56.502Z</time></trkpt><trkpt lat="43.5314225" lon="10.7394196"><ele>162.4</ele><time>2026-04-18T06:51:58.526Z</time></trkpt><trkpt lat="43.5314584" lon="10.739331"><ele>160.2</ele><time>2026-04-18T06:51:59.522Z</time></trkpt><trkpt lat="43.5315222" lon="10.7392617"><ele>158.0</ele><time>2026-04-18T06:52:00.545Z</time></trkpt><trkpt lat="43.5316193" lon="10.7391445"><ele>158.0</ele><time>2026-04-18T06:52:02.54Z</time></trkpt><trkpt lat="43.5316736" lon="10.7390806"><ele>158.0</ele><time>2026-04-18T06:52:03.531Z</time></trkpt><trkpt lat="43.5317341" lon="10.7390132"><ele>158.0</ele><time>2026-04-18T06:52:04.486Z</time></trkpt><trkpt lat="43.5318763" lon="10.7388746"><ele>158.0</ele><time>2026-04-18T06:52:06.497Z</time></trkpt><trkpt lat="43.5319492" lon="10.7388271"><ele>158.0</ele><time>2026-04-18T06:52:07.503Z</time></trkpt><trkpt lat="43.5320269" lon="10.7388099"><ele>155.0</ele><time>2026-04-18T06:52:08.512Z</time></trkpt><trkpt lat="43.5321097" lon="10.7387787"><ele>152.0</ele><time>2026-04-18T06:52:09.495Z</time></trkpt><trkpt lat="43.5322031" lon="10.7387451"><ele>149.0</ele><time>2026-04-18T06:52:10.505Z</time></trkpt><trkpt lat="43.532293" lon="10.7387082"><ele>146.0</ele><time>2026-04-18T06:52:11.514Z</time></trkpt><trkpt lat="43.5323791" lon="10.7386534"><ele>143.0</ele><time>2026-04-18T06:52:12.508Z</time></trkpt><trkpt lat="43.5324561" lon="10.7386032"><ele>144.8</ele><time>2026-04-18T06:52:13.514Z</time></trkpt><trkpt lat="43.5325399" lon="10.7385354"><ele>146.60000000000002</ele><time>2026-04-18T06:52:14.506Z</time></trkpt><trkpt lat="43.5326225" lon="10.738467"><ele>148.39999999999998</ele><time>2026-04-18T06:52:15.504Z</time></trkpt><trkpt lat="43.5327001" lon="10.7384028"><ele>150.2</ele><time>2026-04-18T06:52:16.501Z</time></trkpt><trkpt lat="43.5327802" lon="10.7383424"><ele>152.0</ele><time>2026-04-18T06:52:17.503Z</time></trkpt><trkpt lat="43.5328538" lon="10.7382723"><ele>151.33333333333331</ele><time>2026-04-18T06:52:18.508Z</time></trkpt><trkpt lat="43.5329276" lon="10.7381986"><ele>150.66666666666666</ele><time>2026-04-18T06:52:19.51Z</time></trkpt><trkpt lat="43.5329945" lon="10.7381295"><ele>150.0</ele><time>2026-04-18T06:52:20.504Z</time></trkpt><trkpt lat="43.533055" lon="10.7380653"><ele>149.33333333333334</ele><time>2026-04-18T06:52:21.501Z</time></trkpt><trkpt lat="43.5331167" lon="10.7379927"><ele>148.66666666666669</ele><time>2026-04-18T06:52:22.508Z</time></trkpt><trkpt lat="43.5331873" lon="10.7379189"><ele>148.0</ele><time>2026-04-18T06:52:23.507Z</time></trkpt><trkpt lat="43.5332491" lon="10.7378563"><ele>148.0</ele><time>2026-04-18T06:52:24.498Z</time></trkpt><trkpt lat="43.5333087" lon="10.7377927"><ele>148.0</ele><time>2026-04-18T06:52:25.506Z</time></trkpt><trkpt lat="43.5333743" lon="10.7377334"><ele>148.0</ele><time>2026-04-18T06:52:26.505Z</time></trkpt><trkpt lat="43.5334363" lon="10.7376956"><ele>148.0</ele><time>2026-04-18T06:52:27.501Z</time></trkpt><trkpt lat="43.5335683" lon="10.7376596"><ele>148.0</ele><time>2026-04-18T06:52:29.503Z</time></trkpt><trkpt lat="43.5336455" lon="10.7376477"><ele>148.0</ele><time>2026-04-18T06:52:30.514Z</time></trkpt><trkpt lat="43.5337168" lon="10.7376195"><ele>147.33333333333334</ele><time>2026-04-18T06:52:31.507Z</time></trkpt><trkpt lat="43.5338017" lon="10.7375891"><ele>146.66666666666669</ele><time>2026-04-18T06:52:32.523Z</time></trkpt><trkpt lat="43.5338859" lon="10.7375434"><ele>146.0</ele><time>2026-04-18T06:52:33.506Z</time></trkpt><trkpt lat="43.5339718" lon="10.7374977"><ele>145.33333333333334</ele><time>2026-04-18T06:52:34.503Z</time></trkpt><trkpt lat="43.5340574" lon="10.7374603"><ele>144.66666666666666</ele><time>2026-04-18T06:52:35.505Z</time></trkpt><trkpt lat="43.5341436" lon="10.7374281"><ele>144.0</ele><time>2026-04-18T06:52:36.505Z</time></trkpt><trkpt lat="43.5342269" lon="10.7373802"><ele>144.0</ele><time>2026-04-18T06:52:37.524Z</time></trkpt><trkpt lat="43.5343116" lon="10.7373376"><ele>144.0</ele><time>2026-04-18T06:52:38.509Z</time></trkpt><trkpt lat="43.5343903" lon="10.7372942"><ele>144.0</ele><time>2026-04-18T06:52:39.521Z</time></trkpt><trkpt lat="43.5344663" lon="10.7372398"><ele>144.0</ele><time>2026-04-18T06:52:40.515Z</time></trkpt><trkpt lat="43.5345422" lon="10.7371917"><ele>144.0</ele><time>2026-04-18T06:52:41.511Z</time></trkpt><trkpt lat="43.5346208" lon="10.7371476"><ele>144.0</ele><time>2026-04-18T06:52:42.507Z</time></trkpt><trkpt lat="43.5347027" lon="10.7371031"><ele>143.16666666666666</ele><time>2026-04-18T06:52:43.515Z</time></trkpt><trkpt lat="43.5347788" lon="10.7370728"><ele>142.33333333333334</ele><time>2026-04-18T06:52:44.521Z</time></trkpt><trkpt lat="43.5348539" lon="10.7370372"><ele>141.5</ele><time>2026-04-18T06:52:45.503Z</time></trkpt><trkpt lat="43.5349255" lon="10.7369829"><ele>140.66666666666669</ele><time>2026-04-18T06:52:46.515Z</time></trkpt><trkpt lat="43.5350089" lon="10.736935"><ele>139.83333333333334</ele><time>2026-04-18T06:52:47.513Z</time></trkpt><trkpt lat="43.5350825" lon="10.7368701"><ele>139.0</ele><time>2026-04-18T06:52:48.538Z</time></trkpt><trkpt lat="43.5351558" lon="10.7368016"><ele>138.83333333333334</ele><time>2026-04-18T06:52:49.511Z</time></trkpt><trkpt lat="43.5352256" lon="10.7367298"><ele>138.66666666666669</ele><time>2026-04-18T06:52:50.512Z</time></trkpt><trkpt lat="43.535292" lon="10.7366614"><ele>138.5</ele><time>2026-04-18T06:52:51.511Z</time></trkpt><trkpt lat="43.5353583" lon="10.7365918"><ele>138.33333333333334</ele><time>2026-04-18T06:52:52.518Z</time></trkpt><trkpt lat="43.5354295" lon="10.736524"><ele>138.16666666666666</ele><time>2026-04-18T06:52:53.523Z</time></trkpt><trkpt lat="43.5354912" lon="10.7364657"><ele>138.0</ele><time>2026-04-18T06:52:54.519Z</time></trkpt><trkpt lat="43.5355568" lon="10.7364017"><ele>137.66666666666666</ele><time>2026-04-18T06:52:55.517Z</time></trkpt><trkpt lat="43.5356208" lon="10.7363424"><ele>137.33333333333334</ele><time>2026-04-18T06:52:56.527Z</time></trkpt><trkpt lat="43.5356814" lon="10.7362835"><ele>137.0</ele><time>2026-04-18T06:52:57.515Z</time></trkpt><trkpt lat="43.5357463" lon="10.7362199"><ele>136.66666666666669</ele><time>2026-04-18T06:52:58.504Z</time></trkpt><trkpt lat="43.5358223" lon="10.736159"><ele>136.33333333333334</ele><time>2026-04-18T06:52:59.519Z</time></trkpt><trkpt lat="43.5358876" lon="10.7360944"><ele>136.0</ele><time>2026-04-18T06:53:00.514Z</time></trkpt><trkpt lat="43.5359558" lon="10.7360327"><ele>135.33333333333334</ele><time>2026-04-18T06:53:01.503Z</time></trkpt><trkpt lat="43.5360418" lon="10.7359682"><ele>134.66666666666669</ele><time>2026-04-18T06:53:03.505Z</time></trkpt><trkpt lat="43.536104" lon="10.7359159"><ele>134.0</ele><time>2026-04-18T06:53:08.509Z</time></trkpt><trkpt lat="43.5361573" lon="10.7358689"><ele>133.33333333333334</ele><time>2026-04-18T06:53:14.525Z</time></trkpt><trkpt lat="43.5362074" lon="10.7358053"><ele>132.66666666666666</ele><time>2026-04-18T06:53:17.507Z</time></trkpt><trkpt lat="43.5362659" lon="10.7357638"><ele>132.0</ele><time>2026-04-18T06:53:20.51Z</time></trkpt><trkpt lat="43.5363341" lon="10.7356914"><ele>131.0</ele><time>2026-04-18T06:53:23.502Z</time></trkpt><trkpt lat="43.5363966" lon="10.7356259"><ele>130.0</ele><time>2026-04-18T06:53:26.523Z</time></trkpt><trkpt lat="43.5364678" lon="10.7355552"><ele>129.0</ele><time>2026-04-18T06:53:29.517Z</time></trkpt><trkpt lat="43.5365133" lon="10.7354947"><ele>128.0</ele><time>2026-04-18T06:53:31.505Z</time></trkpt><trkpt lat="43.5365828" lon="10.7354308"><ele>127.0</ele><time>2026-04-18T06:53:34.519Z</time></trkpt><trkpt lat="43.5366562" lon="10.7353536"><ele>126.0</ele><time>2026-04-18T06:53:37.514Z</time></trkpt><trkpt lat="43.536733" lon="10.7352868"><ele>126.0</ele><time>2026-04-18T06:53:40.519Z</time></trkpt><trkpt lat="43.5367883" lon="10.735241"><ele>126.0</ele><time>2026-04-18T06:53:42.503Z</time></trkpt><trkpt lat="43.5368462" lon="10.7351872"><ele>126.0</ele><time>2026-04-18T06:53:44.502Z</time></trkpt><trkpt lat="43.536918" lon="10.735104"><ele>126.0</ele><time>2026-04-18T06:53:47.513Z</time></trkpt><trkpt lat="43.536981" lon="10.7350402"><ele>126.0</ele><time>2026-04-18T06:53:49.512Z</time></trkpt><trkpt lat="43.5370591" lon="10.7349701"><ele>126.0</ele><time>2026-04-18T06:53:51.508Z</time></trkpt><trkpt lat="43.5371191" lon="10.7349"><ele>125.42857142857143</ele><time>2026-04-18T06:53:53.513Z</time></trkpt><trkpt lat="43.5371727" lon="10.734844"><ele>124.85714285714286</ele><time>2026-04-18T06:53:55.518Z</time></trkpt><trkpt lat="43.5372307" lon="10.734789"><ele>124.28571428571428</ele><time>2026-04-18T06:53:58.511Z</time></trkpt><trkpt lat="43.5372949" lon="10.7347475"><ele>123.71428571428571</ele><time>2026-04-18T06:54:04.509Z</time></trkpt><trkpt lat="43.5373575" lon="10.7346942"><ele>123.14285714285714</ele><time>2026-04-18T06:54:08.503Z</time></trkpt><trkpt lat="43.5374294" lon="10.7346322"><ele>122.57142857142856</ele><time>2026-04-18T06:54:12.515Z</time></trkpt><trkpt lat="43.5374869" lon="10.7345747"><ele>121.99999999999999</ele><time>2026-04-18T06:54:14.514Z</time></trkpt><trkpt lat="43.5375605" lon="10.7344618"><ele>120.49999999999999</ele><time>2026-04-18T06:54:16.514Z</time></trkpt><trkpt lat="43.5375993" lon="10.7343843"><ele>119.0</ele><time>2026-04-18T06:54:17.517Z</time></trkpt><trkpt lat="43.5376533" lon="10.7342946"><ele>117.5</ele><time>2026-04-18T06:54:18.505Z</time></trkpt><trkpt lat="43.5376993" lon="10.7342017"><ele>116.0</ele><time>2026-04-18T06:54:19.51Z</time></trkpt><trkpt lat="43.5377178" lon="10.7341074"><ele>114.49999999999999</ele><time>2026-04-18T06:54:20.497Z</time></trkpt><trkpt lat="43.5377376" lon="10.7339851"><ele>113.0</ele><time>2026-04-18T06:54:21.502Z</time></trkpt><trkpt lat="43.5377468" lon="10.7338719"><ele>113.0</ele><time>2026-04-18T06:54:22.496Z</time></trkpt><trkpt lat="43.5377442" lon="10.7337422"><ele>113.00000000000001</ele><time>2026-04-18T06:54:23.498Z</time></trkpt><trkpt lat="43.5377537" lon="10.7336066"><ele>113.00000000000001</ele><time>2026-04-18T06:54:24.494Z</time></trkpt><trkpt lat="43.5377542" lon="10.733484"><ele>113.0</ele><time>2026-04-18T06:54:25.503Z</time></trkpt><trkpt lat="43.5377405" lon="10.733368"><ele>113.0</ele><time>2026-04-18T06:54:26.498Z</time></trkpt><trkpt lat="43.5377317" lon="10.7332376"><ele>111.4</ele><time>2026-04-18T06:54:27.5Z</time></trkpt><trkpt lat="43.5377017" lon="10.7330895"><ele>109.80000000000001</ele><time>2026-04-18T06:54:28.502Z</time></trkpt><trkpt lat="43.5376702" lon="10.7329555"><ele>108.2</ele><time>2026-04-18T06:54:29.501Z</time></trkpt><trkpt lat="43.5376558" lon="10.7327957"><ele>106.6</ele><time>2026-04-18T06:54:30.486Z</time></trkpt><trkpt lat="43.5376422" lon="10.7326473"><ele>105.0</ele><time>2026-04-18T06:54:31.497Z</time></trkpt><trkpt lat="43.5376491" lon="10.7325133"><ele>103.8</ele><time>2026-04-18T06:54:32.492Z</time></trkpt><trkpt lat="43.5376544" lon="10.7324074"><ele>102.6</ele><time>2026-04-18T06:54:33.497Z</time></trkpt><trkpt lat="43.537676" lon="10.7322916"><ele>101.4</ele><time>2026-04-18T06:54:34.503Z</time></trkpt><trkpt lat="43.5376941" lon="10.7321878"><ele>100.2</ele><time>2026-04-18T06:54:35.499Z</time></trkpt><trkpt lat="43.537749" lon="10.7320365"><ele>99.0</ele><time>2026-04-18T06:54:37.501Z</time></trkpt><trkpt lat="43.5377861" lon="10.7319145"><ele>99.66666666666667</ele><time>2026-04-18T06:54:39.501Z</time></trkpt><trkpt lat="43.5378593" lon="10.7318472"><ele>100.33333333333334</ele><time>2026-04-18T06:54:41.503Z</time></trkpt><trkpt lat="43.5379611" lon="10.7317702"><ele>101.0</ele><time>2026-04-18T06:54:43.497Z</time></trkpt><trkpt lat="43.5380001" lon="10.7316917"><ele>101.66666666666667</ele><time>2026-04-18T06:54:44.492Z</time></trkpt><trkpt lat="43.5380555" lon="10.7315815"><ele>102.33333333333334</ele><time>2026-04-18T06:54:45.519Z</time></trkpt><trkpt lat="43.5381124" lon="10.7315355"><ele>103.0</ele><time>2026-04-18T06:54:46.492Z</time></trkpt><trkpt lat="43.5381596" lon="10.7314721"><ele>103.00000000000001</ele><time>2026-04-18T06:54:47.492Z</time></trkpt><trkpt lat="43.5382275" lon="10.7314163"><ele>103.0</ele><time>2026-04-18T06:54:48.496Z</time></trkpt><trkpt lat="43.5382972" lon="10.7313617"><ele>103.0</ele><time>2026-04-18T06:54:49.484Z</time></trkpt><trkpt lat="43.5383707" lon="10.7313179"><ele>103.0</ele><time>2026-04-18T06:54:50.492Z</time></trkpt><trkpt lat="43.5384648" lon="10.7312582"><ele>103.00000000000001</ele><time>2026-04-18T06:54:51.493Z</time></trkpt><trkpt lat="43.5385413" lon="10.731202"><ele>103.0</ele><time>2026-04-18T06:54:52.502Z</time></trkpt><trkpt lat="43.5386303" lon="10.7311567"><ele>103.60000000000001</ele><time>2026-04-18T06:54:53.499Z</time></trkpt><trkpt lat="43.5387256" lon="10.7311042"><ele>104.2</ele><time>2026-04-18T06:54:54.502Z</time></trkpt><trkpt lat="43.538795" lon="10.7310386"><ele>104.8</ele><time>2026-04-18T06:54:55.494Z</time></trkpt><trkpt lat="43.5388703" lon="10.7309807"><ele>105.4</ele><time>2026-04-18T06:54:56.509Z</time></trkpt><trkpt lat="43.5389414" lon="10.7309078"><ele>106.0</ele><time>2026-04-18T06:54:57.5Z</time></trkpt><trkpt lat="43.5390103" lon="10.7308298"><ele>103.66666666666667</ele><time>2026-04-18T06:54:58.511Z</time></trkpt><trkpt lat="43.5390841" lon="10.7307633"><ele>101.33333333333334</ele><time>2026-04-18T06:54:59.487Z</time></trkpt><trkpt lat="43.5391533" lon="10.7306991"><ele>99.0</ele><time>2026-04-18T06:55:00.509Z</time></trkpt><trkpt lat="43.539204" lon="10.7306074"><ele>96.66666666666667</ele><time>2026-04-18T06:55:01.497Z</time></trkpt><trkpt lat="43.5392481" lon="10.7305237"><ele>94.33333333333334</ele><time>2026-04-18T06:55:02.495Z</time></trkpt><trkpt lat="43.53929" lon="10.7304475"><ele>92.0</ele><time>2026-04-18T06:55:03.505Z</time></trkpt><trkpt lat="43.5393447" lon="10.7303604"><ele>92.0</ele><time>2026-04-18T06:55:04.5Z</time></trkpt><trkpt lat="43.5394003" lon="10.7302737"><ele>92.0</ele><time>2026-04-18T06:55:05.491Z</time></trkpt><trkpt lat="43.5394265" lon="10.7301694"><ele>92.0</ele><time>2026-04-18T06:55:06.507Z</time></trkpt><trkpt lat="43.5394763" lon="10.7300799"><ele>92.0</ele><time>2026-04-18T06:55:07.495Z</time></trkpt><trkpt lat="43.5395368" lon="10.7299804"><ele>92.0</ele><time>2026-04-18T06:55:08.494Z</time></trkpt><trkpt lat="43.5396026" lon="10.7298793"><ele>92.0</ele><time>2026-04-18T06:55:09.499Z</time></trkpt><trkpt lat="43.539659" lon="10.7298075"><ele>89.19999999999999</ele><time>2026-04-18T06:55:10.519Z</time></trkpt><trkpt lat="43.5397374" lon="10.7297654"><ele>86.39999999999999</ele><time>2026-04-18T06:55:11.507Z</time></trkpt><trkpt lat="43.5398184" lon="10.7297187"><ele>83.6</ele><time>2026-04-18T06:55:12.498Z</time></trkpt><trkpt lat="43.5399092" lon="10.7296847"><ele>80.8</ele><time>2026-04-18T06:55:13.504Z</time></trkpt><trkpt lat="43.5399976" lon="10.7296473"><ele>78.0</ele><time>2026-04-18T06:55:14.49Z</time></trkpt><trkpt lat="43.5400852" lon="10.7296085"><ele>78.0</ele><time>2026-04-18T06:55:15.506Z</time></trkpt><trkpt lat="43.540176" lon="10.7295677"><ele>78.0</ele><time>2026-04-18T06:55:16.501Z</time></trkpt><trkpt lat="43.5402495" lon="10.7295125"><ele>78.0</ele><time>2026-04-18T06:55:17.502Z</time></trkpt><trkpt lat="43.5403367" lon="10.7294769"><ele>78.0</ele><time>2026-04-18T06:55:18.489Z</time></trkpt><trkpt lat="43.5404287" lon="10.729427"><ele>78.0</ele><time>2026-04-18T06:55:19.505Z</time></trkpt><trkpt lat="43.540506" lon="10.7294234"><ele>78.0</ele><time>2026-04-18T06:55:20.497Z</time></trkpt><trkpt lat="43.5405883" lon="10.7294315"><ele>78.0</ele><time>2026-04-18T06:55:21.528Z</time></trkpt><trkpt lat="43.5406534" lon="10.729435"><ele>78.0</ele><time>2026-04-18T06:55:22.5Z</time></trkpt><trkpt lat="43.5407599" lon="10.7294373"><ele>78.0</ele><time>2026-04-18T06:55:24.498Z</time></trkpt><trkpt lat="43.5408459" lon="10.7294069"><ele>78.0</ele><time>2026-04-18T06:55:26.524Z</time></trkpt><trkpt lat="43.54087" lon="10.729287"><ele>78.0</ele><time>2026-04-18T06:55:28.496Z</time></trkpt><trkpt lat="43.5408907" lon="10.7291522"><ele>76.33333333333333</ele><time>2026-04-18T06:55:29.501Z</time></trkpt><trkpt lat="43.540916" lon="10.729035"><ele>74.66666666666667</ele><time>2026-04-18T06:55:30.5Z</time></trkpt><trkpt lat="43.5409355" lon="10.7289461"><ele>73.0</ele><time>2026-04-18T06:55:31.502Z</time></trkpt><trkpt lat="43.5409549" lon="10.7288012"><ele>71.33333333333334</ele><time>2026-04-18T06:55:33.518Z</time></trkpt><trkpt lat="43.5409793" lon="10.7287193"><ele>69.66666666666667</ele><time>2026-04-18T06:55:34.502Z</time></trkpt><trkpt lat="43.5410187" lon="10.7286198"><ele>68.0</ele><time>2026-04-18T06:55:35.499Z</time></trkpt><trkpt lat="43.5410564" lon="10.7285126"><ele>66.83333333333334</ele><time>2026-04-18T06:55:36.512Z</time></trkpt><trkpt lat="43.5410963" lon="10.7284011"><ele>65.66666666666667</ele><time>2026-04-18T06:55:37.505Z</time></trkpt><trkpt lat="43.5411294" lon="10.7282954"><ele>64.5</ele><time>2026-04-18T06:55:38.512Z</time></trkpt><trkpt lat="43.5411653" lon="10.7281927"><ele>63.33333333333333</ele><time>2026-04-18T06:55:39.508Z</time></trkpt><trkpt lat="43.541191" lon="10.7280845"><ele>62.166666666666664</ele><time>2026-04-18T06:55:40.497Z</time></trkpt><trkpt lat="43.5412396" lon="10.7279917"><ele>61.0</ele><time>2026-04-18T06:55:41.512Z</time></trkpt><trkpt lat="43.5412752" lon="10.7278797"><ele>60.666666666666664</ele><time>2026-04-18T06:55:42.506Z</time></trkpt><trkpt lat="43.5412979" lon="10.7277685"><ele>60.33333333333333</ele><time>2026-04-18T06:55:43.513Z</time></trkpt><trkpt lat="43.5413136" lon="10.7276551"><ele>60.0</ele><time>2026-04-18T06:55:44.504Z</time></trkpt><trkpt lat="43.5413283" lon="10.7275465"><ele>59.66666666666667</ele><time>2026-04-18T06:55:45.506Z</time></trkpt><trkpt lat="43.5413491" lon="10.727432"><ele>59.333333333333336</ele><time>2026-04-18T06:55:46.514Z</time></trkpt><trkpt lat="43.541377" lon="10.7273107"><ele>59.0</ele><time>2026-04-18T06:55:47.518Z</time></trkpt><trkpt lat="43.5414166" lon="10.7272006"><ele>59.00000000000001</ele><time>2026-04-18T06:55:48.51Z</time></trkpt><trkpt lat="43.5414671" lon="10.7270943"><ele>59.0</ele><time>2026-04-18T06:55:49.499Z</time></trkpt><trkpt lat="43.54152" lon="10.726998"><ele>59.0</ele><time>2026-04-18T06:55:50.493Z</time></trkpt><trkpt lat="43.5415676" lon="10.7269278"><ele>59.0</ele><time>2026-04-18T06:55:51.521Z</time></trkpt><trkpt lat="43.5416269" lon="10.7268559"><ele>59.00000000000001</ele><time>2026-04-18T06:55:52.513Z</time></trkpt><trkpt lat="43.5416798" lon="10.726781"><ele>59.0</ele><time>2026-04-18T06:55:53.499Z</time></trkpt><trkpt lat="43.5417447" lon="10.7267052"><ele>59.00000000000001</ele><time>2026-04-18T06:55:54.514Z</time></trkpt><trkpt lat="43.5417981" lon="10.7266153"><ele>59.0</ele><time>2026-04-18T06:55:55.504Z</time></trkpt><trkpt lat="43.5418476" lon="10.7265461"><ele>59.0</ele><time>2026-04-18T06:55:56.534Z</time></trkpt><trkpt lat="43.5419037" lon="10.7264623"><ele>59.0</ele><time>2026-04-18T06:55:57.517Z</time></trkpt><trkpt lat="43.5419556" lon="10.7263771"><ele>59.00000000000001</ele><time>2026-04-18T06:55:58.527Z</time></trkpt><trkpt lat="43.5420078" lon="10.7262828"><ele>59.0</ele><time>2026-04-18T06:55:59.504Z</time></trkpt><trkpt lat="43.5420636" lon="10.7261803"><ele>59.00000000000001</ele><time>2026-04-18T06:56:00.509Z</time></trkpt><trkpt lat="43.5421298" lon="10.7260775"><ele>59.0</ele><time>2026-04-18T06:56:01.523Z</time></trkpt><trkpt lat="43.5421911" lon="10.7259947"><ele>59.0</ele><time>2026-04-18T06:56:02.507Z</time></trkpt><trkpt lat="43.5422456" lon="10.7259125"><ele>59.0</ele><time>2026-04-18T06:56:03.506Z</time></trkpt><trkpt lat="43.5423073" lon="10.7258336"><ele>59.00000000000001</ele><time>2026-04-18T06:56:04.508Z</time></trkpt><trkpt lat="43.5423597" lon="10.7257584"><ele>59.0</ele><time>2026-04-18T06:56:05.537Z</time></trkpt><trkpt lat="43.5424168" lon="10.7256845"><ele>60.400000000000006</ele><time>2026-04-18T06:56:06.5Z</time></trkpt><trkpt lat="43.542527" lon="10.7256424"><ele>61.800000000000004</ele><time>2026-04-18T06:56:08.503Z</time></trkpt><trkpt lat="43.5426071" lon="10.7256524"><ele>63.199999999999996</ele><time>2026-04-18T06:56:09.502Z</time></trkpt><trkpt lat="43.5427034" lon="10.7256529"><ele>64.6</ele><time>2026-04-18T06:56:10.504Z</time></trkpt><trkpt lat="43.542785" lon="10.725611"><ele>66.0</ele><time>2026-04-18T06:56:11.501Z</time></trkpt><trkpt lat="43.5428446" lon="10.7255346"><ele>66.0</ele><time>2026-04-18T06:56:12.502Z</time></trkpt><trkpt lat="43.5428775" lon="10.7254286"><ele>66.0</ele><time>2026-04-18T06:56:13.507Z</time></trkpt><trkpt lat="43.5429146" lon="10.7252969"><ele>66.0</ele><time>2026-04-18T06:56:14.511Z</time></trkpt><trkpt lat="43.5429346" lon="10.7251537"><ele>66.0</ele><time>2026-04-18T06:56:15.506Z</time></trkpt><trkpt lat="43.5429561" lon="10.7250143"><ele>66.0</ele><time>2026-04-18T06:56:16.521Z</time></trkpt><trkpt lat="43.542971" lon="10.7248677"><ele>71.8</ele><time>2026-04-18T06:56:17.503Z</time></trkpt><trkpt lat="43.5429772" lon="10.7247609"><ele>77.6</ele><time>2026-04-18T06:56:18.504Z</time></trkpt><trkpt lat="43.542986" lon="10.7246723"><ele>83.4</ele><time>2026-04-18T06:56:19.507Z</time></trkpt><trkpt lat="43.5430463" lon="10.7245502"><ele>89.2</ele><time>2026-04-18T06:56:21.507Z</time></trkpt><trkpt lat="43.5431497" lon="10.7244646"><ele>95.0</ele><time>2026-04-18T06:56:23.51Z</time></trkpt><trkpt lat="43.5432709" lon="10.7243938"><ele>95.5</ele><time>2026-04-18T06:56:25.505Z</time></trkpt><trkpt lat="43.5433425" lon="10.7243445"><ele>96.0</ele><time>2026-04-18T06:56:26.498Z</time></trkpt><trkpt lat="43.5434002" lon="10.7242907"><ele>96.5</ele><time>2026-04-18T06:56:27.5Z</time></trkpt><trkpt lat="43.5434526" lon="10.7242408"><ele>97.0</ele><time>2026-04-18T06:56:28.502Z</time></trkpt><trkpt lat="43.5434994" lon="10.7241787"><ele>97.49999999999999</ele><time>2026-04-18T06:56:29.501Z</time></trkpt><trkpt lat="43.5435525" lon="10.7240209"><ele>98.0</ele><time>2026-04-18T06:56:31.5Z</time></trkpt><trkpt lat="43.5435984" lon="10.7238777"><ele>98.0</ele><time>2026-04-18T06:56:33.504Z</time></trkpt><trkpt lat="43.5436709" lon="10.7237838"><ele>98.0</ele><time>2026-04-18T06:56:35.509Z</time></trkpt><trkpt lat="43.5437611" lon="10.7237182"><ele>98.0</ele><time>2026-04-18T06:56:37.505Z</time></trkpt><trkpt lat="43.5438476" lon="10.7236142"><ele>98.0</ele><time>2026-04-18T06:56:39.5Z</time></trkpt><trkpt lat="43.5439239" lon="10.723482"><ele>98.0</ele><time>2026-04-18T06:56:41.509Z</time></trkpt><trkpt lat="43.543978" lon="10.7233296"><ele>101.16666666666666</ele><time>2026-04-18T06:56:43.5Z</time></trkpt><trkpt lat="43.5440222" lon="10.7232248"><ele>104.33333333333333</ele><time>2026-04-18T06:56:45.508Z</time></trkpt><trkpt lat="43.5440456" lon="10.723122"><ele>107.5</ele><time>2026-04-18T06:56:48.506Z</time></trkpt><trkpt lat="43.5440639" lon="10.7230195"><ele>110.66666666666666</ele><time>2026-04-18T06:56:50.509Z</time></trkpt><trkpt lat="43.5440879" lon="10.7228914"><ele>113.83333333333333</ele><time>2026-04-18T06:56:52.501Z</time></trkpt><trkpt lat="43.5441181" lon="10.7227964"><ele>117.0</ele><time>2026-04-18T06:56:54.498Z</time></trkpt><trkpt lat="43.5441822" lon="10.7226649"><ele>117.71428571428572</ele><time>2026-04-18T06:56:56.498Z</time></trkpt><trkpt lat="43.5442195" lon="10.7225822"><ele>118.42857142857144</ele><time>2026-04-18T06:56:57.515Z</time></trkpt><trkpt lat="43.5442608" lon="10.7224909"><ele>119.14285714285714</ele><time>2026-04-18T06:56:58.507Z</time></trkpt><trkpt lat="43.5443002" lon="10.7223845"><ele>119.85714285714286</ele><time>2026-04-18T06:56:59.508Z</time></trkpt><trkpt lat="43.5443352" lon="10.722298"><ele>120.57142857142857</ele><time>2026-04-18T06:57:00.504Z</time></trkpt><trkpt lat="43.5443682" lon="10.7222227"><ele>121.28571428571428</ele><time>2026-04-18T06:57:01.506Z</time></trkpt><trkpt lat="43.5443976" lon="10.7221458"><ele>121.99999999999999</ele><time>2026-04-18T06:57:02.505Z</time></trkpt><trkpt lat="43.5444651" lon="10.722015"><ele>121.66666666666666</ele><time>2026-04-18T06:57:04.518Z</time></trkpt><trkpt lat="43.5445559" lon="10.7218974"><ele>121.33333333333333</ele><time>2026-04-18T06:57:06.508Z</time></trkpt><trkpt lat="43.5446107" lon="10.7218349"><ele>121.0</ele><time>2026-04-18T06:57:07.515Z</time></trkpt><trkpt lat="43.5446817" lon="10.721752"><ele>120.66666666666666</ele><time>2026-04-18T06:57:08.519Z</time></trkpt><trkpt lat="43.5447318" lon="10.7216867"><ele>120.33333333333333</ele><time>2026-04-18T06:57:09.512Z</time></trkpt><trkpt lat="43.5447906" lon="10.7216365"><ele>120.0</ele><time>2026-04-18T06:57:10.512Z</time></trkpt><trkpt lat="43.5448689" lon="10.7215985"><ele>120.0</ele><time>2026-04-18T06:57:11.508Z</time></trkpt><trkpt lat="43.5449441" lon="10.7215664"><ele>120.0</ele><time>2026-04-18T06:57:12.502Z</time></trkpt><trkpt lat="43.5450208" lon="10.7215441"><ele>120.0</ele><time>2026-04-18T06:57:13.504Z</time></trkpt><trkpt lat="43.5451073" lon="10.7215086"><ele>120.0</ele><time>2026-04-18T06:57:14.502Z</time></trkpt><trkpt lat="43.545195" lon="10.7214612"><ele>120.0</ele><time>2026-04-18T06:57:15.528Z</time></trkpt><trkpt lat="43.5452792" lon="10.721423"><ele>120.0</ele><time>2026-04-18T06:57:16.506Z</time></trkpt><trkpt lat="43.5453629" lon="10.7213864"><ele>119.5</ele><time>2026-04-18T06:57:17.503Z</time></trkpt><trkpt lat="43.5454413" lon="10.7213531"><ele>119.0</ele><time>2026-04-18T06:57:18.51Z</time></trkpt><trkpt lat="43.5455107" lon="10.7213142"><ele>118.5</ele><time>2026-04-18T06:57:19.504Z</time></trkpt><trkpt lat="43.5455757" lon="10.7212892"><ele>118.0</ele><time>2026-04-18T06:57:20.511Z</time></trkpt><trkpt lat="43.5456743" lon="10.7212599"><ele>117.5</ele><time>2026-04-18T06:57:22.504Z</time></trkpt><trkpt lat="43.5457452" lon="10.7212443"><ele>117.0</ele><time>2026-04-18T06:57:27.503Z</time></trkpt><trkpt lat="43.545734" lon="10.7211289"><ele>117.66666666666667</ele><time>2026-04-18T06:57:30.504Z</time></trkpt><trkpt lat="43.5457013" lon="10.7210441"><ele>118.33333333333334</ele><time>2026-04-18T06:57:32.498Z</time></trkpt><trkpt lat="43.5456409" lon="10.72096"><ele>119.0</ele><time>2026-04-18T06:57:33.506Z</time></trkpt><trkpt lat="43.5455829" lon="10.7208994"><ele>119.66666666666667</ele><time>2026-04-18T06:57:34.489Z</time></trkpt><trkpt lat="43.5455108" lon="10.720838"><ele>120.33333333333334</ele><time>2026-04-18T06:57:35.502Z</time></trkpt><trkpt lat="43.5454281" lon="10.720779"><ele>121.0</ele><time>2026-04-18T06:57:36.498Z</time></trkpt><trkpt lat="43.5453449" lon="10.7207418"><ele>121.00000000000001</ele><time>2026-04-18T06:57:37.504Z</time></trkpt><trkpt lat="43.5452618" lon="10.7207261"><ele>121.0</ele><time>2026-04-18T06:57:38.509Z</time></trkpt><trkpt lat="43.5451819" lon="10.7206841"><ele>121.0</ele><time>2026-04-18T06:57:39.504Z</time></trkpt><trkpt lat="43.5451174" lon="10.7206448"><ele>121.0</ele><time>2026-04-18T06:57:40.531Z</time></trkpt><trkpt lat="43.5450731" lon="10.7205785"><ele>121.00000000000001</ele><time>2026-04-18T06:57:41.511Z</time></trkpt><trkpt lat="43.5450189" lon="10.7205227"><ele>121.0</ele><time>2026-04-18T06:57:42.504Z</time></trkpt><trkpt lat="43.5449775" lon="10.7203879"><ele>121.0</ele><time>2026-04-18T06:57:44.501Z</time></trkpt><trkpt lat="43.5450314" lon="10.7203072"><ele>121.0</ele><time>2026-04-18T06:57:45.503Z</time></trkpt><trkpt lat="43.5450967" lon="10.7202225"><ele>121.0</ele><time>2026-04-18T06:57:46.509Z</time></trkpt><trkpt lat="43.5451601" lon="10.7201242"><ele>121.0</ele><time>2026-04-18T06:57:47.505Z</time></trkpt><trkpt lat="43.5452306" lon="10.7200263"><ele>121.0</ele><time>2026-04-18T06:57:48.509Z</time></trkpt><trkpt lat="43.5453086" lon="10.7199327"><ele>120.6</ele><time>2026-04-18T06:57:49.508Z</time></trkpt><trkpt lat="43.5454027" lon="10.7198509"><ele>120.19999999999999</ele><time>2026-04-18T06:57:50.504Z</time></trkpt><trkpt lat="43.5454961" lon="10.7197887"><ele>119.80000000000001</ele><time>2026-04-18T06:57:51.502Z</time></trkpt><trkpt lat="43.5455915" lon="10.7197459"><ele>119.4</ele><time>2026-04-18T06:57:52.504Z</time></trkpt><trkpt lat="43.5456888" lon="10.7197007"><ele>119.0</ele><time>2026-04-18T06:57:53.503Z</time></trkpt><trkpt lat="43.5457839" lon="10.7196555"><ele>119.0</ele><time>2026-04-18T06:57:54.51Z</time></trkpt><trkpt lat="43.5458788" lon="10.7196004"><ele>119.0</ele><time>2026-04-18T06:57:55.516Z</time></trkpt><trkpt lat="43.5459752" lon="10.7195534"><ele>119.0</ele><time>2026-04-18T06:57:56.506Z</time></trkpt><trkpt lat="43.5460802" lon="10.7195075"><ele>119.0</ele><time>2026-04-18T06:57:57.514Z</time></trkpt><trkpt lat="43.5461865" lon="10.7194604"><ele>119.0</ele><time>2026-04-18T06:57:58.502Z</time></trkpt><trkpt lat="43.546286" lon="10.7194068"><ele>117.49999999999999</ele><time>2026-04-18T06:57:59.498Z</time></trkpt><trkpt lat="43.5463708" lon="10.719356"><ele>116.0</ele><time>2026-04-18T06:58:00.497Z</time></trkpt><trkpt lat="43.5464412" lon="10.7193113"><ele>114.5</ele><time>2026-04-18T06:58:01.5Z</time></trkpt><trkpt lat="43.546512" lon="10.7193058"><ele>113.0</ele><time>2026-04-18T06:58:02.497Z</time></trkpt><trkpt lat="43.5465934" lon="10.7193249"><ele>111.49999999999999</ele><time>2026-04-18T06:58:03.501Z</time></trkpt><trkpt lat="43.546683" lon="10.7193531"><ele>110.0</ele><time>2026-04-18T06:58:04.502Z</time></trkpt><trkpt lat="43.5467794" lon="10.7193763"><ele>110.0</ele><time>2026-04-18T06:58:05.496Z</time></trkpt><trkpt lat="43.5468918" lon="10.7193827"><ele>110.0</ele><time>2026-04-18T06:58:06.5Z</time></trkpt><trkpt lat="43.547009" lon="10.7193708"><ele>110.0</ele><time>2026-04-18T06:58:07.499Z</time></trkpt><trkpt lat="43.5471322" lon="10.7193571"><ele>110.0</ele><time>2026-04-18T06:58:08.504Z</time></trkpt><trkpt lat="43.5472498" lon="10.7193394"><ele>109.5</ele><time>2026-04-18T06:58:09.498Z</time></trkpt><trkpt lat="43.5473747" lon="10.71933"><ele>109.0</ele><time>2026-04-18T06:58:10.502Z</time></trkpt><trkpt lat="43.5475002" lon="10.7193263"><ele>108.5</ele><time>2026-04-18T06:58:11.532Z</time></trkpt><trkpt lat="43.5476296" lon="10.7193157"><ele>108.0</ele><time>2026-04-18T06:58:12.5Z</time></trkpt><trkpt lat="43.5477583" lon="10.7193047"><ele>109.5</ele><time>2026-04-18T06:58:13.5Z</time></trkpt><trkpt lat="43.5478899" lon="10.7193035"><ele>111.0</ele><time>2026-04-18T06:58:14.496Z</time></trkpt><trkpt lat="43.5480228" lon="10.7192979"><ele>112.5</ele><time>2026-04-18T06:58:15.495Z</time></trkpt><trkpt lat="43.5481521" lon="10.7192853"><ele>114.0</ele><time>2026-04-18T06:58:16.5Z</time></trkpt><trkpt lat="43.5482822" lon="10.7192587"><ele>114.0</ele><time>2026-04-18T06:58:17.523Z</time></trkpt><trkpt lat="43.5484113" lon="10.7192573"><ele>114.0</ele><time>2026-04-18T06:58:18.494Z</time></trkpt><trkpt lat="43.5485401" lon="10.7192544"><ele>114.0</ele><time>2026-04-18T06:58:19.498Z</time></trkpt><trkpt lat="43.5486518" lon="10.7192649"><ele>114.0</ele><time>2026-04-18T06:58:20.503Z</time></trkpt><trkpt lat="43.5487536" lon="10.7192699"><ele>114.33333333333333</ele><time>2026-04-18T06:58:21.493Z</time></trkpt><trkpt lat="43.5488491" lon="10.7192913"><ele>114.66666666666666</ele><time>2026-04-18T06:58:22.499Z</time></trkpt><trkpt lat="43.548926" lon="10.7193051"><ele>115.0</ele><time>2026-04-18T06:58:23.498Z</time></trkpt><trkpt lat="43.5490123" lon="10.7193332"><ele>115.33333333333333</ele><time>2026-04-18T06:58:25.497Z</time></trkpt><trkpt lat="43.5490814" lon="10.7193544"><ele>115.66666666666666</ele><time>2026-04-18T06:58:27.498Z</time></trkpt><trkpt lat="43.5491655" lon="10.7194015"><ele>116.0</ele><time>2026-04-18T06:58:29.499Z</time></trkpt><trkpt lat="43.5492398" lon="10.7194806"><ele>117.4</ele><time>2026-04-18T06:58:31.49Z</time></trkpt><trkpt lat="43.5493011" lon="10.7195824"><ele>118.8</ele><time>2026-04-18T06:58:33.496Z</time></trkpt><trkpt lat="43.5493599" lon="10.7197028"><ele>120.20000000000002</ele><time>2026-04-18T06:58:35.491Z</time></trkpt><trkpt lat="43.5494361" lon="10.7198155"><ele>121.60000000000001</ele><time>2026-04-18T06:58:37.499Z</time></trkpt><trkpt lat="43.5494912" lon="10.7199244"><ele>123.0</ele><time>2026-04-18T06:58:39.508Z</time></trkpt><trkpt lat="43.5495579" lon="10.7200354"><ele>123.0</ele><time>2026-04-18T06:58:41.512Z</time></trkpt><trkpt lat="43.5496188" lon="10.7201718"><ele>123.0</ele><time>2026-04-18T06:58:43.504Z</time></trkpt><trkpt lat="43.5496519" lon="10.7202575"><ele>123.0</ele><time>2026-04-18T06:58:44.503Z</time></trkpt><trkpt lat="43.5496672" lon="10.7203485"><ele>123.0</ele><time>2026-04-18T06:58:45.507Z</time></trkpt><trkpt lat="43.5496737" lon="10.7204504"><ele>123.0</ele><time>2026-04-18T06:58:46.495Z</time></trkpt><trkpt lat="43.5496737" lon="10.7205587"><ele>123.0</ele><time>2026-04-18T06:58:47.51Z</time></trkpt><trkpt lat="43.5496742" lon="10.7206831"><ele>123.83333333333333</ele><time>2026-04-18T06:58:48.502Z</time></trkpt><trkpt lat="43.5496706" lon="10.7208004"><ele>124.66666666666666</ele><time>2026-04-18T06:58:49.499Z</time></trkpt><trkpt lat="43.5496699" lon="10.7209109"><ele>125.5</ele><time>2026-04-18T06:58:50.499Z</time></trkpt><trkpt lat="43.5496614" lon="10.7210114"><ele>126.33333333333333</ele><time>2026-04-18T06:58:51.497Z</time></trkpt><trkpt lat="43.5496485" lon="10.7210965"><ele>127.16666666666666</ele><time>2026-04-18T06:58:52.494Z</time></trkpt><trkpt lat="43.5496329" lon="10.7212483"><ele>128.0</ele><time>2026-04-18T06:58:54.505Z</time></trkpt><trkpt lat="43.5495715" lon="10.7213025"><ele>129.0</ele><time>2026-04-18T06:58:58.502Z</time></trkpt><trkpt lat="43.5495818" lon="10.7214687"><ele>130.0</ele><time>2026-04-18T06:59:01.503Z</time></trkpt><trkpt lat="43.5496196" lon="10.7216009"><ele>131.0</ele><time>2026-04-18T06:59:03.509Z</time></trkpt><trkpt lat="43.5496534" lon="10.7216862"><ele>132.0</ele><time>2026-04-18T06:59:04.517Z</time></trkpt><trkpt lat="43.5496971" lon="10.7217723"><ele>133.0</ele><time>2026-04-18T06:59:05.506Z</time></trkpt><trkpt lat="43.5497305" lon="10.7218491"><ele>134.0</ele><time>2026-04-18T06:59:06.513Z</time></trkpt><trkpt lat="43.5497648" lon="10.7219223"><ele>134.4</ele><time>2026-04-18T06:59:07.512Z</time></trkpt><trkpt lat="43.5498075" lon="10.722016"><ele>134.8</ele><time>2026-04-18T06:59:08.51Z</time></trkpt><trkpt lat="43.5498329" lon="10.7221315"><ele>135.2</ele><time>2026-04-18T06:59:09.506Z</time></trkpt><trkpt lat="43.5498483" lon="10.7222759"><ele>135.6</ele><time>2026-04-18T06:59:10.506Z</time></trkpt><trkpt lat="43.5498747" lon="10.7223914"><ele>136.0</ele><time>2026-04-18T06:59:11.497Z</time></trkpt><trkpt lat="43.5498836" lon="10.7225235"><ele>136.0</ele><time>2026-04-18T06:59:12.5Z</time></trkpt><trkpt lat="43.5498604" lon="10.7226506"><ele>136.0</ele><time>2026-04-18T06:59:13.501Z</time></trkpt><trkpt lat="43.5498537" lon="10.7227778"><ele>136.0</ele><time>2026-04-18T06:59:14.497Z</time></trkpt><trkpt lat="43.5498487" lon="10.7229054"><ele>136.0</ele><time>2026-04-18T06:59:15.493Z</time></trkpt><trkpt lat="43.5498604" lon="10.7230511"><ele>136.0</ele><time>2026-04-18T06:59:16.495Z</time></trkpt><trkpt lat="43.5498929" lon="10.7231857"><ele>135.4</ele><time>2026-04-18T06:59:17.494Z</time></trkpt><trkpt lat="43.5499366" lon="10.7233199"><ele>134.8</ele><time>2026-04-18T06:59:18.494Z</time></trkpt><trkpt lat="43.5499698" lon="10.7234474"><ele>134.20000000000002</ele><time>2026-04-18T06:59:19.494Z</time></trkpt><trkpt lat="43.550017" lon="10.7235991"><ele>133.6</ele><time>2026-04-18T06:59:20.498Z</time></trkpt><trkpt lat="43.5500534" lon="10.7237591"><ele>133.0</ele><time>2026-04-18T06:59:21.494Z</time></trkpt><trkpt lat="43.5501031" lon="10.7239048"><ele>131.6</ele><time>2026-04-18T06:59:22.495Z</time></trkpt><trkpt lat="43.5501916" lon="10.7240176"><ele>130.20000000000002</ele><time>2026-04-18T06:59:23.505Z</time></trkpt><trkpt lat="43.5502787" lon="10.7241242"><ele>128.8</ele><time>2026-04-18T06:59:24.5Z</time></trkpt><trkpt lat="43.550365" lon="10.724202"><ele>127.4</ele><time>2026-04-18T06:59:25.495Z</time></trkpt><trkpt lat="43.5504725" lon="10.7242288"><ele>126.0</ele><time>2026-04-18T06:59:26.5Z</time></trkpt><trkpt lat="43.5505773" lon="10.7242473"><ele>126.0</ele><time>2026-04-18T06:59:27.499Z</time></trkpt><trkpt lat="43.5506722" lon="10.7242722"><ele>126.0</ele><time>2026-04-18T06:59:28.491Z</time></trkpt><trkpt lat="43.5508037" lon="10.7242965"><ele>126.0</ele><time>2026-04-18T06:59:29.491Z</time></trkpt><trkpt lat="43.5509446" lon="10.7243021"><ele>126.0</ele><time>2026-04-18T06:59:30.495Z</time></trkpt><trkpt lat="43.5511077" lon="10.7243294"><ele>122.66666666666666</ele><time>2026-04-18T06:59:31.493Z</time></trkpt><trkpt lat="43.5512672" lon="10.7243703"><ele>119.33333333333333</ele><time>2026-04-18T06:59:32.492Z</time></trkpt><trkpt lat="43.5514437" lon="10.7244098"><ele>116.0</ele><time>2026-04-18T06:59:33.482Z</time></trkpt><trkpt lat="43.5515899" lon="10.7244601"><ele>112.25</ele><time>2026-04-18T06:59:34.491Z</time></trkpt><trkpt lat="43.5517379" lon="10.7245138"><ele>108.5</ele><time>2026-04-18T06:59:35.511Z</time></trkpt><trkpt lat="43.5518728" lon="10.7245574"><ele>104.75</ele><time>2026-04-18T06:59:36.503Z</time></trkpt><trkpt lat="43.5519953" lon="10.7245769"><ele>101.0</ele><time>2026-04-18T06:59:37.51Z</time></trkpt><trkpt lat="43.5521067" lon="10.7245843"><ele>99.8</ele><time>2026-04-18T06:59:38.525Z</time></trkpt><trkpt lat="43.5522124" lon="10.7245852"><ele>98.6</ele><time>2026-04-18T06:59:39.51Z</time></trkpt><trkpt lat="43.5522954" lon="10.7246129"><ele>97.4</ele><time>2026-04-18T06:59:40.489Z</time></trkpt><trkpt lat="43.5524224" lon="10.7245968"><ele>96.2</ele><time>2026-04-18T06:59:41.497Z</time></trkpt><trkpt lat="43.5525451" lon="10.7246023"><ele>95.0</ele><time>2026-04-18T06:59:42.505Z</time></trkpt><trkpt lat="43.5526761" lon="10.7246151"><ele>95.0</ele><time>2026-04-18T06:59:43.522Z</time></trkpt><trkpt lat="43.5528181" lon="10.7246568"><ele>95.0</ele><time>2026-04-18T06:59:44.503Z</time></trkpt><trkpt lat="43.5529657" lon="10.7246774"><ele>95.0</ele><time>2026-04-18T06:59:45.511Z</time></trkpt><trkpt lat="43.5531099" lon="10.7247014"><ele>95.0</ele><time>2026-04-18T06:59:46.488Z</time></trkpt><trkpt lat="43.5532595" lon="10.7247239"><ele>92.0</ele><time>2026-04-18T06:59:47.5Z</time></trkpt><trkpt lat="43.5534197" lon="10.7247478"><ele>89.0</ele><time>2026-04-18T06:59:48.499Z</time></trkpt><trkpt lat="43.5535793" lon="10.7247825"><ele>86.0</ele><time>2026-04-18T06:59:49.49Z</time></trkpt><trkpt lat="43.5537372" lon="10.7248003"><ele>84.33333333333334</ele><time>2026-04-18T06:59:50.507Z</time></trkpt><trkpt lat="43.5538956" lon="10.7248177"><ele>82.66666666666667</ele><time>2026-04-18T06:59:51.503Z</time></trkpt><trkpt lat="43.5540576" lon="10.7248437"><ele>81.0</ele><time>2026-04-18T06:59:52.495Z</time></trkpt><trkpt lat="43.5542161" lon="10.7248555"><ele>81.0</ele><time>2026-04-18T06:59:53.499Z</time></trkpt><trkpt lat="43.5543818" lon="10.724869"><ele>81.0</ele><time>2026-04-18T06:59:54.498Z</time></trkpt><trkpt lat="43.5545508" lon="10.7248716"><ele>81.0</ele><time>2026-04-18T06:59:55.5Z</time></trkpt><trkpt lat="43.5546934" lon="10.7248725"><ele>78.75</ele><time>2026-04-18T06:59:56.503Z</time></trkpt><trkpt lat="43.554826" lon="10.7248748"><ele>76.5</ele><time>2026-04-18T06:59:57.504Z</time></trkpt><trkpt lat="43.5549569" lon="10.7248625"><ele>74.25</ele><time>2026-04-18T06:59:58.497Z</time></trkpt><trkpt lat="43.5550723" lon="10.7248504"><ele>72.0</ele><time>2026-04-18T06:59:59.504Z</time></trkpt><trkpt lat="43.5551919" lon="10.724844"><ele>72.0</ele><time>2026-04-18T07:00:00.505Z</time></trkpt><trkpt lat="43.5553064" lon="10.7248489"><ele>72.0</ele><time>2026-04-18T07:00:01.54Z</time></trkpt><trkpt lat="43.5554287" lon="10.7248515"><ele>72.0</ele><time>2026-04-18T07:00:02.495Z</time></trkpt><trkpt lat="43.5555524" lon="10.7248431"><ele>72.0</ele><time>2026-04-18T07:00:03.495Z</time></trkpt><trkpt lat="43.5556814" lon="10.7248442"><ele>70.75</ele><time>2026-04-18T07:00:04.497Z</time></trkpt><trkpt lat="43.5558175" lon="10.7248546"><ele>69.5</ele><time>2026-04-18T07:00:05.507Z</time></trkpt><trkpt lat="43.55596" lon="10.7248764"><ele>68.25</ele><time>2026-04-18T07:00:06.492Z</time></trkpt><trkpt lat="43.5561062" lon="10.7249196"><ele>67.0</ele><time>2026-04-18T07:00:07.496Z</time></trkpt><trkpt lat="43.5562559" lon="10.7249759"><ele>66.33333333333333</ele><time>2026-04-18T07:00:08.507Z</time></trkpt><trkpt lat="43.5563991" lon="10.7250347"><ele>65.66666666666667</ele><time>2026-04-18T07:00:09.499Z</time></trkpt><trkpt lat="43.5565451" lon="10.7250935"><ele>65.0</ele><time>2026-04-18T07:00:10.506Z</time></trkpt><trkpt lat="43.5566949" lon="10.7251434"><ele>65.0</ele><time>2026-04-18T07:00:11.501Z</time></trkpt><trkpt lat="43.5568361" lon="10.7251919"><ele>65.0</ele><time>2026-04-18T07:00:12.491Z</time></trkpt><trkpt lat="43.5569691" lon="10.7252527"><ele>65.0</ele><time>2026-04-18T07:00:13.513Z</time></trkpt><trkpt lat="43.5571014" lon="10.7253328"><ele>65.0</ele><time>2026-04-18T07:00:14.497Z</time></trkpt><trkpt lat="43.5572209" lon="10.7254317"><ele>61.25</ele><time>2026-04-18T07:00:15.488Z</time></trkpt><trkpt lat="43.5573424" lon="10.7255497"><ele>57.5</ele><time>2026-04-18T07:00:16.499Z</time></trkpt><trkpt lat="43.5574609" lon="10.725683"><ele>53.75</ele><time>2026-04-18T07:00:17.5Z</time></trkpt><trkpt lat="43.5575549" lon="10.7258342"><ele>50.0</ele><time>2026-04-18T07:00:18.518Z</time></trkpt><trkpt lat="43.5576435" lon="10.7259865"><ele>49.5</ele><time>2026-04-18T07:00:19.506Z</time></trkpt><trkpt lat="43.5577335" lon="10.7261484"><ele>49.0</ele><time>2026-04-18T07:00:20.513Z</time></trkpt><trkpt lat="43.5578302" lon="10.7263025"><ele>48.5</ele><time>2026-04-18T07:00:21.503Z</time></trkpt><trkpt lat="43.55792" lon="10.7264479"><ele>48.0</ele><time>2026-04-18T07:00:22.507Z</time></trkpt><trkpt lat="43.5579976" lon="10.7265822"><ele>47.75</ele><time>2026-04-18T07:00:23.504Z</time></trkpt><trkpt lat="43.5580731" lon="10.7267128"><ele>47.5</ele><time>2026-04-18T07:00:24.513Z</time></trkpt><trkpt lat="43.5581553" lon="10.7268398"><ele>47.25</ele><time>2026-04-18T07:00:25.501Z</time></trkpt><trkpt lat="43.5582356" lon="10.7269755"><ele>47.0</ele><time>2026-04-18T07:00:26.504Z</time></trkpt><trkpt lat="43.5583232" lon="10.7271182"><ele>47.0</ele><time>2026-04-18T07:00:27.501Z</time></trkpt><trkpt lat="43.5584165" lon="10.7272554"><ele>47.0</ele><time>2026-04-18T07:00:28.499Z</time></trkpt><trkpt lat="43.5585049" lon="10.7273864"><ele>47.0</ele><time>2026-04-18T07:00:29.506Z</time></trkpt><trkpt lat="43.5585893" lon="10.7275234"><ele>47.0</ele><time>2026-04-18T07:00:30.505Z</time></trkpt><trkpt lat="43.5586828" lon="10.7276706"><ele>47.0</ele><time>2026-04-18T07:00:31.527Z</time></trkpt><trkpt lat="43.5587703" lon="10.7278164"><ele>47.0</ele><time>2026-04-18T07:00:32.51Z</time></trkpt><trkpt lat="43.5588639" lon="10.7279617"><ele>47.0</ele><time>2026-04-18T07:00:33.501Z</time></trkpt><trkpt lat="43.558954" lon="10.728099"><ele>47.0</ele><time>2026-04-18T07:00:34.508Z</time></trkpt><trkpt lat="43.5590493" lon="10.7282466"><ele>47.0</ele><time>2026-04-18T07:00:35.501Z</time></trkpt><trkpt lat="43.5591379" lon="10.7283954"><ele>47.0</ele><time>2026-04-18T07:00:36.512Z</time></trkpt><trkpt lat="43.5592349" lon="10.7285403"><ele>47.0</ele><time>2026-04-18T07:00:37.502Z</time></trkpt><trkpt lat="43.5593202" lon="10.7286885"><ele>47.0</ele><time>2026-04-18T07:00:38.503Z</time></trkpt><trkpt lat="43.5594054" lon="10.7288379"><ele>47.5</ele><time>2026-04-18T07:00:39.507Z</time></trkpt><trkpt lat="43.5595004" lon="10.7289864"><ele>48.0</ele><time>2026-04-18T07:00:40.511Z</time></trkpt><trkpt lat="43.5595976" lon="10.7291391"><ele>48.5</ele><time>2026-04-18T07:00:41.505Z</time></trkpt><trkpt lat="43.5596893" lon="10.7292872"><ele>49.0</ele><time>2026-04-18T07:00:42.504Z</time></trkpt><trkpt lat="43.5597822" lon="10.7294347"><ele>48.0</ele><time>2026-04-18T07:00:43.516Z</time></trkpt><trkpt lat="43.5598772" lon="10.7295878"><ele>47.0</ele><time>2026-04-18T07:00:44.507Z</time></trkpt><trkpt lat="43.5599799" lon="10.7297369"><ele>46.0</ele><time>2026-04-18T07:00:45.504Z</time></trkpt><trkpt lat="43.560072" lon="10.7298918"><ele>45.0</ele><time>2026-04-18T07:00:46.505Z</time></trkpt><trkpt lat="43.560162" lon="10.7300442"><ele>45.0</ele><time>2026-04-18T07:00:47.506Z</time></trkpt><trkpt lat="43.5602609" lon="10.7301948"><ele>45.0</ele><time>2026-04-18T07:00:48.506Z</time></trkpt><trkpt lat="43.5603565" lon="10.7303461"><ele>45.0</ele><time>2026-04-18T07:00:49.506Z</time></trkpt><trkpt lat="43.5604516" lon="10.7304985"><ele>45.0</ele><time>2026-04-18T07:00:50.509Z</time></trkpt><trkpt lat="43.5605443" lon="10.7306385"><ele>45.0</ele><time>2026-04-18T07:00:51.508Z</time></trkpt><trkpt lat="43.5606309" lon="10.7307772"><ele>45.0</ele><time>2026-04-18T07:00:52.514Z</time></trkpt><trkpt lat="43.560713" lon="10.7309175"><ele>45.0</ele><time>2026-04-18T07:00:53.511Z</time></trkpt><trkpt lat="43.5607894" lon="10.7310433"><ele>45.0</ele><time>2026-04-18T07:00:54.506Z</time></trkpt><trkpt lat="43.5608773" lon="10.7311681"><ele>44.75</ele><time>2026-04-18T07:00:55.5Z</time></trkpt><trkpt lat="43.5609601" lon="10.7312998"><ele>44.5</ele><time>2026-04-18T07:00:56.535Z</time></trkpt><trkpt lat="43.5610436" lon="10.7314251"><ele>44.25</ele><time>2026-04-18T07:00:57.508Z</time></trkpt><trkpt lat="43.5611263" lon="10.7315593"><ele>44.0</ele><time>2026-04-18T07:00:58.5Z</time></trkpt><trkpt lat="43.5612043" lon="10.7316855"><ele>44.0</ele><time>2026-04-18T07:00:59.502Z</time></trkpt><trkpt lat="43.561287" lon="10.7318191"><ele>44.0</ele><time>2026-04-18T07:01:00.498Z</time></trkpt><trkpt lat="43.5613754" lon="10.7319545"><ele>44.0</ele><time>2026-04-18T07:01:01.504Z</time></trkpt><trkpt lat="43.5614624" lon="10.7320913"><ele>44.0</ele><time>2026-04-18T07:01:02.509Z</time></trkpt><trkpt lat="43.5615523" lon="10.7322364"><ele>44.25</ele><time>2026-04-18T07:01:03.505Z</time></trkpt><trkpt lat="43.5616465" lon="10.7323826"><ele>44.5</ele><time>2026-04-18T07:01:04.528Z</time></trkpt><trkpt lat="43.5617384" lon="10.7325249"><ele>44.75</ele><time>2026-04-18T07:01:05.502Z</time></trkpt><trkpt lat="43.5618388" lon="10.7326832"><ele>45.0</ele><time>2026-04-18T07:01:06.502Z</time></trkpt><trkpt lat="43.5619387" lon="10.7328377"><ele>45.666666666666664</ele><time>2026-04-18T07:01:07.507Z</time></trkpt><trkpt lat="43.5620367" lon="10.73299"><ele>46.33333333333333</ele><time>2026-04-18T07:01:08.504Z</time></trkpt><trkpt lat="43.5621399" lon="10.7331392"><ele>47.0</ele><time>2026-04-18T07:01:09.505Z</time></trkpt><trkpt lat="43.5622515" lon="10.7333049"><ele>47.0</ele><time>2026-04-18T07:01:10.505Z</time></trkpt><trkpt lat="43.5623741" lon="10.7334768"><ele>47.0</ele><time>2026-04-18T07:01:11.521Z</time></trkpt><trkpt lat="43.5624989" lon="10.7336758"><ele>47.0</ele><time>2026-04-18T07:01:12.506Z</time></trkpt><trkpt lat="43.562627" lon="10.733881"><ele>47.0</ele><time>2026-04-18T07:01:13.504Z</time></trkpt><trkpt lat="43.5627461" lon="10.7340937"><ele>47.0</ele><time>2026-04-18T07:01:14.507Z</time></trkpt><trkpt lat="43.5628598" lon="10.7342976"><ele>47.0</ele><time>2026-04-18T07:01:15.509Z</time></trkpt><trkpt lat="43.5629761" lon="10.7345166"><ele>47.0</ele><time>2026-04-18T07:01:16.508Z</time></trkpt><trkpt lat="43.5630926" lon="10.7347514"><ele>47.0</ele><time>2026-04-18T07:01:17.501Z</time></trkpt><trkpt lat="43.5632077" lon="10.7349942"><ele>47.0</ele><time>2026-04-18T07:01:18.506Z</time></trkpt><trkpt lat="43.5633094" lon="10.7352389"><ele>47.0</ele><time>2026-04-18T07:01:19.51Z</time></trkpt><trkpt lat="43.5634117" lon="10.7354871"><ele>47.0</ele><time>2026-04-18T07:01:20.508Z</time></trkpt><trkpt lat="43.5635174" lon="10.7357342"><ele>47.0</ele><time>2026-04-18T07:01:21.51Z</time></trkpt><trkpt lat="43.5636184" lon="10.7359806"><ele>47.33333333333333</ele><time>2026-04-18T07:01:22.508Z</time></trkpt><trkpt lat="43.5637262" lon="10.7362204"><ele>47.666666666666664</ele><time>2026-04-18T07:01:23.509Z</time></trkpt><trkpt lat="43.5638295" lon="10.7364731"><ele>48.0</ele><time>2026-04-18T07:01:24.508Z</time></trkpt><trkpt lat="43.5639371" lon="10.7367235"><ele>48.0</ele><time>2026-04-18T07:01:25.51Z</time></trkpt><trkpt lat="43.5640429" lon="10.7369698"><ele>48.0</ele><time>2026-04-18T07:01:26.511Z</time></trkpt><trkpt lat="43.5641447" lon="10.7372089"><ele>48.0</ele><time>2026-04-18T07:01:27.505Z</time></trkpt><trkpt lat="43.5642451" lon="10.7374499"><ele>48.0</ele><time>2026-04-18T07:01:28.5Z</time></trkpt><trkpt lat="43.5643481" lon="10.7376842"><ele>48.0</ele><time>2026-04-18T07:01:29.514Z</time></trkpt><trkpt lat="43.5644399" lon="10.7379043"><ele>48.0</ele><time>2026-04-18T07:01:30.507Z</time></trkpt><trkpt lat="43.564531" lon="10.7381096"><ele>48.33333333333333</ele><time>2026-04-18T07:01:31.512Z</time></trkpt><trkpt lat="43.56462" lon="10.7383033"><ele>48.666666666666664</ele><time>2026-04-18T07:01:32.504Z</time></trkpt><trkpt lat="43.5647009" lon="10.7384903"><ele>49.0</ele><time>2026-04-18T07:01:33.509Z</time></trkpt><trkpt lat="43.5647788" lon="10.738653"><ele>49.400000000000006</ele><time>2026-04-18T07:01:34.507Z</time></trkpt><trkpt lat="43.564865" lon="10.7387932"><ele>49.8</ele><time>2026-04-18T07:01:35.509Z</time></trkpt><trkpt lat="43.5649428" lon="10.7389197"><ele>50.2</ele><time>2026-04-18T07:01:36.501Z</time></trkpt><trkpt lat="43.5650149" lon="10.7390243"><ele>50.599999999999994</ele><time>2026-04-18T07:01:37.501Z</time></trkpt><trkpt lat="43.565059" lon="10.7391196"><ele>51.0</ele><time>2026-04-18T07:01:38.506Z</time></trkpt><trkpt lat="43.5650677" lon="10.7392174"><ele>51.0</ele><time>2026-04-18T07:01:39.509Z</time></trkpt><trkpt lat="43.5650426" lon="10.7393258"><ele>51.0</ele><time>2026-04-18T07:01:40.501Z</time></trkpt><trkpt lat="43.5650103" lon="10.7394315"><ele>51.0</ele><time>2026-04-18T07:01:41.506Z</time></trkpt><trkpt lat="43.5649696" lon="10.7395395"><ele>51.0</ele><time>2026-04-18T07:01:42.508Z</time></trkpt><trkpt lat="43.5649129" lon="10.7396524"><ele>51.0</ele><time>2026-04-18T07:01:43.507Z</time></trkpt><trkpt lat="43.5648468" lon="10.7397832"><ele>51.0</ele><time>2026-04-18T07:01:44.497Z</time></trkpt><trkpt lat="43.5647696" lon="10.7399382"><ele>51.0</ele><time>2026-04-18T07:01:45.508Z</time></trkpt><trkpt lat="43.5646729" lon="10.7400992"><ele>51.0</ele><time>2026-04-18T07:01:46.507Z</time></trkpt><trkpt lat="43.5645806" lon="10.7402779"><ele>51.0</ele><time>2026-04-18T07:01:47.496Z</time></trkpt><trkpt lat="43.5644782" lon="10.7404752"><ele>51.0</ele><time>2026-04-18T07:01:48.508Z</time></trkpt><trkpt lat="43.564366" lon="10.7406648"><ele>51.0</ele><time>2026-04-18T07:01:49.505Z</time></trkpt><trkpt lat="43.5642539" lon="10.7408627"><ele>51.0</ele><time>2026-04-18T07:01:50.511Z</time></trkpt><trkpt lat="43.5641341" lon="10.7410692"><ele>53.0</ele><time>2026-04-18T07:01:51.5Z</time></trkpt><trkpt lat="43.5640082" lon="10.7412844"><ele>55.0</ele><time>2026-04-18T07:01:52.515Z</time></trkpt><trkpt lat="43.5638799" lon="10.7415125"><ele>57.0</ele><time>2026-04-18T07:01:53.51Z</time></trkpt><trkpt lat="43.5637489" lon="10.7417542"><ele>56.0</ele><time>2026-04-18T07:01:54.512Z</time></trkpt><trkpt lat="43.5636071" lon="10.7420087"><ele>55.0</ele><time>2026-04-18T07:01:55.518Z</time></trkpt><trkpt lat="43.5634671" lon="10.7422733"><ele>55.0</ele><time>2026-04-18T07:01:56.506Z</time></trkpt><trkpt lat="43.5633205" lon="10.742522"><ele>55.0</ele><time>2026-04-18T07:01:57.501Z</time></trkpt><trkpt lat="43.5631786" lon="10.7427722"><ele>56.5</ele><time>2026-04-18T07:01:58.505Z</time></trkpt><trkpt lat="43.5630395" lon="10.7430267"><ele>58.0</ele><time>2026-04-18T07:01:59.501Z</time></trkpt><trkpt lat="43.5629011" lon="10.7432722"><ele>57.0</ele><time>2026-04-18T07:02:00.505Z</time></trkpt><trkpt lat="43.562767" lon="10.7435101"><ele>56.0</ele><time>2026-04-18T07:02:01.503Z</time></trkpt><trkpt lat="43.5626348" lon="10.7437548"><ele>55.0</ele><time>2026-04-18T07:02:02.548Z</time></trkpt><trkpt lat="43.5625118" lon="10.7440045"><ele>55.0</ele><time>2026-04-18T07:02:03.504Z</time></trkpt><trkpt lat="43.5624039" lon="10.7442557"><ele>55.0</ele><time>2026-04-18T07:02:04.509Z</time></trkpt><trkpt lat="43.5623149" lon="10.7445169"><ele>55.0</ele><time>2026-04-18T07:02:05.505Z</time></trkpt><trkpt lat="43.5622435" lon="10.7447935"><ele>56.0</ele><time>2026-04-18T07:02:06.499Z</time></trkpt><trkpt lat="43.5621901" lon="10.7450844"><ele>57.0</ele><time>2026-04-18T07:02:07.507Z</time></trkpt><trkpt lat="43.5621505" lon="10.7453881"><ele>58.0</ele><time>2026-04-18T07:02:08.506Z</time></trkpt><trkpt lat="43.5621335" lon="10.7456853"><ele>58.0</ele><time>2026-04-18T07:02:09.514Z</time></trkpt><trkpt lat="43.562127" lon="10.7459745"><ele>58.0</ele><time>2026-04-18T07:02:10.505Z</time></trkpt><trkpt lat="43.5621327" lon="10.7462495"><ele>58.0</ele><time>2026-04-18T07:02:11.511Z</time></trkpt><trkpt lat="43.5621358" lon="10.7465491"><ele>56.666666666666664</ele><time>2026-04-18T07:02:12.513Z</time></trkpt><trkpt lat="43.5621668" lon="10.7468287"><ele>55.33333333333333</ele><time>2026-04-18T07:02:13.505Z</time></trkpt><trkpt lat="43.5622418" lon="10.7470944"><ele>54.0</ele><time>2026-04-18T07:02:14.512Z</time></trkpt><trkpt lat="43.5623223" lon="10.7473449"><ele>53.66666666666667</ele><time>2026-04-18T07:02:15.501Z</time></trkpt><trkpt lat="43.5624018" lon="10.7475857"><ele>53.333333333333336</ele><time>2026-04-18T07:02:16.508Z</time></trkpt><trkpt lat="43.5624746" lon="10.7478082"><ele>53.0</ele><time>2026-04-18T07:02:17.509Z</time></trkpt><trkpt lat="43.562544" lon="10.748013"><ele>53.0</ele><time>2026-04-18T07:02:18.507Z</time></trkpt><trkpt lat="43.562599" lon="10.7481952"><ele>53.0</ele><time>2026-04-18T07:02:19.507Z</time></trkpt><trkpt lat="43.5626574" lon="10.7483345"><ele>53.0</ele><time>2026-04-18T07:02:20.52Z</time></trkpt><trkpt lat="43.5627029" lon="10.7484582"><ele>53.0</ele><time>2026-04-18T07:02:21.512Z</time></trkpt><trkpt lat="43.5627313" lon="10.7485743"><ele>53.0</ele><time>2026-04-18T07:02:22.501Z</time></trkpt><trkpt lat="43.5627389" lon="10.7486722"><ele>52.75</ele><time>2026-04-18T07:02:23.507Z</time></trkpt><trkpt lat="43.5626375" lon="10.7488375"><ele>52.5</ele><time>2026-04-18T07:02:25.505Z</time></trkpt><trkpt lat="43.5625513" lon="10.7488956"><ele>52.25</ele><time>2026-04-18T07:02:26.514Z</time></trkpt><trkpt lat="43.5624608" lon="10.7489453"><ele>52.0</ele><time>2026-04-18T07:02:27.512Z</time></trkpt><trkpt lat="43.5623297" lon="10.748952"><ele>52.0</ele><time>2026-04-18T07:02:28.506Z</time></trkpt><trkpt lat="43.5621832" lon="10.7489233"><ele>52.0</ele><time>2026-04-18T07:02:29.514Z</time></trkpt><trkpt lat="43.5620427" lon="10.7488879"><ele>52.0</ele><time>2026-04-18T07:02:30.509Z</time></trkpt><trkpt lat="43.561902" lon="10.7488567"><ele>52.0</ele><time>2026-04-18T07:02:31.508Z</time></trkpt><trkpt lat="43.5617566" lon="10.7488273"><ele>52.0</ele><time>2026-04-18T07:02:32.514Z</time></trkpt><trkpt lat="43.5616022" lon="10.7487828"><ele>52.0</ele><time>2026-04-18T07:02:33.508Z</time></trkpt><trkpt lat="43.5614723" lon="10.7487626"><ele>52.0</ele><time>2026-04-18T07:02:34.512Z</time></trkpt><trkpt lat="43.5613408" lon="10.7487577"><ele>52.0</ele><time>2026-04-18T07:02:35.509Z</time></trkpt><trkpt lat="43.5611975" lon="10.7487768"><ele>52.0</ele><time>2026-04-18T07:02:36.503Z</time></trkpt><trkpt lat="43.5610633" lon="10.7488251"><ele>52.0</ele><time>2026-04-18T07:02:37.51Z</time></trkpt><trkpt lat="43.5609241" lon="10.7488718"><ele>52.0</ele><time>2026-04-18T07:02:38.515Z</time></trkpt><trkpt lat="43.5607963" lon="10.748913"><ele>52.0</ele><time>2026-04-18T07:02:39.506Z</time></trkpt><trkpt lat="43.5606632" lon="10.7489608"><ele>52.0</ele><time>2026-04-18T07:02:40.514Z</time></trkpt><trkpt lat="43.5605103" lon="10.7490005"><ele>52.0</ele><time>2026-04-18T07:02:41.499Z</time></trkpt><trkpt lat="43.56035" lon="10.7490364"><ele>52.0</ele><time>2026-04-18T07:02:42.514Z</time></trkpt><trkpt lat="43.5601936" lon="10.7490715"><ele>51.666666666666664</ele><time>2026-04-18T07:02:43.511Z</time></trkpt><trkpt lat="43.5600374" lon="10.74911"><ele>51.33333333333333</ele><time>2026-04-18T07:02:44.52Z</time></trkpt><trkpt lat="43.5598865" lon="10.7491541"><ele>51.0</ele><time>2026-04-18T07:02:45.509Z</time></trkpt><trkpt lat="43.5597464" lon="10.7492228"><ele>51.0</ele><time>2026-04-18T07:02:46.494Z</time></trkpt><trkpt lat="43.5596165" lon="10.7493287"><ele>51.0</ele><time>2026-04-18T07:02:47.502Z</time></trkpt><trkpt lat="43.5595055" lon="10.7494736"><ele>51.0</ele><time>2026-04-18T07:02:48.502Z</time></trkpt><trkpt lat="43.5594012" lon="10.7496535"><ele>51.0</ele><time>2026-04-18T07:02:49.504Z</time></trkpt><trkpt lat="43.5592872" lon="10.7498326"><ele>51.0</ele><time>2026-04-18T07:02:50.507Z</time></trkpt><trkpt lat="43.5591785" lon="10.7500056"><ele>51.0</ele><time>2026-04-18T07:02:51.501Z</time></trkpt><trkpt lat="43.5590547" lon="10.7501544"><ele>52.0</ele><time>2026-04-18T07:02:52.501Z</time></trkpt><trkpt lat="43.5589218" lon="10.7503118"><ele>53.0</ele><time>2026-04-18T07:02:53.515Z</time></trkpt><trkpt lat="43.5587965" lon="10.7504607"><ele>54.0</ele><time>2026-04-18T07:02:54.496Z</time></trkpt><trkpt lat="43.5586696" lon="10.7506236"><ele>54.0</ele><time>2026-04-18T07:02:55.507Z</time></trkpt><trkpt lat="43.5585569" lon="10.7508078"><ele>54.0</ele><time>2026-04-18T07:02:56.509Z</time></trkpt><trkpt lat="43.5584452" lon="10.7509934"><ele>54.0</ele><time>2026-04-18T07:02:57.512Z</time></trkpt><trkpt lat="43.5583349" lon="10.7511962"><ele>56.0</ele><time>2026-04-18T07:02:58.502Z</time></trkpt><trkpt lat="43.5582244" lon="10.7513789"><ele>58.0</ele><time>2026-04-18T07:02:59.499Z</time></trkpt><trkpt lat="43.5581037" lon="10.751561"><ele>60.0</ele><time>2026-04-18T07:03:00.498Z</time></trkpt><trkpt lat="43.5579618" lon="10.7517376"><ele>59.66666666666667</ele><time>2026-04-18T07:03:01.499Z</time></trkpt><trkpt lat="43.5578245" lon="10.7518915"><ele>59.333333333333336</ele><time>2026-04-18T07:03:02.499Z</time></trkpt><trkpt lat="43.5576854" lon="10.7520401"><ele>59.0</ele><time>2026-04-18T07:03:03.498Z</time></trkpt><trkpt lat="43.5575611" lon="10.7521559"><ele>59.0</ele><time>2026-04-18T07:03:04.496Z</time></trkpt><trkpt lat="43.5574606" lon="10.7522508"><ele>59.0</ele><time>2026-04-18T07:03:05.497Z</time></trkpt><trkpt lat="43.5573497" lon="10.7523261"><ele>59.0</ele><time>2026-04-18T07:03:06.493Z</time></trkpt><trkpt lat="43.5572438" lon="10.7523854"><ele>59.0</ele><time>2026-04-18T07:03:07.495Z</time></trkpt><trkpt lat="43.5571354" lon="10.7524529"><ele>58.75</ele><time>2026-04-18T07:03:08.498Z</time></trkpt><trkpt lat="43.5570315" lon="10.7525254"><ele>58.5</ele><time>2026-04-18T07:03:09.497Z</time></trkpt><trkpt lat="43.5569194" lon="10.7526026"><ele>58.25</ele><time>2026-04-18T07:03:10.5Z</time></trkpt><trkpt lat="43.5568252" lon="10.7527081"><ele>58.0</ele><time>2026-04-18T07:03:11.497Z</time></trkpt><trkpt lat="43.5567495" lon="10.7528331"><ele>58.0</ele><time>2026-04-18T07:03:12.496Z</time></trkpt><trkpt lat="43.5566775" lon="10.7529764"><ele>58.0</ele><time>2026-04-18T07:03:13.495Z</time></trkpt><trkpt lat="43.5566303" lon="10.7531607"><ele>58.0</ele><time>2026-04-18T07:03:14.49Z</time></trkpt><trkpt lat="43.5565742" lon="10.753349"><ele>58.0</ele><time>2026-04-18T07:03:15.488Z</time></trkpt><trkpt lat="43.5565195" lon="10.7535194"><ele>60.0</ele><time>2026-04-18T07:03:16.49Z</time></trkpt><trkpt lat="43.5564214" lon="10.7537071"><ele>62.0</ele><time>2026-04-18T07:03:17.497Z</time></trkpt><trkpt lat="43.5563246" lon="10.7538876"><ele>64.0</ele><time>2026-04-18T07:03:18.502Z</time></trkpt><trkpt lat="43.5562283" lon="10.7540452"><ele>63.5</ele><time>2026-04-18T07:03:19.495Z</time></trkpt><trkpt lat="43.5561397" lon="10.7541954"><ele>63.0</ele><time>2026-04-18T07:03:20.495Z</time></trkpt><trkpt lat="43.5560605" lon="10.7543539"><ele>62.5</ele><time>2026-04-18T07:03:21.499Z</time></trkpt><trkpt lat="43.5559941" lon="10.7545034"><ele>62.0</ele><time>2026-04-18T07:03:22.498Z</time></trkpt><trkpt lat="43.55594" lon="10.7546419"><ele>62.00000000000001</ele><time>2026-04-18T07:03:23.5Z</time></trkpt><trkpt lat="43.5558946" lon="10.7547555"><ele>62.0</ele><time>2026-04-18T07:03:24.498Z</time></trkpt><trkpt lat="43.5558651" lon="10.7548378"><ele>62.0</ele><time>2026-04-18T07:03:25.494Z</time></trkpt><trkpt lat="43.5558029" lon="10.7548931"><ele>62.0</ele><time>2026-04-18T07:03:27.495Z</time></trkpt><trkpt lat="43.555847" lon="10.7547729"><ele>62.00000000000001</ele><time>2026-04-18T07:03:42.498Z</time></trkpt><trkpt lat="43.5558953" lon="10.7546742"><ele>62.0</ele><time>2026-04-18T07:03:43.498Z</time></trkpt><trkpt lat="43.555959" lon="10.7545368"><ele>62.0</ele><time>2026-04-18T07:03:44.493Z</time></trkpt><trkpt lat="43.5560234" lon="10.754395"><ele>62.0</ele><time>2026-04-18T07:03:45.495Z</time></trkpt><trkpt lat="43.5561052" lon="10.7542385"><ele>62.0</ele><time>2026-04-18T07:03:46.488Z</time></trkpt><trkpt lat="43.556209" lon="10.7540591"><ele>62.0</ele><time>2026-04-18T07:03:47.494Z</time></trkpt><trkpt lat="43.5563195" lon="10.7538501"><ele>62.66666666666667</ele><time>2026-04-18T07:03:48.495Z</time></trkpt><trkpt lat="43.556403" lon="10.7536606"><ele>63.33333333333333</ele><time>2026-04-18T07:03:49.5Z</time></trkpt><trkpt lat="43.556479" lon="10.7534684"><ele>64.0</ele><time>2026-04-18T07:03:50.501Z</time></trkpt><trkpt lat="43.5565535" lon="10.753281"><ele>62.0</ele><time>2026-04-18T07:03:51.494Z</time></trkpt><trkpt lat="43.5566281" lon="10.7530965"><ele>60.0</ele><time>2026-04-18T07:03:52.495Z</time></trkpt><trkpt lat="43.5567341" lon="10.7529235"><ele>58.0</ele><time>2026-04-18T07:03:53.497Z</time></trkpt><trkpt lat="43.5568557" lon="10.7527581"><ele>58.33333333333333</ele><time>2026-04-18T07:03:54.5Z</time></trkpt><trkpt lat="43.5569936" lon="10.7525985"><ele>58.66666666666667</ele><time>2026-04-18T07:03:55.506Z</time></trkpt><trkpt lat="43.5571365" lon="10.7524716"><ele>59.0</ele><time>2026-04-18T07:03:56.494Z</time></trkpt><trkpt lat="43.5572962" lon="10.7523525"><ele>59.0</ele><time>2026-04-18T07:03:57.503Z</time></trkpt><trkpt lat="43.5574691" lon="10.7522419"><ele>59.0</ele><time>2026-04-18T07:03:58.502Z</time></trkpt><trkpt lat="43.5576375" lon="10.7521117"><ele>59.0</ele><time>2026-04-18T07:03:59.496Z</time></trkpt><trkpt lat="43.5578001" lon="10.7519625"><ele>59.333333333333336</ele><time>2026-04-18T07:04:00.493Z</time></trkpt><trkpt lat="43.5579461" lon="10.7518"><ele>59.66666666666667</ele><time>2026-04-18T07:04:01.497Z</time></trkpt><trkpt lat="43.5580847" lon="10.7516413"><ele>60.0</ele><time>2026-04-18T07:04:02.496Z</time></trkpt><trkpt lat="43.558191" lon="10.7514706"><ele>60.0</ele><time>2026-04-18T07:04:03.49Z</time></trkpt><trkpt lat="43.5583129" lon="10.7512664"><ele>60.0</ele><time>2026-04-18T07:04:04.5Z</time></trkpt><trkpt lat="43.5584129" lon="10.7510927"><ele>60.0</ele><time>2026-04-18T07:04:05.501Z</time></trkpt><trkpt lat="43.5584986" lon="10.750933"><ele>59.2</ele><time>2026-04-18T07:04:06.5Z</time></trkpt><trkpt lat="43.5585772" lon="10.7508032"><ele>58.4</ele><time>2026-04-18T07:04:07.508Z</time></trkpt><trkpt lat="43.558652" lon="10.7506886"><ele>57.599999999999994</ele><time>2026-04-18T07:04:08.501Z</time></trkpt><trkpt lat="43.5587183" lon="10.7505884"><ele>56.8</ele><time>2026-04-18T07:04:09.51Z</time></trkpt><trkpt lat="43.5587651" lon="10.7505293"><ele>56.0</ele><time>2026-04-18T07:04:10.508Z</time></trkpt><trkpt lat="43.5588535" lon="10.7505167"><ele>56.0</ele><time>2026-04-18T07:04:12.506Z</time></trkpt><trkpt lat="43.5589195" lon="10.7506598"><ele>55.99999999999999</ele><time>2026-04-18T07:04:14.505Z</time></trkpt><trkpt lat="43.5589967" lon="10.7507687"><ele>55.99999999999999</ele><time>2026-04-18T07:04:15.5Z</time></trkpt><trkpt lat="43.5590519" lon="10.7508702"><ele>56.0</ele><time>2026-04-18T07:04:16.52Z</time></trkpt><trkpt lat="43.559099" lon="10.7509822"><ele>56.0</ele><time>2026-04-18T07:04:17.515Z</time></trkpt><trkpt lat="43.5591384" lon="10.7510977"><ele>57.0</ele><time>2026-04-18T07:04:18.5Z</time></trkpt><trkpt lat="43.5591603" lon="10.7512146"><ele>57.99999999999999</ele><time>2026-04-18T07:04:19.498Z</time></trkpt><trkpt lat="43.5591688" lon="10.7513493"><ele>58.99999999999999</ele><time>2026-04-18T07:04:20.502Z</time></trkpt><trkpt lat="43.5591746" lon="10.7514937"><ele>60.0</ele><time>2026-04-18T07:04:21.502Z</time></trkpt><trkpt lat="43.5591812" lon="10.7516456"><ele>61.0</ele><time>2026-04-18T07:04:22.503Z</time></trkpt><trkpt lat="43.5591765" lon="10.7517946"><ele>62.0</ele><time>2026-04-18T07:04:23.502Z</time></trkpt><trkpt lat="43.5591741" lon="10.7519296"><ele>62.99999999999999</ele><time>2026-04-18T07:04:24.502Z</time></trkpt><trkpt lat="43.5591513" lon="10.7520523"><ele>63.99999999999999</ele><time>2026-04-18T07:04:25.51Z</time></trkpt><trkpt lat="43.5591022" lon="10.7521649"><ele>65.0</ele><time>2026-04-18T07:04:26.507Z</time></trkpt><trkpt lat="43.5590416" lon="10.7522486"><ele>66.0</ele><time>2026-04-18T07:04:27.516Z</time></trkpt><trkpt lat="43.5589604" lon="10.7523008"><ele>66.0</ele><time>2026-04-18T07:04:28.503Z</time></trkpt><trkpt lat="43.558875" lon="10.7523372"><ele>66.0</ele><time>2026-04-18T07:04:29.54Z</time></trkpt><trkpt lat="43.5587909" lon="10.7523872"><ele>66.0</ele><time>2026-04-18T07:04:30.509Z</time></trkpt><trkpt lat="43.5587062" lon="10.7524355"><ele>66.0</ele><time>2026-04-18T07:04:31.5Z</time></trkpt><trkpt lat="43.55866" lon="10.7525016"><ele>66.0</ele><time>2026-04-18T07:04:32.502Z</time></trkpt><trkpt lat="43.5586328" lon="10.7525973"><ele>66.0</ele><time>2026-04-18T07:04:33.499Z</time></trkpt><trkpt lat="43.5586392" lon="10.7527293"><ele>67.16666666666667</ele><time>2026-04-18T07:04:34.501Z</time></trkpt><trkpt lat="43.5586165" lon="10.752842"><ele>68.33333333333333</ele><time>2026-04-18T07:04:35.505Z</time></trkpt><trkpt lat="43.5585873" lon="10.7529498"><ele>69.5</ele><time>2026-04-18T07:04:36.498Z</time></trkpt><trkpt lat="43.5585771" lon="10.7530615"><ele>70.66666666666666</ele><time>2026-04-18T07:04:37.503Z</time></trkpt><trkpt lat="43.5585771" lon="10.7532028"><ele>71.83333333333333</ele><time>2026-04-18T07:04:38.498Z</time></trkpt><trkpt lat="43.5585692" lon="10.7533224"><ele>73.0</ele><time>2026-04-18T07:04:39.497Z</time></trkpt><trkpt lat="43.5585618" lon="10.7534462"><ele>75.5</ele><time>2026-04-18T07:04:40.505Z</time></trkpt><trkpt lat="43.5585313" lon="10.7535944"><ele>78.0</ele><time>2026-04-18T07:04:41.497Z</time></trkpt><trkpt lat="43.558451" lon="10.753781"><ele>80.5</ele><time>2026-04-18T07:04:42.498Z</time></trkpt><trkpt lat="43.5584348" lon="10.7539286"><ele>83.0</ele><time>2026-04-18T07:04:43.5Z</time></trkpt><trkpt lat="43.5584044" lon="10.7540969"><ele>83.0</ele><time>2026-04-18T07:04:44.5Z</time></trkpt><trkpt lat="43.5583739" lon="10.7542765"><ele>83.0</ele><time>2026-04-18T07:04:45.534Z</time></trkpt><trkpt lat="43.5583422" lon="10.7544457"><ele>83.0</ele><time>2026-04-18T07:04:46.505Z</time></trkpt><trkpt lat="43.558307" lon="10.7546146"><ele>83.0</ele><time>2026-04-18T07:04:47.506Z</time></trkpt><trkpt lat="43.558281" lon="10.7547921"><ele>84.75</ele><time>2026-04-18T07:04:48.505Z</time></trkpt><trkpt lat="43.5582571" lon="10.7549687"><ele>86.5</ele><time>2026-04-18T07:04:49.501Z</time></trkpt><trkpt lat="43.5582299" lon="10.7551408"><ele>88.25</ele><time>2026-04-18T07:04:50.505Z</time></trkpt><trkpt lat="43.5581875" lon="10.7553073"><ele>90.0</ele><time>2026-04-18T07:04:51.507Z</time></trkpt><trkpt lat="43.5581253" lon="10.7554749"><ele>91.4</ele><time>2026-04-18T07:04:52.518Z</time></trkpt><trkpt lat="43.5580597" lon="10.7556267"><ele>92.8</ele><time>2026-04-18T07:04:53.509Z</time></trkpt><trkpt lat="43.5580025" lon="10.7557647"><ele>94.19999999999999</ele><time>2026-04-18T07:04:54.516Z</time></trkpt><trkpt lat="43.5579524" lon="10.7558806"><ele>95.6</ele><time>2026-04-18T07:04:55.504Z</time></trkpt><trkpt lat="43.5579118" lon="10.7559938"><ele>97.0</ele><time>2026-04-18T07:04:56.508Z</time></trkpt><trkpt lat="43.5578863" lon="10.7560783"><ele>97.8</ele><time>2026-04-18T07:04:57.506Z</time></trkpt><trkpt lat="43.5578843" lon="10.7562428"><ele>98.6</ele><time>2026-04-18T07:04:59.501Z</time></trkpt><trkpt lat="43.5579262" lon="10.7563495"><ele>99.39999999999999</ele><time>2026-04-18T07:05:00.515Z</time></trkpt><trkpt lat="43.5579557" lon="10.7564597"><ele>100.19999999999999</ele><time>2026-04-18T07:05:01.532Z</time></trkpt><trkpt lat="43.5579932" lon="10.7565924"><ele>101.0</ele><time>2026-04-18T07:05:02.501Z</time></trkpt><trkpt lat="43.5580216" lon="10.7567215"><ele>101.0</ele><time>2026-04-18T07:05:03.505Z</time></trkpt><trkpt lat="43.5580399" lon="10.7568514"><ele>101.0</ele><time>2026-04-18T07:05:04.502Z</time></trkpt><trkpt lat="43.5580419" lon="10.7569935"><ele>101.0</ele><time>2026-04-18T07:05:05.507Z</time></trkpt><trkpt lat="43.5580261" lon="10.7571535"><ele>101.0</ele><time>2026-04-18T07:05:06.511Z</time></trkpt><trkpt lat="43.5579919" lon="10.7573257"><ele>101.0</ele><time>2026-04-18T07:05:07.529Z</time></trkpt><trkpt lat="43.5579563" lon="10.7574782"><ele>100.75</ele><time>2026-04-18T07:05:08.502Z</time></trkpt><trkpt lat="43.5579324" lon="10.7576758"><ele>100.5</ele><time>2026-04-18T07:05:09.499Z</time></trkpt><trkpt lat="43.557898" lon="10.7578734"><ele>100.25</ele><time>2026-04-18T07:05:10.503Z</time></trkpt><trkpt lat="43.5578595" lon="10.7580679"><ele>100.0</ele><time>2026-04-18T07:05:11.503Z</time></trkpt><trkpt lat="43.5578107" lon="10.7582715"><ele>100.0</ele><time>2026-04-18T07:05:12.498Z</time></trkpt><trkpt lat="43.5577515" lon="10.758458"><ele>100.0</ele><time>2026-04-18T07:05:13.498Z</time></trkpt><trkpt lat="43.557679" lon="10.7586358"><ele>100.0</ele><time>2026-04-18T07:05:14.502Z</time></trkpt><trkpt lat="43.5575981" lon="10.758809"><ele>100.0</ele><time>2026-04-18T07:05:15.539Z</time></trkpt><trkpt lat="43.5574953" lon="10.7589848"><ele>102.25</ele><time>2026-04-18T07:05:16.52Z</time></trkpt><trkpt lat="43.5574016" lon="10.759136"><ele>104.5</ele><time>2026-04-18T07:05:17.506Z</time></trkpt><trkpt lat="43.557294" lon="10.7592742"><ele>106.75</ele><time>2026-04-18T07:05:18.511Z</time></trkpt><trkpt lat="43.5572027" lon="10.7594109"><ele>109.0</ele><time>2026-04-18T07:05:19.517Z</time></trkpt><trkpt lat="43.5571463" lon="10.7595238"><ele>110.2</ele><time>2026-04-18T07:05:20.503Z</time></trkpt><trkpt lat="43.5571019" lon="10.7596382"><ele>111.4</ele><time>2026-04-18T07:05:21.502Z</time></trkpt><trkpt lat="43.5570927" lon="10.7598302"><ele>112.6</ele><time>2026-04-18T07:05:23.507Z</time></trkpt><trkpt lat="43.5571081" lon="10.759931"><ele>113.8</ele><time>2026-04-18T07:05:24.504Z</time></trkpt><trkpt lat="43.5571406" lon="10.7600534"><ele>115.0</ele><time>2026-04-18T07:05:25.511Z</time></trkpt><trkpt lat="43.5571878" lon="10.760212"><ele>116.66666666666667</ele><time>2026-04-18T07:05:26.492Z</time></trkpt><trkpt lat="43.5572479" lon="10.7603653"><ele>118.33333333333334</ele><time>2026-04-18T07:05:27.524Z</time></trkpt><trkpt lat="43.5572725" lon="10.7605886"><ele>120.0</ele><time>2026-04-18T07:05:28.504Z</time></trkpt><trkpt lat="43.5573016" lon="10.7608129"><ele>121.33333333333334</ele><time>2026-04-18T07:05:29.491Z</time></trkpt><trkpt lat="43.5573353" lon="10.7610345"><ele>122.66666666666667</ele><time>2026-04-18T07:05:30.503Z</time></trkpt><trkpt lat="43.5573667" lon="10.7612794"><ele>124.0</ele><time>2026-04-18T07:05:31.507Z</time></trkpt><trkpt lat="43.55741" lon="10.7614875"><ele>124.0</ele><time>2026-04-18T07:05:32.502Z</time></trkpt><trkpt lat="43.5574533" lon="10.7617021"><ele>124.0</ele><time>2026-04-18T07:05:33.505Z</time></trkpt><trkpt lat="43.5575046" lon="10.7619074"><ele>124.0</ele><time>2026-04-18T07:05:34.499Z</time></trkpt><trkpt lat="43.5575654" lon="10.7621183"><ele>124.75</ele><time>2026-04-18T07:05:35.499Z</time></trkpt><trkpt lat="43.557603" lon="10.7623142"><ele>125.5</ele><time>2026-04-18T07:05:36.499Z</time></trkpt><trkpt lat="43.5576489" lon="10.7625037"><ele>126.25</ele><time>2026-04-18T07:05:37.502Z</time></trkpt><trkpt lat="43.5576779" lon="10.7627092"><ele>127.0</ele><time>2026-04-18T07:05:38.501Z</time></trkpt><trkpt lat="43.557668" lon="10.7628984"><ele>128.25</ele><time>2026-04-18T07:05:39.501Z</time></trkpt><trkpt lat="43.5576522" lon="10.7630685"><ele>129.5</ele><time>2026-04-18T07:05:40.506Z</time></trkpt><trkpt lat="43.5576271" lon="10.763231"><ele>130.75</ele><time>2026-04-18T07:05:41.501Z</time></trkpt><trkpt lat="43.5576242" lon="10.7633915"><ele>132.0</ele><time>2026-04-18T07:05:42.506Z</time></trkpt><trkpt lat="43.557631" lon="10.7635268"><ele>133.4</ele><time>2026-04-18T07:05:43.495Z</time></trkpt><trkpt lat="43.5576892" lon="10.763673"><ele>134.79999999999998</ele><time>2026-04-18T07:05:44.494Z</time></trkpt><trkpt lat="43.5576972" lon="10.7638186"><ele>136.2</ele><time>2026-04-18T07:05:45.495Z</time></trkpt><trkpt lat="43.5577011" lon="10.7639808"><ele>137.6</ele><time>2026-04-18T07:05:46.493Z</time></trkpt><trkpt lat="43.5577065" lon="10.7641057"><ele>139.0</ele><time>2026-04-18T07:05:47.501Z</time></trkpt><trkpt lat="43.5576825" lon="10.7642267"><ele>139.0</ele><time>2026-04-18T07:05:48.494Z</time></trkpt><trkpt lat="43.5576434" lon="10.764319"><ele>139.0</ele><time>2026-04-18T07:05:49.497Z</time></trkpt><trkpt lat="43.5575634" lon="10.7643493"><ele>139.0</ele><time>2026-04-18T07:05:50.514Z</time></trkpt><trkpt lat="43.557459" lon="10.7643825"><ele>139.0</ele><time>2026-04-18T07:05:51.503Z</time></trkpt><trkpt lat="43.5573822" lon="10.764455"><ele>139.0</ele><time>2026-04-18T07:05:52.493Z</time></trkpt><trkpt lat="43.5573266" lon="10.7645889"><ele>141.0</ele><time>2026-04-18T07:05:53.503Z</time></trkpt><trkpt lat="43.5572808" lon="10.7647538"><ele>143.0</ele><time>2026-04-18T07:05:54.494Z</time></trkpt><trkpt lat="43.5572224" lon="10.7649122"><ele>145.0</ele><time>2026-04-18T07:05:55.501Z</time></trkpt><trkpt lat="43.5571745" lon="10.7650673"><ele>147.0</ele><time>2026-04-18T07:05:56.498Z</time></trkpt><trkpt lat="43.5571251" lon="10.7652321"><ele>146.75</ele><time>2026-04-18T07:05:57.497Z</time></trkpt><trkpt lat="43.5570705" lon="10.7653786"><ele>146.5</ele><time>2026-04-18T07:05:58.499Z</time></trkpt><trkpt lat="43.5570192" lon="10.7655405"><ele>146.25</ele><time>2026-04-18T07:05:59.495Z</time></trkpt><trkpt lat="43.5569612" lon="10.7656661"><ele>146.0</ele><time>2026-04-18T07:06:00.498Z</time></trkpt><trkpt lat="43.5568843" lon="10.765794"><ele>146.0</ele><time>2026-04-18T07:06:01.503Z</time></trkpt><trkpt lat="43.5567922" lon="10.7659016"><ele>146.0</ele><time>2026-04-18T07:06:02.496Z</time></trkpt><trkpt lat="43.5566943" lon="10.7660152"><ele>146.0</ele><time>2026-04-18T07:06:03.494Z</time></trkpt><trkpt lat="43.556601" lon="10.7661281"><ele>146.0</ele><time>2026-04-18T07:06:04.504Z</time></trkpt><trkpt lat="43.556514" lon="10.7662306"><ele>147.0</ele><time>2026-04-18T07:06:05.489Z</time></trkpt><trkpt lat="43.5564274" lon="10.7663426"><ele>148.0</ele><time>2026-04-18T07:06:06.517Z</time></trkpt><trkpt lat="43.556344" lon="10.7664514"><ele>149.0</ele><time>2026-04-18T07:06:07.498Z</time></trkpt><trkpt lat="43.5562703" lon="10.7665391"><ele>150.0</ele><time>2026-04-18T07:06:08.497Z</time></trkpt><trkpt lat="43.5562058" lon="10.7666005"><ele>151.0</ele><time>2026-04-18T07:06:09.504Z</time></trkpt><trkpt lat="43.5561414" lon="10.766635"><ele>151.0</ele><time>2026-04-18T07:06:10.496Z</time></trkpt><trkpt lat="43.5560742" lon="10.7666558"><ele>151.0</ele><time>2026-04-18T07:06:11.527Z</time></trkpt><trkpt lat="43.5559545" lon="10.7666238"><ele>151.0</ele><time>2026-04-18T07:06:13.499Z</time></trkpt><trkpt lat="43.5558836" lon="10.7666752"><ele>151.0</ele><time>2026-04-18T07:06:14.491Z</time></trkpt><trkpt lat="43.5558336" lon="10.7668386"><ele>151.0</ele><time>2026-04-18T07:06:16.512Z</time></trkpt><trkpt lat="43.5558551" lon="10.7670001"><ele>150.83333333333334</ele><time>2026-04-18T07:06:18.506Z</time></trkpt><trkpt lat="43.555878" lon="10.767087"><ele>150.66666666666669</ele><time>2026-04-18T07:06:19.504Z</time></trkpt><trkpt lat="43.5559122" lon="10.767161"><ele>150.5</ele><time>2026-04-18T07:06:20.497Z</time></trkpt><trkpt lat="43.5559437" lon="10.7672802"><ele>150.33333333333334</ele><time>2026-04-18T07:06:21.501Z</time></trkpt><trkpt lat="43.5559798" lon="10.7674082"><ele>150.16666666666666</ele><time>2026-04-18T07:06:22.495Z</time></trkpt><trkpt lat="43.5560344" lon="10.7675334"><ele>150.0</ele><time>2026-04-18T07:06:23.515Z</time></trkpt><trkpt lat="43.5560872" lon="10.7676413"><ele>149.0</ele><time>2026-04-18T07:06:24.506Z</time></trkpt><trkpt lat="43.5561234" lon="10.7677299"><ele>148.0</ele><time>2026-04-18T07:06:25.504Z</time></trkpt><trkpt lat="43.5561079" lon="10.7679026"><ele>147.0</ele><time>2026-04-18T07:06:27.511Z</time></trkpt><trkpt lat="43.5560952" lon="10.7680053"><ele>146.0</ele><time>2026-04-18T07:06:28.511Z</time></trkpt><trkpt lat="43.5560364" lon="10.768122"><ele>145.0</ele><time>2026-04-18T07:06:29.505Z</time></trkpt><trkpt lat="43.5559555" lon="10.768222"><ele>145.0</ele><time>2026-04-18T07:06:30.504Z</time></trkpt><trkpt lat="43.5558321" lon="10.7683517"><ele>145.0</ele><time>2026-04-18T07:06:31.505Z</time></trkpt><trkpt lat="43.5557356" lon="10.7684696"><ele>145.0</ele><time>2026-04-18T07:06:32.502Z</time></trkpt><trkpt lat="43.5556348" lon="10.7686079"><ele>145.0</ele><time>2026-04-18T07:06:33.512Z</time></trkpt><trkpt lat="43.5555178" lon="10.7687856"><ele>143.33333333333334</ele><time>2026-04-18T07:06:34.504Z</time></trkpt><trkpt lat="43.555391" lon="10.7689212"><ele>141.66666666666666</ele><time>2026-04-18T07:06:35.499Z</time></trkpt><trkpt lat="43.5552559" lon="10.7690914"><ele>140.0</ele><time>2026-04-18T07:06:36.489Z</time></trkpt><trkpt lat="43.5551354" lon="10.769243"><ele>138.75</ele><time>2026-04-18T07:06:37.493Z</time></trkpt><trkpt lat="43.5550235" lon="10.7693831"><ele>137.5</ele><time>2026-04-18T07:06:38.492Z</time></trkpt><trkpt lat="43.5549233" lon="10.7695015"><ele>136.25</ele><time>2026-04-18T07:06:39.51Z</time></trkpt><trkpt lat="43.5548199" lon="10.7696409"><ele>135.0</ele><time>2026-04-18T07:06:40.496Z</time></trkpt><trkpt lat="43.5547201" lon="10.7698038"><ele>135.0</ele><time>2026-04-18T07:06:41.506Z</time></trkpt><trkpt lat="43.5546421" lon="10.7699407"><ele>135.0</ele><time>2026-04-18T07:06:42.504Z</time></trkpt><trkpt lat="43.5545777" lon="10.7700863"><ele>135.0</ele><time>2026-04-18T07:06:43.515Z</time></trkpt><trkpt lat="43.5545154" lon="10.7702603"><ele>135.0</ele><time>2026-04-18T07:06:44.505Z</time></trkpt><trkpt lat="43.5544565" lon="10.7704321"><ele>136.75</ele><time>2026-04-18T07:06:45.514Z</time></trkpt><trkpt lat="43.5543983" lon="10.7706257"><ele>138.5</ele><time>2026-04-18T07:06:46.502Z</time></trkpt><trkpt lat="43.5543458" lon="10.7707999"><ele>140.25</ele><time>2026-04-18T07:06:47.547Z</time></trkpt><trkpt lat="43.5542954" lon="10.7709619"><ele>142.0</ele><time>2026-04-18T07:06:48.502Z</time></trkpt><trkpt lat="43.554235" lon="10.7711025"><ele>142.25</ele><time>2026-04-18T07:06:49.496Z</time></trkpt><trkpt lat="43.5541847" lon="10.7712283"><ele>142.5</ele><time>2026-04-18T07:06:50.5Z</time></trkpt><trkpt lat="43.5541476" lon="10.7713747"><ele>142.75</ele><time>2026-04-18T07:06:51.512Z</time></trkpt><trkpt lat="43.5541248" lon="10.7715377"><ele>143.0</ele><time>2026-04-18T07:06:52.506Z</time></trkpt><trkpt lat="43.5541317" lon="10.7717039"><ele>142.75</ele><time>2026-04-18T07:06:53.514Z</time></trkpt><trkpt lat="43.5541229" lon="10.7718938"><ele>142.5</ele><time>2026-04-18T07:06:54.509Z</time></trkpt><trkpt lat="43.5541311" lon="10.7720936"><ele>142.25</ele><time>2026-04-18T07:06:55.51Z</time></trkpt><trkpt lat="43.5541396" lon="10.7723073"><ele>142.0</ele><time>2026-04-18T07:06:56.518Z</time></trkpt><trkpt lat="43.5541486" lon="10.7725268"><ele>143.0</ele><time>2026-04-18T07:06:57.5Z</time></trkpt><trkpt lat="43.5541455" lon="10.7727366"><ele>144.0</ele><time>2026-04-18T07:06:58.514Z</time></trkpt><trkpt lat="43.5541421" lon="10.7729477"><ele>145.0</ele><time>2026-04-18T07:06:59.504Z</time></trkpt><trkpt lat="43.5541506" lon="10.7731726"><ele>145.0</ele><time>2026-04-18T07:07:00.504Z</time></trkpt><trkpt lat="43.5541581" lon="10.7734186"><ele>145.0</ele><time>2026-04-18T07:07:01.5Z</time></trkpt><trkpt lat="43.5541777" lon="10.7736472"><ele>145.0</ele><time>2026-04-18T07:07:02.496Z</time></trkpt><trkpt lat="43.5541945" lon="10.7738759"><ele>147.33333333333334</ele><time>2026-04-18T07:07:03.503Z</time></trkpt><trkpt lat="43.5541956" lon="10.7741088"><ele>149.66666666666666</ele><time>2026-04-18T07:07:04.501Z</time></trkpt><trkpt lat="43.5541782" lon="10.7743322"><ele>152.0</ele><time>2026-04-18T07:07:05.501Z</time></trkpt><trkpt lat="43.5541574" lon="10.7745383"><ele>154.0</ele><time>2026-04-18T07:07:06.492Z</time></trkpt><trkpt lat="43.5541254" lon="10.7747517"><ele>156.0</ele><time>2026-04-18T07:07:07.502Z</time></trkpt><trkpt lat="43.5541" lon="10.7749275"><ele>158.0</ele><time>2026-04-18T07:07:08.493Z</time></trkpt><trkpt lat="43.5540801" lon="10.7750868"><ele>160.0</ele><time>2026-04-18T07:07:09.502Z</time></trkpt><trkpt lat="43.5540792" lon="10.775193"><ele>160.0</ele><time>2026-04-18T07:07:10.501Z</time></trkpt><trkpt lat="43.5541179" lon="10.7753488"><ele>160.0</ele><time>2026-04-18T07:07:12.504Z</time></trkpt><trkpt lat="43.5542376" lon="10.7754762"><ele>160.0</ele><time>2026-04-18T07:07:14.508Z</time></trkpt><trkpt lat="43.5543086" lon="10.775527"><ele>160.0</ele><time>2026-04-18T07:07:15.51Z</time></trkpt><trkpt lat="43.5543934" lon="10.7756004"><ele>160.0</ele><time>2026-04-18T07:07:16.498Z</time></trkpt><trkpt lat="43.5544792" lon="10.7756765"><ele>160.0</ele><time>2026-04-18T07:07:17.505Z</time></trkpt><trkpt lat="43.5545421" lon="10.7757622"><ele>160.0</ele><time>2026-04-18T07:07:18.512Z</time></trkpt><trkpt lat="43.5546279" lon="10.7758538"><ele>160.0</ele><time>2026-04-18T07:07:19.503Z</time></trkpt><trkpt lat="43.5547216" lon="10.7759515"><ele>160.0</ele><time>2026-04-18T07:07:20.509Z</time></trkpt><trkpt lat="43.5548028" lon="10.7760675"><ele>164.2</ele><time>2026-04-18T07:07:21.495Z</time></trkpt><trkpt lat="43.5548609" lon="10.7761799"><ele>168.4</ele><time>2026-04-18T07:07:22.494Z</time></trkpt><trkpt lat="43.5549304" lon="10.7762831"><ele>172.60000000000002</ele><time>2026-04-18T07:07:23.507Z</time></trkpt><trkpt lat="43.5549871" lon="10.7763946"><ele>176.8</ele><time>2026-04-18T07:07:24.494Z</time></trkpt><trkpt lat="43.5550057" lon="10.7765186"><ele>181.0</ele><time>2026-04-18T07:07:25.495Z</time></trkpt><trkpt lat="43.5550136" lon="10.776622"><ele>181.0</ele><time>2026-04-18T07:07:26.497Z</time></trkpt><trkpt lat="43.5550075" lon="10.7767538"><ele>181.0</ele><time>2026-04-18T07:07:27.525Z</time></trkpt><trkpt lat="43.5549804" lon="10.7768795"><ele>181.0</ele><time>2026-04-18T07:07:28.494Z</time></trkpt><trkpt lat="43.554948" lon="10.7769769"><ele>181.0</ele><time>2026-04-18T07:07:29.498Z</time></trkpt><trkpt lat="43.5549257" lon="10.7770942"><ele>181.0</ele><time>2026-04-18T07:07:30.502Z</time></trkpt><trkpt lat="43.5549152" lon="10.7772178"><ele>181.0</ele><time>2026-04-18T07:07:31.504Z</time></trkpt><trkpt lat="43.5549252" lon="10.7773383"><ele>181.4</ele><time>2026-04-18T07:07:32.507Z</time></trkpt><trkpt lat="43.5549418" lon="10.777453"><ele>181.8</ele><time>2026-04-18T07:07:33.539Z</time></trkpt><trkpt lat="43.5549809" lon="10.7775524"><ele>182.20000000000002</ele><time>2026-04-18T07:07:34.506Z</time></trkpt><trkpt lat="43.5550707" lon="10.7776503"><ele>182.60000000000002</ele><time>2026-04-18T07:07:35.504Z</time></trkpt><trkpt lat="43.555141" lon="10.7777047"><ele>183.0</ele><time>2026-04-18T07:07:36.511Z</time></trkpt><trkpt lat="43.5552173" lon="10.7777697"><ele>183.0</ele><time>2026-04-18T07:07:37.492Z</time></trkpt><trkpt lat="43.555271" lon="10.7778192"><ele>183.0</ele><time>2026-04-18T07:07:38.528Z</time></trkpt><trkpt lat="43.5553711" lon="10.7778914"><ele>183.0</ele><time>2026-04-18T07:07:40.5Z</time></trkpt><trkpt lat="43.5553914" lon="10.7779788"><ele>183.0</ele><time>2026-04-18T07:07:42.498Z</time></trkpt><trkpt lat="43.5553971" lon="10.7780863"><ele>183.0</ele><time>2026-04-18T07:07:44.5Z</time></trkpt><trkpt lat="43.5554051" lon="10.778235"><ele>183.0</ele><time>2026-04-18T07:07:46.509Z</time></trkpt><trkpt lat="43.5554203" lon="10.7783893"><ele>182.4</ele><time>2026-04-18T07:07:48.507Z</time></trkpt><trkpt lat="43.5554361" lon="10.7785541"><ele>181.8</ele><time>2026-04-18T07:07:50.509Z</time></trkpt><trkpt lat="43.5554309" lon="10.7787454"><ele>181.2</ele><time>2026-04-18T07:07:52.495Z</time></trkpt><trkpt lat="43.5554314" lon="10.7788338"><ele>180.6</ele><time>2026-04-18T07:07:53.515Z</time></trkpt><trkpt lat="43.5554324" lon="10.7789396"><ele>180.0</ele><time>2026-04-18T07:07:54.51Z</time></trkpt><trkpt lat="43.5554246" lon="10.7790488"><ele>180.0</ele><time>2026-04-18T07:07:55.508Z</time></trkpt><trkpt lat="43.5554212" lon="10.7791469"><ele>180.0</ele><time>2026-04-18T07:07:56.507Z</time></trkpt><trkpt lat="43.5554213" lon="10.7792461"><ele>180.0</ele><time>2026-04-18T07:07:57.504Z</time></trkpt><trkpt lat="43.555418" lon="10.7793624"><ele>180.0</ele><time>2026-04-18T07:07:58.519Z</time></trkpt><trkpt lat="43.5554255" lon="10.7794778"><ele>180.0</ele><time>2026-04-18T07:07:59.511Z</time></trkpt><trkpt lat="43.5554338" lon="10.7795798"><ele>180.0</ele><time>2026-04-18T07:08:00.505Z</time></trkpt><trkpt lat="43.5554492" lon="10.7796933"><ele>180.2</ele><time>2026-04-18T07:08:01.507Z</time></trkpt><trkpt lat="43.5554731" lon="10.779813"><ele>180.4</ele><time>2026-04-18T07:08:02.506Z</time></trkpt><trkpt lat="43.5555004" lon="10.7799423"><ele>180.60000000000002</ele><time>2026-04-18T07:08:03.515Z</time></trkpt><trkpt lat="43.555538" lon="10.7800713"><ele>180.8</ele><time>2026-04-18T07:08:04.509Z</time></trkpt><trkpt lat="43.5555812" lon="10.7802"><ele>181.0</ele><time>2026-04-18T07:08:05.517Z</time></trkpt><trkpt lat="43.5556287" lon="10.7803315"><ele>181.0</ele><time>2026-04-18T07:08:06.506Z</time></trkpt><trkpt lat="43.5556752" lon="10.7804643"><ele>181.0</ele><time>2026-04-18T07:08:07.496Z</time></trkpt><trkpt lat="43.5557171" lon="10.7805895"><ele>181.0</ele><time>2026-04-18T07:08:08.501Z</time></trkpt><trkpt lat="43.5557599" lon="10.7807032"><ele>181.0</ele><time>2026-04-18T07:08:09.504Z</time></trkpt><trkpt lat="43.5558022" lon="10.7808201"><ele>181.0</ele><time>2026-04-18T07:08:10.503Z</time></trkpt><trkpt lat="43.5558397" lon="10.7809262"><ele>181.0</ele><time>2026-04-18T07:08:11.493Z</time></trkpt><trkpt lat="43.5558449" lon="10.7810342"><ele>181.0</ele><time>2026-04-18T07:08:12.505Z</time></trkpt><trkpt lat="43.5558334" lon="10.781136"><ele>181.0</ele><time>2026-04-18T07:08:13.507Z</time></trkpt><trkpt lat="43.5558291" lon="10.7812515"><ele>181.0</ele><time>2026-04-18T07:08:14.505Z</time></trkpt><trkpt lat="43.5558308" lon="10.7813916"><ele>181.0</ele><time>2026-04-18T07:08:15.496Z</time></trkpt><trkpt lat="43.5558437" lon="10.7815283"><ele>181.0</ele><time>2026-04-18T07:08:16.495Z</time></trkpt><trkpt lat="43.5558322" lon="10.7816499"><ele>181.0</ele><time>2026-04-18T07:08:17.504Z</time></trkpt><trkpt lat="43.555795" lon="10.7817615"><ele>181.0</ele><time>2026-04-18T07:08:18.502Z</time></trkpt><trkpt lat="43.555756" lon="10.7818758"><ele>181.0</ele><time>2026-04-18T07:08:19.503Z</time></trkpt><trkpt lat="43.5557219" lon="10.7819678"><ele>181.0</ele><time>2026-04-18T07:08:20.505Z</time></trkpt><trkpt lat="43.5556865" lon="10.7820689"><ele>181.0</ele><time>2026-04-18T07:08:22.491Z</time></trkpt><trkpt lat="43.5556382" lon="10.7822196"><ele>179.66666666666669</ele><time>2026-04-18T07:08:24.504Z</time></trkpt><trkpt lat="43.5556113" lon="10.7823039"><ele>178.33333333333334</ele><time>2026-04-18T07:08:25.505Z</time></trkpt><trkpt lat="43.5555957" lon="10.7824033"><ele>177.0</ele><time>2026-04-18T07:08:26.536Z</time></trkpt><trkpt lat="43.5555776" lon="10.7825062"><ele>175.66666666666666</ele><time>2026-04-18T07:08:27.514Z</time></trkpt><trkpt lat="43.5555707" lon="10.7826085"><ele>174.33333333333331</ele><time>2026-04-18T07:08:28.51Z</time></trkpt><trkpt lat="43.5555617" lon="10.7827304"><ele>173.0</ele><time>2026-04-18T07:08:29.51Z</time></trkpt><trkpt lat="43.5555569" lon="10.7828646"><ele>171.0</ele><time>2026-04-18T07:08:30.5Z</time></trkpt><trkpt lat="43.5555584" lon="10.7830133"><ele>169.0</ele><time>2026-04-18T07:08:31.504Z</time></trkpt><trkpt lat="43.5555562" lon="10.783137"><ele>167.0</ele><time>2026-04-18T07:08:32.511Z</time></trkpt><trkpt lat="43.5555514" lon="10.7832824"><ele>165.0</ele><time>2026-04-18T07:08:33.507Z</time></trkpt><trkpt lat="43.5555323" lon="10.7834248"><ele>163.0</ele><time>2026-04-18T07:08:34.507Z</time></trkpt><trkpt lat="43.5555089" lon="10.7835561"><ele>161.6</ele><time>2026-04-18T07:08:35.504Z</time></trkpt><trkpt lat="43.5554824" lon="10.7836644"><ele>160.20000000000002</ele><time>2026-04-18T07:08:36.505Z</time></trkpt><trkpt lat="43.5554696" lon="10.7837868"><ele>158.8</ele><time>2026-04-18T07:08:37.505Z</time></trkpt><trkpt lat="43.5554543" lon="10.7839067"><ele>157.4</ele><time>2026-04-18T07:08:38.498Z</time></trkpt><trkpt lat="43.5554454" lon="10.7840364"><ele>156.0</ele><time>2026-04-18T07:08:39.486Z</time></trkpt><trkpt lat="43.555469" lon="10.7841696"><ele>156.0</ele><time>2026-04-18T07:08:40.505Z</time></trkpt><trkpt lat="43.5554948" lon="10.784302"><ele>156.0</ele><time>2026-04-18T07:08:41.525Z</time></trkpt><trkpt lat="43.55554" lon="10.7844097"><ele>156.0</ele><time>2026-04-18T07:08:42.504Z</time></trkpt><trkpt lat="43.5555851" lon="10.7845423"><ele>156.0</ele><time>2026-04-18T07:08:43.512Z</time></trkpt><trkpt lat="43.5556241" lon="10.7846886"><ele>156.0</ele><time>2026-04-18T07:08:44.503Z</time></trkpt><trkpt lat="43.5556669" lon="10.7847913"><ele>156.16666666666666</ele><time>2026-04-18T07:08:45.503Z</time></trkpt><trkpt lat="43.5556748" lon="10.7849078"><ele>156.33333333333334</ele><time>2026-04-18T07:08:46.506Z</time></trkpt><trkpt lat="43.555689" lon="10.7850091"><ele>156.5</ele><time>2026-04-18T07:08:47.504Z</time></trkpt><trkpt lat="43.5556869" lon="10.7851151"><ele>156.66666666666669</ele><time>2026-04-18T07:08:48.504Z</time></trkpt><trkpt lat="43.5556792" lon="10.7852302"><ele>156.83333333333334</ele><time>2026-04-18T07:08:49.512Z</time></trkpt><trkpt lat="43.5556634" lon="10.7853392"><ele>157.0</ele><time>2026-04-18T07:08:50.513Z</time></trkpt><trkpt lat="43.5556368" lon="10.7854743"><ele>157.0</ele><time>2026-04-18T07:08:51.497Z</time></trkpt><trkpt lat="43.5556147" lon="10.7856074"><ele>157.0</ele><time>2026-04-18T07:08:52.516Z</time></trkpt><trkpt lat="43.5555993" lon="10.7857269"><ele>157.0</ele><time>2026-04-18T07:08:53.506Z</time></trkpt><trkpt lat="43.5556387" lon="10.7858187"><ele>157.0</ele><time>2026-04-18T07:08:54.506Z</time></trkpt><trkpt lat="43.5557067" lon="10.7859123"><ele>157.0</ele><time>2026-04-18T07:08:55.518Z</time></trkpt><trkpt lat="43.5557701" lon="10.785987"><ele>157.0</ele><time>2026-04-18T07:08:56.515Z</time></trkpt><trkpt lat="43.5558543" lon="10.786049"><ele>156.79999999999998</ele><time>2026-04-18T07:08:57.513Z</time></trkpt><trkpt lat="43.5559381" lon="10.7861413"><ele>156.6</ele><time>2026-04-18T07:08:58.509Z</time></trkpt><trkpt lat="43.5560166" lon="10.7862278"><ele>156.39999999999998</ele><time>2026-04-18T07:08:59.504Z</time></trkpt><trkpt lat="43.5560956" lon="10.786329"><ele>156.2</ele><time>2026-04-18T07:09:00.526Z</time></trkpt><trkpt lat="43.5561696" lon="10.7864381"><ele>156.0</ele><time>2026-04-18T07:09:01.503Z</time></trkpt><trkpt lat="43.5562422" lon="10.7865563"><ele>155.4</ele><time>2026-04-18T07:09:02.518Z</time></trkpt><trkpt lat="43.5563123" lon="10.7866722"><ele>154.8</ele><time>2026-04-18T07:09:03.512Z</time></trkpt><trkpt lat="43.5563801" lon="10.7867781"><ele>154.20000000000002</ele><time>2026-04-18T07:09:04.506Z</time></trkpt><trkpt lat="43.5564458" lon="10.7868874"><ele>153.6</ele><time>2026-04-18T07:09:05.512Z</time></trkpt><trkpt lat="43.5565136" lon="10.7869858"><ele>153.0</ele><time>2026-04-18T07:09:06.513Z</time></trkpt><trkpt lat="43.5565781" lon="10.7870905"><ele>152.8</ele><time>2026-04-18T07:09:07.513Z</time></trkpt><trkpt lat="43.5566325" lon="10.7871873"><ele>152.60000000000002</ele><time>2026-04-18T07:09:08.51Z</time></trkpt><trkpt lat="43.5566846" lon="10.7872782"><ele>152.39999999999998</ele><time>2026-04-18T07:09:09.51Z</time></trkpt><trkpt lat="43.5567335" lon="10.7873786"><ele>152.2</ele><time>2026-04-18T07:09:10.502Z</time></trkpt><trkpt lat="43.5567808" lon="10.7874933"><ele>152.0</ele><time>2026-04-18T07:09:11.509Z</time></trkpt><trkpt lat="43.5568264" lon="10.7876251"><ele>151.0</ele><time>2026-04-18T07:09:12.503Z</time></trkpt><trkpt lat="43.5568726" lon="10.7877698"><ele>150.0</ele><time>2026-04-18T07:09:13.522Z</time></trkpt><trkpt lat="43.5569138" lon="10.787909"><ele>149.0</ele><time>2026-04-18T07:09:14.515Z</time></trkpt><trkpt lat="43.5569531" lon="10.7880479"><ele>148.0</ele><time>2026-04-18T07:09:15.518Z</time></trkpt><trkpt lat="43.5569975" lon="10.7881891"><ele>147.0</ele><time>2026-04-18T07:09:16.514Z</time></trkpt><trkpt lat="43.5570388" lon="10.7883181"><ele>147.0</ele><time>2026-04-18T07:09:17.503Z</time></trkpt><trkpt lat="43.5570982" lon="10.7884549"><ele>147.0</ele><time>2026-04-18T07:09:18.512Z</time></trkpt><trkpt lat="43.5571593" lon="10.7885823"><ele>147.0</ele><time>2026-04-18T07:09:19.514Z</time></trkpt><trkpt lat="43.5572212" lon="10.7887137"><ele>147.0</ele><time>2026-04-18T07:09:20.518Z</time></trkpt><trkpt lat="43.5572737" lon="10.7888512"><ele>148.0</ele><time>2026-04-18T07:09:21.509Z</time></trkpt><trkpt lat="43.5573224" lon="10.7889889"><ele>149.0</ele><time>2026-04-18T07:09:22.512Z</time></trkpt><trkpt lat="43.5573599" lon="10.7891192"><ele>150.0</ele><time>2026-04-18T07:09:23.499Z</time></trkpt><trkpt lat="43.5573706" lon="10.7892498"><ele>151.0</ele><time>2026-04-18T07:09:24.504Z</time></trkpt><trkpt lat="43.5573744" lon="10.7893759"><ele>152.0</ele><time>2026-04-18T07:09:25.513Z</time></trkpt><trkpt lat="43.5573879" lon="10.7895046"><ele>152.0</ele><time>2026-04-18T07:09:26.511Z</time></trkpt><trkpt lat="43.5574028" lon="10.7896339"><ele>152.0</ele><time>2026-04-18T07:09:27.522Z</time></trkpt><trkpt lat="43.5574329" lon="10.7897517"><ele>152.0</ele><time>2026-04-18T07:09:28.514Z</time></trkpt><trkpt lat="43.5574719" lon="10.7898572"><ele>152.0</ele><time>2026-04-18T07:09:29.522Z</time></trkpt><trkpt lat="43.5575256" lon="10.7899615"><ele>152.0</ele><time>2026-04-18T07:09:30.507Z</time></trkpt><trkpt lat="43.557585" lon="10.7900681"><ele>150.2</ele><time>2026-04-18T07:09:31.505Z</time></trkpt><trkpt lat="43.5576496" lon="10.7901789"><ele>148.39999999999998</ele><time>2026-04-18T07:09:32.507Z</time></trkpt><trkpt lat="43.5577159" lon="10.7902939"><ele>146.60000000000002</ele><time>2026-04-18T07:09:33.506Z</time></trkpt><trkpt lat="43.5577781" lon="10.7904195"><ele>144.8</ele><time>2026-04-18T07:09:34.503Z</time></trkpt><trkpt lat="43.5578379" lon="10.790538"><ele>143.0</ele><time>2026-04-18T07:09:35.512Z</time></trkpt><trkpt lat="43.5578989" lon="10.790664"><ele>143.0</ele><time>2026-04-18T07:09:36.513Z</time></trkpt><trkpt lat="43.557953" lon="10.7908036"><ele>143.0</ele><time>2026-04-18T07:09:37.511Z</time></trkpt><trkpt lat="43.5580079" lon="10.7909196"><ele>143.0</ele><time>2026-04-18T07:09:38.51Z</time></trkpt><trkpt lat="43.558045" lon="10.7910309"><ele>143.0</ele><time>2026-04-18T07:09:39.51Z</time></trkpt><trkpt lat="43.5580651" lon="10.7911395"><ele>143.0</ele><time>2026-04-18T07:09:40.503Z</time></trkpt><trkpt lat="43.5580728" lon="10.7912612"><ele>143.0</ele><time>2026-04-18T07:09:41.502Z</time></trkpt><trkpt lat="43.5580638" lon="10.7913934"><ele>143.0</ele><time>2026-04-18T07:09:42.5Z</time></trkpt><trkpt lat="43.558045" lon="10.7915368"><ele>143.0</ele><time>2026-04-18T07:09:43.507Z</time></trkpt><trkpt lat="43.5580279" lon="10.7916793"><ele>143.0</ele><time>2026-04-18T07:09:44.508Z</time></trkpt><trkpt lat="43.5579913" lon="10.7918187"><ele>143.0</ele><time>2026-04-18T07:09:45.513Z</time></trkpt><trkpt lat="43.55793" lon="10.791945"><ele>142.6</ele><time>2026-04-18T07:09:46.507Z</time></trkpt><trkpt lat="43.5578624" lon="10.7920474"><ele>142.20000000000002</ele><time>2026-04-18T07:09:47.51Z</time></trkpt><trkpt lat="43.5578221" lon="10.7921528"><ele>141.8</ele><time>2026-04-18T07:09:48.527Z</time></trkpt><trkpt lat="43.5578014" lon="10.7922715"><ele>141.4</ele><time>2026-04-18T07:09:49.523Z</time></trkpt><trkpt lat="43.5578152" lon="10.7924067"><ele>141.0</ele><time>2026-04-18T07:09:50.523Z</time></trkpt><trkpt lat="43.5578624" lon="10.7925542"><ele>143.5</ele><time>2026-04-18T07:09:51.515Z</time></trkpt><trkpt lat="43.5579091" lon="10.7927125"><ele>146.0</ele><time>2026-04-18T07:09:52.524Z</time></trkpt><trkpt lat="43.5579494" lon="10.7928806"><ele>148.5</ele><time>2026-04-18T07:09:53.519Z</time></trkpt><trkpt lat="43.5579949" lon="10.793053"><ele>151.0</ele><time>2026-04-18T07:09:54.508Z</time></trkpt><trkpt lat="43.5580405" lon="10.7932154"><ele>151.0</ele><time>2026-04-18T07:09:55.512Z</time></trkpt><trkpt lat="43.558085" lon="10.7933739"><ele>151.0</ele><time>2026-04-18T07:09:56.515Z</time></trkpt><trkpt lat="43.5581206" lon="10.7935223"><ele>151.0</ele><time>2026-04-18T07:09:57.518Z</time></trkpt><trkpt lat="43.5581521" lon="10.7936617"><ele>151.0</ele><time>2026-04-18T07:09:58.513Z</time></trkpt><trkpt lat="43.5581714" lon="10.7938008"><ele>151.0</ele><time>2026-04-18T07:09:59.508Z</time></trkpt><trkpt lat="43.5581844" lon="10.7939246"><ele>150.8</ele><time>2026-04-18T07:10:00.54Z</time></trkpt><trkpt lat="43.5582027" lon="10.7940717"><ele>150.6</ele><time>2026-04-18T07:10:01.521Z</time></trkpt><trkpt lat="43.5582224" lon="10.7941999"><ele>150.4</ele><time>2026-04-18T07:10:02.517Z</time></trkpt><trkpt lat="43.5582604" lon="10.7943297"><ele>150.2</ele><time>2026-04-18T07:10:03.509Z</time></trkpt><trkpt lat="43.5583253" lon="10.7944463"><ele>150.0</ele><time>2026-04-18T07:10:04.511Z</time></trkpt><trkpt lat="43.5583949" lon="10.7945783"><ele>150.2</ele><time>2026-04-18T07:10:05.513Z</time></trkpt><trkpt lat="43.5584586" lon="10.794717"><ele>150.4</ele><time>2026-04-18T07:10:06.516Z</time></trkpt><trkpt lat="43.5585191" lon="10.7948521"><ele>150.6</ele><time>2026-04-18T07:10:07.516Z</time></trkpt><trkpt lat="43.5585713" lon="10.7949761"><ele>150.8</ele><time>2026-04-18T07:10:08.508Z</time></trkpt><trkpt lat="43.5586338" lon="10.7950929"><ele>151.0</ele><time>2026-04-18T07:10:09.508Z</time></trkpt><trkpt lat="43.5587086" lon="10.7952103"><ele>151.0</ele><time>2026-04-18T07:10:10.507Z</time></trkpt><trkpt lat="43.558791" lon="10.7953224"><ele>151.0</ele><time>2026-04-18T07:10:11.515Z</time></trkpt><trkpt lat="43.5588849" lon="10.795422"><ele>151.0</ele><time>2026-04-18T07:10:12.505Z</time></trkpt><trkpt lat="43.558983" lon="10.7955187"><ele>151.0</ele><time>2026-04-18T07:10:13.505Z</time></trkpt><trkpt lat="43.5590853" lon="10.7956017"><ele>151.0</ele><time>2026-04-18T07:10:14.508Z</time></trkpt><trkpt lat="43.5591807" lon="10.7956803"><ele>151.0</ele><time>2026-04-18T07:10:15.513Z</time></trkpt><trkpt lat="43.5592646" lon="10.7957568"><ele>151.0</ele><time>2026-04-18T07:10:16.518Z</time></trkpt><trkpt lat="43.5593398" lon="10.7958287"><ele>151.0</ele><time>2026-04-18T07:10:17.517Z</time></trkpt><trkpt lat="43.5594083" lon="10.7959067"><ele>151.0</ele><time>2026-04-18T07:10:18.514Z</time></trkpt><trkpt lat="43.5594772" lon="10.7960065"><ele>155.25</ele><time>2026-04-18T07:10:19.507Z</time></trkpt><trkpt lat="43.5595421" lon="10.7961245"><ele>159.5</ele><time>2026-04-18T07:10:20.502Z</time></trkpt><trkpt lat="43.5596085" lon="10.7962516"><ele>163.75</ele><time>2026-04-18T07:10:21.501Z</time></trkpt><trkpt lat="43.5596811" lon="10.7963898"><ele>168.0</ele><time>2026-04-18T07:10:22.5Z</time></trkpt><trkpt lat="43.5597557" lon="10.7965183"><ele>168.0</ele><time>2026-04-18T07:10:23.501Z</time></trkpt><trkpt lat="43.5598241" lon="10.796627"><ele>168.0</ele><time>2026-04-18T07:10:24.505Z</time></trkpt><trkpt lat="43.5598968" lon="10.7967338"><ele>168.0</ele><time>2026-04-18T07:10:25.514Z</time></trkpt><trkpt lat="43.5599612" lon="10.7968303"><ele>168.0</ele><time>2026-04-18T07:10:26.51Z</time></trkpt><trkpt lat="43.5600169" lon="10.7969268"><ele>168.0</ele><time>2026-04-18T07:10:27.508Z</time></trkpt><trkpt lat="43.560075" lon="10.7970231"><ele>168.0</ele><time>2026-04-18T07:10:28.502Z</time></trkpt><trkpt lat="43.5601297" lon="10.7971128"><ele>168.0</ele><time>2026-04-18T07:10:29.511Z</time></trkpt><trkpt lat="43.5601818" lon="10.7971865"><ele>168.0</ele><time>2026-04-18T07:10:30.503Z</time></trkpt><trkpt lat="43.5602472" lon="10.7972584"><ele>168.0</ele><time>2026-04-18T07:10:31.504Z</time></trkpt><trkpt lat="43.5603231" lon="10.7973179"><ele>168.0</ele><time>2026-04-18T07:10:32.498Z</time></trkpt><trkpt lat="43.5603971" lon="10.7973659"><ele>168.0</ele><time>2026-04-18T07:10:33.499Z</time></trkpt><trkpt lat="43.5604754" lon="10.7974091"><ele>168.0</ele><time>2026-04-18T07:10:34.501Z</time></trkpt><trkpt lat="43.5605629" lon="10.7974368"><ele>168.0</ele><time>2026-04-18T07:10:35.511Z</time></trkpt><trkpt lat="43.5606606" lon="10.7974496"><ele>168.0</ele><time>2026-04-18T07:10:36.499Z</time></trkpt><trkpt lat="43.5607518" lon="10.7974614"><ele>168.0</ele><time>2026-04-18T07:10:37.519Z</time></trkpt><trkpt lat="43.560853" lon="10.7974608"><ele>168.0</ele><time>2026-04-18T07:10:38.507Z</time></trkpt><trkpt lat="43.5609619" lon="10.7974515"><ele>168.0</ele><time>2026-04-18T07:10:39.507Z</time></trkpt><trkpt lat="43.5610672" lon="10.7974601"><ele>168.0</ele><time>2026-04-18T07:10:40.511Z</time></trkpt><trkpt lat="43.5611709" lon="10.7974704"><ele>168.0</ele><time>2026-04-18T07:10:41.511Z</time></trkpt><trkpt lat="43.5612899" lon="10.7974902"><ele>168.0</ele><time>2026-04-18T07:10:42.511Z</time></trkpt><trkpt lat="43.5614054" lon="10.7975132"><ele>168.0</ele><time>2026-04-18T07:10:43.504Z</time></trkpt><trkpt lat="43.5615242" lon="10.7975444"><ele>168.0</ele><time>2026-04-18T07:10:44.503Z</time></trkpt><trkpt lat="43.5616387" lon="10.7975803"><ele>168.0</ele><time>2026-04-18T07:10:45.513Z</time></trkpt><trkpt lat="43.5617261" lon="10.7976208"><ele>168.0</ele><time>2026-04-18T07:10:46.5Z</time></trkpt><trkpt lat="43.5617911" lon="10.7976534"><ele>168.0</ele><time>2026-04-18T07:10:47.507Z</time></trkpt><trkpt lat="43.5618873" lon="10.797677"><ele>168.0</ele><time>2026-04-18T07:10:49.514Z</time></trkpt><trkpt lat="43.5619563" lon="10.7976792"><ele>168.0</ele><time>2026-04-18T07:10:53.508Z</time></trkpt><trkpt lat="43.5620507" lon="10.7977109"><ele>169.66666666666666</ele><time>2026-04-18T07:10:56.498Z</time></trkpt><trkpt lat="43.5621326" lon="10.7977555"><ele>171.33333333333334</ele><time>2026-04-18T07:10:58.499Z</time></trkpt><trkpt lat="43.5622024" lon="10.7978075"><ele>173.0</ele><time>2026-04-18T07:11:00.517Z</time></trkpt><trkpt lat="43.5622853" lon="10.7978612"><ele>174.66666666666669</ele><time>2026-04-18T07:11:02.5Z</time></trkpt><trkpt lat="43.5623876" lon="10.7979497"><ele>176.33333333333334</ele><time>2026-04-18T07:11:04.509Z</time></trkpt><trkpt lat="43.5624379" lon="10.7980025"><ele>178.0</ele><time>2026-04-18T07:11:05.517Z</time></trkpt><trkpt lat="43.5624952" lon="10.7980657"><ele>178.0</ele><time>2026-04-18T07:11:06.513Z</time></trkpt><trkpt lat="43.5625505" lon="10.7981279"><ele>178.0</ele><time>2026-04-18T07:11:07.512Z</time></trkpt><trkpt lat="43.5626019" lon="10.7981848"><ele>178.0</ele><time>2026-04-18T07:11:08.51Z</time></trkpt><trkpt lat="43.562697" lon="10.7982909"><ele>178.0</ele><time>2026-04-18T07:11:10.523Z</time></trkpt><trkpt lat="43.5627957" lon="10.7983723"><ele>178.0</ele><time>2026-04-18T07:11:12.505Z</time></trkpt><trkpt lat="43.5628986" lon="10.7984522"><ele>180.75</ele><time>2026-04-18T07:11:14.52Z</time></trkpt><trkpt lat="43.562997" lon="10.7985353"><ele>183.5</ele><time>2026-04-18T07:11:16.509Z</time></trkpt><trkpt lat="43.5630959" lon="10.7986157"><ele>186.25</ele><time>2026-04-18T07:11:18.515Z</time></trkpt><trkpt lat="43.5631934" lon="10.7987043"><ele>189.0</ele><time>2026-04-18T07:11:20.503Z</time></trkpt><trkpt lat="43.5632925" lon="10.7988005"><ele>189.0</ele><time>2026-04-18T07:11:22.515Z</time></trkpt><trkpt lat="43.5633944" lon="10.7988736"><ele>189.0</ele><time>2026-04-18T07:11:24.504Z</time></trkpt><trkpt lat="43.5634849" lon="10.7989548"><ele>189.0</ele><time>2026-04-18T07:11:26.52Z</time></trkpt><trkpt lat="43.5635754" lon="10.7990191"><ele>189.0</ele><time>2026-04-18T07:11:28.512Z</time></trkpt><trkpt lat="43.5636656" lon="10.799134"><ele>189.0</ele><time>2026-04-18T07:11:30.5Z</time></trkpt><trkpt lat="43.5637459" lon="10.7992758"><ele>188.33333333333334</ele><time>2026-04-18T07:11:32.504Z</time></trkpt><trkpt lat="43.5637689" lon="10.7993671"><ele>187.66666666666666</ele><time>2026-04-18T07:11:33.513Z</time></trkpt><trkpt lat="43.5637945" lon="10.799458"><ele>187.0</ele><time>2026-04-18T07:11:34.506Z</time></trkpt><trkpt lat="43.5638329" lon="10.7996309"><ele>186.33333333333331</ele><time>2026-04-18T07:11:36.505Z</time></trkpt><trkpt lat="43.5638738" lon="10.7997115"><ele>185.66666666666666</ele><time>2026-04-18T07:11:37.516Z</time></trkpt><trkpt lat="43.5639272" lon="10.7997865"><ele>185.0</ele><time>2026-04-18T07:11:38.508Z</time></trkpt><trkpt lat="43.5639833" lon="10.7998449"><ele>184.99999999999997</ele><time>2026-04-18T07:11:39.506Z</time></trkpt><trkpt lat="43.5640466" lon="10.7998899"><ele>185.0</ele><time>2026-04-18T07:11:40.502Z</time></trkpt><trkpt lat="43.5641203" lon="10.7999312"><ele>185.0</ele><time>2026-04-18T07:11:41.508Z</time></trkpt><trkpt lat="43.5641792" lon="10.7999721"><ele>185.0</ele><time>2026-04-18T07:11:42.504Z</time></trkpt><trkpt lat="43.5642409" lon="10.8000164"><ele>185.0</ele><time>2026-04-18T07:11:43.5Z</time></trkpt><trkpt lat="43.564298" lon="10.8000658"><ele>184.99999999999997</ele><time>2026-04-18T07:11:44.506Z</time></trkpt><trkpt lat="43.5643676" lon="10.8001014"><ele>185.0</ele><time>2026-04-18T07:11:45.515Z</time></trkpt><trkpt lat="43.5644353" lon="10.8001352"><ele>184.99999999999997</ele><time>2026-04-18T07:11:46.507Z</time></trkpt><trkpt lat="43.5645037" lon="10.8001602"><ele>185.0</ele><time>2026-04-18T07:11:47.52Z</time></trkpt><trkpt lat="43.5645744" lon="10.800207"><ele>185.0</ele><time>2026-04-18T07:11:48.504Z</time></trkpt><trkpt lat="43.5646376" lon="10.8002355"><ele>185.0</ele><time>2026-04-18T07:11:49.504Z</time></trkpt><trkpt lat="43.5647102" lon="10.8002681"><ele>185.0</ele><time>2026-04-18T07:11:50.506Z</time></trkpt><trkpt lat="43.5647846" lon="10.8002997"><ele>184.99999999999997</ele><time>2026-04-18T07:11:51.499Z</time></trkpt><trkpt lat="43.5648584" lon="10.800331"><ele>185.0</ele><time>2026-04-18T07:11:52.501Z</time></trkpt><trkpt lat="43.5649356" lon="10.8003577"><ele>184.5</ele><time>2026-04-18T07:11:53.501Z</time></trkpt><trkpt lat="43.5650109" lon="10.8003798"><ele>184.0</ele><time>2026-04-18T07:11:54.513Z</time></trkpt><trkpt lat="43.565093" lon="10.8003896"><ele>183.5</ele><time>2026-04-18T07:11:55.512Z</time></trkpt><trkpt lat="43.5651804" lon="10.8003885"><ele>183.0</ele><time>2026-04-18T07:11:56.511Z</time></trkpt><trkpt lat="43.5652676" lon="10.8003846"><ele>182.5</ele><time>2026-04-18T07:11:57.502Z</time></trkpt><trkpt lat="43.5653532" lon="10.8003878"><ele>182.0</ele><time>2026-04-18T07:11:58.5Z</time></trkpt><trkpt lat="43.5654443" lon="10.8004152"><ele>182.0</ele><time>2026-04-18T07:11:59.51Z</time></trkpt><trkpt lat="43.5655227" lon="10.8004582"><ele>182.0</ele><time>2026-04-18T07:12:00.516Z</time></trkpt><trkpt lat="43.5655912" lon="10.8005114"><ele>182.0</ele><time>2026-04-18T07:12:01.499Z</time></trkpt><trkpt lat="43.5656448" lon="10.8005685"><ele>182.0</ele><time>2026-04-18T07:12:02.501Z</time></trkpt><trkpt lat="43.5656931" lon="10.8006451"><ele>182.0</ele><time>2026-04-18T07:12:03.498Z</time></trkpt><trkpt lat="43.5657367" lon="10.8007186"><ele>182.0</ele><time>2026-04-18T07:12:04.507Z</time></trkpt><trkpt lat="43.5657961" lon="10.8007794"><ele>182.0</ele><time>2026-04-18T07:12:05.507Z</time></trkpt><trkpt lat="43.5658578" lon="10.8008387"><ele>182.0</ele><time>2026-04-18T07:12:06.501Z</time></trkpt><trkpt lat="43.5659268" lon="10.8008982"><ele>182.0</ele><time>2026-04-18T07:12:07.515Z</time></trkpt><trkpt lat="43.5659963" lon="10.8009482"><ele>182.0</ele><time>2026-04-18T07:12:08.512Z</time></trkpt><trkpt lat="43.5660759" lon="10.8010046"><ele>182.0</ele><time>2026-04-18T07:12:09.513Z</time></trkpt><trkpt lat="43.5661567" lon="10.801056"><ele>182.0</ele><time>2026-04-18T07:12:10.504Z</time></trkpt><trkpt lat="43.5662455" lon="10.801111"><ele>182.0</ele><time>2026-04-18T07:12:11.508Z</time></trkpt><trkpt lat="43.5663431" lon="10.8011809"><ele>182.2</ele><time>2026-04-18T07:12:12.503Z</time></trkpt><trkpt lat="43.5664503" lon="10.8012476"><ele>182.39999999999998</ele><time>2026-04-18T07:12:13.512Z</time></trkpt><trkpt lat="43.5665471" lon="10.8013059"><ele>182.60000000000002</ele><time>2026-04-18T07:12:14.51Z</time></trkpt><trkpt lat="43.5666472" lon="10.8013625"><ele>182.8</ele><time>2026-04-18T07:12:15.511Z</time></trkpt><trkpt lat="43.5667439" lon="10.8014285"><ele>183.0</ele><time>2026-04-18T07:12:16.515Z</time></trkpt><trkpt lat="43.5668426" lon="10.8014915"><ele>183.0</ele><time>2026-04-18T07:12:17.511Z</time></trkpt><trkpt lat="43.5669508" lon="10.8015521"><ele>183.0</ele><time>2026-04-18T07:12:18.52Z</time></trkpt><trkpt lat="43.5670619" lon="10.801609"><ele>183.0</ele><time>2026-04-18T07:12:19.504Z</time></trkpt><trkpt lat="43.5671744" lon="10.801661"><ele>183.0</ele><time>2026-04-18T07:12:20.514Z</time></trkpt><trkpt lat="43.5672888" lon="10.8017125"><ele>184.5</ele><time>2026-04-18T07:12:21.501Z</time></trkpt><trkpt lat="43.5673964" lon="10.8017502"><ele>186.0</ele><time>2026-04-18T07:12:22.505Z</time></trkpt><trkpt lat="43.5675111" lon="10.8017916"><ele>187.5</ele><time>2026-04-18T07:12:23.503Z</time></trkpt><trkpt lat="43.5676177" lon="10.8018118"><ele>189.0</ele><time>2026-04-18T07:12:24.507Z</time></trkpt><trkpt lat="43.5677302" lon="10.8018178"><ele>189.0</ele><time>2026-04-18T07:12:25.499Z</time></trkpt><trkpt lat="43.5678371" lon="10.8018261"><ele>189.0</ele><time>2026-04-18T07:12:26.509Z</time></trkpt><trkpt lat="43.5679415" lon="10.8018328"><ele>189.0</ele><time>2026-04-18T07:12:27.505Z</time></trkpt><trkpt lat="43.5680463" lon="10.8018355"><ele>189.0</ele><time>2026-04-18T07:12:28.511Z</time></trkpt><trkpt lat="43.568152" lon="10.8018441"><ele>189.0</ele><time>2026-04-18T07:12:29.507Z</time></trkpt><trkpt lat="43.568265" lon="10.8018498"><ele>190.25</ele><time>2026-04-18T07:12:30.503Z</time></trkpt><trkpt lat="43.5683773" lon="10.8018481"><ele>191.5</ele><time>2026-04-18T07:12:31.499Z</time></trkpt><trkpt lat="43.5684927" lon="10.8018539"><ele>192.75</ele><time>2026-04-18T07:12:32.515Z</time></trkpt><trkpt lat="43.5686122" lon="10.8018612"><ele>194.0</ele><time>2026-04-18T07:12:33.518Z</time></trkpt><trkpt lat="43.5687234" lon="10.8018579"><ele>194.0</ele><time>2026-04-18T07:12:34.513Z</time></trkpt><trkpt lat="43.5688347" lon="10.8018519"><ele>194.0</ele><time>2026-04-18T07:12:35.514Z</time></trkpt><trkpt lat="43.5689492" lon="10.8018341"><ele>194.0</ele><time>2026-04-18T07:12:36.501Z</time></trkpt><trkpt lat="43.5690633" lon="10.8017915"><ele>194.0</ele><time>2026-04-18T07:12:37.524Z</time></trkpt><trkpt lat="43.5691619" lon="10.8017353"><ele>194.2</ele><time>2026-04-18T07:12:38.511Z</time></trkpt><trkpt lat="43.5692707" lon="10.8017179"><ele>194.39999999999998</ele><time>2026-04-18T07:12:39.502Z</time></trkpt><trkpt lat="43.5693752" lon="10.8017155"><ele>194.6</ele><time>2026-04-18T07:12:40.511Z</time></trkpt><trkpt lat="43.5694756" lon="10.8017773"><ele>194.8</ele><time>2026-04-18T07:12:41.508Z</time></trkpt><trkpt lat="43.5695536" lon="10.8018825"><ele>195.0</ele><time>2026-04-18T07:12:42.506Z</time></trkpt><trkpt lat="43.5696161" lon="10.8019939"><ele>201.0</ele><time>2026-04-18T07:12:43.504Z</time></trkpt><trkpt lat="43.5696665" lon="10.8021309"><ele>207.0</ele><time>2026-04-18T07:12:44.505Z</time></trkpt><trkpt lat="43.5697269" lon="10.8022732"><ele>213.0</ele><time>2026-04-18T07:12:45.506Z</time></trkpt><trkpt lat="43.5697739" lon="10.8024239"><ele>219.0</ele><time>2026-04-18T07:12:46.515Z</time></trkpt><trkpt lat="43.5698351" lon="10.8025582"><ele>216.2</ele><time>2026-04-18T07:12:47.512Z</time></trkpt><trkpt lat="43.5698928" lon="10.8026986"><ele>213.39999999999998</ele><time>2026-04-18T07:12:48.513Z</time></trkpt><trkpt lat="43.5699444" lon="10.8028369"><ele>210.6</ele><time>2026-04-18T07:12:49.505Z</time></trkpt><trkpt lat="43.5700029" lon="10.8029483"><ele>207.8</ele><time>2026-04-18T07:12:50.503Z</time></trkpt><trkpt lat="43.5700606" lon="10.8030432"><ele>205.0</ele><time>2026-04-18T07:12:51.501Z</time></trkpt><trkpt lat="43.5701227" lon="10.8031306"><ele>205.0</ele><time>2026-04-18T07:12:52.512Z</time></trkpt><trkpt lat="43.5701831" lon="10.8031997"><ele>205.0</ele><time>2026-04-18T07:12:53.51Z</time></trkpt><trkpt lat="43.5702571" lon="10.8032669"><ele>205.0</ele><time>2026-04-18T07:12:54.503Z</time></trkpt><trkpt lat="43.5703522" lon="10.8033166"><ele>205.0</ele><time>2026-04-18T07:12:55.51Z</time></trkpt><trkpt lat="43.5704507" lon="10.803372"><ele>205.0</ele><time>2026-04-18T07:12:56.518Z</time></trkpt><trkpt lat="43.5705552" lon="10.8034441"><ele>204.4</ele><time>2026-04-18T07:12:57.508Z</time></trkpt><trkpt lat="43.5706535" lon="10.8034969"><ele>203.8</ele><time>2026-04-18T07:12:58.536Z</time></trkpt><trkpt lat="43.5707539" lon="10.803567"><ele>203.2</ele><time>2026-04-18T07:12:59.507Z</time></trkpt><trkpt lat="43.5708429" lon="10.8036539"><ele>202.6</ele><time>2026-04-18T07:13:00.512Z</time></trkpt><trkpt lat="43.5709278" lon="10.8037548"><ele>202.0</ele><time>2026-04-18T07:13:01.517Z</time></trkpt><trkpt lat="43.5709938" lon="10.8038652"><ele>202.0</ele><time>2026-04-18T07:13:02.514Z</time></trkpt><trkpt lat="43.5710441" lon="10.803998"><ele>202.0</ele><time>2026-04-18T07:13:03.505Z</time></trkpt><trkpt lat="43.5710729" lon="10.8041506"><ele>202.0</ele><time>2026-04-18T07:13:04.514Z</time></trkpt><trkpt lat="43.5710941" lon="10.8043174"><ele>202.0</ele><time>2026-04-18T07:13:05.515Z</time></trkpt><trkpt lat="43.5710863" lon="10.8044863"><ele>199.5</ele><time>2026-04-18T07:13:06.521Z</time></trkpt><trkpt lat="43.5710705" lon="10.8046879"><ele>197.0</ele><time>2026-04-18T07:13:07.502Z</time></trkpt><trkpt lat="43.5710529" lon="10.8048762"><ele>194.5</ele><time>2026-04-18T07:13:08.51Z</time></trkpt><trkpt lat="43.5710279" lon="10.8050621"><ele>192.0</ele><time>2026-04-18T07:13:09.516Z</time></trkpt><trkpt lat="43.5710082" lon="10.8052555"><ele>189.25</ele><time>2026-04-18T07:13:10.511Z</time></trkpt><trkpt lat="43.5709876" lon="10.8054563"><ele>186.5</ele><time>2026-04-18T07:13:11.516Z</time></trkpt><trkpt lat="43.5709759" lon="10.8056583"><ele>183.75</ele><time>2026-04-18T07:13:12.504Z</time></trkpt><trkpt lat="43.5709658" lon="10.80587"><ele>181.0</ele><time>2026-04-18T07:13:13.513Z</time></trkpt><trkpt lat="43.5709858" lon="10.8060753"><ele>179.33333333333334</ele><time>2026-04-18T07:13:14.507Z</time></trkpt><trkpt lat="43.5710136" lon="10.8062793"><ele>177.66666666666666</ele><time>2026-04-18T07:13:15.533Z</time></trkpt><trkpt lat="43.5710472" lon="10.8064817"><ele>176.0</ele><time>2026-04-18T07:13:16.514Z</time></trkpt><trkpt lat="43.5710847" lon="10.8066858"><ele>177.0</ele><time>2026-04-18T07:13:17.518Z</time></trkpt><trkpt lat="43.5711185" lon="10.8068825"><ele>178.0</ele><time>2026-04-18T07:13:18.506Z</time></trkpt><trkpt lat="43.5711497" lon="10.8070709"><ele>179.0</ele><time>2026-04-18T07:13:19.507Z</time></trkpt><trkpt lat="43.5711667" lon="10.8072522"><ele>180.0</ele><time>2026-04-18T07:13:20.504Z</time></trkpt><trkpt lat="43.5711693" lon="10.80744"><ele>180.0</ele><time>2026-04-18T07:13:21.512Z</time></trkpt><trkpt lat="43.5711591" lon="10.8076063"><ele>180.0</ele><time>2026-04-18T07:13:22.517Z</time></trkpt><trkpt lat="43.5711102" lon="10.8077493"><ele>180.0</ele><time>2026-04-18T07:13:23.504Z</time></trkpt><trkpt lat="43.5710351" lon="10.807888"><ele>180.0</ele><time>2026-04-18T07:13:24.517Z</time></trkpt><trkpt lat="43.5709357" lon="10.8080251"><ele>179.0</ele><time>2026-04-18T07:13:25.513Z</time></trkpt><trkpt lat="43.5708468" lon="10.8081604"><ele>178.0</ele><time>2026-04-18T07:13:26.504Z</time></trkpt><trkpt lat="43.5707629" lon="10.8082985"><ele>177.0</ele><time>2026-04-18T07:13:27.507Z</time></trkpt><trkpt lat="43.5706812" lon="10.8084283"><ele>176.0</ele><time>2026-04-18T07:13:28.514Z</time></trkpt><trkpt lat="43.5705834" lon="10.808568"><ele>174.5</ele><time>2026-04-18T07:13:29.513Z</time></trkpt><trkpt lat="43.5704826" lon="10.8086747"><ele>173.0</ele><time>2026-04-18T07:13:30.517Z</time></trkpt><trkpt lat="43.5703786" lon="10.8087733"><ele>171.5</ele><time>2026-04-18T07:13:31.51Z</time></trkpt><trkpt lat="43.570275" lon="10.8088282"><ele>170.0</ele><time>2026-04-18T07:13:32.505Z</time></trkpt><trkpt lat="43.5701541" lon="10.8088365"><ele>170.0</ele><time>2026-04-18T07:13:33.505Z</time></trkpt><trkpt lat="43.5700346" lon="10.8088009"><ele>170.0</ele><time>2026-04-18T07:13:34.522Z</time></trkpt><trkpt lat="43.5699166" lon="10.8087267"><ele>170.0</ele><time>2026-04-18T07:13:35.503Z</time></trkpt><trkpt lat="43.5698002" lon="10.8086505"><ele>170.0</ele><time>2026-04-18T07:13:36.506Z</time></trkpt><trkpt lat="43.5696861" lon="10.8085992"><ele>170.0</ele><time>2026-04-18T07:13:37.507Z</time></trkpt><trkpt lat="43.5695672" lon="10.8085527"><ele>170.0</ele><time>2026-04-18T07:13:38.509Z</time></trkpt><trkpt lat="43.5694559" lon="10.8085316"><ele>170.0</ele><time>2026-04-18T07:13:39.502Z</time></trkpt><trkpt lat="43.5693596" lon="10.8085245"><ele>170.0</ele><time>2026-04-18T07:13:40.504Z</time></trkpt><trkpt lat="43.5692595" lon="10.8085971"><ele>170.0</ele><time>2026-04-18T07:13:41.509Z</time></trkpt><trkpt lat="43.5691651" lon="10.8087511"><ele>169.33333333333331</ele><time>2026-04-18T07:13:42.496Z</time></trkpt><trkpt lat="43.5690703" lon="10.8089235"><ele>168.66666666666666</ele><time>2026-04-18T07:13:43.522Z</time></trkpt><trkpt lat="43.5689738" lon="10.8091035"><ele>168.0</ele><time>2026-04-18T07:13:44.507Z</time></trkpt><trkpt lat="43.5688839" lon="10.8092704"><ele>168.25</ele><time>2026-04-18T07:13:45.511Z</time></trkpt><trkpt lat="43.568791" lon="10.8094222"><ele>168.5</ele><time>2026-04-18T07:13:46.51Z</time></trkpt><trkpt lat="43.5687027" lon="10.8095702"><ele>168.75</ele><time>2026-04-18T07:13:47.5Z</time></trkpt><trkpt lat="43.568597" lon="10.8097004"><ele>169.0</ele><time>2026-04-18T07:13:48.51Z</time></trkpt><trkpt lat="43.5684908" lon="10.8097793"><ele>169.0</ele><time>2026-04-18T07:13:49.506Z</time></trkpt><trkpt lat="43.5683868" lon="10.8098343"><ele>169.0</ele><time>2026-04-18T07:13:50.531Z</time></trkpt><trkpt lat="43.5682737" lon="10.8098637"><ele>169.0</ele><time>2026-04-18T07:13:51.515Z</time></trkpt><trkpt lat="43.5681618" lon="10.8098814"><ele>169.0</ele><time>2026-04-18T07:13:52.5Z</time></trkpt><trkpt lat="43.5680588" lon="10.809961"><ele>169.0</ele><time>2026-04-18T07:13:53.525Z</time></trkpt><trkpt lat="43.5679916" lon="10.8100953"><ele>169.0</ele><time>2026-04-18T07:13:54.498Z</time></trkpt><trkpt lat="43.5679227" lon="10.8102344"><ele>169.0</ele><time>2026-04-18T07:13:55.521Z</time></trkpt><trkpt lat="43.5678602" lon="10.8103707"><ele>169.0</ele><time>2026-04-18T07:13:56.521Z</time></trkpt><trkpt lat="43.567809" lon="10.8104921"><ele>170.0</ele><time>2026-04-18T07:13:57.506Z</time></trkpt><trkpt lat="43.5677744" lon="10.8106209"><ele>171.0</ele><time>2026-04-18T07:13:58.516Z</time></trkpt><trkpt lat="43.5677742" lon="10.8107523"><ele>172.0</ele><time>2026-04-18T07:13:59.513Z</time></trkpt><trkpt lat="43.5677835" lon="10.8108963"><ele>173.0</ele><time>2026-04-18T07:14:00.512Z</time></trkpt><trkpt lat="43.5678024" lon="10.811043"><ele>174.0</ele><time>2026-04-18T07:14:01.504Z</time></trkpt><trkpt lat="43.5678478" lon="10.8111862"><ele>172.25</ele><time>2026-04-18T07:14:02.504Z</time></trkpt><trkpt lat="43.5678822" lon="10.8113309"><ele>170.5</ele><time>2026-04-18T07:14:03.504Z</time></trkpt><trkpt lat="43.5679261" lon="10.8114767"><ele>168.75</ele><time>2026-04-18T07:14:04.517Z</time></trkpt><trkpt lat="43.5679702" lon="10.8116387"><ele>167.0</ele><time>2026-04-18T07:14:05.505Z</time></trkpt><trkpt lat="43.568008" lon="10.8117895"><ele>169.25</ele><time>2026-04-18T07:14:06.509Z</time></trkpt><trkpt lat="43.5680385" lon="10.8119591"><ele>171.5</ele><time>2026-04-18T07:14:07.515Z</time></trkpt><trkpt lat="43.5680772" lon="10.8121294"><ele>173.75</ele><time>2026-04-18T07:14:08.507Z</time></trkpt><trkpt lat="43.5681141" lon="10.8122785"><ele>176.0</ele><time>2026-04-18T07:14:09.516Z</time></trkpt><trkpt lat="43.5681569" lon="10.8124238"><ele>176.0</ele><time>2026-04-18T07:14:10.505Z</time></trkpt><trkpt lat="43.5681887" lon="10.8125628"><ele>176.0</ele><time>2026-04-18T07:14:11.507Z</time></trkpt><trkpt lat="43.5682028" lon="10.8126827"><ele>176.0</ele><time>2026-04-18T07:14:12.511Z</time></trkpt><trkpt lat="43.568201" lon="10.8128115"><ele>176.0</ele><time>2026-04-18T07:14:13.51Z</time></trkpt><trkpt lat="43.5681734" lon="10.8129488"><ele>176.0</ele><time>2026-04-18T07:14:14.51Z</time></trkpt><trkpt lat="43.5681322" lon="10.8130858"><ele>175.4</ele><time>2026-04-18T07:14:15.509Z</time></trkpt><trkpt lat="43.5680863" lon="10.8132124"><ele>174.8</ele><time>2026-04-18T07:14:16.499Z</time></trkpt><trkpt lat="43.5680339" lon="10.8133532"><ele>174.20000000000002</ele><time>2026-04-18T07:14:17.509Z</time></trkpt><trkpt lat="43.5679945" lon="10.8134919"><ele>173.60000000000002</ele><time>2026-04-18T07:14:18.496Z</time></trkpt><trkpt lat="43.5679954" lon="10.8136509"><ele>173.0</ele><time>2026-04-18T07:14:19.519Z</time></trkpt><trkpt lat="43.5680174" lon="10.8138231"><ele>173.0</ele><time>2026-04-18T07:14:20.511Z</time></trkpt><trkpt lat="43.5680247" lon="10.8139882"><ele>173.0</ele><time>2026-04-18T07:14:21.514Z</time></trkpt><trkpt lat="43.5680467" lon="10.8141653"><ele>173.0</ele><time>2026-04-18T07:14:22.51Z</time></trkpt><trkpt lat="43.5680583" lon="10.8143456"><ele>173.0</ele><time>2026-04-18T07:14:23.518Z</time></trkpt><trkpt lat="43.5680695" lon="10.8145101"><ele>174.25</ele><time>2026-04-18T07:14:24.521Z</time></trkpt><trkpt lat="43.5680845" lon="10.814672"><ele>175.5</ele><time>2026-04-18T07:14:25.511Z</time></trkpt><trkpt lat="43.5681047" lon="10.8148457"><ele>176.75</ele><time>2026-04-18T07:14:26.505Z</time></trkpt><trkpt lat="43.5681167" lon="10.8150196"><ele>178.0</ele><time>2026-04-18T07:14:27.512Z</time></trkpt><trkpt lat="43.5681321" lon="10.8151835"><ele>178.75</ele><time>2026-04-18T07:14:28.515Z</time></trkpt><trkpt lat="43.5681533" lon="10.815358"><ele>179.5</ele><time>2026-04-18T07:14:29.505Z</time></trkpt><trkpt lat="43.5681888" lon="10.8155261"><ele>180.25</ele><time>2026-04-18T07:14:30.515Z</time></trkpt><trkpt lat="43.5682382" lon="10.8156985"><ele>181.0</ele><time>2026-04-18T07:14:31.513Z</time></trkpt><trkpt lat="43.5683015" lon="10.8158667"><ele>180.25</ele><time>2026-04-18T07:14:32.518Z</time></trkpt><trkpt lat="43.5683792" lon="10.8160427"><ele>179.5</ele><time>2026-04-18T07:14:33.517Z</time></trkpt><trkpt lat="43.5684619" lon="10.8162058"><ele>178.75</ele><time>2026-04-18T07:14:34.506Z</time></trkpt><trkpt lat="43.5685434" lon="10.8163652"><ele>178.0</ele><time>2026-04-18T07:14:35.522Z</time></trkpt><trkpt lat="43.568627" lon="10.8165332"><ele>179.33333333333334</ele><time>2026-04-18T07:14:36.51Z</time></trkpt><trkpt lat="43.5687083" lon="10.816702"><ele>180.66666666666666</ele><time>2026-04-18T07:14:37.505Z</time></trkpt><trkpt lat="43.5687907" lon="10.8168775"><ele>182.0</ele><time>2026-04-18T07:14:38.508Z</time></trkpt><trkpt lat="43.5688778" lon="10.8170602"><ele>182.0</ele><time>2026-04-18T07:14:39.52Z</time></trkpt><trkpt lat="43.5689604" lon="10.8172343"><ele>182.0</ele><time>2026-04-18T07:14:40.501Z</time></trkpt><trkpt lat="43.5690378" lon="10.8174091"><ele>182.0</ele><time>2026-04-18T07:14:41.508Z</time></trkpt><trkpt lat="43.5691197" lon="10.8175838"><ele>179.5</ele><time>2026-04-18T07:14:42.512Z</time></trkpt><trkpt lat="43.5691922" lon="10.8177546"><ele>177.0</ele><time>2026-04-18T07:14:43.507Z</time></trkpt><trkpt lat="43.5692581" lon="10.8179268"><ele>174.5</ele><time>2026-04-18T07:14:44.511Z</time></trkpt><trkpt lat="43.5693186" lon="10.818098"><ele>172.0</ele><time>2026-04-18T07:14:45.507Z</time></trkpt><trkpt lat="43.5693847" lon="10.8182546"><ele>172.0</ele><time>2026-04-18T07:14:46.502Z</time></trkpt><trkpt lat="43.5694296" lon="10.8184239"><ele>172.0</ele><time>2026-04-18T07:14:47.506Z</time></trkpt><trkpt lat="43.5694696" lon="10.8186039"><ele>172.0</ele><time>2026-04-18T07:14:48.519Z</time></trkpt><trkpt lat="43.5694828" lon="10.8188021"><ele>172.0</ele><time>2026-04-18T07:14:49.507Z</time></trkpt><trkpt lat="43.5694755" lon="10.8189823"><ele>171.5</ele><time>2026-04-18T07:14:50.517Z</time></trkpt><trkpt lat="43.5694408" lon="10.8191616"><ele>171.0</ele><time>2026-04-18T07:14:51.514Z</time></trkpt><trkpt lat="43.5693615" lon="10.8193091"><ele>170.5</ele><time>2026-04-18T07:14:52.521Z</time></trkpt><trkpt lat="43.569268" lon="10.8194597"><ele>170.0</ele><time>2026-04-18T07:14:53.511Z</time></trkpt><trkpt lat="43.5691845" lon="10.8196334"><ele>169.66666666666666</ele><time>2026-04-18T07:14:54.504Z</time></trkpt><trkpt lat="43.5690967" lon="10.8198121"><ele>169.33333333333334</ele><time>2026-04-18T07:14:55.51Z</time></trkpt><trkpt lat="43.569014" lon="10.8199892"><ele>169.0</ele><time>2026-04-18T07:14:56.513Z</time></trkpt><trkpt lat="43.5689395" lon="10.8201647"><ele>167.25</ele><time>2026-04-18T07:14:57.504Z</time></trkpt><trkpt lat="43.5688803" lon="10.8203243"><ele>165.5</ele><time>2026-04-18T07:14:58.501Z</time></trkpt><trkpt lat="43.5688461" lon="10.820486"><ele>163.75</ele><time>2026-04-18T07:14:59.503Z</time></trkpt><trkpt lat="43.5688509" lon="10.8206663"><ele>162.0</ele><time>2026-04-18T07:15:00.508Z</time></trkpt><trkpt lat="43.5688883" lon="10.8208614"><ele>159.75</ele><time>2026-04-18T07:15:01.515Z</time></trkpt><trkpt lat="43.5689298" lon="10.8210486"><ele>157.5</ele><time>2026-04-18T07:15:02.502Z</time></trkpt><trkpt lat="43.5689619" lon="10.8212501"><ele>155.25</ele><time>2026-04-18T07:15:03.496Z</time></trkpt><trkpt lat="43.5689992" lon="10.8214494"><ele>153.0</ele><time>2026-04-18T07:15:04.501Z</time></trkpt><trkpt lat="43.5690295" lon="10.8216671"><ele>151.33333333333334</ele><time>2026-04-18T07:15:05.511Z</time></trkpt><trkpt lat="43.5690552" lon="10.8218937"><ele>149.66666666666669</ele><time>2026-04-18T07:15:06.504Z</time></trkpt><trkpt lat="43.56908" lon="10.8221181"><ele>148.0</ele><time>2026-04-18T07:15:07.499Z</time></trkpt><trkpt lat="43.5690608" lon="10.8223671"><ele>148.0</ele><time>2026-04-18T07:15:08.498Z</time></trkpt><trkpt lat="43.5690469" lon="10.8226044"><ele>148.0</ele><time>2026-04-18T07:15:09.508Z</time></trkpt><trkpt lat="43.569018" lon="10.8228483"><ele>148.0</ele><time>2026-04-18T07:15:10.5Z</time></trkpt><trkpt lat="43.5690026" lon="10.8230929"><ele>147.33333333333334</ele><time>2026-04-18T07:15:11.513Z</time></trkpt><trkpt lat="43.5689725" lon="10.8233422"><ele>146.66666666666666</ele><time>2026-04-18T07:15:12.508Z</time></trkpt><trkpt lat="43.5689318" lon="10.8235897"><ele>146.0</ele><time>2026-04-18T07:15:13.509Z</time></trkpt><trkpt lat="43.568896" lon="10.823816"><ele>144.75</ele><time>2026-04-18T07:15:14.513Z</time></trkpt><trkpt lat="43.5688634" lon="10.8240305"><ele>143.5</ele><time>2026-04-18T07:15:15.518Z</time></trkpt><trkpt lat="43.5688384" lon="10.8242395"><ele>142.25</ele><time>2026-04-18T07:15:16.51Z</time></trkpt><trkpt lat="43.5688072" lon="10.8244067"><ele>141.0</ele><time>2026-04-18T07:15:17.5Z</time></trkpt><trkpt lat="43.5687794" lon="10.8245652"><ele>140.33333333333334</ele><time>2026-04-18T07:15:18.508Z</time></trkpt><trkpt lat="43.5687573" lon="10.824679"><ele>139.66666666666666</ele><time>2026-04-18T07:15:19.503Z</time></trkpt><trkpt lat="43.5687522" lon="10.8247759"><ele>139.0</ele><time>2026-04-18T07:15:20.509Z</time></trkpt><trkpt lat="43.5687457" lon="10.8248701"><ele>138.33333333333331</ele><time>2026-04-18T07:15:21.504Z</time></trkpt><trkpt lat="43.568719" lon="10.8250145"><ele>137.66666666666666</ele><time>2026-04-18T07:15:23.51Z</time></trkpt><trkpt lat="43.5686545" lon="10.8250337"><ele>137.0</ele><time>2026-04-18T07:15:25.515Z</time></trkpt><trkpt lat="43.5685955" lon="10.8249195"><ele>136.79999999999998</ele><time>2026-04-18T07:15:27.51Z</time></trkpt><trkpt lat="43.568556" lon="10.8247722"><ele>136.6</ele><time>2026-04-18T07:15:29.505Z</time></trkpt><trkpt lat="43.5685409" lon="10.8246081"><ele>136.39999999999998</ele><time>2026-04-18T07:15:31.511Z</time></trkpt><trkpt lat="43.5685273" lon="10.8244879"><ele>136.2</ele><time>2026-04-18T07:15:33.506Z</time></trkpt><trkpt lat="43.5685063" lon="10.8243481"><ele>136.0</ele><time>2026-04-18T07:15:35.522Z</time></trkpt><trkpt lat="43.5684917" lon="10.8241618"><ele>135.0</ele><time>2026-04-18T07:15:37.512Z</time></trkpt><trkpt lat="43.5684772" lon="10.8240321"><ele>134.0</ele><time>2026-04-18T07:15:38.512Z</time></trkpt><trkpt lat="43.5684658" lon="10.8238951"><ele>133.0</ele><time>2026-04-18T07:15:39.519Z</time></trkpt><trkpt lat="43.5684478" lon="10.823745"><ele>132.0</ele><time>2026-04-18T07:15:40.525Z</time></trkpt><trkpt lat="43.5684266" lon="10.8235753"><ele>131.0</ele><time>2026-04-18T07:15:41.514Z</time></trkpt><trkpt lat="43.5684093" lon="10.8234158"><ele>130.5</ele><time>2026-04-18T07:15:42.511Z</time></trkpt><trkpt lat="43.5683974" lon="10.8232406"><ele>130.0</ele><time>2026-04-18T07:15:43.511Z</time></trkpt><trkpt lat="43.568389" lon="10.8230579"><ele>129.5</ele><time>2026-04-18T07:15:44.511Z</time></trkpt><trkpt lat="43.5683779" lon="10.8228735"><ele>129.0</ele><time>2026-04-18T07:15:45.522Z</time></trkpt><trkpt lat="43.5683631" lon="10.8226879"><ele>129.25</ele><time>2026-04-18T07:15:46.51Z</time></trkpt><trkpt lat="43.5683416" lon="10.8225174"><ele>129.5</ele><time>2026-04-18T07:15:47.508Z</time></trkpt><trkpt lat="43.5683183" lon="10.822358"><ele>129.75</ele><time>2026-04-18T07:15:48.51Z</time></trkpt><trkpt lat="43.5682791" lon="10.822204"><ele>130.0</ele><time>2026-04-18T07:15:49.509Z</time></trkpt><trkpt lat="43.5682134" lon="10.8220514"><ele>130.0</ele><time>2026-04-18T07:15:50.499Z</time></trkpt><trkpt lat="43.5681138" lon="10.8219337"><ele>130.0</ele><time>2026-04-18T07:15:51.511Z</time></trkpt><trkpt lat="43.5679884" lon="10.8218839"><ele>130.0</ele><time>2026-04-18T07:15:52.523Z</time></trkpt><trkpt lat="43.5678544" lon="10.8218528"><ele>130.0</ele><time>2026-04-18T07:15:53.513Z</time></trkpt><trkpt lat="43.5677156" lon="10.8218142"><ele>128.66666666666669</ele><time>2026-04-18T07:15:54.508Z</time></trkpt><trkpt lat="43.5675721" lon="10.8217702"><ele>127.33333333333334</ele><time>2026-04-18T07:15:55.513Z</time></trkpt><trkpt lat="43.5674165" lon="10.8217197"><ele>126.0</ele><time>2026-04-18T07:15:56.509Z</time></trkpt><trkpt lat="43.5672618" lon="10.8216691"><ele>126.0</ele><time>2026-04-18T07:15:57.512Z</time></trkpt><trkpt lat="43.5671179" lon="10.8216266"><ele>126.0</ele><time>2026-04-18T07:15:58.5Z</time></trkpt><trkpt lat="43.5669792" lon="10.8215768"><ele>126.0</ele><time>2026-04-18T07:15:59.499Z</time></trkpt><trkpt lat="43.5668549" lon="10.8215479"><ele>126.0</ele><time>2026-04-18T07:16:00.508Z</time></trkpt><trkpt lat="43.5667391" lon="10.8215117"><ele>122.0</ele><time>2026-04-18T07:16:01.503Z</time></trkpt><trkpt lat="43.5666262" lon="10.821476"><ele>118.0</ele><time>2026-04-18T07:16:02.506Z</time></trkpt><trkpt lat="43.5665179" lon="10.821432"><ele>114.0</ele><time>2026-04-18T07:16:03.505Z</time></trkpt><trkpt lat="43.5664077" lon="10.8213911"><ele>110.0</ele><time>2026-04-18T07:16:04.513Z</time></trkpt><trkpt lat="43.5662932" lon="10.8213619"><ele>107.25</ele><time>2026-04-18T07:16:05.502Z</time></trkpt><trkpt lat="43.5661754" lon="10.8213337"><ele>104.5</ele><time>2026-04-18T07:16:06.506Z</time></trkpt><trkpt lat="43.5660596" lon="10.8213092"><ele>101.75</ele><time>2026-04-18T07:16:07.499Z</time></trkpt><trkpt lat="43.5659439" lon="10.8212865"><ele>99.0</ele><time>2026-04-18T07:16:08.505Z</time></trkpt><trkpt lat="43.5658207" lon="10.8212547"><ele>99.0</ele><time>2026-04-18T07:16:09.518Z</time></trkpt><trkpt lat="43.5656969" lon="10.8212098"><ele>99.0</ele><time>2026-04-18T07:16:10.497Z</time></trkpt><trkpt lat="43.5655826" lon="10.8211387"><ele>99.0</ele><time>2026-04-18T07:16:11.503Z</time></trkpt><trkpt lat="43.56547" lon="10.8210415"><ele>99.0</ele><time>2026-04-18T07:16:12.508Z</time></trkpt><trkpt lat="43.5653457" lon="10.8209181"><ele>99.0</ele><time>2026-04-18T07:16:13.514Z</time></trkpt><trkpt lat="43.5652254" lon="10.8207765"><ele>99.0</ele><time>2026-04-18T07:16:14.511Z</time></trkpt><trkpt lat="43.5651097" lon="10.8206488"><ele>99.0</ele><time>2026-04-18T07:16:15.497Z</time></trkpt><trkpt lat="43.56497" lon="10.8205198"><ele>99.0</ele><time>2026-04-18T07:16:16.505Z</time></trkpt><trkpt lat="43.5648354" lon="10.8203758"><ele>99.0</ele><time>2026-04-18T07:16:17.498Z</time></trkpt><trkpt lat="43.5647074" lon="10.82024"><ele>99.0</ele><time>2026-04-18T07:16:18.511Z</time></trkpt><trkpt lat="43.5645829" lon="10.8201019"><ele>94.33333333333333</ele><time>2026-04-18T07:16:19.504Z</time></trkpt><trkpt lat="43.5644725" lon="10.8199288"><ele>89.66666666666666</ele><time>2026-04-18T07:16:20.506Z</time></trkpt><trkpt lat="43.5643748" lon="10.8197585"><ele>85.0</ele><time>2026-04-18T07:16:21.517Z</time></trkpt><trkpt lat="43.5642854" lon="10.8195915"><ele>85.0</ele><time>2026-04-18T07:16:22.514Z</time></trkpt><trkpt lat="43.5642077" lon="10.8193925"><ele>85.0</ele><time>2026-04-18T07:16:23.507Z</time></trkpt><trkpt lat="43.5641315" lon="10.8192162"><ele>85.0</ele><time>2026-04-18T07:16:24.498Z</time></trkpt><trkpt lat="43.5640589" lon="10.819064"><ele>85.0</ele><time>2026-04-18T07:16:25.505Z</time></trkpt><trkpt lat="43.5640002" lon="10.8189196"><ele>85.4</ele><time>2026-04-18T07:16:26.498Z</time></trkpt><trkpt lat="43.5639428" lon="10.8188043"><ele>85.8</ele><time>2026-04-18T07:16:27.506Z</time></trkpt><trkpt lat="43.5638854" lon="10.8186954"><ele>86.19999999999999</ele><time>2026-04-18T07:16:28.504Z</time></trkpt><trkpt lat="43.5638196" lon="10.8186176"><ele>86.6</ele><time>2026-04-18T07:16:29.518Z</time></trkpt><trkpt lat="43.5637305" lon="10.8185455"><ele>87.0</ele><time>2026-04-18T07:16:30.506Z</time></trkpt><trkpt lat="43.5636363" lon="10.8185052"><ele>85.39999999999999</ele><time>2026-04-18T07:16:31.513Z</time></trkpt><trkpt lat="43.5635382" lon="10.8184865"><ele>83.8</ele><time>2026-04-18T07:16:32.506Z</time></trkpt><trkpt lat="43.5634478" lon="10.8185083"><ele>82.2</ele><time>2026-04-18T07:16:33.514Z</time></trkpt><trkpt lat="43.5633458" lon="10.8185859"><ele>80.6</ele><time>2026-04-18T07:16:34.512Z</time></trkpt><trkpt lat="43.5632267" lon="10.8186616"><ele>79.0</ele><time>2026-04-18T07:16:35.513Z</time></trkpt><trkpt lat="43.5630994" lon="10.818737"><ele>79.0</ele><time>2026-04-18T07:16:36.509Z</time></trkpt><trkpt lat="43.5629706" lon="10.818811"><ele>79.0</ele><time>2026-04-18T07:16:37.506Z</time></trkpt><trkpt lat="43.5628516" lon="10.8189051"><ele>79.0</ele><time>2026-04-18T07:16:38.5Z</time></trkpt><trkpt lat="43.5627401" lon="10.818986"><ele>79.0</ele><time>2026-04-18T07:16:39.506Z</time></trkpt><trkpt lat="43.5626262" lon="10.8190622"><ele>80.0</ele><time>2026-04-18T07:16:40.512Z</time></trkpt><trkpt lat="43.5625179" lon="10.8191263"><ele>81.0</ele><time>2026-04-18T07:16:41.511Z</time></trkpt><trkpt lat="43.5624171" lon="10.8191794"><ele>82.0</ele><time>2026-04-18T07:16:42.508Z</time></trkpt><trkpt lat="43.5623181" lon="10.8192135"><ele>83.0</ele><time>2026-04-18T07:16:43.509Z</time></trkpt><trkpt lat="43.5622078" lon="10.8192109"><ele>84.0</ele><time>2026-04-18T07:16:44.509Z</time></trkpt><trkpt lat="43.5620982" lon="10.8191495"><ele>85.0</ele><time>2026-04-18T07:16:45.508Z</time></trkpt><trkpt lat="43.5620053" lon="10.8190319"><ele>86.0</ele><time>2026-04-18T07:16:46.502Z</time></trkpt><trkpt lat="43.5619214" lon="10.8188814"><ele>87.0</ele><time>2026-04-18T07:16:47.514Z</time></trkpt><trkpt lat="43.5618517" lon="10.8187488"><ele>88.0</ele><time>2026-04-18T07:16:48.506Z</time></trkpt><trkpt lat="43.5617759" lon="10.818627"><ele>88.0</ele><time>2026-04-18T07:16:49.507Z</time></trkpt><trkpt lat="43.5616981" lon="10.8185047"><ele>88.0</ele><time>2026-04-18T07:16:50.507Z</time></trkpt><trkpt lat="43.5616236" lon="10.8183789"><ele>88.0</ele><time>2026-04-18T07:16:51.505Z</time></trkpt><trkpt lat="43.5615471" lon="10.8182539"><ele>88.0</ele><time>2026-04-18T07:16:52.51Z</time></trkpt><trkpt lat="43.5614772" lon="10.8181352"><ele>87.25</ele><time>2026-04-18T07:16:53.499Z</time></trkpt><trkpt lat="43.561399" lon="10.8180114"><ele>86.5</ele><time>2026-04-18T07:16:54.497Z</time></trkpt><trkpt lat="43.5613301" lon="10.817881"><ele>85.75</ele><time>2026-04-18T07:16:55.505Z</time></trkpt><trkpt lat="43.5612663" lon="10.8177445"><ele>85.0</ele><time>2026-04-18T07:16:56.508Z</time></trkpt><trkpt lat="43.5611938" lon="10.8176132"><ele>85.0</ele><time>2026-04-18T07:16:57.509Z</time></trkpt><trkpt lat="43.5611184" lon="10.8174842"><ele>85.0</ele><time>2026-04-18T07:16:58.501Z</time></trkpt><trkpt lat="43.5610444" lon="10.8173572"><ele>85.0</ele><time>2026-04-18T07:16:59.506Z</time></trkpt><trkpt lat="43.5609688" lon="10.8172262"><ele>85.0</ele><time>2026-04-18T07:17:00.494Z</time></trkpt><trkpt lat="43.5608988" lon="10.8171126"><ele>85.0</ele><time>2026-04-18T07:17:01.506Z</time></trkpt><trkpt lat="43.5608317" lon="10.8170112"><ele>85.0</ele><time>2026-04-18T07:17:02.515Z</time></trkpt><trkpt lat="43.5607704" lon="10.8169282"><ele>85.0</ele><time>2026-04-18T07:17:03.504Z</time></trkpt><trkpt lat="43.5607105" lon="10.8168569"><ele>85.0</ele><time>2026-04-18T07:17:04.505Z</time></trkpt><trkpt lat="43.560649" lon="10.8167813"><ele>85.0</ele><time>2026-04-18T07:17:05.503Z</time></trkpt><trkpt lat="43.5605718" lon="10.816687"><ele>85.6</ele><time>2026-04-18T07:17:06.51Z</time></trkpt><trkpt lat="43.5604939" lon="10.8166064"><ele>86.2</ele><time>2026-04-18T07:17:07.52Z</time></trkpt><trkpt lat="43.5604131" lon="10.8165337"><ele>86.80000000000001</ele><time>2026-04-18T07:17:08.495Z</time></trkpt><trkpt lat="43.5603283" lon="10.8164608"><ele>87.4</ele><time>2026-04-18T07:17:09.51Z</time></trkpt><trkpt lat="43.5602415" lon="10.8163793"><ele>88.0</ele><time>2026-04-18T07:17:10.5Z</time></trkpt><trkpt lat="43.5601576" lon="10.8162915"><ele>88.0</ele><time>2026-04-18T07:17:11.508Z</time></trkpt><trkpt lat="43.5600664" lon="10.8161914"><ele>88.0</ele><time>2026-04-18T07:17:12.509Z</time></trkpt><trkpt lat="43.5599616" lon="10.8160903"><ele>88.0</ele><time>2026-04-18T07:17:13.511Z</time></trkpt><trkpt lat="43.5598576" lon="10.8159947"><ele>88.0</ele><time>2026-04-18T07:17:14.516Z</time></trkpt><trkpt lat="43.5597573" lon="10.8158994"><ele>86.25</ele><time>2026-04-18T07:17:15.508Z</time></trkpt><trkpt lat="43.5596582" lon="10.8158179"><ele>84.5</ele><time>2026-04-18T07:17:16.516Z</time></trkpt><trkpt lat="43.5595575" lon="10.8157463"><ele>82.75</ele><time>2026-04-18T07:17:17.508Z</time></trkpt><trkpt lat="43.5594457" lon="10.8157062"><ele>81.0</ele><time>2026-04-18T07:17:18.512Z</time></trkpt><trkpt lat="43.5593335" lon="10.8156701"><ele>81.0</ele><time>2026-04-18T07:17:19.508Z</time></trkpt><trkpt lat="43.5592272" lon="10.8156494"><ele>81.0</ele><time>2026-04-18T07:17:20.509Z</time></trkpt><trkpt lat="43.5591094" lon="10.8156286"><ele>81.0</ele><time>2026-04-18T07:17:21.511Z</time></trkpt><trkpt lat="43.5589913" lon="10.8156051"><ele>81.0</ele><time>2026-04-18T07:17:22.504Z</time></trkpt><trkpt lat="43.5588761" lon="10.8155865"><ele>81.0</ele><time>2026-04-18T07:17:23.512Z</time></trkpt><trkpt lat="43.558767" lon="10.8155518"><ele>81.0</ele><time>2026-04-18T07:17:24.51Z</time></trkpt><trkpt lat="43.5586621" lon="10.8155314"><ele>81.0</ele><time>2026-04-18T07:17:25.506Z</time></trkpt><trkpt lat="43.5585583" lon="10.8155137"><ele>81.0</ele><time>2026-04-18T07:17:26.51Z</time></trkpt><trkpt lat="43.5584485" lon="10.8154991"><ele>81.0</ele><time>2026-04-18T07:17:27.51Z</time></trkpt><trkpt lat="43.5583284" lon="10.8154655"><ele>80.75</ele><time>2026-04-18T07:17:28.543Z</time></trkpt><trkpt lat="43.5582179" lon="10.8154361"><ele>80.5</ele><time>2026-04-18T07:17:29.509Z</time></trkpt><trkpt lat="43.5581046" lon="10.8154128"><ele>80.25</ele><time>2026-04-18T07:17:30.509Z</time></trkpt><trkpt lat="43.5579745" lon="10.8153749"><ele>80.0</ele><time>2026-04-18T07:17:31.505Z</time></trkpt><trkpt lat="43.5578399" lon="10.8153445"><ele>79.25</ele><time>2026-04-18T07:17:32.512Z</time></trkpt><trkpt lat="43.557711" lon="10.8153046"><ele>78.5</ele><time>2026-04-18T07:17:33.509Z</time></trkpt><trkpt lat="43.5575804" lon="10.8152666"><ele>77.75</ele><time>2026-04-18T07:17:34.508Z</time></trkpt><trkpt lat="43.5574501" lon="10.8152281"><ele>77.0</ele><time>2026-04-18T07:17:35.507Z</time></trkpt><trkpt lat="43.5573307" lon="10.8151995"><ele>77.0</ele><time>2026-04-18T07:17:36.509Z</time></trkpt><trkpt lat="43.5572156" lon="10.8151718"><ele>77.0</ele><time>2026-04-18T07:17:37.516Z</time></trkpt><trkpt lat="43.5570884" lon="10.8151391"><ele>77.0</ele><time>2026-04-18T07:17:38.507Z</time></trkpt><trkpt lat="43.5569514" lon="10.8151307"><ele>77.0</ele><time>2026-04-18T07:17:39.508Z</time></trkpt><trkpt lat="43.5568218" lon="10.815164"><ele>78.0</ele><time>2026-04-18T07:17:40.522Z</time></trkpt><trkpt lat="43.5566996" lon="10.8152008"><ele>79.0</ele><time>2026-04-18T07:17:41.502Z</time></trkpt><trkpt lat="43.5565765" lon="10.8152295"><ele>80.0</ele><time>2026-04-18T07:17:42.509Z</time></trkpt><trkpt lat="43.5564631" lon="10.815271"><ele>81.0</ele><time>2026-04-18T07:17:43.506Z</time></trkpt><trkpt lat="43.5563526" lon="10.8153142"><ele>81.0</ele><time>2026-04-18T07:17:44.512Z</time></trkpt><trkpt lat="43.5562312" lon="10.8153583"><ele>81.0</ele><time>2026-04-18T07:17:45.507Z</time></trkpt><trkpt lat="43.5561124" lon="10.8153968"><ele>81.0</ele><time>2026-04-18T07:17:46.504Z</time></trkpt><trkpt lat="43.5559961" lon="10.8154408"><ele>81.0</ele><time>2026-04-18T07:17:47.513Z</time></trkpt><trkpt lat="43.5558754" lon="10.8154785"><ele>83.0</ele><time>2026-04-18T07:17:48.513Z</time></trkpt><trkpt lat="43.555769" lon="10.8155151"><ele>85.0</ele><time>2026-04-18T07:17:49.508Z</time></trkpt><trkpt lat="43.5556542" lon="10.8155647"><ele>87.0</ele><time>2026-04-18T07:17:50.517Z</time></trkpt><trkpt lat="43.5555444" lon="10.81562"><ele>89.0</ele><time>2026-04-18T07:17:51.514Z</time></trkpt><trkpt lat="43.555439" lon="10.8157144"><ele>89.4</ele><time>2026-04-18T07:17:52.511Z</time></trkpt><trkpt lat="43.5553608" lon="10.8158359"><ele>89.80000000000001</ele><time>2026-04-18T07:17:53.512Z</time></trkpt><trkpt lat="43.5552974" lon="10.8159551"><ele>90.19999999999999</ele><time>2026-04-18T07:17:54.516Z</time></trkpt><trkpt lat="43.5552399" lon="10.8160638"><ele>90.6</ele><time>2026-04-18T07:17:55.506Z</time></trkpt><trkpt lat="43.5551823" lon="10.8161693"><ele>91.0</ele><time>2026-04-18T07:17:56.505Z</time></trkpt><trkpt lat="43.5551285" lon="10.8162487"><ele>91.85714285714286</ele><time>2026-04-18T07:17:57.511Z</time></trkpt><trkpt lat="43.5550802" lon="10.8163367"><ele>92.71428571428572</ele><time>2026-04-18T07:17:58.509Z</time></trkpt><trkpt lat="43.5550357" lon="10.8164161"><ele>93.57142857142857</ele><time>2026-04-18T07:17:59.505Z</time></trkpt><trkpt lat="43.5549916" lon="10.8164935"><ele>94.42857142857143</ele><time>2026-04-18T07:18:00.509Z</time></trkpt><trkpt lat="43.5549505" lon="10.8165684"><ele>95.28571428571429</ele><time>2026-04-18T07:18:01.505Z</time></trkpt><trkpt lat="43.5549092" lon="10.816642"><ele>96.14285714285714</ele><time>2026-04-18T07:18:02.52Z</time></trkpt><trkpt lat="43.5548682" lon="10.8167236"><ele>97.0</ele><time>2026-04-18T07:18:03.522Z</time></trkpt><trkpt lat="43.5547999" lon="10.8168666"><ele>97.8</ele><time>2026-04-18T07:18:05.512Z</time></trkpt><trkpt lat="43.5547288" lon="10.8170095"><ele>98.6</ele><time>2026-04-18T07:18:07.512Z</time></trkpt><trkpt lat="43.5546541" lon="10.8171463"><ele>99.39999999999999</ele><time>2026-04-18T07:18:09.513Z</time></trkpt><trkpt lat="43.5546153" lon="10.8172204"><ele>100.19999999999999</ele><time>2026-04-18T07:18:10.503Z</time></trkpt><trkpt lat="43.5545421" lon="10.8173563"><ele>101.0</ele><time>2026-04-18T07:18:12.5Z</time></trkpt><trkpt lat="43.5544779" lon="10.817471"><ele>101.4</ele><time>2026-04-18T07:18:14.504Z</time></trkpt><trkpt lat="43.5544259" lon="10.8175877"><ele>101.8</ele><time>2026-04-18T07:18:16.503Z</time></trkpt><trkpt lat="43.5543727" lon="10.8176923"><ele>102.2</ele><time>2026-04-18T07:18:18.522Z</time></trkpt><trkpt lat="43.5543182" lon="10.8178017"><ele>102.60000000000001</ele><time>2026-04-18T07:18:20.505Z</time></trkpt><trkpt lat="43.5542657" lon="10.817905"><ele>103.0</ele><time>2026-04-18T07:18:22.5Z</time></trkpt><trkpt lat="43.554205" lon="10.8180024"><ele>104.2</ele><time>2026-04-18T07:18:24.511Z</time></trkpt><trkpt lat="43.5541463" lon="10.8180944"><ele>105.4</ele><time>2026-04-18T07:18:26.506Z</time></trkpt><trkpt lat="43.554096" lon="10.8182041"><ele>106.60000000000001</ele><time>2026-04-18T07:18:28.509Z</time></trkpt><trkpt lat="43.5540347" lon="10.8183079"><ele>107.80000000000001</ele><time>2026-04-18T07:18:30.507Z</time></trkpt><trkpt lat="43.5539832" lon="10.8183931"><ele>109.0</ele><time>2026-04-18T07:18:32.502Z</time></trkpt><trkpt lat="43.5539247" lon="10.8185061"><ele>109.80000000000001</ele><time>2026-04-18T07:18:34.503Z</time></trkpt><trkpt lat="43.5538549" lon="10.8186061"><ele>110.60000000000001</ele><time>2026-04-18T07:18:36.52Z</time></trkpt><trkpt lat="43.5537971" lon="10.81872"><ele>111.4</ele><time>2026-04-18T07:18:38.51Z</time></trkpt><trkpt lat="43.5537357" lon="10.8188232"><ele>112.2</ele><time>2026-04-18T07:18:40.505Z</time></trkpt><trkpt lat="43.553662" lon="10.8189453"><ele>113.0</ele><time>2026-04-18T07:18:42.508Z</time></trkpt><trkpt lat="43.553589" lon="10.819065"><ele>113.49999999999999</ele><time>2026-04-18T07:18:44.523Z</time></trkpt><trkpt lat="43.5535247" lon="10.8191991"><ele>114.0</ele><time>2026-04-18T07:18:46.516Z</time></trkpt><trkpt lat="43.5534832" lon="10.819266"><ele>114.5</ele><time>2026-04-18T07:18:47.507Z</time></trkpt><trkpt lat="43.5534421" lon="10.8193367"><ele>115.0</ele><time>2026-04-18T07:18:48.51Z</time></trkpt><trkpt lat="43.5533583" lon="10.819477"><ele>115.49999999999999</ele><time>2026-04-18T07:18:50.506Z</time></trkpt><trkpt lat="43.553317" lon="10.8195558"><ele>116.0</ele><time>2026-04-18T07:18:51.514Z</time></trkpt><trkpt lat="43.5532759" lon="10.8196506"><ele>117.19999999999999</ele><time>2026-04-18T07:18:52.501Z</time></trkpt><trkpt lat="43.5532294" lon="10.8197399"><ele>118.39999999999999</ele><time>2026-04-18T07:18:53.514Z</time></trkpt><trkpt lat="43.5531779" lon="10.8198361"><ele>119.6</ele><time>2026-04-18T07:18:54.522Z</time></trkpt><trkpt lat="43.5531192" lon="10.8199399"><ele>120.8</ele><time>2026-04-18T07:18:55.5Z</time></trkpt><trkpt lat="43.5530639" lon="10.8200483"><ele>122.0</ele><time>2026-04-18T07:18:56.504Z</time></trkpt><trkpt lat="43.5529967" lon="10.8201566"><ele>122.8</ele><time>2026-04-18T07:18:57.505Z</time></trkpt><trkpt lat="43.5529377" lon="10.8202563"><ele>123.6</ele><time>2026-04-18T07:18:58.53Z</time></trkpt><trkpt lat="43.55287" lon="10.8203581"><ele>124.39999999999999</ele><time>2026-04-18T07:18:59.506Z</time></trkpt><trkpt lat="43.5528103" lon="10.820472"><ele>125.19999999999999</ele><time>2026-04-18T07:19:00.51Z</time></trkpt><trkpt lat="43.5527489" lon="10.8205858"><ele>126.0</ele><time>2026-04-18T07:19:01.517Z</time></trkpt><trkpt lat="43.5526849" lon="10.8207088"><ele>126.0</ele><time>2026-04-18T07:19:02.514Z</time></trkpt><trkpt lat="43.5526072" lon="10.8208413"><ele>126.0</ele><time>2026-04-18T07:19:03.522Z</time></trkpt><trkpt lat="43.5525249" lon="10.8209948"><ele>126.0</ele><time>2026-04-18T07:19:04.52Z</time></trkpt><trkpt lat="43.5524532" lon="10.8211458"><ele>126.0</ele><time>2026-04-18T07:19:05.526Z</time></trkpt><trkpt lat="43.5523751" lon="10.8212943"><ele>127.25</ele><time>2026-04-18T07:19:06.516Z</time></trkpt><trkpt lat="43.5522998" lon="10.8214382"><ele>128.5</ele><time>2026-04-18T07:19:07.513Z</time></trkpt><trkpt lat="43.5522216" lon="10.8215832"><ele>129.75</ele><time>2026-04-18T07:19:08.503Z</time></trkpt><trkpt lat="43.5521451" lon="10.8217295"><ele>131.0</ele><time>2026-04-18T07:19:09.504Z</time></trkpt><trkpt lat="43.5520647" lon="10.8218686"><ele>132.5</ele><time>2026-04-18T07:19:10.513Z</time></trkpt><trkpt lat="43.5519873" lon="10.8220133"><ele>134.0</ele><time>2026-04-18T07:19:11.513Z</time></trkpt><trkpt lat="43.5519078" lon="10.8221564"><ele>135.5</ele><time>2026-04-18T07:19:12.506Z</time></trkpt><trkpt lat="43.5518264" lon="10.8223074"><ele>137.0</ele><time>2026-04-18T07:19:13.502Z</time></trkpt><trkpt lat="43.5517505" lon="10.822445"><ele>137.0</ele><time>2026-04-18T07:19:14.499Z</time></trkpt><trkpt lat="43.5516698" lon="10.8225835"><ele>137.0</ele><time>2026-04-18T07:19:15.508Z</time></trkpt><trkpt lat="43.5515771" lon="10.8227176"><ele>137.0</ele><time>2026-04-18T07:19:16.501Z</time></trkpt><trkpt lat="43.5514763" lon="10.8228315"><ele>137.0</ele><time>2026-04-18T07:19:17.511Z</time></trkpt><trkpt lat="43.5513607" lon="10.8229118"><ele>139.5</ele><time>2026-04-18T07:19:18.504Z</time></trkpt><trkpt lat="43.5512267" lon="10.8229451"><ele>142.0</ele><time>2026-04-18T07:19:19.504Z</time></trkpt><trkpt lat="43.551096" lon="10.8229452"><ele>144.5</ele><time>2026-04-18T07:19:20.5Z</time></trkpt><trkpt lat="43.5509746" lon="10.8229546"><ele>147.0</ele><time>2026-04-18T07:19:21.506Z</time></trkpt><trkpt lat="43.5508469" lon="10.8229383"><ele>147.0</ele><time>2026-04-18T07:19:22.511Z</time></trkpt><trkpt lat="43.5507219" lon="10.8228896"><ele>147.0</ele><time>2026-04-18T07:19:23.498Z</time></trkpt><trkpt lat="43.550586" lon="10.8228486"><ele>147.0</ele><time>2026-04-18T07:19:24.504Z</time></trkpt><trkpt lat="43.5504491" lon="10.822811"><ele>147.0</ele><time>2026-04-18T07:19:25.506Z</time></trkpt><trkpt lat="43.5503065" lon="10.8227772"><ele>147.75</ele><time>2026-04-18T07:19:26.499Z</time></trkpt><trkpt lat="43.550185" lon="10.8227432"><ele>148.5</ele><time>2026-04-18T07:19:27.529Z</time></trkpt><trkpt lat="43.5500535" lon="10.8227"><ele>149.25</ele><time>2026-04-18T07:19:28.504Z</time></trkpt><trkpt lat="43.5499243" lon="10.8226744"><ele>150.0</ele><time>2026-04-18T07:19:29.506Z</time></trkpt><trkpt lat="43.5498048" lon="10.8226461"><ele>148.75</ele><time>2026-04-18T07:19:30.506Z</time></trkpt><trkpt lat="43.5496751" lon="10.8226172"><ele>147.5</ele><time>2026-04-18T07:19:31.505Z</time></trkpt><trkpt lat="43.5495566" lon="10.8225956"><ele>146.25</ele><time>2026-04-18T07:19:32.511Z</time></trkpt><trkpt lat="43.5494454" lon="10.8225689"><ele>145.0</ele><time>2026-04-18T07:19:33.509Z</time></trkpt><trkpt lat="43.5493301" lon="10.8225409"><ele>145.0</ele><time>2026-04-18T07:19:34.507Z</time></trkpt><trkpt lat="43.5492211" lon="10.8225174"><ele>145.0</ele><time>2026-04-18T07:19:35.505Z</time></trkpt><trkpt lat="43.5491147" lon="10.8224928"><ele>145.0</ele><time>2026-04-18T07:19:36.512Z</time></trkpt><trkpt lat="43.5490155" lon="10.8224595"><ele>145.0</ele><time>2026-04-18T07:19:37.503Z</time></trkpt><trkpt lat="43.5489144" lon="10.8224331"><ele>145.0</ele><time>2026-04-18T07:19:38.51Z</time></trkpt><trkpt lat="43.5488258" lon="10.8223993"><ele>145.0</ele><time>2026-04-18T07:19:39.509Z</time></trkpt><trkpt lat="43.5487344" lon="10.8223528"><ele>145.0</ele><time>2026-04-18T07:19:40.504Z</time></trkpt><trkpt lat="43.5486478" lon="10.822308"><ele>145.0</ele><time>2026-04-18T07:19:41.505Z</time></trkpt><trkpt lat="43.5485582" lon="10.8222423"><ele>145.0</ele><time>2026-04-18T07:19:42.504Z</time></trkpt><trkpt lat="43.548484" lon="10.8221651"><ele>145.0</ele><time>2026-04-18T07:19:43.514Z</time></trkpt><trkpt lat="43.5484044" lon="10.8220855"><ele>145.4</ele><time>2026-04-18T07:19:44.501Z</time></trkpt><trkpt lat="43.5483288" lon="10.821995"><ele>145.8</ele><time>2026-04-18T07:19:45.507Z</time></trkpt><trkpt lat="43.5482559" lon="10.8218961"><ele>146.2</ele><time>2026-04-18T07:19:46.501Z</time></trkpt><trkpt lat="43.5481864" lon="10.8217929"><ele>146.6</ele><time>2026-04-18T07:19:47.504Z</time></trkpt><trkpt lat="43.5481149" lon="10.8216883"><ele>147.0</ele><time>2026-04-18T07:19:48.501Z</time></trkpt><trkpt lat="43.5480454" lon="10.8215709"><ele>147.0</ele><time>2026-04-18T07:19:49.501Z</time></trkpt><trkpt lat="43.5479748" lon="10.8214786"><ele>147.0</ele><time>2026-04-18T07:19:50.517Z</time></trkpt><trkpt lat="43.5479109" lon="10.8213901"><ele>147.0</ele><time>2026-04-18T07:19:51.507Z</time></trkpt><trkpt lat="43.5478428" lon="10.8213034"><ele>147.0</ele><time>2026-04-18T07:19:52.498Z</time></trkpt><trkpt lat="43.5477771" lon="10.8212237"><ele>147.0</ele><time>2026-04-18T07:19:53.512Z</time></trkpt><trkpt lat="43.547704" lon="10.8211307"><ele>146.4</ele><time>2026-04-18T07:19:54.495Z</time></trkpt><trkpt lat="43.5476331" lon="10.8210536"><ele>145.79999999999998</ele><time>2026-04-18T07:19:55.511Z</time></trkpt><trkpt lat="43.5475647" lon="10.8209575"><ele>145.2</ele><time>2026-04-18T07:19:56.502Z</time></trkpt><trkpt lat="43.5474972" lon="10.8208548"><ele>144.6</ele><time>2026-04-18T07:19:57.501Z</time></trkpt><trkpt lat="43.5474251" lon="10.8207494"><ele>144.0</ele><time>2026-04-18T07:19:58.518Z</time></trkpt><trkpt lat="43.5473563" lon="10.8206396"><ele>144.0</ele><time>2026-04-18T07:19:59.496Z</time></trkpt><trkpt lat="43.547287" lon="10.8205425"><ele>144.0</ele><time>2026-04-18T07:20:00.5Z</time></trkpt><trkpt lat="43.5472235" lon="10.8204499"><ele>144.0</ele><time>2026-04-18T07:20:01.5Z</time></trkpt><trkpt lat="43.5471659" lon="10.820385"><ele>144.0</ele><time>2026-04-18T07:20:02.513Z</time></trkpt><trkpt lat="43.5470955" lon="10.8203414"><ele>144.0</ele><time>2026-04-18T07:20:03.499Z</time></trkpt><trkpt lat="43.5470305" lon="10.8203384"><ele>144.0</ele><time>2026-04-18T07:20:04.508Z</time></trkpt><trkpt lat="43.5469566" lon="10.8203703"><ele>141.0</ele><time>2026-04-18T07:20:05.502Z</time></trkpt><trkpt lat="43.5468748" lon="10.8204198"><ele>138.0</ele><time>2026-04-18T07:20:06.5Z</time></trkpt><trkpt lat="43.5468181" lon="10.8205136"><ele>135.0</ele><time>2026-04-18T07:20:07.51Z</time></trkpt><trkpt lat="43.5467844" lon="10.8206228"><ele>132.0</ele><time>2026-04-18T07:20:08.507Z</time></trkpt><trkpt lat="43.5467521" lon="10.8207596"><ele>129.0</ele><time>2026-04-18T07:20:09.509Z</time></trkpt><trkpt lat="43.5467297" lon="10.8209271"><ele>128.5</ele><time>2026-04-18T07:20:10.509Z</time></trkpt><trkpt lat="43.5467" lon="10.8210994"><ele>128.0</ele><time>2026-04-18T07:20:11.513Z</time></trkpt><trkpt lat="43.5466645" lon="10.82129"><ele>127.5</ele><time>2026-04-18T07:20:12.517Z</time></trkpt><trkpt lat="43.5466197" lon="10.8214951"><ele>127.0</ele><time>2026-04-18T07:20:13.515Z</time></trkpt><trkpt lat="43.5465786" lon="10.8216813"><ele>126.25</ele><time>2026-04-18T07:20:14.51Z</time></trkpt><trkpt lat="43.5465424" lon="10.8218798"><ele>125.5</ele><time>2026-04-18T07:20:15.501Z</time></trkpt><trkpt lat="43.5465066" lon="10.8220627"><ele>124.75</ele><time>2026-04-18T07:20:16.503Z</time></trkpt><trkpt lat="43.5464717" lon="10.8222394"><ele>124.0</ele><time>2026-04-18T07:20:17.5Z</time></trkpt><trkpt lat="43.5464368" lon="10.8223904"><ele>124.00000000000001</ele><time>2026-04-18T07:20:18.502Z</time></trkpt><trkpt lat="43.5464" lon="10.8225275"><ele>124.0</ele><time>2026-04-18T07:20:19.507Z</time></trkpt><trkpt lat="43.5463779" lon="10.8226635"><ele>124.0</ele><time>2026-04-18T07:20:20.502Z</time></trkpt><trkpt lat="43.5463464" lon="10.8227606"><ele>124.0</ele><time>2026-04-18T07:20:21.508Z</time></trkpt><trkpt lat="43.5463128" lon="10.8228352"><ele>124.00000000000001</ele><time>2026-04-18T07:20:22.492Z</time></trkpt><trkpt lat="43.5462546" lon="10.8228692"><ele>124.0</ele><time>2026-04-18T07:20:23.507Z</time></trkpt><trkpt lat="43.5461719" lon="10.8228723"><ele>121.66666666666667</ele><time>2026-04-18T07:20:24.509Z</time></trkpt><trkpt lat="43.5460974" lon="10.8228386"><ele>119.33333333333334</ele><time>2026-04-18T07:20:25.517Z</time></trkpt><trkpt lat="43.5460247" lon="10.8227568"><ele>117.0</ele><time>2026-04-18T07:20:26.509Z</time></trkpt><trkpt lat="43.5459692" lon="10.8226757"><ele>114.66666666666666</ele><time>2026-04-18T07:20:27.499Z</time></trkpt><trkpt lat="43.5459255" lon="10.8225768"><ele>112.33333333333333</ele><time>2026-04-18T07:20:28.505Z</time></trkpt><trkpt lat="43.5458681" lon="10.8224726"><ele>110.0</ele><time>2026-04-18T07:20:29.496Z</time></trkpt><trkpt lat="43.5458121" lon="10.8223635"><ele>110.0</ele><time>2026-04-18T07:20:30.533Z</time></trkpt><trkpt lat="43.5457673" lon="10.8222543"><ele>110.0</ele><time>2026-04-18T07:20:31.512Z</time></trkpt><trkpt lat="43.5457183" lon="10.8221359"><ele>110.0</ele><time>2026-04-18T07:20:32.503Z</time></trkpt><trkpt lat="43.5456787" lon="10.8220059"><ele>110.0</ele><time>2026-04-18T07:20:33.513Z</time></trkpt><trkpt lat="43.545637" lon="10.8218576"><ele>110.0</ele><time>2026-04-18T07:20:34.506Z</time></trkpt><trkpt lat="43.5456013" lon="10.8216992"><ele>110.0</ele><time>2026-04-18T07:20:35.506Z</time></trkpt><trkpt lat="43.545571" lon="10.8215359"><ele>110.0</ele><time>2026-04-18T07:20:36.51Z</time></trkpt><trkpt lat="43.5455384" lon="10.8213697"><ele>110.0</ele><time>2026-04-18T07:20:37.503Z</time></trkpt><trkpt lat="43.5455038" lon="10.8211961"><ele>110.0</ele><time>2026-04-18T07:20:38.499Z</time></trkpt><trkpt lat="43.5454816" lon="10.821025"><ele>109.75</ele><time>2026-04-18T07:20:39.502Z</time></trkpt><trkpt lat="43.5454499" lon="10.8208545"><ele>109.5</ele><time>2026-04-18T07:20:40.505Z</time></trkpt><trkpt lat="43.5454135" lon="10.820685"><ele>109.25</ele><time>2026-04-18T07:20:41.509Z</time></trkpt><trkpt lat="43.5453628" lon="10.8205257"><ele>109.0</ele><time>2026-04-18T07:20:42.506Z</time></trkpt><trkpt lat="43.5452985" lon="10.8203803"><ele>106.0</ele><time>2026-04-18T07:20:43.508Z</time></trkpt><trkpt lat="43.5452118" lon="10.8202593"><ele>103.0</ele><time>2026-04-18T07:20:44.503Z</time></trkpt><trkpt lat="43.5451106" lon="10.8201535"><ele>100.0</ele><time>2026-04-18T07:20:45.507Z</time></trkpt><trkpt lat="43.5450169" lon="10.8200385"><ele>97.0</ele><time>2026-04-18T07:20:46.506Z</time></trkpt><trkpt lat="43.5449387" lon="10.8199279"><ele>97.0</ele><time>2026-04-18T07:20:47.504Z</time></trkpt><trkpt lat="43.544866" lon="10.8198173"><ele>97.0</ele><time>2026-04-18T07:20:48.501Z</time></trkpt><trkpt lat="43.5447984" lon="10.8196965"><ele>97.0</ele><time>2026-04-18T07:20:49.503Z</time></trkpt><trkpt lat="43.544742" lon="10.819569"><ele>97.0</ele><time>2026-04-18T07:20:50.502Z</time></trkpt><trkpt lat="43.5447074" lon="10.8194183"><ele>97.0</ele><time>2026-04-18T07:20:51.504Z</time></trkpt><trkpt lat="43.5446705" lon="10.8192907"><ele>97.6</ele><time>2026-04-18T07:20:52.498Z</time></trkpt><trkpt lat="43.5446537" lon="10.8191568"><ele>98.19999999999999</ele><time>2026-04-18T07:20:53.506Z</time></trkpt><trkpt lat="43.5446332" lon="10.8190126"><ele>98.8</ele><time>2026-04-18T07:20:54.499Z</time></trkpt><trkpt lat="43.5446074" lon="10.8188668"><ele>99.4</ele><time>2026-04-18T07:20:55.505Z</time></trkpt><trkpt lat="43.5445896" lon="10.8187117"><ele>100.0</ele><time>2026-04-18T07:20:56.505Z</time></trkpt><trkpt lat="43.5445747" lon="10.8185478"><ele>99.0</ele><time>2026-04-18T07:20:57.502Z</time></trkpt><trkpt lat="43.5445535" lon="10.8183767"><ele>98.0</ele><time>2026-04-18T07:20:58.503Z</time></trkpt><trkpt lat="43.5445409" lon="10.81821"><ele>97.0</ele><time>2026-04-18T07:20:59.514Z</time></trkpt><trkpt lat="43.5445207" lon="10.8180278"><ele>96.0</ele><time>2026-04-18T07:21:00.495Z</time></trkpt><trkpt lat="43.544495" lon="10.8178523"><ele>92.75</ele><time>2026-04-18T07:21:01.512Z</time></trkpt><trkpt lat="43.5444784" lon="10.817672"><ele>89.5</ele><time>2026-04-18T07:21:02.5Z</time></trkpt><trkpt lat="43.5444582" lon="10.8175016"><ele>86.25</ele><time>2026-04-18T07:21:03.5Z</time></trkpt><trkpt lat="43.5444295" lon="10.8173325"><ele>83.0</ele><time>2026-04-18T07:21:04.497Z</time></trkpt><trkpt lat="43.5444036" lon="10.8171705"><ele>83.0</ele><time>2026-04-18T07:21:05.511Z</time></trkpt><trkpt lat="43.5443566" lon="10.8170294"><ele>83.0</ele><time>2026-04-18T07:21:06.503Z</time></trkpt><trkpt lat="43.5443038" lon="10.8169216"><ele>83.0</ele><time>2026-04-18T07:21:07.505Z</time></trkpt><trkpt lat="43.5442191" lon="10.8168405"><ele>83.0</ele><time>2026-04-18T07:21:08.513Z</time></trkpt><trkpt lat="43.5441095" lon="10.8168053"><ele>83.0</ele><time>2026-04-18T07:21:09.498Z</time></trkpt><trkpt lat="43.5439809" lon="10.8167952"><ele>83.0</ele><time>2026-04-18T07:21:10.501Z</time></trkpt><trkpt lat="43.5438693" lon="10.8168113"><ele>83.0</ele><time>2026-04-18T07:21:11.505Z</time></trkpt><trkpt lat="43.5437427" lon="10.8168662"><ele>83.0</ele><time>2026-04-18T07:21:12.5Z</time></trkpt><trkpt lat="43.5436189" lon="10.8169356"><ele>83.0</ele><time>2026-04-18T07:21:13.502Z</time></trkpt><trkpt lat="43.5434882" lon="10.8169781"><ele>82.25</ele><time>2026-04-18T07:21:14.497Z</time></trkpt><trkpt lat="43.5433483" lon="10.8170398"><ele>81.5</ele><time>2026-04-18T07:21:15.495Z</time></trkpt><trkpt lat="43.5432129" lon="10.8170865"><ele>80.75</ele><time>2026-04-18T07:21:16.496Z</time></trkpt><trkpt lat="43.5430881" lon="10.817126"><ele>80.0</ele><time>2026-04-18T07:21:17.496Z</time></trkpt><trkpt lat="43.5429764" lon="10.8171881"><ele>81.5</ele><time>2026-04-18T07:21:18.505Z</time></trkpt><trkpt lat="43.5428688" lon="10.8172723"><ele>83.0</ele><time>2026-04-18T07:21:19.496Z</time></trkpt><trkpt lat="43.5427826" lon="10.8173846"><ele>84.5</ele><time>2026-04-18T07:21:20.503Z</time></trkpt><trkpt lat="43.542722" lon="10.817517"><ele>86.0</ele><time>2026-04-18T07:21:21.495Z</time></trkpt><trkpt lat="43.5426745" lon="10.817667"><ele>87.5</ele><time>2026-04-18T07:21:22.503Z</time></trkpt><trkpt lat="43.5426475" lon="10.8178225"><ele>89.0</ele><time>2026-04-18T07:21:23.503Z</time></trkpt><trkpt lat="43.5426393" lon="10.8179902"><ele>90.5</ele><time>2026-04-18T07:21:24.492Z</time></trkpt><trkpt lat="43.5426317" lon="10.8181706"><ele>92.0</ele><time>2026-04-18T07:21:25.511Z</time></trkpt><trkpt lat="43.542619" lon="10.8183492"><ele>93.25</ele><time>2026-04-18T07:21:26.492Z</time></trkpt><trkpt lat="43.5426145" lon="10.8185359"><ele>94.5</ele><time>2026-04-18T07:21:27.508Z</time></trkpt><trkpt lat="43.5425972" lon="10.8187176"><ele>95.75</ele><time>2026-04-18T07:21:28.504Z</time></trkpt><trkpt lat="43.5425874" lon="10.8188895"><ele>97.0</ele><time>2026-04-18T07:21:29.505Z</time></trkpt><trkpt lat="43.5425738" lon="10.8190719"><ele>97.0</ele><time>2026-04-18T07:21:30.517Z</time></trkpt><trkpt lat="43.5425688" lon="10.8192463"><ele>97.0</ele><time>2026-04-18T07:21:31.499Z</time></trkpt><trkpt lat="43.5425553" lon="10.8194293"><ele>97.0</ele><time>2026-04-18T07:21:32.499Z</time></trkpt><trkpt lat="43.5425392" lon="10.8195993"><ele>97.0</ele><time>2026-04-18T07:21:33.497Z</time></trkpt><trkpt lat="43.5425135" lon="10.819773"><ele>98.0</ele><time>2026-04-18T07:21:34.498Z</time></trkpt><trkpt lat="43.542482" lon="10.819954"><ele>99.0</ele><time>2026-04-18T07:21:35.506Z</time></trkpt><trkpt lat="43.5424492" lon="10.8201297"><ele>100.0</ele><time>2026-04-18T07:21:36.497Z</time></trkpt><trkpt lat="43.5424036" lon="10.8203008"><ele>101.0</ele><time>2026-04-18T07:21:37.506Z</time></trkpt><trkpt lat="43.5423633" lon="10.8204756"><ele>101.75</ele><time>2026-04-18T07:21:38.506Z</time></trkpt><trkpt lat="43.5423235" lon="10.820642"><ele>102.5</ele><time>2026-04-18T07:21:39.524Z</time></trkpt><trkpt lat="43.5422818" lon="10.8208006"><ele>103.25</ele><time>2026-04-18T07:21:40.508Z</time></trkpt><trkpt lat="43.5422392" lon="10.8209577"><ele>104.0</ele><time>2026-04-18T07:21:41.511Z</time></trkpt><trkpt lat="43.5421875" lon="10.8210973"><ele>104.0</ele><time>2026-04-18T07:21:42.512Z</time></trkpt><trkpt lat="43.5421161" lon="10.8212295"><ele>104.0</ele><time>2026-04-18T07:21:43.506Z</time></trkpt><trkpt lat="43.5420409" lon="10.8213427"><ele>104.0</ele><time>2026-04-18T07:21:44.507Z</time></trkpt><trkpt lat="43.5419676" lon="10.8214714"><ele>104.0</ele><time>2026-04-18T07:21:45.504Z</time></trkpt><trkpt lat="43.5418943" lon="10.8216013"><ele>108.0</ele><time>2026-04-18T07:21:46.507Z</time></trkpt><trkpt lat="43.5418389" lon="10.8217455"><ele>112.0</ele><time>2026-04-18T07:21:47.502Z</time></trkpt><trkpt lat="43.5417936" lon="10.8219085"><ele>116.0</ele><time>2026-04-18T07:21:48.497Z</time></trkpt><trkpt lat="43.5417786" lon="10.8220837"><ele>120.0</ele><time>2026-04-18T07:21:49.504Z</time></trkpt><trkpt lat="43.541788" lon="10.8222562"><ele>120.5</ele><time>2026-04-18T07:21:50.503Z</time></trkpt><trkpt lat="43.5418032" lon="10.8224307"><ele>121.0</ele><time>2026-04-18T07:21:51.509Z</time></trkpt><trkpt lat="43.5418083" lon="10.8226103"><ele>121.5</ele><time>2026-04-18T07:21:52.515Z</time></trkpt><trkpt lat="43.5417913" lon="10.8227734"><ele>122.0</ele><time>2026-04-18T07:21:53.509Z</time></trkpt><trkpt lat="43.5417554" lon="10.8229404"><ele>122.75</ele><time>2026-04-18T07:21:54.508Z</time></trkpt><trkpt lat="43.5417193" lon="10.8230992"><ele>123.5</ele><time>2026-04-18T07:21:55.506Z</time></trkpt><trkpt lat="43.5416731" lon="10.8232683"><ele>124.25</ele><time>2026-04-18T07:21:56.496Z</time></trkpt><trkpt lat="43.5416293" lon="10.8234226"><ele>125.0</ele><time>2026-04-18T07:21:57.5Z</time></trkpt><trkpt lat="43.5415837" lon="10.8235837"><ele>125.0</ele><time>2026-04-18T07:21:58.504Z</time></trkpt><trkpt lat="43.5415315" lon="10.8237417"><ele>125.0</ele><time>2026-04-18T07:21:59.502Z</time></trkpt><trkpt lat="43.5414771" lon="10.8239075"><ele>125.0</ele><time>2026-04-18T07:22:00.503Z</time></trkpt><trkpt lat="43.5414268" lon="10.824065"><ele>125.0</ele><time>2026-04-18T07:22:01.506Z</time></trkpt><trkpt lat="43.541367" lon="10.8242076"><ele>124.25</ele><time>2026-04-18T07:22:02.502Z</time></trkpt><trkpt lat="43.5413165" lon="10.8243662"><ele>123.5</ele><time>2026-04-18T07:22:03.503Z</time></trkpt><trkpt lat="43.5412653" lon="10.8245217"><ele>122.75</ele><time>2026-04-18T07:22:04.501Z</time></trkpt><trkpt lat="43.5412116" lon="10.8246784"><ele>122.0</ele><time>2026-04-18T07:22:05.497Z</time></trkpt><trkpt lat="43.5411646" lon="10.8248495"><ele>126.75</ele><time>2026-04-18T07:22:06.496Z</time></trkpt><trkpt lat="43.5411158" lon="10.8250232"><ele>131.5</ele><time>2026-04-18T07:22:07.499Z</time></trkpt><trkpt lat="43.5410719" lon="10.8251837"><ele>136.25</ele><time>2026-04-18T07:22:08.512Z</time></trkpt><trkpt lat="43.5410284" lon="10.8253457"><ele>141.0</ele><time>2026-04-18T07:22:09.497Z</time></trkpt><trkpt lat="43.5409802" lon="10.8254976"><ele>141.0</ele><time>2026-04-18T07:22:10.501Z</time></trkpt><trkpt lat="43.5409303" lon="10.8256651"><ele>141.0</ele><time>2026-04-18T07:22:11.503Z</time></trkpt><trkpt lat="43.5408879" lon="10.8258427"><ele>141.0</ele><time>2026-04-18T07:22:12.5Z</time></trkpt><trkpt lat="43.5408418" lon="10.8260228"><ele>141.0</ele><time>2026-04-18T07:22:13.504Z</time></trkpt><trkpt lat="43.5407952" lon="10.8261977"><ele>141.0</ele><time>2026-04-18T07:22:14.504Z</time></trkpt><trkpt lat="43.5407459" lon="10.8263758"><ele>141.0</ele><time>2026-04-18T07:22:15.507Z</time></trkpt><trkpt lat="43.540697" lon="10.8265716"><ele>141.0</ele><time>2026-04-18T07:22:16.503Z</time></trkpt><trkpt lat="43.5406535" lon="10.8267507"><ele>141.0</ele><time>2026-04-18T07:22:17.51Z</time></trkpt><trkpt lat="43.5406125" lon="10.8269083"><ele>141.0</ele><time>2026-04-18T07:22:18.502Z</time></trkpt><trkpt lat="43.5405738" lon="10.8270523"><ele>141.0</ele><time>2026-04-18T07:22:19.505Z</time></trkpt><trkpt lat="43.5405307" lon="10.8271855"><ele>141.0</ele><time>2026-04-18T07:22:20.496Z</time></trkpt><trkpt lat="43.5404821" lon="10.8273191"><ele>141.0</ele><time>2026-04-18T07:22:21.498Z</time></trkpt><trkpt lat="43.5404109" lon="10.8274509"><ele>141.0</ele><time>2026-04-18T07:22:22.5Z</time></trkpt><trkpt lat="43.5403439" lon="10.8275807"><ele>143.0</ele><time>2026-04-18T07:22:23.498Z</time></trkpt><trkpt lat="43.5402824" lon="10.8277092"><ele>145.0</ele><time>2026-04-18T07:22:24.509Z</time></trkpt><trkpt lat="43.5402186" lon="10.827818"><ele>147.0</ele><time>2026-04-18T07:22:25.501Z</time></trkpt><trkpt lat="43.5401584" lon="10.827915"><ele>149.0</ele><time>2026-04-18T07:22:26.517Z</time></trkpt><trkpt lat="43.5401029" lon="10.8279981"><ele>151.0</ele><time>2026-04-18T07:22:27.501Z</time></trkpt><trkpt lat="43.5400674" lon="10.8280876"><ele>151.0</ele><time>2026-04-18T07:22:28.497Z</time></trkpt><trkpt lat="43.540043" lon="10.8282023"><ele>151.0</ele><time>2026-04-18T07:22:29.509Z</time></trkpt><trkpt lat="43.5400472" lon="10.8283395"><ele>151.0</ele><time>2026-04-18T07:22:30.522Z</time></trkpt><trkpt lat="43.5400516" lon="10.8284866"><ele>151.0</ele><time>2026-04-18T07:22:31.505Z</time></trkpt><trkpt lat="43.5400632" lon="10.8286591"><ele>151.0</ele><time>2026-04-18T07:22:32.517Z</time></trkpt><trkpt lat="43.5400763" lon="10.8288237"><ele>151.25</ele><time>2026-04-18T07:22:33.501Z</time></trkpt><trkpt lat="43.5400922" lon="10.828978"><ele>151.5</ele><time>2026-04-18T07:22:34.504Z</time></trkpt><trkpt lat="43.5401081" lon="10.8291369"><ele>151.75</ele><time>2026-04-18T07:22:35.509Z</time></trkpt><trkpt lat="43.5401224" lon="10.8293067"><ele>152.0</ele><time>2026-04-18T07:22:36.496Z</time></trkpt><trkpt lat="43.5401457" lon="10.8294774"><ele>152.25</ele><time>2026-04-18T07:22:37.536Z</time></trkpt><trkpt lat="43.5401652" lon="10.8296365"><ele>152.5</ele><time>2026-04-18T07:22:38.514Z</time></trkpt><trkpt lat="43.5401884" lon="10.8298031"><ele>152.75</ele><time>2026-04-18T07:22:39.507Z</time></trkpt><trkpt lat="43.5402081" lon="10.8299642"><ele>153.0</ele><time>2026-04-18T07:22:40.512Z</time></trkpt><trkpt lat="43.5402287" lon="10.830128"><ele>153.8</ele><time>2026-04-18T07:22:41.522Z</time></trkpt><trkpt lat="43.5402381" lon="10.8302766"><ele>154.60000000000002</ele><time>2026-04-18T07:22:42.509Z</time></trkpt><trkpt lat="43.5402393" lon="10.830437"><ele>155.39999999999998</ele><time>2026-04-18T07:22:43.51Z</time></trkpt><trkpt lat="43.5402403" lon="10.8305756"><ele>156.2</ele><time>2026-04-18T07:22:44.503Z</time></trkpt><trkpt lat="43.5402405" lon="10.8307074"><ele>157.0</ele><time>2026-04-18T07:22:45.52Z</time></trkpt><trkpt lat="43.5402379" lon="10.8308296"><ele>157.0</ele><time>2026-04-18T07:22:46.504Z</time></trkpt><trkpt lat="43.5402312" lon="10.8309442"><ele>157.0</ele><time>2026-04-18T07:22:47.498Z</time></trkpt><trkpt lat="43.5402305" lon="10.8310526"><ele>157.0</ele><time>2026-04-18T07:22:48.514Z</time></trkpt><trkpt lat="43.5402214" lon="10.8311598"><ele>157.0</ele><time>2026-04-18T07:22:49.516Z</time></trkpt><trkpt lat="43.5402156" lon="10.8312754"><ele>157.0</ele><time>2026-04-18T07:22:50.509Z</time></trkpt><trkpt lat="43.5402109" lon="10.8313945"><ele>157.0</ele><time>2026-04-18T07:22:51.508Z</time></trkpt><trkpt lat="43.5402054" lon="10.8315031"><ele>157.83333333333334</ele><time>2026-04-18T07:22:52.498Z</time></trkpt><trkpt lat="43.5402023" lon="10.8316103"><ele>158.66666666666669</ele><time>2026-04-18T07:22:53.509Z</time></trkpt><trkpt lat="43.5402029" lon="10.8317093"><ele>159.5</ele><time>2026-04-18T07:22:54.515Z</time></trkpt><trkpt lat="43.5401993" lon="10.8318129"><ele>160.33333333333334</ele><time>2026-04-18T07:22:55.5Z</time></trkpt><trkpt lat="43.540194" lon="10.8319212"><ele>161.16666666666666</ele><time>2026-04-18T07:22:56.507Z</time></trkpt><trkpt lat="43.5401968" lon="10.8320356"><ele>162.0</ele><time>2026-04-18T07:22:57.504Z</time></trkpt><trkpt lat="43.5401991" lon="10.8321473"><ele>162.16666666666666</ele><time>2026-04-18T07:22:58.501Z</time></trkpt><trkpt lat="43.5402181" lon="10.8322698"><ele>162.33333333333334</ele><time>2026-04-18T07:22:59.503Z</time></trkpt><trkpt lat="43.5402334" lon="10.8323827"><ele>162.5</ele><time>2026-04-18T07:23:00.507Z</time></trkpt><trkpt lat="43.540256" lon="10.8324941"><ele>162.66666666666669</ele><time>2026-04-18T07:23:01.504Z</time></trkpt><trkpt lat="43.5402869" lon="10.8326103"><ele>162.83333333333334</ele><time>2026-04-18T07:23:02.499Z</time></trkpt><trkpt lat="43.5403092" lon="10.8327205"><ele>163.0</ele><time>2026-04-18T07:23:03.516Z</time></trkpt><trkpt lat="43.5403326" lon="10.8328308"><ele>163.0</ele><time>2026-04-18T07:23:04.5Z</time></trkpt><trkpt lat="43.5403411" lon="10.8329543"><ele>163.0</ele><time>2026-04-18T07:23:05.511Z</time></trkpt><trkpt lat="43.5403498" lon="10.8330851"><ele>163.0</ele><time>2026-04-18T07:23:06.512Z</time></trkpt><trkpt lat="43.5403518" lon="10.8332105"><ele>163.0</ele><time>2026-04-18T07:23:07.5Z</time></trkpt><trkpt lat="43.5403533" lon="10.8333483"><ele>163.0</ele><time>2026-04-18T07:23:08.517Z</time></trkpt><trkpt lat="43.5403508" lon="10.8334914"><ele>162.25</ele><time>2026-04-18T07:23:09.502Z</time></trkpt><trkpt lat="43.5403449" lon="10.8336522"><ele>161.5</ele><time>2026-04-18T07:23:10.52Z</time></trkpt><trkpt lat="43.5403355" lon="10.8338171"><ele>160.75</ele><time>2026-04-18T07:23:11.509Z</time></trkpt><trkpt lat="43.5403371" lon="10.8339792"><ele>160.0</ele><time>2026-04-18T07:23:12.505Z</time></trkpt><trkpt lat="43.5403346" lon="10.8341266"><ele>160.0</ele><time>2026-04-18T07:23:13.506Z</time></trkpt><trkpt lat="43.5403307" lon="10.8342606"><ele>160.0</ele><time>2026-04-18T07:23:14.52Z</time></trkpt><trkpt lat="43.5403241" lon="10.8343942"><ele>160.0</ele><time>2026-04-18T07:23:15.512Z</time></trkpt><trkpt lat="43.5403253" lon="10.8345143"><ele>160.0</ele><time>2026-04-18T07:23:16.509Z</time></trkpt><trkpt lat="43.5403157" lon="10.8346283"><ele>160.0</ele><time>2026-04-18T07:23:17.506Z</time></trkpt><trkpt lat="43.5403108" lon="10.8347518"><ele>160.0</ele><time>2026-04-18T07:23:18.515Z</time></trkpt><trkpt lat="43.5403038" lon="10.8348715"><ele>160.0</ele><time>2026-04-18T07:23:19.501Z</time></trkpt><trkpt lat="43.5403012" lon="10.8349785"><ele>160.0</ele><time>2026-04-18T07:23:20.498Z</time></trkpt><trkpt lat="43.5402976" lon="10.8350953"><ele>160.0</ele><time>2026-04-18T07:23:21.498Z</time></trkpt><trkpt lat="43.5402934" lon="10.8351951"><ele>160.0</ele><time>2026-04-18T07:23:22.514Z</time></trkpt><trkpt lat="43.5402907" lon="10.835301"><ele>160.0</ele><time>2026-04-18T07:23:23.516Z</time></trkpt><trkpt lat="43.5402826" lon="10.8354051"><ele>160.0</ele><time>2026-04-18T07:23:24.506Z</time></trkpt><trkpt lat="43.5402766" lon="10.8355094"><ele>160.0</ele><time>2026-04-18T07:23:25.503Z</time></trkpt><trkpt lat="43.54027" lon="10.8356096"><ele>160.0</ele><time>2026-04-18T07:23:26.509Z</time></trkpt><trkpt lat="43.5402615" lon="10.8357092"><ele>160.0</ele><time>2026-04-18T07:23:27.507Z</time></trkpt><trkpt lat="43.5402546" lon="10.8358144"><ele>160.0</ele><time>2026-04-18T07:23:28.508Z</time></trkpt><trkpt lat="43.5402567" lon="10.8359157"><ele>160.0</ele><time>2026-04-18T07:23:29.502Z</time></trkpt><trkpt lat="43.5402568" lon="10.8360172"><ele>160.0</ele><time>2026-04-18T07:23:30.512Z</time></trkpt><trkpt lat="43.5402552" lon="10.8361198"><ele>159.4</ele><time>2026-04-18T07:23:31.505Z</time></trkpt><trkpt lat="43.5402495" lon="10.8362221"><ele>158.8</ele><time>2026-04-18T07:23:32.517Z</time></trkpt><trkpt lat="43.5402457" lon="10.8363304"><ele>158.2</ele><time>2026-04-18T07:23:33.503Z</time></trkpt><trkpt lat="43.5402465" lon="10.8364306"><ele>157.6</ele><time>2026-04-18T07:23:34.501Z</time></trkpt><trkpt lat="43.5402288" lon="10.8365972"><ele>157.0</ele><time>2026-04-18T07:23:36.503Z</time></trkpt><trkpt lat="43.5402308" lon="10.8367643"><ele>157.0</ele><time>2026-04-18T07:23:38.506Z</time></trkpt><trkpt lat="43.5402322" lon="10.8369295"><ele>157.0</ele><time>2026-04-18T07:23:40.511Z</time></trkpt><trkpt lat="43.5402435" lon="10.8370205"><ele>157.0</ele><time>2026-04-18T07:23:41.502Z</time></trkpt><trkpt lat="43.5402494" lon="10.8371191"><ele>157.0</ele><time>2026-04-18T07:23:42.504Z</time></trkpt><trkpt lat="43.5402577" lon="10.8372236"><ele>157.0</ele><time>2026-04-18T07:23:43.5Z</time></trkpt><trkpt lat="43.5402732" lon="10.8373364"><ele>157.0</ele><time>2026-04-18T07:23:44.497Z</time></trkpt><trkpt lat="43.5402944" lon="10.8374582"><ele>157.0</ele><time>2026-04-18T07:23:45.503Z</time></trkpt><trkpt lat="43.5403134" lon="10.8375801"><ele>157.0</ele><time>2026-04-18T07:23:46.506Z</time></trkpt><trkpt lat="43.5403311" lon="10.8377021"><ele>157.0</ele><time>2026-04-18T07:23:47.497Z</time></trkpt><trkpt lat="43.5403462" lon="10.8378348"><ele>157.0</ele><time>2026-04-18T07:23:48.514Z</time></trkpt><trkpt lat="43.5403624" lon="10.8379589"><ele>157.0</ele><time>2026-04-18T07:23:49.51Z</time></trkpt><trkpt lat="43.5403797" lon="10.8380855"><ele>157.33333333333334</ele><time>2026-04-18T07:23:50.497Z</time></trkpt><trkpt lat="43.5404034" lon="10.8382056"><ele>157.66666666666669</ele><time>2026-04-18T07:23:51.512Z</time></trkpt><trkpt lat="43.5404211" lon="10.8383229"><ele>158.0</ele><time>2026-04-18T07:23:52.501Z</time></trkpt><trkpt lat="43.5404385" lon="10.8384315"><ele>158.33333333333334</ele><time>2026-04-18T07:23:53.499Z</time></trkpt><trkpt lat="43.5404575" lon="10.8385445"><ele>158.66666666666666</ele><time>2026-04-18T07:23:54.508Z</time></trkpt><trkpt lat="43.5404796" lon="10.8386547"><ele>159.0</ele><time>2026-04-18T07:23:55.508Z</time></trkpt><trkpt lat="43.5404981" lon="10.838771"><ele>160.5</ele><time>2026-04-18T07:23:56.513Z</time></trkpt><trkpt lat="43.5405177" lon="10.8388814"><ele>162.0</ele><time>2026-04-18T07:23:57.517Z</time></trkpt><trkpt lat="43.5405429" lon="10.838988"><ele>163.5</ele><time>2026-04-18T07:23:58.515Z</time></trkpt><trkpt lat="43.540568" lon="10.8390935"><ele>165.0</ele><time>2026-04-18T07:23:59.505Z</time></trkpt><trkpt lat="43.5405916" lon="10.8392032"><ele>166.5</ele><time>2026-04-18T07:24:00.506Z</time></trkpt><trkpt lat="43.5406156" lon="10.8393157"><ele>168.0</ele><time>2026-04-18T07:24:01.505Z</time></trkpt><trkpt lat="43.540637" lon="10.8394235"><ele>169.16666666666666</ele><time>2026-04-18T07:24:02.506Z</time></trkpt><trkpt lat="43.5406573" lon="10.8395141"><ele>170.33333333333334</ele><time>2026-04-18T07:24:03.502Z</time></trkpt><trkpt lat="43.5406659" lon="10.8396426"><ele>171.5</ele><time>2026-04-18T07:24:05.508Z</time></trkpt><trkpt lat="43.5405937" lon="10.8396514"><ele>172.66666666666669</ele><time>2026-04-18T07:24:07.505Z</time></trkpt><trkpt lat="43.5404998" lon="10.8395791"><ele>173.83333333333334</ele><time>2026-04-18T07:24:09.513Z</time></trkpt><trkpt lat="43.540425" lon="10.8395583"><ele>175.0</ele><time>2026-04-18T07:24:10.514Z</time></trkpt><trkpt lat="43.5403607" lon="10.8395525"><ele>175.16666666666669</ele><time>2026-04-18T07:24:11.5Z</time></trkpt><trkpt lat="43.540267" lon="10.839551"><ele>175.33333333333334</ele><time>2026-04-18T07:24:13.506Z</time></trkpt><trkpt lat="43.5401955" lon="10.8395277"><ele>175.5</ele><time>2026-04-18T07:24:16.494Z</time></trkpt><trkpt lat="43.5401323" lon="10.8394801"><ele>175.66666666666666</ele><time>2026-04-18T07:24:18.499Z</time></trkpt><trkpt lat="43.5400534" lon="10.8394312"><ele>175.83333333333331</ele><time>2026-04-18T07:24:20.505Z</time></trkpt><trkpt lat="43.5399507" lon="10.8393462"><ele>176.0</ele><time>2026-04-18T07:24:22.497Z</time></trkpt><trkpt lat="43.5398428" lon="10.8392593"><ele>175.0</ele><time>2026-04-18T07:24:24.501Z</time></trkpt><trkpt lat="43.5397854" lon="10.8392235"><ele>174.0</ele><time>2026-04-18T07:24:25.513Z</time></trkpt><trkpt lat="43.539731" lon="10.8391664"><ele>173.0</ele><time>2026-04-18T07:24:26.512Z</time></trkpt><trkpt lat="43.539672" lon="10.8391271"><ele>172.0</ele><time>2026-04-18T07:24:27.521Z</time></trkpt><trkpt lat="43.5396171" lon="10.8390789"><ele>171.0</ele><time>2026-04-18T07:24:28.497Z</time></trkpt><trkpt lat="43.5395193" lon="10.8389823"><ele>170.0</ele><time>2026-04-18T07:24:30.499Z</time></trkpt><trkpt lat="43.5394348" lon="10.8389159"><ele>169.85714285714286</ele><time>2026-04-18T07:24:32.508Z</time></trkpt><trkpt lat="43.5393744" lon="10.8388566"><ele>169.7142857142857</ele><time>2026-04-18T07:24:34.499Z</time></trkpt><trkpt lat="43.5393182" lon="10.8388117"><ele>169.57142857142856</ele><time>2026-04-18T07:24:36.504Z</time></trkpt><trkpt lat="43.5392595" lon="10.8387725"><ele>169.42857142857144</ele><time>2026-04-18T07:24:38.5Z</time></trkpt><trkpt lat="43.5392122" lon="10.8387121"><ele>169.28571428571428</ele><time>2026-04-18T07:24:41.516Z</time></trkpt><trkpt lat="43.5391342" lon="10.8386495"><ele>169.14285714285714</ele><time>2026-04-18T07:24:43.504Z</time></trkpt><trkpt lat="43.5390821" lon="10.8385984"><ele>169.0</ele><time>2026-04-18T07:24:44.492Z</time></trkpt><trkpt lat="43.5390285" lon="10.8385475"><ele>169.0</ele><time>2026-04-18T07:24:45.499Z</time></trkpt><trkpt lat="43.5389766" lon="10.8384983"><ele>169.0</ele><time>2026-04-18T07:24:46.505Z</time></trkpt><trkpt lat="43.5389257" lon="10.8384431"><ele>169.0</ele><time>2026-04-18T07:24:47.502Z</time></trkpt><trkpt lat="43.5388513" lon="10.83838"><ele>169.0</ele><time>2026-04-18T07:24:49.503Z</time></trkpt><trkpt lat="43.5387877" lon="10.8383543"><ele>169.0</ele><time>2026-04-18T07:24:52.492Z</time></trkpt><trkpt lat="43.5387272" lon="10.8383117"><ele>169.0</ele><time>2026-04-18T07:24:55.5Z</time></trkpt><trkpt lat="43.5386725" lon="10.8382677"><ele>169.0</ele><time>2026-04-18T07:24:58.5Z</time></trkpt><trkpt lat="43.5386161" lon="10.8382187"><ele>168.33333333333334</ele><time>2026-04-18T07:25:01.502Z</time></trkpt><trkpt lat="43.5385554" lon="10.8381683"><ele>167.66666666666669</ele><time>2026-04-18T07:25:04.507Z</time></trkpt><trkpt lat="43.5384941" lon="10.8381126"><ele>167.0</ele><time>2026-04-18T07:25:07.499Z</time></trkpt><trkpt lat="43.5384429" lon="10.8380603"><ele>166.33333333333334</ele><time>2026-04-18T07:25:10.506Z</time></trkpt><trkpt lat="43.5383853" lon="10.8380047"><ele>165.66666666666666</ele><time>2026-04-18T07:25:13.505Z</time></trkpt><trkpt lat="43.5383076" lon="10.8379379"><ele>165.0</ele><time>2026-04-18T07:25:17.497Z</time></trkpt><trkpt lat="43.5382253" lon="10.837888"><ele>165.00000000000003</ele><time>2026-04-18T07:25:20.508Z</time></trkpt><trkpt lat="43.5381675" lon="10.837843"><ele>165.0</ele><time>2026-04-18T07:25:22.503Z</time></trkpt><trkpt lat="43.5381077" lon="10.8377899"><ele>165.0</ele><time>2026-04-18T07:25:25.516Z</time></trkpt><trkpt lat="43.5380508" lon="10.8377518"><ele>165.0</ele><time>2026-04-18T07:25:28.507Z</time></trkpt><trkpt lat="43.5379709" lon="10.8376837"><ele>165.0</ele><time>2026-04-18T07:25:31.495Z</time></trkpt><trkpt lat="43.5379071" lon="10.8376331"><ele>165.00000000000003</ele><time>2026-04-18T07:25:33.518Z</time></trkpt><trkpt lat="43.5378434" lon="10.8375923"><ele>165.0</ele><time>2026-04-18T07:25:35.504Z</time></trkpt><trkpt lat="43.5377812" lon="10.8375384"><ele>163.6</ele><time>2026-04-18T07:25:37.507Z</time></trkpt><trkpt lat="43.5377244" lon="10.8374683"><ele>162.2</ele><time>2026-04-18T07:25:39.499Z</time></trkpt><trkpt lat="43.5376446" lon="10.8373899"><ele>160.8</ele><time>2026-04-18T07:25:41.505Z</time></trkpt><trkpt lat="43.5375498" lon="10.8373247"><ele>159.4</ele><time>2026-04-18T07:25:43.501Z</time></trkpt><trkpt lat="43.5374483" lon="10.8372964"><ele>158.0</ele><time>2026-04-18T07:25:45.498Z</time></trkpt><trkpt lat="43.5373442" lon="10.8372642"><ele>158.0</ele><time>2026-04-18T07:25:47.503Z</time></trkpt><trkpt lat="43.5372356" lon="10.837244"><ele>158.0</ele><time>2026-04-18T07:25:49.5Z</time></trkpt><trkpt lat="43.5371388" lon="10.837218"><ele>158.0</ele><time>2026-04-18T07:25:51.499Z</time></trkpt><trkpt lat="43.5370501" lon="10.8371686"><ele>158.0</ele><time>2026-04-18T07:25:53.505Z</time></trkpt><trkpt lat="43.5369652" lon="10.8371074"><ele>158.0</ele><time>2026-04-18T07:25:55.496Z</time></trkpt><trkpt lat="43.5368833" lon="10.8370256"><ele>157.8</ele><time>2026-04-18T07:25:57.498Z</time></trkpt><trkpt lat="43.5368048" lon="10.8369523"><ele>157.60000000000002</ele><time>2026-04-18T07:25:59.51Z</time></trkpt><trkpt lat="43.5367065" lon="10.8368873"><ele>157.39999999999998</ele><time>2026-04-18T07:26:01.498Z</time></trkpt><trkpt lat="43.5366057" lon="10.836832"><ele>157.2</ele><time>2026-04-18T07:26:03.505Z</time></trkpt><trkpt lat="43.5365257" lon="10.8367649"><ele>157.0</ele><time>2026-04-18T07:26:05.499Z</time></trkpt><trkpt lat="43.5364586" lon="10.8367205"><ele>157.0</ele><time>2026-04-18T07:26:07.505Z</time></trkpt><trkpt lat="43.5363861" lon="10.8366413"><ele>157.0</ele><time>2026-04-18T07:26:09.495Z</time></trkpt><trkpt lat="43.5363098" lon="10.8365463"><ele>157.0</ele><time>2026-04-18T07:26:11.496Z</time></trkpt><trkpt lat="43.5362291" lon="10.8364544"><ele>157.0</ele><time>2026-04-18T07:26:13.505Z</time></trkpt><trkpt lat="43.5361386" lon="10.8363833"><ele>157.0</ele><time>2026-04-18T07:26:15.504Z</time></trkpt><trkpt lat="43.5360313" lon="10.8363351"><ele>157.83333333333334</ele><time>2026-04-18T07:26:17.496Z</time></trkpt><trkpt lat="43.53597" lon="10.8363113"><ele>158.66666666666669</ele><time>2026-04-18T07:26:18.495Z</time></trkpt><trkpt lat="43.5358761" lon="10.836201"><ele>159.5</ele><time>2026-04-18T07:26:20.5Z</time></trkpt><trkpt lat="43.5358294" lon="10.8361359"><ele>160.33333333333334</ele><time>2026-04-18T07:26:21.51Z</time></trkpt><trkpt lat="43.5357836" lon="10.836069"><ele>161.16666666666666</ele><time>2026-04-18T07:26:22.501Z</time></trkpt><trkpt lat="43.5357073" lon="10.8359485"><ele>162.0</ele><time>2026-04-18T07:26:24.496Z</time></trkpt><trkpt lat="43.5356328" lon="10.8358266"><ele>162.0</ele><time>2026-04-18T07:26:26.502Z</time></trkpt><trkpt lat="43.5355517" lon="10.8357082"><ele>162.0</ele><time>2026-04-18T07:26:28.494Z</time></trkpt><trkpt lat="43.5355046" lon="10.8356487"><ele>162.0</ele><time>2026-04-18T07:26:29.504Z</time></trkpt><trkpt lat="43.535423" lon="10.835528"><ele>162.0</ele><time>2026-04-18T07:26:31.502Z</time></trkpt><trkpt lat="43.5353726" lon="10.835474"><ele>162.0</ele><time>2026-04-18T07:26:32.492Z</time></trkpt><trkpt lat="43.5352671" lon="10.8353845"><ele>163.33333333333334</ele><time>2026-04-18T07:26:34.5Z</time></trkpt><trkpt lat="43.5352074" lon="10.8353456"><ele>164.66666666666666</ele><time>2026-04-18T07:26:35.493Z</time></trkpt><trkpt lat="43.535105" lon="10.8352743"><ele>166.0</ele><time>2026-04-18T07:26:37.501Z</time></trkpt><trkpt lat="43.5350208" lon="10.8352154"><ele>167.33333333333331</ele><time>2026-04-18T07:26:39.499Z</time></trkpt><trkpt lat="43.5349617" lon="10.8351502"><ele>168.66666666666666</ele><time>2026-04-18T07:26:41.506Z</time></trkpt><trkpt lat="43.534931" lon="10.8350617"><ele>170.0</ele><time>2026-04-18T07:26:43.495Z</time></trkpt><trkpt lat="43.534895" lon="10.8349387"><ele>170.0</ele><time>2026-04-18T07:26:45.497Z</time></trkpt><trkpt lat="43.5348457" lon="10.8348113"><ele>170.0</ele><time>2026-04-18T07:26:47.509Z</time></trkpt><trkpt lat="43.5347808" lon="10.8346807"><ele>170.0</ele><time>2026-04-18T07:26:49.502Z</time></trkpt><trkpt lat="43.5347118" lon="10.8345469"><ele>170.0</ele><time>2026-04-18T07:26:51.497Z</time></trkpt><trkpt lat="43.5346332" lon="10.8344094"><ele>170.0</ele><time>2026-04-18T07:26:53.498Z</time></trkpt><trkpt lat="43.5345824" lon="10.8343422"><ele>170.0</ele><time>2026-04-18T07:26:54.51Z</time></trkpt><trkpt lat="43.5345363" lon="10.834282"><ele>170.0</ele><time>2026-04-18T07:26:55.501Z</time></trkpt><trkpt lat="43.5344424" lon="10.8341718"><ele>170.0</ele><time>2026-04-18T07:26:57.512Z</time></trkpt><trkpt lat="43.5343568" lon="10.8340832"><ele>170.0</ele><time>2026-04-18T07:26:59.509Z</time></trkpt><trkpt lat="43.5343005" lon="10.8340114"><ele>170.0</ele><time>2026-04-18T07:27:01.492Z</time></trkpt><trkpt lat="43.5342362" lon="10.8339446"><ele>170.4</ele><time>2026-04-18T07:27:03.506Z</time></trkpt><trkpt lat="43.5341346" lon="10.8338954"><ele>170.8</ele><time>2026-04-18T07:27:05.502Z</time></trkpt><trkpt lat="43.5340317" lon="10.8338173"><ele>171.2</ele><time>2026-04-18T07:27:07.495Z</time></trkpt><trkpt lat="43.5339478" lon="10.8337192"><ele>171.6</ele><time>2026-04-18T07:27:09.516Z</time></trkpt><trkpt lat="43.5338815" lon="10.8336126"><ele>172.0</ele><time>2026-04-18T07:27:11.492Z</time></trkpt><trkpt lat="43.5338084" lon="10.8334876"><ele>171.39999999999998</ele><time>2026-04-18T07:27:13.497Z</time></trkpt><trkpt lat="43.5337505" lon="10.833379"><ele>170.79999999999998</ele><time>2026-04-18T07:27:15.5Z</time></trkpt><trkpt lat="43.5336765" lon="10.833256"><ele>170.2</ele><time>2026-04-18T07:27:17.498Z</time></trkpt><trkpt lat="43.5335969" lon="10.8331236"><ele>169.6</ele><time>2026-04-18T07:27:19.491Z</time></trkpt><trkpt lat="43.5335539" lon="10.8330571"><ele>169.0</ele><time>2026-04-18T07:27:20.501Z</time></trkpt><trkpt lat="43.5335101" lon="10.8329783"><ele>169.0</ele><time>2026-04-18T07:27:21.51Z</time></trkpt><trkpt lat="43.5334736" lon="10.8328976"><ele>169.0</ele><time>2026-04-18T07:27:22.503Z</time></trkpt><trkpt lat="43.5334402" lon="10.8328027"><ele>169.0</ele><time>2026-04-18T07:27:23.506Z</time></trkpt><trkpt lat="43.5334031" lon="10.8327095"><ele>169.0</ele><time>2026-04-18T07:27:24.503Z</time></trkpt><trkpt lat="43.5333717" lon="10.8326241"><ele>169.0</ele><time>2026-04-18T07:27:25.52Z</time></trkpt><trkpt lat="43.5333418" lon="10.8325367"><ele>169.0</ele><time>2026-04-18T07:27:26.498Z</time></trkpt><trkpt lat="43.5332731" lon="10.8323842"><ele>169.16666666666669</ele><time>2026-04-18T07:27:28.511Z</time></trkpt><trkpt lat="43.5331895" lon="10.8322637"><ele>169.33333333333334</ele><time>2026-04-18T07:27:30.502Z</time></trkpt><trkpt lat="43.5331384" lon="10.8322047"><ele>169.5</ele><time>2026-04-18T07:27:31.5Z</time></trkpt><trkpt lat="43.5330894" lon="10.8321426"><ele>169.66666666666666</ele><time>2026-04-18T07:27:32.497Z</time></trkpt><trkpt lat="43.533038" lon="10.8320869"><ele>169.83333333333331</ele><time>2026-04-18T07:27:33.498Z</time></trkpt><trkpt lat="43.5329874" lon="10.8320191"><ele>170.0</ele><time>2026-04-18T07:27:34.498Z</time></trkpt><trkpt lat="43.532941" lon="10.8319472"><ele>170.0</ele><time>2026-04-18T07:27:35.497Z</time></trkpt><trkpt lat="43.5328976" lon="10.8318721"><ele>170.0</ele><time>2026-04-18T07:27:36.511Z</time></trkpt><trkpt lat="43.532866" lon="10.8317965"><ele>170.0</ele><time>2026-04-18T07:27:37.504Z</time></trkpt><trkpt lat="43.5328335" lon="10.831716"><ele>170.0</ele><time>2026-04-18T07:27:38.521Z</time></trkpt><trkpt lat="43.5327997" lon="10.8316325"><ele>170.0</ele><time>2026-04-18T07:27:39.505Z</time></trkpt><trkpt lat="43.5327665" lon="10.8315479"><ele>170.0</ele><time>2026-04-18T07:27:40.499Z</time></trkpt><trkpt lat="43.5327304" lon="10.8314684"><ele>170.0</ele><time>2026-04-18T07:27:41.517Z</time></trkpt><trkpt lat="43.5326916" lon="10.831386"><ele>170.0</ele><time>2026-04-18T07:27:42.503Z</time></trkpt><trkpt lat="43.5326477" lon="10.8313142"><ele>170.0</ele><time>2026-04-18T07:27:43.507Z</time></trkpt><trkpt lat="43.5325921" lon="10.8312367"><ele>170.0</ele><time>2026-04-18T07:27:44.494Z</time></trkpt><trkpt lat="43.5325311" lon="10.8311785"><ele>170.0</ele><time>2026-04-18T07:27:45.506Z</time></trkpt><trkpt lat="43.5324705" lon="10.8311142"><ele>170.0</ele><time>2026-04-18T07:27:46.498Z</time></trkpt><trkpt lat="43.5323982" lon="10.8310413"><ele>170.0</ele><time>2026-04-18T07:27:47.498Z</time></trkpt><trkpt lat="43.5323166" lon="10.8309856"><ele>171.16666666666666</ele><time>2026-04-18T07:27:48.497Z</time></trkpt><trkpt lat="43.5322369" lon="10.8309374"><ele>172.33333333333331</ele><time>2026-04-18T07:27:49.502Z</time></trkpt><trkpt lat="43.5321579" lon="10.8309036"><ele>173.5</ele><time>2026-04-18T07:27:50.51Z</time></trkpt><trkpt lat="43.5320835" lon="10.8308737"><ele>174.66666666666666</ele><time>2026-04-18T07:27:51.516Z</time></trkpt><trkpt lat="43.5320042" lon="10.8308354"><ele>175.83333333333334</ele><time>2026-04-18T07:27:52.505Z</time></trkpt><trkpt lat="43.5319219" lon="10.8308022"><ele>177.0</ele><time>2026-04-18T07:27:53.496Z</time></trkpt><trkpt lat="43.5318375" lon="10.8307663"><ele>177.66666666666666</ele><time>2026-04-18T07:27:54.497Z</time></trkpt><trkpt lat="43.5317577" lon="10.8307171"><ele>178.33333333333334</ele><time>2026-04-18T07:27:55.512Z</time></trkpt><trkpt lat="43.53168" lon="10.8306677"><ele>179.0</ele><time>2026-04-18T07:27:56.512Z</time></trkpt><trkpt lat="43.5316048" lon="10.8306288"><ele>179.66666666666669</ele><time>2026-04-18T07:27:57.498Z</time></trkpt><trkpt lat="43.5315299" lon="10.83058"><ele>180.33333333333334</ele><time>2026-04-18T07:27:58.526Z</time></trkpt><trkpt lat="43.5314566" lon="10.8305382"><ele>181.0</ele><time>2026-04-18T07:27:59.496Z</time></trkpt><trkpt lat="43.5313762" lon="10.8305011"><ele>181.0</ele><time>2026-04-18T07:28:00.513Z</time></trkpt><trkpt lat="43.5313102" lon="10.8304788"><ele>181.0</ele><time>2026-04-18T07:28:01.499Z</time></trkpt><trkpt lat="43.5312474" lon="10.8304321"><ele>181.0</ele><time>2026-04-18T07:28:02.509Z</time></trkpt><trkpt lat="43.5311899" lon="10.8303738"><ele>181.0</ele><time>2026-04-18T07:28:03.497Z</time></trkpt><trkpt lat="43.5311355" lon="10.8303054"><ele>181.0</ele><time>2026-04-18T07:28:04.494Z</time></trkpt><trkpt lat="43.5310806" lon="10.8302279"><ele>181.0</ele><time>2026-04-18T07:28:05.509Z</time></trkpt><trkpt lat="43.5310368" lon="10.8301414"><ele>181.0</ele><time>2026-04-18T07:28:06.5Z</time></trkpt><trkpt lat="43.5310097" lon="10.8300486"><ele>180.5</ele><time>2026-04-18T07:28:07.507Z</time></trkpt><trkpt lat="43.5309939" lon="10.8299465"><ele>180.0</ele><time>2026-04-18T07:28:08.505Z</time></trkpt><trkpt lat="43.5309735" lon="10.8298374"><ele>179.5</ele><time>2026-04-18T07:28:09.505Z</time></trkpt><trkpt lat="43.5309583" lon="10.8297403"><ele>179.0</ele><time>2026-04-18T07:28:10.49Z</time></trkpt><trkpt lat="43.5309447" lon="10.8296238"><ele>178.5</ele><time>2026-04-18T07:28:11.504Z</time></trkpt><trkpt lat="43.5309388" lon="10.8295126"><ele>178.0</ele><time>2026-04-18T07:28:12.515Z</time></trkpt><trkpt lat="43.5309351" lon="10.8294059"><ele>177.60000000000002</ele><time>2026-04-18T07:28:13.499Z</time></trkpt><trkpt lat="43.5309247" lon="10.8293059"><ele>177.20000000000002</ele><time>2026-04-18T07:28:14.511Z</time></trkpt><trkpt lat="43.5309117" lon="10.829215"><ele>176.8</ele><time>2026-04-18T07:28:15.51Z</time></trkpt><trkpt lat="43.5308722" lon="10.8290622"><ele>176.4</ele><time>2026-04-18T07:28:17.514Z</time></trkpt><trkpt lat="43.5308248" lon="10.8289131"><ele>176.0</ele><time>2026-04-18T07:28:19.497Z</time></trkpt><trkpt lat="43.5307556" lon="10.8287843"><ele>176.0</ele><time>2026-04-18T07:28:21.505Z</time></trkpt><trkpt lat="43.5307154" lon="10.828716"><ele>176.0</ele><time>2026-04-18T07:28:22.495Z</time></trkpt><trkpt lat="43.5306318" lon="10.8285894"><ele>176.0</ele><time>2026-04-18T07:28:24.51Z</time></trkpt><trkpt lat="43.5305797" lon="10.8285147"><ele>176.0</ele><time>2026-04-18T07:28:25.497Z</time></trkpt><trkpt lat="43.5305351" lon="10.8284474"><ele>176.0</ele><time>2026-04-18T07:28:26.498Z</time></trkpt><trkpt lat="43.5304864" lon="10.8283804"><ele>176.0</ele><time>2026-04-18T07:28:27.505Z</time></trkpt><trkpt lat="43.5303929" lon="10.8282535"><ele>174.66666666666666</ele><time>2026-04-18T07:28:29.493Z</time></trkpt><trkpt lat="43.5303408" lon="10.8281856"><ele>173.33333333333331</ele><time>2026-04-18T07:28:30.523Z</time></trkpt><trkpt lat="43.5302859" lon="10.828122"><ele>172.0</ele><time>2026-04-18T07:28:31.507Z</time></trkpt><trkpt lat="43.5302317" lon="10.8280685"><ele>170.66666666666666</ele><time>2026-04-18T07:28:32.511Z</time></trkpt><trkpt lat="43.5301433" lon="10.8279699"><ele>169.33333333333334</ele><time>2026-04-18T07:28:34.512Z</time></trkpt><trkpt lat="43.5300979" lon="10.827889"><ele>168.0</ele><time>2026-04-18T07:28:36.492Z</time></trkpt><trkpt lat="43.5300633" lon="10.8278154"><ele>168.0</ele><time>2026-04-18T07:28:43.501Z</time></trkpt><trkpt lat="43.5300406" lon="10.8277228"><ele>168.0</ele><time>2026-04-18T07:29:02.494Z</time></trkpt><trkpt lat="43.5299822" lon="10.8276229"><ele>168.0</ele><time>2026-04-18T07:29:06.51Z</time></trkpt><trkpt lat="43.5299495" lon="10.8275291"><ele>168.0</ele><time>2026-04-18T07:29:09.501Z</time></trkpt><trkpt lat="43.5298976" lon="10.827436"><ele>168.0</ele><time>2026-04-18T07:29:12.494Z</time></trkpt><trkpt lat="43.5298246" lon="10.8273715"><ele>168.0</ele><time>2026-04-18T07:29:16.531Z</time></trkpt><trkpt lat="43.5297716" lon="10.8272995"><ele>168.0</ele><time>2026-04-18T07:29:21.504Z</time></trkpt><trkpt lat="43.5297293" lon="10.8272151"><ele>168.0</ele><time>2026-04-18T07:29:24.544Z</time></trkpt><trkpt lat="43.5296918" lon="10.827127"><ele>168.0</ele><time>2026-04-18T07:29:27.5Z</time></trkpt><trkpt lat="43.5296579" lon="10.8270446"><ele>168.0</ele><time>2026-04-18T07:29:30.505Z</time></trkpt><trkpt lat="43.5296105" lon="10.8269698"><ele>168.0</ele><time>2026-04-18T07:29:32.497Z</time></trkpt><trkpt lat="43.5295636" lon="10.8268942"><ele>168.0</ele><time>2026-04-18T07:29:37.502Z</time></trkpt><trkpt lat="43.5295013" lon="10.8268141"><ele>168.0</ele><time>2026-04-18T07:29:42.518Z</time></trkpt><trkpt lat="43.5294582" lon="10.8267484"><ele>165.83333333333334</ele><time>2026-04-18T07:29:44.509Z</time></trkpt><trkpt lat="43.5294198" lon="10.8266753"><ele>163.66666666666666</ele><time>2026-04-18T07:29:46.495Z</time></trkpt><trkpt lat="43.5293682" lon="10.8265658"><ele>161.5</ele><time>2026-04-18T07:29:49.503Z</time></trkpt><trkpt lat="43.5293251" lon="10.8264811"><ele>159.33333333333331</ele><time>2026-04-18T07:29:51.492Z</time></trkpt><trkpt lat="43.5292823" lon="10.8263613"><ele>157.16666666666666</ele><time>2026-04-18T07:29:53.49Z</time></trkpt><trkpt lat="43.5292348" lon="10.8262541"><ele>155.0</ele><time>2026-04-18T07:29:55.496Z</time></trkpt><trkpt lat="43.529187" lon="10.8261635"><ele>155.0</ele><time>2026-04-18T07:29:57.497Z</time></trkpt><trkpt lat="43.5291398" lon="10.8260644"><ele>155.0</ele><time>2026-04-18T07:29:59.499Z</time></trkpt><trkpt lat="43.5290815" lon="10.8259443"><ele>155.0</ele><time>2026-04-18T07:30:01.492Z</time></trkpt><trkpt lat="43.5290221" lon="10.8258242"><ele>155.0</ele><time>2026-04-18T07:30:03.489Z</time></trkpt><trkpt lat="43.528968" lon="10.8256878"><ele>155.0</ele><time>2026-04-18T07:30:05.493Z</time></trkpt><trkpt lat="43.5289265" lon="10.825551"><ele>152.6</ele><time>2026-04-18T07:30:07.503Z</time></trkpt><trkpt lat="43.5288841" lon="10.8254134"><ele>150.2</ele><time>2026-04-18T07:30:09.503Z</time></trkpt><trkpt lat="43.5288428" lon="10.8252946"><ele>147.8</ele><time>2026-04-18T07:30:11.505Z</time></trkpt><trkpt lat="43.5288159" lon="10.8251663"><ele>145.4</ele><time>2026-04-18T07:30:13.504Z</time></trkpt><trkpt lat="43.5287869" lon="10.8250471"><ele>143.0</ele><time>2026-04-18T07:30:15.504Z</time></trkpt><trkpt lat="43.5287678" lon="10.8249625"><ele>142.14285714285714</ele><time>2026-04-18T07:30:17.5Z</time></trkpt><trkpt lat="43.5287548" lon="10.824877"><ele>141.28571428571428</ele><time>2026-04-18T07:30:19.508Z</time></trkpt><trkpt lat="43.5287288" lon="10.8247866"><ele>140.42857142857144</ele><time>2026-04-18T07:30:21.505Z</time></trkpt><trkpt lat="43.5287027" lon="10.8247003"><ele>139.57142857142856</ele><time>2026-04-18T07:30:23.501Z</time></trkpt><trkpt lat="43.5286788" lon="10.8246084"><ele>138.71428571428572</ele><time>2026-04-18T07:30:25.503Z</time></trkpt><trkpt lat="43.5286504" lon="10.8244897"><ele>137.85714285714286</ele><time>2026-04-18T07:30:27.5Z</time></trkpt><trkpt lat="43.5286295" lon="10.8244009"><ele>137.0</ele><time>2026-04-18T07:30:30.498Z</time></trkpt><trkpt lat="43.5286032" lon="10.8242975"><ele>136.85714285714286</ele><time>2026-04-18T07:30:34.51Z</time></trkpt><trkpt lat="43.5285784" lon="10.8242051"><ele>136.71428571428572</ele><time>2026-04-18T07:30:37.507Z</time></trkpt><trkpt lat="43.5285538" lon="10.8241083"><ele>136.57142857142856</ele><time>2026-04-18T07:30:40.503Z</time></trkpt><trkpt lat="43.5285132" lon="10.824023"><ele>136.42857142857144</ele><time>2026-04-18T07:30:43.505Z</time></trkpt><trkpt lat="43.5284866" lon="10.8239334"><ele>136.28571428571428</ele><time>2026-04-18T07:30:47.512Z</time></trkpt><trkpt lat="43.5284487" lon="10.8238388"><ele>136.14285714285714</ele><time>2026-04-18T07:30:50.507Z</time></trkpt><trkpt lat="43.528417" lon="10.8237621"><ele>136.0</ele><time>2026-04-18T07:30:52.508Z</time></trkpt><trkpt lat="43.5283721" lon="10.8236488"><ele>136.0</ele><time>2026-04-18T07:30:55.498Z</time></trkpt><trkpt lat="43.5283425" lon="10.8235578"><ele>136.0</ele><time>2026-04-18T07:30:58.503Z</time></trkpt><trkpt lat="43.528289" lon="10.8234132"><ele>136.0</ele><time>2026-04-18T07:31:01.492Z</time></trkpt><trkpt lat="43.5282479" lon="10.8233199"><ele>136.0</ele><time>2026-04-18T07:31:03.509Z</time></trkpt><trkpt lat="43.5282089" lon="10.823218"><ele>136.0</ele><time>2026-04-18T07:31:05.503Z</time></trkpt><trkpt lat="43.5281506" lon="10.8230932"><ele>134.6</ele><time>2026-04-18T07:31:07.506Z</time></trkpt><trkpt lat="43.5280962" lon="10.8229677"><ele>133.2</ele><time>2026-04-18T07:31:09.507Z</time></trkpt><trkpt lat="43.5280376" lon="10.8228556"><ele>131.8</ele><time>2026-04-18T07:31:11.505Z</time></trkpt><trkpt lat="43.5279897" lon="10.8227458"><ele>130.4</ele><time>2026-04-18T07:31:13.502Z</time></trkpt><trkpt lat="43.5279525" lon="10.8226393"><ele>129.0</ele><time>2026-04-18T07:31:15.506Z</time></trkpt><trkpt lat="43.5279025" lon="10.8225278"><ele>127.2</ele><time>2026-04-18T07:31:17.507Z</time></trkpt><trkpt lat="43.5278633" lon="10.8224106"><ele>125.4</ele><time>2026-04-18T07:31:19.498Z</time></trkpt><trkpt lat="43.5278626" lon="10.8222817"><ele>123.6</ele><time>2026-04-18T07:31:21.505Z</time></trkpt><trkpt lat="43.5279104" lon="10.8221686"><ele>121.8</ele><time>2026-04-18T07:31:23.496Z</time></trkpt><trkpt lat="43.5279619" lon="10.8220299"><ele>120.0</ele><time>2026-04-18T07:31:25.504Z</time></trkpt><trkpt lat="43.5279842" lon="10.8219449"><ele>120.0</ele><time>2026-04-18T07:31:26.504Z</time></trkpt><trkpt lat="43.5279961" lon="10.821836"><ele>120.0</ele><time>2026-04-18T07:31:27.5Z</time></trkpt><trkpt lat="43.5280028" lon="10.8217192"><ele>120.0</ele><time>2026-04-18T07:31:28.509Z</time></trkpt><trkpt lat="43.5280001" lon="10.8215976"><ele>120.0</ele><time>2026-04-18T07:31:29.508Z</time></trkpt><trkpt lat="43.5279858" lon="10.8214623"><ele>120.0</ele><time>2026-04-18T07:31:30.504Z</time></trkpt><trkpt lat="43.5279692" lon="10.8213149"><ele>118.4</ele><time>2026-04-18T07:31:31.503Z</time></trkpt><trkpt lat="43.5279425" lon="10.8211634"><ele>116.8</ele><time>2026-04-18T07:31:32.503Z</time></trkpt><trkpt lat="43.5279227" lon="10.8210222"><ele>115.19999999999999</ele><time>2026-04-18T07:31:33.504Z</time></trkpt><trkpt lat="43.5279061" lon="10.8208852"><ele>113.6</ele><time>2026-04-18T07:31:34.504Z</time></trkpt><trkpt lat="43.5278922" lon="10.8207699"><ele>112.0</ele><time>2026-04-18T07:31:35.508Z</time></trkpt><trkpt lat="43.5278716" lon="10.8206648"><ele>111.6</ele><time>2026-04-18T07:31:36.5Z</time></trkpt><trkpt lat="43.5278305" lon="10.820577"><ele>111.19999999999999</ele><time>2026-04-18T07:31:37.58Z</time></trkpt><trkpt lat="43.5277715" lon="10.8205149"><ele>110.8</ele><time>2026-04-18T07:31:38.546Z</time></trkpt><trkpt lat="43.5276747" lon="10.8204575"><ele>110.4</ele><time>2026-04-18T07:31:39.547Z</time></trkpt><trkpt lat="43.5275811" lon="10.8204192"><ele>110.0</ele><time>2026-04-18T07:31:40.547Z</time></trkpt><trkpt lat="43.5274789" lon="10.8203847"><ele>110.0</ele><time>2026-04-18T07:31:41.544Z</time></trkpt><trkpt lat="43.5273809" lon="10.8203712"><ele>110.0</ele><time>2026-04-18T07:31:42.542Z</time></trkpt><trkpt lat="43.5272877" lon="10.8203518"><ele>110.0</ele><time>2026-04-18T07:31:43.535Z</time></trkpt><trkpt lat="43.5272024" lon="10.8203226"><ele>110.0</ele><time>2026-04-18T07:31:44.539Z</time></trkpt><trkpt lat="43.5271255" lon="10.8202721"><ele>110.0</ele><time>2026-04-18T07:31:45.541Z</time></trkpt><trkpt lat="43.5270617" lon="10.8201861"><ele>107.16666666666666</ele><time>2026-04-18T07:31:46.552Z</time></trkpt><trkpt lat="43.527013" lon="10.8200762"><ele>104.33333333333333</ele><time>2026-04-18T07:31:47.553Z</time></trkpt><trkpt lat="43.52699" lon="10.8199565"><ele>101.5</ele><time>2026-04-18T07:31:48.56Z</time></trkpt><trkpt lat="43.5270013" lon="10.8198406"><ele>98.66666666666666</ele><time>2026-04-18T07:31:49.546Z</time></trkpt><trkpt lat="43.5270141" lon="10.8197194"><ele>95.83333333333333</ele><time>2026-04-18T07:31:50.536Z</time></trkpt><trkpt lat="43.5270176" lon="10.8195923"><ele>93.0</ele><time>2026-04-18T07:31:51.546Z</time></trkpt><trkpt lat="43.5270333" lon="10.8194607"><ele>93.0</ele><time>2026-04-18T07:31:52.536Z</time></trkpt><trkpt lat="43.5270311" lon="10.8193322"><ele>93.0</ele><time>2026-04-18T07:31:53.541Z</time></trkpt><trkpt lat="43.5270311" lon="10.8191992"><ele>93.0</ele><time>2026-04-18T07:31:54.532Z</time></trkpt><trkpt lat="43.5270149" lon="10.8190697"><ele>93.0</ele><time>2026-04-18T07:31:55.553Z</time></trkpt><trkpt lat="43.526971" lon="10.8189442"><ele>93.0</ele><time>2026-04-18T07:31:56.547Z</time></trkpt><trkpt lat="43.5269115" lon="10.8188318"><ele>92.2</ele><time>2026-04-18T07:31:57.551Z</time></trkpt><trkpt lat="43.5268522" lon="10.8187309"><ele>91.4</ele><time>2026-04-18T07:31:58.54Z</time></trkpt><trkpt lat="43.5268036" lon="10.8186576"><ele>90.60000000000001</ele><time>2026-04-18T07:31:59.557Z</time></trkpt><trkpt lat="43.5267668" lon="10.8185189"><ele>89.80000000000001</ele><time>2026-04-18T07:32:01.547Z</time></trkpt><trkpt lat="43.5268331" lon="10.8183811"><ele>89.0</ele><time>2026-04-18T07:32:03.547Z</time></trkpt><trkpt lat="43.526889" lon="10.8182834"><ele>89.0</ele><time>2026-04-18T07:32:04.541Z</time></trkpt><trkpt lat="43.5269529" lon="10.8181814"><ele>89.0</ele><time>2026-04-18T07:32:05.547Z</time></trkpt><trkpt lat="43.5270142" lon="10.818068"><ele>89.0</ele><time>2026-04-18T07:32:06.544Z</time></trkpt><trkpt lat="43.527083" lon="10.8179587"><ele>89.0</ele><time>2026-04-18T07:32:07.53Z</time></trkpt><trkpt lat="43.527134" lon="10.8178465"><ele>89.0</ele><time>2026-04-18T07:32:08.542Z</time></trkpt><trkpt lat="43.5271924" lon="10.8177214"><ele>88.16666666666667</ele><time>2026-04-18T07:32:09.565Z</time></trkpt><trkpt lat="43.5272536" lon="10.8176103"><ele>87.33333333333334</ele><time>2026-04-18T07:32:10.539Z</time></trkpt><trkpt lat="43.5273066" lon="10.8175157"><ele>86.5</ele><time>2026-04-18T07:32:11.54Z</time></trkpt><trkpt lat="43.5273556" lon="10.8174286"><ele>85.66666666666667</ele><time>2026-04-18T07:32:12.543Z</time></trkpt><trkpt lat="43.5274223" lon="10.8173515"><ele>84.83333333333333</ele><time>2026-04-18T07:32:13.551Z</time></trkpt><trkpt lat="43.5274814" lon="10.8172875"><ele>84.0</ele><time>2026-04-18T07:32:14.554Z</time></trkpt><trkpt lat="43.5275594" lon="10.8172299"><ele>84.0</ele><time>2026-04-18T07:32:15.559Z</time></trkpt><trkpt lat="43.5276334" lon="10.8171743"><ele>84.0</ele><time>2026-04-18T07:32:16.555Z</time></trkpt><trkpt lat="43.5276931" lon="10.8170912"><ele>84.0</ele><time>2026-04-18T07:32:17.544Z</time></trkpt><trkpt lat="43.5277236" lon="10.8169937"><ele>84.0</ele><time>2026-04-18T07:32:18.551Z</time></trkpt><trkpt lat="43.52775" lon="10.8168923"><ele>84.0</ele><time>2026-04-18T07:32:19.546Z</time></trkpt><trkpt lat="43.5277759" lon="10.8167838"><ele>84.0</ele><time>2026-04-18T07:32:20.559Z</time></trkpt><trkpt lat="43.52781" lon="10.8166643"><ele>84.2</ele><time>2026-04-18T07:32:21.547Z</time></trkpt><trkpt lat="43.5278445" lon="10.8165472"><ele>84.4</ele><time>2026-04-18T07:32:22.551Z</time></trkpt><trkpt lat="43.5278915" lon="10.8164275"><ele>84.6</ele><time>2026-04-18T07:32:23.541Z</time></trkpt><trkpt lat="43.5279428" lon="10.8163046"><ele>84.8</ele><time>2026-04-18T07:32:24.543Z</time></trkpt><trkpt lat="43.5279816" lon="10.8161861"><ele>85.0</ele><time>2026-04-18T07:32:25.538Z</time></trkpt><trkpt lat="43.5280318" lon="10.8160776"><ele>85.83333333333333</ele><time>2026-04-18T07:32:26.554Z</time></trkpt><trkpt lat="43.5280968" lon="10.8159995"><ele>86.66666666666666</ele><time>2026-04-18T07:32:27.538Z</time></trkpt><trkpt lat="43.5281719" lon="10.8159501"><ele>87.5</ele><time>2026-04-18T07:32:28.549Z</time></trkpt><trkpt lat="43.5282365" lon="10.8159424"><ele>88.33333333333333</ele><time>2026-04-18T07:32:29.535Z</time></trkpt><trkpt lat="43.5283578" lon="10.8159865"><ele>89.16666666666667</ele><time>2026-04-18T07:32:31.542Z</time></trkpt><trkpt lat="43.5284269" lon="10.8160032"><ele>90.0</ele><time>2026-04-18T07:32:32.543Z</time></trkpt><trkpt lat="43.5284984" lon="10.8160208"><ele>90.0</ele><time>2026-04-18T07:32:33.53Z</time></trkpt><trkpt lat="43.5285742" lon="10.8160301"><ele>90.0</ele><time>2026-04-18T07:32:34.531Z</time></trkpt><trkpt lat="43.5286506" lon="10.8160439"><ele>90.0</ele><time>2026-04-18T07:32:35.54Z</time></trkpt><trkpt lat="43.5287312" lon="10.8160603"><ele>90.0</ele><time>2026-04-18T07:32:36.539Z</time></trkpt><trkpt lat="43.5288169" lon="10.8160662"><ele>90.0</ele><time>2026-04-18T07:32:37.534Z</time></trkpt><trkpt lat="43.5289079" lon="10.8160527"><ele>90.0</ele><time>2026-04-18T07:32:38.539Z</time></trkpt><trkpt lat="43.5289928" lon="10.8160258"><ele>91.5</ele><time>2026-04-18T07:32:39.547Z</time></trkpt><trkpt lat="43.5290753" lon="10.8159938"><ele>93.0</ele><time>2026-04-18T07:32:40.551Z</time></trkpt><trkpt lat="43.5291535" lon="10.815953"><ele>94.5</ele><time>2026-04-18T07:32:41.552Z</time></trkpt><trkpt lat="43.5292337" lon="10.8159135"><ele>96.0</ele><time>2026-04-18T07:32:42.542Z</time></trkpt><trkpt lat="43.5293104" lon="10.8158774"><ele>97.5</ele><time>2026-04-18T07:32:43.54Z</time></trkpt><trkpt lat="43.5293841" lon="10.8158462"><ele>99.0</ele><time>2026-04-18T07:32:44.544Z</time></trkpt><trkpt lat="43.5294578" lon="10.8158224"><ele>102.16666666666667</ele><time>2026-04-18T07:32:45.539Z</time></trkpt><trkpt lat="43.5295538" lon="10.8157585"><ele>105.33333333333334</ele><time>2026-04-18T07:32:46.5Z</time></trkpt><trkpt lat="43.5296182" lon="10.8157385"><ele>108.5</ele><time>2026-04-18T07:32:47.494Z</time></trkpt><trkpt lat="43.5296873" lon="10.8157134"><ele>111.66666666666667</ele><time>2026-04-18T07:32:48.5Z</time></trkpt><trkpt lat="43.5297508" lon="10.815694"><ele>114.83333333333334</ele><time>2026-04-18T07:32:49.491Z</time></trkpt><trkpt lat="43.5298693" lon="10.8156642"><ele>118.0</ele><time>2026-04-18T07:32:51.489Z</time></trkpt><trkpt lat="43.5299837" lon="10.8156461"><ele>119.00000000000001</ele><time>2026-04-18T07:32:53.506Z</time></trkpt><trkpt lat="43.5300972" lon="10.8156211"><ele>120.0</ele><time>2026-04-18T07:32:55.497Z</time></trkpt><trkpt lat="43.5301956" lon="10.8156308"><ele>121.0</ele><time>2026-04-18T07:32:57.496Z</time></trkpt><trkpt lat="43.53026" lon="10.8156194"><ele>122.0</ele><time>2026-04-18T07:32:58.499Z</time></trkpt><trkpt lat="43.5303273" lon="10.8156081"><ele>123.00000000000001</ele><time>2026-04-18T07:32:59.497Z</time></trkpt><trkpt lat="43.5303946" lon="10.8155932"><ele>124.0</ele><time>2026-04-18T07:33:00.5Z</time></trkpt><trkpt lat="43.5304589" lon="10.8155801"><ele>124.50000000000001</ele><time>2026-04-18T07:33:01.497Z</time></trkpt><trkpt lat="43.5305244" lon="10.8155581"><ele>125.0</ele><time>2026-04-18T07:33:02.514Z</time></trkpt><trkpt lat="43.5306413" lon="10.8155292"><ele>125.5</ele><time>2026-04-18T07:33:04.497Z</time></trkpt><trkpt lat="43.5307581" lon="10.8155491"><ele>126.0</ele><time>2026-04-18T07:33:06.49Z</time></trkpt><trkpt lat="43.5308193" lon="10.8155849"><ele>126.50000000000001</ele><time>2026-04-18T07:33:07.505Z</time></trkpt><trkpt lat="43.5308883" lon="10.8156084"><ele>127.0</ele><time>2026-04-18T07:33:08.496Z</time></trkpt><trkpt lat="43.5309568" lon="10.8156318"><ele>127.0</ele><time>2026-04-18T07:33:09.509Z</time></trkpt><trkpt lat="43.5310198" lon="10.8156592"><ele>126.99999999999999</ele><time>2026-04-18T07:33:10.499Z</time></trkpt><trkpt lat="43.5311383" lon="10.8157012"><ele>126.99999999999999</ele><time>2026-04-18T07:33:12.504Z</time></trkpt><trkpt lat="43.531244" lon="10.8157499"><ele>127.0</ele><time>2026-04-18T07:33:14.5Z</time></trkpt><trkpt lat="43.5313434" lon="10.8157873"><ele>127.0</ele><time>2026-04-18T07:33:16.504Z</time></trkpt><trkpt lat="43.5314466" lon="10.8158015"><ele>127.83333333333334</ele><time>2026-04-18T07:33:18.501Z</time></trkpt><trkpt lat="43.5315102" lon="10.8157963"><ele>128.66666666666669</ele><time>2026-04-18T07:33:19.503Z</time></trkpt><trkpt lat="43.5315753" lon="10.8157996"><ele>129.5</ele><time>2026-04-18T07:33:20.496Z</time></trkpt><trkpt lat="43.5316396" lon="10.8157915"><ele>130.33333333333334</ele><time>2026-04-18T07:33:21.499Z</time></trkpt><trkpt lat="43.5317611" lon="10.8157938"><ele>131.16666666666666</ele><time>2026-04-18T07:33:23.498Z</time></trkpt><trkpt lat="43.531827" lon="10.8158025"><ele>132.0</ele><time>2026-04-18T07:33:24.482Z</time></trkpt><trkpt lat="43.5318981" lon="10.8158205"><ele>132.0</ele><time>2026-04-18T07:33:25.491Z</time></trkpt><trkpt lat="43.5319672" lon="10.8158518"><ele>132.0</ele><time>2026-04-18T07:33:26.486Z</time></trkpt><trkpt lat="43.5320354" lon="10.8158877"><ele>132.0</ele><time>2026-04-18T07:33:27.487Z</time></trkpt><trkpt lat="43.5321034" lon="10.815951"><ele>132.0</ele><time>2026-04-18T07:33:28.489Z</time></trkpt><trkpt lat="43.5321695" lon="10.8160001"><ele>132.0</ele><time>2026-04-18T07:33:29.485Z</time></trkpt><trkpt lat="43.5322271" lon="10.8160552"><ele>132.0</ele><time>2026-04-18T07:33:30.488Z</time></trkpt><trkpt lat="43.5322928" lon="10.816111"><ele>133.0</ele><time>2026-04-18T07:33:31.498Z</time></trkpt><trkpt lat="43.532357" lon="10.816175"><ele>134.0</ele><time>2026-04-18T07:33:32.499Z</time></trkpt><trkpt lat="43.5324202" lon="10.8162193"><ele>135.0</ele><time>2026-04-18T07:33:33.498Z</time></trkpt><trkpt lat="43.5324906" lon="10.816273"><ele>136.0</ele><time>2026-04-18T07:33:34.492Z</time></trkpt><trkpt lat="43.5325631" lon="10.8163145"><ele>137.0</ele><time>2026-04-18T07:33:35.494Z</time></trkpt><trkpt lat="43.5326442" lon="10.8163529"><ele>138.0</ele><time>2026-04-18T07:33:36.499Z</time></trkpt><trkpt lat="43.5327258" lon="10.8163766"><ele>138.0</ele><time>2026-04-18T07:33:37.493Z</time></trkpt><trkpt lat="43.5327973" lon="10.816403"><ele>138.0</ele><time>2026-04-18T07:33:38.492Z</time></trkpt><trkpt lat="43.5328749" lon="10.8164282"><ele>138.0</ele><time>2026-04-18T07:33:39.494Z</time></trkpt><trkpt lat="43.532947" lon="10.8164598"><ele>138.0</ele><time>2026-04-18T07:33:40.5Z</time></trkpt><trkpt lat="43.5330176" lon="10.8164895"><ele>138.0</ele><time>2026-04-18T07:33:41.496Z</time></trkpt><trkpt lat="43.5330843" lon="10.8165174"><ele>138.0</ele><time>2026-04-18T07:33:42.491Z</time></trkpt><trkpt lat="43.5331525" lon="10.8165375"><ele>138.0</ele><time>2026-04-18T07:33:43.489Z</time></trkpt><trkpt lat="43.5332144" lon="10.8165615"><ele>137.83333333333334</ele><time>2026-04-18T07:33:44.493Z</time></trkpt><trkpt lat="43.5333277" lon="10.8166285"><ele>137.66666666666666</ele><time>2026-04-18T07:33:46.501Z</time></trkpt><trkpt lat="43.5333905" lon="10.8166649"><ele>137.5</ele><time>2026-04-18T07:33:47.496Z</time></trkpt><trkpt lat="43.5334526" lon="10.8166935"><ele>137.33333333333331</ele><time>2026-04-18T07:33:48.495Z</time></trkpt><trkpt lat="43.5335181" lon="10.81672"><ele>137.16666666666666</ele><time>2026-04-18T07:33:49.495Z</time></trkpt><trkpt lat="43.5335904" lon="10.8167274"><ele>137.0</ele><time>2026-04-18T07:33:50.495Z</time></trkpt><trkpt lat="43.5336567" lon="10.8167243"><ele>137.85714285714286</ele><time>2026-04-18T07:33:51.506Z</time></trkpt><trkpt lat="43.5337234" lon="10.816701"><ele>138.71428571428572</ele><time>2026-04-18T07:33:52.5Z</time></trkpt><trkpt lat="43.5337914" lon="10.8166782"><ele>139.57142857142856</ele><time>2026-04-18T07:33:53.492Z</time></trkpt><trkpt lat="43.5338591" lon="10.8166486"><ele>140.42857142857144</ele><time>2026-04-18T07:33:54.505Z</time></trkpt><trkpt lat="43.5339248" lon="10.816624"><ele>141.28571428571428</ele><time>2026-04-18T07:33:55.504Z</time></trkpt><trkpt lat="43.533993" lon="10.8166021"><ele>142.14285714285714</ele><time>2026-04-18T07:33:56.49Z</time></trkpt><trkpt lat="43.534068" lon="10.8165961"><ele>143.0</ele><time>2026-04-18T07:33:57.496Z</time></trkpt><trkpt lat="43.5341414" lon="10.8166005"><ele>143.0</ele><time>2026-04-18T07:33:58.499Z</time></trkpt><trkpt lat="43.5342169" lon="10.8166014"><ele>143.0</ele><time>2026-04-18T07:33:59.492Z</time></trkpt><trkpt lat="43.5342931" lon="10.8165988"><ele>143.0</ele><time>2026-04-18T07:34:00.494Z</time></trkpt><trkpt lat="43.5343698" lon="10.8166016"><ele>143.0</ele><time>2026-04-18T07:34:01.512Z</time></trkpt><trkpt lat="43.5344476" lon="10.816613"><ele>143.0</ele><time>2026-04-18T07:34:02.496Z</time></trkpt><trkpt lat="43.5345229" lon="10.8166222"><ele>143.0</ele><time>2026-04-18T07:34:03.494Z</time></trkpt><trkpt lat="43.5345939" lon="10.8166297"><ele>144.28571428571428</ele><time>2026-04-18T07:34:04.498Z</time></trkpt><trkpt lat="43.5346601" lon="10.8166378"><ele>145.57142857142856</ele><time>2026-04-18T07:34:05.507Z</time></trkpt><trkpt lat="43.5347241" lon="10.8166439"><ele>146.85714285714283</ele><time>2026-04-18T07:34:06.506Z</time></trkpt><trkpt lat="43.5348001" lon="10.8166591"><ele>148.14285714285714</ele><time>2026-04-18T07:34:07.52Z</time></trkpt><trkpt lat="43.5348747" lon="10.8166582"><ele>149.42857142857144</ele><time>2026-04-18T07:34:08.494Z</time></trkpt><trkpt lat="43.5349572" lon="10.8166381"><ele>150.7142857142857</ele><time>2026-04-18T07:34:09.503Z</time></trkpt><trkpt lat="43.5350366" lon="10.816613"><ele>152.0</ele><time>2026-04-18T07:34:10.494Z</time></trkpt><trkpt lat="43.53511" lon="10.8165775"><ele>152.0</ele><time>2026-04-18T07:34:11.505Z</time></trkpt><trkpt lat="43.535174" lon="10.8165365"><ele>152.0</ele><time>2026-04-18T07:34:12.497Z</time></trkpt><trkpt lat="43.5352382" lon="10.8164865"><ele>152.0</ele><time>2026-04-18T07:34:13.494Z</time></trkpt><trkpt lat="43.5352894" lon="10.8164326"><ele>152.0</ele><time>2026-04-18T07:34:14.502Z</time></trkpt><trkpt lat="43.5353886" lon="10.8163427"><ele>152.0</ele><time>2026-04-18T07:34:16.497Z</time></trkpt><trkpt lat="43.5354403" lon="10.8162852"><ele>152.0</ele><time>2026-04-18T07:34:17.504Z</time></trkpt><trkpt lat="43.535504" lon="10.8162311"><ele>154.0</ele><time>2026-04-18T07:34:18.498Z</time></trkpt><trkpt lat="43.5356116" lon="10.8161327"><ele>156.0</ele><time>2026-04-18T07:34:20.497Z</time></trkpt><trkpt lat="43.5356639" lon="10.8160779"><ele>158.0</ele><time>2026-04-18T07:34:21.493Z</time></trkpt><trkpt lat="43.5357184" lon="10.8160283"><ele>160.0</ele><time>2026-04-18T07:34:22.502Z</time></trkpt><trkpt lat="43.5357821" lon="10.8159845"><ele>162.0</ele><time>2026-04-18T07:34:23.487Z</time></trkpt><trkpt lat="43.5358441" lon="10.8159293"><ele>164.0</ele><time>2026-04-18T07:34:24.487Z</time></trkpt><trkpt lat="43.5359081" lon="10.8158791"><ele>163.99999999999997</ele><time>2026-04-18T07:34:25.493Z</time></trkpt><trkpt lat="43.5359673" lon="10.8158378"><ele>164.0</ele><time>2026-04-18T07:34:26.492Z</time></trkpt><trkpt lat="43.5360277" lon="10.815796"><ele>164.0</ele><time>2026-04-18T07:34:27.496Z</time></trkpt><trkpt lat="43.5360924" lon="10.8157722"><ele>164.0</ele><time>2026-04-18T07:34:28.491Z</time></trkpt><trkpt lat="43.5361553" lon="10.8157383"><ele>164.0</ele><time>2026-04-18T07:34:29.508Z</time></trkpt><trkpt lat="43.536226" lon="10.8157152"><ele>163.99999999999997</ele><time>2026-04-18T07:34:30.497Z</time></trkpt><trkpt lat="43.5362986" lon="10.815694"><ele>164.0</ele><time>2026-04-18T07:34:31.496Z</time></trkpt><trkpt lat="43.536368" lon="10.8156722"><ele>165.14285714285714</ele><time>2026-04-18T07:34:32.492Z</time></trkpt><trkpt lat="43.536438" lon="10.8156446"><ele>166.28571428571428</ele><time>2026-04-18T07:34:33.505Z</time></trkpt><trkpt lat="43.5365021" lon="10.8156282"><ele>167.42857142857144</ele><time>2026-04-18T07:34:34.484Z</time></trkpt><trkpt lat="43.5365721" lon="10.8156139"><ele>168.57142857142856</ele><time>2026-04-18T07:34:35.492Z</time></trkpt><trkpt lat="43.5366446" lon="10.8156151"><ele>169.71428571428572</ele><time>2026-04-18T07:34:36.487Z</time></trkpt><trkpt lat="43.5367207" lon="10.8156158"><ele>170.85714285714286</ele><time>2026-04-18T07:34:37.491Z</time></trkpt><trkpt lat="43.5367898" lon="10.8156151"><ele>172.0</ele><time>2026-04-18T07:34:38.489Z</time></trkpt><trkpt lat="43.536915" lon="10.8155893"><ele>172.0</ele><time>2026-04-18T07:34:40.492Z</time></trkpt><trkpt lat="43.5369783" lon="10.815527"><ele>172.0</ele><time>2026-04-18T07:34:41.493Z</time></trkpt><trkpt lat="43.5370295" lon="10.8154355"><ele>172.0</ele><time>2026-04-18T07:34:42.49Z</time></trkpt><trkpt lat="43.5370784" lon="10.8153358"><ele>172.0</ele><time>2026-04-18T07:34:43.481Z</time></trkpt><trkpt lat="43.537109" lon="10.8152242"><ele>172.0</ele><time>2026-04-18T07:34:44.481Z</time></trkpt><trkpt lat="43.5371403" lon="10.8151388"><ele>172.0</ele><time>2026-04-18T07:34:45.491Z</time></trkpt><trkpt lat="43.5371909" lon="10.8150132"><ele>171.16666666666669</ele><time>2026-04-18T07:34:47.497Z</time></trkpt><trkpt lat="43.5372107" lon="10.8149296"><ele>170.33333333333334</ele><time>2026-04-18T07:34:50.495Z</time></trkpt><trkpt lat="43.5372023" lon="10.8148148"><ele>169.5</ele><time>2026-04-18T07:34:52.498Z</time></trkpt><trkpt lat="43.5371716" lon="10.8146902"><ele>168.66666666666666</ele><time>2026-04-18T07:34:54.502Z</time></trkpt><trkpt lat="43.5371469" lon="10.8146077"><ele>167.83333333333331</ele><time>2026-04-18T07:34:55.507Z</time></trkpt><trkpt lat="43.5371242" lon="10.8144298"><ele>167.0</ele><time>2026-04-18T07:34:57.51Z</time></trkpt><trkpt lat="43.5371294" lon="10.8143051"><ele>167.0</ele><time>2026-04-18T07:34:58.499Z</time></trkpt><trkpt lat="43.5371414" lon="10.8141876"><ele>167.0</ele><time>2026-04-18T07:34:59.497Z</time></trkpt><trkpt lat="43.5371831" lon="10.814059"><ele>167.0</ele><time>2026-04-18T07:35:00.501Z</time></trkpt><trkpt lat="43.537226" lon="10.8139492"><ele>167.0</ele><time>2026-04-18T07:35:01.497Z</time></trkpt><trkpt lat="43.5372814" lon="10.8138184"><ele>167.0</ele><time>2026-04-18T07:35:02.504Z</time></trkpt><trkpt lat="43.5373423" lon="10.8136893"><ele>167.0</ele><time>2026-04-18T07:35:03.499Z</time></trkpt><trkpt lat="43.5374092" lon="10.8135679"><ele>167.0</ele><time>2026-04-18T07:35:04.509Z</time></trkpt><trkpt lat="43.5374571" lon="10.8134388"><ele>167.0</ele><time>2026-04-18T07:35:05.491Z</time></trkpt><trkpt lat="43.5374975" lon="10.8133187"><ele>167.0</ele><time>2026-04-18T07:35:06.492Z</time></trkpt><trkpt lat="43.5375079" lon="10.8131941"><ele>167.0</ele><time>2026-04-18T07:35:07.496Z</time></trkpt><trkpt lat="43.5374919" lon="10.8130692"><ele>168.39999999999998</ele><time>2026-04-18T07:35:08.491Z</time></trkpt><trkpt lat="43.5374433" lon="10.8129592"><ele>169.79999999999998</ele><time>2026-04-18T07:35:09.488Z</time></trkpt><trkpt lat="43.5373839" lon="10.8128584"><ele>171.2</ele><time>2026-04-18T07:35:10.492Z</time></trkpt><trkpt lat="43.5373095" lon="10.8127822"><ele>172.6</ele><time>2026-04-18T07:35:11.501Z</time></trkpt><trkpt lat="43.5372271" lon="10.8127218"><ele>174.0</ele><time>2026-04-18T07:35:12.501Z</time></trkpt><trkpt lat="43.5371304" lon="10.8126385"><ele>174.25</ele><time>2026-04-18T07:35:13.508Z</time></trkpt><trkpt lat="43.5370475" lon="10.8125438"><ele>174.5</ele><time>2026-04-18T07:35:14.505Z</time></trkpt><trkpt lat="43.536965" lon="10.8124274"><ele>174.75</ele><time>2026-04-18T07:35:15.504Z</time></trkpt><trkpt lat="43.5368847" lon="10.8122895"><ele>175.0</ele><time>2026-04-18T07:35:16.492Z</time></trkpt><trkpt lat="43.536801" lon="10.812155"><ele>175.0</ele><time>2026-04-18T07:35:17.494Z</time></trkpt><trkpt lat="43.5367282" lon="10.8120091"><ele>175.0</ele><time>2026-04-18T07:35:18.515Z</time></trkpt><trkpt lat="43.5366632" lon="10.8118596"><ele>175.0</ele><time>2026-04-18T07:35:19.494Z</time></trkpt><trkpt lat="43.5365889" lon="10.8117037"><ele>175.0</ele><time>2026-04-18T07:35:20.512Z</time></trkpt><trkpt lat="43.5365274" lon="10.8115515"><ele>173.5</ele><time>2026-04-18T07:35:21.502Z</time></trkpt><trkpt lat="43.5364788" lon="10.8113838"><ele>172.0</ele><time>2026-04-18T07:35:22.497Z</time></trkpt><trkpt lat="43.536454" lon="10.8112092"><ele>170.5</ele><time>2026-04-18T07:35:23.497Z</time></trkpt><trkpt lat="43.5364297" lon="10.8110394"><ele>169.0</ele><time>2026-04-18T07:35:24.503Z</time></trkpt><trkpt lat="43.5364165" lon="10.8108562"><ele>168.5</ele><time>2026-04-18T07:35:25.493Z</time></trkpt><trkpt lat="43.5364092" lon="10.8106713"><ele>168.0</ele><time>2026-04-18T07:35:26.49Z</time></trkpt><trkpt lat="43.5364068" lon="10.810487"><ele>167.5</ele><time>2026-04-18T07:35:27.497Z</time></trkpt><trkpt lat="43.5364074" lon="10.8103128"><ele>167.0</ele><time>2026-04-18T07:35:28.486Z</time></trkpt><trkpt lat="43.5363884" lon="10.8101373"><ele>166.5</ele><time>2026-04-18T07:35:29.503Z</time></trkpt><trkpt lat="43.5363402" lon="10.8099876"><ele>166.0</ele><time>2026-04-18T07:35:30.494Z</time></trkpt><trkpt lat="43.536249" lon="10.8098622"><ele>165.5</ele><time>2026-04-18T07:35:31.495Z</time></trkpt><trkpt lat="43.5361688" lon="10.8097312"><ele>165.0</ele><time>2026-04-18T07:35:32.502Z</time></trkpt><trkpt lat="43.5361005" lon="10.809592"><ele>164.75</ele><time>2026-04-18T07:35:33.492Z</time></trkpt><trkpt lat="43.5360429" lon="10.809452"><ele>164.5</ele><time>2026-04-18T07:35:34.502Z</time></trkpt><trkpt lat="43.5360074" lon="10.8092877"><ele>164.25</ele><time>2026-04-18T07:35:35.497Z</time></trkpt><trkpt lat="43.5359685" lon="10.8091188"><ele>164.0</ele><time>2026-04-18T07:35:36.49Z</time></trkpt><trkpt lat="43.5359341" lon="10.8089471"><ele>164.0</ele><time>2026-04-18T07:35:37.502Z</time></trkpt><trkpt lat="43.5359272" lon="10.8087661"><ele>164.0</ele><time>2026-04-18T07:35:38.507Z</time></trkpt><trkpt lat="43.5359545" lon="10.8085587"><ele>164.0</ele><time>2026-04-18T07:35:39.512Z</time></trkpt><trkpt lat="43.5359934" lon="10.8083538"><ele>164.0</ele><time>2026-04-18T07:35:40.505Z</time></trkpt><trkpt lat="43.5360484" lon="10.8081729"><ele>163.75</ele><time>2026-04-18T07:35:41.518Z</time></trkpt><trkpt lat="43.5360785" lon="10.8079789"><ele>163.5</ele><time>2026-04-18T07:35:42.497Z</time></trkpt><trkpt lat="43.5360922" lon="10.8077822"><ele>163.25</ele><time>2026-04-18T07:35:43.493Z</time></trkpt><trkpt lat="43.536101" lon="10.8075835"><ele>163.0</ele><time>2026-04-18T07:35:44.494Z</time></trkpt><trkpt lat="43.5360888" lon="10.8073928"><ele>163.0</ele><time>2026-04-18T07:35:45.497Z</time></trkpt><trkpt lat="43.5360782" lon="10.8071922"><ele>163.0</ele><time>2026-04-18T07:35:46.506Z</time></trkpt><trkpt lat="43.5360622" lon="10.8069973"><ele>163.0</ele><time>2026-04-18T07:35:47.505Z</time></trkpt><trkpt lat="43.5360261" lon="10.806814"><ele>163.0</ele><time>2026-04-18T07:35:48.506Z</time></trkpt><trkpt lat="43.5359828" lon="10.8066369"><ele>163.25</ele><time>2026-04-18T07:35:49.518Z</time></trkpt><trkpt lat="43.5359419" lon="10.8064643"><ele>163.5</ele><time>2026-04-18T07:35:50.503Z</time></trkpt><trkpt lat="43.5359212" lon="10.8062796"><ele>163.75</ele><time>2026-04-18T07:35:51.494Z</time></trkpt><trkpt lat="43.5359319" lon="10.8061027"><ele>164.0</ele><time>2026-04-18T07:35:52.489Z</time></trkpt><trkpt lat="43.5359714" lon="10.805912"><ele>164.0</ele><time>2026-04-18T07:35:53.485Z</time></trkpt><trkpt lat="43.536009" lon="10.8057187"><ele>164.0</ele><time>2026-04-18T07:35:54.495Z</time></trkpt><trkpt lat="43.5360639" lon="10.8055287"><ele>164.0</ele><time>2026-04-18T07:35:55.493Z</time></trkpt><trkpt lat="43.5361303" lon="10.805341"><ele>164.0</ele><time>2026-04-18T07:35:56.488Z</time></trkpt><trkpt lat="43.5362017" lon="10.8051565"><ele>164.0</ele><time>2026-04-18T07:35:57.496Z</time></trkpt><trkpt lat="43.5362717" lon="10.8049722"><ele>164.0</ele><time>2026-04-18T07:35:58.489Z</time></trkpt><trkpt lat="43.5363362" lon="10.8047782"><ele>164.0</ele><time>2026-04-18T07:35:59.496Z</time></trkpt><trkpt lat="43.5363981" lon="10.8045807"><ele>164.0</ele><time>2026-04-18T07:36:00.494Z</time></trkpt><trkpt lat="43.5364531" lon="10.8043726"><ele>164.0</ele><time>2026-04-18T07:36:01.499Z</time></trkpt><trkpt lat="43.5365044" lon="10.8041477"><ele>164.0</ele><time>2026-04-18T07:36:02.494Z</time></trkpt><trkpt lat="43.5365518" lon="10.8039097"><ele>162.0</ele><time>2026-04-18T07:36:03.498Z</time></trkpt><trkpt lat="43.5365744" lon="10.803674"><ele>160.0</ele><time>2026-04-18T07:36:04.537Z</time></trkpt><trkpt lat="43.536607" lon="10.8034409"><ele>158.0</ele><time>2026-04-18T07:36:05.496Z</time></trkpt><trkpt lat="43.5366302" lon="10.8032211"><ele>157.33333333333331</ele><time>2026-04-18T07:36:06.498Z</time></trkpt><trkpt lat="43.5366529" lon="10.8029983"><ele>156.66666666666666</ele><time>2026-04-18T07:36:07.5Z</time></trkpt><trkpt lat="43.5366645" lon="10.8027724"><ele>156.0</ele><time>2026-04-18T07:36:08.495Z</time></trkpt><trkpt lat="43.5366745" lon="10.8025592"><ele>157.0</ele><time>2026-04-18T07:36:09.504Z</time></trkpt><trkpt lat="43.5366886" lon="10.802362"><ele>158.0</ele><time>2026-04-18T07:36:10.507Z</time></trkpt><trkpt lat="43.5367094" lon="10.8021718"><ele>159.0</ele><time>2026-04-18T07:36:11.527Z</time></trkpt><trkpt lat="43.5367492" lon="10.8019908"><ele>160.0</ele><time>2026-04-18T07:36:12.502Z</time></trkpt><trkpt lat="43.5367999" lon="10.8018054"><ele>161.0</ele><time>2026-04-18T07:36:13.501Z</time></trkpt><trkpt lat="43.5368628" lon="10.8016314"><ele>162.0</ele><time>2026-04-18T07:36:14.501Z</time></trkpt><trkpt lat="43.5369417" lon="10.8014723"><ele>163.0</ele><time>2026-04-18T07:36:15.501Z</time></trkpt><trkpt lat="43.5370318" lon="10.8013497"><ele>164.0</ele><time>2026-04-18T07:36:16.485Z</time></trkpt><trkpt lat="43.5371444" lon="10.8012405"><ele>164.0</ele><time>2026-04-18T07:36:17.495Z</time></trkpt><trkpt lat="43.5372703" lon="10.801136"><ele>164.0</ele><time>2026-04-18T07:36:18.522Z</time></trkpt><trkpt lat="43.5373957" lon="10.8010277"><ele>164.0</ele><time>2026-04-18T07:36:19.5Z</time></trkpt><trkpt lat="43.5374986" lon="10.8009295"><ele>164.0</ele><time>2026-04-18T07:36:20.508Z</time></trkpt><trkpt lat="43.5375926" lon="10.8008291"><ele>163.0</ele><time>2026-04-18T07:36:21.504Z</time></trkpt><trkpt lat="43.5376732" lon="10.8007278"><ele>162.0</ele><time>2026-04-18T07:36:22.495Z</time></trkpt><trkpt lat="43.537771" lon="10.8006136"><ele>161.0</ele><time>2026-04-18T07:36:23.496Z</time></trkpt><trkpt lat="43.5378495" lon="10.8005082"><ele>160.0</ele><time>2026-04-18T07:36:24.498Z</time></trkpt><trkpt lat="43.5379304" lon="10.8003934"><ele>160.0</ele><time>2026-04-18T07:36:25.499Z</time></trkpt><trkpt lat="43.5380117" lon="10.8002619"><ele>160.0</ele><time>2026-04-18T07:36:26.496Z</time></trkpt><trkpt lat="43.5380861" lon="10.8001132"><ele>160.0</ele><time>2026-04-18T07:36:27.498Z</time></trkpt><trkpt lat="43.5381498" lon="10.7999338"><ele>160.0</ele><time>2026-04-18T07:36:28.495Z</time></trkpt><trkpt lat="43.5382205" lon="10.799766"><ele>160.5</ele><time>2026-04-18T07:36:29.495Z</time></trkpt><trkpt lat="43.5382887" lon="10.7995908"><ele>161.0</ele><time>2026-04-18T07:36:30.5Z</time></trkpt><trkpt lat="43.5383697" lon="10.7994189"><ele>161.5</ele><time>2026-04-18T07:36:31.499Z</time></trkpt><trkpt lat="43.5384292" lon="10.79923"><ele>162.0</ele><time>2026-04-18T07:36:32.501Z</time></trkpt><trkpt lat="43.5384791" lon="10.7990496"><ele>162.0</ele><time>2026-04-18T07:36:33.494Z</time></trkpt><trkpt lat="43.5385116" lon="10.798867"><ele>162.0</ele><time>2026-04-18T07:36:34.501Z</time></trkpt><trkpt lat="43.5385027" lon="10.7986741"><ele>162.0</ele><time>2026-04-18T07:36:35.501Z</time></trkpt><trkpt lat="43.5384835" lon="10.7985058"><ele>162.0</ele><time>2026-04-18T07:36:36.494Z</time></trkpt><trkpt lat="43.5384607" lon="10.7983294"><ele>161.5</ele><time>2026-04-18T07:36:37.501Z</time></trkpt><trkpt lat="43.538432" lon="10.7981541"><ele>161.0</ele><time>2026-04-18T07:36:38.5Z</time></trkpt><trkpt lat="43.5384133" lon="10.7979811"><ele>160.5</ele><time>2026-04-18T07:36:39.51Z</time></trkpt><trkpt lat="43.5383928" lon="10.7977919"><ele>160.0</ele><time>2026-04-18T07:36:40.5Z</time></trkpt><trkpt lat="43.5383722" lon="10.7976046"><ele>160.0</ele><time>2026-04-18T07:36:41.507Z</time></trkpt><trkpt lat="43.5383511" lon="10.797424"><ele>160.0</ele><time>2026-04-18T07:36:42.499Z</time></trkpt><trkpt lat="43.5383271" lon="10.7972371"><ele>160.0</ele><time>2026-04-18T07:36:43.493Z</time></trkpt><trkpt lat="43.538299" lon="10.7970536"><ele>160.0</ele><time>2026-04-18T07:36:44.494Z</time></trkpt><trkpt lat="43.5382415" lon="10.7968737"><ele>162.0</ele><time>2026-04-18T07:36:45.492Z</time></trkpt><trkpt lat="43.5381877" lon="10.7966933"><ele>164.0</ele><time>2026-04-18T07:36:46.522Z</time></trkpt><trkpt lat="43.5381419" lon="10.7965228"><ele>166.0</ele><time>2026-04-18T07:36:47.49Z</time></trkpt><trkpt lat="43.5381095" lon="10.7963723"><ele>168.0</ele><time>2026-04-18T07:36:48.499Z</time></trkpt><trkpt lat="43.5380971" lon="10.7962336"><ele>168.0</ele><time>2026-04-18T07:36:49.501Z</time></trkpt><trkpt lat="43.5380977" lon="10.796094"><ele>168.0</ele><time>2026-04-18T07:36:50.504Z</time></trkpt><trkpt lat="43.5381311" lon="10.7959659"><ele>168.0</ele><time>2026-04-18T07:36:51.501Z</time></trkpt><trkpt lat="43.5381648" lon="10.7958572"><ele>168.0</ele><time>2026-04-18T07:36:52.483Z</time></trkpt><trkpt lat="43.5382128" lon="10.7957329"><ele>168.0</ele><time>2026-04-18T07:36:53.501Z</time></trkpt><trkpt lat="43.5382719" lon="10.7956417"><ele>169.4</ele><time>2026-04-18T07:36:54.491Z</time></trkpt><trkpt lat="43.5383436" lon="10.7955587"><ele>170.8</ele><time>2026-04-18T07:36:55.503Z</time></trkpt><trkpt lat="43.5384273" lon="10.7955"><ele>172.2</ele><time>2026-04-18T07:36:56.496Z</time></trkpt><trkpt lat="43.5385211" lon="10.7954458"><ele>173.6</ele><time>2026-04-18T07:36:57.518Z</time></trkpt><trkpt lat="43.5386187" lon="10.7953869"><ele>175.0</ele><time>2026-04-18T07:36:58.491Z</time></trkpt><trkpt lat="43.5387092" lon="10.7953185"><ele>175.8</ele><time>2026-04-18T07:36:59.498Z</time></trkpt><trkpt lat="43.5387951" lon="10.7952415"><ele>176.6</ele><time>2026-04-18T07:37:00.5Z</time></trkpt><trkpt lat="43.5388599" lon="10.7951585"><ele>177.39999999999998</ele><time>2026-04-18T07:37:01.493Z</time></trkpt><trkpt lat="43.5389094" lon="10.7950502"><ele>178.2</ele><time>2026-04-18T07:37:02.498Z</time></trkpt><trkpt lat="43.5389342" lon="10.7949125"><ele>179.0</ele><time>2026-04-18T07:37:03.497Z</time></trkpt><trkpt lat="43.5389481" lon="10.7947769"><ele>179.0</ele><time>2026-04-18T07:37:04.497Z</time></trkpt><trkpt lat="43.5389513" lon="10.7946608"><ele>179.0</ele><time>2026-04-18T07:37:05.503Z</time></trkpt><trkpt lat="43.5389554" lon="10.7945433"><ele>179.0</ele><time>2026-04-18T07:37:06.505Z</time></trkpt><trkpt lat="43.5389708" lon="10.7944317"><ele>179.0</ele><time>2026-04-18T07:37:07.497Z</time></trkpt><trkpt lat="43.5389864" lon="10.7943219"><ele>179.0</ele><time>2026-04-18T07:37:08.495Z</time></trkpt><trkpt lat="43.5390057" lon="10.7942251"><ele>179.0</ele><time>2026-04-18T07:37:09.493Z</time></trkpt><trkpt lat="43.5390393" lon="10.7941296"><ele>179.16666666666666</ele><time>2026-04-18T07:37:10.491Z</time></trkpt><trkpt lat="43.5390829" lon="10.7940624"><ele>179.33333333333331</ele><time>2026-04-18T07:37:11.491Z</time></trkpt><trkpt lat="43.5391533" lon="10.7939855"><ele>179.5</ele><time>2026-04-18T07:37:12.493Z</time></trkpt><trkpt lat="43.5392254" lon="10.7939075"><ele>179.66666666666666</ele><time>2026-04-18T07:37:13.491Z</time></trkpt><trkpt lat="43.5393059" lon="10.7938386"><ele>179.83333333333334</ele><time>2026-04-18T07:37:14.499Z</time></trkpt><trkpt lat="43.5393554" lon="10.7937732"><ele>180.0</ele><time>2026-04-18T07:37:15.496Z</time></trkpt><trkpt lat="43.5394101" lon="10.7937027"><ele>180.0</ele><time>2026-04-18T07:37:16.494Z</time></trkpt><trkpt lat="43.5394925" lon="10.7935969"><ele>180.0</ele><time>2026-04-18T07:37:18.502Z</time></trkpt><trkpt lat="43.5395306" lon="10.7934609"><ele>180.0</ele><time>2026-04-18T07:37:20.504Z</time></trkpt><trkpt lat="43.5395399" lon="10.7933664"><ele>180.0</ele><time>2026-04-18T07:37:21.488Z</time></trkpt><trkpt lat="43.539546" lon="10.7932781"><ele>180.0</ele><time>2026-04-18T07:37:22.489Z</time></trkpt><trkpt lat="43.5395521" lon="10.793141"><ele>180.16666666666666</ele><time>2026-04-18T07:37:24.494Z</time></trkpt><trkpt lat="43.5395642" lon="10.7930314"><ele>180.33333333333334</ele><time>2026-04-18T07:37:26.492Z</time></trkpt><trkpt lat="43.5395349" lon="10.7929319"><ele>180.5</ele><time>2026-04-18T07:37:28.497Z</time></trkpt><trkpt lat="43.5395131" lon="10.7928107"><ele>180.66666666666669</ele><time>2026-04-18T07:37:30.495Z</time></trkpt><trkpt lat="43.5394851" lon="10.7927109"><ele>180.83333333333334</ele><time>2026-04-18T07:37:31.488Z</time></trkpt><trkpt lat="43.5394465" lon="10.7925955"><ele>181.0</ele><time>2026-04-18T07:37:32.501Z</time></trkpt><trkpt lat="43.5394093" lon="10.7924961"><ele>181.0</ele><time>2026-04-18T07:37:33.485Z</time></trkpt><trkpt lat="43.5393595" lon="10.7923952"><ele>181.0</ele><time>2026-04-18T07:37:34.494Z</time></trkpt><trkpt lat="43.5393121" lon="10.7922832"><ele>181.0</ele><time>2026-04-18T07:37:35.491Z</time></trkpt><trkpt lat="43.539264" lon="10.7921602"><ele>181.0</ele><time>2026-04-18T07:37:36.488Z</time></trkpt><trkpt lat="43.5392153" lon="10.7920369"><ele>181.0</ele><time>2026-04-18T07:37:37.492Z</time></trkpt><trkpt lat="43.5391671" lon="10.7919176"><ele>182.4</ele><time>2026-04-18T07:37:38.486Z</time></trkpt><trkpt lat="43.5391255" lon="10.7918193"><ele>183.8</ele><time>2026-04-18T07:37:39.491Z</time></trkpt><trkpt lat="43.5390987" lon="10.7917357"><ele>185.20000000000002</ele><time>2026-04-18T07:37:40.495Z</time></trkpt><trkpt lat="43.5390094" lon="10.791606"><ele>186.60000000000002</ele><time>2026-04-18T07:37:42.493Z</time></trkpt><trkpt lat="43.5389412" lon="10.7915127"><ele>188.0</ele><time>2026-04-18T07:37:43.49Z</time></trkpt><trkpt lat="43.5388837" lon="10.79142"><ele>188.0</ele><time>2026-04-18T07:37:44.493Z</time></trkpt><trkpt lat="43.5388272" lon="10.7913163"><ele>188.0</ele><time>2026-04-18T07:37:45.486Z</time></trkpt><trkpt lat="43.5387608" lon="10.7912141"><ele>188.0</ele><time>2026-04-18T07:37:46.487Z</time></trkpt><trkpt lat="43.5387035" lon="10.7911179"><ele>188.0</ele><time>2026-04-18T07:37:47.498Z</time></trkpt><trkpt lat="43.5386404" lon="10.7910367"><ele>188.0</ele><time>2026-04-18T07:37:48.491Z</time></trkpt><trkpt lat="43.5386028" lon="10.7909668"><ele>188.0</ele><time>2026-04-18T07:37:49.487Z</time></trkpt><trkpt lat="43.5385277" lon="10.7908663"><ele>186.2</ele><time>2026-04-18T07:37:51.49Z</time></trkpt><trkpt lat="43.5384462" lon="10.7907896"><ele>184.4</ele><time>2026-04-18T07:37:53.487Z</time></trkpt><trkpt lat="43.5383266" lon="10.7907111"><ele>182.6</ele><time>2026-04-18T07:37:55.499Z</time></trkpt><trkpt lat="43.5382495" lon="10.790661"><ele>180.79999999999998</ele><time>2026-04-18T07:37:56.485Z</time></trkpt><trkpt lat="43.5381609" lon="10.7906336"><ele>179.0</ele><time>2026-04-18T07:37:57.495Z</time></trkpt><trkpt lat="43.5380762" lon="10.7906171"><ele>179.0</ele><time>2026-04-18T07:37:58.485Z</time></trkpt><trkpt lat="43.5379844" lon="10.7905974"><ele>179.0</ele><time>2026-04-18T07:37:59.493Z</time></trkpt><trkpt lat="43.5378817" lon="10.7905933"><ele>179.0</ele><time>2026-04-18T07:38:00.502Z</time></trkpt><trkpt lat="43.5377811" lon="10.7906028"><ele>179.0</ele><time>2026-04-18T07:38:01.509Z</time></trkpt><trkpt lat="43.5376672" lon="10.7906155"><ele>179.0</ele><time>2026-04-18T07:38:02.502Z</time></trkpt><trkpt lat="43.5375668" lon="10.7906384"><ele>179.0</ele><time>2026-04-18T07:38:03.493Z</time></trkpt><trkpt lat="43.537461" lon="10.7906686"><ele>179.0</ele><time>2026-04-18T07:38:04.506Z</time></trkpt><trkpt lat="43.537348" lon="10.7907128"><ele>179.0</ele><time>2026-04-18T07:38:05.497Z</time></trkpt><trkpt lat="43.5372434" lon="10.7907565"><ele>179.0</ele><time>2026-04-18T07:38:06.494Z</time></trkpt><trkpt lat="43.5371396" lon="10.7907914"><ele>179.0</ele><time>2026-04-18T07:38:07.506Z</time></trkpt><trkpt lat="43.5370461" lon="10.7908092"><ele>179.0</ele><time>2026-04-18T07:38:08.503Z</time></trkpt><trkpt lat="43.5369395" lon="10.7908213"><ele>179.0</ele><time>2026-04-18T07:38:09.494Z</time></trkpt><trkpt lat="43.5368331" lon="10.790801"><ele>179.0</ele><time>2026-04-18T07:38:10.516Z</time></trkpt><trkpt lat="43.5367316" lon="10.7907877"><ele>179.0</ele><time>2026-04-18T07:38:11.495Z</time></trkpt><trkpt lat="43.5366242" lon="10.7907825"><ele>179.0</ele><time>2026-04-18T07:38:12.496Z</time></trkpt><trkpt lat="43.5365314" lon="10.7907879"><ele>179.0</ele><time>2026-04-18T07:38:13.492Z</time></trkpt><trkpt lat="43.5364476" lon="10.7908058"><ele>179.0</ele><time>2026-04-18T07:38:14.486Z</time></trkpt><trkpt lat="43.5363645" lon="10.7908185"><ele>179.0</ele><time>2026-04-18T07:38:15.497Z</time></trkpt><trkpt lat="43.536297" lon="10.7908359"><ele>179.0</ele><time>2026-04-18T07:38:16.49Z</time></trkpt><trkpt lat="43.5362297" lon="10.790849"><ele>179.0</ele><time>2026-04-18T07:38:17.531Z</time></trkpt><trkpt lat="43.5361579" lon="10.7908543"><ele>179.0</ele><time>2026-04-18T07:38:18.495Z</time></trkpt><trkpt lat="43.5360235" lon="10.7908362"><ele>178.79999999999998</ele><time>2026-04-18T07:38:20.497Z</time></trkpt><trkpt lat="43.535949" lon="10.7908126"><ele>178.6</ele><time>2026-04-18T07:38:21.496Z</time></trkpt><trkpt lat="43.5358742" lon="10.7907644"><ele>178.4</ele><time>2026-04-18T07:38:22.493Z</time></trkpt><trkpt lat="43.5357927" lon="10.7907138"><ele>178.2</ele><time>2026-04-18T07:38:23.504Z</time></trkpt><trkpt lat="43.535707" lon="10.7906464"><ele>178.0</ele><time>2026-04-18T07:38:24.494Z</time></trkpt><trkpt lat="43.5356082" lon="10.7905592"><ele>178.0</ele><time>2026-04-18T07:38:25.493Z</time></trkpt><trkpt lat="43.5354959" lon="10.7904445"><ele>178.0</ele><time>2026-04-18T07:38:26.492Z</time></trkpt><trkpt lat="43.5353757" lon="10.7903404"><ele>178.0</ele><time>2026-04-18T07:38:27.488Z</time></trkpt><trkpt lat="43.5352581" lon="10.7902416"><ele>178.0</ele><time>2026-04-18T07:38:28.51Z</time></trkpt><trkpt lat="43.5351419" lon="10.7901628"><ele>176.25</ele><time>2026-04-18T07:38:29.498Z</time></trkpt><trkpt lat="43.5350395" lon="10.7900765"><ele>174.5</ele><time>2026-04-18T07:38:30.494Z</time></trkpt><trkpt lat="43.5349355" lon="10.7899946"><ele>172.75</ele><time>2026-04-18T07:38:31.494Z</time></trkpt><trkpt lat="43.5348242" lon="10.7899023"><ele>171.0</ele><time>2026-04-18T07:38:32.5Z</time></trkpt><trkpt lat="43.5346976" lon="10.7898034"><ele>171.0</ele><time>2026-04-18T07:38:33.494Z</time></trkpt><trkpt lat="43.5345696" lon="10.7897103"><ele>171.0</ele><time>2026-04-18T07:38:34.487Z</time></trkpt><trkpt lat="43.5344485" lon="10.7896348"><ele>171.0</ele><time>2026-04-18T07:38:35.502Z</time></trkpt><trkpt lat="43.5343324" lon="10.7895588"><ele>171.0</ele><time>2026-04-18T07:38:36.498Z</time></trkpt><trkpt lat="43.5342205" lon="10.7894854"><ele>170.75</ele><time>2026-04-18T07:38:37.508Z</time></trkpt><trkpt lat="43.534101" lon="10.7894174"><ele>170.5</ele><time>2026-04-18T07:38:38.503Z</time></trkpt><trkpt lat="43.5339792" lon="10.7893536"><ele>170.25</ele><time>2026-04-18T07:38:39.501Z</time></trkpt><trkpt lat="43.5338501" lon="10.7892728"><ele>170.0</ele><time>2026-04-18T07:38:40.504Z</time></trkpt><trkpt lat="43.5337192" lon="10.7891941"><ele>168.0</ele><time>2026-04-18T07:38:41.497Z</time></trkpt><trkpt lat="43.5335859" lon="10.7891187"><ele>166.0</ele><time>2026-04-18T07:38:42.502Z</time></trkpt><trkpt lat="43.5334495" lon="10.7890333"><ele>164.0</ele><time>2026-04-18T07:38:43.497Z</time></trkpt><trkpt lat="43.5333122" lon="10.7889526"><ele>162.0</ele><time>2026-04-18T07:38:44.51Z</time></trkpt><trkpt lat="43.5331657" lon="10.7888669"><ele>162.0</ele><time>2026-04-18T07:38:45.502Z</time></trkpt><trkpt lat="43.5330168" lon="10.7887821"><ele>162.0</ele><time>2026-04-18T07:38:46.503Z</time></trkpt><trkpt lat="43.532882" lon="10.7886938"><ele>162.0</ele><time>2026-04-18T07:38:47.492Z</time></trkpt><trkpt lat="43.532753" lon="10.7886207"><ele>160.75</ele><time>2026-04-18T07:38:48.497Z</time></trkpt><trkpt lat="43.5326305" lon="10.7885531"><ele>159.5</ele><time>2026-04-18T07:38:49.503Z</time></trkpt><trkpt lat="43.5325041" lon="10.7884904"><ele>158.25</ele><time>2026-04-18T07:38:50.496Z</time></trkpt><trkpt lat="43.5323932" lon="10.7884262"><ele>157.0</ele><time>2026-04-18T07:38:51.512Z</time></trkpt><trkpt lat="43.532278" lon="10.7883632"><ele>157.0</ele><time>2026-04-18T07:38:52.506Z</time></trkpt><trkpt lat="43.5321762" lon="10.7883009"><ele>157.0</ele><time>2026-04-18T07:38:53.497Z</time></trkpt><trkpt lat="43.5320766" lon="10.7882485"><ele>157.0</ele><time>2026-04-18T07:38:54.495Z</time></trkpt><trkpt lat="43.5319787" lon="10.7881749"><ele>157.0</ele><time>2026-04-18T07:38:55.499Z</time></trkpt><trkpt lat="43.5318913" lon="10.7881028"><ele>157.0</ele><time>2026-04-18T07:38:56.495Z</time></trkpt><trkpt lat="43.5318185" lon="10.7880158"><ele>156.2</ele><time>2026-04-18T07:38:57.497Z</time></trkpt><trkpt lat="43.5317548" lon="10.7879053"><ele>155.39999999999998</ele><time>2026-04-18T07:38:58.495Z</time></trkpt><trkpt lat="43.5316927" lon="10.7877961"><ele>154.60000000000002</ele><time>2026-04-18T07:38:59.502Z</time></trkpt><trkpt lat="43.53163" lon="10.7876854"><ele>153.8</ele><time>2026-04-18T07:39:00.494Z</time></trkpt><trkpt lat="43.531563" lon="10.7875729"><ele>153.0</ele><time>2026-04-18T07:39:01.491Z</time></trkpt><trkpt lat="43.5314956" lon="10.7874536"><ele>153.0</ele><time>2026-04-18T07:39:02.492Z</time></trkpt><trkpt lat="43.5314259" lon="10.78733"><ele>153.0</ele><time>2026-04-18T07:39:03.497Z</time></trkpt><trkpt lat="43.5313549" lon="10.7872054"><ele>153.0</ele><time>2026-04-18T07:39:04.505Z</time></trkpt><trkpt lat="43.5312826" lon="10.7870884"><ele>153.0</ele><time>2026-04-18T07:39:05.506Z</time></trkpt><trkpt lat="43.5312187" lon="10.7869824"><ele>153.0</ele><time>2026-04-18T07:39:06.495Z</time></trkpt><trkpt lat="43.5311513" lon="10.7868767"><ele>150.6</ele><time>2026-04-18T07:39:07.497Z</time></trkpt><trkpt lat="43.531097" lon="10.7867839"><ele>148.20000000000002</ele><time>2026-04-18T07:39:08.494Z</time></trkpt><trkpt lat="43.5310303" lon="10.7866905"><ele>145.8</ele><time>2026-04-18T07:39:09.493Z</time></trkpt><trkpt lat="43.5309571" lon="10.786598"><ele>143.4</ele><time>2026-04-18T07:39:10.489Z</time></trkpt><trkpt lat="43.5308849" lon="10.7864959"><ele>141.0</ele><time>2026-04-18T07:39:11.494Z</time></trkpt><trkpt lat="43.530825" lon="10.7864067"><ele>141.0</ele><time>2026-04-18T07:39:12.488Z</time></trkpt><trkpt lat="43.5307725" lon="10.7863336"><ele>141.0</ele><time>2026-04-18T07:39:13.503Z</time></trkpt><trkpt lat="43.5307276" lon="10.7862707"><ele>141.0</ele><time>2026-04-18T07:39:14.514Z</time></trkpt><trkpt lat="43.530662" lon="10.7861519"><ele>141.0</ele><time>2026-04-18T07:39:16.497Z</time></trkpt><trkpt lat="43.5306387" lon="10.7860147"><ele>141.0</ele><time>2026-04-18T07:39:18.494Z</time></trkpt><trkpt lat="43.5306581" lon="10.7858929"><ele>141.0</ele><time>2026-04-18T07:39:20.514Z</time></trkpt><trkpt lat="43.5307052" lon="10.7857488"><ele>140.71428571428572</ele><time>2026-04-18T07:39:22.495Z</time></trkpt><trkpt lat="43.5307354" lon="10.7856694"><ele>140.42857142857142</ele><time>2026-04-18T07:39:23.501Z</time></trkpt><trkpt lat="43.5307657" lon="10.7855893"><ele>140.14285714285714</ele><time>2026-04-18T07:39:24.495Z</time></trkpt><trkpt lat="43.5307946" lon="10.7854989"><ele>139.85714285714286</ele><time>2026-04-18T07:39:25.513Z</time></trkpt><trkpt lat="43.5308248" lon="10.7854023"><ele>139.57142857142858</ele><time>2026-04-18T07:39:26.488Z</time></trkpt><trkpt lat="43.5308475" lon="10.7853063"><ele>139.28571428571428</ele><time>2026-04-18T07:39:27.49Z</time></trkpt><trkpt lat="43.5308595" lon="10.7852044"><ele>139.0</ele><time>2026-04-18T07:39:28.494Z</time></trkpt><trkpt lat="43.5308616" lon="10.7851053"><ele>139.0</ele><time>2026-04-18T07:39:29.502Z</time></trkpt><trkpt lat="43.5308515" lon="10.7849948"><ele>139.0</ele><time>2026-04-18T07:39:30.498Z</time></trkpt><trkpt lat="43.5308267" lon="10.7848936"><ele>139.0</ele><time>2026-04-18T07:39:31.491Z</time></trkpt><trkpt lat="43.530808" lon="10.7847932"><ele>139.0</ele><time>2026-04-18T07:39:32.496Z</time></trkpt><trkpt lat="43.5307956" lon="10.7846874"><ele>139.0</ele><time>2026-04-18T07:39:33.493Z</time></trkpt><trkpt lat="43.5307716" lon="10.7845806"><ele>139.0</ele><time>2026-04-18T07:39:34.511Z</time></trkpt><trkpt lat="43.5307413" lon="10.7844779"><ele>139.0</ele><time>2026-04-18T07:39:35.496Z</time></trkpt><trkpt lat="43.5307066" lon="10.7843858"><ele>139.0</ele><time>2026-04-18T07:39:36.501Z</time></trkpt><trkpt lat="43.5306789" lon="10.7842871"><ele>139.0</ele><time>2026-04-18T07:39:37.508Z</time></trkpt><trkpt lat="43.5306373" lon="10.7842038"><ele>139.0</ele><time>2026-04-18T07:39:38.495Z</time></trkpt><trkpt lat="43.5305602" lon="10.7841005"><ele>139.0</ele><time>2026-04-18T07:39:40.497Z</time></trkpt><trkpt lat="43.5304414" lon="10.7841105"><ele>138.33333333333334</ele><time>2026-04-18T07:39:42.489Z</time></trkpt><trkpt lat="43.5303512" lon="10.7841699"><ele>137.66666666666669</ele><time>2026-04-18T07:39:44.506Z</time></trkpt><trkpt lat="43.5302979" lon="10.7842345"><ele>137.0</ele><time>2026-04-18T07:39:45.502Z</time></trkpt><trkpt lat="43.5302403" lon="10.7843055"><ele>136.33333333333334</ele><time>2026-04-18T07:39:46.491Z</time></trkpt><trkpt lat="43.530185" lon="10.7844093"><ele>135.66666666666666</ele><time>2026-04-18T07:39:47.487Z</time></trkpt><trkpt lat="43.5301228" lon="10.7844877"><ele>135.0</ele><time>2026-04-18T07:39:48.498Z</time></trkpt><trkpt lat="43.5300648" lon="10.7845678"><ele>135.0</ele><time>2026-04-18T07:39:49.506Z</time></trkpt><trkpt lat="43.5300138" lon="10.7846413"><ele>135.0</ele><time>2026-04-18T07:39:50.485Z</time></trkpt><trkpt lat="43.5299476" lon="10.7846863"><ele>135.0</ele><time>2026-04-18T07:39:51.494Z</time></trkpt><trkpt lat="43.5298586" lon="10.7847121"><ele>135.0</ele><time>2026-04-18T07:39:52.495Z</time></trkpt><trkpt lat="43.5297632" lon="10.7847184"><ele>135.0</ele><time>2026-04-18T07:39:53.494Z</time></trkpt><trkpt lat="43.5296479" lon="10.7847066"><ele>129.5</ele><time>2026-04-18T07:39:54.497Z</time></trkpt><trkpt lat="43.5295417" lon="10.7847044"><ele>124.0</ele><time>2026-04-18T07:39:55.495Z</time></trkpt><trkpt lat="43.5294141" lon="10.7847072"><ele>118.5</ele><time>2026-04-18T07:39:56.506Z</time></trkpt><trkpt lat="43.5292871" lon="10.7846812"><ele>113.0</ele><time>2026-04-18T07:39:57.498Z</time></trkpt><trkpt lat="43.5291647" lon="10.7846714"><ele>113.0</ele><time>2026-04-18T07:39:58.502Z</time></trkpt><trkpt lat="43.5290369" lon="10.7846521"><ele>113.0</ele><time>2026-04-18T07:39:59.493Z</time></trkpt><trkpt lat="43.5289201" lon="10.7846257"><ele>113.0</ele><time>2026-04-18T07:40:00.492Z</time></trkpt><trkpt lat="43.5288144" lon="10.784604"><ele>113.0</ele><time>2026-04-18T07:40:01.502Z</time></trkpt><trkpt lat="43.5287181" lon="10.7845838"><ele>110.60000000000001</ele><time>2026-04-18T07:40:02.508Z</time></trkpt><trkpt lat="43.5286263" lon="10.7845746"><ele>108.20000000000002</ele><time>2026-04-18T07:40:03.506Z</time></trkpt><trkpt lat="43.5285375" lon="10.7845746"><ele>105.8</ele><time>2026-04-18T07:40:04.504Z</time></trkpt><trkpt lat="43.5284463" lon="10.7846033"><ele>103.4</ele><time>2026-04-18T07:40:05.501Z</time></trkpt><trkpt lat="43.5283527" lon="10.7846388"><ele>101.0</ele><time>2026-04-18T07:40:06.497Z</time></trkpt><trkpt lat="43.5282593" lon="10.7846633"><ele>101.0</ele><time>2026-04-18T07:40:07.506Z</time></trkpt><trkpt lat="43.5281613" lon="10.7846649"><ele>101.0</ele><time>2026-04-18T07:40:08.508Z</time></trkpt><trkpt lat="43.5280575" lon="10.7846603"><ele>101.0</ele><time>2026-04-18T07:40:09.502Z</time></trkpt><trkpt lat="43.5279514" lon="10.7846393"><ele>101.0</ele><time>2026-04-18T07:40:10.497Z</time></trkpt><trkpt lat="43.5278509" lon="10.7846178"><ele>101.0</ele><time>2026-04-18T07:40:11.496Z</time></trkpt><trkpt lat="43.5277465" lon="10.7846113"><ele>99.66666666666666</ele><time>2026-04-18T07:40:12.517Z</time></trkpt><trkpt lat="43.527645" lon="10.7845976"><ele>98.33333333333333</ele><time>2026-04-18T07:40:13.506Z</time></trkpt><trkpt lat="43.5275587" lon="10.7845743"><ele>97.0</ele><time>2026-04-18T07:40:14.502Z</time></trkpt><trkpt lat="43.5274758" lon="10.7845439"><ele>95.66666666666666</ele><time>2026-04-18T07:40:15.5Z</time></trkpt><trkpt lat="43.5274029" lon="10.7844951"><ele>94.33333333333333</ele><time>2026-04-18T07:40:16.504Z</time></trkpt><trkpt lat="43.5273406" lon="10.7844191"><ele>93.0</ele><time>2026-04-18T07:40:17.5Z</time></trkpt><trkpt lat="43.5272758" lon="10.7843445"><ele>93.0</ele><time>2026-04-18T07:40:18.499Z</time></trkpt><trkpt lat="43.5272185" lon="10.7842616"><ele>93.0</ele><time>2026-04-18T07:40:19.492Z</time></trkpt><trkpt lat="43.5271707" lon="10.7841608"><ele>93.0</ele><time>2026-04-18T07:40:20.507Z</time></trkpt><trkpt lat="43.527118" lon="10.7840567"><ele>93.0</ele><time>2026-04-18T07:40:21.505Z</time></trkpt><trkpt lat="43.5270583" lon="10.7839379"><ele>93.0</ele><time>2026-04-18T07:40:22.499Z</time></trkpt><trkpt lat="43.5269961" lon="10.7838245"><ele>92.60000000000001</ele><time>2026-04-18T07:40:23.5Z</time></trkpt><trkpt lat="43.5269211" lon="10.7837163"><ele>92.2</ele><time>2026-04-18T07:40:24.493Z</time></trkpt><trkpt lat="43.526856" lon="10.7836091"><ele>91.8</ele><time>2026-04-18T07:40:25.494Z</time></trkpt><trkpt lat="43.5267928" lon="10.7835064"><ele>91.4</ele><time>2026-04-18T07:40:26.485Z</time></trkpt><trkpt lat="43.5267395" lon="10.7834232"><ele>91.0</ele><time>2026-04-18T07:40:27.494Z</time></trkpt><trkpt lat="43.5266917" lon="10.7833403"><ele>90.33333333333333</ele><time>2026-04-18T07:40:28.501Z</time></trkpt><trkpt lat="43.526656" lon="10.7832657"><ele>89.66666666666666</ele><time>2026-04-18T07:40:29.5Z</time></trkpt><trkpt lat="43.5266211" lon="10.7831823"><ele>89.0</ele><time>2026-04-18T07:40:30.49Z</time></trkpt><trkpt lat="43.5265866" lon="10.7831033"><ele>88.33333333333333</ele><time>2026-04-18T07:40:31.487Z</time></trkpt><trkpt lat="43.5265361" lon="10.7829469"><ele>87.66666666666667</ele><time>2026-04-18T07:40:33.491Z</time></trkpt><trkpt lat="43.526507" lon="10.7828658"><ele>87.0</ele><time>2026-04-18T07:40:34.504Z</time></trkpt><trkpt lat="43.5264798" lon="10.782777"><ele>85.0</ele><time>2026-04-18T07:40:35.492Z</time></trkpt><trkpt lat="43.5264481" lon="10.7826733"><ele>83.0</ele><time>2026-04-18T07:40:36.502Z</time></trkpt><trkpt lat="43.5264275" lon="10.7825819"><ele>81.0</ele><time>2026-04-18T07:40:37.5Z</time></trkpt><trkpt lat="43.5263981" lon="10.782486"><ele>79.0</ele><time>2026-04-18T07:40:38.49Z</time></trkpt><trkpt lat="43.526358" lon="10.7823874"><ele>77.0</ele><time>2026-04-18T07:40:39.5Z</time></trkpt><trkpt lat="43.5263238" lon="10.7822868"><ele>75.0</ele><time>2026-04-18T07:40:40.49Z</time></trkpt><trkpt lat="43.5262865" lon="10.7821765"><ele>75.0</ele><time>2026-04-18T07:40:41.493Z</time></trkpt><trkpt lat="43.5262546" lon="10.782071"><ele>75.0</ele><time>2026-04-18T07:40:42.495Z</time></trkpt><trkpt lat="43.5262253" lon="10.7819636"><ele>75.0</ele><time>2026-04-18T07:40:43.498Z</time></trkpt><trkpt lat="43.5261978" lon="10.7818586"><ele>75.0</ele><time>2026-04-18T07:40:44.501Z</time></trkpt><trkpt lat="43.526166" lon="10.7817608"><ele>75.0</ele><time>2026-04-18T07:40:45.492Z</time></trkpt><trkpt lat="43.5261372" lon="10.7816467"><ele>75.0</ele><time>2026-04-18T07:40:46.493Z</time></trkpt><trkpt lat="43.5261089" lon="10.7815449"><ele>74.0</ele><time>2026-04-18T07:40:47.499Z</time></trkpt><trkpt lat="43.5260768" lon="10.7814568"><ele>73.0</ele><time>2026-04-18T07:40:48.498Z</time></trkpt><trkpt lat="43.5260581" lon="10.7813552"><ele>72.0</ele><time>2026-04-18T07:40:49.505Z</time></trkpt><trkpt lat="43.5260182" lon="10.7812285"><ele>71.0</ele><time>2026-04-18T07:40:51.499Z</time></trkpt><trkpt lat="43.5259592" lon="10.7811897"><ele>70.0</ele><time>2026-04-18T07:40:55.507Z</time></trkpt><trkpt lat="43.5258818" lon="10.781221"><ele>69.0</ele><time>2026-04-18T07:40:57.516Z</time></trkpt><trkpt lat="43.525794" lon="10.7813172"><ele>69.0</ele><time>2026-04-18T07:40:59.505Z</time></trkpt><trkpt lat="43.5257284" lon="10.7813765"><ele>69.0</ele><time>2026-04-18T07:41:00.514Z</time></trkpt><trkpt lat="43.5256589" lon="10.7814516"><ele>69.0</ele><time>2026-04-18T07:41:01.506Z</time></trkpt><trkpt lat="43.5255756" lon="10.7815341"><ele>69.0</ele><time>2026-04-18T07:41:02.493Z</time></trkpt><trkpt lat="43.5254848" lon="10.7816244"><ele>69.0</ele><time>2026-04-18T07:41:03.5Z</time></trkpt><trkpt lat="43.5253911" lon="10.7817174"><ele>69.5</ele><time>2026-04-18T07:41:04.533Z</time></trkpt><trkpt lat="43.525285" lon="10.7818199"><ele>70.0</ele><time>2026-04-18T07:41:05.488Z</time></trkpt><trkpt lat="43.5251833" lon="10.7819272"><ele>70.5</ele><time>2026-04-18T07:41:06.494Z</time></trkpt><trkpt lat="43.5250758" lon="10.7820301"><ele>71.0</ele><time>2026-04-18T07:41:07.505Z</time></trkpt><trkpt lat="43.5249691" lon="10.7821342"><ele>71.0</ele><time>2026-04-18T07:41:08.499Z</time></trkpt><trkpt lat="43.5248672" lon="10.7822468"><ele>71.0</ele><time>2026-04-18T07:41:09.495Z</time></trkpt><trkpt lat="43.5247804" lon="10.7823647"><ele>71.0</ele><time>2026-04-18T07:41:10.501Z</time></trkpt><trkpt lat="43.5246942" lon="10.7825051"><ele>71.0</ele><time>2026-04-18T07:41:11.493Z</time></trkpt><trkpt lat="43.5246165" lon="10.7826765"><ele>69.0</ele><time>2026-04-18T07:41:12.51Z</time></trkpt><trkpt lat="43.5245344" lon="10.782844"><ele>67.0</ele><time>2026-04-18T07:41:13.492Z</time></trkpt><trkpt lat="43.5244579" lon="10.7830218"><ele>65.0</ele><time>2026-04-18T07:41:14.496Z</time></trkpt><trkpt lat="43.524374" lon="10.7832058"><ele>65.0</ele><time>2026-04-18T07:41:15.49Z</time></trkpt><trkpt lat="43.5242882" lon="10.7833815"><ele>65.0</ele><time>2026-04-18T07:41:16.508Z</time></trkpt><trkpt lat="43.5242034" lon="10.7835613"><ele>65.0</ele><time>2026-04-18T07:41:17.501Z</time></trkpt><trkpt lat="43.5241194" lon="10.783735"><ele>65.0</ele><time>2026-04-18T07:41:18.493Z</time></trkpt><trkpt lat="43.524038" lon="10.7839167"><ele>65.0</ele><time>2026-04-18T07:41:19.492Z</time></trkpt><trkpt lat="43.5239568" lon="10.7840802"><ele>65.0</ele><time>2026-04-18T07:41:20.498Z</time></trkpt><trkpt lat="43.5238719" lon="10.7842172"><ele>65.0</ele><time>2026-04-18T07:41:21.493Z</time></trkpt><trkpt lat="43.523785" lon="10.7843528"><ele>66.0</ele><time>2026-04-18T07:41:22.514Z</time></trkpt><trkpt lat="43.5236776" lon="10.7844823"><ele>67.0</ele><time>2026-04-18T07:41:23.494Z</time></trkpt><trkpt lat="43.5235694" lon="10.784567"><ele>68.0</ele><time>2026-04-18T07:41:24.503Z</time></trkpt><trkpt lat="43.5234534" lon="10.7846052"><ele>69.0</ele><time>2026-04-18T07:41:25.496Z</time></trkpt><trkpt lat="43.5233482" lon="10.784646"><ele>69.0</ele><time>2026-04-18T07:41:26.489Z</time></trkpt><trkpt lat="43.5232204" lon="10.7847061"><ele>69.0</ele><time>2026-04-18T07:41:27.492Z</time></trkpt><trkpt lat="43.5230944" lon="10.7847882"><ele>69.0</ele><time>2026-04-18T07:41:28.488Z</time></trkpt><trkpt lat="43.5229616" lon="10.784866"><ele>69.0</ele><time>2026-04-18T07:41:29.493Z</time></trkpt><trkpt lat="43.5228317" lon="10.7849421"><ele>69.0</ele><time>2026-04-18T07:41:30.499Z</time></trkpt><trkpt lat="43.5227124" lon="10.7850195"><ele>69.0</ele><time>2026-04-18T07:41:31.494Z</time></trkpt><trkpt lat="43.5226106" lon="10.7850733"><ele>69.0</ele><time>2026-04-18T07:41:32.496Z</time></trkpt><trkpt lat="43.5225296" lon="10.7851119"><ele>69.0</ele><time>2026-04-18T07:41:33.501Z</time></trkpt><trkpt lat="43.522473" lon="10.7851527"><ele>69.0</ele><time>2026-04-18T07:41:34.497Z</time></trkpt><trkpt lat="43.5223895" lon="10.785221"><ele>69.0</ele><time>2026-04-18T07:41:36.499Z</time></trkpt><trkpt lat="43.5224057" lon="10.785322"><ele>69.0</ele><time>2026-04-18T07:41:38.502Z</time></trkpt><trkpt lat="43.5224679" lon="10.7854313"><ele>69.0</ele><time>2026-04-18T07:41:40.495Z</time></trkpt><trkpt lat="43.5225451" lon="10.7855736"><ele>69.0</ele><time>2026-04-18T07:41:42.503Z</time></trkpt><trkpt lat="43.5225698" lon="10.7856597"><ele>69.0</ele><time>2026-04-18T07:41:43.497Z</time></trkpt><trkpt lat="43.5225777" lon="10.7857596"><ele>69.0</ele><time>2026-04-18T07:41:44.497Z</time></trkpt><trkpt lat="43.5225807" lon="10.7858586"><ele>69.0</ele><time>2026-04-18T07:41:45.496Z</time></trkpt><trkpt lat="43.5225756" lon="10.7859614"><ele>69.0</ele><time>2026-04-18T07:41:46.503Z</time></trkpt><trkpt lat="43.5225804" lon="10.7860605"><ele>69.0</ele><time>2026-04-18T07:41:47.504Z</time></trkpt><trkpt lat="43.5225778" lon="10.7861536"><ele>69.0</ele><time>2026-04-18T07:41:48.51Z</time></trkpt><trkpt lat="43.5225828" lon="10.7862561"><ele>69.0</ele><time>2026-04-18T07:41:49.496Z</time></trkpt><trkpt lat="43.5225906" lon="10.7863487"><ele>69.0</ele><time>2026-04-18T07:41:50.507Z</time></trkpt><trkpt lat="43.5225934" lon="10.7864414"><ele>69.0</ele><time>2026-04-18T07:41:51.504Z</time></trkpt><trkpt lat="43.5226021" lon="10.7865393"><ele>69.16666666666667</ele><time>2026-04-18T07:41:52.499Z</time></trkpt><trkpt lat="43.5226107" lon="10.7866346"><ele>69.33333333333333</ele><time>2026-04-18T07:41:53.503Z</time></trkpt><trkpt lat="43.5226221" lon="10.7867313"><ele>69.5</ele><time>2026-04-18T07:41:54.508Z</time></trkpt><trkpt lat="43.5226286" lon="10.7868354"><ele>69.66666666666666</ele><time>2026-04-18T07:41:55.503Z</time></trkpt><trkpt lat="43.5226374" lon="10.7869454"><ele>69.83333333333333</ele><time>2026-04-18T07:41:56.497Z</time></trkpt><trkpt lat="43.522653" lon="10.7870437"><ele>70.0</ele><time>2026-04-18T07:41:57.506Z</time></trkpt><trkpt lat="43.5226807" lon="10.7871501"><ele>70.33333333333333</ele><time>2026-04-18T07:41:58.5Z</time></trkpt><trkpt lat="43.5226941" lon="10.7872488"><ele>70.66666666666666</ele><time>2026-04-18T07:41:59.502Z</time></trkpt><trkpt lat="43.5227076" lon="10.7873448"><ele>71.0</ele><time>2026-04-18T07:42:00.498Z</time></trkpt><trkpt lat="43.5227218" lon="10.7874417"><ele>71.33333333333333</ele><time>2026-04-18T07:42:01.494Z</time></trkpt><trkpt lat="43.5227381" lon="10.7875308"><ele>71.66666666666667</ele><time>2026-04-18T07:42:02.499Z</time></trkpt><trkpt lat="43.5227618" lon="10.7877064"><ele>72.0</ele><time>2026-04-18T07:42:04.494Z</time></trkpt><trkpt lat="43.5227726" lon="10.787792"><ele>72.28571428571429</ele><time>2026-04-18T07:42:05.509Z</time></trkpt><trkpt lat="43.5227739" lon="10.7878796"><ele>72.57142857142857</ele><time>2026-04-18T07:42:06.493Z</time></trkpt><trkpt lat="43.5227881" lon="10.7879703"><ele>72.85714285714286</ele><time>2026-04-18T07:42:07.499Z</time></trkpt><trkpt lat="43.5228022" lon="10.7880662"><ele>73.14285714285714</ele><time>2026-04-18T07:42:08.502Z</time></trkpt><trkpt lat="43.5228168" lon="10.7881514"><ele>73.42857142857143</ele><time>2026-04-18T07:42:09.498Z</time></trkpt><trkpt lat="43.5228256" lon="10.788238"><ele>73.71428571428572</ele><time>2026-04-18T07:42:10.5Z</time></trkpt><trkpt lat="43.5228333" lon="10.7883257"><ele>74.0</ele><time>2026-04-18T07:42:11.501Z</time></trkpt><trkpt lat="43.5228427" lon="10.7884134"><ele>75.2</ele><time>2026-04-18T07:42:12.521Z</time></trkpt><trkpt lat="43.5228658" lon="10.7885877"><ele>76.4</ele><time>2026-04-18T07:42:14.512Z</time></trkpt><trkpt lat="43.5228919" lon="10.7887551"><ele>77.6</ele><time>2026-04-18T07:42:16.505Z</time></trkpt><trkpt lat="43.5229038" lon="10.7888486"><ele>78.8</ele><time>2026-04-18T07:42:17.521Z</time></trkpt><trkpt lat="43.5229211" lon="10.7889367"><ele>80.0</ele><time>2026-04-18T07:42:18.494Z</time></trkpt><trkpt lat="43.5229373" lon="10.7890583"><ele>80.66666666666667</ele><time>2026-04-18T07:42:20.491Z</time></trkpt><trkpt lat="43.5229572" lon="10.789162"><ele>81.33333333333334</ele><time>2026-04-18T07:42:22.498Z</time></trkpt><trkpt lat="43.5229726" lon="10.789271"><ele>82.0</ele><time>2026-04-18T07:42:24.497Z</time></trkpt><trkpt lat="43.5229867" lon="10.7893997"><ele>82.66666666666667</ele><time>2026-04-18T07:42:26.495Z</time></trkpt><trkpt lat="43.5229978" lon="10.7895166"><ele>83.33333333333333</ele><time>2026-04-18T07:42:28.518Z</time></trkpt><trkpt lat="43.5230304" lon="10.7896467"><ele>84.0</ele><time>2026-04-18T07:42:30.499Z</time></trkpt><trkpt lat="43.5230643" lon="10.7897591"><ele>85.2</ele><time>2026-04-18T07:42:33.522Z</time></trkpt><trkpt lat="43.5230972" lon="10.7898344"><ele>86.4</ele><time>2026-04-18T07:42:35.497Z</time></trkpt><trkpt lat="43.523124" lon="10.7899441"><ele>87.6</ele><time>2026-04-18T07:42:38.488Z</time></trkpt><trkpt lat="43.5231447" lon="10.7900821"><ele>88.8</ele><time>2026-04-18T07:42:41.487Z</time></trkpt><trkpt lat="43.5231565" lon="10.7902105"><ele>90.0</ele><time>2026-04-18T07:42:43.493Z</time></trkpt><trkpt lat="43.5231826" lon="10.7903614"><ele>90.6</ele><time>2026-04-18T07:42:45.493Z</time></trkpt><trkpt lat="43.5232119" lon="10.7905032"><ele>91.2</ele><time>2026-04-18T07:42:47.491Z</time></trkpt><trkpt lat="43.523226" lon="10.790641"><ele>91.80000000000001</ele><time>2026-04-18T07:42:49.494Z</time></trkpt><trkpt lat="43.5232524" lon="10.7907895"><ele>92.4</ele><time>2026-04-18T07:42:51.493Z</time></trkpt><trkpt lat="43.5232944" lon="10.7909314"><ele>93.0</ele><time>2026-04-18T07:42:53.504Z</time></trkpt><trkpt lat="43.5233678" lon="10.7910499"><ele>93.0</ele><time>2026-04-18T07:42:55.521Z</time></trkpt><trkpt lat="43.5234413" lon="10.791149"><ele>93.0</ele><time>2026-04-18T07:42:57.502Z</time></trkpt><trkpt lat="43.5235182" lon="10.7912493"><ele>93.0</ele><time>2026-04-18T07:42:59.505Z</time></trkpt><trkpt lat="43.5235937" lon="10.7913609"><ele>93.0</ele><time>2026-04-18T07:43:01.503Z</time></trkpt><trkpt lat="43.5236633" lon="10.7914923"><ele>93.0</ele><time>2026-04-18T07:43:03.496Z</time></trkpt><trkpt lat="43.5237302" lon="10.7916159"><ele>93.0</ele><time>2026-04-18T07:43:05.493Z</time></trkpt><trkpt lat="43.523756" lon="10.7917862"><ele>93.0</ele><time>2026-04-18T07:43:07.514Z</time></trkpt><trkpt lat="43.5237567" lon="10.791874"><ele>93.0</ele><time>2026-04-18T07:43:08.497Z</time></trkpt><trkpt lat="43.5237516" lon="10.7920264"><ele>93.0</ele><time>2026-04-18T07:43:10.51Z</time></trkpt><trkpt lat="43.5237304" lon="10.7921764"><ele>93.0</ele><time>2026-04-18T07:43:12.51Z</time></trkpt><trkpt lat="43.5236937" lon="10.7923248"><ele>93.0</ele><time>2026-04-18T07:43:14.497Z</time></trkpt><trkpt lat="43.523641" lon="10.7924698"><ele>93.0</ele><time>2026-04-18T07:43:16.501Z</time></trkpt><trkpt lat="43.5235925" lon="10.7926182"><ele>93.0</ele><time>2026-04-18T07:43:18.497Z</time></trkpt><trkpt lat="43.52357" lon="10.7927002"><ele>93.0</ele><time>2026-04-18T07:43:19.511Z</time></trkpt><trkpt lat="43.523539" lon="10.7928496"><ele>93.0</ele><time>2026-04-18T07:43:21.505Z</time></trkpt><trkpt lat="43.5235267" lon="10.7930148"><ele>93.5</ele><time>2026-04-18T07:43:23.504Z</time></trkpt><trkpt lat="43.5235147" lon="10.7931146"><ele>94.0</ele><time>2026-04-18T07:43:24.498Z</time></trkpt><trkpt lat="43.5235077" lon="10.7932182"><ele>94.5</ele><time>2026-04-18T07:43:25.504Z</time></trkpt><trkpt lat="43.5235035" lon="10.7933289"><ele>95.0</ele><time>2026-04-18T07:43:26.505Z</time></trkpt><trkpt lat="43.5235091" lon="10.7934356"><ele>95.5</ele><time>2026-04-18T07:43:27.505Z</time></trkpt><trkpt lat="43.5235226" lon="10.793541"><ele>96.0</ele><time>2026-04-18T07:43:28.505Z</time></trkpt><trkpt lat="43.523528" lon="10.7936495"><ele>96.0</ele><time>2026-04-18T07:43:29.496Z</time></trkpt><trkpt lat="43.5235252" lon="10.7937661"><ele>96.0</ele><time>2026-04-18T07:43:30.493Z</time></trkpt><trkpt lat="43.5235239" lon="10.7938753"><ele>96.0</ele><time>2026-04-18T07:43:31.501Z</time></trkpt><trkpt lat="43.5235163" lon="10.7939911"><ele>96.0</ele><time>2026-04-18T07:43:32.491Z</time></trkpt><trkpt lat="43.5235096" lon="10.7940981"><ele>96.0</ele><time>2026-04-18T07:43:33.51Z</time></trkpt><trkpt lat="43.5235031" lon="10.794205"><ele>96.0</ele><time>2026-04-18T07:43:34.497Z</time></trkpt><trkpt lat="43.5234904" lon="10.7943221"><ele>96.0</ele><time>2026-04-18T07:43:35.501Z</time></trkpt><trkpt lat="43.5234806" lon="10.7944392"><ele>96.0</ele><time>2026-04-18T07:43:36.499Z</time></trkpt><trkpt lat="43.5234661" lon="10.7945605"><ele>96.0</ele><time>2026-04-18T07:43:37.499Z</time></trkpt><trkpt lat="43.523461" lon="10.7946766"><ele>96.0</ele><time>2026-04-18T07:43:38.495Z</time></trkpt><trkpt lat="43.5234623" lon="10.7947918"><ele>96.0</ele><time>2026-04-18T07:43:39.5Z</time></trkpt><trkpt lat="43.5234622" lon="10.794908"><ele>96.0</ele><time>2026-04-18T07:43:40.498Z</time></trkpt><trkpt lat="43.5234686" lon="10.7950291"><ele>96.0</ele><time>2026-04-18T07:43:41.497Z</time></trkpt><trkpt lat="43.5234918" lon="10.7951685"><ele>96.0</ele><time>2026-04-18T07:43:42.507Z</time></trkpt><trkpt lat="43.5235236" lon="10.79531"><ele>96.0</ele><time>2026-04-18T07:43:43.504Z</time></trkpt><trkpt lat="43.5235585" lon="10.795461"><ele>96.0</ele><time>2026-04-18T07:43:44.503Z</time></trkpt><trkpt lat="43.5235951" lon="10.7956262"><ele>95.75</ele><time>2026-04-18T07:43:45.503Z</time></trkpt><trkpt lat="43.5236407" lon="10.7957876"><ele>95.5</ele><time>2026-04-18T07:43:46.505Z</time></trkpt><trkpt lat="43.5236909" lon="10.7959435"><ele>95.25</ele><time>2026-04-18T07:43:47.503Z</time></trkpt><trkpt lat="43.5237463" lon="10.7960821"><ele>95.0</ele><time>2026-04-18T07:43:48.504Z</time></trkpt><trkpt lat="43.5238066" lon="10.7962086"><ele>95.0</ele><time>2026-04-18T07:43:49.504Z</time></trkpt><trkpt lat="43.5238533" lon="10.7963416"><ele>95.0</ele><time>2026-04-18T07:43:50.506Z</time></trkpt><trkpt lat="43.5238899" lon="10.7964807"><ele>95.0</ele><time>2026-04-18T07:43:51.495Z</time></trkpt><trkpt lat="43.5239224" lon="10.7966437"><ele>95.0</ele><time>2026-04-18T07:43:52.508Z</time></trkpt><trkpt lat="43.5239529" lon="10.7968109"><ele>94.75</ele><time>2026-04-18T07:43:53.491Z</time></trkpt><trkpt lat="43.5239767" lon="10.796982"><ele>94.5</ele><time>2026-04-18T07:43:54.501Z</time></trkpt><trkpt lat="43.5239952" lon="10.797148"><ele>94.25</ele><time>2026-04-18T07:43:55.506Z</time></trkpt><trkpt lat="43.5240028" lon="10.7973146"><ele>94.0</ele><time>2026-04-18T07:43:56.491Z</time></trkpt><trkpt lat="43.524014" lon="10.7974875"><ele>94.0</ele><time>2026-04-18T07:43:57.503Z</time></trkpt><trkpt lat="43.5240334" lon="10.7976548"><ele>94.0</ele><time>2026-04-18T07:43:58.519Z</time></trkpt><trkpt lat="43.5240522" lon="10.7978271"><ele>94.0</ele><time>2026-04-18T07:43:59.507Z</time></trkpt><trkpt lat="43.5240597" lon="10.798002"><ele>94.0</ele><time>2026-04-18T07:44:00.5Z</time></trkpt><trkpt lat="43.5240715" lon="10.798169"><ele>95.0</ele><time>2026-04-18T07:44:01.504Z</time></trkpt><trkpt lat="43.5240924" lon="10.7983258"><ele>96.0</ele><time>2026-04-18T07:44:02.51Z</time></trkpt><trkpt lat="43.5241198" lon="10.7984815"><ele>97.0</ele><time>2026-04-18T07:44:03.505Z</time></trkpt><trkpt lat="43.5241517" lon="10.7986266"><ele>98.0</ele><time>2026-04-18T07:44:04.509Z</time></trkpt><trkpt lat="43.5241797" lon="10.7987758"><ele>98.75</ele><time>2026-04-18T07:44:05.497Z</time></trkpt><trkpt lat="43.5242005" lon="10.7989276"><ele>99.5</ele><time>2026-04-18T07:44:06.508Z</time></trkpt><trkpt lat="43.5242245" lon="10.799076"><ele>100.25</ele><time>2026-04-18T07:44:07.506Z</time></trkpt><trkpt lat="43.5242444" lon="10.7992373"><ele>101.0</ele><time>2026-04-18T07:44:08.497Z</time></trkpt><trkpt lat="43.5242559" lon="10.7993908"><ele>101.4</ele><time>2026-04-18T07:44:09.504Z</time></trkpt><trkpt lat="43.5242577" lon="10.7995302"><ele>101.8</ele><time>2026-04-18T07:44:10.509Z</time></trkpt><trkpt lat="43.5242554" lon="10.7996636"><ele>102.2</ele><time>2026-04-18T07:44:11.498Z</time></trkpt><trkpt lat="43.5242386" lon="10.7997957"><ele>102.60000000000001</ele><time>2026-04-18T07:44:12.512Z</time></trkpt><trkpt lat="43.5242189" lon="10.7999253"><ele>103.0</ele><time>2026-04-18T07:44:13.502Z</time></trkpt><trkpt lat="43.5242066" lon="10.8000405"><ele>103.00000000000001</ele><time>2026-04-18T07:44:14.529Z</time></trkpt><trkpt lat="43.5241891" lon="10.800154"><ele>103.0</ele><time>2026-04-18T07:44:15.512Z</time></trkpt><trkpt lat="43.5241808" lon="10.800286"><ele>103.0</ele><time>2026-04-18T07:44:16.5Z</time></trkpt><trkpt lat="43.5241779" lon="10.8004053"><ele>103.0</ele><time>2026-04-18T07:44:17.512Z</time></trkpt><trkpt lat="43.5241691" lon="10.8005245"><ele>103.00000000000001</ele><time>2026-04-18T07:44:18.499Z</time></trkpt><trkpt lat="43.5241606" lon="10.8006411"><ele>103.0</ele><time>2026-04-18T07:44:19.503Z</time></trkpt><trkpt lat="43.524152" lon="10.8007593"><ele>102.4</ele><time>2026-04-18T07:44:20.498Z</time></trkpt><trkpt lat="43.5241362" lon="10.8008768"><ele>101.80000000000001</ele><time>2026-04-18T07:44:21.492Z</time></trkpt><trkpt lat="43.5241116" lon="10.8009937"><ele>101.2</ele><time>2026-04-18T07:44:22.513Z</time></trkpt><trkpt lat="43.5240762" lon="10.8011291"><ele>100.6</ele><time>2026-04-18T07:44:23.511Z</time></trkpt><trkpt lat="43.5240331" lon="10.8012485"><ele>100.0</ele><time>2026-04-18T07:44:24.512Z</time></trkpt><trkpt lat="43.523983" lon="10.8013663"><ele>100.6</ele><time>2026-04-18T07:44:25.492Z</time></trkpt><trkpt lat="43.523936" lon="10.8014841"><ele>101.2</ele><time>2026-04-18T07:44:26.508Z</time></trkpt><trkpt lat="43.5238883" lon="10.8015888"><ele>101.80000000000001</ele><time>2026-04-18T07:44:27.505Z</time></trkpt><trkpt lat="43.5238336" lon="10.8017146"><ele>102.4</ele><time>2026-04-18T07:44:28.522Z</time></trkpt><trkpt lat="43.5237751" lon="10.8018164"><ele>103.0</ele><time>2026-04-18T07:44:29.503Z</time></trkpt><trkpt lat="43.5237117" lon="10.801905"><ele>103.00000000000001</ele><time>2026-04-18T07:44:30.503Z</time></trkpt><trkpt lat="43.5236348" lon="10.8019794"><ele>103.0</ele><time>2026-04-18T07:44:31.531Z</time></trkpt><trkpt lat="43.5235578" lon="10.8020325"><ele>103.0</ele><time>2026-04-18T07:44:32.509Z</time></trkpt><trkpt lat="43.5234815" lon="10.8020785"><ele>103.0</ele><time>2026-04-18T07:44:33.498Z</time></trkpt><trkpt lat="43.5234147" lon="10.8021237"><ele>103.00000000000001</ele><time>2026-04-18T07:44:34.506Z</time></trkpt><trkpt lat="43.523344" lon="10.8021789"><ele>103.0</ele><time>2026-04-18T07:44:35.514Z</time></trkpt><trkpt lat="43.5232759" lon="10.8022246"><ele>103.00000000000001</ele><time>2026-04-18T07:44:36.497Z</time></trkpt><trkpt lat="43.5232097" lon="10.8022777"><ele>103.0</ele><time>2026-04-18T07:44:37.504Z</time></trkpt><trkpt lat="43.5231406" lon="10.8023503"><ele>103.0</ele><time>2026-04-18T07:44:38.499Z</time></trkpt><trkpt lat="43.5230813" lon="10.8024412"><ele>103.0</ele><time>2026-04-18T07:44:39.502Z</time></trkpt><trkpt lat="43.5230358" lon="10.802539"><ele>103.00000000000001</ele><time>2026-04-18T07:44:40.508Z</time></trkpt><trkpt lat="43.5230062" lon="10.8026461"><ele>103.0</ele><time>2026-04-18T07:44:41.497Z</time></trkpt><trkpt lat="43.5229835" lon="10.8027584"><ele>103.80000000000001</ele><time>2026-04-18T07:44:42.512Z</time></trkpt><trkpt lat="43.5229727" lon="10.8028609"><ele>104.6</ele><time>2026-04-18T07:44:43.507Z</time></trkpt><trkpt lat="43.5229637" lon="10.8029519"><ele>105.39999999999999</ele><time>2026-04-18T07:44:44.495Z</time></trkpt><trkpt lat="43.5229458" lon="10.8030856"><ele>106.19999999999999</ele><time>2026-04-18T07:44:46.512Z</time></trkpt><trkpt lat="43.5229266" lon="10.8032251"><ele>107.0</ele><time>2026-04-18T07:44:48.507Z</time></trkpt><trkpt lat="43.5229185" lon="10.8033751"><ele>106.83333333333333</ele><time>2026-04-18T07:44:50.496Z</time></trkpt><trkpt lat="43.5229193" lon="10.8034979"><ele>106.66666666666666</ele><time>2026-04-18T07:44:52.492Z</time></trkpt><trkpt lat="43.5229437" lon="10.8036351"><ele>106.5</ele><time>2026-04-18T07:44:54.503Z</time></trkpt><trkpt lat="43.5229888" lon="10.8037779"><ele>106.33333333333334</ele><time>2026-04-18T07:44:56.546Z</time></trkpt><trkpt lat="43.5230232" lon="10.8038535"><ele>106.16666666666667</ele><time>2026-04-18T07:44:57.513Z</time></trkpt><trkpt lat="43.5230608" lon="10.8039393"><ele>106.0</ele><time>2026-04-18T07:44:58.518Z</time></trkpt><trkpt lat="43.523105" lon="10.8040286"><ele>106.0</ele><time>2026-04-18T07:44:59.495Z</time></trkpt><trkpt lat="43.5231438" lon="10.8041069"><ele>106.0</ele><time>2026-04-18T07:45:00.496Z</time></trkpt><trkpt lat="43.5231725" lon="10.8041913"><ele>106.0</ele><time>2026-04-18T07:45:01.498Z</time></trkpt><trkpt lat="43.5232127" lon="10.8042767"><ele>106.0</ele><time>2026-04-18T07:45:02.492Z</time></trkpt><trkpt lat="43.5232513" lon="10.8043592"><ele>106.0</ele><time>2026-04-18T07:45:03.497Z</time></trkpt><trkpt lat="43.5232881" lon="10.8044488"><ele>106.0</ele><time>2026-04-18T07:45:04.508Z</time></trkpt><trkpt lat="43.5233211" lon="10.8045518"><ele>106.0</ele><time>2026-04-18T07:45:05.505Z</time></trkpt><trkpt lat="43.5233528" lon="10.8046539"><ele>105.00000000000001</ele><time>2026-04-18T07:45:06.529Z</time></trkpt><trkpt lat="43.5233928" lon="10.8047583"><ele>104.0</ele><time>2026-04-18T07:45:07.498Z</time></trkpt><trkpt lat="43.5234393" lon="10.8048708"><ele>103.0</ele><time>2026-04-18T07:45:08.526Z</time></trkpt><trkpt lat="43.5234875" lon="10.8049708"><ele>102.0</ele><time>2026-04-18T07:45:09.508Z</time></trkpt><trkpt lat="43.5235311" lon="10.8050713"><ele>101.00000000000001</ele><time>2026-04-18T07:45:10.508Z</time></trkpt><trkpt lat="43.5235795" lon="10.8051789"><ele>100.0</ele><time>2026-04-18T07:45:11.52Z</time></trkpt><trkpt lat="43.5236203" lon="10.8052967"><ele>99.83333333333334</ele><time>2026-04-18T07:45:12.525Z</time></trkpt><trkpt lat="43.5236405" lon="10.805422"><ele>99.66666666666667</ele><time>2026-04-18T07:45:13.51Z</time></trkpt><trkpt lat="43.523664" lon="10.805546"><ele>99.5</ele><time>2026-04-18T07:45:14.514Z</time></trkpt><trkpt lat="43.523686" lon="10.8056741"><ele>99.33333333333334</ele><time>2026-04-18T07:45:15.524Z</time></trkpt><trkpt lat="43.5237129" lon="10.8057888"><ele>99.16666666666667</ele><time>2026-04-18T07:45:16.516Z</time></trkpt><trkpt lat="43.5237428" lon="10.8058898"><ele>99.0</ele><time>2026-04-18T07:45:17.51Z</time></trkpt><trkpt lat="43.523776" lon="10.8060023"><ele>98.5</ele><time>2026-04-18T07:45:18.505Z</time></trkpt><trkpt lat="43.5237951" lon="10.8061056"><ele>98.0</ele><time>2026-04-18T07:45:19.514Z</time></trkpt><trkpt lat="43.5238014" lon="10.806202"><ele>97.5</ele><time>2026-04-18T07:45:20.514Z</time></trkpt><trkpt lat="43.5238042" lon="10.8063004"><ele>97.0</ele><time>2026-04-18T07:45:21.504Z</time></trkpt><trkpt lat="43.5237974" lon="10.8064093"><ele>96.5</ele><time>2026-04-18T07:45:22.51Z</time></trkpt><trkpt lat="43.5237724" lon="10.8065414"><ele>96.0</ele><time>2026-04-18T07:45:23.52Z</time></trkpt><trkpt lat="43.5237454" lon="10.8066759"><ele>96.0</ele><time>2026-04-18T07:45:24.501Z</time></trkpt><trkpt lat="43.5237235" lon="10.8068132"><ele>96.0</ele><time>2026-04-18T07:45:25.498Z</time></trkpt><trkpt lat="43.5237081" lon="10.8069579"><ele>96.0</ele><time>2026-04-18T07:45:26.523Z</time></trkpt><trkpt lat="43.5237203" lon="10.8071068"><ele>96.0</ele><time>2026-04-18T07:45:27.52Z</time></trkpt><trkpt lat="43.5237334" lon="10.80726"><ele>96.0</ele><time>2026-04-18T07:45:28.525Z</time></trkpt><trkpt lat="43.5237644" lon="10.8074028"><ele>96.0</ele><time>2026-04-18T07:45:29.501Z</time></trkpt><trkpt lat="43.5238045" lon="10.8075433"><ele>96.0</ele><time>2026-04-18T07:45:30.504Z</time></trkpt><trkpt lat="43.5238575" lon="10.8076902"><ele>96.0</ele><time>2026-04-18T07:45:31.511Z</time></trkpt><trkpt lat="43.5239068" lon="10.8078411"><ele>96.0</ele><time>2026-04-18T07:45:32.498Z</time></trkpt><trkpt lat="43.5239668" lon="10.8079848"><ele>96.0</ele><time>2026-04-18T07:45:33.505Z</time></trkpt><trkpt lat="43.5240167" lon="10.8081228"><ele>96.0</ele><time>2026-04-18T07:45:34.49Z</time></trkpt><trkpt lat="43.5240619" lon="10.8082673"><ele>96.0</ele><time>2026-04-18T07:45:35.501Z</time></trkpt><trkpt lat="43.5240884" lon="10.8083976"><ele>96.0</ele><time>2026-04-18T07:45:36.506Z</time></trkpt><trkpt lat="43.5240867" lon="10.8085257"><ele>96.0</ele><time>2026-04-18T07:45:37.506Z</time></trkpt><trkpt lat="43.5240782" lon="10.8086563"><ele>96.8</ele><time>2026-04-18T07:45:38.501Z</time></trkpt><trkpt lat="43.5240569" lon="10.8087958"><ele>97.6</ele><time>2026-04-18T07:45:39.497Z</time></trkpt><trkpt lat="43.5240417" lon="10.8089401"><ele>98.4</ele><time>2026-04-18T07:45:40.492Z</time></trkpt><trkpt lat="43.5240297" lon="10.8090744"><ele>99.2</ele><time>2026-04-18T07:45:41.497Z</time></trkpt><trkpt lat="43.5240295" lon="10.809206"><ele>100.0</ele><time>2026-04-18T07:45:42.51Z</time></trkpt><trkpt lat="43.5240392" lon="10.8093356"><ele>100.6</ele><time>2026-04-18T07:45:43.515Z</time></trkpt><trkpt lat="43.524052" lon="10.8094597"><ele>101.2</ele><time>2026-04-18T07:45:44.507Z</time></trkpt><trkpt lat="43.5240688" lon="10.8095951"><ele>101.80000000000001</ele><time>2026-04-18T07:45:45.502Z</time></trkpt><trkpt lat="43.5240782" lon="10.809717"><ele>102.4</ele><time>2026-04-18T07:45:46.529Z</time></trkpt><trkpt lat="43.5240949" lon="10.8098416"><ele>103.0</ele><time>2026-04-18T07:45:47.508Z</time></trkpt><trkpt lat="43.5241046" lon="10.8099622"><ele>103.00000000000001</ele><time>2026-04-18T07:45:48.499Z</time></trkpt><trkpt lat="43.5241066" lon="10.8100778"><ele>103.0</ele><time>2026-04-18T07:45:49.495Z</time></trkpt><trkpt lat="43.5240982" lon="10.8102036"><ele>103.0</ele><time>2026-04-18T07:45:50.493Z</time></trkpt><trkpt lat="43.5240853" lon="10.8103176"><ele>103.0</ele><time>2026-04-18T07:45:51.492Z</time></trkpt><trkpt lat="43.5240609" lon="10.8104278"><ele>103.00000000000001</ele><time>2026-04-18T07:45:53.51Z</time></trkpt><trkpt lat="43.5240381" lon="10.8105129"><ele>103.0</ele><time>2026-04-18T07:45:55.503Z</time></trkpt><trkpt lat="43.5240234" lon="10.8106547"><ele>103.16666666666667</ele><time>2026-04-18T07:45:57.495Z</time></trkpt><trkpt lat="43.5240108" lon="10.8107432"><ele>103.33333333333334</ele><time>2026-04-18T07:45:58.503Z</time></trkpt><trkpt lat="43.5240015" lon="10.8108484"><ele>103.5</ele><time>2026-04-18T07:45:59.499Z</time></trkpt><trkpt lat="43.5239951" lon="10.8109486"><ele>103.66666666666666</ele><time>2026-04-18T07:46:00.497Z</time></trkpt><trkpt lat="43.5239861" lon="10.8110573"><ele>103.83333333333333</ele><time>2026-04-18T07:46:01.503Z</time></trkpt><trkpt lat="43.5239586" lon="10.8111909"><ele>104.0</ele><time>2026-04-18T07:46:02.502Z</time></trkpt><trkpt lat="43.523939" lon="10.8112966"><ele>103.71428571428571</ele><time>2026-04-18T07:46:03.495Z</time></trkpt><trkpt lat="43.5239099" lon="10.8113965"><ele>103.42857142857143</ele><time>2026-04-18T07:46:04.49Z</time></trkpt><trkpt lat="43.5238742" lon="10.8114871"><ele>103.14285714285714</ele><time>2026-04-18T07:46:05.501Z</time></trkpt><trkpt lat="43.5238369" lon="10.8115732"><ele>102.85714285714286</ele><time>2026-04-18T07:46:06.501Z</time></trkpt><trkpt lat="43.5237879" lon="10.8116522"><ele>102.57142857142858</ele><time>2026-04-18T07:46:07.512Z</time></trkpt><trkpt lat="43.5237419" lon="10.8117208"><ele>102.28571428571429</ele><time>2026-04-18T07:46:08.5Z</time></trkpt><trkpt lat="43.5236886" lon="10.8117846"><ele>102.0</ele><time>2026-04-18T07:46:09.499Z</time></trkpt><trkpt lat="43.5236275" lon="10.8118571"><ele>104.33333333333333</ele><time>2026-04-18T07:46:10.5Z</time></trkpt><trkpt lat="43.5235577" lon="10.811929"><ele>106.66666666666666</ele><time>2026-04-18T07:46:11.505Z</time></trkpt><trkpt lat="43.5234938" lon="10.8119827"><ele>109.0</ele><time>2026-04-18T07:46:12.502Z</time></trkpt><trkpt lat="43.523419" lon="10.8120251"><ele>111.33333333333333</ele><time>2026-04-18T07:46:13.497Z</time></trkpt><trkpt lat="43.5233531" lon="10.8120595"><ele>113.66666666666666</ele><time>2026-04-18T07:46:14.504Z</time></trkpt><trkpt lat="43.5232915" lon="10.8120916"><ele>116.0</ele><time>2026-04-18T07:46:15.502Z</time></trkpt><trkpt lat="43.5231795" lon="10.8121305"><ele>115.99999999999999</ele><time>2026-04-18T07:46:17.485Z</time></trkpt><trkpt lat="43.5230787" lon="10.8122277"><ele>116.0</ele><time>2026-04-18T07:46:19.496Z</time></trkpt><trkpt lat="43.5230385" lon="10.8123072"><ele>116.0</ele><time>2026-04-18T07:46:20.504Z</time></trkpt><trkpt lat="43.5230045" lon="10.8123812"><ele>116.0</ele><time>2026-04-18T07:46:21.527Z</time></trkpt><trkpt lat="43.5229687" lon="10.8124588"><ele>115.99999999999999</ele><time>2026-04-18T07:46:22.496Z</time></trkpt><trkpt lat="43.522928" lon="10.8126194"><ele>116.0</ele><time>2026-04-18T07:46:24.492Z</time></trkpt><trkpt lat="43.5229094" lon="10.8127035"><ele>116.99999999999999</ele><time>2026-04-18T07:46:25.496Z</time></trkpt><trkpt lat="43.5228872" lon="10.8127941"><ele>118.0</ele><time>2026-04-18T07:46:26.498Z</time></trkpt><trkpt lat="43.5228523" lon="10.8128736"><ele>119.0</ele><time>2026-04-18T07:46:27.502Z</time></trkpt><trkpt lat="43.522786" lon="10.8130261"><ele>120.0</ele><time>2026-04-18T07:46:29.497Z</time></trkpt><trkpt lat="43.5227462" lon="10.8130977"><ele>120.99999999999999</ele><time>2026-04-18T07:46:30.49Z</time></trkpt><trkpt lat="43.5226973" lon="10.8131555"><ele>122.0</ele><time>2026-04-18T07:46:31.5Z</time></trkpt><trkpt lat="43.5226417" lon="10.8131992"><ele>122.0</ele><time>2026-04-18T07:46:32.49Z</time></trkpt><trkpt lat="43.5225245" lon="10.8132909"><ele>121.99999999999999</ele><time>2026-04-18T07:46:34.497Z</time></trkpt><trkpt lat="43.522453" lon="10.8133646"><ele>121.99999999999999</ele><time>2026-04-18T07:46:35.499Z</time></trkpt><trkpt lat="43.5223743" lon="10.8134366"><ele>122.0</ele><time>2026-04-18T07:46:36.489Z</time></trkpt><trkpt lat="43.5222991" lon="10.8134969"><ele>122.0</ele><time>2026-04-18T07:46:37.491Z</time></trkpt><trkpt lat="43.5222326" lon="10.8135616"><ele>122.49999999999999</ele><time>2026-04-18T07:46:38.499Z</time></trkpt><trkpt lat="43.5221749" lon="10.8136326"><ele>123.0</ele><time>2026-04-18T07:46:39.485Z</time></trkpt><trkpt lat="43.5221142" lon="10.8137073"><ele>123.5</ele><time>2026-04-18T07:46:40.499Z</time></trkpt><trkpt lat="43.5220608" lon="10.8138078"><ele>124.0</ele><time>2026-04-18T07:46:41.49Z</time></trkpt><trkpt lat="43.5220261" lon="10.813911"><ele>124.49999999999999</ele><time>2026-04-18T07:46:42.499Z</time></trkpt><trkpt lat="43.5219931" lon="10.8140524"><ele>125.0</ele><time>2026-04-18T07:46:44.498Z</time></trkpt><trkpt lat="43.5219414" lon="10.8142019"><ele>125.6</ele><time>2026-04-18T07:46:46.492Z</time></trkpt><trkpt lat="43.5219145" lon="10.8143478"><ele>126.2</ele><time>2026-04-18T07:46:48.49Z</time></trkpt><trkpt lat="43.5218738" lon="10.8144786"><ele>126.80000000000001</ele><time>2026-04-18T07:46:50.493Z</time></trkpt><trkpt lat="43.5218437" lon="10.814587"><ele>127.4</ele><time>2026-04-18T07:46:52.493Z</time></trkpt><trkpt lat="43.5218015" lon="10.8147068"><ele>128.0</ele><time>2026-04-18T07:46:54.487Z</time></trkpt><trkpt lat="43.5217663" lon="10.8148499"><ele>128.0</ele><time>2026-04-18T07:46:56.488Z</time></trkpt><trkpt lat="43.5217559" lon="10.814939"><ele>128.0</ele><time>2026-04-18T07:46:57.495Z</time></trkpt><trkpt lat="43.5217435" lon="10.8150257"><ele>128.0</ele><time>2026-04-18T07:46:58.499Z</time></trkpt><trkpt lat="43.5217472" lon="10.8151956"><ele>128.0</ele><time>2026-04-18T07:47:00.484Z</time></trkpt><trkpt lat="43.5217363" lon="10.8153509"><ele>128.0</ele><time>2026-04-18T07:47:02.478Z</time></trkpt><trkpt lat="43.5217373" lon="10.8155015"><ele>127.80000000000001</ele><time>2026-04-18T07:47:04.503Z</time></trkpt><trkpt lat="43.5217372" lon="10.8156252"><ele>127.60000000000001</ele><time>2026-04-18T07:47:06.486Z</time></trkpt><trkpt lat="43.5217412" lon="10.8157418"><ele>127.39999999999999</ele><time>2026-04-18T07:47:08.485Z</time></trkpt><trkpt lat="43.5217819" lon="10.8158646"><ele>127.19999999999999</ele><time>2026-04-18T07:47:10.494Z</time></trkpt><trkpt lat="43.5218251" lon="10.8160049"><ele>127.0</ele><time>2026-04-18T07:47:12.489Z</time></trkpt><trkpt lat="43.5218857" lon="10.8161176"><ele>126.39999999999999</ele><time>2026-04-18T07:47:14.484Z</time></trkpt><trkpt lat="43.5219494" lon="10.8162165"><ele>125.79999999999998</ele><time>2026-04-18T07:47:16.496Z</time></trkpt><trkpt lat="43.5220082" lon="10.8163313"><ele>125.2</ele><time>2026-04-18T07:47:18.497Z</time></trkpt><trkpt lat="43.5220592" lon="10.8164498"><ele>124.6</ele><time>2026-04-18T07:47:20.482Z</time></trkpt><trkpt lat="43.5220885" lon="10.8165492"><ele>124.0</ele><time>2026-04-18T07:47:22.5Z</time></trkpt><trkpt lat="43.5220981" lon="10.8166534"><ele>123.80000000000001</ele><time>2026-04-18T07:47:24.497Z</time></trkpt><trkpt lat="43.5220839" lon="10.8168273"><ele>123.60000000000001</ele><time>2026-04-18T07:47:26.499Z</time></trkpt><trkpt lat="43.5220697" lon="10.8169958"><ele>123.4</ele><time>2026-04-18T07:47:28.494Z</time></trkpt><trkpt lat="43.5220444" lon="10.8170914"><ele>123.2</ele><time>2026-04-18T07:47:29.505Z</time></trkpt><trkpt lat="43.5220194" lon="10.8172046"><ele>123.0</ele><time>2026-04-18T07:47:30.518Z</time></trkpt><trkpt lat="43.5219923" lon="10.8173245"><ele>123.0</ele><time>2026-04-18T07:47:31.506Z</time></trkpt><trkpt lat="43.5219583" lon="10.8174377"><ele>123.0</ele><time>2026-04-18T07:47:32.492Z</time></trkpt><trkpt lat="43.5219243" lon="10.8175521"><ele>123.0</ele><time>2026-04-18T07:47:33.5Z</time></trkpt><trkpt lat="43.5218925" lon="10.8176573"><ele>123.0</ele><time>2026-04-18T07:47:34.488Z</time></trkpt><trkpt lat="43.5218642" lon="10.8177527"><ele>123.0</ele><time>2026-04-18T07:47:35.506Z</time></trkpt><trkpt lat="43.5218378" lon="10.8178401"><ele>123.0</ele><time>2026-04-18T07:47:36.491Z</time></trkpt><trkpt lat="43.5218103" lon="10.8179201"><ele>124.60000000000001</ele><time>2026-04-18T07:47:37.494Z</time></trkpt><trkpt lat="43.52174" lon="10.8180167"><ele>126.20000000000002</ele><time>2026-04-18T07:47:39.499Z</time></trkpt><trkpt lat="43.5216913" lon="10.8180784"><ele>127.8</ele><time>2026-04-18T07:47:40.496Z</time></trkpt><trkpt lat="43.5216345" lon="10.8181497"><ele>129.4</ele><time>2026-04-18T07:47:41.488Z</time></trkpt><trkpt lat="43.5215435" lon="10.8182616"><ele>131.0</ele><time>2026-04-18T07:47:43.495Z</time></trkpt><trkpt lat="43.5214707" lon="10.818354"><ele>131.0</ele><time>2026-04-18T07:47:45.5Z</time></trkpt><trkpt lat="43.5213922" lon="10.818426"><ele>131.0</ele><time>2026-04-18T07:47:47.496Z</time></trkpt><trkpt lat="43.5213502" lon="10.8185496"><ele>131.0</ele><time>2026-04-18T07:47:49.5Z</time></trkpt><trkpt lat="43.5213097" lon="10.8186419"><ele>131.0</ele><time>2026-04-18T07:47:51.49Z</time></trkpt><trkpt lat="43.5213009" lon="10.8187867"><ele>131.0</ele><time>2026-04-18T07:47:53.49Z</time></trkpt><trkpt lat="43.5213095" lon="10.8188756"><ele>131.0</ele><time>2026-04-18T07:47:54.493Z</time></trkpt><trkpt lat="43.5213182" lon="10.8189879"><ele>130.16666666666666</ele><time>2026-04-18T07:47:55.49Z</time></trkpt><trkpt lat="43.5213641" lon="10.8190987"><ele>129.33333333333331</ele><time>2026-04-18T07:47:56.486Z</time></trkpt><trkpt lat="43.5214153" lon="10.8192097"><ele>128.5</ele><time>2026-04-18T07:47:57.498Z</time></trkpt><trkpt lat="43.5214548" lon="10.8193136"><ele>127.66666666666666</ele><time>2026-04-18T07:47:58.489Z</time></trkpt><trkpt lat="43.5214697" lon="10.8194221"><ele>126.83333333333333</ele><time>2026-04-18T07:47:59.489Z</time></trkpt><trkpt lat="43.5214911" lon="10.8195372"><ele>126.0</ele><time>2026-04-18T07:48:00.497Z</time></trkpt><trkpt lat="43.5214898" lon="10.8196576"><ele>124.16666666666667</ele><time>2026-04-18T07:48:01.487Z</time></trkpt><trkpt lat="43.5214627" lon="10.8197825"><ele>122.33333333333334</ele><time>2026-04-18T07:48:02.498Z</time></trkpt><trkpt lat="43.5214252" lon="10.8198827"><ele>120.5</ele><time>2026-04-18T07:48:03.497Z</time></trkpt><trkpt lat="43.521372" lon="10.8199994"><ele>118.66666666666667</ele><time>2026-04-18T07:48:04.493Z</time></trkpt><trkpt lat="43.5213393" lon="10.8200981"><ele>116.83333333333334</ele><time>2026-04-18T07:48:05.502Z</time></trkpt><trkpt lat="43.5213154" lon="10.8202094"><ele>115.0</ele><time>2026-04-18T07:48:06.494Z</time></trkpt><trkpt lat="43.5212955" lon="10.8203237"><ele>113.66666666666667</ele><time>2026-04-18T07:48:07.499Z</time></trkpt><trkpt lat="43.5213027" lon="10.8204397"><ele>112.33333333333334</ele><time>2026-04-18T07:48:08.497Z</time></trkpt><trkpt lat="43.5213079" lon="10.8205587"><ele>111.0</ele><time>2026-04-18T07:48:09.487Z</time></trkpt><trkpt lat="43.521318" lon="10.8206702"><ele>109.66666666666666</ele><time>2026-04-18T07:48:10.494Z</time></trkpt><trkpt lat="43.5213237" lon="10.8207922"><ele>108.33333333333333</ele><time>2026-04-18T07:48:11.496Z</time></trkpt><trkpt lat="43.5213312" lon="10.8209138"><ele>107.0</ele><time>2026-04-18T07:48:12.493Z</time></trkpt><trkpt lat="43.5213307" lon="10.8210366"><ele>106.6</ele><time>2026-04-18T07:48:13.501Z</time></trkpt><trkpt lat="43.5213382" lon="10.8211561"><ele>106.19999999999999</ele><time>2026-04-18T07:48:14.498Z</time></trkpt><trkpt lat="43.5213435" lon="10.8212983"><ele>105.8</ele><time>2026-04-18T07:48:15.496Z</time></trkpt><trkpt lat="43.5213498" lon="10.8214278"><ele>105.4</ele><time>2026-04-18T07:48:16.493Z</time></trkpt><trkpt lat="43.5213617" lon="10.821548"><ele>105.0</ele><time>2026-04-18T07:48:17.492Z</time></trkpt><trkpt lat="43.5213731" lon="10.8216542"><ele>105.0</ele><time>2026-04-18T07:48:18.48Z</time></trkpt><trkpt lat="43.5213769" lon="10.8217434"><ele>105.0</ele><time>2026-04-18T07:48:19.508Z</time></trkpt><trkpt lat="43.5213728" lon="10.8218441"><ele>105.0</ele><time>2026-04-18T07:48:20.495Z</time></trkpt><trkpt lat="43.5213731" lon="10.8219459"><ele>105.0</ele><time>2026-04-18T07:48:21.499Z</time></trkpt><trkpt lat="43.521382" lon="10.8220449"><ele>105.0</ele><time>2026-04-18T07:48:22.497Z</time></trkpt><trkpt lat="43.5213933" lon="10.8221328"><ele>105.0</ele><time>2026-04-18T07:48:23.499Z</time></trkpt><trkpt lat="43.5213973" lon="10.8222235"><ele>105.0</ele><time>2026-04-18T07:48:24.5Z</time></trkpt><trkpt lat="43.5214018" lon="10.8223133"><ele>104.8</ele><time>2026-04-18T07:48:25.494Z</time></trkpt><trkpt lat="43.5214337" lon="10.8224654"><ele>104.6</ele><time>2026-04-18T07:48:27.5Z</time></trkpt><trkpt lat="43.5214884" lon="10.8226007"><ele>104.4</ele><time>2026-04-18T07:48:29.495Z</time></trkpt><trkpt lat="43.5215638" lon="10.8226653"><ele>104.2</ele><time>2026-04-18T07:48:31.494Z</time></trkpt><trkpt lat="43.5216622" lon="10.8227085"><ele>104.0</ele><time>2026-04-18T07:48:33.486Z</time></trkpt><trkpt lat="43.5217409" lon="10.8227955"><ele>103.80000000000001</ele><time>2026-04-18T07:48:35.495Z</time></trkpt><trkpt lat="43.5218045" lon="10.8229057"><ele>103.60000000000001</ele><time>2026-04-18T07:48:37.504Z</time></trkpt><trkpt lat="43.5218461" lon="10.823041"><ele>103.4</ele><time>2026-04-18T07:48:39.49Z</time></trkpt><trkpt lat="43.5218747" lon="10.8231908"><ele>103.2</ele><time>2026-04-18T07:48:41.492Z</time></trkpt><trkpt lat="43.5219139" lon="10.823323"><ele>103.0</ele><time>2026-04-18T07:48:43.491Z</time></trkpt><trkpt lat="43.5219584" lon="10.8234594"><ele>103.0</ele><time>2026-04-18T07:48:45.496Z</time></trkpt><trkpt lat="43.5219938" lon="10.8236096"><ele>103.0</ele><time>2026-04-18T07:48:47.492Z</time></trkpt><trkpt lat="43.5220124" lon="10.8237561"><ele>103.0</ele><time>2026-04-18T07:48:49.498Z</time></trkpt><trkpt lat="43.5220019" lon="10.8239039"><ele>103.0</ele><time>2026-04-18T07:48:51.492Z</time></trkpt><trkpt lat="43.5219662" lon="10.8240458"><ele>103.0</ele><time>2026-04-18T07:48:53.489Z</time></trkpt><trkpt lat="43.5219361" lon="10.8241534"><ele>103.0</ele><time>2026-04-18T07:48:55.489Z</time></trkpt><trkpt lat="43.5219017" lon="10.8242741"><ele>103.0</ele><time>2026-04-18T07:48:57.491Z</time></trkpt><trkpt lat="43.5218809" lon="10.8244254"><ele>103.0</ele><time>2026-04-18T07:48:59.491Z</time></trkpt><trkpt lat="43.5218779" lon="10.8246005"><ele>103.0</ele><time>2026-04-18T07:49:01.514Z</time></trkpt><trkpt lat="43.5218919" lon="10.8246931"><ele>103.0</ele><time>2026-04-18T07:49:02.492Z</time></trkpt><trkpt lat="43.5219084" lon="10.8247942"><ele>102.33333333333334</ele><time>2026-04-18T07:49:03.497Z</time></trkpt><trkpt lat="43.5219205" lon="10.8249088"><ele>101.66666666666667</ele><time>2026-04-18T07:49:04.496Z</time></trkpt><trkpt lat="43.5219348" lon="10.8250114"><ele>101.0</ele><time>2026-04-18T07:49:05.496Z</time></trkpt><trkpt lat="43.5219457" lon="10.8251371"><ele>100.33333333333334</ele><time>2026-04-18T07:49:06.503Z</time></trkpt><trkpt lat="43.5219566" lon="10.8252338"><ele>99.66666666666667</ele><time>2026-04-18T07:49:07.494Z</time></trkpt><trkpt lat="43.5219767" lon="10.8253365"><ele>99.0</ele><time>2026-04-18T07:49:08.509Z</time></trkpt><trkpt lat="43.5219974" lon="10.8254344"><ele>98.66666666666667</ele><time>2026-04-18T07:49:09.495Z</time></trkpt><trkpt lat="43.5220143" lon="10.825547"><ele>98.33333333333334</ele><time>2026-04-18T07:49:10.494Z</time></trkpt><trkpt lat="43.5220196" lon="10.8256516"><ele>98.0</ele><time>2026-04-18T07:49:11.485Z</time></trkpt><trkpt lat="43.5220134" lon="10.8257653"><ele>97.66666666666667</ele><time>2026-04-18T07:49:12.482Z</time></trkpt><trkpt lat="43.5219978" lon="10.8258743"><ele>97.33333333333334</ele><time>2026-04-18T07:49:13.49Z</time></trkpt><trkpt lat="43.5219805" lon="10.8259966"><ele>97.0</ele><time>2026-04-18T07:49:14.494Z</time></trkpt><trkpt lat="43.5219702" lon="10.8261127"><ele>97.00000000000001</ele><time>2026-04-18T07:49:15.495Z</time></trkpt><trkpt lat="43.5219629" lon="10.8262276"><ele>97.0</ele><time>2026-04-18T07:49:16.496Z</time></trkpt><trkpt lat="43.5219591" lon="10.8263452"><ele>97.0</ele><time>2026-04-18T07:49:17.499Z</time></trkpt><trkpt lat="43.5219728" lon="10.8264667"><ele>97.0</ele><time>2026-04-18T07:49:18.498Z</time></trkpt><trkpt lat="43.5220025" lon="10.8265803"><ele>97.00000000000001</ele><time>2026-04-18T07:49:19.502Z</time></trkpt><trkpt lat="43.5220291" lon="10.8267024"><ele>97.0</ele><time>2026-04-18T07:49:20.501Z</time></trkpt><trkpt lat="43.5220528" lon="10.8268172"><ele>97.33333333333334</ele><time>2026-04-18T07:49:21.485Z</time></trkpt><trkpt lat="43.5220775" lon="10.8269387"><ele>97.66666666666667</ele><time>2026-04-18T07:49:22.487Z</time></trkpt><trkpt lat="43.5221027" lon="10.8270427"><ele>98.0</ele><time>2026-04-18T07:49:23.493Z</time></trkpt><trkpt lat="43.5221266" lon="10.8271662"><ele>98.33333333333334</ele><time>2026-04-18T07:49:24.491Z</time></trkpt><trkpt lat="43.522151" lon="10.8272788"><ele>98.66666666666667</ele><time>2026-04-18T07:49:25.488Z</time></trkpt><trkpt lat="43.5221718" lon="10.8273884"><ele>99.0</ele><time>2026-04-18T07:49:26.487Z</time></trkpt><trkpt lat="43.522195" lon="10.8274849"><ele>99.0</ele><time>2026-04-18T07:49:27.497Z</time></trkpt><trkpt lat="43.5222202" lon="10.8275747"><ele>99.0</ele><time>2026-04-18T07:49:28.496Z</time></trkpt><trkpt lat="43.5222501" lon="10.8276995"><ele>99.0</ele><time>2026-04-18T07:49:30.492Z</time></trkpt><trkpt lat="43.5222506" lon="10.8278134"><ele>99.0</ele><time>2026-04-18T07:49:32.5Z</time></trkpt><trkpt lat="43.5221814" lon="10.8279147"><ele>99.0</ele><time>2026-04-18T07:49:34.5Z</time></trkpt><trkpt lat="43.522114" lon="10.8280138"><ele>99.0</ele><time>2026-04-18T07:49:36.501Z</time></trkpt><trkpt lat="43.5220276" lon="10.8280819"><ele>100.83333333333333</ele><time>2026-04-18T07:49:38.49Z</time></trkpt><trkpt lat="43.5219281" lon="10.8281013"><ele>102.66666666666666</ele><time>2026-04-18T07:49:40.496Z</time></trkpt><trkpt lat="43.5218355" lon="10.8281059"><ele>104.5</ele><time>2026-04-18T07:49:42.501Z</time></trkpt><trkpt lat="43.5217596" lon="10.8281078"><ele>106.33333333333333</ele><time>2026-04-18T07:49:44.496Z</time></trkpt><trkpt lat="43.5216718" lon="10.8281361"><ele>108.16666666666666</ele><time>2026-04-18T07:49:47.497Z</time></trkpt><trkpt lat="43.5215962" lon="10.8281433"><ele>110.0</ele><time>2026-04-18T07:49:49.498Z</time></trkpt><trkpt lat="43.5215218" lon="10.8281624"><ele>109.99999999999999</ele><time>2026-04-18T07:49:51.498Z</time></trkpt><trkpt lat="43.5214568" lon="10.8281778"><ele>110.0</ele><time>2026-04-18T07:49:53.495Z</time></trkpt><trkpt lat="43.5213898" lon="10.8281881"><ele>110.0</ele><time>2026-04-18T07:49:55.504Z</time></trkpt><trkpt lat="43.5213213" lon="10.8281897"><ele>110.0</ele><time>2026-04-18T07:49:57.5Z</time></trkpt><trkpt lat="43.5212477" lon="10.8281934"><ele>110.0</ele><time>2026-04-18T07:49:59.496Z</time></trkpt><trkpt lat="43.521167" lon="10.8281808"><ele>109.99999999999999</ele><time>2026-04-18T07:50:01.499Z</time></trkpt><trkpt lat="43.521093" lon="10.8281746"><ele>110.0</ele><time>2026-04-18T07:50:03.499Z</time></trkpt><trkpt lat="43.5210134" lon="10.8281617"><ele>112.16666666666666</ele><time>2026-04-18T07:50:05.488Z</time></trkpt><trkpt lat="43.5209328" lon="10.8281709"><ele>114.33333333333333</ele><time>2026-04-18T07:50:07.493Z</time></trkpt><trkpt lat="43.5208593" lon="10.8282035"><ele>116.5</ele><time>2026-04-18T07:50:09.498Z</time></trkpt><trkpt lat="43.5207948" lon="10.8282592"><ele>118.66666666666666</ele><time>2026-04-18T07:50:11.505Z</time></trkpt><trkpt lat="43.5207247" lon="10.828324"><ele>120.83333333333333</ele><time>2026-04-18T07:50:13.498Z</time></trkpt><trkpt lat="43.5206565" lon="10.828377"><ele>123.0</ele><time>2026-04-18T07:50:15.501Z</time></trkpt><trkpt lat="43.5205873" lon="10.8284403"><ele>122.0</ele><time>2026-04-18T07:50:17.507Z</time></trkpt><trkpt lat="43.5205283" lon="10.8284862"><ele>121.0</ele><time>2026-04-18T07:50:20.503Z</time></trkpt><trkpt lat="43.5204527" lon="10.8285393"><ele>120.0</ele><time>2026-04-18T07:50:24.527Z</time></trkpt><trkpt lat="43.5203952" lon="10.8285933"><ele>119.0</ele><time>2026-04-18T07:50:26.502Z</time></trkpt><trkpt lat="43.5203094" lon="10.8286365"><ele>118.0</ele><time>2026-04-18T07:50:28.499Z</time></trkpt><trkpt lat="43.5202451" lon="10.8286791"><ele>117.0</ele><time>2026-04-18T07:50:30.512Z</time></trkpt><trkpt lat="43.5201637" lon="10.8287256"><ele>119.8</ele><time>2026-04-18T07:50:32.503Z</time></trkpt><trkpt lat="43.5200717" lon="10.8287855"><ele>122.6</ele><time>2026-04-18T07:50:34.513Z</time></trkpt><trkpt lat="43.5199845" lon="10.828827"><ele>125.39999999999999</ele><time>2026-04-18T07:50:36.5Z</time></trkpt><trkpt lat="43.519864" lon="10.8288669"><ele>128.2</ele><time>2026-04-18T07:50:38.495Z</time></trkpt><trkpt lat="43.5197877" lon="10.8288937"><ele>131.0</ele><time>2026-04-18T07:50:39.499Z</time></trkpt><trkpt lat="43.5197123" lon="10.8289219"><ele>131.0</ele><time>2026-04-18T07:50:40.509Z</time></trkpt><trkpt lat="43.5196387" lon="10.8289506"><ele>131.0</ele><time>2026-04-18T07:50:41.501Z</time></trkpt><trkpt lat="43.5195664" lon="10.8289682"><ele>131.0</ele><time>2026-04-18T07:50:42.508Z</time></trkpt><trkpt lat="43.5194905" lon="10.8289952"><ele>131.0</ele><time>2026-04-18T07:50:43.504Z</time></trkpt><trkpt lat="43.5194227" lon="10.8290156"><ele>131.0</ele><time>2026-04-18T07:50:44.502Z</time></trkpt><trkpt lat="43.519359" lon="10.8290398"><ele>131.0</ele><time>2026-04-18T07:50:45.5Z</time></trkpt><trkpt lat="43.5192923" lon="10.8290658"><ele>131.0</ele><time>2026-04-18T07:50:46.507Z</time></trkpt><trkpt lat="43.5192243" lon="10.8290985"><ele>131.66666666666666</ele><time>2026-04-18T07:50:47.505Z</time></trkpt><trkpt lat="43.5191584" lon="10.8291196"><ele>132.33333333333331</ele><time>2026-04-18T07:50:48.511Z</time></trkpt><trkpt lat="43.5190948" lon="10.829155"><ele>133.0</ele><time>2026-04-18T07:50:49.513Z</time></trkpt><trkpt lat="43.5190305" lon="10.8291736"><ele>133.66666666666666</ele><time>2026-04-18T07:50:50.501Z</time></trkpt><trkpt lat="43.5189658" lon="10.8292023"><ele>134.33333333333334</ele><time>2026-04-18T07:50:51.504Z</time></trkpt><trkpt lat="43.518845" lon="10.8292477"><ele>135.0</ele><time>2026-04-18T07:50:53.507Z</time></trkpt><trkpt lat="43.5187309" lon="10.8292945"><ele>136.33333333333334</ele><time>2026-04-18T07:50:55.504Z</time></trkpt><trkpt lat="43.5186691" lon="10.8293316"><ele>137.66666666666666</ele><time>2026-04-18T07:50:56.506Z</time></trkpt><trkpt lat="43.5185642" lon="10.8293921"><ele>139.0</ele><time>2026-04-18T07:50:58.496Z</time></trkpt><trkpt lat="43.5184985" lon="10.8294228"><ele>140.33333333333331</ele><time>2026-04-18T07:51:00.502Z</time></trkpt><trkpt lat="43.5184155" lon="10.829467"><ele>141.66666666666666</ele><time>2026-04-18T07:51:03.504Z</time></trkpt><trkpt lat="43.5183138" lon="10.8295049"><ele>143.0</ele><time>2026-04-18T07:51:06.509Z</time></trkpt><trkpt lat="43.5182515" lon="10.8295269"><ele>142.99999999999997</ele><time>2026-04-18T07:51:08.497Z</time></trkpt><trkpt lat="43.518184" lon="10.8295437"><ele>143.0</ele><time>2026-04-18T07:51:10.495Z</time></trkpt><trkpt lat="43.5181239" lon="10.8295744"><ele>143.0</ele><time>2026-04-18T07:51:12.501Z</time></trkpt><trkpt lat="43.5180588" lon="10.829601"><ele>143.0</ele><time>2026-04-18T07:51:14.504Z</time></trkpt><trkpt lat="43.5179941" lon="10.8296251"><ele>143.0</ele><time>2026-04-18T07:51:16.502Z</time></trkpt><trkpt lat="43.5179026" lon="10.8296419"><ele>142.99999999999997</ele><time>2026-04-18T07:51:18.513Z</time></trkpt><trkpt lat="43.5178393" lon="10.8296586"><ele>143.0</ele><time>2026-04-18T07:51:20.502Z</time></trkpt><trkpt lat="43.5177779" lon="10.8296804"><ele>146.4</ele><time>2026-04-18T07:51:22.499Z</time></trkpt><trkpt lat="43.5177147" lon="10.8297182"><ele>149.8</ele><time>2026-04-18T07:51:24.512Z</time></trkpt><trkpt lat="43.5176247" lon="10.8297635"><ele>153.2</ele><time>2026-04-18T07:51:27.503Z</time></trkpt><trkpt lat="43.5175601" lon="10.8298009"><ele>156.6</ele><time>2026-04-18T07:51:29.503Z</time></trkpt><trkpt lat="43.5174865" lon="10.8298314"><ele>160.0</ele><time>2026-04-18T07:51:32.502Z</time></trkpt><trkpt lat="43.5173729" lon="10.8299898"><ele>160.0</ele><time>2026-04-18T07:51:38.498Z</time></trkpt><trkpt lat="43.5173315" lon="10.8300739"><ele>160.0</ele><time>2026-04-18T07:51:41.508Z</time></trkpt><trkpt lat="43.5172897" lon="10.8301748"><ele>160.0</ele><time>2026-04-18T07:51:44.516Z</time></trkpt><trkpt lat="43.5172386" lon="10.8302287"><ele>160.0</ele><time>2026-04-18T07:51:47.509Z</time></trkpt><trkpt lat="43.5172034" lon="10.8303146"><ele>160.0</ele><time>2026-04-18T07:52:10.525Z</time></trkpt><trkpt lat="43.5171731" lon="10.8303996"><ele>160.0</ele><time>2026-04-18T07:52:13.514Z</time></trkpt><trkpt lat="43.517125" lon="10.8305007"><ele>159.66666666666669</ele><time>2026-04-18T07:52:17.511Z</time></trkpt><trkpt lat="43.5170765" lon="10.8306038"><ele>159.33333333333334</ele><time>2026-04-18T07:52:20.518Z</time></trkpt><trkpt lat="43.5170372" lon="10.8306829"><ele>159.0</ele><time>2026-04-18T07:52:22.48Z</time></trkpt><trkpt lat="43.5169781" lon="10.8307819"><ele>158.66666666666666</ele><time>2026-04-18T07:52:25.501Z</time></trkpt><trkpt lat="43.5169237" lon="10.8308685"><ele>158.33333333333331</ele><time>2026-04-18T07:52:28.499Z</time></trkpt><trkpt lat="43.5168816" lon="10.8309556"><ele>158.0</ele><time>2026-04-18T07:52:31.501Z</time></trkpt><trkpt lat="43.5168311" lon="10.8310538"><ele>161.16666666666666</ele><time>2026-04-18T07:52:34.496Z</time></trkpt><trkpt lat="43.5167871" lon="10.8311474"><ele>164.33333333333331</ele><time>2026-04-18T07:52:37.498Z</time></trkpt><trkpt lat="43.5167541" lon="10.8312223"><ele>167.5</ele><time>2026-04-18T07:52:39.485Z</time></trkpt><trkpt lat="43.5167052" lon="10.8313156"><ele>170.66666666666666</ele><time>2026-04-18T07:52:42.504Z</time></trkpt><trkpt lat="43.5166561" lon="10.8314089"><ele>173.83333333333334</ele><time>2026-04-18T07:52:45.501Z</time></trkpt><trkpt lat="43.5166173" lon="10.8314852"><ele>177.0</ele><time>2026-04-18T07:52:47.504Z</time></trkpt><trkpt lat="43.5165536" lon="10.8315851"><ele>177.0</ele><time>2026-04-18T07:52:50.515Z</time></trkpt><trkpt lat="43.516509" lon="10.8316708"><ele>177.0</ele><time>2026-04-18T07:52:53.503Z</time></trkpt><trkpt lat="43.5164605" lon="10.8317403"><ele>177.0</ele><time>2026-04-18T07:52:55.501Z</time></trkpt><trkpt lat="43.5163875" lon="10.8318198"><ele>177.0</ele><time>2026-04-18T07:52:58.497Z</time></trkpt><trkpt lat="43.5163067" lon="10.8318522"><ele>177.0</ele><time>2026-04-18T07:53:00.494Z</time></trkpt><trkpt lat="43.5162362" lon="10.8318571"><ele>177.0</ele><time>2026-04-18T07:53:02.513Z</time></trkpt><trkpt lat="43.5161594" lon="10.8318553"><ele>176.16666666666666</ele><time>2026-04-18T07:53:04.537Z</time></trkpt><trkpt lat="43.5160944" lon="10.8318421"><ele>175.33333333333334</ele><time>2026-04-18T07:53:06.507Z</time></trkpt><trkpt lat="43.5160157" lon="10.8318258"><ele>174.5</ele><time>2026-04-18T07:53:08.512Z</time></trkpt><trkpt lat="43.5159338" lon="10.8317901"><ele>173.66666666666669</ele><time>2026-04-18T07:53:10.508Z</time></trkpt><trkpt lat="43.515861" lon="10.8317087"><ele>172.83333333333334</ele><time>2026-04-18T07:53:12.519Z</time></trkpt><trkpt lat="43.5158033" lon="10.831619"><ele>172.0</ele><time>2026-04-18T07:53:14.506Z</time></trkpt><trkpt lat="43.5157457" lon="10.8315394"><ele>174.16666666666669</ele><time>2026-04-18T07:53:16.528Z</time></trkpt><trkpt lat="43.5156998" lon="10.8314622"><ele>176.33333333333334</ele><time>2026-04-18T07:53:18.497Z</time></trkpt><trkpt lat="43.5156249" lon="10.8314052"><ele>178.5</ele><time>2026-04-18T07:53:20.508Z</time></trkpt><trkpt lat="43.5155533" lon="10.8313421"><ele>180.66666666666666</ele><time>2026-04-18T07:53:22.52Z</time></trkpt><trkpt lat="43.515468" lon="10.8312709"><ele>182.83333333333331</ele><time>2026-04-18T07:53:24.539Z</time></trkpt><trkpt lat="43.5153782" lon="10.831202"><ele>185.0</ele><time>2026-04-18T07:53:26.515Z</time></trkpt><trkpt lat="43.5152704" lon="10.8311292"><ele>185.0</ele><time>2026-04-18T07:53:28.51Z</time></trkpt><trkpt lat="43.5152101" lon="10.8310905"><ele>185.0</ele><time>2026-04-18T07:53:29.526Z</time></trkpt><trkpt lat="43.5151523" lon="10.8310494"><ele>185.0</ele><time>2026-04-18T07:53:30.505Z</time></trkpt><trkpt lat="43.5150913" lon="10.8310106"><ele>185.0</ele><time>2026-04-18T07:53:31.512Z</time></trkpt><trkpt lat="43.5149833" lon="10.8309434"><ele>185.0</ele><time>2026-04-18T07:53:33.523Z</time></trkpt><trkpt lat="43.5149078" lon="10.8309325"><ele>185.0</ele><time>2026-04-18T07:53:34.511Z</time></trkpt><trkpt lat="43.514819" lon="10.8309107"><ele>186.8</ele><time>2026-04-18T07:53:35.524Z</time></trkpt><trkpt lat="43.5147267" lon="10.8309043"><ele>188.6</ele><time>2026-04-18T07:53:36.531Z</time></trkpt><trkpt lat="43.5146102" lon="10.8309101"><ele>190.39999999999998</ele><time>2026-04-18T07:53:37.501Z</time></trkpt><trkpt lat="43.5144864" lon="10.8309324"><ele>192.2</ele><time>2026-04-18T07:53:38.505Z</time></trkpt><trkpt lat="43.5143815" lon="10.8309433"><ele>194.0</ele><time>2026-04-18T07:53:39.541Z</time></trkpt><trkpt lat="43.5142942" lon="10.8309645"><ele>193.28571428571428</ele><time>2026-04-18T07:53:40.511Z</time></trkpt><trkpt lat="43.5142222" lon="10.8309902"><ele>192.57142857142858</ele><time>2026-04-18T07:53:41.511Z</time></trkpt><trkpt lat="43.5141588" lon="10.8310004"><ele>191.85714285714286</ele><time>2026-04-18T07:53:42.508Z</time></trkpt><trkpt lat="43.5140847" lon="10.8310146"><ele>191.14285714285714</ele><time>2026-04-18T07:53:43.519Z</time></trkpt><trkpt lat="43.5140067" lon="10.8310148"><ele>190.42857142857144</ele><time>2026-04-18T07:53:44.501Z</time></trkpt><trkpt lat="43.5139326" lon="10.8310199"><ele>189.71428571428572</ele><time>2026-04-18T07:53:45.498Z</time></trkpt><trkpt lat="43.5138636" lon="10.831014"><ele>189.0</ele><time>2026-04-18T07:53:46.52Z</time></trkpt><trkpt lat="43.5137883" lon="10.8310166"><ele>192.0</ele><time>2026-04-18T07:53:47.503Z</time></trkpt><trkpt lat="43.5137047" lon="10.8310462"><ele>195.0</ele><time>2026-04-18T07:53:48.515Z</time></trkpt><trkpt lat="43.5136181" lon="10.831081"><ele>198.0</ele><time>2026-04-18T07:53:49.503Z</time></trkpt><trkpt lat="43.5135371" lon="10.8311388"><ele>201.0</ele><time>2026-04-18T07:53:50.531Z</time></trkpt><trkpt lat="43.5134226" lon="10.8312027"><ele>204.0</ele><time>2026-04-18T07:53:52.516Z</time></trkpt><trkpt lat="43.5133608" lon="10.831221"><ele>204.0</ele><time>2026-04-18T07:53:53.511Z</time></trkpt><trkpt lat="43.5132936" lon="10.831241"><ele>204.0</ele><time>2026-04-18T07:53:54.494Z</time></trkpt><trkpt lat="43.5132235" lon="10.8312786"><ele>204.0</ele><time>2026-04-18T07:53:55.507Z</time></trkpt><trkpt lat="43.5131585" lon="10.8313581"><ele>204.0</ele><time>2026-04-18T07:53:56.501Z</time></trkpt><trkpt lat="43.5130869" lon="10.8314482"><ele>204.0</ele><time>2026-04-18T07:53:57.513Z</time></trkpt><trkpt lat="43.5130305" lon="10.8315484"><ele>204.0</ele><time>2026-04-18T07:53:58.506Z</time></trkpt><trkpt lat="43.512979" lon="10.8316374"><ele>204.0</ele><time>2026-04-18T07:53:59.516Z</time></trkpt><trkpt lat="43.5129288" lon="10.8317197"><ele>204.0</ele><time>2026-04-18T07:54:00.512Z</time></trkpt><trkpt lat="43.5128791" lon="10.8317982"><ele>204.0</ele><time>2026-04-18T07:54:01.511Z</time></trkpt><trkpt lat="43.5128049" lon="10.8318627"><ele>204.0</ele><time>2026-04-18T07:54:02.524Z</time></trkpt><trkpt lat="43.5127396" lon="10.8319216"><ele>204.0</ele><time>2026-04-18T07:54:03.509Z</time></trkpt><trkpt lat="43.5126789" lon="10.8319649"><ele>204.0</ele><time>2026-04-18T07:54:04.505Z</time></trkpt><trkpt lat="43.5125684" lon="10.8320302"><ele>205.6</ele><time>2026-04-18T07:54:06.51Z</time></trkpt><trkpt lat="43.512476" lon="10.8321079"><ele>207.2</ele><time>2026-04-18T07:54:08.489Z</time></trkpt><trkpt lat="43.5123763" lon="10.8321454"><ele>208.79999999999998</ele><time>2026-04-18T07:54:10.495Z</time></trkpt><trkpt lat="43.5122704" lon="10.8322117"><ele>210.39999999999998</ele><time>2026-04-18T07:54:12.505Z</time></trkpt><trkpt lat="43.5122182" lon="10.832262"><ele>212.0</ele><time>2026-04-18T07:54:13.506Z</time></trkpt><trkpt lat="43.512171" lon="10.8323205"><ele>212.00000000000003</ele><time>2026-04-18T07:54:14.505Z</time></trkpt><trkpt lat="43.5120886" lon="10.8324122"><ele>212.0</ele><time>2026-04-18T07:54:16.509Z</time></trkpt><trkpt lat="43.5120294" lon="10.832543"><ele>212.0</ele><time>2026-04-18T07:54:18.509Z</time></trkpt><trkpt lat="43.5120004" lon="10.832638"><ele>212.0</ele><time>2026-04-18T07:54:19.51Z</time></trkpt><trkpt lat="43.5119715" lon="10.8327388"><ele>212.00000000000003</ele><time>2026-04-18T07:54:20.517Z</time></trkpt><trkpt lat="43.511937" lon="10.8328345"><ele>212.0</ele><time>2026-04-18T07:54:21.489Z</time></trkpt><trkpt lat="43.5118981" lon="10.8329426"><ele>209.83333333333334</ele><time>2026-04-18T07:54:22.517Z</time></trkpt><trkpt lat="43.511857" lon="10.8330496"><ele>207.66666666666669</ele><time>2026-04-18T07:54:23.501Z</time></trkpt><trkpt lat="43.5118056" lon="10.8331524"><ele>205.5</ele><time>2026-04-18T07:54:24.524Z</time></trkpt><trkpt lat="43.5117494" lon="10.8332504"><ele>203.33333333333331</ele><time>2026-04-18T07:54:25.523Z</time></trkpt><trkpt lat="43.5116925" lon="10.8333282"><ele>201.16666666666666</ele><time>2026-04-18T07:54:26.505Z</time></trkpt><trkpt lat="43.5116373" lon="10.8333845"><ele>199.0</ele><time>2026-04-18T07:54:27.519Z</time></trkpt><trkpt lat="43.511576" lon="10.8334356"><ele>199.33333333333331</ele><time>2026-04-18T07:54:28.494Z</time></trkpt><trkpt lat="43.5115201" lon="10.8334805"><ele>199.66666666666666</ele><time>2026-04-18T07:54:29.512Z</time></trkpt><trkpt lat="43.5114516" lon="10.8335338"><ele>200.0</ele><time>2026-04-18T07:54:30.502Z</time></trkpt><trkpt lat="43.5113776" lon="10.8335917"><ele>200.33333333333331</ele><time>2026-04-18T07:54:31.512Z</time></trkpt><trkpt lat="43.5113037" lon="10.833654"><ele>200.66666666666666</ele><time>2026-04-18T07:54:32.498Z</time></trkpt><trkpt lat="43.5112328" lon="10.8337207"><ele>201.0</ele><time>2026-04-18T07:54:33.503Z</time></trkpt><trkpt lat="43.5111605" lon="10.8337779"><ele>201.0</ele><time>2026-04-18T07:54:34.515Z</time></trkpt><trkpt lat="43.5110956" lon="10.833834"><ele>201.0</ele><time>2026-04-18T07:54:35.516Z</time></trkpt><trkpt lat="43.5110263" lon="10.833958"><ele>201.0</ele><time>2026-04-18T07:54:37.505Z</time></trkpt><trkpt lat="43.5110322" lon="10.8340461"><ele>201.0</ele><time>2026-04-18T07:54:38.505Z</time></trkpt><trkpt lat="43.5110545" lon="10.8341429"><ele>201.0</ele><time>2026-04-18T07:54:39.494Z</time></trkpt><trkpt lat="43.5110736" lon="10.8342404"><ele>201.0</ele><time>2026-04-18T07:54:40.505Z</time></trkpt><trkpt lat="43.511086" lon="10.8343506"><ele>200.60000000000002</ele><time>2026-04-18T07:54:41.497Z</time></trkpt><trkpt lat="43.5110943" lon="10.8344716"><ele>200.2</ele><time>2026-04-18T07:54:42.504Z</time></trkpt><trkpt lat="43.5110917" lon="10.8345913"><ele>199.8</ele><time>2026-04-18T07:54:43.51Z</time></trkpt><trkpt lat="43.5110816" lon="10.8347152"><ele>199.39999999999998</ele><time>2026-04-18T07:54:44.522Z</time></trkpt><trkpt lat="43.511065" lon="10.8348395"><ele>199.0</ele><time>2026-04-18T07:54:45.516Z</time></trkpt><trkpt lat="43.5110314" lon="10.8349594"><ele>198.99999999999997</ele><time>2026-04-18T07:54:46.517Z</time></trkpt><trkpt lat="43.5109906" lon="10.8350673"><ele>199.0</ele><time>2026-04-18T07:54:47.519Z</time></trkpt><trkpt lat="43.5109555" lon="10.8351726"><ele>199.0</ele><time>2026-04-18T07:54:48.496Z</time></trkpt><trkpt lat="43.5109204" lon="10.8352876"><ele>199.0</ele><time>2026-04-18T07:54:49.5Z</time></trkpt><trkpt lat="43.5108948" lon="10.8354126"><ele>198.99999999999997</ele><time>2026-04-18T07:54:50.515Z</time></trkpt><trkpt lat="43.510871" lon="10.8355351"><ele>199.0</ele><time>2026-04-18T07:54:51.508Z</time></trkpt><trkpt lat="43.5108484" lon="10.8356562"><ele>197.66666666666666</ele><time>2026-04-18T07:54:52.51Z</time></trkpt><trkpt lat="43.5108376" lon="10.8357762"><ele>196.33333333333331</ele><time>2026-04-18T07:54:53.521Z</time></trkpt><trkpt lat="43.5108252" lon="10.8358871"><ele>195.0</ele><time>2026-04-18T07:54:54.493Z</time></trkpt><trkpt lat="43.5108246" lon="10.8360046"><ele>193.66666666666666</ele><time>2026-04-18T07:54:55.509Z</time></trkpt><trkpt lat="43.5108323" lon="10.8361214"><ele>192.33333333333331</ele><time>2026-04-18T07:54:56.497Z</time></trkpt><trkpt lat="43.5108459" lon="10.8362289"><ele>191.0</ele><time>2026-04-18T07:54:57.532Z</time></trkpt><trkpt lat="43.5108524" lon="10.8363331"><ele>190.83333333333331</ele><time>2026-04-18T07:54:58.503Z</time></trkpt><trkpt lat="43.5108513" lon="10.8364333"><ele>190.66666666666666</ele><time>2026-04-18T07:54:59.516Z</time></trkpt><trkpt lat="43.5108526" lon="10.836532"><ele>190.5</ele><time>2026-04-18T07:55:00.509Z</time></trkpt><trkpt lat="43.5108498" lon="10.8366252"><ele>190.33333333333334</ele><time>2026-04-18T07:55:01.489Z</time></trkpt><trkpt lat="43.5108541" lon="10.8367207"><ele>190.16666666666669</ele><time>2026-04-18T07:55:02.482Z</time></trkpt><trkpt lat="43.5108562" lon="10.8368901"><ele>190.0</ele><time>2026-04-18T07:55:04.506Z</time></trkpt><trkpt lat="43.5108537" lon="10.837052"><ele>190.0</ele><time>2026-04-18T07:55:06.509Z</time></trkpt><trkpt lat="43.5108268" lon="10.8372257"><ele>190.0</ele><time>2026-04-18T07:55:08.488Z</time></trkpt><trkpt lat="43.5107987" lon="10.8373281"><ele>190.0</ele><time>2026-04-18T07:55:09.502Z</time></trkpt><trkpt lat="43.5107728" lon="10.8374297"><ele>190.0</ele><time>2026-04-18T07:55:10.488Z</time></trkpt><trkpt lat="43.5107478" lon="10.8375287"><ele>190.0</ele><time>2026-04-18T07:55:11.483Z</time></trkpt><trkpt lat="43.510725" lon="10.8376171"><ele>190.0</ele><time>2026-04-18T07:55:12.505Z</time></trkpt><trkpt lat="43.5107061" lon="10.8377023"><ele>190.16666666666669</ele><time>2026-04-18T07:55:13.51Z</time></trkpt><trkpt lat="43.5106688" lon="10.8378781"><ele>190.33333333333334</ele><time>2026-04-18T07:55:15.525Z</time></trkpt><trkpt lat="43.5106661" lon="10.8379758"><ele>190.5</ele><time>2026-04-18T07:55:16.524Z</time></trkpt><trkpt lat="43.5106604" lon="10.838078"><ele>190.66666666666666</ele><time>2026-04-18T07:55:17.508Z</time></trkpt><trkpt lat="43.5106651" lon="10.8381777"><ele>190.83333333333331</ele><time>2026-04-18T07:55:18.521Z</time></trkpt><trkpt lat="43.5106772" lon="10.8382707"><ele>191.0</ele><time>2026-04-18T07:55:19.512Z</time></trkpt><trkpt lat="43.5107042" lon="10.8383655"><ele>191.0</ele><time>2026-04-18T07:55:20.519Z</time></trkpt><trkpt lat="43.5107285" lon="10.8384644"><ele>191.0</ele><time>2026-04-18T07:55:21.504Z</time></trkpt><trkpt lat="43.5107498" lon="10.8385592"><ele>191.0</ele><time>2026-04-18T07:55:22.493Z</time></trkpt><trkpt lat="43.5107801" lon="10.8387179"><ele>191.0</ele><time>2026-04-18T07:55:24.519Z</time></trkpt><trkpt lat="43.5107863" lon="10.8388686"><ele>191.0</ele><time>2026-04-18T07:55:26.501Z</time></trkpt><trkpt lat="43.5107627" lon="10.8390229"><ele>190.20000000000002</ele><time>2026-04-18T07:55:28.509Z</time></trkpt><trkpt lat="43.5107391" lon="10.8391598"><ele>189.4</ele><time>2026-04-18T07:55:30.496Z</time></trkpt><trkpt lat="43.5106983" lon="10.8392861"><ele>188.6</ele><time>2026-04-18T07:55:32.501Z</time></trkpt><trkpt lat="43.5106631" lon="10.8394075"><ele>187.8</ele><time>2026-04-18T07:55:34.504Z</time></trkpt><trkpt lat="43.5106444" lon="10.8395224"><ele>187.0</ele><time>2026-04-18T07:55:36.492Z</time></trkpt><trkpt lat="43.5106398" lon="10.8396198"><ele>186.39999999999998</ele><time>2026-04-18T07:55:38.506Z</time></trkpt><trkpt lat="43.5106364" lon="10.8397079"><ele>185.79999999999998</ele><time>2026-04-18T07:57:27.493Z</time></trkpt><trkpt lat="43.5106442" lon="10.8398282"><ele>185.2</ele><time>2026-04-18T07:57:30.499Z</time></trkpt><trkpt lat="43.5106592" lon="10.8399675"><ele>184.6</ele><time>2026-04-18T07:57:32.488Z</time></trkpt><trkpt lat="43.5106824" lon="10.8401394"><ele>184.0</ele><time>2026-04-18T07:57:34.499Z</time></trkpt><trkpt lat="43.510695" lon="10.8402433"><ele>183.5</ele><time>2026-04-18T07:57:35.489Z</time></trkpt><trkpt lat="43.5107109" lon="10.8403492"><ele>183.0</ele><time>2026-04-18T07:57:36.51Z</time></trkpt><trkpt lat="43.5107252" lon="10.8404524"><ele>182.5</ele><time>2026-04-18T07:57:37.501Z</time></trkpt><trkpt lat="43.5107479" lon="10.8405608"><ele>182.0</ele><time>2026-04-18T07:57:38.501Z</time></trkpt><trkpt lat="43.5107644" lon="10.8406825"><ele>181.5</ele><time>2026-04-18T07:57:39.495Z</time></trkpt><trkpt lat="43.5107863" lon="10.840815"><ele>181.0</ele><time>2026-04-18T07:57:40.502Z</time></trkpt><trkpt lat="43.5107972" lon="10.8409612"><ele>181.4</ele><time>2026-04-18T07:57:41.499Z</time></trkpt><trkpt lat="43.5108084" lon="10.8411081"><ele>181.8</ele><time>2026-04-18T07:57:42.495Z</time></trkpt><trkpt lat="43.5108186" lon="10.8412702"><ele>182.20000000000002</ele><time>2026-04-18T07:57:43.498Z</time></trkpt><trkpt lat="43.5108296" lon="10.8414272"><ele>182.60000000000002</ele><time>2026-04-18T07:57:44.495Z</time></trkpt><trkpt lat="43.5108465" lon="10.8415727"><ele>183.0</ele><time>2026-04-18T07:57:45.495Z</time></trkpt><trkpt lat="43.510866" lon="10.8417068"><ele>183.4</ele><time>2026-04-18T07:57:46.499Z</time></trkpt><trkpt lat="43.5108874" lon="10.8418281"><ele>183.8</ele><time>2026-04-18T07:57:47.504Z</time></trkpt><trkpt lat="43.5109209" lon="10.8419468"><ele>184.2</ele><time>2026-04-18T07:57:48.495Z</time></trkpt><trkpt lat="43.5109679" lon="10.8420572"><ele>184.6</ele><time>2026-04-18T07:57:49.513Z</time></trkpt><trkpt lat="43.5110136" lon="10.8421707"><ele>185.0</ele><time>2026-04-18T07:57:50.5Z</time></trkpt><trkpt lat="43.5110484" lon="10.8422809"><ele>185.0</ele><time>2026-04-18T07:57:51.492Z</time></trkpt><trkpt lat="43.5110742" lon="10.8424081"><ele>185.0</ele><time>2026-04-18T07:57:52.496Z</time></trkpt><trkpt lat="43.5110911" lon="10.842543"><ele>185.0</ele><time>2026-04-18T07:57:53.488Z</time></trkpt><trkpt lat="43.5110989" lon="10.8426754"><ele>185.0</ele><time>2026-04-18T07:57:54.503Z</time></trkpt><trkpt lat="43.5111043" lon="10.8428219"><ele>185.0</ele><time>2026-04-18T07:57:55.492Z</time></trkpt><trkpt lat="43.5111019" lon="10.8429706"><ele>184.6</ele><time>2026-04-18T07:57:56.498Z</time></trkpt><trkpt lat="43.511089" lon="10.8431116"><ele>184.2</ele><time>2026-04-18T07:57:57.497Z</time></trkpt><trkpt lat="43.5110676" lon="10.8432645"><ele>183.8</ele><time>2026-04-18T07:57:58.501Z</time></trkpt><trkpt lat="43.5110427" lon="10.8434051"><ele>183.4</ele><time>2026-04-18T07:57:59.497Z</time></trkpt><trkpt lat="43.5110176" lon="10.8435531"><ele>183.0</ele><time>2026-04-18T07:58:00.503Z</time></trkpt><trkpt lat="43.511001" lon="10.8436849"><ele>182.33333333333334</ele><time>2026-04-18T07:58:01.508Z</time></trkpt><trkpt lat="43.510986" lon="10.8438056"><ele>181.66666666666666</ele><time>2026-04-18T07:58:02.496Z</time></trkpt><trkpt lat="43.5109845" lon="10.8439246"><ele>181.0</ele><time>2026-04-18T07:58:03.493Z</time></trkpt><trkpt lat="43.5109942" lon="10.8440424"><ele>180.33333333333331</ele><time>2026-04-18T07:58:04.493Z</time></trkpt><trkpt lat="43.5110067" lon="10.8441672"><ele>179.66666666666666</ele><time>2026-04-18T07:58:05.499Z</time></trkpt><trkpt lat="43.5110187" lon="10.8442893"><ele>179.0</ele><time>2026-04-18T07:58:06.504Z</time></trkpt><trkpt lat="43.5110317" lon="10.8444172"><ele>178.16666666666666</ele><time>2026-04-18T07:58:07.487Z</time></trkpt><trkpt lat="43.5110488" lon="10.8445353"><ele>177.33333333333331</ele><time>2026-04-18T07:58:08.517Z</time></trkpt><trkpt lat="43.5110629" lon="10.8446403"><ele>176.5</ele><time>2026-04-18T07:58:09.496Z</time></trkpt><trkpt lat="43.5111085" lon="10.8447479"><ele>175.66666666666666</ele><time>2026-04-18T07:58:11.497Z</time></trkpt><trkpt lat="43.5111471" lon="10.8448257"><ele>174.83333333333334</ele><time>2026-04-18T07:58:15.495Z</time></trkpt><trkpt lat="43.5111958" lon="10.844927"><ele>174.0</ele><time>2026-04-18T07:58:17.5Z</time></trkpt><trkpt lat="43.5112496" lon="10.8450221"><ele>173.6</ele><time>2026-04-18T07:58:19.494Z</time></trkpt><trkpt lat="43.5113041" lon="10.8451239"><ele>173.2</ele><time>2026-04-18T07:58:21.503Z</time></trkpt><trkpt lat="43.5113631" lon="10.8452453"><ele>172.79999999999998</ele><time>2026-04-18T07:58:23.493Z</time></trkpt><trkpt lat="43.511422" lon="10.8453461"><ele>172.39999999999998</ele><time>2026-04-18T07:58:25.494Z</time></trkpt><trkpt lat="43.5114919" lon="10.8454376"><ele>172.0</ele><time>2026-04-18T07:58:27.504Z</time></trkpt><trkpt lat="43.5115488" lon="10.84557"><ele>172.71428571428572</ele><time>2026-04-18T07:58:29.509Z</time></trkpt><trkpt lat="43.5115888" lon="10.8456422"><ele>173.42857142857144</ele><time>2026-04-18T07:58:30.497Z</time></trkpt><trkpt lat="43.5116273" lon="10.845716"><ele>174.14285714285717</ele><time>2026-04-18T07:58:31.501Z</time></trkpt><trkpt lat="43.5116618" lon="10.8457928"><ele>174.85714285714286</ele><time>2026-04-18T07:58:32.503Z</time></trkpt><trkpt lat="43.5116894" lon="10.8458724"><ele>175.57142857142856</ele><time>2026-04-18T07:58:33.5Z</time></trkpt><trkpt lat="43.5117179" lon="10.8459525"><ele>176.2857142857143</ele><time>2026-04-18T07:58:34.494Z</time></trkpt><trkpt lat="43.5117315" lon="10.8460424"><ele>177.0</ele><time>2026-04-18T07:58:35.494Z</time></trkpt><trkpt lat="43.5117375" lon="10.8461453"><ele>177.2857142857143</ele><time>2026-04-18T07:58:36.497Z</time></trkpt><trkpt lat="43.5117445" lon="10.8462383"><ele>177.57142857142856</ele><time>2026-04-18T07:58:37.503Z</time></trkpt><trkpt lat="43.5117431" lon="10.8463378"><ele>177.85714285714286</ele><time>2026-04-18T07:58:38.495Z</time></trkpt><trkpt lat="43.5117273" lon="10.8464361"><ele>178.14285714285717</ele><time>2026-04-18T07:58:39.503Z</time></trkpt><trkpt lat="43.511718" lon="10.846537"><ele>178.42857142857144</ele><time>2026-04-18T07:58:40.494Z</time></trkpt><trkpt lat="43.5117062" lon="10.8466314"><ele>178.71428571428572</ele><time>2026-04-18T07:58:41.503Z</time></trkpt><trkpt lat="43.5116867" lon="10.846721"><ele>179.0</ele><time>2026-04-18T07:58:42.494Z</time></trkpt><trkpt lat="43.5116547" lon="10.8468744"><ele>179.0</ele><time>2026-04-18T07:58:44.494Z</time></trkpt><trkpt lat="43.5116391" lon="10.8470278"><ele>179.0</ele><time>2026-04-18T07:58:46.491Z</time></trkpt><trkpt lat="43.5116212" lon="10.8471625"><ele>179.0</ele><time>2026-04-18T07:58:48.485Z</time></trkpt><trkpt lat="43.5116276" lon="10.8472507"><ele>179.0</ele><time>2026-04-18T07:58:50.492Z</time></trkpt><trkpt lat="43.5116353" lon="10.8473456"><ele>179.0</ele><time>2026-04-18T07:58:53.502Z</time></trkpt><trkpt lat="43.5116498" lon="10.847437"><ele>179.0</ele><time>2026-04-18T07:58:57.502Z</time></trkpt><trkpt lat="43.5116611" lon="10.8475451"><ele>179.0</ele><time>2026-04-18T07:59:00.498Z</time></trkpt><trkpt lat="43.5116776" lon="10.8476426"><ele>179.0</ele><time>2026-04-18T07:59:03.503Z</time></trkpt><trkpt lat="43.5116869" lon="10.8477307"><ele>179.0</ele><time>2026-04-18T07:59:05.498Z</time></trkpt><trkpt lat="43.5117082" lon="10.8478625"><ele>179.0</ele><time>2026-04-18T07:59:08.503Z</time></trkpt><trkpt lat="43.5117144" lon="10.8479498"><ele>179.0</ele><time>2026-04-18T07:59:10.485Z</time></trkpt><trkpt lat="43.5117244" lon="10.8480912"><ele>179.0</ele><time>2026-04-18T07:59:13.487Z</time></trkpt><trkpt lat="43.5117339" lon="10.8481781"><ele>179.0</ele><time>2026-04-18T07:59:15.492Z</time></trkpt><trkpt lat="43.511759" lon="10.8482916"><ele>179.0</ele><time>2026-04-18T07:59:18.499Z</time></trkpt><trkpt lat="43.5117924" lon="10.8483965"><ele>179.0</ele><time>2026-04-18T07:59:21.478Z</time></trkpt><trkpt lat="43.5118308" lon="10.8484878"><ele>179.0</ele><time>2026-04-18T07:59:24.494Z</time></trkpt><trkpt lat="43.5118524" lon="10.848571"><ele>179.0</ele><time>2026-04-18T07:59:26.48Z</time></trkpt><trkpt lat="43.5118846" lon="10.8486684"><ele>179.0</ele><time>2026-04-18T07:59:28.498Z</time></trkpt><trkpt lat="43.5119095" lon="10.8487601"><ele>178.66666666666666</ele><time>2026-04-18T07:59:30.536Z</time></trkpt><trkpt lat="43.5119337" lon="10.8488716"><ele>178.33333333333331</ele><time>2026-04-18T07:59:32.525Z</time></trkpt><trkpt lat="43.5119694" lon="10.8489538"><ele>178.0</ele><time>2026-04-18T07:59:34.525Z</time></trkpt><trkpt lat="43.5119954" lon="10.8490445"><ele>177.66666666666666</ele><time>2026-04-18T07:59:36.491Z</time></trkpt><trkpt lat="43.512043" lon="10.8491362"><ele>177.33333333333334</ele><time>2026-04-18T07:59:38.527Z</time></trkpt><trkpt lat="43.5120987" lon="10.8492221"><ele>177.0</ele><time>2026-04-18T07:59:40.537Z</time></trkpt><trkpt lat="43.5121508" lon="10.8493117"><ele>176.33333333333334</ele><time>2026-04-18T07:59:42.53Z</time></trkpt><trkpt lat="43.5122005" lon="10.8494052"><ele>175.66666666666666</ele><time>2026-04-18T07:59:44.486Z</time></trkpt><trkpt lat="43.5122536" lon="10.8494871"><ele>175.0</ele><time>2026-04-18T07:59:46.517Z</time></trkpt><trkpt lat="43.5123074" lon="10.8495741"><ele>174.33333333333331</ele><time>2026-04-18T07:59:48.524Z</time></trkpt><trkpt lat="43.5123591" lon="10.8496643"><ele>173.66666666666666</ele><time>2026-04-18T07:59:50.506Z</time></trkpt><trkpt lat="43.5124204" lon="10.8497637"><ele>173.0</ele><time>2026-04-18T07:59:52.543Z</time></trkpt><trkpt lat="43.5124775" lon="10.8498523"><ele>173.0</ele><time>2026-04-18T07:59:54.52Z</time></trkpt><trkpt lat="43.5125476" lon="10.849933"><ele>173.0</ele><time>2026-04-18T07:59:56.493Z</time></trkpt><trkpt lat="43.5126092" lon="10.8500034"><ele>173.0</ele><time>2026-04-18T07:59:58.503Z</time></trkpt><trkpt lat="43.5126684" lon="10.8500895"><ele>173.0</ele><time>2026-04-18T08:00:00.543Z</time></trkpt><trkpt lat="43.5127926" lon="10.8502127"><ele>173.0</ele><time>2026-04-18T08:00:03.532Z</time></trkpt><trkpt lat="43.5128616" lon="10.8502905"><ele>172.5</ele><time>2026-04-18T08:00:05.507Z</time></trkpt><trkpt lat="43.5129256" lon="10.8503858"><ele>172.0</ele><time>2026-04-18T08:00:07.536Z</time></trkpt><trkpt lat="43.5129879" lon="10.850458"><ele>171.5</ele><time>2026-04-18T08:00:09.53Z</time></trkpt><trkpt lat="43.5130502" lon="10.8505436"><ele>171.0</ele><time>2026-04-18T08:00:11.526Z</time></trkpt><trkpt lat="43.5130978" lon="10.8506376"><ele>170.5</ele><time>2026-04-18T08:00:13.554Z</time></trkpt><trkpt lat="43.513152" lon="10.8507312"><ele>170.0</ele><time>2026-04-18T08:00:15.521Z</time></trkpt><trkpt lat="43.5131744" lon="10.8508373"><ele>170.0</ele><time>2026-04-18T08:00:17.524Z</time></trkpt><trkpt lat="43.5131626" lon="10.8509466"><ele>170.0</ele><time>2026-04-18T08:00:19.506Z</time></trkpt><trkpt lat="43.5131277" lon="10.8510269"><ele>170.0</ele><time>2026-04-18T08:00:21.538Z</time></trkpt><trkpt lat="43.5130907" lon="10.8511087"><ele>170.0</ele><time>2026-04-18T08:00:23.543Z</time></trkpt><trkpt lat="43.5130567" lon="10.8512037"><ele>170.0</ele><time>2026-04-18T08:00:25.525Z</time></trkpt><trkpt lat="43.5130347" lon="10.8513159"><ele>170.0</ele><time>2026-04-18T08:00:27.541Z</time></trkpt><trkpt lat="43.5130143" lon="10.8514144"><ele>170.33333333333331</ele><time>2026-04-18T08:00:29.51Z</time></trkpt><trkpt lat="43.5130028" lon="10.8515309"><ele>170.66666666666666</ele><time>2026-04-18T08:00:31.522Z</time></trkpt><trkpt lat="43.5129908" lon="10.8516334"><ele>171.0</ele><time>2026-04-18T08:00:33.52Z</time></trkpt><trkpt lat="43.5129754" lon="10.8517342"><ele>171.33333333333334</ele><time>2026-04-18T08:00:35.531Z</time></trkpt><trkpt lat="43.5129597" lon="10.8518501"><ele>171.66666666666669</ele><time>2026-04-18T08:00:37.54Z</time></trkpt><trkpt lat="43.5129368" lon="10.8519562"><ele>172.0</ele><time>2026-04-18T08:00:39.553Z</time></trkpt><trkpt lat="43.5129172" lon="10.8520645"><ele>172.33333333333334</ele><time>2026-04-18T08:00:41.544Z</time></trkpt><trkpt lat="43.5128943" lon="10.8521695"><ele>172.66666666666669</ele><time>2026-04-18T08:00:43.536Z</time></trkpt><trkpt lat="43.5128623" lon="10.8522717"><ele>173.0</ele><time>2026-04-18T08:00:45.524Z</time></trkpt><trkpt lat="43.5128226" lon="10.8523675"><ele>173.33333333333334</ele><time>2026-04-18T08:00:47.484Z</time></trkpt><trkpt lat="43.5127802" lon="10.8524705"><ele>173.66666666666666</ele><time>2026-04-18T08:00:49.496Z</time></trkpt><trkpt lat="43.5127389" lon="10.8525702"><ele>174.0</ele><time>2026-04-18T08:00:51.485Z</time></trkpt><trkpt lat="43.5126516" lon="10.8526918"><ele>174.2</ele><time>2026-04-18T08:00:54.505Z</time></trkpt><trkpt lat="43.5125733" lon="10.85276"><ele>174.39999999999998</ele><time>2026-04-18T08:00:56.5Z</time></trkpt><trkpt lat="43.5124605" lon="10.852816"><ele>174.6</ele><time>2026-04-18T08:00:58.513Z</time></trkpt><trkpt lat="43.5123914" lon="10.8529432"><ele>174.8</ele><time>2026-04-18T08:01:00.516Z</time></trkpt><trkpt lat="43.5123675" lon="10.8530249"><ele>175.0</ele><time>2026-04-18T08:01:01.516Z</time></trkpt><trkpt lat="43.5123437" lon="10.8531132"><ele>175.0</ele><time>2026-04-18T08:01:02.51Z</time></trkpt><trkpt lat="43.5123256" lon="10.8532121"><ele>175.0</ele><time>2026-04-18T08:01:03.493Z</time></trkpt><trkpt lat="43.5123245" lon="10.8533142"><ele>175.0</ele><time>2026-04-18T08:01:04.516Z</time></trkpt><trkpt lat="43.5123268" lon="10.8534217"><ele>175.0</ele><time>2026-04-18T08:01:05.522Z</time></trkpt><trkpt lat="43.5123257" lon="10.8535187"><ele>175.0</ele><time>2026-04-18T08:01:06.523Z</time></trkpt><trkpt lat="43.5123274" lon="10.8536308"><ele>175.0</ele><time>2026-04-18T08:01:08.527Z</time></trkpt><trkpt lat="43.5123206" lon="10.8537459"><ele>175.0</ele><time>2026-04-18T08:01:11.5Z</time></trkpt><trkpt lat="43.5123196" lon="10.8538464"><ele>175.0</ele><time>2026-04-18T08:01:14.509Z</time></trkpt><trkpt lat="43.5123124" lon="10.8539482"><ele>175.0</ele><time>2026-04-18T08:01:17.504Z</time></trkpt><trkpt lat="43.5122942" lon="10.8540493"><ele>175.0</ele><time>2026-04-18T08:01:19.508Z</time></trkpt><trkpt lat="43.5122968" lon="10.854185"><ele>175.0</ele><time>2026-04-18T08:01:22.498Z</time></trkpt><trkpt lat="43.5122898" lon="10.854294"><ele>175.0</ele><time>2026-04-18T08:01:24.517Z</time></trkpt><trkpt lat="43.5122752" lon="10.854424"><ele>175.2</ele><time>2026-04-18T08:01:26.518Z</time></trkpt><trkpt lat="43.5122777" lon="10.8545501"><ele>175.4</ele><time>2026-04-18T08:01:28.513Z</time></trkpt><trkpt lat="43.5122629" lon="10.8546775"><ele>175.60000000000002</ele><time>2026-04-18T08:01:30.507Z</time></trkpt><trkpt lat="43.5122571" lon="10.854828"><ele>175.8</ele><time>2026-04-18T08:01:32.509Z</time></trkpt><trkpt lat="43.5122493" lon="10.8549865"><ele>176.0</ele><time>2026-04-18T08:01:34.5Z</time></trkpt><trkpt lat="43.5122412" lon="10.8551448"><ele>176.20000000000002</ele><time>2026-04-18T08:01:36.498Z</time></trkpt><trkpt lat="43.5122177" lon="10.8553041"><ele>176.4</ele><time>2026-04-18T08:01:38.5Z</time></trkpt><trkpt lat="43.5121982" lon="10.855477"><ele>176.6</ele><time>2026-04-18T08:01:40.5Z</time></trkpt><trkpt lat="43.5121948" lon="10.8555739"><ele>176.8</ele><time>2026-04-18T08:01:41.502Z</time></trkpt><trkpt lat="43.5121894" lon="10.8556662"><ele>177.0</ele><time>2026-04-18T08:01:42.496Z</time></trkpt><trkpt lat="43.5121795" lon="10.8557644"><ele>177.0</ele><time>2026-04-18T08:01:43.496Z</time></trkpt><trkpt lat="43.5121735" lon="10.85586"><ele>177.0</ele><time>2026-04-18T08:01:44.501Z</time></trkpt><trkpt lat="43.5121641" lon="10.8559637"><ele>177.0</ele><time>2026-04-18T08:01:45.493Z</time></trkpt><trkpt lat="43.5121582" lon="10.8560735"><ele>177.0</ele><time>2026-04-18T08:01:46.493Z</time></trkpt><trkpt lat="43.5121459" lon="10.8561776"><ele>177.0</ele><time>2026-04-18T08:01:47.502Z</time></trkpt><trkpt lat="43.5121269" lon="10.856276"><ele>177.0</ele><time>2026-04-18T08:01:48.495Z</time></trkpt><trkpt lat="43.5121051" lon="10.8563679"><ele>177.0</ele><time>2026-04-18T08:01:49.497Z</time></trkpt><trkpt lat="43.5120941" lon="10.856522"><ele>177.39999999999998</ele><time>2026-04-18T08:01:51.5Z</time></trkpt><trkpt lat="43.5120744" lon="10.8566411"><ele>177.79999999999998</ele><time>2026-04-18T08:01:53.499Z</time></trkpt><trkpt lat="43.5120572" lon="10.8567804"><ele>178.2</ele><time>2026-04-18T08:01:55.502Z</time></trkpt><trkpt lat="43.5120428" lon="10.856923"><ele>178.6</ele><time>2026-04-18T08:01:57.5Z</time></trkpt><trkpt lat="43.51204" lon="10.8570664"><ele>179.0</ele><time>2026-04-18T08:01:59.501Z</time></trkpt><trkpt lat="43.5120445" lon="10.8572338"><ele>179.33333333333331</ele><time>2026-04-18T08:02:01.503Z</time></trkpt><trkpt lat="43.51205" lon="10.8573275"><ele>179.66666666666666</ele><time>2026-04-18T08:02:02.5Z</time></trkpt><trkpt lat="43.5120701" lon="10.857415"><ele>180.0</ele><time>2026-04-18T08:02:03.498Z</time></trkpt><trkpt lat="43.5120836" lon="10.8575133"><ele>180.33333333333334</ele><time>2026-04-18T08:02:04.501Z</time></trkpt><trkpt lat="43.5121001" lon="10.857601"><ele>180.66666666666669</ele><time>2026-04-18T08:02:05.497Z</time></trkpt><trkpt lat="43.5121264" lon="10.8576893"><ele>181.0</ele><time>2026-04-18T08:02:06.495Z</time></trkpt><trkpt lat="43.5121779" lon="10.8578532"><ele>181.33333333333334</ele><time>2026-04-18T08:02:08.498Z</time></trkpt><trkpt lat="43.5122018" lon="10.8579368"><ele>181.66666666666669</ele><time>2026-04-18T08:02:09.502Z</time></trkpt><trkpt lat="43.5122264" lon="10.8580209"><ele>182.0</ele><time>2026-04-18T08:02:10.509Z</time></trkpt><trkpt lat="43.5122517" lon="10.858105"><ele>182.33333333333334</ele><time>2026-04-18T08:02:11.494Z</time></trkpt><trkpt lat="43.5122945" lon="10.8582404"><ele>182.66666666666666</ele><time>2026-04-18T08:02:13.488Z</time></trkpt><trkpt lat="43.512337" lon="10.8583401"><ele>183.0</ele><time>2026-04-18T08:02:16.485Z</time></trkpt><trkpt lat="43.5123885" lon="10.8584351"><ele>182.5</ele><time>2026-04-18T08:02:19.495Z</time></trkpt><trkpt lat="43.5124144" lon="10.8585208"><ele>182.0</ele><time>2026-04-18T08:02:21.501Z</time></trkpt><trkpt lat="43.5124437" lon="10.858665"><ele>181.5</ele><time>2026-04-18T08:02:24.502Z</time></trkpt><trkpt lat="43.5124814" lon="10.8587571"><ele>181.0</ele><time>2026-04-18T08:02:26.489Z</time></trkpt><trkpt lat="43.5125398" lon="10.8588467"><ele>180.5</ele><time>2026-04-18T08:02:28.489Z</time></trkpt><trkpt lat="43.5126047" lon="10.8589466"><ele>180.0</ele><time>2026-04-18T08:02:30.505Z</time></trkpt><trkpt lat="43.5126734" lon="10.8590425"><ele>180.0</ele><time>2026-04-18T08:02:32.5Z</time></trkpt><trkpt lat="43.5127546" lon="10.859156"><ele>180.0</ele><time>2026-04-18T08:02:34.498Z</time></trkpt><trkpt lat="43.5128164" lon="10.859259"><ele>180.0</ele><time>2026-04-18T08:02:36.499Z</time></trkpt><trkpt lat="43.5128809" lon="10.8593543"><ele>180.0</ele><time>2026-04-18T08:02:38.497Z</time></trkpt><trkpt lat="43.5129591" lon="10.8594526"><ele>180.0</ele><time>2026-04-18T08:02:40.491Z</time></trkpt><trkpt lat="43.5130429" lon="10.8595477"><ele>181.0</ele><time>2026-04-18T08:02:42.493Z</time></trkpt><trkpt lat="43.5130953" lon="10.8596117"><ele>182.0</ele><time>2026-04-18T08:02:44.49Z</time></trkpt><trkpt lat="43.5131708" lon="10.8596848"><ele>183.0</ele><time>2026-04-18T08:02:47.49Z</time></trkpt><trkpt lat="43.5132424" lon="10.859759"><ele>184.0</ele><time>2026-04-18T08:02:49.484Z</time></trkpt><trkpt lat="43.5133142" lon="10.8598619"><ele>185.0</ele><time>2026-04-18T08:02:51.488Z</time></trkpt><trkpt lat="43.5133798" lon="10.8599729"><ele>185.0</ele><time>2026-04-18T08:02:53.499Z</time></trkpt><trkpt lat="43.5134489" lon="10.860091"><ele>185.0</ele><time>2026-04-18T08:02:55.5Z</time></trkpt><trkpt lat="43.5135335" lon="10.8602205"><ele>185.0</ele><time>2026-04-18T08:02:57.493Z</time></trkpt><trkpt lat="43.5136149" lon="10.8603286"><ele>185.0</ele><time>2026-04-18T08:02:59.485Z</time></trkpt><trkpt lat="43.5136981" lon="10.860409"><ele>186.5</ele><time>2026-04-18T08:03:01.495Z</time></trkpt><trkpt lat="43.5137682" lon="10.8604728"><ele>188.0</ele><time>2026-04-18T08:03:03.489Z</time></trkpt><trkpt lat="43.5138296" lon="10.8605303"><ele>189.5</ele><time>2026-04-18T08:03:05.484Z</time></trkpt><trkpt lat="43.5139115" lon="10.8605528"><ele>191.0</ele><time>2026-04-18T08:03:07.504Z</time></trkpt><trkpt lat="43.5139956" lon="10.8605805"><ele>192.50000000000003</ele><time>2026-04-18T08:03:09.509Z</time></trkpt><trkpt lat="43.5140788" lon="10.8606226"><ele>194.0</ele><time>2026-04-18T08:03:11.505Z</time></trkpt><trkpt lat="43.5141641" lon="10.8606943"><ele>194.0</ele><time>2026-04-18T08:03:13.506Z</time></trkpt><trkpt lat="43.5142352" lon="10.8608023"><ele>194.0</ele><time>2026-04-18T08:03:15.51Z</time></trkpt><trkpt lat="43.5142919" lon="10.8609178"><ele>194.0</ele><time>2026-04-18T08:03:17.499Z</time></trkpt><trkpt lat="43.514328" lon="10.8610453"><ele>194.0</ele><time>2026-04-18T08:03:19.483Z</time></trkpt><trkpt lat="43.5143658" lon="10.8611778"><ele>194.0</ele><time>2026-04-18T08:03:21.497Z</time></trkpt><trkpt lat="43.5143888" lon="10.8613232"><ele>195.33333333333334</ele><time>2026-04-18T08:03:23.497Z</time></trkpt><trkpt lat="43.5144058" lon="10.8614388"><ele>196.66666666666669</ele><time>2026-04-18T08:03:25.515Z</time></trkpt><trkpt lat="43.5144072" lon="10.8615579"><ele>198.0</ele><time>2026-04-18T08:03:27.497Z</time></trkpt><trkpt lat="43.5143878" lon="10.8616647"><ele>199.33333333333331</ele><time>2026-04-18T08:03:30.515Z</time></trkpt><trkpt lat="43.514345" lon="10.8617401"><ele>200.66666666666666</ele><time>2026-04-18T08:03:32.504Z</time></trkpt><trkpt lat="43.5142762" lon="10.8617927"><ele>202.0</ele><time>2026-04-18T08:03:34.51Z</time></trkpt><trkpt lat="43.5141885" lon="10.8618387"><ele>202.6</ele><time>2026-04-18T08:03:36.503Z</time></trkpt><trkpt lat="43.5141108" lon="10.861904"><ele>203.2</ele><time>2026-04-18T08:03:38.519Z</time></trkpt><trkpt lat="43.5140438" lon="10.8619853"><ele>203.8</ele><time>2026-04-18T08:03:40.516Z</time></trkpt><trkpt lat="43.5139796" lon="10.8620929"><ele>204.4</ele><time>2026-04-18T08:03:42.521Z</time></trkpt><trkpt lat="43.513925" lon="10.8622102"><ele>205.0</ele><time>2026-04-18T08:03:44.506Z</time></trkpt><trkpt lat="43.5138967" lon="10.8623388"><ele>205.0</ele><time>2026-04-18T08:03:46.522Z</time></trkpt><trkpt lat="43.5138811" lon="10.8624626"><ele>205.0</ele><time>2026-04-18T08:03:48.518Z</time></trkpt><trkpt lat="43.5138749" lon="10.8626134"><ele>205.0</ele><time>2026-04-18T08:03:50.516Z</time></trkpt><trkpt lat="43.5138876" lon="10.8627755"><ele>205.0</ele><time>2026-04-18T08:03:52.525Z</time></trkpt><trkpt lat="43.5139053" lon="10.8629255"><ele>205.0</ele><time>2026-04-18T08:03:54.511Z</time></trkpt><trkpt lat="43.513939" lon="10.863073"><ele>206.25</ele><time>2026-04-18T08:03:56.531Z</time></trkpt><trkpt lat="43.5139955" lon="10.8632038"><ele>207.5</ele><time>2026-04-18T08:03:58.51Z</time></trkpt><trkpt lat="43.5140697" lon="10.8633245"><ele>208.75</ele><time>2026-04-18T08:04:00.483Z</time></trkpt><trkpt lat="43.5141425" lon="10.8634362"><ele>210.0</ele><time>2026-04-18T08:04:02.516Z</time></trkpt><trkpt lat="43.5142068" lon="10.8635786"><ele>211.5</ele><time>2026-04-18T08:04:04.492Z</time></trkpt><trkpt lat="43.5142365" lon="10.8637284"><ele>213.0</ele><time>2026-04-18T08:04:06.492Z</time></trkpt><trkpt lat="43.5142503" lon="10.8638947"><ele>214.5</ele><time>2026-04-18T08:04:08.504Z</time></trkpt><trkpt lat="43.5142599" lon="10.8640618"><ele>216.0</ele><time>2026-04-18T08:04:10.506Z</time></trkpt><trkpt lat="43.5142796" lon="10.8642223"><ele>217.8</ele><time>2026-04-18T08:04:12.532Z</time></trkpt><trkpt lat="43.5142902" lon="10.8643869"><ele>219.60000000000002</ele><time>2026-04-18T08:04:14.505Z</time></trkpt><trkpt lat="43.5143035" lon="10.8645433"><ele>221.4</ele><time>2026-04-18T08:04:16.494Z</time></trkpt><trkpt lat="43.5143116" lon="10.8646909"><ele>223.2</ele><time>2026-04-18T08:04:18.496Z</time></trkpt><trkpt lat="43.5143191" lon="10.8647795"><ele>225.0</ele><time>2026-04-18T08:04:19.493Z</time></trkpt><trkpt lat="43.5143338" lon="10.8649246"><ele>225.0</ele><time>2026-04-18T08:04:21.489Z</time></trkpt><trkpt lat="43.5143472" lon="10.8650851"><ele>225.0</ele><time>2026-04-18T08:04:23.498Z</time></trkpt><trkpt lat="43.5143678" lon="10.8652334"><ele>225.0</ele><time>2026-04-18T08:04:25.52Z</time></trkpt><trkpt lat="43.5143857" lon="10.8654"><ele>225.0</ele><time>2026-04-18T08:04:27.489Z</time></trkpt><trkpt lat="43.514398" lon="10.8654949"><ele>225.0</ele><time>2026-04-18T08:04:28.495Z</time></trkpt><trkpt lat="43.5144121" lon="10.8656081"><ele>226.66666666666666</ele><time>2026-04-18T08:04:29.499Z</time></trkpt><trkpt lat="43.5144185" lon="10.8657262"><ele>228.33333333333331</ele><time>2026-04-18T08:04:30.5Z</time></trkpt><trkpt lat="43.5144344" lon="10.8658535"><ele>230.0</ele><time>2026-04-18T08:04:31.491Z</time></trkpt><trkpt lat="43.5144476" lon="10.8659808"><ele>231.66666666666666</ele><time>2026-04-18T08:04:32.488Z</time></trkpt><trkpt lat="43.5144708" lon="10.8660933"><ele>233.33333333333331</ele><time>2026-04-18T08:04:33.495Z</time></trkpt><trkpt lat="43.514491" lon="10.8662161"><ele>235.0</ele><time>2026-04-18T08:04:34.493Z</time></trkpt><trkpt lat="43.5145188" lon="10.8663348"><ele>235.85714285714283</ele><time>2026-04-18T08:04:35.496Z</time></trkpt><trkpt lat="43.5145358" lon="10.8664408"><ele>236.7142857142857</ele><time>2026-04-18T08:04:36.496Z</time></trkpt><trkpt lat="43.5145554" lon="10.8665506"><ele>237.57142857142856</ele><time>2026-04-18T08:04:37.488Z</time></trkpt><trkpt lat="43.5145724" lon="10.8666513"><ele>238.42857142857144</ele><time>2026-04-18T08:04:38.499Z</time></trkpt><trkpt lat="43.5145757" lon="10.866743"><ele>239.2857142857143</ele><time>2026-04-18T08:04:39.496Z</time></trkpt><trkpt lat="43.5145638" lon="10.8668401"><ele>240.14285714285717</ele><time>2026-04-18T08:04:40.497Z</time></trkpt><trkpt lat="43.514563" lon="10.8669282"><ele>241.0</ele><time>2026-04-18T08:04:41.49Z</time></trkpt><trkpt lat="43.5145639" lon="10.8670265"><ele>240.99999999999997</ele><time>2026-04-18T08:04:42.487Z</time></trkpt><trkpt lat="43.5145743" lon="10.8671277"><ele>241.0</ele><time>2026-04-18T08:04:43.49Z</time></trkpt><trkpt lat="43.5145986" lon="10.8672318"><ele>241.0</ele><time>2026-04-18T08:04:44.492Z</time></trkpt><trkpt lat="43.5146393" lon="10.8673359"><ele>241.0</ele><time>2026-04-18T08:04:45.498Z</time></trkpt><trkpt lat="43.5146784" lon="10.8674297"><ele>240.99999999999997</ele><time>2026-04-18T08:04:46.487Z</time></trkpt><trkpt lat="43.5147193" lon="10.8675255"><ele>241.0</ele><time>2026-04-18T08:04:47.496Z</time></trkpt><trkpt lat="43.5147535" lon="10.8676252"><ele>240.99999999999997</ele><time>2026-04-18T08:04:48.494Z</time></trkpt><trkpt lat="43.5147922" lon="10.8677278"><ele>241.0</ele><time>2026-04-18T08:04:49.499Z</time></trkpt><trkpt lat="43.5148318" lon="10.8678276"><ele>241.0</ele><time>2026-04-18T08:04:50.493Z</time></trkpt><trkpt lat="43.5148772" lon="10.8679168"><ele>241.0</ele><time>2026-04-18T08:04:51.488Z</time></trkpt><trkpt lat="43.5149218" lon="10.8679974"><ele>240.99999999999997</ele><time>2026-04-18T08:04:52.504Z</time></trkpt><trkpt lat="43.514962" lon="10.8680745"><ele>241.0</ele><time>2026-04-18T08:04:53.51Z</time></trkpt><trkpt lat="43.5150092" lon="10.8681437"><ele>240.99999999999997</ele><time>2026-04-18T08:04:54.5Z</time></trkpt><trkpt lat="43.5150902" lon="10.8682795"><ele>241.0</ele><time>2026-04-18T08:04:56.499Z</time></trkpt><trkpt lat="43.515128" lon="10.8683493"><ele>241.0</ele><time>2026-04-18T08:04:57.504Z</time></trkpt><trkpt lat="43.5151691" lon="10.8684222"><ele>241.0</ele><time>2026-04-18T08:04:58.502Z</time></trkpt><trkpt lat="43.5152122" lon="10.8684945"><ele>240.99999999999997</ele><time>2026-04-18T08:04:59.495Z</time></trkpt><trkpt lat="43.5152377" lon="10.8686222"><ele>241.0</ele><time>2026-04-18T08:05:01.48Z</time></trkpt><trkpt lat="43.5152746" lon="10.8686932"><ele>240.33333333333331</ele><time>2026-04-18T08:07:27.497Z</time></trkpt><trkpt lat="43.5153257" lon="10.868747"><ele>239.66666666666666</ele><time>2026-04-18T08:07:30.494Z</time></trkpt><trkpt lat="43.5153807" lon="10.8688252"><ele>239.0</ele><time>2026-04-18T08:07:32.503Z</time></trkpt><trkpt lat="43.5154414" lon="10.8689021"><ele>238.33333333333331</ele><time>2026-04-18T08:07:34.484Z</time></trkpt><trkpt lat="43.5155146" lon="10.8689947"><ele>237.66666666666666</ele><time>2026-04-18T08:07:36.499Z</time></trkpt><trkpt lat="43.5155968" lon="10.8690866"><ele>237.0</ele><time>2026-04-18T08:07:38.509Z</time></trkpt><trkpt lat="43.5156688" lon="10.8691863"><ele>239.83333333333334</ele><time>2026-04-18T08:07:40.499Z</time></trkpt><trkpt lat="43.5157546" lon="10.8693023"><ele>242.66666666666669</ele><time>2026-04-18T08:07:42.495Z</time></trkpt><trkpt lat="43.5158057" lon="10.8693631"><ele>245.5</ele><time>2026-04-18T08:07:43.49Z</time></trkpt><trkpt lat="43.5158508" lon="10.8694318"><ele>248.33333333333334</ele><time>2026-04-18T08:07:44.498Z</time></trkpt><trkpt lat="43.5158983" lon="10.869504"><ele>251.16666666666669</ele><time>2026-04-18T08:07:45.486Z</time></trkpt><trkpt lat="43.5159441" lon="10.8695728"><ele>254.0</ele><time>2026-04-18T08:07:46.491Z</time></trkpt><trkpt lat="43.5159897" lon="10.8696423"><ele>254.0</ele><time>2026-04-18T08:07:47.491Z</time></trkpt><trkpt lat="43.5160346" lon="10.869711"><ele>254.0</ele><time>2026-04-18T08:07:48.5Z</time></trkpt><trkpt lat="43.5160778" lon="10.8697763"><ele>254.0</ele><time>2026-04-18T08:07:49.492Z</time></trkpt><trkpt lat="43.5161218" lon="10.8698458"><ele>254.0</ele><time>2026-04-18T08:07:50.482Z</time></trkpt><trkpt lat="43.5161641" lon="10.8699138"><ele>254.0</ele><time>2026-04-18T08:07:51.482Z</time></trkpt><trkpt lat="43.5162005" lon="10.8699848"><ele>254.0</ele><time>2026-04-18T08:07:52.49Z</time></trkpt><trkpt lat="43.5162341" lon="10.8700659"><ele>254.0</ele><time>2026-04-18T08:07:53.484Z</time></trkpt><trkpt lat="43.5162661" lon="10.8701409"><ele>259.4</ele><time>2026-04-18T08:07:54.485Z</time></trkpt><trkpt lat="43.516287" lon="10.8703001"><ele>264.79999999999995</ele><time>2026-04-18T08:07:56.486Z</time></trkpt><trkpt lat="43.5162723" lon="10.8704569"><ele>270.20000000000005</ele><time>2026-04-18T08:07:58.486Z</time></trkpt><trkpt lat="43.5162677" lon="10.8705506"><ele>275.6</ele><time>2026-04-18T08:07:59.49Z</time></trkpt><trkpt lat="43.5162607" lon="10.8706568"><ele>281.0</ele><time>2026-04-18T08:08:00.483Z</time></trkpt><trkpt lat="43.5162525" lon="10.8707603"><ele>281.0</ele><time>2026-04-18T08:08:01.496Z</time></trkpt><trkpt lat="43.516243" lon="10.8708469"><ele>281.0</ele><time>2026-04-18T08:08:02.487Z</time></trkpt><trkpt lat="43.516181" lon="10.8709436"><ele>281.0</ele><time>2026-04-18T08:08:04.485Z</time></trkpt><trkpt lat="43.5160681" lon="10.8709326"><ele>281.0</ele><time>2026-04-18T08:08:06.479Z</time></trkpt><trkpt lat="43.5159463" lon="10.8709311"><ele>281.0</ele><time>2026-04-18T08:08:08.553Z</time></trkpt><trkpt lat="43.515835" lon="10.8709784"><ele>281.83333333333337</ele><time>2026-04-18T08:08:10.49Z</time></trkpt><trkpt lat="43.5157459" lon="10.8710857"><ele>282.6666666666667</ele><time>2026-04-18T08:08:12.476Z</time></trkpt><trkpt lat="43.515711" lon="10.8711757"><ele>283.5</ele><time>2026-04-18T08:08:13.493Z</time></trkpt><trkpt lat="43.5156783" lon="10.8712636"><ele>284.3333333333333</ele><time>2026-04-18T08:08:14.484Z</time></trkpt><trkpt lat="43.5156571" lon="10.8713461"><ele>285.16666666666663</ele><time>2026-04-18T08:08:15.484Z</time></trkpt><trkpt lat="43.5156406" lon="10.87145"><ele>286.0</ele><time>2026-04-18T08:08:16.483Z</time></trkpt><trkpt lat="43.5156242" lon="10.871544"><ele>286.0</ele><time>2026-04-18T08:08:17.486Z</time></trkpt><trkpt lat="43.5156043" lon="10.8716321"><ele>286.0</ele><time>2026-04-18T08:08:18.491Z</time></trkpt><trkpt lat="43.5155756" lon="10.8717953"><ele>286.0</ele><time>2026-04-18T08:08:20.491Z</time></trkpt><trkpt lat="43.5155676" lon="10.8719616"><ele>286.0</ele><time>2026-04-18T08:08:22.492Z</time></trkpt><trkpt lat="43.5156291" lon="10.8720798"><ele>286.0</ele><time>2026-04-18T08:08:24.48Z</time></trkpt><trkpt lat="43.5157634" lon="10.8720999"><ele>287.66666666666663</ele><time>2026-04-18T08:08:26.62Z</time></trkpt><trkpt lat="43.5158359" lon="10.8721034"><ele>289.3333333333333</ele><time>2026-04-18T08:08:27.526Z</time></trkpt><trkpt lat="43.5159031" lon="10.8721075"><ele>291.0</ele><time>2026-04-18T08:08:28.537Z</time></trkpt><trkpt lat="43.5159677" lon="10.8721109"><ele>292.6666666666667</ele><time>2026-04-18T08:08:29.53Z</time></trkpt><trkpt lat="43.5160786" lon="10.8721412"><ele>294.33333333333337</ele><time>2026-04-18T08:08:31.53Z</time></trkpt><trkpt lat="43.5161464" lon="10.8722177"><ele>296.0</ele><time>2026-04-18T08:08:33.537Z</time></trkpt><trkpt lat="43.5161459" lon="10.8723126"><ele>296.0</ele><time>2026-04-18T08:08:36.521Z</time></trkpt><trkpt lat="43.5161246" lon="10.8724354"><ele>296.0</ele><time>2026-04-18T08:08:38.525Z</time></trkpt><trkpt lat="43.5161671" lon="10.872568"><ele>296.0</ele><time>2026-04-18T08:08:40.532Z</time></trkpt><trkpt lat="43.5162269" lon="10.8726546"><ele>296.0</ele><time>2026-04-18T08:08:42.534Z</time></trkpt><trkpt lat="43.5162814" lon="10.8727123"><ele>296.0</ele><time>2026-04-18T08:08:44.521Z</time></trkpt><trkpt lat="43.5163526" lon="10.8727735"><ele>296.0</ele><time>2026-04-18T08:08:46.535Z</time></trkpt><trkpt lat="43.5163999" lon="10.8728403"><ele>300.0</ele><time>2026-04-18T08:08:48.522Z</time></trkpt><trkpt lat="43.5164188" lon="10.8729391"><ele>304.0</ele><time>2026-04-18T08:08:51.529Z</time></trkpt><trkpt lat="43.5164086" lon="10.8730467"><ele>308.0</ele><time>2026-04-18T08:08:53.533Z</time></trkpt><trkpt lat="43.5163923" lon="10.8731949"><ele>312.0</ele><time>2026-04-18T08:08:55.521Z</time></trkpt><trkpt lat="43.5163243" lon="10.8733752"><ele>316.0</ele><time>2026-04-18T08:08:56.522Z</time></trkpt><trkpt lat="43.5163437" lon="10.8735375"><ele>316.8</ele><time>2026-04-18T08:08:58.525Z</time></trkpt><trkpt lat="43.5163423" lon="10.8736713"><ele>317.6</ele><time>2026-04-18T08:09:00.527Z</time></trkpt><trkpt lat="43.5163085" lon="10.8737976"><ele>318.4</ele><time>2026-04-18T08:09:02.523Z</time></trkpt><trkpt lat="43.5162917" lon="10.8739532"><ele>319.2</ele><time>2026-04-18T08:09:04.533Z</time></trkpt><trkpt lat="43.5162491" lon="10.8741135"><ele>320.0</ele><time>2026-04-18T08:09:06.53Z</time></trkpt><trkpt lat="43.5161704" lon="10.8742615"><ele>319.1666666666667</ele><time>2026-04-18T08:09:08.524Z</time></trkpt><trkpt lat="43.5161267" lon="10.8743389"><ele>318.33333333333337</ele><time>2026-04-18T08:09:09.538Z</time></trkpt><trkpt lat="43.5160855" lon="10.8744073"><ele>317.5</ele><time>2026-04-18T08:09:10.524Z</time></trkpt><trkpt lat="43.5160127" lon="10.8745185"><ele>316.6666666666667</ele><time>2026-04-18T08:09:12.519Z</time></trkpt><trkpt lat="43.5159353" lon="10.874559"><ele>315.8333333333333</ele><time>2026-04-18T08:09:14.527Z</time></trkpt><trkpt lat="43.5158375" lon="10.8745708"><ele>315.0</ele><time>2026-04-18T08:09:16.525Z</time></trkpt><trkpt lat="43.5157381" lon="10.8746288"><ele>315.0</ele><time>2026-04-18T08:09:18.528Z</time></trkpt><trkpt lat="43.5156387" lon="10.8747163"><ele>315.0</ele><time>2026-04-18T08:09:20.525Z</time></trkpt><trkpt lat="43.5155819" lon="10.8747618"><ele>315.0</ele><time>2026-04-18T08:09:21.526Z</time></trkpt><trkpt lat="43.5154712" lon="10.8748455"><ele>315.0</ele><time>2026-04-18T08:09:23.531Z</time></trkpt><trkpt lat="43.5154194" lon="10.8748958"><ele>315.0</ele><time>2026-04-18T08:09:24.535Z</time></trkpt><trkpt lat="43.5153667" lon="10.8749486"><ele>315.0</ele><time>2026-04-18T08:09:25.526Z</time></trkpt><trkpt lat="43.5152777" lon="10.8750321"><ele>315.0</ele><time>2026-04-18T08:09:27.532Z</time></trkpt><trkpt lat="43.5152368" lon="10.8751005"><ele>315.0</ele><time>2026-04-18T08:09:28.528Z</time></trkpt><trkpt lat="43.5151971" lon="10.8751929"><ele>315.0</ele><time>2026-04-18T08:09:30.543Z</time></trkpt><trkpt lat="43.5151781" lon="10.8752853"><ele>315.0</ele><time>2026-04-18T08:09:32.538Z</time></trkpt><trkpt lat="43.5151801" lon="10.8754015"><ele>315.0</ele><time>2026-04-18T08:09:35.533Z</time></trkpt><trkpt lat="43.5151681" lon="10.8754911"><ele>315.0</ele><time>2026-04-18T08:09:37.534Z</time></trkpt><trkpt lat="43.5151464" lon="10.8756003"><ele>315.0</ele><time>2026-04-18T08:09:40.528Z</time></trkpt><trkpt lat="43.5151158" lon="10.8757198"><ele>315.0</ele><time>2026-04-18T08:09:43.531Z</time></trkpt><trkpt lat="43.5151166" lon="10.8758541"><ele>315.0</ele><time>2026-04-18T08:09:45.54Z</time></trkpt><trkpt lat="43.5151158" lon="10.8759612"><ele>315.0</ele><time>2026-04-18T08:09:48.541Z</time></trkpt><trkpt lat="43.5152069" lon="10.8759708"><ele>315.0</ele><time>2026-04-18T08:09:52.526Z</time></trkpt><trkpt lat="43.5153" lon="10.8759938"><ele>315.0</ele><time>2026-04-18T08:09:54.54Z</time></trkpt><trkpt lat="43.5153904" lon="10.8760224"><ele>317.8333333333333</ele><time>2026-04-18T08:09:56.544Z</time></trkpt><trkpt lat="43.5155009" lon="10.8760705"><ele>320.6666666666667</ele><time>2026-04-18T08:09:58.538Z</time></trkpt><trkpt lat="43.515556" lon="10.8761204"><ele>323.5</ele><time>2026-04-18T08:09:59.542Z</time></trkpt><trkpt lat="43.5156071" lon="10.8761815"><ele>326.33333333333337</ele><time>2026-04-18T08:10:00.53Z</time></trkpt><trkpt lat="43.5156574" lon="10.876241"><ele>329.1666666666667</ele><time>2026-04-18T08:10:01.538Z</time></trkpt><trkpt lat="43.5157167" lon="10.8763046"><ele>332.0</ele><time>2026-04-18T08:10:02.541Z</time></trkpt><trkpt lat="43.515783" lon="10.8763416"><ele>332.0</ele><time>2026-04-18T08:10:03.54Z</time></trkpt><trkpt lat="43.5158649" lon="10.8763562"><ele>332.0</ele><time>2026-04-18T08:10:04.56Z</time></trkpt><trkpt lat="43.515949" lon="10.8763413"><ele>332.0</ele><time>2026-04-18T08:10:05.535Z</time></trkpt><trkpt lat="43.5160303" lon="10.8763079"><ele>332.0</ele><time>2026-04-18T08:10:06.571Z</time></trkpt><trkpt lat="43.5161085" lon="10.8762638"><ele>332.0</ele><time>2026-04-18T08:10:07.541Z</time></trkpt><trkpt lat="43.5161882" lon="10.876216"><ele>332.0</ele><time>2026-04-18T08:10:08.549Z</time></trkpt><trkpt lat="43.5162667" lon="10.8761607"><ele>332.6</ele><time>2026-04-18T08:10:09.543Z</time></trkpt><trkpt lat="43.5163488" lon="10.8761124"><ele>333.20000000000005</ele><time>2026-04-18T08:10:10.547Z</time></trkpt><trkpt lat="43.516427" lon="10.8760628"><ele>333.8</ele><time>2026-04-18T08:10:11.551Z</time></trkpt><trkpt lat="43.5165134" lon="10.8760124"><ele>334.4</ele><time>2026-04-18T08:10:12.551Z</time></trkpt><trkpt lat="43.5166031" lon="10.875968"><ele>335.0</ele><time>2026-04-18T08:10:13.544Z</time></trkpt><trkpt lat="43.5166896" lon="10.8759186"><ele>335.0</ele><time>2026-04-18T08:10:14.549Z</time></trkpt><trkpt lat="43.5167723" lon="10.8758639"><ele>335.0</ele><time>2026-04-18T08:10:15.547Z</time></trkpt><trkpt lat="43.516844" lon="10.875787"><ele>335.0</ele><time>2026-04-18T08:10:16.542Z</time></trkpt><trkpt lat="43.5169001" lon="10.8756834"><ele>335.0</ele><time>2026-04-18T08:10:17.541Z</time></trkpt><trkpt lat="43.5169413" lon="10.8755573"><ele>335.0</ele><time>2026-04-18T08:10:18.545Z</time></trkpt><trkpt lat="43.5169776" lon="10.875426"><ele>335.0</ele><time>2026-04-18T08:10:19.53Z</time></trkpt><trkpt lat="43.5170153" lon="10.8752976"><ele>335.0</ele><time>2026-04-18T08:10:20.526Z</time></trkpt><trkpt lat="43.5170667" lon="10.8751713"><ele>335.0</ele><time>2026-04-18T08:10:21.522Z</time></trkpt><trkpt lat="43.517135" lon="10.8750532"><ele>335.0</ele><time>2026-04-18T08:10:22.521Z</time></trkpt><trkpt lat="43.5172164" lon="10.8749636"><ele>335.0</ele><time>2026-04-18T08:10:23.531Z</time></trkpt><trkpt lat="43.5173245" lon="10.8748947"><ele>336.8</ele><time>2026-04-18T08:10:24.526Z</time></trkpt><trkpt lat="43.5174315" lon="10.8748625"><ele>338.6</ele><time>2026-04-18T08:10:25.534Z</time></trkpt><trkpt lat="43.5175351" lon="10.8748393"><ele>340.4</ele><time>2026-04-18T08:10:26.533Z</time></trkpt><trkpt lat="43.517646" lon="10.8748213"><ele>342.2</ele><time>2026-04-18T08:10:27.531Z</time></trkpt><trkpt lat="43.5177644" lon="10.8748153"><ele>344.0</ele><time>2026-04-18T08:10:28.531Z</time></trkpt><trkpt lat="43.5178766" lon="10.8748263"><ele>345.6</ele><time>2026-04-18T08:10:29.538Z</time></trkpt><trkpt lat="43.5179782" lon="10.874831"><ele>347.2</ele><time>2026-04-18T08:10:30.537Z</time></trkpt><trkpt lat="43.5180852" lon="10.8748502"><ele>348.8</ele><time>2026-04-18T08:10:31.53Z</time></trkpt><trkpt lat="43.5181859" lon="10.8748724"><ele>350.40000000000003</ele><time>2026-04-18T08:10:32.523Z</time></trkpt><trkpt lat="43.5182794" lon="10.8748651"><ele>352.0</ele><time>2026-04-18T08:10:33.523Z</time></trkpt><trkpt lat="43.5183841" lon="10.8748674"><ele>352.0</ele><time>2026-04-18T08:10:34.528Z</time></trkpt><trkpt lat="43.5184807" lon="10.8748807"><ele>352.0</ele><time>2026-04-18T08:10:35.527Z</time></trkpt><trkpt lat="43.5185809" lon="10.8748947"><ele>352.0</ele><time>2026-04-18T08:10:36.537Z</time></trkpt><trkpt lat="43.5186992" lon="10.8749042"><ele>352.0</ele><time>2026-04-18T08:10:37.528Z</time></trkpt><trkpt lat="43.5188034" lon="10.8749057"><ele>352.0</ele><time>2026-04-18T08:10:38.525Z</time></trkpt><trkpt lat="43.5188951" lon="10.8748932"><ele>352.20000000000005</ele><time>2026-04-18T08:10:39.526Z</time></trkpt><trkpt lat="43.5190042" lon="10.8749133"><ele>352.4</ele><time>2026-04-18T08:10:40.537Z</time></trkpt><trkpt lat="43.5190917" lon="10.8749585"><ele>352.6</ele><time>2026-04-18T08:10:41.547Z</time></trkpt><trkpt lat="43.5191632" lon="10.8750559"><ele>352.79999999999995</ele><time>2026-04-18T08:10:42.524Z</time></trkpt><trkpt lat="43.5192109" lon="10.8751714"><ele>353.0</ele><time>2026-04-18T08:10:43.541Z</time></trkpt><trkpt lat="43.5192405" lon="10.8753025"><ele>353.0</ele><time>2026-04-18T08:10:44.533Z</time></trkpt><trkpt lat="43.519268" lon="10.8754382"><ele>353.0</ele><time>2026-04-18T08:10:45.522Z</time></trkpt><trkpt lat="43.5192991" lon="10.8755787"><ele>353.0</ele><time>2026-04-18T08:10:46.543Z</time></trkpt><trkpt lat="43.5193389" lon="10.8756958"><ele>353.0</ele><time>2026-04-18T08:10:47.543Z</time></trkpt><trkpt lat="43.5193882" lon="10.8758006"><ele>353.0</ele><time>2026-04-18T08:10:48.538Z</time></trkpt><trkpt lat="43.5194612" lon="10.8758833"><ele>355.2</ele><time>2026-04-18T08:10:49.531Z</time></trkpt><trkpt lat="43.5195379" lon="10.8759657"><ele>357.4</ele><time>2026-04-18T08:10:50.526Z</time></trkpt><trkpt lat="43.5196106" lon="10.87604"><ele>359.59999999999997</ele><time>2026-04-18T08:10:51.549Z</time></trkpt><trkpt lat="43.5196956" lon="10.876097"><ele>361.79999999999995</ele><time>2026-04-18T08:10:52.536Z</time></trkpt><trkpt lat="43.519755" lon="10.8761718"><ele>364.0</ele><time>2026-04-18T08:10:53.527Z</time></trkpt><trkpt lat="43.5198171" lon="10.8762728"><ele>359.6</ele><time>2026-04-18T08:10:54.527Z</time></trkpt><trkpt lat="43.5198494" lon="10.8763938"><ele>355.2</ele><time>2026-04-18T08:10:55.528Z</time></trkpt><trkpt lat="43.5198569" lon="10.8765454"><ele>350.8</ele><time>2026-04-18T08:10:56.536Z</time></trkpt><trkpt lat="43.5198721" lon="10.8766984"><ele>346.40000000000003</ele><time>2026-04-18T08:10:57.537Z</time></trkpt><trkpt lat="43.5198903" lon="10.8768477"><ele>342.0</ele><time>2026-04-18T08:10:58.525Z</time></trkpt><trkpt lat="43.5199064" lon="10.8770035"><ele>342.0</ele><time>2026-04-18T08:10:59.535Z</time></trkpt><trkpt lat="43.519913" lon="10.8771653"><ele>342.0</ele><time>2026-04-18T08:11:00.526Z</time></trkpt><trkpt lat="43.5199336" lon="10.8773272"><ele>342.0</ele><time>2026-04-18T08:11:01.52Z</time></trkpt><trkpt lat="43.5199642" lon="10.877496"><ele>342.0</ele><time>2026-04-18T08:11:02.558Z</time></trkpt><trkpt lat="43.5199996" lon="10.877652"><ele>343.25</ele><time>2026-04-18T08:11:03.524Z</time></trkpt><trkpt lat="43.5200488" lon="10.8778142"><ele>344.5</ele><time>2026-04-18T08:11:04.534Z</time></trkpt><trkpt lat="43.5200993" lon="10.8779704"><ele>345.75</ele><time>2026-04-18T08:11:05.517Z</time></trkpt><trkpt lat="43.5201465" lon="10.8781354"><ele>347.0</ele><time>2026-04-18T08:11:06.528Z</time></trkpt><trkpt lat="43.5201874" lon="10.8782913"><ele>344.8</ele><time>2026-04-18T08:11:07.529Z</time></trkpt><trkpt lat="43.5202258" lon="10.878439"><ele>342.6</ele><time>2026-04-18T08:11:08.524Z</time></trkpt><trkpt lat="43.5202379" lon="10.8785747"><ele>340.40000000000003</ele><time>2026-04-18T08:11:09.542Z</time></trkpt><trkpt lat="43.520234" lon="10.8787009"><ele>338.20000000000005</ele><time>2026-04-18T08:11:10.55Z</time></trkpt><trkpt lat="43.5202019" lon="10.8788305"><ele>336.0</ele><time>2026-04-18T08:11:11.531Z</time></trkpt><trkpt lat="43.520147" lon="10.8789464"><ele>336.0</ele><time>2026-04-18T08:11:12.553Z</time></trkpt><trkpt lat="43.5200639" lon="10.8790622"><ele>336.0</ele><time>2026-04-18T08:11:13.536Z</time></trkpt><trkpt lat="43.5199651" lon="10.8791424"><ele>336.0</ele><time>2026-04-18T08:11:14.531Z</time></trkpt><trkpt lat="43.5198723" lon="10.8791871"><ele>336.0</ele><time>2026-04-18T08:11:15.532Z</time></trkpt><trkpt lat="43.5197782" lon="10.8791892"><ele>336.0</ele><time>2026-04-18T08:11:16.547Z</time></trkpt><trkpt lat="43.5196835" lon="10.8791668"><ele>336.0</ele><time>2026-04-18T08:11:17.526Z</time></trkpt><trkpt lat="43.5195821" lon="10.8791353"><ele>336.0</ele><time>2026-04-18T08:11:18.521Z</time></trkpt><trkpt lat="43.5194676" lon="10.8791093"><ele>336.0</ele><time>2026-04-18T08:11:19.533Z</time></trkpt><trkpt lat="43.5193655" lon="10.8790919"><ele>336.0</ele><time>2026-04-18T08:11:20.531Z</time></trkpt><trkpt lat="43.5192789" lon="10.8790844"><ele>336.0</ele><time>2026-04-18T08:11:21.536Z</time></trkpt><trkpt lat="43.5191707" lon="10.8790967"><ele>337.0</ele><time>2026-04-18T08:11:22.525Z</time></trkpt><trkpt lat="43.5190813" lon="10.879174"><ele>338.0</ele><time>2026-04-18T08:11:23.524Z</time></trkpt><trkpt lat="43.5190089" lon="10.8792773"><ele>339.0</ele><time>2026-04-18T08:11:24.528Z</time></trkpt><trkpt lat="43.5189898" lon="10.8794007"><ele>340.0</ele><time>2026-04-18T08:11:25.523Z</time></trkpt><trkpt lat="43.5190118" lon="10.8795154"><ele>341.0</ele><time>2026-04-18T08:11:26.533Z</time></trkpt><trkpt lat="43.5190517" lon="10.8796173"><ele>341.0</ele><time>2026-04-18T08:11:27.52Z</time></trkpt><trkpt lat="43.519144" lon="10.8796546"><ele>341.0</ele><time>2026-04-18T08:11:28.526Z</time></trkpt><trkpt lat="43.5192301" lon="10.8796797"><ele>341.0</ele><time>2026-04-18T08:11:29.526Z</time></trkpt><trkpt lat="43.519316" lon="10.8796794"><ele>341.0</ele><time>2026-04-18T08:11:30.528Z</time></trkpt><trkpt lat="43.5194051" lon="10.8797008"><ele>341.0</ele><time>2026-04-18T08:11:31.519Z</time></trkpt><trkpt lat="43.5194844" lon="10.8797529"><ele>341.0</ele><time>2026-04-18T08:11:32.518Z</time></trkpt><trkpt lat="43.5195381" lon="10.8798457"><ele>339.33333333333337</ele><time>2026-04-18T08:11:33.523Z</time></trkpt><trkpt lat="43.519597" lon="10.8799425"><ele>337.6666666666667</ele><time>2026-04-18T08:11:34.519Z</time></trkpt><trkpt lat="43.5196243" lon="10.8800438"><ele>336.0</ele><time>2026-04-18T08:11:35.524Z</time></trkpt><trkpt lat="43.5196285" lon="10.8801513"><ele>334.3333333333333</ele><time>2026-04-18T08:11:36.544Z</time></trkpt><trkpt lat="43.5196112" lon="10.8802637"><ele>332.66666666666663</ele><time>2026-04-18T08:11:37.518Z</time></trkpt><trkpt lat="43.5195782" lon="10.8803797"><ele>331.0</ele><time>2026-04-18T08:11:38.528Z</time></trkpt><trkpt lat="43.5195567" lon="10.8805109"><ele>331.0</ele><time>2026-04-18T08:11:39.524Z</time></trkpt><trkpt lat="43.5195537" lon="10.8806346"><ele>331.0</ele><time>2026-04-18T08:11:40.521Z</time></trkpt><trkpt lat="43.5195605" lon="10.8807537"><ele>331.0</ele><time>2026-04-18T08:11:41.516Z</time></trkpt><trkpt lat="43.5195688" lon="10.880885"><ele>331.0</ele><time>2026-04-18T08:11:42.536Z</time></trkpt><trkpt lat="43.5195843" lon="10.8810303"><ele>331.0</ele><time>2026-04-18T08:11:43.545Z</time></trkpt><trkpt lat="43.5195867" lon="10.8811828"><ele>332.8</ele><time>2026-04-18T08:11:44.527Z</time></trkpt><trkpt lat="43.5195745" lon="10.8813305"><ele>334.6</ele><time>2026-04-18T08:11:45.522Z</time></trkpt><trkpt lat="43.5195486" lon="10.88148"><ele>336.4</ele><time>2026-04-18T08:11:46.534Z</time></trkpt><trkpt lat="43.5195208" lon="10.8816293"><ele>338.2</ele><time>2026-04-18T08:11:47.524Z</time></trkpt><trkpt lat="43.5195038" lon="10.8817718"><ele>340.0</ele><time>2026-04-18T08:11:48.531Z</time></trkpt><trkpt lat="43.5195098" lon="10.8819187"><ele>341.8</ele><time>2026-04-18T08:11:49.529Z</time></trkpt><trkpt lat="43.519547" lon="10.8820574"><ele>343.6</ele><time>2026-04-18T08:11:50.529Z</time></trkpt><trkpt lat="43.5195877" lon="10.8821836"><ele>345.4</ele><time>2026-04-18T08:11:51.526Z</time></trkpt><trkpt lat="43.519639" lon="10.8823215"><ele>347.2</ele><time>2026-04-18T08:11:52.548Z</time></trkpt><trkpt lat="43.5196898" lon="10.8824507"><ele>349.0</ele><time>2026-04-18T08:11:53.53Z</time></trkpt><trkpt lat="43.519758" lon="10.8825764"><ele>351.4</ele><time>2026-04-18T08:11:54.515Z</time></trkpt><trkpt lat="43.5198272" lon="10.8826721"><ele>353.79999999999995</ele><time>2026-04-18T08:11:55.525Z</time></trkpt><trkpt lat="43.5199036" lon="10.8827551"><ele>356.20000000000005</ele><time>2026-04-18T08:11:56.516Z</time></trkpt><trkpt lat="43.5199978" lon="10.8828138"><ele>358.6</ele><time>2026-04-18T08:11:57.527Z</time></trkpt><trkpt lat="43.5200926" lon="10.8828841"><ele>361.0</ele><time>2026-04-18T08:11:58.525Z</time></trkpt><trkpt lat="43.5201837" lon="10.8829486"><ele>361.0</ele><time>2026-04-18T08:11:59.538Z</time></trkpt><trkpt lat="43.5202641" lon="10.8830099"><ele>361.0</ele><time>2026-04-18T08:12:00.522Z</time></trkpt><trkpt lat="43.5203686" lon="10.8830828"><ele>361.0</ele><time>2026-04-18T08:12:02.526Z</time></trkpt><trkpt lat="43.5204549" lon="10.8830466"><ele>361.0</ele><time>2026-04-18T08:12:03.525Z</time></trkpt><trkpt lat="43.5205301" lon="10.8830093"><ele>361.0</ele><time>2026-04-18T08:12:04.523Z</time></trkpt><trkpt lat="43.5206205" lon="10.8829964"><ele>360.16666666666663</ele><time>2026-04-18T08:12:05.529Z</time></trkpt><trkpt lat="43.5207027" lon="10.8830046"><ele>359.3333333333333</ele><time>2026-04-18T08:12:06.528Z</time></trkpt><trkpt lat="43.5207966" lon="10.8830378"><ele>358.5</ele><time>2026-04-18T08:12:07.521Z</time></trkpt><trkpt lat="43.5208805" lon="10.8830876"><ele>357.6666666666667</ele><time>2026-04-18T08:12:08.514Z</time></trkpt><trkpt lat="43.5209583" lon="10.8831285"><ele>356.83333333333337</ele><time>2026-04-18T08:12:09.526Z</time></trkpt><trkpt lat="43.5210362" lon="10.8831813"><ele>356.0</ele><time>2026-04-18T08:12:10.515Z</time></trkpt><trkpt lat="43.5211302" lon="10.8832691"><ele>356.0</ele><time>2026-04-18T08:12:11.541Z</time></trkpt><trkpt lat="43.5212111" lon="10.8833827"><ele>356.0</ele><time>2026-04-18T08:12:12.536Z</time></trkpt><trkpt lat="43.5212471" lon="10.8835009"><ele>356.0</ele><time>2026-04-18T08:12:13.534Z</time></trkpt><trkpt lat="43.5212673" lon="10.8836058"><ele>356.0</ele><time>2026-04-18T08:12:14.531Z</time></trkpt><trkpt lat="43.5212814" lon="10.8837315"><ele>356.0</ele><time>2026-04-18T08:12:15.535Z</time></trkpt><trkpt lat="43.521269" lon="10.8838459"><ele>356.83333333333337</ele><time>2026-04-18T08:12:16.541Z</time></trkpt><trkpt lat="43.5212224" lon="10.8839663"><ele>357.6666666666667</ele><time>2026-04-18T08:12:17.527Z</time></trkpt><trkpt lat="43.5211673" lon="10.8840402"><ele>358.5</ele><time>2026-04-18T08:12:18.526Z</time></trkpt><trkpt lat="43.521122" lon="10.8841236"><ele>359.3333333333333</ele><time>2026-04-18T08:12:19.524Z</time></trkpt><trkpt lat="43.5210807" lon="10.8842287"><ele>360.16666666666663</ele><time>2026-04-18T08:12:20.534Z</time></trkpt><trkpt lat="43.5210522" lon="10.8843586"><ele>361.0</ele><time>2026-04-18T08:12:21.544Z</time></trkpt><trkpt lat="43.5210509" lon="10.8844785"><ele>362.5</ele><time>2026-04-18T08:12:22.528Z</time></trkpt><trkpt lat="43.5210759" lon="10.8846308"><ele>364.0</ele><time>2026-04-18T08:12:23.524Z</time></trkpt><trkpt lat="43.5211227" lon="10.884784"><ele>365.5</ele><time>2026-04-18T08:12:24.537Z</time></trkpt><trkpt lat="43.5211855" lon="10.8849303"><ele>367.0</ele><time>2026-04-18T08:12:25.529Z</time></trkpt><trkpt lat="43.5212398" lon="10.8850927"><ele>364.5</ele><time>2026-04-18T08:12:26.543Z</time></trkpt><trkpt lat="43.5213053" lon="10.8852514"><ele>362.0</ele><time>2026-04-18T08:12:27.528Z</time></trkpt><trkpt lat="43.5213906" lon="10.8854126"><ele>359.5</ele><time>2026-04-18T08:12:28.518Z</time></trkpt><trkpt lat="43.5214802" lon="10.885572"><ele>357.0</ele><time>2026-04-18T08:12:29.522Z</time></trkpt><trkpt lat="43.5215728" lon="10.8857412"><ele>357.0</ele><time>2026-04-18T08:12:30.522Z</time></trkpt><trkpt lat="43.5216698" lon="10.8859054"><ele>357.0</ele><time>2026-04-18T08:12:31.525Z</time></trkpt><trkpt lat="43.5217543" lon="10.8860705"><ele>357.0</ele><time>2026-04-18T08:12:32.528Z</time></trkpt><trkpt lat="43.5218541" lon="10.8862609"><ele>359.3333333333333</ele><time>2026-04-18T08:12:33.518Z</time></trkpt><trkpt lat="43.5219368" lon="10.8864558"><ele>361.66666666666663</ele><time>2026-04-18T08:12:34.535Z</time></trkpt><trkpt lat="43.5220129" lon="10.886666"><ele>364.0</ele><time>2026-04-18T08:12:35.513Z</time></trkpt><trkpt lat="43.5220767" lon="10.8868783"><ele>364.0</ele><time>2026-04-18T08:12:36.526Z</time></trkpt><trkpt lat="43.5221473" lon="10.8870781"><ele>364.0</ele><time>2026-04-18T08:12:37.522Z</time></trkpt><trkpt lat="43.5222039" lon="10.8872682"><ele>364.0</ele><time>2026-04-18T08:12:38.518Z</time></trkpt><trkpt lat="43.5222675" lon="10.8874389"><ele>364.0</ele><time>2026-04-18T08:12:39.526Z</time></trkpt><trkpt lat="43.5223336" lon="10.8875953"><ele>366.0</ele><time>2026-04-18T08:12:40.524Z</time></trkpt><trkpt lat="43.5223892" lon="10.8877512"><ele>368.0</ele><time>2026-04-18T08:12:41.528Z</time></trkpt><trkpt lat="43.5224193" lon="10.8879408"><ele>370.0</ele><time>2026-04-18T08:12:42.525Z</time></trkpt><trkpt lat="43.5224162" lon="10.8881562"><ele>372.0</ele><time>2026-04-18T08:12:43.526Z</time></trkpt><trkpt lat="43.5223939" lon="10.8883618"><ele>374.0</ele><time>2026-04-18T08:12:44.526Z</time></trkpt><trkpt lat="43.5223704" lon="10.8885297"><ele>376.0</ele><time>2026-04-18T08:12:45.578Z</time></trkpt><trkpt lat="43.5223469" lon="10.8887136"><ele>378.0</ele><time>2026-04-18T08:12:46.533Z</time></trkpt><trkpt lat="43.5223172" lon="10.8889042"><ele>380.0</ele><time>2026-04-18T08:12:47.526Z</time></trkpt><trkpt lat="43.5222956" lon="10.8890823"><ele>380.0</ele><time>2026-04-18T08:12:48.53Z</time></trkpt><trkpt lat="43.5222828" lon="10.8892526"><ele>380.0</ele><time>2026-04-18T08:12:49.531Z</time></trkpt><trkpt lat="43.5222553" lon="10.8894263"><ele>380.0</ele><time>2026-04-18T08:12:50.538Z</time></trkpt><trkpt lat="43.5222304" lon="10.8896111"><ele>380.0</ele><time>2026-04-18T08:12:51.521Z</time></trkpt><trkpt lat="43.5222185" lon="10.8897852"><ele>382.0</ele><time>2026-04-18T08:12:52.529Z</time></trkpt><trkpt lat="43.5221916" lon="10.8899667"><ele>384.0</ele><time>2026-04-18T08:12:53.522Z</time></trkpt><trkpt lat="43.5221689" lon="10.8901315"><ele>386.0</ele><time>2026-04-18T08:12:54.519Z</time></trkpt><trkpt lat="43.522176" lon="10.8903102"><ele>388.0</ele><time>2026-04-18T08:12:55.53Z</time></trkpt><trkpt lat="43.5222211" lon="10.8904964"><ele>389.0</ele><time>2026-04-18T08:12:56.538Z</time></trkpt><trkpt lat="43.522267" lon="10.8906659"><ele>390.0</ele><time>2026-04-18T08:12:57.524Z</time></trkpt><trkpt lat="43.5223073" lon="10.8908321"><ele>391.0</ele><time>2026-04-18T08:12:58.524Z</time></trkpt><trkpt lat="43.5223499" lon="10.8909889"><ele>392.0</ele><time>2026-04-18T08:12:59.528Z</time></trkpt><trkpt lat="43.5224093" lon="10.8911509"><ele>393.0</ele><time>2026-04-18T08:13:00.528Z</time></trkpt><trkpt lat="43.522467" lon="10.8913124"><ele>394.0</ele><time>2026-04-18T08:13:01.536Z</time></trkpt><trkpt lat="43.5225216" lon="10.8914804"><ele>395.0</ele><time>2026-04-18T08:13:02.532Z</time></trkpt><trkpt lat="43.5225767" lon="10.8916496"><ele>396.0</ele><time>2026-04-18T08:13:03.536Z</time></trkpt><trkpt lat="43.522632" lon="10.8918088"><ele>397.5</ele><time>2026-04-18T08:13:04.529Z</time></trkpt><trkpt lat="43.5226907" lon="10.8919666"><ele>399.0</ele><time>2026-04-18T08:13:05.527Z</time></trkpt><trkpt lat="43.5227467" lon="10.8921331"><ele>400.5</ele><time>2026-04-18T08:13:06.54Z</time></trkpt><trkpt lat="43.5227987" lon="10.8922987"><ele>402.0</ele><time>2026-04-18T08:13:07.525Z</time></trkpt><trkpt lat="43.5228584" lon="10.8924724"><ele>401.5</ele><time>2026-04-18T08:13:08.526Z</time></trkpt><trkpt lat="43.5229148" lon="10.8926434"><ele>401.0</ele><time>2026-04-18T08:13:09.528Z</time></trkpt><trkpt lat="43.5229711" lon="10.8928205"><ele>400.5</ele><time>2026-04-18T08:13:10.524Z</time></trkpt><trkpt lat="43.5230262" lon="10.8930023"><ele>400.0</ele><time>2026-04-18T08:13:11.527Z</time></trkpt><trkpt lat="43.5230842" lon="10.8931889"><ele>400.0</ele><time>2026-04-18T08:13:12.534Z</time></trkpt><trkpt lat="43.5231408" lon="10.8933753"><ele>400.0</ele><time>2026-04-18T08:13:13.528Z</time></trkpt><trkpt lat="43.5231988" lon="10.8935571"><ele>400.0</ele><time>2026-04-18T08:13:14.526Z</time></trkpt><trkpt lat="43.5232534" lon="10.8937259"><ele>400.0</ele><time>2026-04-18T08:13:15.522Z</time></trkpt><trkpt lat="43.5233045" lon="10.893896"><ele>400.5</ele><time>2026-04-18T08:13:16.524Z</time></trkpt><trkpt lat="43.5233541" lon="10.8940675"><ele>401.0</ele><time>2026-04-18T08:13:17.528Z</time></trkpt><trkpt lat="43.5234079" lon="10.8942213"><ele>401.5</ele><time>2026-04-18T08:13:18.532Z</time></trkpt><trkpt lat="43.5234722" lon="10.894364"><ele>402.0</ele><time>2026-04-18T08:13:19.52Z</time></trkpt><trkpt lat="43.5235374" lon="10.8945067"><ele>402.0</ele><time>2026-04-18T08:13:20.525Z</time></trkpt><trkpt lat="43.5236027" lon="10.8946592"><ele>402.0</ele><time>2026-04-18T08:13:21.528Z</time></trkpt><trkpt lat="43.5236643" lon="10.894813"><ele>402.0</ele><time>2026-04-18T08:13:22.526Z</time></trkpt><trkpt lat="43.5237225" lon="10.8949673"><ele>402.0</ele><time>2026-04-18T08:13:23.538Z</time></trkpt><trkpt lat="43.5237691" lon="10.8951209"><ele>403.0</ele><time>2026-04-18T08:13:24.531Z</time></trkpt><trkpt lat="43.5238091" lon="10.8952811"><ele>404.0</ele><time>2026-04-18T08:13:25.528Z</time></trkpt><trkpt lat="43.5238574" lon="10.8954253"><ele>405.0</ele><time>2026-04-18T08:13:27.525Z</time></trkpt><trkpt lat="43.5238782" lon="10.8955161"><ele>406.0</ele><time>2026-04-18T08:13:35.526Z</time></trkpt><trkpt lat="43.523925" lon="10.8956302"><ele>407.0</ele><time>2026-04-18T08:13:37.53Z</time></trkpt><trkpt lat="43.5239668" lon="10.8957773"><ele>408.0</ele><time>2026-04-18T08:13:39.536Z</time></trkpt><trkpt lat="43.523988" lon="10.8959534"><ele>409.0</ele><time>2026-04-18T08:13:41.532Z</time></trkpt><trkpt lat="43.5240142" lon="10.8960566"><ele>410.0</ele><time>2026-04-18T08:13:42.52Z</time></trkpt><trkpt lat="43.5240441" lon="10.8961804"><ele>411.0</ele><time>2026-04-18T08:13:43.528Z</time></trkpt><trkpt lat="43.524079" lon="10.8963213"><ele>412.0</ele><time>2026-04-18T08:13:44.543Z</time></trkpt><trkpt lat="43.5241091" lon="10.89646"><ele>412.0</ele><time>2026-04-18T08:13:45.522Z</time></trkpt><trkpt lat="43.5241403" lon="10.8965986"><ele>412.0</ele><time>2026-04-18T08:13:46.53Z</time></trkpt><trkpt lat="43.524175" lon="10.8967391"><ele>412.0</ele><time>2026-04-18T08:13:47.533Z</time></trkpt><trkpt lat="43.5242084" lon="10.8968765"><ele>412.0</ele><time>2026-04-18T08:13:48.539Z</time></trkpt><trkpt lat="43.5242377" lon="10.8970193"><ele>412.0</ele><time>2026-04-18T08:13:49.531Z</time></trkpt><trkpt lat="43.5242631" lon="10.8971597"><ele>412.20000000000005</ele><time>2026-04-18T08:13:50.52Z</time></trkpt><trkpt lat="43.524298" lon="10.8972944"><ele>412.4</ele><time>2026-04-18T08:13:51.533Z</time></trkpt><trkpt lat="43.5243304" lon="10.8974162"><ele>412.6</ele><time>2026-04-18T08:13:52.509Z</time></trkpt><trkpt lat="43.5243561" lon="10.8975362"><ele>412.79999999999995</ele><time>2026-04-18T08:13:53.523Z</time></trkpt><trkpt lat="43.5243773" lon="10.8976542"><ele>413.0</ele><time>2026-04-18T08:13:54.518Z</time></trkpt><trkpt lat="43.5243988" lon="10.8977649"><ele>413.8333333333333</ele><time>2026-04-18T08:13:55.532Z</time></trkpt><trkpt lat="43.5244088" lon="10.8978685"><ele>414.66666666666663</ele><time>2026-04-18T08:13:56.526Z</time></trkpt><trkpt lat="43.5244333" lon="10.8979866"><ele>415.5</ele><time>2026-04-18T08:13:57.522Z</time></trkpt><trkpt lat="43.5243941" lon="10.8980916"><ele>416.33333333333337</ele><time>2026-04-18T08:13:59.522Z</time></trkpt><trkpt lat="43.5243536" lon="10.8981935"><ele>417.1666666666667</ele><time>2026-04-18T08:14:00.531Z</time></trkpt><trkpt lat="43.5242843" lon="10.8982582"><ele>418.0</ele><time>2026-04-18T08:14:01.535Z</time></trkpt><trkpt lat="43.5242068" lon="10.8983577"><ele>420.5</ele><time>2026-04-18T08:14:02.532Z</time></trkpt><trkpt lat="43.5241181" lon="10.8984595"><ele>423.0</ele><time>2026-04-18T08:14:03.526Z</time></trkpt><trkpt lat="43.5240224" lon="10.8985885"><ele>425.5</ele><time>2026-04-18T08:14:04.537Z</time></trkpt><trkpt lat="43.523932" lon="10.8986965"><ele>428.0</ele><time>2026-04-18T08:14:05.53Z</time></trkpt><trkpt lat="43.5238359" lon="10.898799"><ele>428.0</ele><time>2026-04-18T08:14:06.544Z</time></trkpt><trkpt lat="43.5237372" lon="10.8989151"><ele>428.0</ele><time>2026-04-18T08:14:07.526Z</time></trkpt><trkpt lat="43.5236328" lon="10.8990331"><ele>428.0</ele><time>2026-04-18T08:14:08.535Z</time></trkpt><trkpt lat="43.5235261" lon="10.8991484"><ele>428.0</ele><time>2026-04-18T08:14:09.537Z</time></trkpt><trkpt lat="43.523412" lon="10.8992609"><ele>428.0</ele><time>2026-04-18T08:14:10.543Z</time></trkpt><trkpt lat="43.52329" lon="10.8993615"><ele>428.0</ele><time>2026-04-18T08:14:11.525Z</time></trkpt><trkpt lat="43.5231623" lon="10.8994512"><ele>428.0</ele><time>2026-04-18T08:14:12.522Z</time></trkpt><trkpt lat="43.5230293" lon="10.8995361"><ele>428.0</ele><time>2026-04-18T08:14:13.535Z</time></trkpt><trkpt lat="43.5228878" lon="10.8996108"><ele>428.0</ele><time>2026-04-18T08:14:14.524Z</time></trkpt><trkpt lat="43.5227414" lon="10.8996736"><ele>428.0</ele><time>2026-04-18T08:14:15.56Z</time></trkpt><trkpt lat="43.522594" lon="10.8997359"><ele>428.0</ele><time>2026-04-18T08:14:16.534Z</time></trkpt><trkpt lat="43.5224544" lon="10.8998015"><ele>428.0</ele><time>2026-04-18T08:14:17.533Z</time></trkpt><trkpt lat="43.5223053" lon="10.8998674"><ele>428.0</ele><time>2026-04-18T08:14:18.522Z</time></trkpt><trkpt lat="43.5221487" lon="10.8999282"><ele>428.0</ele><time>2026-04-18T08:14:19.526Z</time></trkpt><trkpt lat="43.521992" lon="10.9000148"><ele>429.66666666666663</ele><time>2026-04-18T08:14:20.529Z</time></trkpt><trkpt lat="43.5218234" lon="10.9001248"><ele>431.33333333333337</ele><time>2026-04-18T08:14:21.521Z</time></trkpt><trkpt lat="43.5216859" lon="10.9002547"><ele>433.0</ele><time>2026-04-18T08:14:22.523Z</time></trkpt><trkpt lat="43.521534" lon="10.9004166"><ele>433.0</ele><time>2026-04-18T08:14:23.567Z</time></trkpt><trkpt lat="43.5213872" lon="10.9005937"><ele>433.0</ele><time>2026-04-18T08:14:24.521Z</time></trkpt><trkpt lat="43.5212441" lon="10.9007442"><ele>433.0</ele><time>2026-04-18T08:14:25.526Z</time></trkpt><trkpt lat="43.5210929" lon="10.9009066"><ele>435.0</ele><time>2026-04-18T08:14:26.531Z</time></trkpt><trkpt lat="43.5209535" lon="10.9010811"><ele>437.0</ele><time>2026-04-18T08:14:27.523Z</time></trkpt><trkpt lat="43.5208041" lon="10.9012378"><ele>439.0</ele><time>2026-04-18T08:14:28.526Z</time></trkpt><trkpt lat="43.5206673" lon="10.901406"><ele>439.0</ele><time>2026-04-18T08:14:29.527Z</time></trkpt><trkpt lat="43.5205124" lon="10.9015559"><ele>439.0</ele><time>2026-04-18T08:14:30.515Z</time></trkpt><trkpt lat="43.5203748" lon="10.901716"><ele>439.0</ele><time>2026-04-18T08:14:31.528Z</time></trkpt><trkpt lat="43.5202375" lon="10.9018726"><ele>438.0</ele><time>2026-04-18T08:14:32.531Z</time></trkpt><trkpt lat="43.5200907" lon="10.9020193"><ele>437.0</ele><time>2026-04-18T08:14:33.533Z</time></trkpt><trkpt lat="43.5199484" lon="10.9021771"><ele>436.0</ele><time>2026-04-18T08:14:34.533Z</time></trkpt><trkpt lat="43.5197921" lon="10.9023022"><ele>436.0</ele><time>2026-04-18T08:14:35.54Z</time></trkpt><trkpt lat="43.5196254" lon="10.9024244"><ele>436.0</ele><time>2026-04-18T08:14:36.552Z</time></trkpt><trkpt lat="43.5194576" lon="10.9025216"><ele>436.0</ele><time>2026-04-18T08:14:37.539Z</time></trkpt><trkpt lat="43.5192775" lon="10.9025891"><ele>438.0</ele><time>2026-04-18T08:14:38.555Z</time></trkpt><trkpt lat="43.5190927" lon="10.9026254"><ele>440.0</ele><time>2026-04-18T08:14:39.523Z</time></trkpt><trkpt lat="43.5189097" lon="10.9026416"><ele>442.0</ele><time>2026-04-18T08:14:40.537Z</time></trkpt><trkpt lat="43.518738" lon="10.9026404"><ele>441.6666666666667</ele><time>2026-04-18T08:14:41.522Z</time></trkpt><trkpt lat="43.5185544" lon="10.9026491"><ele>441.33333333333337</ele><time>2026-04-18T08:14:42.52Z</time></trkpt><trkpt lat="43.5183782" lon="10.9026548"><ele>441.0</ele><time>2026-04-18T08:14:43.522Z</time></trkpt><trkpt lat="43.5182094" lon="10.9026549"><ele>441.0</ele><time>2026-04-18T08:14:44.517Z</time></trkpt><trkpt lat="43.5180461" lon="10.9026636"><ele>441.0</ele><time>2026-04-18T08:14:45.53Z</time></trkpt><trkpt lat="43.517881" lon="10.9026678"><ele>441.0</ele><time>2026-04-18T08:14:46.53Z</time></trkpt><trkpt lat="43.5177426" lon="10.9026792"><ele>443.0</ele><time>2026-04-18T08:14:47.493Z</time></trkpt><trkpt lat="43.5175857" lon="10.9026811"><ele>445.0</ele><time>2026-04-18T08:14:48.483Z</time></trkpt><trkpt lat="43.5174403" lon="10.9026339"><ele>447.0</ele><time>2026-04-18T08:14:49.492Z</time></trkpt><trkpt lat="43.5173035" lon="10.9025884"><ele>449.0</ele><time>2026-04-18T08:14:50.482Z</time></trkpt><trkpt lat="43.5171746" lon="10.9025206"><ele>452.0</ele><time>2026-04-18T08:14:51.489Z</time></trkpt><trkpt lat="43.5170602" lon="10.9024039"><ele>455.0</ele><time>2026-04-18T08:14:52.491Z</time></trkpt><trkpt lat="43.5169457" lon="10.9022941"><ele>458.0</ele><time>2026-04-18T08:14:53.487Z</time></trkpt><trkpt lat="43.5168409" lon="10.9021623"><ele>461.0</ele><time>2026-04-18T08:14:54.493Z</time></trkpt><trkpt lat="43.5167403" lon="10.9020235"><ele>461.0</ele><time>2026-04-18T08:14:55.484Z</time></trkpt><trkpt lat="43.5166435" lon="10.9018903"><ele>461.0</ele><time>2026-04-18T08:14:56.481Z</time></trkpt><trkpt lat="43.5165318" lon="10.9017485"><ele>461.0</ele><time>2026-04-18T08:14:57.472Z</time></trkpt><trkpt lat="43.516411" lon="10.9016083"><ele>461.0</ele><time>2026-04-18T08:14:58.491Z</time></trkpt><trkpt lat="43.5162789" lon="10.9014814"><ele>462.0</ele><time>2026-04-18T08:14:59.498Z</time></trkpt><trkpt lat="43.5161402" lon="10.9013525"><ele>463.0</ele><time>2026-04-18T08:15:00.487Z</time></trkpt><trkpt lat="43.5159773" lon="10.9012295"><ele>464.0</ele><time>2026-04-18T08:15:01.479Z</time></trkpt><trkpt lat="43.5158155" lon="10.9011029"><ele>464.0</ele><time>2026-04-18T08:15:02.498Z</time></trkpt><trkpt lat="43.5156485" lon="10.900989"><ele>464.0</ele><time>2026-04-18T08:15:03.507Z</time></trkpt><trkpt lat="43.5154717" lon="10.9008822"><ele>464.0</ele><time>2026-04-18T08:15:04.502Z</time></trkpt><trkpt lat="43.5153104" lon="10.900769"><ele>467.0</ele><time>2026-04-18T08:15:05.508Z</time></trkpt><trkpt lat="43.5151332" lon="10.9006561"><ele>470.0</ele><time>2026-04-18T08:15:06.47Z</time></trkpt><trkpt lat="43.5149597" lon="10.9005441"><ele>473.0</ele><time>2026-04-18T08:15:07.477Z</time></trkpt><trkpt lat="43.5147801" lon="10.9004411"><ele>473.0</ele><time>2026-04-18T08:15:08.507Z</time></trkpt><trkpt lat="43.5146143" lon="10.9003321"><ele>473.0</ele><time>2026-04-18T08:15:09.511Z</time></trkpt><trkpt lat="43.5144399" lon="10.9002245"><ele>473.0</ele><time>2026-04-18T08:15:10.478Z</time></trkpt><trkpt lat="43.5142775" lon="10.9001016"><ele>474.66666666666663</ele><time>2026-04-18T08:15:11.483Z</time></trkpt><trkpt lat="43.5141248" lon="10.8999587"><ele>476.33333333333337</ele><time>2026-04-18T08:15:12.503Z</time></trkpt><trkpt lat="43.5139812" lon="10.8997797"><ele>478.0</ele><time>2026-04-18T08:15:13.5Z</time></trkpt><trkpt lat="43.5138265" lon="10.8996054"><ele>477.33333333333337</ele><time>2026-04-18T08:15:14.507Z</time></trkpt><trkpt lat="43.5136811" lon="10.8994315"><ele>476.66666666666663</ele><time>2026-04-18T08:15:15.506Z</time></trkpt><trkpt lat="43.5135381" lon="10.8992764"><ele>476.0</ele><time>2026-04-18T08:15:16.501Z</time></trkpt><trkpt lat="43.5133967" lon="10.8991468"><ele>478.3333333333333</ele><time>2026-04-18T08:15:17.507Z</time></trkpt><trkpt lat="43.5132391" lon="10.8990162"><ele>480.66666666666663</ele><time>2026-04-18T08:15:18.507Z</time></trkpt><trkpt lat="43.5130907" lon="10.8989268"><ele>483.0</ele><time>2026-04-18T08:15:19.503Z</time></trkpt><trkpt lat="43.5129297" lon="10.898862"><ele>481.33333333333337</ele><time>2026-04-18T08:15:20.5Z</time></trkpt><trkpt lat="43.5127624" lon="10.8988423"><ele>479.6666666666667</ele><time>2026-04-18T08:15:21.497Z</time></trkpt><trkpt lat="43.512602" lon="10.8988695"><ele>478.0</ele><time>2026-04-18T08:15:22.508Z</time></trkpt><trkpt lat="43.5124359" lon="10.8989347"><ele>478.0</ele><time>2026-04-18T08:15:23.496Z</time></trkpt><trkpt lat="43.5122706" lon="10.8990385"><ele>478.0</ele><time>2026-04-18T08:15:24.503Z</time></trkpt><trkpt lat="43.5121176" lon="10.8991806"><ele>478.0</ele><time>2026-04-18T08:15:25.495Z</time></trkpt><trkpt lat="43.5119883" lon="10.8993321"><ele>480.33333333333337</ele><time>2026-04-18T08:15:26.502Z</time></trkpt><trkpt lat="43.5118943" lon="10.8995081"><ele>482.66666666666663</ele><time>2026-04-18T08:15:27.49Z</time></trkpt><trkpt lat="43.5118241" lon="10.899711"><ele>485.0</ele><time>2026-04-18T08:15:28.475Z</time></trkpt><trkpt lat="43.51177" lon="10.8999232"><ele>484.66666666666663</ele><time>2026-04-18T08:15:29.496Z</time></trkpt><trkpt lat="43.5117308" lon="10.9001478"><ele>484.33333333333337</ele><time>2026-04-18T08:15:30.498Z</time></trkpt><trkpt lat="43.511716" lon="10.9003948"><ele>484.0</ele><time>2026-04-18T08:15:31.482Z</time></trkpt><trkpt lat="43.5117239" lon="10.9006512"><ele>484.0</ele><time>2026-04-18T08:15:32.483Z</time></trkpt><trkpt lat="43.5117523" lon="10.9009"><ele>484.0</ele><time>2026-04-18T08:15:33.487Z</time></trkpt><trkpt lat="43.5117865" lon="10.9011455"><ele>484.0</ele><time>2026-04-18T08:15:34.497Z</time></trkpt><trkpt lat="43.5118516" lon="10.9013711"><ele>484.0</ele><time>2026-04-18T08:15:35.489Z</time></trkpt><trkpt lat="43.5119377" lon="10.9015846"><ele>484.0</ele><time>2026-04-18T08:15:36.493Z</time></trkpt><trkpt lat="43.5120065" lon="10.9017936"><ele>484.0</ele><time>2026-04-18T08:15:37.481Z</time></trkpt><trkpt lat="43.5120713" lon="10.9020104"><ele>484.0</ele><time>2026-04-18T08:15:38.489Z</time></trkpt><trkpt lat="43.5121311" lon="10.9022296"><ele>484.0</ele><time>2026-04-18T08:15:39.49Z</time></trkpt><trkpt lat="43.5121926" lon="10.9024649"><ele>484.0</ele><time>2026-04-18T08:15:40.503Z</time></trkpt><trkpt lat="43.5122172" lon="10.9027226"><ele>484.0</ele><time>2026-04-18T08:15:41.5Z</time></trkpt><trkpt lat="43.5122054" lon="10.9029726"><ele>484.0</ele><time>2026-04-18T08:15:42.508Z</time></trkpt><trkpt lat="43.512193" lon="10.90323"><ele>484.0</ele><time>2026-04-18T08:15:43.529Z</time></trkpt><trkpt lat="43.5121565" lon="10.9037184"><ele>484.33333333333337</ele><time>2026-04-18T08:15:45.49Z</time></trkpt><trkpt lat="43.5121349" lon="10.9039457"><ele>484.66666666666663</ele><time>2026-04-18T08:15:46.501Z</time></trkpt><trkpt lat="43.512094" lon="10.9041643"><ele>485.0</ele><time>2026-04-18T08:15:47.488Z</time></trkpt><trkpt lat="43.5120138" lon="10.9043758"><ele>486.25</ele><time>2026-04-18T08:15:48.523Z</time></trkpt><trkpt lat="43.5119143" lon="10.9045539"><ele>487.5</ele><time>2026-04-18T08:15:49.493Z</time></trkpt><trkpt lat="43.5117989" lon="10.9046706"><ele>488.75</ele><time>2026-04-18T08:15:50.496Z</time></trkpt><trkpt lat="43.5116734" lon="10.9047647"><ele>490.0</ele><time>2026-04-18T08:15:51.488Z</time></trkpt><trkpt lat="43.5114973" lon="10.9048512"><ele>490.0</ele><time>2026-04-18T08:15:52.504Z</time></trkpt><trkpt lat="43.5113292" lon="10.9049128"><ele>490.0</ele><time>2026-04-18T08:15:53.512Z</time></trkpt><trkpt lat="43.5111381" lon="10.9049488"><ele>490.0</ele><time>2026-04-18T08:15:54.487Z</time></trkpt><trkpt lat="43.5109438" lon="10.9049894"><ele>490.33333333333337</ele><time>2026-04-18T08:15:55.485Z</time></trkpt><trkpt lat="43.5107534" lon="10.9050452"><ele>490.66666666666663</ele><time>2026-04-18T08:15:56.48Z</time></trkpt><trkpt lat="43.5105668" lon="10.9051098"><ele>491.0</ele><time>2026-04-18T08:15:57.477Z</time></trkpt><trkpt lat="43.5103676" lon="10.9051817"><ele>491.0</ele><time>2026-04-18T08:15:58.483Z</time></trkpt><trkpt lat="43.5101842" lon="10.905242"><ele>491.0</ele><time>2026-04-18T08:15:59.494Z</time></trkpt><trkpt lat="43.5099878" lon="10.9053081"><ele>491.0</ele><time>2026-04-18T08:16:00.486Z</time></trkpt><trkpt lat="43.5097879" lon="10.9053795"><ele>491.0</ele><time>2026-04-18T08:16:01.487Z</time></trkpt><trkpt lat="43.5095934" lon="10.905448"><ele>491.0</ele><time>2026-04-18T08:16:02.499Z</time></trkpt><trkpt lat="43.5094022" lon="10.9055127"><ele>491.0</ele><time>2026-04-18T08:16:03.488Z</time></trkpt><trkpt lat="43.5092081" lon="10.9055863"><ele>493.66666666666663</ele><time>2026-04-18T08:16:04.489Z</time></trkpt><trkpt lat="43.5090187" lon="10.9056605"><ele>496.33333333333337</ele><time>2026-04-18T08:16:05.487Z</time></trkpt><trkpt lat="43.5088365" lon="10.9057307"><ele>499.0</ele><time>2026-04-18T08:16:06.498Z</time></trkpt><trkpt lat="43.5086652" lon="10.9057981"><ele>501.0</ele><time>2026-04-18T08:16:07.496Z</time></trkpt><trkpt lat="43.5084951" lon="10.9058535"><ele>503.0</ele><time>2026-04-18T08:16:08.496Z</time></trkpt><trkpt lat="43.5083379" lon="10.9059192"><ele>505.0</ele><time>2026-04-18T08:16:09.493Z</time></trkpt><trkpt lat="43.5081843" lon="10.9059798"><ele>505.6666666666667</ele><time>2026-04-18T08:16:10.501Z</time></trkpt><trkpt lat="43.5080276" lon="10.9060444"><ele>506.33333333333337</ele><time>2026-04-18T08:16:11.494Z</time></trkpt><trkpt lat="43.5078611" lon="10.9061064"><ele>507.0</ele><time>2026-04-18T08:16:12.485Z</time></trkpt><trkpt lat="43.5077019" lon="10.9061801"><ele>508.0</ele><time>2026-04-18T08:16:13.489Z</time></trkpt><trkpt lat="43.5075558" lon="10.906265"><ele>509.0</ele><time>2026-04-18T08:16:14.487Z</time></trkpt><trkpt lat="43.5074161" lon="10.9063958"><ele>510.0</ele><time>2026-04-18T08:16:15.491Z</time></trkpt><trkpt lat="43.5072756" lon="10.9065436"><ele>510.0</ele><time>2026-04-18T08:16:16.487Z</time></trkpt><trkpt lat="43.5071367" lon="10.9066967"><ele>510.0</ele><time>2026-04-18T08:16:17.515Z</time></trkpt><trkpt lat="43.506993" lon="10.9068525"><ele>510.0</ele><time>2026-04-18T08:16:18.494Z</time></trkpt><trkpt lat="43.5068439" lon="10.9070155"><ele>513.3333333333334</ele><time>2026-04-18T08:16:19.498Z</time></trkpt><trkpt lat="43.5066885" lon="10.9071852"><ele>516.6666666666667</ele><time>2026-04-18T08:16:20.505Z</time></trkpt><trkpt lat="43.5065384" lon="10.9073634"><ele>520.0</ele><time>2026-04-18T08:16:21.504Z</time></trkpt><trkpt lat="43.5063853" lon="10.9075306"><ele>521.3333333333334</ele><time>2026-04-18T08:16:22.492Z</time></trkpt><trkpt lat="43.5062364" lon="10.9077139"><ele>522.6666666666666</ele><time>2026-04-18T08:16:23.503Z</time></trkpt><trkpt lat="43.506083" lon="10.907884"><ele>524.0</ele><time>2026-04-18T08:16:24.511Z</time></trkpt><trkpt lat="43.5059204" lon="10.9080088"><ele>524.0</ele><time>2026-04-18T08:16:25.505Z</time></trkpt><trkpt lat="43.5057248" lon="10.9080958"><ele>524.0</ele><time>2026-04-18T08:16:26.502Z</time></trkpt><trkpt lat="43.5055246" lon="10.9081418"><ele>524.0</ele><time>2026-04-18T08:16:27.508Z</time></trkpt><trkpt lat="43.5053308" lon="10.9081634"><ele>525.3333333333333</ele><time>2026-04-18T08:16:28.507Z</time></trkpt><trkpt lat="43.505139" lon="10.9081337"><ele>526.6666666666666</ele><time>2026-04-18T08:16:29.5Z</time></trkpt><trkpt lat="43.5049377" lon="10.9080824"><ele>528.0</ele><time>2026-04-18T08:16:30.509Z</time></trkpt><trkpt lat="43.5047302" lon="10.908036"><ele>530.0</ele><time>2026-04-18T08:16:31.484Z</time></trkpt><trkpt lat="43.5045164" lon="10.9079918"><ele>532.0</ele><time>2026-04-18T08:16:32.501Z</time></trkpt><trkpt lat="43.5043129" lon="10.9079585"><ele>534.0</ele><time>2026-04-18T08:16:33.514Z</time></trkpt><trkpt lat="43.5041178" lon="10.9079336"><ele>534.0</ele><time>2026-04-18T08:16:34.503Z</time></trkpt><trkpt lat="43.5039161" lon="10.9079113"><ele>534.0</ele><time>2026-04-18T08:16:35.507Z</time></trkpt><trkpt lat="43.5037247" lon="10.9078906"><ele>534.0</ele><time>2026-04-18T08:16:36.502Z</time></trkpt><trkpt lat="43.5035353" lon="10.9078691"><ele>534.6666666666666</ele><time>2026-04-18T08:16:37.506Z</time></trkpt><trkpt lat="43.5033363" lon="10.9078354"><ele>535.3333333333333</ele><time>2026-04-18T08:16:38.5Z</time></trkpt><trkpt lat="43.5031364" lon="10.9078043"><ele>536.0</ele><time>2026-04-18T08:16:39.5Z</time></trkpt><trkpt lat="43.5029325" lon="10.9077753"><ele>535.3333333333333</ele><time>2026-04-18T08:16:40.508Z</time></trkpt><trkpt lat="43.5027254" lon="10.9077521"><ele>534.6666666666666</ele><time>2026-04-18T08:16:41.516Z</time></trkpt><trkpt lat="43.5025218" lon="10.9077174"><ele>534.0</ele><time>2026-04-18T08:16:42.501Z</time></trkpt><trkpt lat="43.5023168" lon="10.9076837"><ele>534.0</ele><time>2026-04-18T08:16:43.514Z</time></trkpt><trkpt lat="43.5021129" lon="10.9076444"><ele>534.0</ele><time>2026-04-18T08:16:44.503Z</time></trkpt><trkpt lat="43.5019127" lon="10.9076212"><ele>534.0</ele><time>2026-04-18T08:16:45.507Z</time></trkpt><trkpt lat="43.5017253" lon="10.9076322"><ele>535.0</ele><time>2026-04-18T08:16:46.514Z</time></trkpt><trkpt lat="43.5015517" lon="10.9077044"><ele>536.0</ele><time>2026-04-18T08:16:47.52Z</time></trkpt><trkpt lat="43.5014072" lon="10.9078312"><ele>537.0</ele><time>2026-04-18T08:16:48.515Z</time></trkpt><trkpt lat="43.5012744" lon="10.9079971"><ele>538.6666666666666</ele><time>2026-04-18T08:16:49.507Z</time></trkpt><trkpt lat="43.5011665" lon="10.9081888"><ele>540.3333333333333</ele><time>2026-04-18T08:16:50.508Z</time></trkpt><trkpt lat="43.5010854" lon="10.9083856"><ele>542.0</ele><time>2026-04-18T08:16:51.497Z</time></trkpt><trkpt lat="43.5010033" lon="10.9085947"><ele>542.0</ele><time>2026-04-18T08:16:52.486Z</time></trkpt><trkpt lat="43.5009275" lon="10.908809"><ele>542.0</ele><time>2026-04-18T08:16:53.498Z</time></trkpt><trkpt lat="43.5008607" lon="10.9090343"><ele>542.0</ele><time>2026-04-18T08:16:54.505Z</time></trkpt><trkpt lat="43.500799" lon="10.9092704"><ele>542.0</ele><time>2026-04-18T08:16:55.485Z</time></trkpt><trkpt lat="43.5007507" lon="10.9095045"><ele>542.0</ele><time>2026-04-18T08:16:56.494Z</time></trkpt><trkpt lat="43.5007064" lon="10.9097156"><ele>542.0</ele><time>2026-04-18T08:16:57.501Z</time></trkpt><trkpt lat="43.5006633" lon="10.9099096"><ele>543.0</ele><time>2026-04-18T08:16:58.501Z</time></trkpt><trkpt lat="43.5006353" lon="10.9100937"><ele>544.0</ele><time>2026-04-18T08:16:59.496Z</time></trkpt><trkpt lat="43.5006314" lon="10.9102815"><ele>545.0</ele><time>2026-04-18T08:17:00.498Z</time></trkpt><trkpt lat="43.5006544" lon="10.9104587"><ele>546.0</ele><time>2026-04-18T08:17:01.493Z</time></trkpt><trkpt lat="43.5006859" lon="10.9106533"><ele>546.0</ele><time>2026-04-18T08:17:02.497Z</time></trkpt><trkpt lat="43.5007442" lon="10.9108601"><ele>546.0</ele><time>2026-04-18T08:17:03.489Z</time></trkpt><trkpt lat="43.5007809" lon="10.9110425"><ele>546.0</ele><time>2026-04-18T08:17:04.49Z</time></trkpt><trkpt lat="43.5008167" lon="10.9112337"><ele>546.0</ele><time>2026-04-18T08:17:05.489Z</time></trkpt><trkpt lat="43.5008046" lon="10.9114421"><ele>546.0</ele><time>2026-04-18T08:17:06.499Z</time></trkpt><trkpt lat="43.5008277" lon="10.9116864"><ele>546.0</ele><time>2026-04-18T08:17:07.49Z</time></trkpt><trkpt lat="43.5008248" lon="10.9118993"><ele>546.0</ele><time>2026-04-18T08:17:08.497Z</time></trkpt><trkpt lat="43.5007699" lon="10.9121394"><ele>544.3333333333334</ele><time>2026-04-18T08:17:09.503Z</time></trkpt><trkpt lat="43.5006971" lon="10.9123737"><ele>542.6666666666667</ele><time>2026-04-18T08:17:10.5Z</time></trkpt><trkpt lat="43.5005987" lon="10.9126107"><ele>541.0</ele><time>2026-04-18T08:17:11.508Z</time></trkpt><trkpt lat="43.5005013" lon="10.9128296"><ele>540.0</ele><time>2026-04-18T08:17:12.509Z</time></trkpt><trkpt lat="43.5004156" lon="10.913056"><ele>539.0</ele><time>2026-04-18T08:17:13.501Z</time></trkpt><trkpt lat="43.5003113" lon="10.9132877"><ele>538.0</ele><time>2026-04-18T08:17:14.499Z</time></trkpt><trkpt lat="43.5002" lon="10.9135394"><ele>538.0</ele><time>2026-04-18T08:17:15.486Z</time></trkpt><trkpt lat="43.5000925" lon="10.9137621"><ele>538.0</ele><time>2026-04-18T08:17:16.514Z</time></trkpt><trkpt lat="43.4999969" lon="10.9139652"><ele>538.0</ele><time>2026-04-18T08:17:17.492Z</time></trkpt><trkpt lat="43.4999186" lon="10.9141812"><ele>538.0</ele><time>2026-04-18T08:17:18.501Z</time></trkpt><trkpt lat="43.4998602" lon="10.914437"><ele>538.0</ele><time>2026-04-18T08:17:19.501Z</time></trkpt><trkpt lat="43.4998382" lon="10.914692"><ele>538.0</ele><time>2026-04-18T08:17:20.495Z</time></trkpt><trkpt lat="43.4998525" lon="10.9149234"><ele>537.6666666666667</ele><time>2026-04-18T08:17:21.492Z</time></trkpt><trkpt lat="43.4998964" lon="10.9151612"><ele>537.3333333333334</ele><time>2026-04-18T08:17:22.502Z</time></trkpt><trkpt lat="43.4999317" lon="10.9153887"><ele>537.0</ele><time>2026-04-18T08:17:23.488Z</time></trkpt><trkpt lat="43.4999486" lon="10.9156243"><ele>537.0</ele><time>2026-04-18T08:17:24.521Z</time></trkpt><trkpt lat="43.4999763" lon="10.9158354"><ele>537.0</ele><time>2026-04-18T08:17:25.489Z</time></trkpt><trkpt lat="43.4999903" lon="10.9160465"><ele>537.0</ele><time>2026-04-18T08:17:26.496Z</time></trkpt><trkpt lat="43.4999918" lon="10.9162407"><ele>536.3333333333334</ele><time>2026-04-18T08:17:27.491Z</time></trkpt><trkpt lat="43.4999445" lon="10.9164402"><ele>535.6666666666667</ele><time>2026-04-18T08:17:28.486Z</time></trkpt><trkpt lat="43.4998609" lon="10.9166081"><ele>535.0</ele><time>2026-04-18T08:17:29.509Z</time></trkpt><trkpt lat="43.4997347" lon="10.9167592"><ele>536.3333333333334</ele><time>2026-04-18T08:17:30.487Z</time></trkpt><trkpt lat="43.4995979" lon="10.916881"><ele>537.6666666666666</ele><time>2026-04-18T08:17:31.498Z</time></trkpt><trkpt lat="43.4994604" lon="10.9169861"><ele>539.0</ele><time>2026-04-18T08:17:32.52Z</time></trkpt><trkpt lat="43.4993278" lon="10.9170883"><ele>540.0</ele><time>2026-04-18T08:17:33.498Z</time></trkpt><trkpt lat="43.499193" lon="10.9171978"><ele>541.0</ele><time>2026-04-18T08:17:34.5Z</time></trkpt><trkpt lat="43.499055" lon="10.9172779"><ele>542.0</ele><time>2026-04-18T08:17:35.503Z</time></trkpt><trkpt lat="43.4989334" lon="10.9173726"><ele>543.0</ele><time>2026-04-18T08:17:36.503Z</time></trkpt><trkpt lat="43.4988171" lon="10.9174748"><ele>543.25</ele><time>2026-04-18T08:17:37.506Z</time></trkpt><trkpt lat="43.4986907" lon="10.9175663"><ele>543.5</ele><time>2026-04-18T08:17:38.497Z</time></trkpt><trkpt lat="43.4985628" lon="10.9176388"><ele>543.75</ele><time>2026-04-18T08:17:39.494Z</time></trkpt><trkpt lat="43.498414" lon="10.9176672"><ele>544.0</ele><time>2026-04-18T08:17:40.491Z</time></trkpt><trkpt lat="43.4982673" lon="10.9176815"><ele>543.75</ele><time>2026-04-18T08:17:41.493Z</time></trkpt><trkpt lat="43.4981457" lon="10.9177079"><ele>543.5</ele><time>2026-04-18T08:17:42.499Z</time></trkpt><trkpt lat="43.4980288" lon="10.917787"><ele>543.25</ele><time>2026-04-18T08:17:43.49Z</time></trkpt><trkpt lat="43.49793" lon="10.9179219"><ele>543.0</ele><time>2026-04-18T08:17:44.488Z</time></trkpt><trkpt lat="43.4978768" lon="10.9180881"><ele>543.0</ele><time>2026-04-18T08:17:45.499Z</time></trkpt><trkpt lat="43.4978335" lon="10.9182759"><ele>543.0</ele><time>2026-04-18T08:17:46.493Z</time></trkpt><trkpt lat="43.4977745" lon="10.9184609"><ele>543.0</ele><time>2026-04-18T08:17:47.495Z</time></trkpt><trkpt lat="43.4977341" lon="10.9186602"><ele>543.0</ele><time>2026-04-18T08:17:48.489Z</time></trkpt><trkpt lat="43.4976821" lon="10.9188601"><ele>541.3333333333334</ele><time>2026-04-18T08:17:49.506Z</time></trkpt><trkpt lat="43.4976225" lon="10.9190571"><ele>539.6666666666667</ele><time>2026-04-18T08:17:50.494Z</time></trkpt><trkpt lat="43.4975555" lon="10.9192474"><ele>538.0</ele><time>2026-04-18T08:17:51.49Z</time></trkpt><trkpt lat="43.4974913" lon="10.919454"><ele>536.0</ele><time>2026-04-18T08:17:52.506Z</time></trkpt><trkpt lat="43.4974246" lon="10.9196611"><ele>534.0</ele><time>2026-04-18T08:17:53.48Z</time></trkpt><trkpt lat="43.4973867" lon="10.919895"><ele>532.0</ele><time>2026-04-18T08:17:54.499Z</time></trkpt><trkpt lat="43.4974013" lon="10.9201354"><ele>530.75</ele><time>2026-04-18T08:17:55.486Z</time></trkpt><trkpt lat="43.4974172" lon="10.9203408"><ele>529.5</ele><time>2026-04-18T08:17:56.485Z</time></trkpt><trkpt lat="43.4974357" lon="10.9205242"><ele>528.25</ele><time>2026-04-18T08:17:57.502Z</time></trkpt><trkpt lat="43.4974301" lon="10.9206837"><ele>527.0</ele><time>2026-04-18T08:17:58.483Z</time></trkpt><trkpt lat="43.4973991" lon="10.9208038"><ele>527.0</ele><time>2026-04-18T08:17:59.498Z</time></trkpt><trkpt lat="43.4973436" lon="10.9208919"><ele>527.0</ele><time>2026-04-18T08:18:00.481Z</time></trkpt><trkpt lat="43.4972628" lon="10.9209457"><ele>527.0</ele><time>2026-04-18T08:18:01.487Z</time></trkpt><trkpt lat="43.497188" lon="10.920999"><ele>527.0</ele><time>2026-04-18T08:18:02.479Z</time></trkpt><trkpt lat="43.4970793" lon="10.9210542"><ele>527.0</ele><time>2026-04-18T08:18:03.503Z</time></trkpt><trkpt lat="43.4969663" lon="10.92111"><ele>524.75</ele><time>2026-04-18T08:18:04.489Z</time></trkpt><trkpt lat="43.4968422" lon="10.921187"><ele>522.5</ele><time>2026-04-18T08:18:05.48Z</time></trkpt><trkpt lat="43.4967023" lon="10.9212437"><ele>520.25</ele><time>2026-04-18T08:18:06.486Z</time></trkpt><trkpt lat="43.4965534" lon="10.9213201"><ele>518.0</ele><time>2026-04-18T08:18:07.48Z</time></trkpt><trkpt lat="43.4964246" lon="10.9214394"><ele>518.0</ele><time>2026-04-18T08:18:08.489Z</time></trkpt><trkpt lat="43.4963128" lon="10.9215861"><ele>518.0</ele><time>2026-04-18T08:18:09.486Z</time></trkpt><trkpt lat="43.4962243" lon="10.9217555"><ele>518.0</ele><time>2026-04-18T08:18:10.49Z</time></trkpt><trkpt lat="43.4961309" lon="10.9219473"><ele>517.6666666666666</ele><time>2026-04-18T08:18:11.482Z</time></trkpt><trkpt lat="43.496029" lon="10.922148"><ele>517.3333333333334</ele><time>2026-04-18T08:18:12.488Z</time></trkpt><trkpt lat="43.4959329" lon="10.9223549"><ele>517.0</ele><time>2026-04-18T08:18:13.486Z</time></trkpt><trkpt lat="43.4958309" lon="10.9225727"><ele>517.6666666666667</ele><time>2026-04-18T08:18:14.491Z</time></trkpt><trkpt lat="43.4957214" lon="10.9227578"><ele>518.3333333333334</ele><time>2026-04-18T08:18:15.503Z</time></trkpt><trkpt lat="43.4956048" lon="10.9229217"><ele>519.0</ele><time>2026-04-18T08:18:16.495Z</time></trkpt><trkpt lat="43.4954773" lon="10.9230906"><ele>517.6666666666666</ele><time>2026-04-18T08:18:17.488Z</time></trkpt><trkpt lat="43.495333" lon="10.9232536"><ele>516.3333333333333</ele><time>2026-04-18T08:18:18.488Z</time></trkpt><trkpt lat="43.4951936" lon="10.9234235"><ele>515.0</ele><time>2026-04-18T08:18:19.492Z</time></trkpt><trkpt lat="43.4950576" lon="10.9235933"><ele>515.0</ele><time>2026-04-18T08:18:20.491Z</time></trkpt><trkpt lat="43.4949258" lon="10.9237534"><ele>515.0</ele><time>2026-04-18T08:18:21.487Z</time></trkpt><trkpt lat="43.4948002" lon="10.9239176"><ele>515.0</ele><time>2026-04-18T08:18:22.485Z</time></trkpt><trkpt lat="43.4946772" lon="10.9240818"><ele>512.3333333333333</ele><time>2026-04-18T08:18:23.486Z</time></trkpt><trkpt lat="43.4945533" lon="10.924255"><ele>509.66666666666663</ele><time>2026-04-18T08:18:24.485Z</time></trkpt><trkpt lat="43.4944268" lon="10.9244193"><ele>507.0</ele><time>2026-04-18T08:18:25.489Z</time></trkpt><trkpt lat="43.4943011" lon="10.9245734"><ele>507.0</ele><time>2026-04-18T08:18:26.486Z</time></trkpt><trkpt lat="43.494181" lon="10.9247296"><ele>507.0</ele><time>2026-04-18T08:18:27.497Z</time></trkpt><trkpt lat="43.4940723" lon="10.9248858"><ele>507.0</ele><time>2026-04-18T08:18:28.49Z</time></trkpt><trkpt lat="43.4939845" lon="10.925065"><ele>505.66666666666663</ele><time>2026-04-18T08:18:29.488Z</time></trkpt><trkpt lat="43.4939422" lon="10.9252743"><ele>504.3333333333333</ele><time>2026-04-18T08:18:30.495Z</time></trkpt><trkpt lat="43.4939168" lon="10.9254918"><ele>503.0</ele><time>2026-04-18T08:18:31.481Z</time></trkpt><trkpt lat="43.4939303" lon="10.9257172"><ele>501.75</ele><time>2026-04-18T08:18:32.494Z</time></trkpt><trkpt lat="43.4939252" lon="10.9259156"><ele>500.5</ele><time>2026-04-18T08:18:33.488Z</time></trkpt><trkpt lat="43.4939137" lon="10.9260898"><ele>499.25</ele><time>2026-04-18T08:18:34.498Z</time></trkpt><trkpt lat="43.4939001" lon="10.9262536"><ele>498.0</ele><time>2026-04-18T08:18:35.492Z</time></trkpt><trkpt lat="43.4938854" lon="10.9263963"><ele>498.0</ele><time>2026-04-18T08:18:36.489Z</time></trkpt><trkpt lat="43.4938929" lon="10.9265089"><ele>497.99999999999994</ele><time>2026-04-18T08:18:37.487Z</time></trkpt><trkpt lat="43.4938869" lon="10.9266403"><ele>497.99999999999994</ele><time>2026-04-18T08:18:39.489Z</time></trkpt><trkpt lat="43.4938451" lon="10.9267601"><ele>498.0</ele><time>2026-04-18T08:18:44.481Z</time></trkpt><trkpt lat="43.4937468" lon="10.9268577"><ele>498.0</ele><time>2026-04-18T08:18:46.489Z</time></trkpt><trkpt lat="43.4936812" lon="10.9269049"><ele>498.0</ele><time>2026-04-18T08:18:47.495Z</time></trkpt><trkpt lat="43.493615" lon="10.9269771"><ele>497.99999999999994</ele><time>2026-04-18T08:18:48.488Z</time></trkpt><trkpt lat="43.493551" lon="10.9270643"><ele>497.99999999999994</ele><time>2026-04-18T08:18:49.501Z</time></trkpt><trkpt lat="43.493477" lon="10.927176"><ele>498.0</ele><time>2026-04-18T08:18:50.492Z</time></trkpt><trkpt lat="43.4933959" lon="10.9272849"><ele>498.0</ele><time>2026-04-18T08:18:51.495Z</time></trkpt><trkpt lat="43.4933056" lon="10.9274053"><ele>498.0</ele><time>2026-04-18T08:18:52.481Z</time></trkpt><trkpt lat="43.4932063" lon="10.9275473"><ele>498.0</ele><time>2026-04-18T08:18:53.475Z</time></trkpt><trkpt lat="43.493105" lon="10.9276924"><ele>498.0</ele><time>2026-04-18T08:18:54.482Z</time></trkpt><trkpt lat="43.4930077" lon="10.9278478"><ele>498.0</ele><time>2026-04-18T08:18:55.5Z</time></trkpt><trkpt lat="43.492909" lon="10.9280022"><ele>494.75</ele><time>2026-04-18T08:18:56.476Z</time></trkpt><trkpt lat="43.4928094" lon="10.9281518"><ele>491.5</ele><time>2026-04-18T08:18:57.493Z</time></trkpt><trkpt lat="43.4927154" lon="10.9282929"><ele>488.25</ele><time>2026-04-18T08:18:58.508Z</time></trkpt><trkpt lat="43.492619" lon="10.9284152"><ele>485.0</ele><time>2026-04-18T08:18:59.486Z</time></trkpt><trkpt lat="43.4925293" lon="10.9285243"><ele>484.75</ele><time>2026-04-18T08:19:00.507Z</time></trkpt><trkpt lat="43.492433" lon="10.9286321"><ele>484.5</ele><time>2026-04-18T08:19:01.491Z</time></trkpt><trkpt lat="43.4923265" lon="10.928711"><ele>484.25</ele><time>2026-04-18T08:19:02.485Z</time></trkpt><trkpt lat="43.4922268" lon="10.92877"><ele>484.0</ele><time>2026-04-18T08:19:03.491Z</time></trkpt><trkpt lat="43.492115" lon="10.9288059"><ele>484.5</ele><time>2026-04-18T08:19:04.49Z</time></trkpt><trkpt lat="43.4919955" lon="10.9288203"><ele>485.0</ele><time>2026-04-18T08:19:05.499Z</time></trkpt><trkpt lat="43.4918854" lon="10.9287792"><ele>485.5</ele><time>2026-04-18T08:19:06.498Z</time></trkpt><trkpt lat="43.4917804" lon="10.9287042"><ele>486.0</ele><time>2026-04-18T08:19:07.492Z</time></trkpt><trkpt lat="43.4916818" lon="10.9286383"><ele>486.0</ele><time>2026-04-18T08:19:08.499Z</time></trkpt><trkpt lat="43.4915832" lon="10.9285611"><ele>486.0</ele><time>2026-04-18T08:19:09.501Z</time></trkpt><trkpt lat="43.4914818" lon="10.928479"><ele>486.0</ele><time>2026-04-18T08:19:10.519Z</time></trkpt><trkpt lat="43.4913708" lon="10.9284494"><ele>486.0</ele><time>2026-04-18T08:19:11.49Z</time></trkpt><trkpt lat="43.4912548" lon="10.9284831"><ele>483.25</ele><time>2026-04-18T08:19:12.498Z</time></trkpt><trkpt lat="43.4911507" lon="10.92856"><ele>480.5</ele><time>2026-04-18T08:19:13.495Z</time></trkpt><trkpt lat="43.4910751" lon="10.9286559"><ele>477.75</ele><time>2026-04-18T08:19:14.495Z</time></trkpt><trkpt lat="43.491003" lon="10.9288009"><ele>475.0</ele><time>2026-04-18T08:19:15.49Z</time></trkpt><trkpt lat="43.4909395" lon="10.928941"><ele>475.0</ele><time>2026-04-18T08:19:16.495Z</time></trkpt><trkpt lat="43.4908685" lon="10.9290949"><ele>475.0</ele><time>2026-04-18T08:19:17.496Z</time></trkpt><trkpt lat="43.4907935" lon="10.9292651"><ele>475.0</ele><time>2026-04-18T08:19:18.482Z</time></trkpt><trkpt lat="43.490718" lon="10.9294243"><ele>475.0</ele><time>2026-04-18T08:19:19.497Z</time></trkpt><trkpt lat="43.4906406" lon="10.9295939"><ele>476.6666666666667</ele><time>2026-04-18T08:19:20.491Z</time></trkpt><trkpt lat="43.4905635" lon="10.929774"><ele>478.33333333333337</ele><time>2026-04-18T08:19:21.494Z</time></trkpt><trkpt lat="43.4904881" lon="10.9299641"><ele>480.0</ele><time>2026-04-18T08:19:22.493Z</time></trkpt><trkpt lat="43.490415" lon="10.9301537"><ele>475.5</ele><time>2026-04-18T08:19:23.49Z</time></trkpt><trkpt lat="43.4903459" lon="10.9303309"><ele>471.0</ele><time>2026-04-18T08:19:24.486Z</time></trkpt><trkpt lat="43.4902739" lon="10.930503"><ele>466.5</ele><time>2026-04-18T08:19:25.478Z</time></trkpt><trkpt lat="43.4902063" lon="10.9306725"><ele>462.0</ele><time>2026-04-18T08:19:26.49Z</time></trkpt><trkpt lat="43.4901569" lon="10.93086"><ele>461.75</ele><time>2026-04-18T08:19:27.501Z</time></trkpt><trkpt lat="43.490113" lon="10.9310504"><ele>461.5</ele><time>2026-04-18T08:19:28.474Z</time></trkpt><trkpt lat="43.4900912" lon="10.9312453"><ele>461.25</ele><time>2026-04-18T08:19:29.48Z</time></trkpt><trkpt lat="43.4900885" lon="10.9314321"><ele>461.0</ele><time>2026-04-18T08:19:30.478Z</time></trkpt><trkpt lat="43.4900856" lon="10.9316122"><ele>460.4</ele><time>2026-04-18T08:19:31.484Z</time></trkpt><trkpt lat="43.4900827" lon="10.9317857"><ele>459.8</ele><time>2026-04-18T08:19:32.485Z</time></trkpt><trkpt lat="43.490079" lon="10.9319444"><ele>459.19999999999993</ele><time>2026-04-18T08:19:33.49Z</time></trkpt><trkpt lat="43.4900796" lon="10.9320963"><ele>458.59999999999997</ele><time>2026-04-18T08:19:34.48Z</time></trkpt><trkpt lat="43.4900792" lon="10.9322167"><ele>458.0</ele><time>2026-04-18T08:19:35.481Z</time></trkpt><trkpt lat="43.490082" lon="10.9323079"><ele>458.0</ele><time>2026-04-18T08:19:36.474Z</time></trkpt><trkpt lat="43.4900551" lon="10.9323921"><ele>458.0</ele><time>2026-04-18T08:19:37.483Z</time></trkpt><trkpt lat="43.4900115" lon="10.932469"><ele>458.0</ele><time>2026-04-18T08:19:38.487Z</time></trkpt><trkpt lat="43.4899456" lon="10.9324721"><ele>458.0</ele><time>2026-04-18T08:19:39.485Z</time></trkpt><trkpt lat="43.4898741" lon="10.9324542"><ele>458.0</ele><time>2026-04-18T08:19:40.495Z</time></trkpt><trkpt lat="43.4898287" lon="10.9323855"><ele>458.0</ele><time>2026-04-18T08:19:41.497Z</time></trkpt><trkpt lat="43.4898004" lon="10.9322487"><ele>458.0</ele><time>2026-04-18T08:19:42.479Z</time></trkpt><trkpt lat="43.4897842" lon="10.9320942"><ele>458.0</ele><time>2026-04-18T08:19:43.481Z</time></trkpt><trkpt lat="43.4897655" lon="10.9319439"><ele>458.0</ele><time>2026-04-18T08:19:44.479Z</time></trkpt><trkpt lat="43.4897398" lon="10.9317713"><ele>458.0</ele><time>2026-04-18T08:19:45.488Z</time></trkpt><trkpt lat="43.4897256" lon="10.9315723"><ele>458.0</ele><time>2026-04-18T08:19:46.485Z</time></trkpt><trkpt lat="43.4897087" lon="10.9313877"><ele>459.0</ele><time>2026-04-18T08:19:47.487Z</time></trkpt><trkpt lat="43.4896886" lon="10.9311914"><ele>460.0</ele><time>2026-04-18T08:19:48.504Z</time></trkpt><trkpt lat="43.4896687" lon="10.9309777"><ele>461.0</ele><time>2026-04-18T08:19:49.491Z</time></trkpt><trkpt lat="43.4896005" lon="10.9303472"><ele>461.25</ele><time>2026-04-18T08:19:51.474Z</time></trkpt><trkpt lat="43.4895981" lon="10.9302209"><ele>461.5</ele><time>2026-04-18T08:19:52.471Z</time></trkpt><trkpt lat="43.4895502" lon="10.9301063"><ele>461.75</ele><time>2026-04-18T08:19:53.485Z</time></trkpt><trkpt lat="43.489466" lon="10.9298556"><ele>462.0</ele><time>2026-04-18T08:19:54.487Z</time></trkpt><trkpt lat="43.489396" lon="10.9296388"><ele>453.66666666666663</ele><time>2026-04-18T08:19:55.487Z</time></trkpt><trkpt lat="43.4893389" lon="10.9294307"><ele>445.3333333333333</ele><time>2026-04-18T08:19:56.49Z</time></trkpt><trkpt lat="43.4892784" lon="10.9292332"><ele>437.0</ele><time>2026-04-18T08:19:57.487Z</time></trkpt><trkpt lat="43.4892191" lon="10.9290393"><ele>436.66666666666663</ele><time>2026-04-18T08:19:58.484Z</time></trkpt><trkpt lat="43.4891837" lon="10.928833"><ele>436.33333333333337</ele><time>2026-04-18T08:19:59.484Z</time></trkpt><trkpt lat="43.4891814" lon="10.9286093"><ele>436.0</ele><time>2026-04-18T08:20:00.482Z</time></trkpt><trkpt lat="43.4892021" lon="10.9283798"><ele>435.33333333333337</ele><time>2026-04-18T08:20:01.487Z</time></trkpt><trkpt lat="43.489239" lon="10.9281626"><ele>434.66666666666663</ele><time>2026-04-18T08:20:02.475Z</time></trkpt><trkpt lat="43.4892692" lon="10.9279444"><ele>434.0</ele><time>2026-04-18T08:20:03.478Z</time></trkpt><trkpt lat="43.4892883" lon="10.9277252"><ele>433.3333333333333</ele><time>2026-04-18T08:20:04.477Z</time></trkpt><trkpt lat="43.4893101" lon="10.9275152"><ele>432.66666666666663</ele><time>2026-04-18T08:20:05.48Z</time></trkpt><trkpt lat="43.489325" lon="10.927307"><ele>432.0</ele><time>2026-04-18T08:20:06.489Z</time></trkpt><trkpt lat="43.4893355" lon="10.9271039"><ele>432.0</ele><time>2026-04-18T08:20:07.486Z</time></trkpt><trkpt lat="43.4893521" lon="10.9269062"><ele>432.0</ele><time>2026-04-18T08:20:08.493Z</time></trkpt><trkpt lat="43.4893719" lon="10.9267111"><ele>432.0</ele><time>2026-04-18T08:20:09.487Z</time></trkpt><trkpt lat="43.4893955" lon="10.9265148"><ele>432.0</ele><time>2026-04-18T08:20:10.479Z</time></trkpt><trkpt lat="43.4894197" lon="10.9263222"><ele>430.25</ele><time>2026-04-18T08:20:11.489Z</time></trkpt><trkpt lat="43.4894515" lon="10.9261419"><ele>428.5</ele><time>2026-04-18T08:20:12.488Z</time></trkpt><trkpt lat="43.4894767" lon="10.9259546"><ele>426.75</ele><time>2026-04-18T08:20:13.482Z</time></trkpt><trkpt lat="43.4895021" lon="10.9257638"><ele>425.0</ele><time>2026-04-18T08:20:14.478Z</time></trkpt><trkpt lat="43.4895283" lon="10.9255709"><ele>425.0</ele><time>2026-04-18T08:20:15.479Z</time></trkpt><trkpt lat="43.4895523" lon="10.9253805"><ele>425.0</ele><time>2026-04-18T08:20:16.485Z</time></trkpt><trkpt lat="43.4895801" lon="10.9252161"><ele>425.0</ele><time>2026-04-18T08:20:17.486Z</time></trkpt><trkpt lat="43.4895986" lon="10.9250889"><ele>425.0</ele><time>2026-04-18T08:20:18.485Z</time></trkpt><trkpt lat="43.4896172" lon="10.9249768"><ele>425.0</ele><time>2026-04-18T08:20:19.483Z</time></trkpt><trkpt lat="43.4895986" lon="10.9248554"><ele>423.4</ele><time>2026-04-18T08:20:21.481Z</time></trkpt><trkpt lat="43.4894865" lon="10.9248599"><ele>421.8</ele><time>2026-04-18T08:20:23.476Z</time></trkpt><trkpt lat="43.4893973" lon="10.9248938"><ele>420.20000000000005</ele><time>2026-04-18T08:20:25.481Z</time></trkpt><trkpt lat="43.4893036" lon="10.9249644"><ele>418.6</ele><time>2026-04-18T08:20:27.486Z</time></trkpt><trkpt lat="43.4892227" lon="10.9250872"><ele>417.0</ele><time>2026-04-18T08:20:29.489Z</time></trkpt><trkpt lat="43.4891928" lon="10.9251706"><ele>417.0</ele><time>2026-04-18T08:20:30.488Z</time></trkpt><trkpt lat="43.4891512" lon="10.9253204"><ele>417.0</ele><time>2026-04-18T08:20:32.501Z</time></trkpt><trkpt lat="43.4891449" lon="10.9254204"><ele>417.0</ele><time>2026-04-18T08:20:33.494Z</time></trkpt><trkpt lat="43.4891488" lon="10.9255308"><ele>417.0</ele><time>2026-04-18T08:20:34.485Z</time></trkpt><trkpt lat="43.4891488" lon="10.9256283"><ele>417.0</ele><time>2026-04-18T08:20:35.492Z</time></trkpt><trkpt lat="43.4891477" lon="10.9257394"><ele>417.0</ele><time>2026-04-18T08:20:36.475Z</time></trkpt><trkpt lat="43.4891431" lon="10.9258494"><ele>418.3333333333333</ele><time>2026-04-18T08:20:37.486Z</time></trkpt><trkpt lat="43.4891314" lon="10.9259465"><ele>419.66666666666663</ele><time>2026-04-18T08:20:38.482Z</time></trkpt><trkpt lat="43.4891037" lon="10.9260474"><ele>421.0</ele><time>2026-04-18T08:20:39.489Z</time></trkpt><trkpt lat="43.4890729" lon="10.9261466"><ele>422.3333333333333</ele><time>2026-04-18T08:20:40.485Z</time></trkpt><trkpt lat="43.4890265" lon="10.926248"><ele>423.66666666666663</ele><time>2026-04-18T08:20:41.483Z</time></trkpt><trkpt lat="43.4889668" lon="10.9263336"><ele>425.0</ele><time>2026-04-18T08:20:42.481Z</time></trkpt><trkpt lat="43.4888963" lon="10.9264023"><ele>425.0</ele><time>2026-04-18T08:20:43.484Z</time></trkpt><trkpt lat="43.4888141" lon="10.9264447"><ele>425.0</ele><time>2026-04-18T08:20:44.491Z</time></trkpt><trkpt lat="43.4887206" lon="10.9264708"><ele>425.0</ele><time>2026-04-18T08:20:45.481Z</time></trkpt><trkpt lat="43.4886217" lon="10.9264972"><ele>425.0</ele><time>2026-04-18T08:20:46.492Z</time></trkpt><trkpt lat="43.4885303" lon="10.9265249"><ele>425.0</ele><time>2026-04-18T08:20:47.481Z</time></trkpt><trkpt lat="43.4884401" lon="10.9265534"><ele>422.8</ele><time>2026-04-18T08:20:48.515Z</time></trkpt><trkpt lat="43.4883446" lon="10.9265805"><ele>420.6</ele><time>2026-04-18T08:20:49.497Z</time></trkpt><trkpt lat="43.4882496" lon="10.9266151"><ele>418.4</ele><time>2026-04-18T08:20:50.489Z</time></trkpt><trkpt lat="43.4881544" lon="10.9266698"><ele>416.2</ele><time>2026-04-18T08:20:51.486Z</time></trkpt><trkpt lat="43.4880727" lon="10.9267326"><ele>414.0</ele><time>2026-04-18T08:20:52.493Z</time></trkpt><trkpt lat="43.4880073" lon="10.9268083"><ele>414.0</ele><time>2026-04-18T08:20:53.488Z</time></trkpt><trkpt lat="43.4879687" lon="10.9268897"><ele>414.0</ele><time>2026-04-18T08:20:54.485Z</time></trkpt><trkpt lat="43.4879408" lon="10.9269744"><ele>414.0</ele><time>2026-04-18T08:20:55.491Z</time></trkpt><trkpt lat="43.4878895" lon="10.9271075"><ele>414.0</ele><time>2026-04-18T08:20:57.491Z</time></trkpt><trkpt lat="43.4877943" lon="10.9271944"><ele>414.0</ele><time>2026-04-18T08:20:59.49Z</time></trkpt><trkpt lat="43.487661" lon="10.9271564"><ele>411.0</ele><time>2026-04-18T08:21:01.487Z</time></trkpt><trkpt lat="43.4875888" lon="10.9270837"><ele>408.0</ele><time>2026-04-18T08:21:02.487Z</time></trkpt><trkpt lat="43.4875671" lon="10.9269789"><ele>405.0</ele><time>2026-04-18T08:21:03.498Z</time></trkpt><trkpt lat="43.4875787" lon="10.9268723"><ele>402.0</ele><time>2026-04-18T08:21:04.483Z</time></trkpt><trkpt lat="43.4875855" lon="10.9267625"><ele>399.0</ele><time>2026-04-18T08:21:05.49Z</time></trkpt><trkpt lat="43.4875763" lon="10.9266491"><ele>396.0</ele><time>2026-04-18T08:21:06.491Z</time></trkpt><trkpt lat="43.4875324" lon="10.9265623"><ele>395.20000000000005</ele><time>2026-04-18T08:21:07.487Z</time></trkpt><trkpt lat="43.4874677" lon="10.9264865"><ele>394.40000000000003</ele><time>2026-04-18T08:21:08.491Z</time></trkpt><trkpt lat="43.4873798" lon="10.9264334"><ele>393.6</ele><time>2026-04-18T08:21:09.488Z</time></trkpt><trkpt lat="43.4872843" lon="10.9264014"><ele>392.8</ele><time>2026-04-18T08:21:10.471Z</time></trkpt><trkpt lat="43.4871908" lon="10.9263865"><ele>392.0</ele><time>2026-04-18T08:21:11.473Z</time></trkpt><trkpt lat="43.4871022" lon="10.9263737"><ele>389.20000000000005</ele><time>2026-04-18T08:21:12.486Z</time></trkpt><trkpt lat="43.4870121" lon="10.9263582"><ele>386.4</ele><time>2026-04-18T08:21:13.489Z</time></trkpt><trkpt lat="43.4869083" lon="10.9263414"><ele>383.6</ele><time>2026-04-18T08:21:14.481Z</time></trkpt><trkpt lat="43.4868014" lon="10.9263264"><ele>380.79999999999995</ele><time>2026-04-18T08:21:15.476Z</time></trkpt><trkpt lat="43.4867008" lon="10.9263019"><ele>378.0</ele><time>2026-04-18T08:21:16.477Z</time></trkpt><trkpt lat="43.486594" lon="10.9262893"><ele>378.0</ele><time>2026-04-18T08:21:17.483Z</time></trkpt><trkpt lat="43.48649" lon="10.9262667"><ele>378.0</ele><time>2026-04-18T08:21:18.482Z</time></trkpt><trkpt lat="43.4863851" lon="10.9262434"><ele>378.0</ele><time>2026-04-18T08:21:19.482Z</time></trkpt><trkpt lat="43.4862835" lon="10.9262409"><ele>378.0</ele><time>2026-04-18T08:21:20.486Z</time></trkpt><trkpt lat="43.4861852" lon="10.9262426"><ele>378.0</ele><time>2026-04-18T08:21:21.486Z</time></trkpt><trkpt lat="43.4860745" lon="10.9262471"><ele>377.59999999999997</ele><time>2026-04-18T08:21:22.482Z</time></trkpt><trkpt lat="43.4859732" lon="10.9262549"><ele>377.2</ele><time>2026-04-18T08:21:23.484Z</time></trkpt><trkpt lat="43.4858653" lon="10.9262625"><ele>376.8</ele><time>2026-04-18T08:21:24.48Z</time></trkpt><trkpt lat="43.4857534" lon="10.9262764"><ele>376.4</ele><time>2026-04-18T08:21:25.487Z</time></trkpt><trkpt lat="43.4856468" lon="10.9262954"><ele>376.0</ele><time>2026-04-18T08:21:26.484Z</time></trkpt><trkpt lat="43.4855393" lon="10.9263078"><ele>376.0</ele><time>2026-04-18T08:21:27.493Z</time></trkpt><trkpt lat="43.4854413" lon="10.9263149"><ele>376.0</ele><time>2026-04-18T08:21:28.487Z</time></trkpt><trkpt lat="43.4853559" lon="10.9263155"><ele>376.0</ele><time>2026-04-18T08:21:29.483Z</time></trkpt><trkpt lat="43.485271" lon="10.9263005"><ele>376.0</ele><time>2026-04-18T08:21:30.49Z</time></trkpt><trkpt lat="43.4851789" lon="10.9262787"><ele>376.0</ele><time>2026-04-18T08:21:31.48Z</time></trkpt><trkpt lat="43.4850024" lon="10.9261604"><ele>374.4</ele><time>2026-04-18T08:21:33.484Z</time></trkpt><trkpt lat="43.4849228" lon="10.9260936"><ele>372.8</ele><time>2026-04-18T08:21:34.502Z</time></trkpt><trkpt lat="43.484854" lon="10.9260058"><ele>371.2</ele><time>2026-04-18T08:21:35.485Z</time></trkpt><trkpt lat="43.4847853" lon="10.9259123"><ele>369.59999999999997</ele><time>2026-04-18T08:21:36.492Z</time></trkpt><trkpt lat="43.4847117" lon="10.9258156"><ele>368.0</ele><time>2026-04-18T08:21:37.501Z</time></trkpt><trkpt lat="43.4846405" lon="10.925725"><ele>367.0</ele><time>2026-04-18T08:21:38.506Z</time></trkpt><trkpt lat="43.4845657" lon="10.9256441"><ele>366.0</ele><time>2026-04-18T08:21:39.516Z</time></trkpt><trkpt lat="43.4844877" lon="10.9255797"><ele>365.0</ele><time>2026-04-18T08:21:40.505Z</time></trkpt><trkpt lat="43.484404" lon="10.9255433"><ele>364.0</ele><time>2026-04-18T08:21:41.508Z</time></trkpt><trkpt lat="43.4843137" lon="10.9255251"><ele>363.0</ele><time>2026-04-18T08:21:42.501Z</time></trkpt><trkpt lat="43.4842188" lon="10.9255269"><ele>363.0</ele><time>2026-04-18T08:21:43.5Z</time></trkpt><trkpt lat="43.4841187" lon="10.9255513"><ele>363.0</ele><time>2026-04-18T08:21:44.488Z</time></trkpt><trkpt lat="43.4840229" lon="10.9255967"><ele>363.0</ele><time>2026-04-18T08:21:45.5Z</time></trkpt><trkpt lat="43.4839256" lon="10.9256499"><ele>363.0</ele><time>2026-04-18T08:21:46.498Z</time></trkpt><trkpt lat="43.4838294" lon="10.9257306"><ele>363.0</ele><time>2026-04-18T08:21:47.486Z</time></trkpt><trkpt lat="43.4837465" lon="10.925811"><ele>361.2</ele><time>2026-04-18T08:21:48.501Z</time></trkpt><trkpt lat="43.4836684" lon="10.9258923"><ele>359.4</ele><time>2026-04-18T08:21:49.485Z</time></trkpt><trkpt lat="43.4835923" lon="10.9259852"><ele>357.59999999999997</ele><time>2026-04-18T08:21:50.485Z</time></trkpt><trkpt lat="43.4835202" lon="10.9260833"><ele>355.79999999999995</ele><time>2026-04-18T08:21:51.492Z</time></trkpt><trkpt lat="43.4834458" lon="10.92618"><ele>354.0</ele><time>2026-04-18T08:21:52.513Z</time></trkpt><trkpt lat="43.4833573" lon="10.926255"><ele>353.79999999999995</ele><time>2026-04-18T08:21:53.501Z</time></trkpt><trkpt lat="43.4832633" lon="10.9263143"><ele>353.59999999999997</ele><time>2026-04-18T08:21:54.5Z</time></trkpt><trkpt lat="43.4831609" lon="10.9263538"><ele>353.4</ele><time>2026-04-18T08:21:55.504Z</time></trkpt><trkpt lat="43.4830572" lon="10.9263982"><ele>353.2</ele><time>2026-04-18T08:21:56.513Z</time></trkpt><trkpt lat="43.4829512" lon="10.9264493"><ele>353.0</ele><time>2026-04-18T08:21:57.513Z</time></trkpt><trkpt lat="43.4828522" lon="10.926487"><ele>352.83333333333337</ele><time>2026-04-18T08:21:58.49Z</time></trkpt><trkpt lat="43.4827545" lon="10.9265086"><ele>352.6666666666667</ele><time>2026-04-18T08:21:59.492Z</time></trkpt><trkpt lat="43.4826623" lon="10.9265436"><ele>352.5</ele><time>2026-04-18T08:22:00.495Z</time></trkpt><trkpt lat="43.4825731" lon="10.9265724"><ele>352.3333333333333</ele><time>2026-04-18T08:22:01.496Z</time></trkpt><trkpt lat="43.4824924" lon="10.9266121"><ele>352.16666666666663</ele><time>2026-04-18T08:22:02.495Z</time></trkpt><trkpt lat="43.4824233" lon="10.9266534"><ele>352.0</ele><time>2026-04-18T08:22:03.494Z</time></trkpt><trkpt lat="43.4823532" lon="10.9266998"><ele>351.8</ele><time>2026-04-18T08:22:04.492Z</time></trkpt><trkpt lat="43.4822782" lon="10.9267682"><ele>351.6</ele><time>2026-04-18T08:22:05.492Z</time></trkpt><trkpt lat="43.4822074" lon="10.926847"><ele>351.40000000000003</ele><time>2026-04-18T08:22:06.485Z</time></trkpt><trkpt lat="43.4821397" lon="10.9269436"><ele>351.20000000000005</ele><time>2026-04-18T08:22:07.5Z</time></trkpt><trkpt lat="43.4820746" lon="10.9270422"><ele>351.0</ele><time>2026-04-18T08:22:08.483Z</time></trkpt><trkpt lat="43.4820071" lon="10.9271417"><ele>350.20000000000005</ele><time>2026-04-18T08:22:09.49Z</time></trkpt><trkpt lat="43.4819334" lon="10.9272342"><ele>349.40000000000003</ele><time>2026-04-18T08:22:10.485Z</time></trkpt><trkpt lat="43.4818528" lon="10.9273128"><ele>348.6</ele><time>2026-04-18T08:22:11.484Z</time></trkpt><trkpt lat="43.4817707" lon="10.9273684"><ele>347.8</ele><time>2026-04-18T08:22:12.484Z</time></trkpt><trkpt lat="43.4816762" lon="10.9274026"><ele>347.0</ele><time>2026-04-18T08:22:13.498Z</time></trkpt><trkpt lat="43.4815853" lon="10.9273919"><ele>347.0</ele><time>2026-04-18T08:22:14.477Z</time></trkpt><trkpt lat="43.4814908" lon="10.9273744"><ele>347.0</ele><time>2026-04-18T08:22:15.48Z</time></trkpt><trkpt lat="43.4813957" lon="10.927352"><ele>347.0</ele><time>2026-04-18T08:22:16.484Z</time></trkpt><trkpt lat="43.4813024" lon="10.9273303"><ele>347.0</ele><time>2026-04-18T08:22:17.483Z</time></trkpt><trkpt lat="43.4812092" lon="10.9273024"><ele>347.0</ele><time>2026-04-18T08:22:18.481Z</time></trkpt><trkpt lat="43.4811095" lon="10.9272796"><ele>346.40000000000003</ele><time>2026-04-18T08:22:19.489Z</time></trkpt><trkpt lat="43.4810118" lon="10.9272592"><ele>345.8</ele><time>2026-04-18T08:22:20.468Z</time></trkpt><trkpt lat="43.4809107" lon="10.9272412"><ele>345.2</ele><time>2026-04-18T08:22:21.487Z</time></trkpt><trkpt lat="43.4808124" lon="10.9272256"><ele>344.6</ele><time>2026-04-18T08:22:22.495Z</time></trkpt><trkpt lat="43.480707" lon="10.9272191"><ele>344.0</ele><time>2026-04-18T08:22:23.481Z</time></trkpt><trkpt lat="43.4806035" lon="10.9272168"><ele>344.0</ele><time>2026-04-18T08:22:24.496Z</time></trkpt><trkpt lat="43.4804951" lon="10.9272065"><ele>344.0</ele><time>2026-04-18T08:22:25.493Z</time></trkpt><trkpt lat="43.4803897" lon="10.9271993"><ele>344.0</ele><time>2026-04-18T08:22:26.482Z</time></trkpt><trkpt lat="43.4802906" lon="10.9271847"><ele>344.0</ele><time>2026-04-18T08:22:27.485Z</time></trkpt><trkpt lat="43.4801903" lon="10.9271763"><ele>344.0</ele><time>2026-04-18T08:22:28.486Z</time></trkpt><trkpt lat="43.4800779" lon="10.9271733"><ele>343.6</ele><time>2026-04-18T08:22:29.49Z</time></trkpt><trkpt lat="43.4799712" lon="10.9271723"><ele>343.2</ele><time>2026-04-18T08:22:30.482Z</time></trkpt><trkpt lat="43.4798652" lon="10.927167"><ele>342.8</ele><time>2026-04-18T08:22:31.488Z</time></trkpt><trkpt lat="43.4797553" lon="10.9271713"><ele>342.40000000000003</ele><time>2026-04-18T08:22:32.482Z</time></trkpt><trkpt lat="43.4796383" lon="10.9271754"><ele>342.0</ele><time>2026-04-18T08:22:33.491Z</time></trkpt><trkpt lat="43.4795182" lon="10.9271858"><ele>341.25</ele><time>2026-04-18T08:22:34.479Z</time></trkpt><trkpt lat="43.4794001" lon="10.927196"><ele>340.5</ele><time>2026-04-18T08:22:35.476Z</time></trkpt><trkpt lat="43.4792837" lon="10.927204"><ele>339.75</ele><time>2026-04-18T08:22:36.482Z</time></trkpt><trkpt lat="43.4791695" lon="10.9272161"><ele>339.0</ele><time>2026-04-18T08:22:37.479Z</time></trkpt><trkpt lat="43.4790543" lon="10.9272295"><ele>339.0</ele><time>2026-04-18T08:22:38.484Z</time></trkpt><trkpt lat="43.4789416" lon="10.9272328"><ele>339.0</ele><time>2026-04-18T08:22:39.487Z</time></trkpt><trkpt lat="43.4788379" lon="10.9272264"><ele>339.0</ele><time>2026-04-18T08:22:40.477Z</time></trkpt><trkpt lat="43.478741" lon="10.927197"><ele>339.0</ele><time>2026-04-18T08:22:41.485Z</time></trkpt><trkpt lat="43.4786398" lon="10.9271543"><ele>339.0</ele><time>2026-04-18T08:22:42.482Z</time></trkpt><trkpt lat="43.4785378" lon="10.9271054"><ele>337.5</ele><time>2026-04-18T08:22:43.486Z</time></trkpt><trkpt lat="43.478427" lon="10.9270612"><ele>336.0</ele><time>2026-04-18T08:22:44.478Z</time></trkpt><trkpt lat="43.4783217" lon="10.9270123"><ele>334.5</ele><time>2026-04-18T08:22:45.488Z</time></trkpt><trkpt lat="43.478216" lon="10.9269654"><ele>333.0</ele><time>2026-04-18T08:22:46.486Z</time></trkpt><trkpt lat="43.4781055" lon="10.9269193"><ele>333.0</ele><time>2026-04-18T08:22:47.474Z</time></trkpt><trkpt lat="43.4780002" lon="10.9268738"><ele>333.0</ele><time>2026-04-18T08:22:48.494Z</time></trkpt><trkpt lat="43.4778921" lon="10.9268297"><ele>333.0</ele><time>2026-04-18T08:22:49.475Z</time></trkpt><trkpt lat="43.477785" lon="10.9267857"><ele>333.0</ele><time>2026-04-18T08:22:50.481Z</time></trkpt><trkpt lat="43.4776715" lon="10.9267436"><ele>333.79999999999995</ele><time>2026-04-18T08:22:51.479Z</time></trkpt><trkpt lat="43.4775598" lon="10.9266908"><ele>334.6</ele><time>2026-04-18T08:22:52.485Z</time></trkpt><trkpt lat="43.4774567" lon="10.9266432"><ele>335.4</ele><time>2026-04-18T08:22:53.485Z</time></trkpt><trkpt lat="43.4773584" lon="10.9265854"><ele>336.20000000000005</ele><time>2026-04-18T08:22:54.487Z</time></trkpt><trkpt lat="43.4772593" lon="10.9265222"><ele>337.0</ele><time>2026-04-18T08:22:55.485Z</time></trkpt><trkpt lat="43.4771623" lon="10.9264634"><ele>334.6</ele><time>2026-04-18T08:22:56.485Z</time></trkpt><trkpt lat="43.4770627" lon="10.9263979"><ele>332.20000000000005</ele><time>2026-04-18T08:22:57.478Z</time></trkpt><trkpt lat="43.4769617" lon="10.9263255"><ele>329.8</ele><time>2026-04-18T08:22:58.486Z</time></trkpt><trkpt lat="43.4768623" lon="10.9262596"><ele>327.4</ele><time>2026-04-18T08:22:59.488Z</time></trkpt><trkpt lat="43.4767725" lon="10.9261945"><ele>325.0</ele><time>2026-04-18T08:23:00.477Z</time></trkpt><trkpt lat="43.4766798" lon="10.9261319"><ele>325.0</ele><time>2026-04-18T08:23:01.483Z</time></trkpt><trkpt lat="43.4765966" lon="10.9260753"><ele>325.0</ele><time>2026-04-18T08:23:02.495Z</time></trkpt><trkpt lat="43.4765161" lon="10.9260197"><ele>325.0</ele><time>2026-04-18T08:23:03.498Z</time></trkpt><trkpt lat="43.4764355" lon="10.9259656"><ele>325.0</ele><time>2026-04-18T08:23:04.477Z</time></trkpt><trkpt lat="43.4763594" lon="10.9259158"><ele>325.0</ele><time>2026-04-18T08:23:05.481Z</time></trkpt><trkpt lat="43.4762746" lon="10.9258688"><ele>325.0</ele><time>2026-04-18T08:23:06.485Z</time></trkpt><trkpt lat="43.4761879" lon="10.9258276"><ele>325.0</ele><time>2026-04-18T08:23:07.482Z</time></trkpt><trkpt lat="43.4760982" lon="10.9257955"><ele>325.0</ele><time>2026-04-18T08:23:08.485Z</time></trkpt><trkpt lat="43.4760066" lon="10.9257685"><ele>325.0</ele><time>2026-04-18T08:23:09.483Z</time></trkpt><trkpt lat="43.4759138" lon="10.9257669"><ele>325.0</ele><time>2026-04-18T08:23:10.485Z</time></trkpt><trkpt lat="43.4758214" lon="10.9257729"><ele>325.0</ele><time>2026-04-18T08:23:11.479Z</time></trkpt><trkpt lat="43.4757163" lon="10.9258037"><ele>325.0</ele><time>2026-04-18T08:23:12.474Z</time></trkpt><trkpt lat="43.475612" lon="10.9258367"><ele>325.0</ele><time>2026-04-18T08:23:13.481Z</time></trkpt><trkpt lat="43.4755049" lon="10.9258678"><ele>325.0</ele><time>2026-04-18T08:23:14.487Z</time></trkpt><trkpt lat="43.4754012" lon="10.9258938"><ele>325.0</ele><time>2026-04-18T08:23:15.482Z</time></trkpt><trkpt lat="43.4752925" lon="10.925918"><ele>325.0</ele><time>2026-04-18T08:23:16.482Z</time></trkpt><trkpt lat="43.4751793" lon="10.925946"><ele>318.75</ele><time>2026-04-18T08:23:17.481Z</time></trkpt><trkpt lat="43.4750619" lon="10.9259847"><ele>312.5</ele><time>2026-04-18T08:23:18.476Z</time></trkpt><trkpt lat="43.474949" lon="10.9260229"><ele>306.25</ele><time>2026-04-18T08:23:19.483Z</time></trkpt><trkpt lat="43.4748378" lon="10.9260512"><ele>300.0</ele><time>2026-04-18T08:23:20.481Z</time></trkpt><trkpt lat="43.4747295" lon="10.9260731"><ele>300.0</ele><time>2026-04-18T08:23:21.479Z</time></trkpt><trkpt lat="43.4746304" lon="10.9260736"><ele>300.0</ele><time>2026-04-18T08:23:22.48Z</time></trkpt><trkpt lat="43.4745324" lon="10.9260746"><ele>300.0</ele><time>2026-04-18T08:23:23.484Z</time></trkpt><trkpt lat="43.4744427" lon="10.9260604"><ele>300.0</ele><time>2026-04-18T08:23:24.493Z</time></trkpt><trkpt lat="43.4743526" lon="10.9260281"><ele>300.0</ele><time>2026-04-18T08:23:25.505Z</time></trkpt><trkpt lat="43.474265" lon="10.9259873"><ele>301.4</ele><time>2026-04-18T08:23:26.476Z</time></trkpt><trkpt lat="43.4741751" lon="10.9259326"><ele>302.8</ele><time>2026-04-18T08:23:27.486Z</time></trkpt><trkpt lat="43.4740929" lon="10.9258427"><ele>304.2</ele><time>2026-04-18T08:23:28.498Z</time></trkpt><trkpt lat="43.4740093" lon="10.9257447"><ele>305.6</ele><time>2026-04-18T08:23:29.483Z</time></trkpt><trkpt lat="43.4739288" lon="10.9256348"><ele>307.0</ele><time>2026-04-18T08:23:30.477Z</time></trkpt><trkpt lat="43.4738497" lon="10.9255278"><ele>307.0</ele><time>2026-04-18T08:23:31.486Z</time></trkpt><trkpt lat="43.4737741" lon="10.9254274"><ele>307.0</ele><time>2026-04-18T08:23:32.477Z</time></trkpt><trkpt lat="43.4736963" lon="10.9253205"><ele>307.0</ele><time>2026-04-18T08:23:33.476Z</time></trkpt><trkpt lat="43.4736283" lon="10.925208"><ele>307.0</ele><time>2026-04-18T08:23:34.479Z</time></trkpt><trkpt lat="43.4735669" lon="10.9250908"><ele>307.0</ele><time>2026-04-18T08:23:35.478Z</time></trkpt><trkpt lat="43.4735118" lon="10.9249697"><ele>305.66666666666663</ele><time>2026-04-18T08:23:36.484Z</time></trkpt><trkpt lat="43.4734653" lon="10.9248524"><ele>304.3333333333333</ele><time>2026-04-18T08:23:37.483Z</time></trkpt><trkpt lat="43.4734212" lon="10.9247408"><ele>303.0</ele><time>2026-04-18T08:23:38.487Z</time></trkpt><trkpt lat="43.4733695" lon="10.9246401"><ele>301.6666666666667</ele><time>2026-04-18T08:23:39.487Z</time></trkpt><trkpt lat="43.4733251" lon="10.9245551"><ele>300.33333333333337</ele><time>2026-04-18T08:23:40.484Z</time></trkpt><trkpt lat="43.473278" lon="10.9244672"><ele>299.0</ele><time>2026-04-18T08:23:41.485Z</time></trkpt><trkpt lat="43.4732122" lon="10.9243818"><ele>299.0</ele><time>2026-04-18T08:23:42.481Z</time></trkpt><trkpt lat="43.4731422" lon="10.9243084"><ele>299.0</ele><time>2026-04-18T08:23:43.473Z</time></trkpt><trkpt lat="43.4730725" lon="10.9242447"><ele>299.0</ele><time>2026-04-18T08:23:44.481Z</time></trkpt><trkpt lat="43.4730108" lon="10.9241977"><ele>299.0</ele><time>2026-04-18T08:23:45.479Z</time></trkpt><trkpt lat="43.4729048" lon="10.9241155"><ele>299.0</ele><time>2026-04-18T08:23:47.479Z</time></trkpt><trkpt lat="43.472813" lon="10.9240487"><ele>297.0</ele><time>2026-04-18T08:23:49.48Z</time></trkpt><trkpt lat="43.4727206" lon="10.9239694"><ele>295.0</ele><time>2026-04-18T08:23:51.483Z</time></trkpt><trkpt lat="43.4726092" lon="10.9238923"><ele>293.0</ele><time>2026-04-18T08:23:53.487Z</time></trkpt><trkpt lat="43.472549" lon="10.9238446"><ele>291.0</ele><time>2026-04-18T08:23:54.5Z</time></trkpt><trkpt lat="43.4724894" lon="10.9238029"><ele>289.0</ele><time>2026-04-18T08:23:55.491Z</time></trkpt><trkpt lat="43.4723895" lon="10.9237088"><ele>289.0</ele><time>2026-04-18T08:23:57.481Z</time></trkpt><trkpt lat="43.4722924" lon="10.923613"><ele>289.0</ele><time>2026-04-18T08:23:59.478Z</time></trkpt><trkpt lat="43.4721893" lon="10.9235043"><ele>289.0</ele><time>2026-04-18T08:24:01.485Z</time></trkpt><trkpt lat="43.4721423" lon="10.9234333"><ele>289.0</ele><time>2026-04-18T08:24:02.487Z</time></trkpt><trkpt lat="43.4721176" lon="10.9233343"><ele>289.0</ele><time>2026-04-18T08:24:03.483Z</time></trkpt><trkpt lat="43.472098" lon="10.9232326"><ele>289.66666666666663</ele><time>2026-04-18T08:24:04.485Z</time></trkpt><trkpt lat="43.4720943" lon="10.9231207"><ele>290.3333333333333</ele><time>2026-04-18T08:24:05.491Z</time></trkpt><trkpt lat="43.4721114" lon="10.9230005"><ele>291.0</ele><time>2026-04-18T08:24:06.486Z</time></trkpt><trkpt lat="43.4721357" lon="10.9228913"><ele>291.6666666666667</ele><time>2026-04-18T08:24:07.487Z</time></trkpt><trkpt lat="43.4721657" lon="10.9227886"><ele>292.33333333333337</ele><time>2026-04-18T08:24:08.486Z</time></trkpt><trkpt lat="43.4722201" lon="10.9226961"><ele>293.0</ele><time>2026-04-18T08:24:09.498Z</time></trkpt><trkpt lat="43.4722893" lon="10.9226195"><ele>290.8</ele><time>2026-04-18T08:24:10.492Z</time></trkpt><trkpt lat="43.4723662" lon="10.9225332"><ele>288.6</ele><time>2026-04-18T08:24:11.499Z</time></trkpt><trkpt lat="43.4724526" lon="10.9224547"><ele>286.4</ele><time>2026-04-18T08:24:12.484Z</time></trkpt><trkpt lat="43.4725383" lon="10.9223737"><ele>284.2</ele><time>2026-04-18T08:24:13.495Z</time></trkpt><trkpt lat="43.4726249" lon="10.922283"><ele>282.0</ele><time>2026-04-18T08:24:14.475Z</time></trkpt><trkpt lat="43.4727084" lon="10.9221882"><ele>282.0</ele><time>2026-04-18T08:24:15.475Z</time></trkpt><trkpt lat="43.4727913" lon="10.9220948"><ele>282.0</ele><time>2026-04-18T08:24:16.476Z</time></trkpt><trkpt lat="43.4728584" lon="10.9219816"><ele>282.0</ele><time>2026-04-18T08:24:17.482Z</time></trkpt><trkpt lat="43.4729371" lon="10.9218815"><ele>282.0</ele><time>2026-04-18T08:24:18.478Z</time></trkpt><trkpt lat="43.4730071" lon="10.9217846"><ele>282.0</ele><time>2026-04-18T08:24:19.481Z</time></trkpt><trkpt lat="43.4730707" lon="10.9216817"><ele>281.6</ele><time>2026-04-18T08:24:20.475Z</time></trkpt><trkpt lat="43.4731354" lon="10.9215755"><ele>281.2</ele><time>2026-04-18T08:24:21.493Z</time></trkpt><trkpt lat="43.4731902" lon="10.9214774"><ele>280.8</ele><time>2026-04-18T08:24:22.483Z</time></trkpt><trkpt lat="43.4732407" lon="10.9213696"><ele>280.4</ele><time>2026-04-18T08:24:23.475Z</time></trkpt><trkpt lat="43.473278" lon="10.9212564"><ele>280.0</ele><time>2026-04-18T08:24:24.484Z</time></trkpt><trkpt lat="43.473311" lon="10.9211397"><ele>280.0</ele><time>2026-04-18T08:24:25.487Z</time></trkpt><trkpt lat="43.4733352" lon="10.9210365"><ele>280.0</ele><time>2026-04-18T08:24:26.52Z</time></trkpt><trkpt lat="43.4733447" lon="10.920939"><ele>280.0</ele><time>2026-04-18T08:24:28.492Z</time></trkpt><trkpt lat="43.4733703" lon="10.9208579"><ele>280.0</ele><time>2026-04-18T08:24:47.516Z</time></trkpt><trkpt lat="43.4733817" lon="10.92071"><ele>280.0</ele><time>2026-04-18T08:24:49.504Z</time></trkpt><trkpt lat="43.4734005" lon="10.9205569"><ele>280.0</ele><time>2026-04-18T08:24:51.511Z</time></trkpt><trkpt lat="43.4734021" lon="10.9204695"><ele>278.3333333333333</ele><time>2026-04-18T08:24:52.496Z</time></trkpt><trkpt lat="43.4733986" lon="10.9203754"><ele>276.66666666666663</ele><time>2026-04-18T08:24:53.487Z</time></trkpt><trkpt lat="43.4733878" lon="10.9202864"><ele>275.0</ele><time>2026-04-18T08:24:54.509Z</time></trkpt><trkpt lat="43.4733745" lon="10.9201987"><ele>273.3333333333333</ele><time>2026-04-18T08:24:55.505Z</time></trkpt><trkpt lat="43.4733142" lon="10.9200518"><ele>271.6666666666667</ele><time>2026-04-18T08:24:57.507Z</time></trkpt><trkpt lat="43.4732678" lon="10.9199896"><ele>270.0</ele><time>2026-04-18T08:24:58.514Z</time></trkpt><trkpt lat="43.473163" lon="10.9198775"><ele>269.0</ele><time>2026-04-18T08:25:00.504Z</time></trkpt><trkpt lat="43.4731094" lon="10.919828"><ele>268.0</ele><time>2026-04-18T08:25:01.503Z</time></trkpt><trkpt lat="43.473058" lon="10.9197729"><ele>267.0</ele><time>2026-04-18T08:25:02.518Z</time></trkpt><trkpt lat="43.4730086" lon="10.9197033"><ele>266.0</ele><time>2026-04-18T08:25:03.502Z</time></trkpt><trkpt lat="43.4729674" lon="10.9196214"><ele>265.0</ele><time>2026-04-18T08:25:04.499Z</time></trkpt><trkpt lat="43.472933" lon="10.9195311"><ele>264.0</ele><time>2026-04-18T08:25:05.498Z</time></trkpt><trkpt lat="43.4729065" lon="10.919443"><ele>263.0</ele><time>2026-04-18T08:25:06.505Z</time></trkpt><trkpt lat="43.4728889" lon="10.9193474"><ele>262.5</ele><time>2026-04-18T08:25:07.525Z</time></trkpt><trkpt lat="43.4728832" lon="10.9192452"><ele>262.0</ele><time>2026-04-18T08:25:08.5Z</time></trkpt><trkpt lat="43.4728826" lon="10.9191453"><ele>261.5</ele><time>2026-04-18T08:25:09.5Z</time></trkpt><trkpt lat="43.4728807" lon="10.919033"><ele>261.0</ele><time>2026-04-18T08:25:10.505Z</time></trkpt><trkpt lat="43.47287" lon="10.9189298"><ele>260.5</ele><time>2026-04-18T08:25:11.513Z</time></trkpt><trkpt lat="43.4728509" lon="10.9188246"><ele>260.0</ele><time>2026-04-18T08:25:12.502Z</time></trkpt><trkpt lat="43.4728259" lon="10.918723"><ele>259.0</ele><time>2026-04-18T08:25:13.509Z</time></trkpt><trkpt lat="43.4727954" lon="10.9186295"><ele>258.0</ele><time>2026-04-18T08:25:14.524Z</time></trkpt><trkpt lat="43.4727554" lon="10.9185334"><ele>257.0</ele><time>2026-04-18T08:25:15.509Z</time></trkpt><trkpt lat="43.4727145" lon="10.9184347"><ele>256.0</ele><time>2026-04-18T08:25:16.503Z</time></trkpt><trkpt lat="43.4726703" lon="10.9183387"><ele>255.00000000000003</ele><time>2026-04-18T08:25:17.498Z</time></trkpt><trkpt lat="43.4726206" lon="10.9182412"><ele>254.0</ele><time>2026-04-18T08:25:18.503Z</time></trkpt><trkpt lat="43.4725749" lon="10.9181491"><ele>253.00000000000003</ele><time>2026-04-18T08:25:19.494Z</time></trkpt><trkpt lat="43.4725219" lon="10.9180508"><ele>252.0</ele><time>2026-04-18T08:25:20.511Z</time></trkpt><trkpt lat="43.4724736" lon="10.9179489"><ele>251.0</ele><time>2026-04-18T08:25:21.488Z</time></trkpt><trkpt lat="43.4724289" lon="10.9178495"><ele>250.0</ele><time>2026-04-18T08:25:22.485Z</time></trkpt><trkpt lat="43.4723869" lon="10.9177521"><ele>249.00000000000003</ele><time>2026-04-18T08:25:23.484Z</time></trkpt><trkpt lat="43.4723352" lon="10.9176575"><ele>248.0</ele><time>2026-04-18T08:25:24.484Z</time></trkpt><trkpt lat="43.4722821" lon="10.9175644"><ele>247.50000000000003</ele><time>2026-04-18T08:25:25.492Z</time></trkpt><trkpt lat="43.4722283" lon="10.917477"><ele>247.0</ele><time>2026-04-18T08:25:26.48Z</time></trkpt><trkpt lat="43.4721724" lon="10.9173978"><ele>246.5</ele><time>2026-04-18T08:25:27.489Z</time></trkpt><trkpt lat="43.4721071" lon="10.9173376"><ele>246.0</ele><time>2026-04-18T08:25:28.493Z</time></trkpt><trkpt lat="43.4720297" lon="10.9172786"><ele>245.50000000000003</ele><time>2026-04-18T08:25:29.492Z</time></trkpt><trkpt lat="43.4719556" lon="10.9172359"><ele>245.0</ele><time>2026-04-18T08:25:30.487Z</time></trkpt><trkpt lat="43.4718787" lon="10.917198"><ele>244.16666666666669</ele><time>2026-04-18T08:25:31.489Z</time></trkpt><trkpt lat="43.4718017" lon="10.9171721"><ele>243.33333333333334</ele><time>2026-04-18T08:25:32.489Z</time></trkpt><trkpt lat="43.4717177" lon="10.9171649"><ele>242.5</ele><time>2026-04-18T08:25:33.485Z</time></trkpt><trkpt lat="43.4716398" lon="10.917182"><ele>241.66666666666669</ele><time>2026-04-18T08:25:34.509Z</time></trkpt><trkpt lat="43.4715601" lon="10.9172073"><ele>240.83333333333334</ele><time>2026-04-18T08:25:35.487Z</time></trkpt><trkpt lat="43.4714886" lon="10.9172478"><ele>240.0</ele><time>2026-04-18T08:25:36.488Z</time></trkpt><trkpt lat="43.4714206" lon="10.9173105"><ele>240.0</ele><time>2026-04-18T08:25:37.491Z</time></trkpt><trkpt lat="43.471355" lon="10.9173737"><ele>240.0</ele><time>2026-04-18T08:25:38.479Z</time></trkpt><trkpt lat="43.4712912" lon="10.9174435"><ele>240.0</ele><time>2026-04-18T08:25:39.484Z</time></trkpt><trkpt lat="43.4712235" lon="10.9175143"><ele>240.0</ele><time>2026-04-18T08:25:40.481Z</time></trkpt><trkpt lat="43.4711526" lon="10.9175917"><ele>240.0</ele><time>2026-04-18T08:25:41.491Z</time></trkpt><trkpt lat="43.471081" lon="10.9176652"><ele>240.0</ele><time>2026-04-18T08:25:42.49Z</time></trkpt><trkpt lat="43.4710055" lon="10.9177413"><ele>239.66666666666666</ele><time>2026-04-18T08:25:43.49Z</time></trkpt><trkpt lat="43.4709338" lon="10.9178203"><ele>239.33333333333331</ele><time>2026-04-18T08:25:44.485Z</time></trkpt><trkpt lat="43.4708591" lon="10.9178925"><ele>239.0</ele><time>2026-04-18T08:25:45.484Z</time></trkpt><trkpt lat="43.4707886" lon="10.9179605"><ele>238.66666666666666</ele><time>2026-04-18T08:25:46.487Z</time></trkpt><trkpt lat="43.4707133" lon="10.9180303"><ele>238.33333333333331</ele><time>2026-04-18T08:25:47.488Z</time></trkpt><trkpt lat="43.4706437" lon="10.9181003"><ele>238.0</ele><time>2026-04-18T08:25:48.495Z</time></trkpt><trkpt lat="43.4705759" lon="10.9181699"><ele>237.99999999999997</ele><time>2026-04-18T08:25:49.505Z</time></trkpt><trkpt lat="43.4705105" lon="10.918234"><ele>238.0</ele><time>2026-04-18T08:25:50.497Z</time></trkpt><trkpt lat="43.4704516" lon="10.918299"><ele>238.0</ele><time>2026-04-18T08:25:51.486Z</time></trkpt><trkpt lat="43.4703893" lon="10.9183739"><ele>238.0</ele><time>2026-04-18T08:25:52.486Z</time></trkpt><trkpt lat="43.4703242" lon="10.9184445"><ele>237.99999999999997</ele><time>2026-04-18T08:25:53.49Z</time></trkpt><trkpt lat="43.4702645" lon="10.9184982"><ele>238.0</ele><time>2026-04-18T08:25:54.496Z</time></trkpt><trkpt lat="43.4701935" lon="10.9185275"><ele>236.99999999999997</ele><time>2026-04-18T08:25:55.487Z</time></trkpt><trkpt lat="43.4701156" lon="10.9185291"><ele>236.0</ele><time>2026-04-18T08:25:56.502Z</time></trkpt><trkpt lat="43.4700381" lon="10.9184911"><ele>235.0</ele><time>2026-04-18T08:25:57.49Z</time></trkpt><trkpt lat="43.4699754" lon="10.9184293"><ele>234.0</ele><time>2026-04-18T08:25:58.485Z</time></trkpt><trkpt lat="43.4699424" lon="10.9183435"><ele>232.99999999999997</ele><time>2026-04-18T08:25:59.488Z</time></trkpt><trkpt lat="43.4699346" lon="10.9182332"><ele>232.0</ele><time>2026-04-18T08:26:00.491Z</time></trkpt><trkpt lat="43.4699407" lon="10.9181247"><ele>230.99999999999997</ele><time>2026-04-18T08:26:01.485Z</time></trkpt><trkpt lat="43.4699648" lon="10.9180009"><ele>230.0</ele><time>2026-04-18T08:26:02.483Z</time></trkpt><trkpt lat="43.4699849" lon="10.9178845"><ele>229.0</ele><time>2026-04-18T08:26:03.487Z</time></trkpt><trkpt lat="43.4700044" lon="10.9177656"><ele>228.0</ele><time>2026-04-18T08:26:04.483Z</time></trkpt><trkpt lat="43.4700153" lon="10.9176476"><ele>226.99999999999997</ele><time>2026-04-18T08:26:05.498Z</time></trkpt><trkpt lat="43.4700102" lon="10.917532"><ele>226.0</ele><time>2026-04-18T08:26:06.494Z</time></trkpt><trkpt lat="43.4699788" lon="10.9174302"><ele>224.99999999999997</ele><time>2026-04-18T08:26:07.482Z</time></trkpt><trkpt lat="43.4699235" lon="10.9173507"><ele>224.0</ele><time>2026-04-18T08:26:08.53Z</time></trkpt><trkpt lat="43.4698496" lon="10.9172929"><ele>223.0</ele><time>2026-04-18T08:26:09.498Z</time></trkpt><trkpt lat="43.4697681" lon="10.9172621"><ele>222.0</ele><time>2026-04-18T08:26:10.501Z</time></trkpt><trkpt lat="43.4696731" lon="10.91725"><ele>220.99999999999997</ele><time>2026-04-18T08:26:11.494Z</time></trkpt><trkpt lat="43.4695823" lon="10.9172578"><ele>220.0</ele><time>2026-04-18T08:26:12.494Z</time></trkpt><trkpt lat="43.469482" lon="10.9172568"><ele>218.0</ele><time>2026-04-18T08:26:13.489Z</time></trkpt><trkpt lat="43.46938" lon="10.9172578"><ele>216.0</ele><time>2026-04-18T08:26:14.486Z</time></trkpt><trkpt lat="43.4692721" lon="10.9172548"><ele>214.0</ele><time>2026-04-18T08:26:15.486Z</time></trkpt><trkpt lat="43.469166" lon="10.9172518"><ele>212.0</ele><time>2026-04-18T08:26:16.489Z</time></trkpt><trkpt lat="43.4690588" lon="10.917254"><ele>210.0</ele><time>2026-04-18T08:26:17.485Z</time></trkpt><trkpt lat="43.4689444" lon="10.9172553"><ele>210.0</ele><time>2026-04-18T08:26:18.492Z</time></trkpt><trkpt lat="43.4688345" lon="10.9172465"><ele>210.0</ele><time>2026-04-18T08:26:19.485Z</time></trkpt><trkpt lat="43.4687229" lon="10.9172432"><ele>210.0</ele><time>2026-04-18T08:26:20.495Z</time></trkpt><trkpt lat="43.4686125" lon="10.9172354"><ele>210.0</ele><time>2026-04-18T08:26:21.495Z</time></trkpt><trkpt lat="43.4685002" lon="10.917221"><ele>210.0</ele><time>2026-04-18T08:26:22.493Z</time></trkpt><trkpt lat="43.4683905" lon="10.9171946"><ele>208.6</ele><time>2026-04-18T08:26:23.481Z</time></trkpt><trkpt lat="43.4682871" lon="10.9171529"><ele>207.2</ele><time>2026-04-18T08:26:24.491Z</time></trkpt><trkpt lat="43.4681835" lon="10.9171017"><ele>205.8</ele><time>2026-04-18T08:26:25.484Z</time></trkpt><trkpt lat="43.4680805" lon="10.9170332"><ele>204.4</ele><time>2026-04-18T08:26:26.488Z</time></trkpt><trkpt lat="43.4679783" lon="10.9169602"><ele>203.0</ele><time>2026-04-18T08:26:27.494Z</time></trkpt><trkpt lat="43.4678938" lon="10.9168776"><ele>202.4</ele><time>2026-04-18T08:26:28.487Z</time></trkpt><trkpt lat="43.4678194" lon="10.9167883"><ele>201.8</ele><time>2026-04-18T08:26:29.497Z</time></trkpt><trkpt lat="43.4677638" lon="10.9166926"><ele>201.2</ele><time>2026-04-18T08:26:30.483Z</time></trkpt><trkpt lat="43.4677246" lon="10.9165779"><ele>200.6</ele><time>2026-04-18T08:26:31.494Z</time></trkpt><trkpt lat="43.4677" lon="10.9164502"><ele>200.0</ele><time>2026-04-18T08:26:32.486Z</time></trkpt><trkpt lat="43.4676969" lon="10.9163143"><ele>199.2</ele><time>2026-04-18T08:26:33.482Z</time></trkpt><trkpt lat="43.4677067" lon="10.9161737"><ele>198.4</ele><time>2026-04-18T08:26:34.482Z</time></trkpt><trkpt lat="43.4677406" lon="10.9160247"><ele>197.60000000000002</ele><time>2026-04-18T08:26:35.492Z</time></trkpt><trkpt lat="43.4677806" lon="10.9158838"><ele>196.8</ele><time>2026-04-18T08:26:36.488Z</time></trkpt><trkpt lat="43.4678207" lon="10.9157346"><ele>196.0</ele><time>2026-04-18T08:26:37.49Z</time></trkpt><trkpt lat="43.4678457" lon="10.9155875"><ele>194.5</ele><time>2026-04-18T08:26:38.489Z</time></trkpt><trkpt lat="43.4678681" lon="10.9154382"><ele>193.0</ele><time>2026-04-18T08:26:39.496Z</time></trkpt><trkpt lat="43.4678837" lon="10.9152876"><ele>191.5</ele><time>2026-04-18T08:26:40.493Z</time></trkpt><trkpt lat="43.4678808" lon="10.9151319"><ele>190.0</ele><time>2026-04-18T08:26:41.488Z</time></trkpt><trkpt lat="43.4678643" lon="10.9149705"><ele>189.25</ele><time>2026-04-18T08:26:42.491Z</time></trkpt><trkpt lat="43.4678439" lon="10.9147979"><ele>188.5</ele><time>2026-04-18T08:26:43.486Z</time></trkpt><trkpt lat="43.4678257" lon="10.9146238"><ele>187.75</ele><time>2026-04-18T08:26:44.498Z</time></trkpt><trkpt lat="43.4678104" lon="10.9144547"><ele>187.0</ele><time>2026-04-18T08:26:45.487Z</time></trkpt><trkpt lat="43.4677898" lon="10.9142845"><ele>186.75</ele><time>2026-04-18T08:26:46.495Z</time></trkpt><trkpt lat="43.4677713" lon="10.9141167"><ele>186.5</ele><time>2026-04-18T08:26:47.494Z</time></trkpt><trkpt lat="43.4677537" lon="10.9139522"><ele>186.25</ele><time>2026-04-18T08:26:48.498Z</time></trkpt><trkpt lat="43.4677378" lon="10.9137952"><ele>186.0</ele><time>2026-04-18T08:26:49.484Z</time></trkpt><trkpt lat="43.4677189" lon="10.9136433"><ele>186.0</ele><time>2026-04-18T08:26:50.494Z</time></trkpt><trkpt lat="43.4676903" lon="10.9135045"><ele>186.0</ele><time>2026-04-18T08:26:51.491Z</time></trkpt><trkpt lat="43.467663" lon="10.9133782"><ele>186.0</ele><time>2026-04-18T08:26:52.488Z</time></trkpt><trkpt lat="43.4676306" lon="10.9132641"><ele>186.0</ele><time>2026-04-18T08:26:53.491Z</time></trkpt><trkpt lat="43.4675855" lon="10.913172"><ele>186.0</ele><time>2026-04-18T08:26:54.486Z</time></trkpt><trkpt lat="43.4675439" lon="10.9130943"><ele>186.0</ele><time>2026-04-18T08:26:55.493Z</time></trkpt><trkpt lat="43.4674834" lon="10.9130479"><ele>185.66666666666666</ele><time>2026-04-18T08:26:56.495Z</time></trkpt><trkpt lat="43.4674165" lon="10.91303"><ele>185.33333333333334</ele><time>2026-04-18T08:26:57.501Z</time></trkpt><trkpt lat="43.4673365" lon="10.913035"><ele>185.0</ele><time>2026-04-18T08:26:58.493Z</time></trkpt><trkpt lat="43.4672582" lon="10.9130721"><ele>184.66666666666669</ele><time>2026-04-18T08:26:59.49Z</time></trkpt><trkpt lat="43.4671769" lon="10.9131109"><ele>184.33333333333334</ele><time>2026-04-18T08:27:00.494Z</time></trkpt><trkpt lat="43.4670895" lon="10.9131531"><ele>184.0</ele><time>2026-04-18T08:27:01.492Z</time></trkpt><trkpt lat="43.4669986" lon="10.9131952"><ele>184.79999999999998</ele><time>2026-04-18T08:27:02.509Z</time></trkpt><trkpt lat="43.4669037" lon="10.9132152"><ele>185.6</ele><time>2026-04-18T08:27:03.48Z</time></trkpt><trkpt lat="43.4668064" lon="10.9132031"><ele>186.4</ele><time>2026-04-18T08:27:04.492Z</time></trkpt><trkpt lat="43.4667023" lon="10.9131844"><ele>187.2</ele><time>2026-04-18T08:27:05.491Z</time></trkpt><trkpt lat="43.4665945" lon="10.9131642"><ele>188.0</ele><time>2026-04-18T08:27:06.491Z</time></trkpt><trkpt lat="43.4664799" lon="10.9131507"><ele>188.0</ele><time>2026-04-18T08:27:07.488Z</time></trkpt><trkpt lat="43.4663662" lon="10.913139"><ele>188.0</ele><time>2026-04-18T08:27:08.48Z</time></trkpt><trkpt lat="43.4662568" lon="10.9131277"><ele>188.0</ele><time>2026-04-18T08:27:09.485Z</time></trkpt><trkpt lat="43.4661425" lon="10.9131117"><ele>188.0</ele><time>2026-04-18T08:27:10.49Z</time></trkpt><trkpt lat="43.4660182" lon="10.9130881"><ele>189.0</ele><time>2026-04-18T08:27:11.491Z</time></trkpt><trkpt lat="43.4658958" lon="10.9130676"><ele>190.0</ele><time>2026-04-18T08:27:12.505Z</time></trkpt><trkpt lat="43.4657741" lon="10.9130503"><ele>191.0</ele><time>2026-04-18T08:27:13.485Z</time></trkpt><trkpt lat="43.4656579" lon="10.9130468"><ele>192.0</ele><time>2026-04-18T08:27:14.486Z</time></trkpt><trkpt lat="43.4655513" lon="10.9130521"><ele>192.0</ele><time>2026-04-18T08:27:15.494Z</time></trkpt><trkpt lat="43.4654554" lon="10.9130811"><ele>192.0</ele><time>2026-04-18T08:27:16.487Z</time></trkpt><trkpt lat="43.4653642" lon="10.9131271"><ele>192.0</ele><time>2026-04-18T08:27:17.501Z</time></trkpt><trkpt lat="43.465277" lon="10.9131969"><ele>192.0</ele><time>2026-04-18T08:27:18.489Z</time></trkpt><trkpt lat="43.4651896" lon="10.9132823"><ele>192.0</ele><time>2026-04-18T08:27:19.495Z</time></trkpt><trkpt lat="43.4651034" lon="10.913375"><ele>192.8</ele><time>2026-04-18T08:27:20.494Z</time></trkpt><trkpt lat="43.4650188" lon="10.9134763"><ele>193.6</ele><time>2026-04-18T08:27:21.492Z</time></trkpt><trkpt lat="43.4649341" lon="10.9135709"><ele>194.4</ele><time>2026-04-18T08:27:22.49Z</time></trkpt><trkpt lat="43.4648525" lon="10.9136748"><ele>195.20000000000002</ele><time>2026-04-18T08:27:23.486Z</time></trkpt><trkpt lat="43.464771" lon="10.9137728"><ele>196.0</ele><time>2026-04-18T08:27:24.493Z</time></trkpt><trkpt lat="43.4646926" lon="10.9138618"><ele>195.99999999999997</ele><time>2026-04-18T08:27:25.493Z</time></trkpt><trkpt lat="43.4646129" lon="10.9139376"><ele>196.0</ele><time>2026-04-18T08:27:26.498Z</time></trkpt><trkpt lat="43.4645344" lon="10.914"><ele>196.0</ele><time>2026-04-18T08:27:27.49Z</time></trkpt><trkpt lat="43.4644472" lon="10.9140354"><ele>196.0</ele><time>2026-04-18T08:27:28.497Z</time></trkpt><trkpt lat="43.4643611" lon="10.9140339"><ele>195.99999999999997</ele><time>2026-04-18T08:27:29.493Z</time></trkpt><trkpt lat="43.4642824" lon="10.9140069"><ele>196.0</ele><time>2026-04-18T08:27:30.495Z</time></trkpt><trkpt lat="43.4641971" lon="10.9139507"><ele>195.0</ele><time>2026-04-18T08:27:31.498Z</time></trkpt><trkpt lat="43.4641107" lon="10.9138884"><ele>194.0</ele><time>2026-04-18T08:27:32.489Z</time></trkpt><trkpt lat="43.4640145" lon="10.9138478"><ele>193.0</ele><time>2026-04-18T08:27:33.482Z</time></trkpt><trkpt lat="43.4639146" lon="10.9138344"><ele>192.0</ele><time>2026-04-18T08:27:34.488Z</time></trkpt><trkpt lat="43.4638289" lon="10.9138604"><ele>191.0</ele><time>2026-04-18T08:27:35.495Z</time></trkpt><trkpt lat="43.4637562" lon="10.9139253"><ele>192.20000000000002</ele><time>2026-04-18T08:27:36.49Z</time></trkpt><trkpt lat="43.4636969" lon="10.9140035"><ele>193.4</ele><time>2026-04-18T08:27:37.491Z</time></trkpt><trkpt lat="43.4636437" lon="10.9140906"><ele>194.6</ele><time>2026-04-18T08:27:38.484Z</time></trkpt><trkpt lat="43.463599" lon="10.9141952"><ele>195.8</ele><time>2026-04-18T08:27:39.485Z</time></trkpt><trkpt lat="43.4635504" lon="10.9143107"><ele>197.0</ele><time>2026-04-18T08:27:40.492Z</time></trkpt><trkpt lat="43.4634947" lon="10.9144249"><ele>197.0</ele><time>2026-04-18T08:27:41.493Z</time></trkpt><trkpt lat="43.4634383" lon="10.9145429"><ele>197.0</ele><time>2026-04-18T08:27:42.487Z</time></trkpt><trkpt lat="43.4633827" lon="10.9146602"><ele>197.0</ele><time>2026-04-18T08:27:43.496Z</time></trkpt><trkpt lat="43.4633337" lon="10.9147768"><ele>197.0</ele><time>2026-04-18T08:27:44.478Z</time></trkpt><trkpt lat="43.4632768" lon="10.9148944"><ele>197.0</ele><time>2026-04-18T08:27:45.513Z</time></trkpt><trkpt lat="43.4632191" lon="10.9150087"><ele>196.39999999999998</ele><time>2026-04-18T08:27:46.481Z</time></trkpt><trkpt lat="43.4631538" lon="10.9151112"><ele>195.79999999999998</ele><time>2026-04-18T08:27:47.494Z</time></trkpt><trkpt lat="43.463085" lon="10.9152135"><ele>195.2</ele><time>2026-04-18T08:27:48.489Z</time></trkpt><trkpt lat="43.4630079" lon="10.9152907"><ele>194.6</ele><time>2026-04-18T08:27:49.485Z</time></trkpt><trkpt lat="43.4629227" lon="10.9153546"><ele>194.0</ele><time>2026-04-18T08:27:50.48Z</time></trkpt><trkpt lat="43.4628337" lon="10.9154049"><ele>196.0</ele><time>2026-04-18T08:27:51.484Z</time></trkpt><trkpt lat="43.4627389" lon="10.9154561"><ele>198.0</ele><time>2026-04-18T08:27:52.491Z</time></trkpt><trkpt lat="43.4626435" lon="10.9155093"><ele>200.0</ele><time>2026-04-18T08:27:53.484Z</time></trkpt><trkpt lat="43.46254" lon="10.9155596"><ele>202.0</ele><time>2026-04-18T08:27:54.486Z</time></trkpt><trkpt lat="43.4624385" lon="10.9156056"><ele>204.0</ele><time>2026-04-18T08:27:55.489Z</time></trkpt><trkpt lat="43.4623354" lon="10.9156435"><ele>204.0</ele><time>2026-04-18T08:27:56.471Z</time></trkpt><trkpt lat="43.4622261" lon="10.9156751"><ele>204.0</ele><time>2026-04-18T08:27:57.488Z</time></trkpt><trkpt lat="43.4621158" lon="10.9156893"><ele>204.0</ele><time>2026-04-18T08:27:58.486Z</time></trkpt><trkpt lat="43.4620063" lon="10.9157024"><ele>204.0</ele><time>2026-04-18T08:27:59.484Z</time></trkpt><trkpt lat="43.461894" lon="10.9157179"><ele>204.0</ele><time>2026-04-18T08:28:00.484Z</time></trkpt><trkpt lat="43.4617759" lon="10.9157398"><ele>206.2</ele><time>2026-04-18T08:28:01.491Z</time></trkpt><trkpt lat="43.4616608" lon="10.9157655"><ele>208.39999999999998</ele><time>2026-04-18T08:28:02.486Z</time></trkpt><trkpt lat="43.4615554" lon="10.9157993"><ele>210.6</ele><time>2026-04-18T08:28:03.505Z</time></trkpt><trkpt lat="43.4614543" lon="10.9158287"><ele>212.8</ele><time>2026-04-18T08:28:04.481Z</time></trkpt><trkpt lat="43.4613482" lon="10.9158459"><ele>215.0</ele><time>2026-04-18T08:28:05.488Z</time></trkpt><trkpt lat="43.461251" lon="10.9158557"><ele>216.2</ele><time>2026-04-18T08:28:06.491Z</time></trkpt><trkpt lat="43.4611611" lon="10.9158493"><ele>217.4</ele><time>2026-04-18T08:28:07.484Z</time></trkpt><trkpt lat="43.4610726" lon="10.9158171"><ele>218.60000000000002</ele><time>2026-04-18T08:28:08.488Z</time></trkpt><trkpt lat="43.4609929" lon="10.9157542"><ele>219.8</ele><time>2026-04-18T08:28:09.484Z</time></trkpt><trkpt lat="43.460915" lon="10.9156826"><ele>221.0</ele><time>2026-04-18T08:28:10.494Z</time></trkpt><trkpt lat="43.4608298" lon="10.915629"><ele>221.0</ele><time>2026-04-18T08:28:11.485Z</time></trkpt><trkpt lat="43.460743" lon="10.9156042"><ele>221.00000000000003</ele><time>2026-04-18T08:28:12.5Z</time></trkpt><trkpt lat="43.4606499" lon="10.9156182"><ele>221.00000000000003</ele><time>2026-04-18T08:28:13.479Z</time></trkpt><trkpt lat="43.4605604" lon="10.9156646"><ele>221.0</ele><time>2026-04-18T08:28:14.492Z</time></trkpt><trkpt lat="43.4604874" lon="10.9157408"><ele>221.0</ele><time>2026-04-18T08:28:15.493Z</time></trkpt><trkpt lat="43.4604137" lon="10.9158191"><ele>222.00000000000003</ele><time>2026-04-18T08:28:16.478Z</time></trkpt><trkpt lat="43.4603355" lon="10.9158846"><ele>223.0</ele><time>2026-04-18T08:28:17.491Z</time></trkpt><trkpt lat="43.4602656" lon="10.9159299"><ele>224.0</ele><time>2026-04-18T08:28:18.493Z</time></trkpt><trkpt lat="43.4601818" lon="10.9159454"><ele>225.0</ele><time>2026-04-18T08:28:19.48Z</time></trkpt><trkpt lat="43.460083" lon="10.9159353"><ele>226.00000000000003</ele><time>2026-04-18T08:28:20.505Z</time></trkpt><trkpt lat="43.459991" lon="10.9158974"><ele>227.0</ele><time>2026-04-18T08:28:21.486Z</time></trkpt><trkpt lat="43.4599012" lon="10.9158366"><ele>227.0</ele><time>2026-04-18T08:28:22.488Z</time></trkpt><trkpt lat="43.4598196" lon="10.9157761"><ele>227.0</ele><time>2026-04-18T08:28:23.483Z</time></trkpt><trkpt lat="43.4597486" lon="10.9157004"><ele>227.0</ele><time>2026-04-18T08:28:24.479Z</time></trkpt><trkpt lat="43.4596859" lon="10.9156008"><ele>227.0</ele><time>2026-04-18T08:28:25.488Z</time></trkpt><trkpt lat="43.4596215" lon="10.9155067"><ele>227.0</ele><time>2026-04-18T08:28:26.495Z</time></trkpt><trkpt lat="43.4595519" lon="10.915401"><ele>227.50000000000003</ele><time>2026-04-18T08:28:27.499Z</time></trkpt><trkpt lat="43.4594793" lon="10.915309"><ele>228.0</ele><time>2026-04-18T08:28:28.488Z</time></trkpt><trkpt lat="43.4593873" lon="10.9152628"><ele>228.5</ele><time>2026-04-18T08:28:29.481Z</time></trkpt><trkpt lat="43.4592968" lon="10.9152466"><ele>229.0</ele><time>2026-04-18T08:28:30.486Z</time></trkpt><trkpt lat="43.4592153" lon="10.9152593"><ele>229.50000000000003</ele><time>2026-04-18T08:28:31.49Z</time></trkpt><trkpt lat="43.4591525" lon="10.9153019"><ele>230.0</ele><time>2026-04-18T08:28:32.499Z</time></trkpt><trkpt lat="43.4590423" lon="10.9153774"><ele>229.99999999999997</ele><time>2026-04-18T08:28:34.495Z</time></trkpt><trkpt lat="43.4589661" lon="10.9153741"><ele>230.0</ele><time>2026-04-18T08:28:35.492Z</time></trkpt><trkpt lat="43.458904" lon="10.9153343"><ele>229.99999999999997</ele><time>2026-04-18T08:28:36.486Z</time></trkpt><trkpt lat="43.4588397" lon="10.9152805"><ele>229.99999999999997</ele><time>2026-04-18T08:28:37.489Z</time></trkpt><trkpt lat="43.4587811" lon="10.9152321"><ele>230.0</ele><time>2026-04-18T08:28:38.49Z</time></trkpt><trkpt lat="43.4587215" lon="10.9151698"><ele>229.99999999999997</ele><time>2026-04-18T08:28:39.503Z</time></trkpt><trkpt lat="43.458663" lon="10.9150935"><ele>229.99999999999997</ele><time>2026-04-18T08:28:40.48Z</time></trkpt><trkpt lat="43.4586163" lon="10.9150094"><ele>230.83333333333334</ele><time>2026-04-18T08:28:41.495Z</time></trkpt><trkpt lat="43.458578" lon="10.9149047"><ele>231.66666666666669</ele><time>2026-04-18T08:28:42.487Z</time></trkpt><trkpt lat="43.4585634" lon="10.9148105"><ele>232.5</ele><time>2026-04-18T08:28:43.49Z</time></trkpt><trkpt lat="43.4585579" lon="10.9146964"><ele>233.33333333333331</ele><time>2026-04-18T08:28:44.485Z</time></trkpt><trkpt lat="43.4585556" lon="10.9145731"><ele>234.16666666666666</ele><time>2026-04-18T08:28:45.486Z</time></trkpt><trkpt lat="43.4585573" lon="10.9144503"><ele>235.0</ele><time>2026-04-18T08:28:46.485Z</time></trkpt><trkpt lat="43.4585542" lon="10.9143224"><ele>236.6</ele><time>2026-04-18T08:28:47.512Z</time></trkpt><trkpt lat="43.4585547" lon="10.9141912"><ele>238.2</ele><time>2026-04-18T08:28:48.492Z</time></trkpt><trkpt lat="43.4585511" lon="10.9140577"><ele>239.8</ele><time>2026-04-18T08:28:49.488Z</time></trkpt><trkpt lat="43.458551" lon="10.9139243"><ele>241.4</ele><time>2026-04-18T08:28:50.493Z</time></trkpt><trkpt lat="43.4585517" lon="10.9137942"><ele>243.0</ele><time>2026-04-18T08:28:51.478Z</time></trkpt><trkpt lat="43.4585576" lon="10.9136602"><ele>243.0</ele><time>2026-04-18T08:28:52.503Z</time></trkpt><trkpt lat="43.4585621" lon="10.9135269"><ele>243.0</ele><time>2026-04-18T08:28:53.486Z</time></trkpt><trkpt lat="43.458567" lon="10.9133927"><ele>243.0</ele><time>2026-04-18T08:28:54.479Z</time></trkpt><trkpt lat="43.458568" lon="10.9132684"><ele>243.0</ele><time>2026-04-18T08:28:55.488Z</time></trkpt><trkpt lat="43.4585465" lon="10.9131534"><ele>243.0</ele><time>2026-04-18T08:28:56.481Z</time></trkpt><trkpt lat="43.4585061" lon="10.9130448"><ele>244.4</ele><time>2026-04-18T08:28:57.488Z</time></trkpt><trkpt lat="43.4584414" lon="10.9129547"><ele>245.8</ele><time>2026-04-18T08:28:58.487Z</time></trkpt><trkpt lat="43.4583684" lon="10.9128775"><ele>247.2</ele><time>2026-04-18T08:28:59.496Z</time></trkpt><trkpt lat="43.4582917" lon="10.9128134"><ele>248.6</ele><time>2026-04-18T08:29:00.496Z</time></trkpt><trkpt lat="43.4582086" lon="10.9127595"><ele>250.0</ele><time>2026-04-18T08:29:01.483Z</time></trkpt><trkpt lat="43.4581282" lon="10.9126949"><ele>250.0</ele><time>2026-04-18T08:29:02.486Z</time></trkpt><trkpt lat="43.4580496" lon="10.9126369"><ele>250.0</ele><time>2026-04-18T08:29:03.484Z</time></trkpt><trkpt lat="43.457963" lon="10.9125805"><ele>250.0</ele><time>2026-04-18T08:29:04.495Z</time></trkpt><trkpt lat="43.4578716" lon="10.9125191"><ele>250.0</ele><time>2026-04-18T08:29:05.495Z</time></trkpt><trkpt lat="43.4577807" lon="10.9124524"><ele>250.0</ele><time>2026-04-18T08:29:06.496Z</time></trkpt><trkpt lat="43.4576872" lon="10.9123872"><ele>252.25</ele><time>2026-04-18T08:29:07.493Z</time></trkpt><trkpt lat="43.4575836" lon="10.9123121"><ele>254.5</ele><time>2026-04-18T08:29:08.478Z</time></trkpt><trkpt lat="43.4574812" lon="10.9122421"><ele>256.75</ele><time>2026-04-18T08:29:09.496Z</time></trkpt><trkpt lat="43.4573788" lon="10.9121716"><ele>259.0</ele><time>2026-04-18T08:29:10.493Z</time></trkpt><trkpt lat="43.4572821" lon="10.9121083"><ele>259.0</ele><time>2026-04-18T08:29:11.49Z</time></trkpt><trkpt lat="43.4571783" lon="10.9120388"><ele>259.0</ele><time>2026-04-18T08:29:12.488Z</time></trkpt><trkpt lat="43.4570678" lon="10.9119563"><ele>259.0</ele><time>2026-04-18T08:29:13.487Z</time></trkpt><trkpt lat="43.4569513" lon="10.9118762"><ele>259.0</ele><time>2026-04-18T08:29:14.484Z</time></trkpt><trkpt lat="43.4568389" lon="10.9117969"><ele>260.0</ele><time>2026-04-18T08:29:15.492Z</time></trkpt><trkpt lat="43.4567311" lon="10.9117237"><ele>261.0</ele><time>2026-04-18T08:29:16.497Z</time></trkpt><trkpt lat="43.4566347" lon="10.9116592"><ele>262.0</ele><time>2026-04-18T08:29:17.496Z</time></trkpt><trkpt lat="43.4565512" lon="10.9115957"><ele>263.0</ele><time>2026-04-18T08:29:18.5Z</time></trkpt><trkpt lat="43.456463" lon="10.9115513"><ele>264.0</ele><time>2026-04-18T08:29:19.493Z</time></trkpt><trkpt lat="43.456369" lon="10.9115278"><ele>265.3333333333333</ele><time>2026-04-18T08:29:20.484Z</time></trkpt><trkpt lat="43.4562839" lon="10.9115502"><ele>266.6666666666667</ele><time>2026-04-18T08:29:21.499Z</time></trkpt><trkpt lat="43.4562047" lon="10.9116011"><ele>268.0</ele><time>2026-04-18T08:29:22.489Z</time></trkpt><trkpt lat="43.4561281" lon="10.9116631"><ele>269.33333333333337</ele><time>2026-04-18T08:29:23.472Z</time></trkpt><trkpt lat="43.4560488" lon="10.9117134"><ele>270.6666666666667</ele><time>2026-04-18T08:29:24.487Z</time></trkpt><trkpt lat="43.4559629" lon="10.9117515"><ele>272.0</ele><time>2026-04-18T08:29:25.49Z</time></trkpt><trkpt lat="43.4558721" lon="10.9117887"><ele>272.0</ele><time>2026-04-18T08:29:26.493Z</time></trkpt><trkpt lat="43.455772" lon="10.9118289"><ele>272.0</ele><time>2026-04-18T08:29:27.493Z</time></trkpt><trkpt lat="43.4556706" lon="10.911882"><ele>272.0</ele><time>2026-04-18T08:29:28.487Z</time></trkpt><trkpt lat="43.4555617" lon="10.9119257"><ele>272.0</ele><time>2026-04-18T08:29:29.493Z</time></trkpt><trkpt lat="43.4554474" lon="10.9119445"><ele>272.0</ele><time>2026-04-18T08:29:30.499Z</time></trkpt><trkpt lat="43.4553252" lon="10.911957"><ele>274.5</ele><time>2026-04-18T08:29:31.489Z</time></trkpt><trkpt lat="43.4552006" lon="10.9119748"><ele>277.0</ele><time>2026-04-18T08:29:32.493Z</time></trkpt><trkpt lat="43.4550892" lon="10.9119842"><ele>279.5</ele><time>2026-04-18T08:29:33.492Z</time></trkpt><trkpt lat="43.4549832" lon="10.9120089"><ele>282.0</ele><time>2026-04-18T08:29:34.496Z</time></trkpt><trkpt lat="43.454884" lon="10.9120607"><ele>282.0</ele><time>2026-04-18T08:29:35.494Z</time></trkpt><trkpt lat="43.4547941" lon="10.9121359"><ele>282.0</ele><time>2026-04-18T08:29:36.497Z</time></trkpt><trkpt lat="43.4547033" lon="10.9122037"><ele>282.0</ele><time>2026-04-18T08:29:37.505Z</time></trkpt><trkpt lat="43.4546078" lon="10.912253"><ele>282.0</ele><time>2026-04-18T08:29:38.492Z</time></trkpt><trkpt lat="43.4545036" lon="10.9122798"><ele>282.0</ele><time>2026-04-18T08:29:39.501Z</time></trkpt><trkpt lat="43.4544009" lon="10.9122862"><ele>284.0</ele><time>2026-04-18T08:29:40.492Z</time></trkpt><trkpt lat="43.4542967" lon="10.9122875"><ele>286.0</ele><time>2026-04-18T08:29:41.506Z</time></trkpt><trkpt lat="43.4541951" lon="10.912277"><ele>288.0</ele><time>2026-04-18T08:29:42.499Z</time></trkpt><trkpt lat="43.4540945" lon="10.9122514"><ele>290.0</ele><time>2026-04-18T08:29:43.491Z</time></trkpt><trkpt lat="43.4540031" lon="10.9122246"><ele>292.0</ele><time>2026-04-18T08:29:44.481Z</time></trkpt><trkpt lat="43.4539139" lon="10.9121854"><ele>292.0</ele><time>2026-04-18T08:29:45.487Z</time></trkpt><trkpt lat="43.4538239" lon="10.9121521"><ele>292.0</ele><time>2026-04-18T08:29:46.485Z</time></trkpt><trkpt lat="43.4537205" lon="10.9121368"><ele>292.0</ele><time>2026-04-18T08:29:47.481Z</time></trkpt><trkpt lat="43.453615" lon="10.9121405"><ele>292.0</ele><time>2026-04-18T08:29:48.493Z</time></trkpt><trkpt lat="43.453517" lon="10.9121641"><ele>292.0</ele><time>2026-04-18T08:29:49.501Z</time></trkpt><trkpt lat="43.4534116" lon="10.9121935"><ele>292.0</ele><time>2026-04-18T08:29:50.499Z</time></trkpt><trkpt lat="43.4532982" lon="10.9122227"><ele>292.0</ele><time>2026-04-18T08:29:51.488Z</time></trkpt><trkpt lat="43.4531897" lon="10.9122551"><ele>292.0</ele><time>2026-04-18T08:29:52.519Z</time></trkpt><trkpt lat="43.4530784" lon="10.9122746"><ele>292.0</ele><time>2026-04-18T08:29:53.498Z</time></trkpt><trkpt lat="43.4529733" lon="10.9122993"><ele>292.0</ele><time>2026-04-18T08:29:54.5Z</time></trkpt><trkpt lat="43.4528703" lon="10.9123206"><ele>292.0</ele><time>2026-04-18T08:29:55.492Z</time></trkpt><trkpt lat="43.4527693" lon="10.9123212"><ele>292.0</ele><time>2026-04-18T08:29:56.516Z</time></trkpt><trkpt lat="43.4526721" lon="10.9123126"><ele>292.0</ele><time>2026-04-18T08:29:57.498Z</time></trkpt><trkpt lat="43.4525797" lon="10.9122702"><ele>292.0</ele><time>2026-04-18T08:29:58.499Z</time></trkpt><trkpt lat="43.4524871" lon="10.9122186"><ele>292.0</ele><time>2026-04-18T08:29:59.488Z</time></trkpt><trkpt lat="43.4524004" lon="10.912177"><ele>292.0</ele><time>2026-04-18T08:30:00.485Z</time></trkpt><trkpt lat="43.4523007" lon="10.9121481"><ele>292.0</ele><time>2026-04-18T08:30:01.493Z</time></trkpt><trkpt lat="43.4521958" lon="10.9121294"><ele>292.0</ele><time>2026-04-18T08:30:02.494Z</time></trkpt><trkpt lat="43.4520896" lon="10.9121248"><ele>292.0</ele><time>2026-04-18T08:30:03.489Z</time></trkpt><trkpt lat="43.4519782" lon="10.9121266"><ele>292.0</ele><time>2026-04-18T08:30:04.485Z</time></trkpt><trkpt lat="43.4518595" lon="10.912133"><ele>291.0</ele><time>2026-04-18T08:30:05.498Z</time></trkpt><trkpt lat="43.4517436" lon="10.9121288"><ele>290.0</ele><time>2026-04-18T08:30:06.485Z</time></trkpt><trkpt lat="43.4516423" lon="10.9121235"><ele>289.0</ele><time>2026-04-18T08:30:07.497Z</time></trkpt><trkpt lat="43.4515413" lon="10.9121125"><ele>288.0</ele><time>2026-04-18T08:30:08.492Z</time></trkpt><trkpt lat="43.4514515" lon="10.9120842"><ele>287.0</ele><time>2026-04-18T08:30:09.485Z</time></trkpt><trkpt lat="43.4513649" lon="10.9120518"><ele>286.33333333333337</ele><time>2026-04-18T08:30:10.493Z</time></trkpt><trkpt lat="43.4512778" lon="10.9120175"><ele>285.6666666666667</ele><time>2026-04-18T08:30:11.488Z</time></trkpt><trkpt lat="43.4511946" lon="10.9119846"><ele>285.0</ele><time>2026-04-18T08:30:12.497Z</time></trkpt><trkpt lat="43.45111" lon="10.9119713"><ele>284.3333333333333</ele><time>2026-04-18T08:30:13.506Z</time></trkpt><trkpt lat="43.4510319" lon="10.9119851"><ele>283.66666666666663</ele><time>2026-04-18T08:30:14.499Z</time></trkpt><trkpt lat="43.4509684" lon="10.9120128"><ele>283.0</ele><time>2026-04-18T08:30:15.5Z</time></trkpt><trkpt lat="43.4509071" lon="10.9120351"><ele>283.0</ele><time>2026-04-18T08:30:16.493Z</time></trkpt><trkpt lat="43.4507928" lon="10.9119962"><ele>283.0</ele><time>2026-04-18T08:30:18.5Z</time></trkpt><trkpt lat="43.4506984" lon="10.9118674"><ele>283.0</ele><time>2026-04-18T08:30:20.512Z</time></trkpt><trkpt lat="43.4506529" lon="10.9117864"><ele>283.0</ele><time>2026-04-18T08:30:21.491Z</time></trkpt><trkpt lat="43.4505962" lon="10.9117022"><ele>283.0</ele><time>2026-04-18T08:30:22.488Z</time></trkpt><trkpt lat="43.4505217" lon="10.9116289"><ele>282.0</ele><time>2026-04-18T08:30:23.483Z</time></trkpt><trkpt lat="43.4504444" lon="10.9115745"><ele>281.0</ele><time>2026-04-18T08:30:24.496Z</time></trkpt><trkpt lat="43.4503597" lon="10.9115239"><ele>280.0</ele><time>2026-04-18T08:30:25.51Z</time></trkpt><trkpt lat="43.4502711" lon="10.9114778"><ele>279.0</ele><time>2026-04-18T08:30:26.486Z</time></trkpt><trkpt lat="43.4501729" lon="10.9114205"><ele>278.0</ele><time>2026-04-18T08:30:27.486Z</time></trkpt><trkpt lat="43.450074" lon="10.9113595"><ele>278.0</ele><time>2026-04-18T08:30:28.497Z</time></trkpt><trkpt lat="43.4499723" lon="10.9112972"><ele>278.0</ele><time>2026-04-18T08:30:29.494Z</time></trkpt><trkpt lat="43.44987" lon="10.9112399"><ele>278.0</ele><time>2026-04-18T08:30:30.497Z</time></trkpt><trkpt lat="43.4497697" lon="10.9111797"><ele>278.0</ele><time>2026-04-18T08:30:31.493Z</time></trkpt><trkpt lat="43.4496663" lon="10.9111234"><ele>278.0</ele><time>2026-04-18T08:30:32.489Z</time></trkpt><trkpt lat="43.4495621" lon="10.9110668"><ele>276.75</ele><time>2026-04-18T08:30:33.483Z</time></trkpt><trkpt lat="43.4494567" lon="10.9110089"><ele>275.5</ele><time>2026-04-18T08:30:34.488Z</time></trkpt><trkpt lat="43.449351" lon="10.9109563"><ele>274.25</ele><time>2026-04-18T08:30:35.487Z</time></trkpt><trkpt lat="43.4492424" lon="10.9109121"><ele>273.0</ele><time>2026-04-18T08:30:36.499Z</time></trkpt><trkpt lat="43.4491339" lon="10.9108664"><ele>273.0</ele><time>2026-04-18T08:30:37.488Z</time></trkpt><trkpt lat="43.4490227" lon="10.9108371"><ele>273.0</ele><time>2026-04-18T08:30:38.494Z</time></trkpt><trkpt lat="43.4489149" lon="10.910792"><ele>273.0</ele><time>2026-04-18T08:30:39.529Z</time></trkpt><trkpt lat="43.4488089" lon="10.9107513"><ele>273.0</ele><time>2026-04-18T08:30:40.493Z</time></trkpt><trkpt lat="43.4487058" lon="10.9106992"><ele>273.0</ele><time>2026-04-18T08:30:41.491Z</time></trkpt><trkpt lat="43.4486096" lon="10.9106257"><ele>272.8</ele><time>2026-04-18T08:30:42.495Z</time></trkpt><trkpt lat="43.448513" lon="10.9105445"><ele>272.6</ele><time>2026-04-18T08:30:43.502Z</time></trkpt><trkpt lat="43.4484231" lon="10.9104642"><ele>272.4</ele><time>2026-04-18T08:30:44.485Z</time></trkpt><trkpt lat="43.4483368" lon="10.9103953"><ele>272.2</ele><time>2026-04-18T08:30:45.487Z</time></trkpt><trkpt lat="43.4482568" lon="10.9103326"><ele>272.0</ele><time>2026-04-18T08:30:46.489Z</time></trkpt><trkpt lat="43.4481753" lon="10.9102736"><ele>272.0</ele><time>2026-04-18T08:30:47.488Z</time></trkpt><trkpt lat="43.4480903" lon="10.9102173"><ele>272.0</ele><time>2026-04-18T08:30:48.5Z</time></trkpt><trkpt lat="43.4480039" lon="10.9101655"><ele>272.0</ele><time>2026-04-18T08:30:49.487Z</time></trkpt><trkpt lat="43.4479128" lon="10.9101139"><ele>272.0</ele><time>2026-04-18T08:30:50.489Z</time></trkpt><trkpt lat="43.4478169" lon="10.9100572"><ele>272.0</ele><time>2026-04-18T08:30:51.485Z</time></trkpt><trkpt lat="43.4477141" lon="10.9100049"><ele>271.0</ele><time>2026-04-18T08:30:52.488Z</time></trkpt><trkpt lat="43.4476196" lon="10.9099511"><ele>270.0</ele><time>2026-04-18T08:30:53.493Z</time></trkpt><trkpt lat="43.4475254" lon="10.90989"><ele>269.0</ele><time>2026-04-18T08:30:54.495Z</time></trkpt><trkpt lat="43.4474268" lon="10.9098314"><ele>268.0</ele><time>2026-04-18T08:30:55.485Z</time></trkpt><trkpt lat="43.4473332" lon="10.9097732"><ele>267.0</ele><time>2026-04-18T08:30:56.5Z</time></trkpt><trkpt lat="43.4472322" lon="10.9097135"><ele>267.0</ele><time>2026-04-18T08:30:57.482Z</time></trkpt><trkpt lat="43.4471342" lon="10.9096622"><ele>267.0</ele><time>2026-04-18T08:30:58.485Z</time></trkpt><trkpt lat="43.4470342" lon="10.9096173"><ele>267.0</ele><time>2026-04-18T08:30:59.48Z</time></trkpt><trkpt lat="43.4469306" lon="10.9095786"><ele>267.0</ele><time>2026-04-18T08:31:00.493Z</time></trkpt><trkpt lat="43.4468313" lon="10.9095429"><ele>267.0</ele><time>2026-04-18T08:31:01.488Z</time></trkpt><trkpt lat="43.446738" lon="10.9095031"><ele>265.8</ele><time>2026-04-18T08:31:02.481Z</time></trkpt><trkpt lat="43.4466464" lon="10.9094666"><ele>264.6</ele><time>2026-04-18T08:31:03.495Z</time></trkpt><trkpt lat="43.4465595" lon="10.9094132"><ele>263.40000000000003</ele><time>2026-04-18T08:31:04.496Z</time></trkpt><trkpt lat="43.4464803" lon="10.9093377"><ele>262.2</ele><time>2026-04-18T08:31:05.49Z</time></trkpt><trkpt lat="43.4464188" lon="10.9092416"><ele>261.0</ele><time>2026-04-18T08:31:06.489Z</time></trkpt><trkpt lat="43.446365" lon="10.9091245"><ele>260.40000000000003</ele><time>2026-04-18T08:31:07.487Z</time></trkpt><trkpt lat="43.446308" lon="10.9090046"><ele>259.8</ele><time>2026-04-18T08:31:08.495Z</time></trkpt><trkpt lat="43.44626" lon="10.9088704"><ele>259.20000000000005</ele><time>2026-04-18T08:31:09.488Z</time></trkpt><trkpt lat="43.4462095" lon="10.9087387"><ele>258.6</ele><time>2026-04-18T08:31:10.49Z</time></trkpt><trkpt lat="43.4461677" lon="10.908609"><ele>258.0</ele><time>2026-04-18T08:31:11.489Z</time></trkpt><trkpt lat="43.4461368" lon="10.9084788"><ele>257.8</ele><time>2026-04-18T08:31:12.495Z</time></trkpt><trkpt lat="43.4461148" lon="10.9083535"><ele>257.6</ele><time>2026-04-18T08:31:13.487Z</time></trkpt><trkpt lat="43.4460784" lon="10.9082227"><ele>257.4</ele><time>2026-04-18T08:31:14.497Z</time></trkpt><trkpt lat="43.4460469" lon="10.9080969"><ele>257.2</ele><time>2026-04-18T08:31:15.488Z</time></trkpt><trkpt lat="43.445999" lon="10.9079799"><ele>257.0</ele><time>2026-04-18T08:31:16.49Z</time></trkpt><trkpt lat="43.4459491" lon="10.9078661"><ele>257.0</ele><time>2026-04-18T08:31:17.497Z</time></trkpt><trkpt lat="43.4458959" lon="10.9077596"><ele>257.0</ele><time>2026-04-18T08:31:18.49Z</time></trkpt><trkpt lat="43.4458307" lon="10.9076494"><ele>257.0</ele><time>2026-04-18T08:31:19.486Z</time></trkpt><trkpt lat="43.4457617" lon="10.90754"><ele>257.0</ele><time>2026-04-18T08:31:20.489Z</time></trkpt><trkpt lat="43.4456899" lon="10.907439"><ele>257.0</ele><time>2026-04-18T08:31:21.492Z</time></trkpt><trkpt lat="43.4456306" lon="10.9073391"><ele>256.6</ele><time>2026-04-18T08:31:22.49Z</time></trkpt><trkpt lat="43.4455694" lon="10.9072398"><ele>256.2</ele><time>2026-04-18T08:31:23.487Z</time></trkpt><trkpt lat="43.4455023" lon="10.9071351"><ele>255.8</ele><time>2026-04-18T08:31:24.522Z</time></trkpt><trkpt lat="43.4454415" lon="10.907017"><ele>255.4</ele><time>2026-04-18T08:31:25.498Z</time></trkpt><trkpt lat="43.4453748" lon="10.9068979"><ele>255.0</ele><time>2026-04-18T08:31:26.489Z</time></trkpt><trkpt lat="43.4453026" lon="10.9067778"><ele>254.25</ele><time>2026-04-18T08:31:27.505Z</time></trkpt><trkpt lat="43.445228" lon="10.9066679"><ele>253.5</ele><time>2026-04-18T08:31:28.499Z</time></trkpt><trkpt lat="43.4451432" lon="10.9065503"><ele>252.75</ele><time>2026-04-18T08:31:29.501Z</time></trkpt><trkpt lat="43.4450552" lon="10.9064252"><ele>252.0</ele><time>2026-04-18T08:31:30.507Z</time></trkpt><trkpt lat="43.4449666" lon="10.9063035"><ele>252.0</ele><time>2026-04-18T08:31:31.489Z</time></trkpt><trkpt lat="43.4448783" lon="10.9061861"><ele>252.0</ele><time>2026-04-18T08:31:32.493Z</time></trkpt><trkpt lat="43.4447931" lon="10.9060783"><ele>252.0</ele><time>2026-04-18T08:31:33.503Z</time></trkpt><trkpt lat="43.4447068" lon="10.9059681"><ele>252.0</ele><time>2026-04-18T08:31:34.489Z</time></trkpt><trkpt lat="43.444625" lon="10.9058501"><ele>251.2</ele><time>2026-04-18T08:31:35.493Z</time></trkpt><trkpt lat="43.4445573" lon="10.9057369"><ele>250.39999999999998</ele><time>2026-04-18T08:31:36.483Z</time></trkpt><trkpt lat="43.4444916" lon="10.9056161"><ele>249.60000000000002</ele><time>2026-04-18T08:31:37.484Z</time></trkpt><trkpt lat="43.4444373" lon="10.905496"><ele>248.8</ele><time>2026-04-18T08:31:38.515Z</time></trkpt><trkpt lat="43.4443895" lon="10.9053723"><ele>248.0</ele><time>2026-04-18T08:31:39.489Z</time></trkpt><trkpt lat="43.4443352" lon="10.9052552"><ele>248.0</ele><time>2026-04-18T08:31:40.497Z</time></trkpt><trkpt lat="43.4442783" lon="10.9051413"><ele>248.0</ele><time>2026-04-18T08:31:41.486Z</time></trkpt><trkpt lat="43.4442068" lon="10.9050359"><ele>248.0</ele><time>2026-04-18T08:31:42.492Z</time></trkpt><trkpt lat="43.4441236" lon="10.9049438"><ele>248.0</ele><time>2026-04-18T08:31:43.489Z</time></trkpt><trkpt lat="43.4440428" lon="10.9048479"><ele>248.0</ele><time>2026-04-18T08:31:44.487Z</time></trkpt><trkpt lat="43.4439566" lon="10.9047543"><ele>248.75</ele><time>2026-04-18T08:31:45.489Z</time></trkpt><trkpt lat="43.4438585" lon="10.9046596"><ele>249.5</ele><time>2026-04-18T08:31:46.481Z</time></trkpt><trkpt lat="43.4437589" lon="10.904569"><ele>250.25</ele><time>2026-04-18T08:31:47.494Z</time></trkpt><trkpt lat="43.4436542" lon="10.9044736"><ele>251.0</ele><time>2026-04-18T08:31:48.484Z</time></trkpt><trkpt lat="43.4435505" lon="10.9043717"><ele>249.5</ele><time>2026-04-18T08:31:49.487Z</time></trkpt><trkpt lat="43.4434463" lon="10.9042772"><ele>248.0</ele><time>2026-04-18T08:31:50.5Z</time></trkpt><trkpt lat="43.4433432" lon="10.9041778"><ele>246.5</ele><time>2026-04-18T08:31:51.485Z</time></trkpt><trkpt lat="43.4432357" lon="10.9040856"><ele>245.0</ele><time>2026-04-18T08:31:52.496Z</time></trkpt><trkpt lat="43.44313" lon="10.9039899"><ele>245.0</ele><time>2026-04-18T08:31:53.488Z</time></trkpt><trkpt lat="43.4430183" lon="10.9038923"><ele>245.0</ele><time>2026-04-18T08:31:54.487Z</time></trkpt><trkpt lat="43.4428982" lon="10.903792"><ele>245.0</ele><time>2026-04-18T08:31:55.486Z</time></trkpt><trkpt lat="43.4427747" lon="10.9036897"><ele>245.0</ele><time>2026-04-18T08:31:56.496Z</time></trkpt><trkpt lat="43.4426549" lon="10.903584"><ele>245.25</ele><time>2026-04-18T08:31:57.482Z</time></trkpt><trkpt lat="43.4425393" lon="10.9034701"><ele>245.5</ele><time>2026-04-18T08:31:58.491Z</time></trkpt><trkpt lat="43.4424248" lon="10.9033517"><ele>245.75</ele><time>2026-04-18T08:31:59.492Z</time></trkpt><trkpt lat="43.4423105" lon="10.9032359"><ele>246.0</ele><time>2026-04-18T08:32:00.48Z</time></trkpt><trkpt lat="43.4421945" lon="10.9031235"><ele>245.5</ele><time>2026-04-18T08:32:01.505Z</time></trkpt><trkpt lat="43.4420777" lon="10.903019"><ele>245.0</ele><time>2026-04-18T08:32:02.493Z</time></trkpt><trkpt lat="43.4419666" lon="10.9029371"><ele>244.5</ele><time>2026-04-18T08:32:03.484Z</time></trkpt><trkpt lat="43.441857" lon="10.9028624"><ele>244.0</ele><time>2026-04-18T08:32:04.488Z</time></trkpt><trkpt lat="43.4417431" lon="10.9027968"><ele>244.0</ele><time>2026-04-18T08:32:05.484Z</time></trkpt><trkpt lat="43.4416297" lon="10.902754"><ele>243.99999999999997</ele><time>2026-04-18T08:32:06.491Z</time></trkpt><trkpt lat="43.4415144" lon="10.90273"><ele>243.99999999999997</ele><time>2026-04-18T08:32:07.494Z</time></trkpt><trkpt lat="43.4414077" lon="10.9027048"><ele>244.0</ele><time>2026-04-18T08:32:08.486Z</time></trkpt><trkpt lat="43.4413056" lon="10.902692"><ele>244.0</ele><time>2026-04-18T08:32:09.484Z</time></trkpt><trkpt lat="43.4412003" lon="10.9026932"><ele>243.5</ele><time>2026-04-18T08:32:10.48Z</time></trkpt><trkpt lat="43.4410917" lon="10.9026891"><ele>243.0</ele><time>2026-04-18T08:32:11.486Z</time></trkpt><trkpt lat="43.4409781" lon="10.902677"><ele>242.5</ele><time>2026-04-18T08:32:12.485Z</time></trkpt><trkpt lat="43.4408588" lon="10.902645"><ele>242.0</ele><time>2026-04-18T08:32:13.496Z</time></trkpt><trkpt lat="43.440737" lon="10.9025941"><ele>243.0</ele><time>2026-04-18T08:32:14.496Z</time></trkpt><trkpt lat="43.440625" lon="10.9025328"><ele>244.0</ele><time>2026-04-18T08:32:15.497Z</time></trkpt><trkpt lat="43.4405132" lon="10.9024565"><ele>245.0</ele><time>2026-04-18T08:32:16.483Z</time></trkpt><trkpt lat="43.4403979" lon="10.9023715"><ele>246.0</ele><time>2026-04-18T08:32:17.487Z</time></trkpt><trkpt lat="43.4402899" lon="10.9022779"><ele>248.0</ele><time>2026-04-18T08:32:18.489Z</time></trkpt><trkpt lat="43.4401901" lon="10.9021694"><ele>250.0</ele><time>2026-04-18T08:32:19.5Z</time></trkpt><trkpt lat="43.4401056" lon="10.9020596"><ele>252.0</ele><time>2026-04-18T08:32:20.48Z</time></trkpt><trkpt lat="43.440042" lon="10.9019487"><ele>254.0</ele><time>2026-04-18T08:32:21.489Z</time></trkpt><trkpt lat="43.4399807" lon="10.90183"><ele>253.2</ele><time>2026-04-18T08:32:22.485Z</time></trkpt><trkpt lat="43.4399298" lon="10.9017168"><ele>252.39999999999998</ele><time>2026-04-18T08:32:23.485Z</time></trkpt><trkpt lat="43.4398684" lon="10.9016132"><ele>251.6</ele><time>2026-04-18T08:32:24.486Z</time></trkpt><trkpt lat="43.4398127" lon="10.9015052"><ele>250.8</ele><time>2026-04-18T08:32:25.488Z</time></trkpt><trkpt lat="43.439756" lon="10.9014059"><ele>250.0</ele><time>2026-04-18T08:32:26.499Z</time></trkpt><trkpt lat="43.4397024" lon="10.9012957"><ele>249.99999999999997</ele><time>2026-04-18T08:32:27.494Z</time></trkpt><trkpt lat="43.4396708" lon="10.9011876"><ele>250.0</ele><time>2026-04-18T08:32:28.492Z</time></trkpt><trkpt lat="43.439643" lon="10.9010759"><ele>250.0</ele><time>2026-04-18T08:32:29.492Z</time></trkpt><trkpt lat="43.4396317" lon="10.9009678"><ele>250.0</ele><time>2026-04-18T08:32:30.488Z</time></trkpt><trkpt lat="43.4396244" lon="10.9008555"><ele>249.99999999999997</ele><time>2026-04-18T08:32:31.488Z</time></trkpt><trkpt lat="43.4396301" lon="10.9007293"><ele>250.0</ele><time>2026-04-18T08:32:32.489Z</time></trkpt><trkpt lat="43.4396382" lon="10.9006041"><ele>249.4</ele><time>2026-04-18T08:32:33.488Z</time></trkpt><trkpt lat="43.4396461" lon="10.9004808"><ele>248.8</ele><time>2026-04-18T08:32:34.488Z</time></trkpt><trkpt lat="43.4396576" lon="10.9003535"><ele>248.2</ele><time>2026-04-18T08:32:35.496Z</time></trkpt><trkpt lat="43.4396729" lon="10.9002233"><ele>247.6</ele><time>2026-04-18T08:32:36.496Z</time></trkpt><trkpt lat="43.4396805" lon="10.9000906"><ele>247.0</ele><time>2026-04-18T08:32:37.497Z</time></trkpt><trkpt lat="43.439674" lon="10.8999556"><ele>246.99999999999997</ele><time>2026-04-18T08:32:38.483Z</time></trkpt><trkpt lat="43.439655" lon="10.8998286"><ele>247.0</ele><time>2026-04-18T08:32:39.486Z</time></trkpt><trkpt lat="43.4396242" lon="10.8996986"><ele>247.0</ele><time>2026-04-18T08:32:40.509Z</time></trkpt><trkpt lat="43.4395817" lon="10.8995904"><ele>247.0</ele><time>2026-04-18T08:32:41.481Z</time></trkpt><trkpt lat="43.4395334" lon="10.8995067"><ele>246.99999999999997</ele><time>2026-04-18T08:32:42.483Z</time></trkpt><trkpt lat="43.4394654" lon="10.8994345"><ele>247.0</ele><time>2026-04-18T08:32:43.488Z</time></trkpt><trkpt lat="43.4393928" lon="10.8993793"><ele>247.66666666666666</ele><time>2026-04-18T08:32:44.486Z</time></trkpt><trkpt lat="43.4393204" lon="10.8993171"><ele>248.33333333333331</ele><time>2026-04-18T08:32:45.492Z</time></trkpt><trkpt lat="43.4392566" lon="10.8992453"><ele>249.0</ele><time>2026-04-18T08:32:46.493Z</time></trkpt><trkpt lat="43.4391976" lon="10.8991717"><ele>249.66666666666669</ele><time>2026-04-18T08:32:47.489Z</time></trkpt><trkpt lat="43.4391414" lon="10.8990984"><ele>250.33333333333334</ele><time>2026-04-18T08:32:48.485Z</time></trkpt><trkpt lat="43.4390818" lon="10.8990228"><ele>251.0</ele><time>2026-04-18T08:32:49.481Z</time></trkpt><trkpt lat="43.4390165" lon="10.8989528"><ele>251.00000000000003</ele><time>2026-04-18T08:32:50.474Z</time></trkpt><trkpt lat="43.4389532" lon="10.8988843"><ele>251.0</ele><time>2026-04-18T08:32:51.483Z</time></trkpt><trkpt lat="43.438893" lon="10.8988133"><ele>251.0</ele><time>2026-04-18T08:32:52.483Z</time></trkpt><trkpt lat="43.4388396" lon="10.8987279"><ele>251.0</ele><time>2026-04-18T08:32:53.484Z</time></trkpt><trkpt lat="43.4387932" lon="10.8986287"><ele>251.00000000000003</ele><time>2026-04-18T08:32:54.486Z</time></trkpt><trkpt lat="43.4387555" lon="10.8985226"><ele>251.0</ele><time>2026-04-18T08:32:55.488Z</time></trkpt><trkpt lat="43.4387292" lon="10.8984222"><ele>250.33333333333334</ele><time>2026-04-18T08:32:56.511Z</time></trkpt><trkpt lat="43.4387118" lon="10.8983223"><ele>249.66666666666669</ele><time>2026-04-18T08:32:57.492Z</time></trkpt><trkpt lat="43.4386897" lon="10.898225"><ele>249.0</ele><time>2026-04-18T08:32:58.488Z</time></trkpt><trkpt lat="43.4386554" lon="10.8981285"><ele>248.33333333333331</ele><time>2026-04-18T08:32:59.479Z</time></trkpt><trkpt lat="43.438609" lon="10.8980339"><ele>247.66666666666666</ele><time>2026-04-18T08:33:00.496Z</time></trkpt><trkpt lat="43.438556" lon="10.8979498"><ele>247.0</ele><time>2026-04-18T08:33:01.495Z</time></trkpt><trkpt lat="43.438508" lon="10.897877"><ele>246.99999999999997</ele><time>2026-04-18T08:33:02.487Z</time></trkpt><trkpt lat="43.4384578" lon="10.8977985"><ele>247.0</ele><time>2026-04-18T08:33:03.486Z</time></trkpt><trkpt lat="43.4384224" lon="10.8977193"><ele>247.0</ele><time>2026-04-18T08:33:04.5Z</time></trkpt><trkpt lat="43.4383873" lon="10.8976278"><ele>247.0</ele><time>2026-04-18T08:33:05.492Z</time></trkpt><trkpt lat="43.4383653" lon="10.89752"><ele>246.99999999999997</ele><time>2026-04-18T08:33:06.494Z</time></trkpt><trkpt lat="43.4383582" lon="10.8974066"><ele>247.0</ele><time>2026-04-18T08:33:07.492Z</time></trkpt><trkpt lat="43.4383565" lon="10.8972888"><ele>245.66666666666666</ele><time>2026-04-18T08:33:08.488Z</time></trkpt><trkpt lat="43.4383532" lon="10.8971731"><ele>244.33333333333331</ele><time>2026-04-18T08:33:09.484Z</time></trkpt><trkpt lat="43.438346" lon="10.8970642"><ele>243.0</ele><time>2026-04-18T08:33:10.502Z</time></trkpt><trkpt lat="43.4383227" lon="10.896954"><ele>241.66666666666669</ele><time>2026-04-18T08:33:11.492Z</time></trkpt><trkpt lat="43.4382912" lon="10.8968511"><ele>240.33333333333334</ele><time>2026-04-18T08:33:12.492Z</time></trkpt><trkpt lat="43.4382552" lon="10.8967495"><ele>239.0</ele><time>2026-04-18T08:33:13.492Z</time></trkpt><trkpt lat="43.4382269" lon="10.8966385"><ele>237.83333333333334</ele><time>2026-04-18T08:33:14.486Z</time></trkpt><trkpt lat="43.4381993" lon="10.8965367"><ele>236.66666666666669</ele><time>2026-04-18T08:33:15.49Z</time></trkpt><trkpt lat="43.4381761" lon="10.8964371"><ele>235.5</ele><time>2026-04-18T08:33:16.494Z</time></trkpt><trkpt lat="43.4381644" lon="10.896325"><ele>234.33333333333331</ele><time>2026-04-18T08:33:17.502Z</time></trkpt><trkpt lat="43.4381678" lon="10.8962167"><ele>233.16666666666666</ele><time>2026-04-18T08:33:18.493Z</time></trkpt><trkpt lat="43.4381817" lon="10.8961044"><ele>232.0</ele><time>2026-04-18T08:33:19.491Z</time></trkpt><trkpt lat="43.4381954" lon="10.8960049"><ele>231.8571428571429</ele><time>2026-04-18T08:33:20.492Z</time></trkpt><trkpt lat="43.4381912" lon="10.8959082"><ele>231.71428571428572</ele><time>2026-04-18T08:33:21.522Z</time></trkpt><trkpt lat="43.4381657" lon="10.8958242"><ele>231.57142857142858</ele><time>2026-04-18T08:33:22.483Z</time></trkpt><trkpt lat="43.4381261" lon="10.8957496"><ele>231.42857142857144</ele><time>2026-04-18T08:33:23.486Z</time></trkpt><trkpt lat="43.4380668" lon="10.8956892"><ele>231.28571428571428</ele><time>2026-04-18T08:33:24.485Z</time></trkpt><trkpt lat="43.438008" lon="10.8956368"><ele>231.14285714285714</ele><time>2026-04-18T08:33:25.491Z</time></trkpt><trkpt lat="43.437936" lon="10.8955661"><ele>231.0</ele><time>2026-04-18T08:33:26.499Z</time></trkpt><trkpt lat="43.4378697" lon="10.8954924"><ele>230.60000000000002</ele><time>2026-04-18T08:33:27.488Z</time></trkpt><trkpt lat="43.4378144" lon="10.895401"><ele>230.20000000000002</ele><time>2026-04-18T08:33:28.49Z</time></trkpt><trkpt lat="43.4377695" lon="10.8952903"><ele>229.79999999999998</ele><time>2026-04-18T08:33:29.492Z</time></trkpt><trkpt lat="43.4377269" lon="10.8951739"><ele>229.39999999999998</ele><time>2026-04-18T08:33:30.491Z</time></trkpt><trkpt lat="43.437687" lon="10.895051"><ele>229.0</ele><time>2026-04-18T08:33:31.498Z</time></trkpt><trkpt lat="43.4376486" lon="10.894921"><ele>228.6</ele><time>2026-04-18T08:33:32.494Z</time></trkpt><trkpt lat="43.4376107" lon="10.8948104"><ele>228.2</ele><time>2026-04-18T08:33:33.489Z</time></trkpt><trkpt lat="43.4375682" lon="10.8946972"><ele>227.79999999999998</ele><time>2026-04-18T08:33:34.496Z</time></trkpt><trkpt lat="43.4375138" lon="10.8945892"><ele>227.39999999999998</ele><time>2026-04-18T08:33:35.487Z</time></trkpt><trkpt lat="43.4374516" lon="10.8944895"><ele>227.0</ele><time>2026-04-18T08:33:36.486Z</time></trkpt><trkpt lat="43.4373786" lon="10.8943968"><ele>227.0</ele><time>2026-04-18T08:33:37.496Z</time></trkpt><trkpt lat="43.4373057" lon="10.8943108"><ele>227.0</ele><time>2026-04-18T08:33:38.486Z</time></trkpt><trkpt lat="43.4372183" lon="10.8942253"><ele>227.0</ele><time>2026-04-18T08:33:39.494Z</time></trkpt><trkpt lat="43.4371239" lon="10.8941519"><ele>227.0</ele><time>2026-04-18T08:33:40.49Z</time></trkpt><trkpt lat="43.4370179" lon="10.8940789"><ele>227.0</ele><time>2026-04-18T08:33:41.492Z</time></trkpt><trkpt lat="43.4369036" lon="10.894015"><ele>224.75</ele><time>2026-04-18T08:33:42.493Z</time></trkpt><trkpt lat="43.4367865" lon="10.8939598"><ele>222.5</ele><time>2026-04-18T08:33:43.493Z</time></trkpt><trkpt lat="43.4366672" lon="10.8939205"><ele>220.25</ele><time>2026-04-18T08:33:44.484Z</time></trkpt><trkpt lat="43.4365475" lon="10.8938899"><ele>218.0</ele><time>2026-04-18T08:33:45.49Z</time></trkpt><trkpt lat="43.4364371" lon="10.8938694"><ele>218.0</ele><time>2026-04-18T08:33:46.505Z</time></trkpt><trkpt lat="43.4363363" lon="10.8938429"><ele>218.0</ele><time>2026-04-18T08:33:47.486Z</time></trkpt><trkpt lat="43.4362396" lon="10.8938096"><ele>218.0</ele><time>2026-04-18T08:33:48.48Z</time></trkpt><trkpt lat="43.4361384" lon="10.8937673"><ele>218.0</ele><time>2026-04-18T08:33:49.496Z</time></trkpt><trkpt lat="43.436052" lon="10.8937056"><ele>218.0</ele><time>2026-04-18T08:33:50.504Z</time></trkpt><trkpt lat="43.4359697" lon="10.8936182"><ele>218.0</ele><time>2026-04-18T08:33:51.499Z</time></trkpt><trkpt lat="43.4358951" lon="10.8935152"><ele>218.0</ele><time>2026-04-18T08:33:52.505Z</time></trkpt><trkpt lat="43.4358224" lon="10.893401"><ele>218.0</ele><time>2026-04-18T08:33:53.493Z</time></trkpt><trkpt lat="43.4357373" lon="10.8932766"><ele>218.0</ele><time>2026-04-18T08:33:54.477Z</time></trkpt><trkpt lat="43.4356499" lon="10.8931488"><ele>218.0</ele><time>2026-04-18T08:33:55.487Z</time></trkpt><trkpt lat="43.4355579" lon="10.8930193"><ele>218.0</ele><time>2026-04-18T08:33:56.489Z</time></trkpt><trkpt lat="43.4354642" lon="10.8928826"><ele>218.0</ele><time>2026-04-18T08:33:57.489Z</time></trkpt><trkpt lat="43.4353719" lon="10.892744"><ele>218.0</ele><time>2026-04-18T08:33:58.49Z</time></trkpt><trkpt lat="43.4352742" lon="10.8926185"><ele>216.25</ele><time>2026-04-18T08:33:59.487Z</time></trkpt><trkpt lat="43.4351725" lon="10.8925061"><ele>214.5</ele><time>2026-04-18T08:34:00.484Z</time></trkpt><trkpt lat="43.4350737" lon="10.8924079"><ele>212.75</ele><time>2026-04-18T08:34:01.489Z</time></trkpt><trkpt lat="43.4349855" lon="10.8923063"><ele>211.0</ele><time>2026-04-18T08:34:02.485Z</time></trkpt><trkpt lat="43.4349109" lon="10.8922015"><ele>211.0</ele><time>2026-04-18T08:34:03.489Z</time></trkpt><trkpt lat="43.4348527" lon="10.8920814"><ele>211.0</ele><time>2026-04-18T08:34:04.486Z</time></trkpt><trkpt lat="43.4348134" lon="10.8919515"><ele>211.0</ele><time>2026-04-18T08:34:05.485Z</time></trkpt><trkpt lat="43.4347843" lon="10.8918255"><ele>211.0</ele><time>2026-04-18T08:34:06.487Z</time></trkpt><trkpt lat="43.4347531" lon="10.8917107"><ele>211.0</ele><time>2026-04-18T08:34:07.487Z</time></trkpt><trkpt lat="43.4347209" lon="10.8916171"><ele>208.5</ele><time>2026-04-18T08:34:08.503Z</time></trkpt><trkpt lat="43.434627" lon="10.8915361"><ele>206.0</ele><time>2026-04-18T08:34:10.495Z</time></trkpt><trkpt lat="43.4345174" lon="10.8916055"><ele>203.5</ele><time>2026-04-18T08:34:12.489Z</time></trkpt><trkpt lat="43.4344654" lon="10.8917435"><ele>201.0</ele><time>2026-04-18T08:34:14.503Z</time></trkpt><trkpt lat="43.4344296" lon="10.8919054"><ele>200.42857142857142</ele><time>2026-04-18T08:34:16.486Z</time></trkpt><trkpt lat="43.4344196" lon="10.8919915"><ele>199.85714285714286</ele><time>2026-04-18T08:34:17.488Z</time></trkpt><trkpt lat="43.4344127" lon="10.892085"><ele>199.28571428571428</ele><time>2026-04-18T08:34:18.48Z</time></trkpt><trkpt lat="43.4344221" lon="10.892173"><ele>198.71428571428572</ele><time>2026-04-18T08:34:19.491Z</time></trkpt><trkpt lat="43.4344381" lon="10.8922657"><ele>198.14285714285717</ele><time>2026-04-18T08:34:20.492Z</time></trkpt><trkpt lat="43.4344635" lon="10.8923556"><ele>197.57142857142858</ele><time>2026-04-18T08:34:21.486Z</time></trkpt><trkpt lat="43.434496" lon="10.8924388"><ele>197.0</ele><time>2026-04-18T08:34:22.481Z</time></trkpt><trkpt lat="43.4345321" lon="10.8925282"><ele>195.83333333333334</ele><time>2026-04-18T08:34:23.48Z</time></trkpt><trkpt lat="43.4345678" lon="10.8926187"><ele>194.66666666666669</ele><time>2026-04-18T08:34:24.491Z</time></trkpt><trkpt lat="43.4346087" lon="10.8927117"><ele>193.5</ele><time>2026-04-18T08:34:25.484Z</time></trkpt><trkpt lat="43.4346399" lon="10.8928163"><ele>192.33333333333334</ele><time>2026-04-18T08:34:26.483Z</time></trkpt><trkpt lat="43.4346611" lon="10.8929233"><ele>191.16666666666669</ele><time>2026-04-18T08:34:27.496Z</time></trkpt><trkpt lat="43.4346702" lon="10.8930276"><ele>190.0</ele><time>2026-04-18T08:34:28.488Z</time></trkpt><trkpt lat="43.4346694" lon="10.8931443"><ele>190.83333333333334</ele><time>2026-04-18T08:34:29.486Z</time></trkpt><trkpt lat="43.4346689" lon="10.8932632"><ele>191.66666666666669</ele><time>2026-04-18T08:34:30.484Z</time></trkpt><trkpt lat="43.4346731" lon="10.8933853"><ele>192.5</ele><time>2026-04-18T08:34:31.487Z</time></trkpt><trkpt lat="43.4346832" lon="10.8934998"><ele>193.33333333333334</ele><time>2026-04-18T08:34:32.495Z</time></trkpt><trkpt lat="43.4347004" lon="10.8936026"><ele>194.16666666666666</ele><time>2026-04-18T08:34:33.488Z</time></trkpt><trkpt lat="43.4347189" lon="10.8936947"><ele>195.0</ele><time>2026-04-18T08:34:34.487Z</time></trkpt><trkpt lat="43.4347271" lon="10.8937813"><ele>195.0</ele><time>2026-04-18T08:34:35.478Z</time></trkpt><trkpt lat="43.4347012" lon="10.8939094"><ele>195.0</ele><time>2026-04-18T08:34:37.483Z</time></trkpt><trkpt lat="43.4345954" lon="10.8939271"><ele>195.0</ele><time>2026-04-18T08:34:39.497Z</time></trkpt><trkpt lat="43.4345338" lon="10.8938845"><ele>195.0</ele><time>2026-04-18T08:34:40.485Z</time></trkpt><trkpt lat="43.4344459" lon="10.8937525"><ele>195.0</ele><time>2026-04-18T08:34:42.49Z</time></trkpt><trkpt lat="43.4343928" lon="10.8936725"><ele>194.16666666666666</ele><time>2026-04-18T08:34:43.49Z</time></trkpt><trkpt lat="43.4343316" lon="10.8935902"><ele>193.33333333333334</ele><time>2026-04-18T08:34:44.485Z</time></trkpt><trkpt lat="43.4342635" lon="10.8935112"><ele>192.5</ele><time>2026-04-18T08:34:45.482Z</time></trkpt><trkpt lat="43.4341909" lon="10.8934392"><ele>191.66666666666669</ele><time>2026-04-18T08:34:46.485Z</time></trkpt><trkpt lat="43.4341213" lon="10.8933788"><ele>190.83333333333334</ele><time>2026-04-18T08:34:47.481Z</time></trkpt><trkpt lat="43.4340526" lon="10.8933174"><ele>190.0</ele><time>2026-04-18T08:34:48.492Z</time></trkpt><trkpt lat="43.4339882" lon="10.8932348"><ele>190.0</ele><time>2026-04-18T08:34:49.48Z</time></trkpt><trkpt lat="43.4339152" lon="10.8931888"><ele>190.0</ele><time>2026-04-18T08:34:50.492Z</time></trkpt><trkpt lat="43.4338333" lon="10.8931445"><ele>190.0</ele><time>2026-04-18T08:34:51.485Z</time></trkpt><trkpt lat="43.4337558" lon="10.8930879"><ele>190.0</ele><time>2026-04-18T08:34:52.499Z</time></trkpt><trkpt lat="43.4336904" lon="10.8930308"><ele>190.0</ele><time>2026-04-18T08:34:53.486Z</time></trkpt><trkpt lat="43.4336173" lon="10.8929743"><ele>190.0</ele><time>2026-04-18T08:34:54.504Z</time></trkpt><trkpt lat="43.4335567" lon="10.8929134"><ele>188.0</ele><time>2026-04-18T08:34:55.491Z</time></trkpt><trkpt lat="43.4334902" lon="10.8928521"><ele>186.0</ele><time>2026-04-18T08:34:56.492Z</time></trkpt><trkpt lat="43.4334296" lon="10.8927824"><ele>184.0</ele><time>2026-04-18T08:34:57.493Z</time></trkpt><trkpt lat="43.4333655" lon="10.8927176"><ele>182.0</ele><time>2026-04-18T08:34:58.495Z</time></trkpt><trkpt lat="43.4332995" lon="10.8926634"><ele>180.0</ele><time>2026-04-18T08:34:59.495Z</time></trkpt><trkpt lat="43.4332282" lon="10.8926255"><ele>178.0</ele><time>2026-04-18T08:35:00.48Z</time></trkpt><trkpt lat="43.4331481" lon="10.892607"><ele>178.0</ele><time>2026-04-18T08:35:01.5Z</time></trkpt><trkpt lat="43.4330756" lon="10.8926166"><ele>178.0</ele><time>2026-04-18T08:35:02.51Z</time></trkpt><trkpt lat="43.4329955" lon="10.8926278"><ele>178.0</ele><time>2026-04-18T08:35:03.5Z</time></trkpt><trkpt lat="43.4329206" lon="10.892649"><ele>178.0</ele><time>2026-04-18T08:35:04.497Z</time></trkpt><trkpt lat="43.4328452" lon="10.8926744"><ele>178.0</ele><time>2026-04-18T08:35:05.505Z</time></trkpt><trkpt lat="43.4327693" lon="10.892703"><ele>178.0</ele><time>2026-04-18T08:35:06.488Z</time></trkpt><trkpt lat="43.4326971" lon="10.8927352"><ele>177.16666666666669</ele><time>2026-04-18T08:35:07.504Z</time></trkpt><trkpt lat="43.4326199" lon="10.8927473"><ele>176.33333333333334</ele><time>2026-04-18T08:35:08.508Z</time></trkpt><trkpt lat="43.4325441" lon="10.8927581"><ele>175.5</ele><time>2026-04-18T08:35:09.518Z</time></trkpt><trkpt lat="43.4324649" lon="10.89278"><ele>174.66666666666666</ele><time>2026-04-18T08:35:10.487Z</time></trkpt><trkpt lat="43.4323823" lon="10.8928015"><ele>173.83333333333331</ele><time>2026-04-18T08:35:11.485Z</time></trkpt><trkpt lat="43.4322959" lon="10.8928236"><ele>173.0</ele><time>2026-04-18T08:35:12.488Z</time></trkpt><trkpt lat="43.4322102" lon="10.8928444"><ele>173.0</ele><time>2026-04-18T08:35:13.485Z</time></trkpt><trkpt lat="43.4321409" lon="10.8928662"><ele>173.0</ele><time>2026-04-18T08:35:14.486Z</time></trkpt><trkpt lat="43.4320784" lon="10.8928812"><ele>173.0</ele><time>2026-04-18T08:35:15.489Z</time></trkpt><trkpt lat="43.4319784" lon="10.8929118"><ele>173.0</ele><time>2026-04-18T08:35:17.479Z</time></trkpt><trkpt lat="43.4319156" lon="10.8929209"><ele>173.0</ele><time>2026-04-18T08:35:19.486Z</time></trkpt><trkpt lat="43.4318644" lon="10.8929917"><ele>173.0</ele><time>2026-04-18T08:35:22.491Z</time></trkpt><trkpt lat="43.431856" lon="10.8930815"><ele>173.0</ele><time>2026-04-18T08:35:23.486Z</time></trkpt><trkpt lat="43.4318805" lon="10.8932157"><ele>174.0</ele><time>2026-04-18T08:35:25.49Z</time></trkpt><trkpt lat="43.4319113" lon="10.8933768"><ele>175.0</ele><time>2026-04-18T08:35:27.484Z</time></trkpt><trkpt lat="43.4319252" lon="10.8934692"><ele>176.0</ele><time>2026-04-18T08:35:28.488Z</time></trkpt><trkpt lat="43.4319309" lon="10.8935819"><ele>177.0</ele><time>2026-04-18T08:35:29.492Z</time></trkpt><trkpt lat="43.4319343" lon="10.8937128"><ele>178.0</ele><time>2026-04-18T08:35:30.489Z</time></trkpt><trkpt lat="43.431917" lon="10.8938489"><ele>178.0</ele><time>2026-04-18T08:35:31.479Z</time></trkpt><trkpt lat="43.4318822" lon="10.8939818"><ele>178.0</ele><time>2026-04-18T08:35:32.484Z</time></trkpt><trkpt lat="43.4318464" lon="10.8941092"><ele>178.0</ele><time>2026-04-18T08:35:33.493Z</time></trkpt><trkpt lat="43.4318029" lon="10.8942331"><ele>178.0</ele><time>2026-04-18T08:35:34.493Z</time></trkpt><trkpt lat="43.4317613" lon="10.89435"><ele>178.0</ele><time>2026-04-18T08:35:35.493Z</time></trkpt><trkpt lat="43.4317183" lon="10.8944623"><ele>178.0</ele><time>2026-04-18T08:35:36.494Z</time></trkpt><trkpt lat="43.431669" lon="10.8945624"><ele>178.0</ele><time>2026-04-18T08:35:37.482Z</time></trkpt><trkpt lat="43.4316209" lon="10.8946604"><ele>178.0</ele><time>2026-04-18T08:35:38.482Z</time></trkpt><trkpt lat="43.4315736" lon="10.8947511"><ele>178.0</ele><time>2026-04-18T08:35:39.483Z</time></trkpt><trkpt lat="43.43152" lon="10.8948374"><ele>178.0</ele><time>2026-04-18T08:35:40.485Z</time></trkpt><trkpt lat="43.4314791" lon="10.8949148"><ele>178.0</ele><time>2026-04-18T08:35:41.496Z</time></trkpt><trkpt lat="43.4314852" lon="10.8950847"><ele>178.5</ele><time>2026-04-18T08:35:43.494Z</time></trkpt><trkpt lat="43.4315053" lon="10.8951771"><ele>179.0</ele><time>2026-04-18T08:35:44.501Z</time></trkpt><trkpt lat="43.4315342" lon="10.8952804"><ele>179.5</ele><time>2026-04-18T08:35:45.49Z</time></trkpt><trkpt lat="43.431567" lon="10.8953752"><ele>180.0</ele><time>2026-04-18T08:35:46.504Z</time></trkpt><trkpt lat="43.431603" lon="10.8954605"><ele>180.5</ele><time>2026-04-18T08:35:47.497Z</time></trkpt><trkpt lat="43.4316279" lon="10.8955612"><ele>181.0</ele><time>2026-04-18T08:35:48.505Z</time></trkpt><trkpt lat="43.4316546" lon="10.8956642"><ele>181.0</ele><time>2026-04-18T08:35:49.491Z</time></trkpt><trkpt lat="43.4316792" lon="10.8957841"><ele>181.0</ele><time>2026-04-18T08:35:50.501Z</time></trkpt><trkpt lat="43.4316895" lon="10.8959016"><ele>181.0</ele><time>2026-04-18T08:35:51.49Z</time></trkpt><trkpt lat="43.4316981" lon="10.8960227"><ele>181.0</ele><time>2026-04-18T08:35:52.481Z</time></trkpt><trkpt lat="43.431699" lon="10.8961228"><ele>181.0</ele><time>2026-04-18T08:35:53.496Z</time></trkpt><trkpt lat="43.4316805" lon="10.8962134"><ele>181.0</ele><time>2026-04-18T08:35:54.493Z</time></trkpt><trkpt lat="43.4316197" lon="10.8962522"><ele>181.83333333333334</ele><time>2026-04-18T08:35:55.492Z</time></trkpt><trkpt lat="43.4315149" lon="10.8962168"><ele>182.66666666666669</ele><time>2026-04-18T08:35:57.484Z</time></trkpt><trkpt lat="43.4314749" lon="10.896142"><ele>183.5</ele><time>2026-04-18T08:35:58.489Z</time></trkpt><trkpt lat="43.4314322" lon="10.8960736"><ele>184.33333333333334</ele><time>2026-04-18T08:35:59.495Z</time></trkpt><trkpt lat="43.431362" lon="10.8960172"><ele>185.16666666666666</ele><time>2026-04-18T08:36:00.485Z</time></trkpt><trkpt lat="43.4312821" lon="10.8959675"><ele>186.0</ele><time>2026-04-18T08:36:01.497Z</time></trkpt><trkpt lat="43.4311922" lon="10.8959542"><ele>186.8</ele><time>2026-04-18T08:36:02.481Z</time></trkpt><trkpt lat="43.4311016" lon="10.8959298"><ele>187.60000000000002</ele><time>2026-04-18T08:36:03.479Z</time></trkpt><trkpt lat="43.4310101" lon="10.8959038"><ele>188.4</ele><time>2026-04-18T08:36:04.492Z</time></trkpt><trkpt lat="43.4309165" lon="10.8958704"><ele>189.2</ele><time>2026-04-18T08:36:05.479Z</time></trkpt><trkpt lat="43.4308236" lon="10.89583"><ele>190.0</ele><time>2026-04-18T08:36:06.488Z</time></trkpt><trkpt lat="43.4307378" lon="10.8958075"><ele>190.0</ele><time>2026-04-18T08:36:07.487Z</time></trkpt><trkpt lat="43.4306574" lon="10.8958206"><ele>190.0</ele><time>2026-04-18T08:36:08.478Z</time></trkpt><trkpt lat="43.4306156" lon="10.8959006"><ele>190.0</ele><time>2026-04-18T08:36:09.477Z</time></trkpt><trkpt lat="43.4306071" lon="10.8959941"><ele>190.0</ele><time>2026-04-18T08:36:10.498Z</time></trkpt><trkpt lat="43.4306475" lon="10.896072"><ele>190.0</ele><time>2026-04-18T08:36:11.478Z</time></trkpt><trkpt lat="43.4306952" lon="10.8961473"><ele>190.0</ele><time>2026-04-18T08:36:12.503Z</time></trkpt><trkpt lat="43.4307468" lon="10.8962309"><ele>190.0</ele><time>2026-04-18T08:36:13.487Z</time></trkpt><trkpt lat="43.430805" lon="10.8963207"><ele>191.83333333333334</ele><time>2026-04-18T08:36:14.502Z</time></trkpt><trkpt lat="43.4308625" lon="10.896409"><ele>193.66666666666669</ele><time>2026-04-18T08:36:15.497Z</time></trkpt><trkpt lat="43.4309204" lon="10.8964995"><ele>195.5</ele><time>2026-04-18T08:36:16.497Z</time></trkpt><trkpt lat="43.4309773" lon="10.8965925"><ele>197.33333333333334</ele><time>2026-04-18T08:36:17.503Z</time></trkpt><trkpt lat="43.4310292" lon="10.8966828"><ele>199.16666666666666</ele><time>2026-04-18T08:36:18.494Z</time></trkpt><trkpt lat="43.4310567" lon="10.8967797"><ele>201.0</ele><time>2026-04-18T08:36:19.497Z</time></trkpt><trkpt lat="43.4310732" lon="10.8968835"><ele>202.33333333333334</ele><time>2026-04-18T08:36:20.502Z</time></trkpt><trkpt lat="43.4310763" lon="10.8969839"><ele>203.66666666666669</ele><time>2026-04-18T08:36:21.489Z</time></trkpt><trkpt lat="43.4310627" lon="10.897078"><ele>205.0</ele><time>2026-04-18T08:36:22.489Z</time></trkpt><trkpt lat="43.4310359" lon="10.8971821"><ele>206.33333333333334</ele><time>2026-04-18T08:36:23.494Z</time></trkpt><trkpt lat="43.4309975" lon="10.8972757"><ele>207.66666666666669</ele><time>2026-04-18T08:36:24.496Z</time></trkpt><trkpt lat="43.4309494" lon="10.897353"><ele>209.0</ele><time>2026-04-18T08:36:25.497Z</time></trkpt><trkpt lat="43.4308167" lon="10.8973801"><ele>209.00000000000003</ele><time>2026-04-18T08:36:27.491Z</time></trkpt><trkpt lat="43.4307483" lon="10.8973406"><ele>209.0</ele><time>2026-04-18T08:36:28.488Z</time></trkpt><trkpt lat="43.4306704" lon="10.8972298"><ele>209.0</ele><time>2026-04-18T08:36:30.491Z</time></trkpt><trkpt lat="43.4306214" lon="10.8971681"><ele>209.0</ele><time>2026-04-18T08:36:31.494Z</time></trkpt><trkpt lat="43.4305549" lon="10.8971247"><ele>209.00000000000003</ele><time>2026-04-18T08:36:32.489Z</time></trkpt><trkpt lat="43.4304851" lon="10.8971098"><ele>209.0</ele><time>2026-04-18T08:36:33.479Z</time></trkpt><trkpt lat="43.4304206" lon="10.8971472"><ele>210.16666666666669</ele><time>2026-04-18T08:36:34.492Z</time></trkpt><trkpt lat="43.4303563" lon="10.8972044"><ele>211.33333333333334</ele><time>2026-04-18T08:36:35.489Z</time></trkpt><trkpt lat="43.4302856" lon="10.8972576"><ele>212.5</ele><time>2026-04-18T08:36:36.5Z</time></trkpt><trkpt lat="43.4302067" lon="10.8972961"><ele>213.66666666666669</ele><time>2026-04-18T08:36:37.516Z</time></trkpt><trkpt lat="43.4301305" lon="10.8973322"><ele>214.83333333333334</ele><time>2026-04-18T08:36:38.509Z</time></trkpt><trkpt lat="43.4300627" lon="10.8973755"><ele>216.0</ele><time>2026-04-18T08:36:39.521Z</time></trkpt><trkpt lat="43.4300146" lon="10.8974541"><ele>216.0</ele><time>2026-04-18T08:36:40.517Z</time></trkpt><trkpt lat="43.4299756" lon="10.8975642"><ele>216.0</ele><time>2026-04-18T08:36:41.505Z</time></trkpt><trkpt lat="43.429973" lon="10.8976889"><ele>216.0</ele><time>2026-04-18T08:36:42.498Z</time></trkpt><trkpt lat="43.4299849" lon="10.897816"><ele>216.0</ele><time>2026-04-18T08:36:43.514Z</time></trkpt><trkpt lat="43.4299936" lon="10.8979405"><ele>216.0</ele><time>2026-04-18T08:36:44.51Z</time></trkpt><trkpt lat="43.429998" lon="10.8980514"><ele>216.0</ele><time>2026-04-18T08:36:45.515Z</time></trkpt><trkpt lat="43.4299972" lon="10.8981583"><ele>217.0</ele><time>2026-04-18T08:36:46.479Z</time></trkpt><trkpt lat="43.4299949" lon="10.8982658"><ele>218.0</ele><time>2026-04-18T08:36:47.489Z</time></trkpt><trkpt lat="43.4299945" lon="10.8983737"><ele>219.0</ele><time>2026-04-18T08:36:48.48Z</time></trkpt><trkpt lat="43.4299947" lon="10.8984849"><ele>220.0</ele><time>2026-04-18T08:36:49.483Z</time></trkpt><trkpt lat="43.4300085" lon="10.8986007"><ele>221.0</ele><time>2026-04-18T08:36:50.484Z</time></trkpt><trkpt lat="43.4300176" lon="10.8987159"><ele>222.0</ele><time>2026-04-18T08:36:51.483Z</time></trkpt><trkpt lat="43.4300302" lon="10.8988202"><ele>223.0</ele><time>2026-04-18T08:36:52.489Z</time></trkpt><trkpt lat="43.4300281" lon="10.8989188"><ele>224.0</ele><time>2026-04-18T08:36:53.487Z</time></trkpt><trkpt lat="43.4299973" lon="10.8989972"><ele>225.0</ele><time>2026-04-18T08:36:54.489Z</time></trkpt><trkpt lat="43.4298613" lon="10.8990444"><ele>226.0</ele><time>2026-04-18T08:36:56.489Z</time></trkpt><trkpt lat="43.4297843" lon="10.8990236"><ele>227.0</ele><time>2026-04-18T08:36:57.482Z</time></trkpt><trkpt lat="43.4297181" lon="10.8990123"><ele>228.0</ele><time>2026-04-18T08:36:58.49Z</time></trkpt><trkpt lat="43.4296455" lon="10.8990069"><ele>229.33333333333334</ele><time>2026-04-18T08:36:59.486Z</time></trkpt><trkpt lat="43.4295714" lon="10.8990081"><ele>230.66666666666669</ele><time>2026-04-18T08:37:00.48Z</time></trkpt><trkpt lat="43.4294974" lon="10.8990221"><ele>232.0</ele><time>2026-04-18T08:37:01.484Z</time></trkpt><trkpt lat="43.4294228" lon="10.8990459"><ele>233.33333333333334</ele><time>2026-04-18T08:37:02.481Z</time></trkpt><trkpt lat="43.429343" lon="10.8990831"><ele>234.66666666666669</ele><time>2026-04-18T08:37:03.493Z</time></trkpt><trkpt lat="43.4292594" lon="10.8991236"><ele>236.0</ele><time>2026-04-18T08:37:04.497Z</time></trkpt><trkpt lat="43.4291777" lon="10.8991548"><ele>236.00000000000003</ele><time>2026-04-18T08:37:05.498Z</time></trkpt><trkpt lat="43.4291106" lon="10.8991878"><ele>236.0</ele><time>2026-04-18T08:37:06.48Z</time></trkpt><trkpt lat="43.4290526" lon="10.8993314"><ele>236.0</ele><time>2026-04-18T08:37:08.479Z</time></trkpt><trkpt lat="43.4290631" lon="10.8994211"><ele>236.0</ele><time>2026-04-18T08:37:09.485Z</time></trkpt><trkpt lat="43.4290843" lon="10.8995076"><ele>236.00000000000003</ele><time>2026-04-18T08:37:10.486Z</time></trkpt><trkpt lat="43.4291133" lon="10.899593"><ele>236.0</ele><time>2026-04-18T08:37:11.48Z</time></trkpt><trkpt lat="43.4291531" lon="10.8996799"><ele>237.33333333333334</ele><time>2026-04-18T08:37:12.492Z</time></trkpt><trkpt lat="43.4291875" lon="10.8997704"><ele>238.66666666666669</ele><time>2026-04-18T08:37:13.486Z</time></trkpt><trkpt lat="43.4292127" lon="10.8998685"><ele>240.0</ele><time>2026-04-18T08:37:14.48Z</time></trkpt><trkpt lat="43.4292227" lon="10.8999708"><ele>241.33333333333331</ele><time>2026-04-18T08:37:15.504Z</time></trkpt><trkpt lat="43.4292181" lon="10.9000809"><ele>242.66666666666666</ele><time>2026-04-18T08:37:16.479Z</time></trkpt><trkpt lat="43.4291929" lon="10.9002104"><ele>244.0</ele><time>2026-04-18T08:37:17.476Z</time></trkpt><trkpt lat="43.4291515" lon="10.9003307"><ele>244.83333333333331</ele><time>2026-04-18T08:37:18.484Z</time></trkpt><trkpt lat="43.429088" lon="10.9004071"><ele>245.66666666666666</ele><time>2026-04-18T08:37:19.489Z</time></trkpt><trkpt lat="43.4290272" lon="10.9004528"><ele>246.5</ele><time>2026-04-18T08:37:20.491Z</time></trkpt><trkpt lat="43.4289469" lon="10.9004676"><ele>247.33333333333331</ele><time>2026-04-18T08:37:21.491Z</time></trkpt><trkpt lat="43.4288628" lon="10.9004801"><ele>248.16666666666666</ele><time>2026-04-18T08:37:22.482Z</time></trkpt><trkpt lat="43.4287861" lon="10.9004945"><ele>249.0</ele><time>2026-04-18T08:37:23.477Z</time></trkpt><trkpt lat="43.4287376" lon="10.9005699"><ele>250.6</ele><time>2026-04-18T08:37:24.505Z</time></trkpt><trkpt lat="43.428708" lon="10.900681"><ele>252.2</ele><time>2026-04-18T08:37:25.488Z</time></trkpt><trkpt lat="43.4286926" lon="10.9008016"><ele>253.79999999999998</ele><time>2026-04-18T08:37:26.488Z</time></trkpt><trkpt lat="43.4287017" lon="10.9009318"><ele>255.39999999999998</ele><time>2026-04-18T08:37:27.48Z</time></trkpt><trkpt lat="43.428706" lon="10.9010534"><ele>257.0</ele><time>2026-04-18T08:37:28.474Z</time></trkpt><trkpt lat="43.4287213" lon="10.9011796"><ele>256.6</ele><time>2026-04-18T08:37:29.479Z</time></trkpt><trkpt lat="43.4287537" lon="10.9012822"><ele>256.2</ele><time>2026-04-18T08:37:30.48Z</time></trkpt><trkpt lat="43.4288024" lon="10.9013905"><ele>255.8</ele><time>2026-04-18T08:37:31.482Z</time></trkpt><trkpt lat="43.4288669" lon="10.9014877"><ele>255.4</ele><time>2026-04-18T08:37:32.486Z</time></trkpt><trkpt lat="43.4289385" lon="10.9015728"><ele>255.0</ele><time>2026-04-18T08:37:33.506Z</time></trkpt><trkpt lat="43.4290067" lon="10.9016617"><ele>257.6</ele><time>2026-04-18T08:37:34.489Z</time></trkpt><trkpt lat="43.4290745" lon="10.9017551"><ele>260.2</ele><time>2026-04-18T08:37:35.486Z</time></trkpt><trkpt lat="43.4291419" lon="10.9018634"><ele>262.8</ele><time>2026-04-18T08:37:36.491Z</time></trkpt><trkpt lat="43.4292107" lon="10.9019743"><ele>265.4</ele><time>2026-04-18T08:37:37.49Z</time></trkpt><trkpt lat="43.4292785" lon="10.9020696"><ele>268.0</ele><time>2026-04-18T08:37:38.497Z</time></trkpt><trkpt lat="43.4293612" lon="10.9021582"><ele>268.0</ele><time>2026-04-18T08:37:39.488Z</time></trkpt><trkpt lat="43.4294333" lon="10.9022295"><ele>268.0</ele><time>2026-04-18T08:37:40.488Z</time></trkpt><trkpt lat="43.4295181" lon="10.9022916"><ele>268.0</ele><time>2026-04-18T08:37:41.48Z</time></trkpt><trkpt lat="43.4295942" lon="10.9023501"><ele>268.0</ele><time>2026-04-18T08:37:42.483Z</time></trkpt><trkpt lat="43.4296645" lon="10.9024066"><ele>268.0</ele><time>2026-04-18T08:37:43.491Z</time></trkpt><trkpt lat="43.4297183" lon="10.9024582"><ele>268.0</ele><time>2026-04-18T08:37:44.478Z</time></trkpt><trkpt lat="43.4297197" lon="10.9026286"><ele>268.16666666666663</ele><time>2026-04-18T08:37:46.485Z</time></trkpt><trkpt lat="43.4296512" lon="10.9027352"><ele>268.3333333333333</ele><time>2026-04-18T08:37:48.481Z</time></trkpt><trkpt lat="43.4295841" lon="10.9027429"><ele>268.5</ele><time>2026-04-18T08:37:49.487Z</time></trkpt><trkpt lat="43.4295118" lon="10.9027529"><ele>268.6666666666667</ele><time>2026-04-18T08:37:50.483Z</time></trkpt><trkpt lat="43.4294385" lon="10.9027719"><ele>268.83333333333337</ele><time>2026-04-18T08:37:51.484Z</time></trkpt><trkpt lat="43.4293551" lon="10.9027737"><ele>269.0</ele><time>2026-04-18T08:37:52.503Z</time></trkpt><trkpt lat="43.4292769" lon="10.9027509"><ele>268.83333333333337</ele><time>2026-04-18T08:37:53.49Z</time></trkpt><trkpt lat="43.4292159" lon="10.9026999"><ele>268.6666666666667</ele><time>2026-04-18T08:37:54.488Z</time></trkpt><trkpt lat="43.429159" lon="10.9026165"><ele>268.5</ele><time>2026-04-18T08:37:55.496Z</time></trkpt><trkpt lat="43.4291162" lon="10.9025224"><ele>268.3333333333333</ele><time>2026-04-18T08:37:56.486Z</time></trkpt><trkpt lat="43.4290635" lon="10.9024352"><ele>268.16666666666663</ele><time>2026-04-18T08:37:57.486Z</time></trkpt><trkpt lat="43.4289995" lon="10.9023591"><ele>268.0</ele><time>2026-04-18T08:37:58.487Z</time></trkpt><trkpt lat="43.4289227" lon="10.9023089"><ele>268.0</ele><time>2026-04-18T08:37:59.498Z</time></trkpt><trkpt lat="43.4288374" lon="10.9022749"><ele>268.0</ele><time>2026-04-18T08:38:00.489Z</time></trkpt><trkpt lat="43.428741" lon="10.9022498"><ele>268.0</ele><time>2026-04-18T08:38:01.492Z</time></trkpt><trkpt lat="43.4286414" lon="10.9022595"><ele>268.0</ele><time>2026-04-18T08:38:02.488Z</time></trkpt><trkpt lat="43.428547" lon="10.9022973"><ele>268.0</ele><time>2026-04-18T08:38:03.488Z</time></trkpt><trkpt lat="43.4284579" lon="10.9023415"><ele>270.0</ele><time>2026-04-18T08:38:04.489Z</time></trkpt><trkpt lat="43.4283667" lon="10.9023691"><ele>272.0</ele><time>2026-04-18T08:38:05.483Z</time></trkpt><trkpt lat="43.4282738" lon="10.9023749"><ele>274.0</ele><time>2026-04-18T08:38:06.488Z</time></trkpt><trkpt lat="43.4281769" lon="10.9023686"><ele>276.0</ele><time>2026-04-18T08:38:07.482Z</time></trkpt><trkpt lat="43.4280841" lon="10.9023209"><ele>278.0</ele><time>2026-04-18T08:38:08.488Z</time></trkpt><trkpt lat="43.4279995" lon="10.9022603"><ele>278.5</ele><time>2026-04-18T08:38:09.487Z</time></trkpt><trkpt lat="43.4279167" lon="10.9022133"><ele>279.0</ele><time>2026-04-18T08:38:10.495Z</time></trkpt><trkpt lat="43.4278515" lon="10.9021596"><ele>279.5</ele><time>2026-04-18T08:38:11.489Z</time></trkpt><trkpt lat="43.4277841" lon="10.9021254"><ele>280.0</ele><time>2026-04-18T08:38:12.484Z</time></trkpt><trkpt lat="43.4276667" lon="10.902155"><ele>280.5</ele><time>2026-04-18T08:38:14.489Z</time></trkpt><trkpt lat="43.4276225" lon="10.9022238"><ele>281.0</ele><time>2026-04-18T08:38:15.479Z</time></trkpt><trkpt lat="43.4276127" lon="10.90232"><ele>281.0</ele><time>2026-04-18T08:38:16.481Z</time></trkpt><trkpt lat="43.427666" lon="10.9024358"><ele>281.0</ele><time>2026-04-18T08:38:18.494Z</time></trkpt><trkpt lat="43.4277224" lon="10.9024865"><ele>281.0</ele><time>2026-04-18T08:38:19.485Z</time></trkpt><trkpt lat="43.4277833" lon="10.9025565"><ele>281.0</ele><time>2026-04-18T08:38:20.485Z</time></trkpt><trkpt lat="43.4278496" lon="10.9026264"><ele>281.0</ele><time>2026-04-18T08:38:21.493Z</time></trkpt><trkpt lat="43.4279224" lon="10.902696"><ele>281.0</ele><time>2026-04-18T08:38:22.494Z</time></trkpt><trkpt lat="43.4280084" lon="10.9027813"><ele>282.2</ele><time>2026-04-18T08:38:23.497Z</time></trkpt><trkpt lat="43.4280909" lon="10.902858"><ele>283.40000000000003</ele><time>2026-04-18T08:38:24.489Z</time></trkpt><trkpt lat="43.4281858" lon="10.9029267"><ele>284.6</ele><time>2026-04-18T08:38:25.479Z</time></trkpt><trkpt lat="43.4282682" lon="10.9029915"><ele>285.8</ele><time>2026-04-18T08:38:26.496Z</time></trkpt><trkpt lat="43.4283562" lon="10.903056"><ele>287.0</ele><time>2026-04-18T08:38:27.486Z</time></trkpt><trkpt lat="43.4284359" lon="10.9031453"><ele>287.0</ele><time>2026-04-18T08:38:28.498Z</time></trkpt><trkpt lat="43.4285022" lon="10.9032587"><ele>287.0</ele><time>2026-04-18T08:38:29.491Z</time></trkpt><trkpt lat="43.4285644" lon="10.9033806"><ele>287.0</ele><time>2026-04-18T08:38:30.483Z</time></trkpt><trkpt lat="43.4286285" lon="10.9035032"><ele>287.0</ele><time>2026-04-18T08:38:31.481Z</time></trkpt><trkpt lat="43.428686" lon="10.9036226"><ele>287.0</ele><time>2026-04-18T08:38:32.478Z</time></trkpt><trkpt lat="43.4287372" lon="10.9037533"><ele>286.4</ele><time>2026-04-18T08:38:33.485Z</time></trkpt><trkpt lat="43.4287786" lon="10.9038767"><ele>285.79999999999995</ele><time>2026-04-18T08:38:34.476Z</time></trkpt><trkpt lat="43.4288231" lon="10.9040076"><ele>285.2</ele><time>2026-04-18T08:38:35.49Z</time></trkpt><trkpt lat="43.4288637" lon="10.9041386"><ele>284.59999999999997</ele><time>2026-04-18T08:38:36.482Z</time></trkpt><trkpt lat="43.4288965" lon="10.9042705"><ele>284.0</ele><time>2026-04-18T08:38:37.49Z</time></trkpt><trkpt lat="43.4289228" lon="10.9043974"><ele>285.6666666666667</ele><time>2026-04-18T08:38:38.485Z</time></trkpt><trkpt lat="43.4289447" lon="10.9045348"><ele>287.33333333333337</ele><time>2026-04-18T08:38:39.487Z</time></trkpt><trkpt lat="43.4289617" lon="10.9046539"><ele>289.0</ele><time>2026-04-18T08:38:40.502Z</time></trkpt><trkpt lat="43.4289918" lon="10.9047662"><ele>290.6666666666667</ele><time>2026-04-18T08:38:41.479Z</time></trkpt><trkpt lat="43.4290389" lon="10.9048636"><ele>292.3333333333333</ele><time>2026-04-18T08:38:42.486Z</time></trkpt><trkpt lat="43.4290946" lon="10.9049463"><ele>294.0</ele><time>2026-04-18T08:38:43.475Z</time></trkpt><trkpt lat="43.4291575" lon="10.9050293"><ele>295.6666666666667</ele><time>2026-04-18T08:38:44.48Z</time></trkpt><trkpt lat="43.4292228" lon="10.9051009"><ele>297.3333333333333</ele><time>2026-04-18T08:38:45.479Z</time></trkpt><trkpt lat="43.4292863" lon="10.9051721"><ele>299.0</ele><time>2026-04-18T08:38:46.485Z</time></trkpt><trkpt lat="43.4293477" lon="10.9052543"><ele>300.66666666666663</ele><time>2026-04-18T08:38:47.472Z</time></trkpt><trkpt lat="43.4293993" lon="10.9053593"><ele>302.3333333333333</ele><time>2026-04-18T08:38:48.477Z</time></trkpt><trkpt lat="43.4294137" lon="10.9054814"><ele>304.0</ele><time>2026-04-18T08:38:49.474Z</time></trkpt><trkpt lat="43.4294195" lon="10.9055978"><ele>304.0</ele><time>2026-04-18T08:38:50.484Z</time></trkpt><trkpt lat="43.4294008" lon="10.90571"><ele>304.0</ele><time>2026-04-18T08:38:51.475Z</time></trkpt><trkpt lat="43.4293556" lon="10.9057985"><ele>304.0</ele><time>2026-04-18T08:38:52.482Z</time></trkpt><trkpt lat="43.4292931" lon="10.9058485"><ele>304.0</ele><time>2026-04-18T08:38:53.487Z</time></trkpt><trkpt lat="43.4292126" lon="10.9058685"><ele>304.0</ele><time>2026-04-18T08:38:54.486Z</time></trkpt><trkpt lat="43.4291367" lon="10.9058593"><ele>304.0</ele><time>2026-04-18T08:38:55.492Z</time></trkpt><trkpt lat="43.4290621" lon="10.9058125"><ele>304.0</ele><time>2026-04-18T08:38:56.479Z</time></trkpt><trkpt lat="43.4289785" lon="10.9057609"><ele>304.0</ele><time>2026-04-18T08:38:57.484Z</time></trkpt><trkpt lat="43.4288839" lon="10.9057127"><ele>304.0</ele><time>2026-04-18T08:38:58.478Z</time></trkpt><trkpt lat="43.4287905" lon="10.905664"><ele>304.0</ele><time>2026-04-18T08:38:59.48Z</time></trkpt><trkpt lat="43.4287004" lon="10.9056091"><ele>304.0</ele><time>2026-04-18T08:39:00.48Z</time></trkpt><trkpt lat="43.4286137" lon="10.9055527"><ele>306.59999999999997</ele><time>2026-04-18T08:39:01.482Z</time></trkpt><trkpt lat="43.4285253" lon="10.9054933"><ele>309.2</ele><time>2026-04-18T08:39:02.477Z</time></trkpt><trkpt lat="43.4284307" lon="10.9054356"><ele>311.79999999999995</ele><time>2026-04-18T08:39:03.489Z</time></trkpt><trkpt lat="43.4283403" lon="10.9053714"><ele>314.4</ele><time>2026-04-18T08:39:04.48Z</time></trkpt><trkpt lat="43.4282478" lon="10.9053232"><ele>317.0</ele><time>2026-04-18T08:39:05.486Z</time></trkpt><trkpt lat="43.4281645" lon="10.9052833"><ele>317.0</ele><time>2026-04-18T08:39:06.479Z</time></trkpt><trkpt lat="43.4280814" lon="10.9052342"><ele>317.0</ele><time>2026-04-18T08:39:07.485Z</time></trkpt><trkpt lat="43.4280023" lon="10.9051829"><ele>317.0</ele><time>2026-04-18T08:39:08.483Z</time></trkpt><trkpt lat="43.4279213" lon="10.9051216"><ele>317.0</ele><time>2026-04-18T08:39:09.489Z</time></trkpt><trkpt lat="43.4278416" lon="10.9050626"><ele>317.0</ele><time>2026-04-18T08:39:10.486Z</time></trkpt><trkpt lat="43.4277545" lon="10.905008"><ele>317.2</ele><time>2026-04-18T08:39:11.483Z</time></trkpt><trkpt lat="43.4276602" lon="10.9049516"><ele>317.4</ele><time>2026-04-18T08:39:12.483Z</time></trkpt><trkpt lat="43.4275691" lon="10.9048948"><ele>317.6</ele><time>2026-04-18T08:39:13.483Z</time></trkpt><trkpt lat="43.4274798" lon="10.9048425"><ele>317.8</ele><time>2026-04-18T08:39:14.476Z</time></trkpt><trkpt lat="43.4273939" lon="10.9048072"><ele>318.0</ele><time>2026-04-18T08:39:15.482Z</time></trkpt><trkpt lat="43.4273156" lon="10.9047931"><ele>318.0</ele><time>2026-04-18T08:39:16.49Z</time></trkpt><trkpt lat="43.4272412" lon="10.9048153"><ele>318.0</ele><time>2026-04-18T08:39:22.487Z</time></trkpt><trkpt lat="43.4271961" lon="10.9048983"><ele>318.0</ele><time>2026-04-18T08:39:24.486Z</time></trkpt><trkpt lat="43.4271501" lon="10.9050202"><ele>318.0</ele><time>2026-04-18T08:39:26.491Z</time></trkpt><trkpt lat="43.4271104" lon="10.9051491"><ele>318.0</ele><time>2026-04-18T08:39:28.495Z</time></trkpt><trkpt lat="43.4270334" lon="10.90529"><ele>320.1666666666667</ele><time>2026-04-18T08:39:30.476Z</time></trkpt><trkpt lat="43.4269732" lon="10.9053635"><ele>322.3333333333333</ele><time>2026-04-18T08:39:31.483Z</time></trkpt><trkpt lat="43.4269166" lon="10.9054133"><ele>324.5</ele><time>2026-04-18T08:39:32.476Z</time></trkpt><trkpt lat="43.4268513" lon="10.9054393"><ele>326.66666666666663</ele><time>2026-04-18T08:39:33.487Z</time></trkpt><trkpt lat="43.4267795" lon="10.9054763"><ele>328.8333333333333</ele><time>2026-04-18T08:39:34.482Z</time></trkpt><trkpt lat="43.4267183" lon="10.9055145"><ele>331.0</ele><time>2026-04-18T08:39:35.479Z</time></trkpt><trkpt lat="43.4266742" lon="10.9056421"><ele>331.0</ele><time>2026-04-18T08:39:37.48Z</time></trkpt><trkpt lat="43.4267193" lon="10.9057443"><ele>331.0</ele><time>2026-04-18T08:39:39.483Z</time></trkpt><trkpt lat="43.4268278" lon="10.905819"><ele>331.0</ele><time>2026-04-18T08:39:41.497Z</time></trkpt><trkpt lat="43.4268914" lon="10.9058596"><ele>331.0</ele><time>2026-04-18T08:39:42.488Z</time></trkpt><trkpt lat="43.4269616" lon="10.905911"><ele>331.0</ele><time>2026-04-18T08:39:43.489Z</time></trkpt><trkpt lat="43.427032" lon="10.9059718"><ele>331.0</ele><time>2026-04-18T08:39:44.477Z</time></trkpt><trkpt lat="43.4271077" lon="10.9060426"><ele>332.8333333333333</ele><time>2026-04-18T08:39:45.486Z</time></trkpt><trkpt lat="43.4271813" lon="10.906108"><ele>334.66666666666663</ele><time>2026-04-18T08:39:46.485Z</time></trkpt><trkpt lat="43.4272633" lon="10.9061789"><ele>336.5</ele><time>2026-04-18T08:39:47.493Z</time></trkpt><trkpt lat="43.427336" lon="10.9062507"><ele>338.3333333333333</ele><time>2026-04-18T08:39:48.492Z</time></trkpt><trkpt lat="43.4274096" lon="10.9063259"><ele>340.1666666666667</ele><time>2026-04-18T08:39:49.492Z</time></trkpt><trkpt lat="43.4274683" lon="10.9064058"><ele>342.0</ele><time>2026-04-18T08:39:50.494Z</time></trkpt><trkpt lat="43.4275273" lon="10.9065054"><ele>342.0</ele><time>2026-04-18T08:39:51.494Z</time></trkpt><trkpt lat="43.4275768" lon="10.9066195"><ele>342.0</ele><time>2026-04-18T08:39:52.486Z</time></trkpt><trkpt lat="43.4276242" lon="10.9067312"><ele>342.0</ele><time>2026-04-18T08:39:53.492Z</time></trkpt><trkpt lat="43.427661" lon="10.9068543"><ele>342.0</ele><time>2026-04-18T08:39:54.486Z</time></trkpt><trkpt lat="43.4277067" lon="10.9069762"><ele>342.0</ele><time>2026-04-18T08:39:55.479Z</time></trkpt><trkpt lat="43.427744" lon="10.9070975"><ele>344.0</ele><time>2026-04-18T08:39:56.48Z</time></trkpt><trkpt lat="43.4277731" lon="10.9072147"><ele>346.0</ele><time>2026-04-18T08:39:57.486Z</time></trkpt><trkpt lat="43.427797" lon="10.9073362"><ele>348.0</ele><time>2026-04-18T08:39:58.487Z</time></trkpt><trkpt lat="43.4278058" lon="10.9074717"><ele>350.0</ele><time>2026-04-18T08:39:59.477Z</time></trkpt><trkpt lat="43.4278064" lon="10.9076011"><ele>352.0</ele><time>2026-04-18T08:40:00.501Z</time></trkpt><trkpt lat="43.4277846" lon="10.9077209"><ele>352.8</ele><time>2026-04-18T08:40:01.472Z</time></trkpt><trkpt lat="43.427753" lon="10.9078407"><ele>353.6</ele><time>2026-04-18T08:40:02.492Z</time></trkpt><trkpt lat="43.4277069" lon="10.9079635"><ele>354.40000000000003</ele><time>2026-04-18T08:40:03.509Z</time></trkpt><trkpt lat="43.427657" lon="10.9080775"><ele>355.20000000000005</ele><time>2026-04-18T08:40:04.48Z</time></trkpt><trkpt lat="43.4276154" lon="10.9081867"><ele>356.0</ele><time>2026-04-18T08:40:05.491Z</time></trkpt><trkpt lat="43.4275759" lon="10.9082979"><ele>356.8</ele><time>2026-04-18T08:40:06.485Z</time></trkpt><trkpt lat="43.4275373" lon="10.90842"><ele>357.6</ele><time>2026-04-18T08:40:07.492Z</time></trkpt><trkpt lat="43.4274854" lon="10.9085387"><ele>358.4</ele><time>2026-04-18T08:40:08.494Z</time></trkpt><trkpt lat="43.4274" lon="10.9086222"><ele>359.2</ele><time>2026-04-18T08:40:09.484Z</time></trkpt><trkpt lat="43.4273127" lon="10.9086723"><ele>360.0</ele><time>2026-04-18T08:40:10.486Z</time></trkpt><trkpt lat="43.4272344" lon="10.9087129"><ele>360.0</ele><time>2026-04-18T08:40:11.481Z</time></trkpt><trkpt lat="43.4271814" lon="10.9088232"><ele>360.0</ele><time>2026-04-18T08:40:13.506Z</time></trkpt><trkpt lat="43.4272368" lon="10.9089769"><ele>360.0</ele><time>2026-04-18T08:40:15.492Z</time></trkpt><trkpt lat="43.4272887" lon="10.9090391"><ele>360.0</ele><time>2026-04-18T08:40:16.489Z</time></trkpt><trkpt lat="43.4273578" lon="10.9091069"><ele>360.0</ele><time>2026-04-18T08:40:17.479Z</time></trkpt><trkpt lat="43.4274325" lon="10.9091737"><ele>360.0</ele><time>2026-04-18T08:40:18.477Z</time></trkpt><trkpt lat="43.4275138" lon="10.9092162"><ele>360.0</ele><time>2026-04-18T08:40:19.48Z</time></trkpt><trkpt lat="43.4275939" lon="10.9092746"><ele>360.0</ele><time>2026-04-18T08:40:20.493Z</time></trkpt><trkpt lat="43.4276618" lon="10.9093343"><ele>360.0</ele><time>2026-04-18T08:40:21.494Z</time></trkpt><trkpt lat="43.427719" lon="10.9093997"><ele>360.0</ele><time>2026-04-18T08:40:22.48Z</time></trkpt><trkpt lat="43.4277658" lon="10.9094854"><ele>360.0</ele><time>2026-04-18T08:40:23.488Z</time></trkpt><trkpt lat="43.4277972" lon="10.9095859"><ele>361.5</ele><time>2026-04-18T08:40:24.49Z</time></trkpt><trkpt lat="43.4278079" lon="10.9096938"><ele>363.0</ele><time>2026-04-18T08:40:25.492Z</time></trkpt><trkpt lat="43.4277933" lon="10.9098173"><ele>364.5</ele><time>2026-04-18T08:40:26.485Z</time></trkpt><trkpt lat="43.4277689" lon="10.9099271"><ele>366.0</ele><time>2026-04-18T08:40:27.489Z</time></trkpt><trkpt lat="43.4277365" lon="10.9100274"><ele>367.5</ele><time>2026-04-18T08:40:28.493Z</time></trkpt><trkpt lat="43.4277247" lon="10.9101553"><ele>369.0</ele><time>2026-04-18T08:40:29.477Z</time></trkpt><trkpt lat="43.4277491" lon="10.9102764"><ele>370.4</ele><time>2026-04-18T08:40:30.488Z</time></trkpt><trkpt lat="43.4278039" lon="10.910384"><ele>371.79999999999995</ele><time>2026-04-18T08:40:31.483Z</time></trkpt><trkpt lat="43.427858" lon="10.9104838"><ele>373.20000000000005</ele><time>2026-04-18T08:40:32.472Z</time></trkpt><trkpt lat="43.4279063" lon="10.9105948"><ele>374.6</ele><time>2026-04-18T08:40:33.49Z</time></trkpt><trkpt lat="43.4279326" lon="10.9107138"><ele>376.0</ele><time>2026-04-18T08:40:34.483Z</time></trkpt><trkpt lat="43.427957" lon="10.9108576"><ele>377.6</ele><time>2026-04-18T08:40:35.5Z</time></trkpt><trkpt lat="43.42797" lon="10.9109948"><ele>379.20000000000005</ele><time>2026-04-18T08:40:36.483Z</time></trkpt><trkpt lat="43.4279746" lon="10.9111264"><ele>380.79999999999995</ele><time>2026-04-18T08:40:37.487Z</time></trkpt><trkpt lat="43.4279746" lon="10.911271"><ele>382.4</ele><time>2026-04-18T08:40:38.482Z</time></trkpt><trkpt lat="43.4279626" lon="10.9114172"><ele>384.0</ele><time>2026-04-18T08:40:39.481Z</time></trkpt><trkpt lat="43.4279443" lon="10.9115537"><ele>384.0</ele><time>2026-04-18T08:40:40.485Z</time></trkpt><trkpt lat="43.427932" lon="10.9116896"><ele>384.0</ele><time>2026-04-18T08:40:41.489Z</time></trkpt><trkpt lat="43.4279168" lon="10.9118269"><ele>384.0</ele><time>2026-04-18T08:40:42.482Z</time></trkpt><trkpt lat="43.4278982" lon="10.9119576"><ele>384.0</ele><time>2026-04-18T08:40:43.499Z</time></trkpt><trkpt lat="43.4278752" lon="10.9120914"><ele>384.0</ele><time>2026-04-18T08:40:44.482Z</time></trkpt><trkpt lat="43.4278442" lon="10.9122242"><ele>384.79999999999995</ele><time>2026-04-18T08:40:45.48Z</time></trkpt><trkpt lat="43.4278051" lon="10.9123545"><ele>385.59999999999997</ele><time>2026-04-18T08:40:46.478Z</time></trkpt><trkpt lat="43.4277568" lon="10.9124805"><ele>386.4</ele><time>2026-04-18T08:40:47.47Z</time></trkpt><trkpt lat="43.4276979" lon="10.9126173"><ele>387.2</ele><time>2026-04-18T08:40:48.479Z</time></trkpt><trkpt lat="43.4276349" lon="10.9127493"><ele>388.0</ele><time>2026-04-18T08:40:49.484Z</time></trkpt><trkpt lat="43.427568" lon="10.9128745"><ele>388.0</ele><time>2026-04-18T08:40:50.484Z</time></trkpt><trkpt lat="43.4275048" lon="10.913"><ele>388.0</ele><time>2026-04-18T08:40:51.485Z</time></trkpt><trkpt lat="43.427452" lon="10.9131238"><ele>388.0</ele><time>2026-04-18T08:40:52.474Z</time></trkpt><trkpt lat="43.4274137" lon="10.9132445"><ele>388.0</ele><time>2026-04-18T08:40:53.482Z</time></trkpt><trkpt lat="43.4273805" lon="10.913359"><ele>388.0</ele><time>2026-04-18T08:40:54.49Z</time></trkpt><trkpt lat="43.4273495" lon="10.913464"><ele>387.79999999999995</ele><time>2026-04-18T08:40:55.482Z</time></trkpt><trkpt lat="43.4273452" lon="10.9135785"><ele>387.6</ele><time>2026-04-18T08:40:56.484Z</time></trkpt><trkpt lat="43.427349" lon="10.9137077"><ele>387.4</ele><time>2026-04-18T08:40:57.51Z</time></trkpt><trkpt lat="43.4274015" lon="10.9138223"><ele>387.20000000000005</ele><time>2026-04-18T08:40:58.477Z</time></trkpt><trkpt lat="43.4274668" lon="10.9139465"><ele>387.0</ele><time>2026-04-18T08:40:59.495Z</time></trkpt><trkpt lat="43.4275314" lon="10.9140856"><ele>387.0</ele><time>2026-04-18T08:41:00.494Z</time></trkpt><trkpt lat="43.4276132" lon="10.9142112"><ele>387.0</ele><time>2026-04-18T08:41:01.481Z</time></trkpt><trkpt lat="43.4276832" lon="10.914357"><ele>387.0</ele><time>2026-04-18T08:41:02.492Z</time></trkpt><trkpt lat="43.4277619" lon="10.9144905"><ele>387.0</ele><time>2026-04-18T08:41:03.488Z</time></trkpt><trkpt lat="43.4278447" lon="10.9146287"><ele>386.0</ele><time>2026-04-18T08:41:04.496Z</time></trkpt><trkpt lat="43.4279368" lon="10.9147691"><ele>385.0</ele><time>2026-04-18T08:41:05.494Z</time></trkpt><trkpt lat="43.4280307" lon="10.9149006"><ele>384.0</ele><time>2026-04-18T08:41:06.474Z</time></trkpt><trkpt lat="43.4281244" lon="10.915041"><ele>383.0</ele><time>2026-04-18T08:41:07.485Z</time></trkpt><trkpt lat="43.4282076" lon="10.9151674"><ele>384.79999999999995</ele><time>2026-04-18T08:41:08.478Z</time></trkpt><trkpt lat="43.4282849" lon="10.9152688"><ele>386.6</ele><time>2026-04-18T08:41:09.481Z</time></trkpt><trkpt lat="43.4283791" lon="10.9153426"><ele>388.4</ele><time>2026-04-18T08:41:10.483Z</time></trkpt><trkpt lat="43.4284759" lon="10.9153725"><ele>390.20000000000005</ele><time>2026-04-18T08:41:11.495Z</time></trkpt><trkpt lat="43.4285731" lon="10.9153845"><ele>392.0</ele><time>2026-04-18T08:41:12.478Z</time></trkpt><trkpt lat="43.4286704" lon="10.9154031"><ele>392.0</ele><time>2026-04-18T08:41:13.485Z</time></trkpt><trkpt lat="43.4287716" lon="10.915436"><ele>392.0</ele><time>2026-04-18T08:41:14.488Z</time></trkpt><trkpt lat="43.4288498" lon="10.9155046"><ele>392.0</ele><time>2026-04-18T08:41:15.481Z</time></trkpt><trkpt lat="43.4288991" lon="10.9156037"><ele>392.0</ele><time>2026-04-18T08:41:16.491Z</time></trkpt><trkpt lat="43.428943" lon="10.9157042"><ele>392.0</ele><time>2026-04-18T08:41:17.485Z</time></trkpt><trkpt lat="43.4289701" lon="10.9158148"><ele>395.66666666666663</ele><time>2026-04-18T08:41:18.486Z</time></trkpt><trkpt lat="43.4289735" lon="10.9159278"><ele>399.3333333333333</ele><time>2026-04-18T08:41:19.48Z</time></trkpt><trkpt lat="43.4289704" lon="10.9160425"><ele>403.0</ele><time>2026-04-18T08:41:20.484Z</time></trkpt><trkpt lat="43.4289732" lon="10.916151"><ele>406.66666666666663</ele><time>2026-04-18T08:41:21.474Z</time></trkpt><trkpt lat="43.428979" lon="10.9162689"><ele>410.3333333333333</ele><time>2026-04-18T08:41:22.483Z</time></trkpt><trkpt lat="43.4289902" lon="10.9163922"><ele>414.0</ele><time>2026-04-18T08:41:23.482Z</time></trkpt><trkpt lat="43.4290127" lon="10.9165157"><ele>414.0</ele><time>2026-04-18T08:41:24.483Z</time></trkpt><trkpt lat="43.4290341" lon="10.9166426"><ele>414.0</ele><time>2026-04-18T08:41:25.494Z</time></trkpt><trkpt lat="43.4290603" lon="10.9167729"><ele>414.0</ele><time>2026-04-18T08:41:26.483Z</time></trkpt><trkpt lat="43.429084" lon="10.9169065"><ele>414.0</ele><time>2026-04-18T08:41:27.481Z</time></trkpt><trkpt lat="43.4291108" lon="10.9170433"><ele>414.0</ele><time>2026-04-18T08:41:28.491Z</time></trkpt><trkpt lat="43.4291431" lon="10.917173"><ele>414.4</ele><time>2026-04-18T08:41:29.479Z</time></trkpt><trkpt lat="43.4291741" lon="10.917307"><ele>414.79999999999995</ele><time>2026-04-18T08:41:30.485Z</time></trkpt><trkpt lat="43.4292087" lon="10.9174344"><ele>415.20000000000005</ele><time>2026-04-18T08:41:31.478Z</time></trkpt><trkpt lat="43.429239" lon="10.9175572"><ele>415.6</ele><time>2026-04-18T08:41:32.487Z</time></trkpt><trkpt lat="43.4292678" lon="10.9176823"><ele>416.0</ele><time>2026-04-18T08:41:33.478Z</time></trkpt><trkpt lat="43.4292976" lon="10.9178201"><ele>416.0</ele><time>2026-04-18T08:41:34.486Z</time></trkpt><trkpt lat="43.4293124" lon="10.917961"><ele>416.0</ele><time>2026-04-18T08:41:35.478Z</time></trkpt><trkpt lat="43.4293191" lon="10.9181032"><ele>416.0</ele><time>2026-04-18T08:41:36.487Z</time></trkpt><trkpt lat="43.4293267" lon="10.9182545"><ele>416.0</ele><time>2026-04-18T08:41:37.486Z</time></trkpt><trkpt lat="43.4293324" lon="10.9184117"><ele>416.0</ele><time>2026-04-18T08:41:38.48Z</time></trkpt><trkpt lat="43.4293351" lon="10.9185694"><ele>417.25</ele><time>2026-04-18T08:41:39.485Z</time></trkpt><trkpt lat="43.4293209" lon="10.918738"><ele>418.5</ele><time>2026-04-18T08:41:40.482Z</time></trkpt><trkpt lat="43.4292889" lon="10.9189049"><ele>419.75</ele><time>2026-04-18T08:41:41.487Z</time></trkpt><trkpt lat="43.42925" lon="10.9190684"><ele>421.0</ele><time>2026-04-18T08:41:42.482Z</time></trkpt><trkpt lat="43.4292078" lon="10.9192324"><ele>422.25</ele><time>2026-04-18T08:41:43.484Z</time></trkpt><trkpt lat="43.4291569" lon="10.9193764"><ele>423.5</ele><time>2026-04-18T08:41:44.479Z</time></trkpt><trkpt lat="43.4290998" lon="10.9195075"><ele>424.75</ele><time>2026-04-18T08:41:45.511Z</time></trkpt><trkpt lat="43.4290439" lon="10.9196466"><ele>426.0</ele><time>2026-04-18T08:41:46.484Z</time></trkpt><trkpt lat="43.4289948" lon="10.9197875"><ele>426.0</ele><time>2026-04-18T08:41:47.481Z</time></trkpt><trkpt lat="43.428954" lon="10.919925"><ele>426.0</ele><time>2026-04-18T08:41:48.487Z</time></trkpt><trkpt lat="43.4289292" lon="10.9200491"><ele>426.0</ele><time>2026-04-18T08:41:49.484Z</time></trkpt><trkpt lat="43.4289181" lon="10.9201724"><ele>426.0</ele><time>2026-04-18T08:41:50.498Z</time></trkpt><trkpt lat="43.4289133" lon="10.9202947"><ele>426.0</ele><time>2026-04-18T08:41:51.481Z</time></trkpt><trkpt lat="43.4289306" lon="10.9204195"><ele>426.0</ele><time>2026-04-18T08:41:52.495Z</time></trkpt><trkpt lat="43.4289605" lon="10.9205427"><ele>426.0</ele><time>2026-04-18T08:41:53.486Z</time></trkpt><trkpt lat="43.4289941" lon="10.920672"><ele>426.0</ele><time>2026-04-18T08:41:54.489Z</time></trkpt><trkpt lat="43.4290193" lon="10.920797"><ele>426.0</ele><time>2026-04-18T08:41:55.487Z</time></trkpt><trkpt lat="43.4290316" lon="10.9209122"><ele>426.0</ele><time>2026-04-18T08:41:56.481Z</time></trkpt><trkpt lat="43.4290351" lon="10.9210337"><ele>425.3333333333333</ele><time>2026-04-18T08:41:57.484Z</time></trkpt><trkpt lat="43.4290248" lon="10.9211463"><ele>424.66666666666663</ele><time>2026-04-18T08:41:58.488Z</time></trkpt><trkpt lat="43.4290031" lon="10.9212602"><ele>424.0</ele><time>2026-04-18T08:41:59.478Z</time></trkpt><trkpt lat="43.4289657" lon="10.9213768"><ele>423.3333333333333</ele><time>2026-04-18T08:42:00.491Z</time></trkpt><trkpt lat="43.4289127" lon="10.9214763"><ele>422.66666666666663</ele><time>2026-04-18T08:42:01.493Z</time></trkpt><trkpt lat="43.4288375" lon="10.9215617"><ele>422.0</ele><time>2026-04-18T08:42:02.48Z</time></trkpt><trkpt lat="43.4287486" lon="10.9216384"><ele>422.0</ele><time>2026-04-18T08:42:03.483Z</time></trkpt><trkpt lat="43.4286562" lon="10.921714"><ele>422.0</ele><time>2026-04-18T08:42:04.489Z</time></trkpt><trkpt lat="43.4285607" lon="10.9218029"><ele>422.0</ele><time>2026-04-18T08:42:05.488Z</time></trkpt><trkpt lat="43.4284688" lon="10.92191"><ele>422.0</ele><time>2026-04-18T08:42:06.491Z</time></trkpt><trkpt lat="43.4283821" lon="10.9220304"><ele>422.0</ele><time>2026-04-18T08:42:07.486Z</time></trkpt><trkpt lat="43.4283178" lon="10.9221617"><ele>422.0</ele><time>2026-04-18T08:42:08.486Z</time></trkpt><trkpt lat="43.4282578" lon="10.9222927"><ele>422.0</ele><time>2026-04-18T08:42:09.479Z</time></trkpt><trkpt lat="43.4282108" lon="10.9224361"><ele>422.0</ele><time>2026-04-18T08:42:10.48Z</time></trkpt><trkpt lat="43.4281705" lon="10.9225824"><ele>422.20000000000005</ele><time>2026-04-18T08:42:11.489Z</time></trkpt><trkpt lat="43.4281306" lon="10.9227252"><ele>422.4</ele><time>2026-04-18T08:42:12.481Z</time></trkpt><trkpt lat="43.428103" lon="10.922858"><ele>422.6</ele><time>2026-04-18T08:42:13.485Z</time></trkpt><trkpt lat="43.4280762" lon="10.9229794"><ele>422.79999999999995</ele><time>2026-04-18T08:42:14.488Z</time></trkpt><trkpt lat="43.4280476" lon="10.9230991"><ele>423.0</ele><time>2026-04-18T08:42:15.48Z</time></trkpt><trkpt lat="43.4280109" lon="10.9232214"><ele>428.59999999999997</ele><time>2026-04-18T08:42:16.487Z</time></trkpt><trkpt lat="43.4279756" lon="10.9233402"><ele>434.2</ele><time>2026-04-18T08:42:17.481Z</time></trkpt><trkpt lat="43.4279402" lon="10.9234663"><ele>439.8</ele><time>2026-04-18T08:42:18.48Z</time></trkpt><trkpt lat="43.4279118" lon="10.923584"><ele>445.4</ele><time>2026-04-18T08:42:19.491Z</time></trkpt><trkpt lat="43.4278832" lon="10.9237051"><ele>451.0</ele><time>2026-04-18T08:42:20.482Z</time></trkpt><trkpt lat="43.4278736" lon="10.9238281"><ele>451.6666666666667</ele><time>2026-04-18T08:42:21.49Z</time></trkpt><trkpt lat="43.427873" lon="10.9239517"><ele>452.33333333333337</ele><time>2026-04-18T08:42:22.479Z</time></trkpt><trkpt lat="43.4278713" lon="10.9240787"><ele>453.0</ele><time>2026-04-18T08:42:23.481Z</time></trkpt><trkpt lat="43.4278712" lon="10.9241967"><ele>453.66666666666663</ele><time>2026-04-18T08:42:24.499Z</time></trkpt><trkpt lat="43.4278674" lon="10.9243215"><ele>454.3333333333333</ele><time>2026-04-18T08:42:25.477Z</time></trkpt><trkpt lat="43.4278659" lon="10.9244382"><ele>455.0</ele><time>2026-04-18T08:42:26.481Z</time></trkpt><trkpt lat="43.4278682" lon="10.9245555"><ele>455.6</ele><time>2026-04-18T08:42:27.491Z</time></trkpt><trkpt lat="43.4278666" lon="10.9246804"><ele>456.2</ele><time>2026-04-18T08:42:28.482Z</time></trkpt><trkpt lat="43.427865" lon="10.9247993"><ele>456.79999999999995</ele><time>2026-04-18T08:42:29.491Z</time></trkpt><trkpt lat="43.4278704" lon="10.9249232"><ele>457.4</ele><time>2026-04-18T08:42:30.482Z</time></trkpt><trkpt lat="43.4278738" lon="10.9250522"><ele>458.0</ele><time>2026-04-18T08:42:31.483Z</time></trkpt><trkpt lat="43.4278734" lon="10.9251816"><ele>457.99999999999994</ele><time>2026-04-18T08:42:32.485Z</time></trkpt><trkpt lat="43.4278762" lon="10.9253043"><ele>458.0</ele><time>2026-04-18T08:42:33.482Z</time></trkpt><trkpt lat="43.4278879" lon="10.9254277"><ele>458.0</ele><time>2026-04-18T08:42:34.477Z</time></trkpt><trkpt lat="43.4278985" lon="10.9255535"><ele>458.0</ele><time>2026-04-18T08:42:35.498Z</time></trkpt><trkpt lat="43.4279031" lon="10.9256732"><ele>457.99999999999994</ele><time>2026-04-18T08:42:36.481Z</time></trkpt><trkpt lat="43.4278922" lon="10.9257962"><ele>458.0</ele><time>2026-04-18T08:42:37.482Z</time></trkpt><trkpt lat="43.4278762" lon="10.9259058"><ele>457.49999999999994</ele><time>2026-04-18T08:42:38.477Z</time></trkpt><trkpt lat="43.4278382" lon="10.9260089"><ele>457.0</ele><time>2026-04-18T08:42:39.483Z</time></trkpt><trkpt lat="43.4278054" lon="10.9261032"><ele>456.5</ele><time>2026-04-18T08:42:40.479Z</time></trkpt><trkpt lat="43.4277559" lon="10.9261986"><ele>456.0</ele><time>2026-04-18T08:42:42.479Z</time></trkpt><trkpt lat="43.4276914" lon="10.9262621"><ele>455.49999999999994</ele><time>2026-04-18T08:42:44.491Z</time></trkpt><trkpt lat="43.4276024" lon="10.9263095"><ele>455.0</ele><time>2026-04-18T08:42:46.493Z</time></trkpt><trkpt lat="43.4275403" lon="10.9263293"><ele>454.99999999999994</ele><time>2026-04-18T08:42:47.501Z</time></trkpt><trkpt lat="43.427476" lon="10.9263329"><ele>455.0</ele><time>2026-04-18T08:42:48.499Z</time></trkpt><trkpt lat="43.4274045" lon="10.9263465"><ele>455.0</ele><time>2026-04-18T08:42:49.483Z</time></trkpt><trkpt lat="43.4273339" lon="10.9263797"><ele>455.0</ele><time>2026-04-18T08:42:50.495Z</time></trkpt><trkpt lat="43.4272525" lon="10.9264103"><ele>454.99999999999994</ele><time>2026-04-18T08:42:51.496Z</time></trkpt><trkpt lat="43.4271747" lon="10.9264471"><ele>455.0</ele><time>2026-04-18T08:42:52.492Z</time></trkpt><trkpt lat="43.4270978" lon="10.9265105"><ele>456.8333333333333</ele><time>2026-04-18T08:42:53.503Z</time></trkpt><trkpt lat="43.4270426" lon="10.9266073"><ele>458.66666666666663</ele><time>2026-04-18T08:42:54.498Z</time></trkpt><trkpt lat="43.4270023" lon="10.9267172"><ele>460.5</ele><time>2026-04-18T08:42:55.474Z</time></trkpt><trkpt lat="43.426995" lon="10.9268209"><ele>462.33333333333337</ele><time>2026-04-18T08:42:56.483Z</time></trkpt><trkpt lat="43.4270233" lon="10.9269289"><ele>464.1666666666667</ele><time>2026-04-18T08:42:57.513Z</time></trkpt><trkpt lat="43.4270733" lon="10.9270253"><ele>466.0</ele><time>2026-04-18T08:42:58.482Z</time></trkpt><trkpt lat="43.4271517" lon="10.9270926"><ele>466.0</ele><time>2026-04-18T08:42:59.484Z</time></trkpt><trkpt lat="43.4272304" lon="10.9271533"><ele>466.0</ele><time>2026-04-18T08:43:00.494Z</time></trkpt><trkpt lat="43.4273093" lon="10.9272068"><ele>466.0</ele><time>2026-04-18T08:43:01.513Z</time></trkpt><trkpt lat="43.4273905" lon="10.9272676"><ele>466.0</ele><time>2026-04-18T08:43:02.499Z</time></trkpt><trkpt lat="43.4274779" lon="10.9273124"><ele>466.0</ele><time>2026-04-18T08:43:03.478Z</time></trkpt><trkpt lat="43.4275532" lon="10.9273701"><ele>466.00000000000006</ele><time>2026-04-18T08:43:04.49Z</time></trkpt><trkpt lat="43.4276244" lon="10.927435"><ele>466.0</ele><time>2026-04-18T08:43:05.484Z</time></trkpt><trkpt lat="43.4276803" lon="10.9275199"><ele>466.0</ele><time>2026-04-18T08:43:06.486Z</time></trkpt><trkpt lat="43.4277206" lon="10.927602"><ele>466.0</ele><time>2026-04-18T08:43:07.473Z</time></trkpt><trkpt lat="43.4277553" lon="10.9277125"><ele>466.00000000000006</ele><time>2026-04-18T08:43:08.482Z</time></trkpt><trkpt lat="43.4277934" lon="10.9278137"><ele>466.0</ele><time>2026-04-18T08:43:09.488Z</time></trkpt><trkpt lat="43.4278318" lon="10.927932"><ele>465.1666666666667</ele><time>2026-04-18T08:43:10.479Z</time></trkpt><trkpt lat="43.4278801" lon="10.9280316"><ele>464.33333333333337</ele><time>2026-04-18T08:43:11.483Z</time></trkpt><trkpt lat="43.4279241" lon="10.9281239"><ele>463.5</ele><time>2026-04-18T08:43:12.49Z</time></trkpt><trkpt lat="43.427956" lon="10.9282311"><ele>462.66666666666663</ele><time>2026-04-18T08:43:13.497Z</time></trkpt><trkpt lat="43.4279767" lon="10.9283397"><ele>461.8333333333333</ele><time>2026-04-18T08:43:14.485Z</time></trkpt><trkpt lat="43.4279875" lon="10.9284631"><ele>461.0</ele><time>2026-04-18T08:43:15.481Z</time></trkpt><trkpt lat="43.427978" lon="10.9285936"><ele>463.20000000000005</ele><time>2026-04-18T08:43:16.483Z</time></trkpt><trkpt lat="43.4279702" lon="10.9287265"><ele>465.40000000000003</ele><time>2026-04-18T08:43:17.488Z</time></trkpt><trkpt lat="43.4279757" lon="10.9288512"><ele>467.6</ele><time>2026-04-18T08:43:18.48Z</time></trkpt><trkpt lat="43.4279907" lon="10.9289725"><ele>469.8</ele><time>2026-04-18T08:43:19.487Z</time></trkpt><trkpt lat="43.4280171" lon="10.9290927"><ele>472.0</ele><time>2026-04-18T08:43:20.478Z</time></trkpt><trkpt lat="43.4280543" lon="10.9292132"><ele>474.1666666666667</ele><time>2026-04-18T08:43:21.474Z</time></trkpt><trkpt lat="43.428092" lon="10.9293186"><ele>476.33333333333337</ele><time>2026-04-18T08:43:22.478Z</time></trkpt><trkpt lat="43.4281236" lon="10.9294316"><ele>478.5</ele><time>2026-04-18T08:43:23.476Z</time></trkpt><trkpt lat="43.4281521" lon="10.9295535"><ele>480.66666666666663</ele><time>2026-04-18T08:43:24.489Z</time></trkpt><trkpt lat="43.4281817" lon="10.9296736"><ele>482.8333333333333</ele><time>2026-04-18T08:43:25.502Z</time></trkpt><trkpt lat="43.4281978" lon="10.9297934"><ele>485.0</ele><time>2026-04-18T08:43:26.491Z</time></trkpt><trkpt lat="43.4282075" lon="10.9299171"><ele>484.99999999999994</ele><time>2026-04-18T08:43:27.496Z</time></trkpt><trkpt lat="43.4281965" lon="10.9300274"><ele>485.0</ele><time>2026-04-18T08:43:28.481Z</time></trkpt><trkpt lat="43.4281752" lon="10.9301431"><ele>485.0</ele><time>2026-04-18T08:43:29.485Z</time></trkpt><trkpt lat="43.4281482" lon="10.9302627"><ele>485.0</ele><time>2026-04-18T08:43:30.476Z</time></trkpt><trkpt lat="43.4281162" lon="10.9303864"><ele>484.99999999999994</ele><time>2026-04-18T08:43:31.474Z</time></trkpt><trkpt lat="43.4280946" lon="10.9305026"><ele>485.0</ele><time>2026-04-18T08:43:32.481Z</time></trkpt><trkpt lat="43.4280758" lon="10.9306203"><ele>486.8</ele><time>2026-04-18T08:43:33.494Z</time></trkpt><trkpt lat="43.4280624" lon="10.9307459"><ele>488.6</ele><time>2026-04-18T08:43:34.496Z</time></trkpt><trkpt lat="43.4280502" lon="10.930886"><ele>490.4</ele><time>2026-04-18T08:43:35.486Z</time></trkpt><trkpt lat="43.4280411" lon="10.9310265"><ele>492.2</ele><time>2026-04-18T08:43:36.474Z</time></trkpt><trkpt lat="43.4280377" lon="10.9311567"><ele>494.0</ele><time>2026-04-18T08:43:37.488Z</time></trkpt><trkpt lat="43.4280378" lon="10.931288"><ele>495.8333333333333</ele><time>2026-04-18T08:43:38.494Z</time></trkpt><trkpt lat="43.4280513" lon="10.9314158"><ele>497.66666666666663</ele><time>2026-04-18T08:43:39.48Z</time></trkpt><trkpt lat="43.4280703" lon="10.9315441"><ele>499.5</ele><time>2026-04-18T08:43:40.476Z</time></trkpt><trkpt lat="43.4280976" lon="10.9316537"><ele>501.33333333333337</ele><time>2026-04-18T08:43:41.479Z</time></trkpt><trkpt lat="43.4281189" lon="10.9317761"><ele>503.1666666666667</ele><time>2026-04-18T08:43:42.479Z</time></trkpt><trkpt lat="43.4281168" lon="10.9318786"><ele>505.0</ele><time>2026-04-18T08:43:43.477Z</time></trkpt><trkpt lat="43.4281197" lon="10.9319821"><ele>506.1666666666667</ele><time>2026-04-18T08:43:44.479Z</time></trkpt><trkpt lat="43.4280909" lon="10.9320844"><ele>507.33333333333337</ele><time>2026-04-18T08:43:45.485Z</time></trkpt><trkpt lat="43.4280468" lon="10.9321529"><ele>508.5</ele><time>2026-04-18T08:43:46.485Z</time></trkpt><trkpt lat="43.427984" lon="10.9322261"><ele>509.66666666666663</ele><time>2026-04-18T08:43:47.479Z</time></trkpt><trkpt lat="43.4279167" lon="10.9322727"><ele>510.8333333333333</ele><time>2026-04-18T08:43:48.475Z</time></trkpt><trkpt lat="43.4278576" lon="10.9323285"><ele>512.0</ele><time>2026-04-18T08:43:49.492Z</time></trkpt><trkpt lat="43.4277792" lon="10.9324508"><ele>512.3333333333333</ele><time>2026-04-18T08:43:51.498Z</time></trkpt><trkpt lat="43.4277788" lon="10.9325911"><ele>512.6666666666666</ele><time>2026-04-18T08:43:53.501Z</time></trkpt><trkpt lat="43.427808" lon="10.9326816"><ele>513.0</ele><time>2026-04-18T08:43:54.487Z</time></trkpt><trkpt lat="43.4278458" lon="10.9327964"><ele>513.3333333333334</ele><time>2026-04-18T08:43:55.484Z</time></trkpt><trkpt lat="43.4278824" lon="10.932903"><ele>513.6666666666667</ele><time>2026-04-18T08:43:56.488Z</time></trkpt><trkpt lat="43.4279049" lon="10.9330162"><ele>514.0</ele><time>2026-04-18T08:43:57.484Z</time></trkpt><trkpt lat="43.4279373" lon="10.9331204"><ele>514.0</ele><time>2026-04-18T08:43:58.484Z</time></trkpt><trkpt lat="43.427964" lon="10.9332126"><ele>514.0</ele><time>2026-04-18T08:43:59.483Z</time></trkpt><trkpt lat="43.4279954" lon="10.9333576"><ele>514.0</ele><time>2026-04-18T08:44:01.483Z</time></trkpt><trkpt lat="43.4280353" lon="10.9335051"><ele>514.0</ele><time>2026-04-18T08:44:03.484Z</time></trkpt><trkpt lat="43.4280663" lon="10.9335903"><ele>514.0</ele><time>2026-04-18T08:44:04.489Z</time></trkpt><trkpt lat="43.4281061" lon="10.9336822"><ele>514.0</ele><time>2026-04-18T08:44:05.478Z</time></trkpt><trkpt lat="43.4281637" lon="10.933771"><ele>511.0</ele><time>2026-04-18T08:44:06.482Z</time></trkpt><trkpt lat="43.4282224" lon="10.9338521"><ele>508.0</ele><time>2026-04-18T08:44:07.487Z</time></trkpt><trkpt lat="43.4282869" lon="10.9339277"><ele>505.0</ele><time>2026-04-18T08:44:08.482Z</time></trkpt><trkpt lat="43.4283601" lon="10.934005"><ele>502.0</ele><time>2026-04-18T08:44:09.484Z</time></trkpt><trkpt lat="43.4284403" lon="10.93408"><ele>499.0</ele><time>2026-04-18T08:44:10.483Z</time></trkpt><trkpt lat="43.4285251" lon="10.9341411"><ele>499.0</ele><time>2026-04-18T08:44:11.486Z</time></trkpt><trkpt lat="43.4286079" lon="10.9342103"><ele>499.0</ele><time>2026-04-18T08:44:12.479Z</time></trkpt><trkpt lat="43.4286915" lon="10.9342821"><ele>499.0</ele><time>2026-04-18T08:44:13.479Z</time></trkpt><trkpt lat="43.4287685" lon="10.9343663"><ele>499.0</ele><time>2026-04-18T08:44:14.491Z</time></trkpt><trkpt lat="43.428846" lon="10.9344645"><ele>499.0</ele><time>2026-04-18T08:44:15.478Z</time></trkpt><trkpt lat="43.4289329" lon="10.9345394"><ele>497.0</ele><time>2026-04-18T08:44:16.481Z</time></trkpt><trkpt lat="43.4290274" lon="10.9346052"><ele>495.0</ele><time>2026-04-18T08:44:17.477Z</time></trkpt><trkpt lat="43.4291264" lon="10.9346643"><ele>493.0</ele><time>2026-04-18T08:44:18.484Z</time></trkpt><trkpt lat="43.4292285" lon="10.9347258"><ele>491.0</ele><time>2026-04-18T08:44:19.492Z</time></trkpt><trkpt lat="43.4293169" lon="10.9347874"><ele>489.0</ele><time>2026-04-18T08:44:20.504Z</time></trkpt><trkpt lat="43.4294056" lon="10.9348431"><ele>489.0</ele><time>2026-04-18T08:44:21.478Z</time></trkpt><trkpt lat="43.4294817" lon="10.9348976"><ele>489.0</ele><time>2026-04-18T08:44:22.486Z</time></trkpt><trkpt lat="43.4295592" lon="10.934949"><ele>489.0</ele><time>2026-04-18T08:44:23.488Z</time></trkpt><trkpt lat="43.4296329" lon="10.9350044"><ele>489.0</ele><time>2026-04-18T08:44:24.511Z</time></trkpt><trkpt lat="43.429703" lon="10.9350585"><ele>489.0</ele><time>2026-04-18T08:44:25.496Z</time></trkpt><trkpt lat="43.4297746" lon="10.9351173"><ele>489.0</ele><time>2026-04-18T08:44:26.499Z</time></trkpt><trkpt lat="43.4298427" lon="10.9351804"><ele>489.1666666666667</ele><time>2026-04-18T08:44:27.491Z</time></trkpt><trkpt lat="43.4299073" lon="10.9352362"><ele>489.33333333333337</ele><time>2026-04-18T08:44:28.507Z</time></trkpt><trkpt lat="43.4299721" lon="10.9352963"><ele>489.5</ele><time>2026-04-18T08:44:29.496Z</time></trkpt><trkpt lat="43.4300385" lon="10.9353552"><ele>489.6666666666667</ele><time>2026-04-18T08:44:30.482Z</time></trkpt><trkpt lat="43.4301016" lon="10.9354164"><ele>489.83333333333337</ele><time>2026-04-18T08:44:31.488Z</time></trkpt><trkpt lat="43.4301655" lon="10.9354713"><ele>490.0</ele><time>2026-04-18T08:44:32.479Z</time></trkpt><trkpt lat="43.4302311" lon="10.9355423"><ele>490.00000000000006</ele><time>2026-04-18T08:44:33.495Z</time></trkpt><trkpt lat="43.4302839" lon="10.9356283"><ele>490.0</ele><time>2026-04-18T08:44:34.488Z</time></trkpt><trkpt lat="43.4303482" lon="10.9357134"><ele>490.0</ele><time>2026-04-18T08:44:35.486Z</time></trkpt><trkpt lat="43.4304067" lon="10.9358108"><ele>490.0</ele><time>2026-04-18T08:44:36.498Z</time></trkpt><trkpt lat="43.4304654" lon="10.935903"><ele>490.00000000000006</ele><time>2026-04-18T08:44:37.499Z</time></trkpt><trkpt lat="43.4305172" lon="10.9359974"><ele>490.0</ele><time>2026-04-18T08:44:38.503Z</time></trkpt><trkpt lat="43.4305781" lon="10.9361048"><ele>491.8</ele><time>2026-04-18T08:44:39.49Z</time></trkpt><trkpt lat="43.4306424" lon="10.9362193"><ele>493.6</ele><time>2026-04-18T08:44:40.487Z</time></trkpt><trkpt lat="43.4307013" lon="10.9363399"><ele>495.4</ele><time>2026-04-18T08:44:41.476Z</time></trkpt><trkpt lat="43.4307625" lon="10.9364591"><ele>497.2</ele><time>2026-04-18T08:44:42.503Z</time></trkpt><trkpt lat="43.4308219" lon="10.9365839"><ele>499.0</ele><time>2026-04-18T08:44:43.501Z</time></trkpt><trkpt lat="43.430872" lon="10.9367095"><ele>497.79999999999995</ele><time>2026-04-18T08:44:44.485Z</time></trkpt><trkpt lat="43.4309172" lon="10.9368526"><ele>496.59999999999997</ele><time>2026-04-18T08:44:45.491Z</time></trkpt><trkpt lat="43.4309462" lon="10.9369856"><ele>495.4</ele><time>2026-04-18T08:44:46.482Z</time></trkpt><trkpt lat="43.4309774" lon="10.9371124"><ele>494.2</ele><time>2026-04-18T08:44:47.48Z</time></trkpt><trkpt lat="43.4310184" lon="10.9372345"><ele>493.0</ele><time>2026-04-18T08:44:48.483Z</time></trkpt><trkpt lat="43.4310621" lon="10.9373636"><ele>493.0</ele><time>2026-04-18T08:44:49.485Z</time></trkpt><trkpt lat="43.4311089" lon="10.9374826"><ele>492.99999999999994</ele><time>2026-04-18T08:44:50.507Z</time></trkpt><trkpt lat="43.4311845" lon="10.9375729"><ele>492.99999999999994</ele><time>2026-04-18T08:44:51.483Z</time></trkpt><trkpt lat="43.4312825" lon="10.9376423"><ele>493.0</ele><time>2026-04-18T08:44:52.473Z</time></trkpt><trkpt lat="43.4313842" lon="10.9377072"><ele>493.0</ele><time>2026-04-18T08:44:53.481Z</time></trkpt><trkpt lat="43.4314764" lon="10.9377853"><ele>494.75</ele><time>2026-04-18T08:44:54.488Z</time></trkpt><trkpt lat="43.4315682" lon="10.9378735"><ele>496.5</ele><time>2026-04-18T08:44:55.492Z</time></trkpt><trkpt lat="43.4316499" lon="10.937994"><ele>498.25</ele><time>2026-04-18T08:44:56.501Z</time></trkpt><trkpt lat="43.431724" lon="10.9381323"><ele>500.0</ele><time>2026-04-18T08:44:57.479Z</time></trkpt><trkpt lat="43.4317938" lon="10.9382722"><ele>500.0</ele><time>2026-04-18T08:44:58.495Z</time></trkpt><trkpt lat="43.4318523" lon="10.9384043"><ele>500.0</ele><time>2026-04-18T08:44:59.487Z</time></trkpt><trkpt lat="43.431907" lon="10.938527"><ele>500.0</ele><time>2026-04-18T08:45:00.479Z</time></trkpt><trkpt lat="43.4319514" lon="10.9386535"><ele>500.0</ele><time>2026-04-18T08:45:01.481Z</time></trkpt><trkpt lat="43.4319765" lon="10.9387907"><ele>500.0</ele><time>2026-04-18T08:45:02.498Z</time></trkpt><trkpt lat="43.4319908" lon="10.9389296"><ele>500.0</ele><time>2026-04-18T08:45:03.481Z</time></trkpt><trkpt lat="43.4319976" lon="10.9390697"><ele>500.0</ele><time>2026-04-18T08:45:04.497Z</time></trkpt><trkpt lat="43.4319911" lon="10.9392101"><ele>500.0</ele><time>2026-04-18T08:45:05.479Z</time></trkpt><trkpt lat="43.4319848" lon="10.9393429"><ele>500.0</ele><time>2026-04-18T08:45:06.48Z</time></trkpt><trkpt lat="43.4319838" lon="10.9394641"><ele>500.0</ele><time>2026-04-18T08:45:07.491Z</time></trkpt><trkpt lat="43.4319925" lon="10.9395952"><ele>500.66666666666663</ele><time>2026-04-18T08:45:08.486Z</time></trkpt><trkpt lat="43.4320182" lon="10.9397014"><ele>501.3333333333333</ele><time>2026-04-18T08:45:09.478Z</time></trkpt><trkpt lat="43.432054" lon="10.9398044"><ele>502.0</ele><time>2026-04-18T08:45:10.498Z</time></trkpt><trkpt lat="43.4320794" lon="10.9398986"><ele>502.66666666666663</ele><time>2026-04-18T08:45:11.489Z</time></trkpt><trkpt lat="43.432097" lon="10.9399855"><ele>503.3333333333333</ele><time>2026-04-18T08:45:12.479Z</time></trkpt><trkpt lat="43.4320937" lon="10.9401591"><ele>504.0</ele><time>2026-04-18T08:45:14.474Z</time></trkpt><trkpt lat="43.432088" lon="10.9402456"><ele>505.2</ele><time>2026-04-18T08:45:15.489Z</time></trkpt><trkpt lat="43.4320668" lon="10.9403577"><ele>506.4</ele><time>2026-04-18T08:45:16.491Z</time></trkpt><trkpt lat="43.432028" lon="10.940467"><ele>507.6</ele><time>2026-04-18T08:45:17.48Z</time></trkpt><trkpt lat="43.4319846" lon="10.9405851"><ele>508.8</ele><time>2026-04-18T08:45:18.485Z</time></trkpt><trkpt lat="43.4319467" lon="10.9407173"><ele>510.0</ele><time>2026-04-18T08:45:19.483Z</time></trkpt><trkpt lat="43.4319275" lon="10.9408469"><ele>511.0</ele><time>2026-04-18T08:45:20.482Z</time></trkpt><trkpt lat="43.4319034" lon="10.9409819"><ele>512.0</ele><time>2026-04-18T08:45:21.481Z</time></trkpt><trkpt lat="43.4318886" lon="10.9411212"><ele>513.0</ele><time>2026-04-18T08:45:22.48Z</time></trkpt><trkpt lat="43.4318845" lon="10.9412525"><ele>514.0</ele><time>2026-04-18T08:45:23.503Z</time></trkpt><trkpt lat="43.4318752" lon="10.9413875"><ele>515.0</ele><time>2026-04-18T08:45:24.488Z</time></trkpt><trkpt lat="43.4318694" lon="10.9415152"><ele>515.0</ele><time>2026-04-18T08:45:25.489Z</time></trkpt><trkpt lat="43.4318692" lon="10.9416501"><ele>515.0</ele><time>2026-04-18T08:45:26.486Z</time></trkpt><trkpt lat="43.4318781" lon="10.9417796"><ele>515.0</ele><time>2026-04-18T08:45:27.485Z</time></trkpt><trkpt lat="43.4318784" lon="10.9419104"><ele>515.0</ele><time>2026-04-18T08:45:28.485Z</time></trkpt><trkpt lat="43.4318802" lon="10.9420331"><ele>515.0</ele><time>2026-04-18T08:45:29.482Z</time></trkpt><trkpt lat="43.4318779" lon="10.9421505"><ele>515.2</ele><time>2026-04-18T08:45:30.497Z</time></trkpt><trkpt lat="43.4318706" lon="10.9422592"><ele>515.4</ele><time>2026-04-18T08:45:31.487Z</time></trkpt><trkpt lat="43.431865" lon="10.9423761"><ele>515.6</ele><time>2026-04-18T08:45:32.487Z</time></trkpt><trkpt lat="43.431857" lon="10.9424946"><ele>515.8</ele><time>2026-04-18T08:45:33.488Z</time></trkpt><trkpt lat="43.4318601" lon="10.9426365"><ele>516.0</ele><time>2026-04-18T08:45:34.477Z</time></trkpt><trkpt lat="43.431869" lon="10.9427762"><ele>515.0</ele><time>2026-04-18T08:45:35.486Z</time></trkpt><trkpt lat="43.4318799" lon="10.9429185"><ele>514.0</ele><time>2026-04-18T08:45:36.485Z</time></trkpt><trkpt lat="43.4318904" lon="10.9430547"><ele>513.0</ele><time>2026-04-18T08:45:37.484Z</time></trkpt><trkpt lat="43.4318992" lon="10.9431914"><ele>512.0</ele><time>2026-04-18T08:45:38.482Z</time></trkpt><trkpt lat="43.4319058" lon="10.9433311"><ele>511.0</ele><time>2026-04-18T08:45:39.491Z</time></trkpt><trkpt lat="43.4319072" lon="10.9434746"><ele>510.4</ele><time>2026-04-18T08:45:40.485Z</time></trkpt><trkpt lat="43.4319028" lon="10.9436151"><ele>509.8</ele><time>2026-04-18T08:45:41.484Z</time></trkpt><trkpt lat="43.4319033" lon="10.9437531"><ele>509.19999999999993</ele><time>2026-04-18T08:45:42.475Z</time></trkpt><trkpt lat="43.4319009" lon="10.9438844"><ele>508.59999999999997</ele><time>2026-04-18T08:45:43.483Z</time></trkpt><trkpt lat="43.4319034" lon="10.9440259"><ele>508.0</ele><time>2026-04-18T08:45:44.481Z</time></trkpt><trkpt lat="43.4319071" lon="10.9441609"><ele>507.50000000000006</ele><time>2026-04-18T08:45:45.481Z</time></trkpt><trkpt lat="43.4319255" lon="10.9442867"><ele>507.0</ele><time>2026-04-18T08:45:46.476Z</time></trkpt><trkpt lat="43.4319528" lon="10.9443913"><ele>506.5</ele><time>2026-04-18T08:45:47.484Z</time></trkpt><trkpt lat="43.4319975" lon="10.9444885"><ele>506.0</ele><time>2026-04-18T08:45:48.501Z</time></trkpt><trkpt lat="43.4320632" lon="10.9445619"><ele>505.50000000000006</ele><time>2026-04-18T08:45:49.484Z</time></trkpt><trkpt lat="43.4321412" lon="10.9446068"><ele>505.0</ele><time>2026-04-18T08:45:50.493Z</time></trkpt><trkpt lat="43.4322322" lon="10.9446054"><ele>506.2</ele><time>2026-04-18T08:45:51.484Z</time></trkpt><trkpt lat="43.4323306" lon="10.9445732"><ele>507.4</ele><time>2026-04-18T08:45:52.485Z</time></trkpt><trkpt lat="43.4324269" lon="10.9445368"><ele>508.6</ele><time>2026-04-18T08:45:53.484Z</time></trkpt><trkpt lat="43.4325322" lon="10.9445148"><ele>509.8</ele><time>2026-04-18T08:45:54.478Z</time></trkpt><trkpt lat="43.4326374" lon="10.9444823"><ele>511.0</ele><time>2026-04-18T08:45:55.49Z</time></trkpt><trkpt lat="43.4327405" lon="10.9444526"><ele>511.0</ele><time>2026-04-18T08:45:56.488Z</time></trkpt><trkpt lat="43.4328391" lon="10.9444256"><ele>511.0</ele><time>2026-04-18T08:45:57.491Z</time></trkpt><trkpt lat="43.4329359" lon="10.9444013"><ele>511.0</ele><time>2026-04-18T08:45:58.481Z</time></trkpt><trkpt lat="43.4330338" lon="10.9443755"><ele>511.0</ele><time>2026-04-18T08:45:59.518Z</time></trkpt><trkpt lat="43.4331296" lon="10.9443508"><ele>511.0</ele><time>2026-04-18T08:46:00.485Z</time></trkpt><trkpt lat="43.4332182" lon="10.9443213"><ele>512.2</ele><time>2026-04-18T08:46:01.481Z</time></trkpt><trkpt lat="43.4333008" lon="10.9443041"><ele>513.4000000000001</ele><time>2026-04-18T08:46:02.479Z</time></trkpt><trkpt lat="43.4333864" lon="10.9443127"><ele>514.6</ele><time>2026-04-18T08:46:03.485Z</time></trkpt><trkpt lat="43.4334768" lon="10.9443312"><ele>515.8000000000001</ele><time>2026-04-18T08:46:04.478Z</time></trkpt><trkpt lat="43.4335694" lon="10.9443662"><ele>517.0</ele><time>2026-04-18T08:46:05.482Z</time></trkpt><trkpt lat="43.4336494" lon="10.9444365"><ele>517.0</ele><time>2026-04-18T08:46:06.493Z</time></trkpt><trkpt lat="43.4337249" lon="10.9445252"><ele>517.0</ele><time>2026-04-18T08:46:07.488Z</time></trkpt><trkpt lat="43.4338088" lon="10.9445992"><ele>517.0</ele><time>2026-04-18T08:46:08.484Z</time></trkpt><trkpt lat="43.4338994" lon="10.9446632"><ele>517.0</ele><time>2026-04-18T08:46:09.482Z</time></trkpt><trkpt lat="43.4339905" lon="10.9447248"><ele>517.0</ele><time>2026-04-18T08:46:10.478Z</time></trkpt><trkpt lat="43.4340712" lon="10.9447818"><ele>519.2</ele><time>2026-04-18T08:46:11.492Z</time></trkpt><trkpt lat="43.4341631" lon="10.944825"><ele>521.4000000000001</ele><time>2026-04-18T08:46:12.484Z</time></trkpt><trkpt lat="43.4342579" lon="10.9448534"><ele>523.5999999999999</ele><time>2026-04-18T08:46:13.487Z</time></trkpt><trkpt lat="43.4343531" lon="10.9448825"><ele>525.8</ele><time>2026-04-18T08:46:14.475Z</time></trkpt><trkpt lat="43.4344428" lon="10.9449001"><ele>528.0</ele><time>2026-04-18T08:46:15.481Z</time></trkpt><trkpt lat="43.4345199" lon="10.944911"><ele>528.0</ele><time>2026-04-18T08:46:16.493Z</time></trkpt><trkpt lat="43.4345949" lon="10.9449307"><ele>528.0</ele><time>2026-04-18T08:46:17.478Z</time></trkpt><trkpt lat="43.4346727" lon="10.9449581"><ele>528.0</ele><time>2026-04-18T08:46:18.488Z</time></trkpt><trkpt lat="43.4347516" lon="10.9449939"><ele>528.0</ele><time>2026-04-18T08:46:19.487Z</time></trkpt><trkpt lat="43.4348177" lon="10.9450348"><ele>528.0</ele><time>2026-04-18T08:46:20.482Z</time></trkpt><trkpt lat="43.4348618" lon="10.9451017"><ele>528.0</ele><time>2026-04-18T08:46:21.511Z</time></trkpt><trkpt lat="43.4348748" lon="10.9451891"><ele>528.0</ele><time>2026-04-18T08:46:22.492Z</time></trkpt><trkpt lat="43.4348853" lon="10.9452871"><ele>530.5</ele><time>2026-04-18T08:46:23.481Z</time></trkpt><trkpt lat="43.4348925" lon="10.9453891"><ele>533.0</ele><time>2026-04-18T08:46:24.503Z</time></trkpt><trkpt lat="43.434917" lon="10.9454933"><ele>535.5</ele><time>2026-04-18T08:46:25.489Z</time></trkpt><trkpt lat="43.4349696" lon="10.9455846"><ele>538.0</ele><time>2026-04-18T08:46:26.477Z</time></trkpt><trkpt lat="43.4350431" lon="10.9456545"><ele>540.5</ele><time>2026-04-18T08:46:27.479Z</time></trkpt><trkpt lat="43.4351178" lon="10.945707"><ele>543.0</ele><time>2026-04-18T08:46:28.481Z</time></trkpt><trkpt lat="43.4351866" lon="10.9457556"><ele>543.0</ele><time>2026-04-18T08:46:29.498Z</time></trkpt><trkpt lat="43.4352487" lon="10.9458039"><ele>543.0</ele><time>2026-04-18T08:46:30.49Z</time></trkpt><trkpt lat="43.4352967" lon="10.9458608"><ele>543.0</ele><time>2026-04-18T08:46:31.487Z</time></trkpt><trkpt lat="43.4353392" lon="10.9459335"><ele>543.0</ele><time>2026-04-18T08:46:32.496Z</time></trkpt><trkpt lat="43.4353838" lon="10.9460198"><ele>543.0</ele><time>2026-04-18T08:46:33.49Z</time></trkpt><trkpt lat="43.4354163" lon="10.9461064"><ele>543.0</ele><time>2026-04-18T08:46:34.494Z</time></trkpt><trkpt lat="43.435462" lon="10.9461868"><ele>543.0</ele><time>2026-04-18T08:46:35.487Z</time></trkpt><trkpt lat="43.4355135" lon="10.9462594"><ele>544.3333333333334</ele><time>2026-04-18T08:46:36.484Z</time></trkpt><trkpt lat="43.4355757" lon="10.9463112"><ele>545.6666666666666</ele><time>2026-04-18T08:46:37.489Z</time></trkpt><trkpt lat="43.4356381" lon="10.9463704"><ele>547.0</ele><time>2026-04-18T08:46:38.488Z</time></trkpt><trkpt lat="43.4357179" lon="10.9464354"><ele>548.3333333333333</ele><time>2026-04-18T08:46:39.483Z</time></trkpt><trkpt lat="43.4357955" lon="10.9465213"><ele>549.6666666666666</ele><time>2026-04-18T08:46:40.487Z</time></trkpt><trkpt lat="43.4358753" lon="10.9466137"><ele>551.0</ele><time>2026-04-18T08:46:41.489Z</time></trkpt><trkpt lat="43.4359489" lon="10.9467068"><ele>554.2</ele><time>2026-04-18T08:46:42.499Z</time></trkpt><trkpt lat="43.4360094" lon="10.9468266"><ele>557.4000000000001</ele><time>2026-04-18T08:46:43.488Z</time></trkpt><trkpt lat="43.4360626" lon="10.946934"><ele>560.6</ele><time>2026-04-18T08:46:44.478Z</time></trkpt><trkpt lat="43.436122" lon="10.9470467"><ele>563.8000000000001</ele><time>2026-04-18T08:46:45.472Z</time></trkpt><trkpt lat="43.4361753" lon="10.9471426"><ele>567.0</ele><time>2026-04-18T08:46:46.466Z</time></trkpt><trkpt lat="43.4362185" lon="10.947235"><ele>567.0</ele><time>2026-04-18T08:46:47.484Z</time></trkpt><trkpt lat="43.4362405" lon="10.9473201"><ele>567.0</ele><time>2026-04-18T08:46:48.481Z</time></trkpt><trkpt lat="43.4362379" lon="10.94748"><ele>567.0</ele><time>2026-04-18T08:46:50.478Z</time></trkpt><trkpt lat="43.4361923" lon="10.9476525"><ele>567.0</ele><time>2026-04-18T08:46:52.482Z</time></trkpt><trkpt lat="43.4361704" lon="10.9477399"><ele>567.0</ele><time>2026-04-18T08:46:53.484Z</time></trkpt><trkpt lat="43.4361536" lon="10.9478328"><ele>566.8571428571429</ele><time>2026-04-18T08:46:54.48Z</time></trkpt><trkpt lat="43.4361376" lon="10.9479279"><ele>566.7142857142858</ele><time>2026-04-18T08:46:55.478Z</time></trkpt><trkpt lat="43.4361283" lon="10.9480162"><ele>566.5714285714286</ele><time>2026-04-18T08:46:56.489Z</time></trkpt><trkpt lat="43.4361112" lon="10.9481232"><ele>566.4285714285714</ele><time>2026-04-18T08:46:57.493Z</time></trkpt><trkpt lat="43.4361009" lon="10.9482309"><ele>566.2857142857143</ele><time>2026-04-18T08:46:58.5Z</time></trkpt><trkpt lat="43.4361104" lon="10.9483257"><ele>566.1428571428571</ele><time>2026-04-18T08:46:59.486Z</time></trkpt><trkpt lat="43.436139" lon="10.9484361"><ele>566.0</ele><time>2026-04-18T08:47:00.476Z</time></trkpt><trkpt lat="43.4361748" lon="10.9485443"><ele>565.0</ele><time>2026-04-18T08:47:01.483Z</time></trkpt><trkpt lat="43.436214" lon="10.94865"><ele>564.0</ele><time>2026-04-18T08:47:02.49Z</time></trkpt><trkpt lat="43.4362571" lon="10.9487692"><ele>563.0</ele><time>2026-04-18T08:47:03.496Z</time></trkpt><trkpt lat="43.4363036" lon="10.9488785"><ele>562.0</ele><time>2026-04-18T08:47:04.5Z</time></trkpt><trkpt lat="43.4363497" lon="10.9489824"><ele>561.0</ele><time>2026-04-18T08:47:05.506Z</time></trkpt><trkpt lat="43.4364045" lon="10.9490867"><ele>561.0</ele><time>2026-04-18T08:47:06.477Z</time></trkpt><trkpt lat="43.4364657" lon="10.9491891"><ele>561.0</ele><time>2026-04-18T08:47:07.473Z</time></trkpt><trkpt lat="43.4365489" lon="10.9492858"><ele>561.0</ele><time>2026-04-18T08:47:08.477Z</time></trkpt><trkpt lat="43.4366351" lon="10.9493936"><ele>561.0</ele><time>2026-04-18T08:47:09.492Z</time></trkpt><trkpt lat="43.4367303" lon="10.9494883"><ele>561.0</ele><time>2026-04-18T08:47:10.488Z</time></trkpt><trkpt lat="43.4368355" lon="10.9495621"><ele>560.8</ele><time>2026-04-18T08:47:11.493Z</time></trkpt><trkpt lat="43.4369447" lon="10.9496266"><ele>560.6</ele><time>2026-04-18T08:47:12.488Z</time></trkpt><trkpt lat="43.4370528" lon="10.9496766"><ele>560.4</ele><time>2026-04-18T08:47:13.484Z</time></trkpt><trkpt lat="43.4371543" lon="10.9497031"><ele>560.2</ele><time>2026-04-18T08:47:14.501Z</time></trkpt><trkpt lat="43.4372646" lon="10.9497239"><ele>560.0</ele><time>2026-04-18T08:47:15.482Z</time></trkpt><trkpt lat="43.4373751" lon="10.9497461"><ele>560.2</ele><time>2026-04-18T08:47:16.48Z</time></trkpt><trkpt lat="43.4374867" lon="10.9497799"><ele>560.4</ele><time>2026-04-18T08:47:17.482Z</time></trkpt><trkpt lat="43.4375908" lon="10.9498218"><ele>560.6</ele><time>2026-04-18T08:47:18.477Z</time></trkpt><trkpt lat="43.4376858" lon="10.9498766"><ele>560.8</ele><time>2026-04-18T08:47:19.475Z</time></trkpt><trkpt lat="43.4377645" lon="10.9499582"><ele>561.0</ele><time>2026-04-18T08:47:20.482Z</time></trkpt><trkpt lat="43.4378614" lon="10.9500563"><ele>561.0</ele><time>2026-04-18T08:47:21.493Z</time></trkpt><trkpt lat="43.4379659" lon="10.9501523"><ele>561.0</ele><time>2026-04-18T08:47:22.478Z</time></trkpt><trkpt lat="43.4380668" lon="10.9502532"><ele>561.0</ele><time>2026-04-18T08:47:23.492Z</time></trkpt><trkpt lat="43.4381693" lon="10.9503537"><ele>561.0</ele><time>2026-04-18T08:47:24.491Z</time></trkpt><trkpt lat="43.4382668" lon="10.9504567"><ele>562.0</ele><time>2026-04-18T08:47:25.487Z</time></trkpt><trkpt lat="43.4383657" lon="10.9505662"><ele>563.0</ele><time>2026-04-18T08:47:26.482Z</time></trkpt><trkpt lat="43.4384627" lon="10.9506662"><ele>564.0</ele><time>2026-04-18T08:47:27.479Z</time></trkpt><trkpt lat="43.4385625" lon="10.950771"><ele>565.0</ele><time>2026-04-18T08:47:28.485Z</time></trkpt><trkpt lat="43.4386636" lon="10.9508707"><ele>564.25</ele><time>2026-04-18T08:47:29.486Z</time></trkpt><trkpt lat="43.4387598" lon="10.95097"><ele>563.5</ele><time>2026-04-18T08:47:30.488Z</time></trkpt><trkpt lat="43.4388554" lon="10.9510745"><ele>562.75</ele><time>2026-04-18T08:47:31.482Z</time></trkpt><trkpt lat="43.4389466" lon="10.9511749"><ele>562.0</ele><time>2026-04-18T08:47:32.494Z</time></trkpt><trkpt lat="43.4390412" lon="10.9512726"><ele>564.25</ele><time>2026-04-18T08:47:33.483Z</time></trkpt><trkpt lat="43.4391407" lon="10.951367"><ele>566.5</ele><time>2026-04-18T08:47:34.494Z</time></trkpt><trkpt lat="43.4392393" lon="10.9514613"><ele>568.75</ele><time>2026-04-18T08:47:35.487Z</time></trkpt><trkpt lat="43.439338" lon="10.9515541"><ele>571.0</ele><time>2026-04-18T08:47:36.512Z</time></trkpt><trkpt lat="43.4394338" lon="10.951652"><ele>570.4</ele><time>2026-04-18T08:47:37.484Z</time></trkpt><trkpt lat="43.4395304" lon="10.9517524"><ele>569.8</ele><time>2026-04-18T08:47:38.489Z</time></trkpt><trkpt lat="43.4396216" lon="10.9518446"><ele>569.1999999999999</ele><time>2026-04-18T08:47:39.503Z</time></trkpt><trkpt lat="43.4397117" lon="10.9519201"><ele>568.6</ele><time>2026-04-18T08:47:40.486Z</time></trkpt><trkpt lat="43.4397938" lon="10.9520041"><ele>568.0</ele><time>2026-04-18T08:47:41.494Z</time></trkpt><trkpt lat="43.4398764" lon="10.9520932"><ele>570.6</ele><time>2026-04-18T08:47:42.482Z</time></trkpt><trkpt lat="43.4399562" lon="10.9521861"><ele>573.1999999999999</ele><time>2026-04-18T08:47:43.497Z</time></trkpt><trkpt lat="43.4400402" lon="10.9522806"><ele>575.8</ele><time>2026-04-18T08:47:44.482Z</time></trkpt><trkpt lat="43.4401162" lon="10.9523683"><ele>578.4</ele><time>2026-04-18T08:47:45.489Z</time></trkpt><trkpt lat="43.4401988" lon="10.9524475"><ele>581.0</ele><time>2026-04-18T08:47:46.488Z</time></trkpt><trkpt lat="43.4402756" lon="10.9525263"><ele>580.8</ele><time>2026-04-18T08:47:47.493Z</time></trkpt><trkpt lat="43.4403527" lon="10.9526024"><ele>580.6</ele><time>2026-04-18T08:47:48.486Z</time></trkpt><trkpt lat="43.4404244" lon="10.9526864"><ele>580.4</ele><time>2026-04-18T08:47:49.479Z</time></trkpt><trkpt lat="43.4405006" lon="10.9527711"><ele>580.2</ele><time>2026-04-18T08:47:50.487Z</time></trkpt><trkpt lat="43.4405773" lon="10.9528438"><ele>580.0</ele><time>2026-04-18T08:47:51.486Z</time></trkpt><trkpt lat="43.4406656" lon="10.9529116"><ele>582.4</ele><time>2026-04-18T08:47:52.49Z</time></trkpt><trkpt lat="43.4407549" lon="10.952978"><ele>584.8</ele><time>2026-04-18T08:47:53.489Z</time></trkpt><trkpt lat="43.440842" lon="10.9530453"><ele>587.2</ele><time>2026-04-18T08:47:54.493Z</time></trkpt><trkpt lat="43.4409324" lon="10.9530939"><ele>589.6</ele><time>2026-04-18T08:47:55.493Z</time></trkpt><trkpt lat="43.4410344" lon="10.9531147"><ele>592.0</ele><time>2026-04-18T08:47:56.486Z</time></trkpt><trkpt lat="43.4411151" lon="10.9530933"><ele>592.0</ele><time>2026-04-18T08:47:57.507Z</time></trkpt><trkpt lat="43.4411682" lon="10.9530065"><ele>592.0</ele><time>2026-04-18T08:47:58.481Z</time></trkpt><trkpt lat="43.4411986" lon="10.9528785"><ele>592.0</ele><time>2026-04-18T08:47:59.485Z</time></trkpt><trkpt lat="43.4412023" lon="10.9527634"><ele>592.0</ele><time>2026-04-18T08:48:00.481Z</time></trkpt><trkpt lat="43.4411985" lon="10.9526553"><ele>592.0</ele><time>2026-04-18T08:48:01.486Z</time></trkpt><trkpt lat="43.4412031" lon="10.9525299"><ele>592.0</ele><time>2026-04-18T08:48:02.494Z</time></trkpt><trkpt lat="43.44123" lon="10.9524382"><ele>591.8333333333334</ele><time>2026-04-18T08:48:03.489Z</time></trkpt><trkpt lat="43.4412966" lon="10.9523975"><ele>591.6666666666667</ele><time>2026-04-18T08:48:04.488Z</time></trkpt><trkpt lat="43.441381" lon="10.9523918"><ele>591.5</ele><time>2026-04-18T08:48:05.489Z</time></trkpt><trkpt lat="43.4414649" lon="10.9524046"><ele>591.3333333333334</ele><time>2026-04-18T08:48:06.486Z</time></trkpt><trkpt lat="43.4415452" lon="10.9524126"><ele>591.1666666666666</ele><time>2026-04-18T08:48:07.484Z</time></trkpt><trkpt lat="43.4416395" lon="10.9524338"><ele>591.0</ele><time>2026-04-18T08:48:09.488Z</time></trkpt><trkpt lat="43.4416756" lon="10.9525422"><ele>593.1666666666666</ele><time>2026-04-18T08:48:12.504Z</time></trkpt><trkpt lat="43.4416646" lon="10.9526771"><ele>595.3333333333334</ele><time>2026-04-18T08:48:14.488Z</time></trkpt><trkpt lat="43.4416614" lon="10.9527674"><ele>597.5</ele><time>2026-04-18T08:48:15.485Z</time></trkpt><trkpt lat="43.4416604" lon="10.952855"><ele>599.6666666666667</ele><time>2026-04-18T08:48:16.488Z</time></trkpt><trkpt lat="43.4416669" lon="10.9529728"><ele>601.8333333333334</ele><time>2026-04-18T08:48:17.482Z</time></trkpt><trkpt lat="43.4416726" lon="10.9531153"><ele>604.0</ele><time>2026-04-18T08:48:18.482Z</time></trkpt><trkpt lat="43.4416795" lon="10.9532669"><ele>604.0</ele><time>2026-04-18T08:48:19.506Z</time></trkpt><trkpt lat="43.4416915" lon="10.9534221"><ele>604.0</ele><time>2026-04-18T08:48:20.498Z</time></trkpt><trkpt lat="43.4417074" lon="10.953578"><ele>604.0</ele><time>2026-04-18T08:48:21.489Z</time></trkpt><trkpt lat="43.441715" lon="10.9537423"><ele>604.0</ele><time>2026-04-18T08:48:22.498Z</time></trkpt><trkpt lat="43.4417289" lon="10.9539209"><ele>604.0</ele><time>2026-04-18T08:48:23.489Z</time></trkpt><trkpt lat="43.4417401" lon="10.9541132"><ele>604.0</ele><time>2026-04-18T08:48:24.489Z</time></trkpt><trkpt lat="43.4417397" lon="10.954309"><ele>604.0</ele><time>2026-04-18T08:48:25.49Z</time></trkpt><trkpt lat="43.4417192" lon="10.9545061"><ele>604.0</ele><time>2026-04-18T08:48:26.489Z</time></trkpt><trkpt lat="43.4416887" lon="10.954727"><ele>603.75</ele><time>2026-04-18T08:48:27.492Z</time></trkpt><trkpt lat="43.4416548" lon="10.954931"><ele>603.5</ele><time>2026-04-18T08:48:28.49Z</time></trkpt><trkpt lat="43.4416213" lon="10.9551246"><ele>603.25</ele><time>2026-04-18T08:48:29.481Z</time></trkpt><trkpt lat="43.4415832" lon="10.9552991"><ele>603.0</ele><time>2026-04-18T08:48:30.514Z</time></trkpt><trkpt lat="43.4415462" lon="10.9554652"><ele>602.5</ele><time>2026-04-18T08:48:31.491Z</time></trkpt><trkpt lat="43.4415023" lon="10.9556348"><ele>602.0</ele><time>2026-04-18T08:48:32.495Z</time></trkpt><trkpt lat="43.4414439" lon="10.9558105"><ele>601.5</ele><time>2026-04-18T08:48:33.487Z</time></trkpt><trkpt lat="43.4413781" lon="10.9559788"><ele>601.0</ele><time>2026-04-18T08:48:34.488Z</time></trkpt><trkpt lat="43.4412979" lon="10.9561404"><ele>600.3333333333334</ele><time>2026-04-18T08:48:35.499Z</time></trkpt><trkpt lat="43.4411999" lon="10.9563026"><ele>599.6666666666666</ele><time>2026-04-18T08:48:36.492Z</time></trkpt><trkpt lat="43.4410939" lon="10.9564611"><ele>599.0</ele><time>2026-04-18T08:48:37.492Z</time></trkpt><trkpt lat="43.4409811" lon="10.9566357"><ele>600.0</ele><time>2026-04-18T08:48:38.49Z</time></trkpt><trkpt lat="43.440868" lon="10.9568042"><ele>601.0</ele><time>2026-04-18T08:48:39.494Z</time></trkpt><trkpt lat="43.440753" lon="10.9569821"><ele>602.0</ele><time>2026-04-18T08:48:40.489Z</time></trkpt><trkpt lat="43.4406413" lon="10.9571677"><ele>602.0</ele><time>2026-04-18T08:48:41.496Z</time></trkpt><trkpt lat="43.4405225" lon="10.9573552"><ele>602.0</ele><time>2026-04-18T08:48:42.492Z</time></trkpt><trkpt lat="43.440414" lon="10.9575336"><ele>602.0</ele><time>2026-04-18T08:48:43.486Z</time></trkpt><trkpt lat="43.4403064" lon="10.9577101"><ele>600.6666666666666</ele><time>2026-04-18T08:48:44.499Z</time></trkpt><trkpt lat="43.4401996" lon="10.9578873"><ele>599.3333333333334</ele><time>2026-04-18T08:48:45.474Z</time></trkpt><trkpt lat="43.4400953" lon="10.9580726"><ele>598.0</ele><time>2026-04-18T08:48:46.496Z</time></trkpt><trkpt lat="43.4399892" lon="10.9582592"><ele>596.0</ele><time>2026-04-18T08:48:47.481Z</time></trkpt><trkpt lat="43.4398819" lon="10.9584485"><ele>594.0</ele><time>2026-04-18T08:48:48.485Z</time></trkpt><trkpt lat="43.4397731" lon="10.9586349"><ele>592.0</ele><time>2026-04-18T08:48:49.481Z</time></trkpt><trkpt lat="43.4396622" lon="10.9588275"><ele>591.6666666666667</ele><time>2026-04-18T08:48:50.48Z</time></trkpt><trkpt lat="43.4395447" lon="10.9590208"><ele>591.3333333333334</ele><time>2026-04-18T08:48:51.498Z</time></trkpt><trkpt lat="43.4394299" lon="10.9592055"><ele>591.0</ele><time>2026-04-18T08:48:52.486Z</time></trkpt><trkpt lat="43.4393215" lon="10.9593806"><ele>590.6666666666666</ele><time>2026-04-18T08:48:53.481Z</time></trkpt><trkpt lat="43.4392214" lon="10.9595514"><ele>590.3333333333333</ele><time>2026-04-18T08:48:54.483Z</time></trkpt><trkpt lat="43.4391151" lon="10.9597152"><ele>590.0</ele><time>2026-04-18T08:48:55.485Z</time></trkpt><trkpt lat="43.4389907" lon="10.9598585"><ele>590.0</ele><time>2026-04-18T08:48:56.493Z</time></trkpt><trkpt lat="43.4388505" lon="10.9599854"><ele>590.0</ele><time>2026-04-18T08:48:57.495Z</time></trkpt><trkpt lat="43.4387052" lon="10.9601151"><ele>590.0</ele><time>2026-04-18T08:48:58.494Z</time></trkpt><trkpt lat="43.4385525" lon="10.9602376"><ele>590.3333333333333</ele><time>2026-04-18T08:48:59.487Z</time></trkpt><trkpt lat="43.4384062" lon="10.9603633"><ele>590.6666666666666</ele><time>2026-04-18T08:49:00.488Z</time></trkpt><trkpt lat="43.4382568" lon="10.9604905"><ele>591.0</ele><time>2026-04-18T08:49:01.491Z</time></trkpt><trkpt lat="43.4380993" lon="10.9606141"><ele>590.3333333333334</ele><time>2026-04-18T08:49:02.505Z</time></trkpt><trkpt lat="43.4379486" lon="10.9607228"><ele>589.6666666666667</ele><time>2026-04-18T08:49:03.494Z</time></trkpt><trkpt lat="43.4378036" lon="10.9608253"><ele>589.0</ele><time>2026-04-18T08:49:04.482Z</time></trkpt><trkpt lat="43.4376573" lon="10.9609114"><ele>590.3333333333334</ele><time>2026-04-18T08:49:05.492Z</time></trkpt><trkpt lat="43.4375063" lon="10.9609954"><ele>591.6666666666666</ele><time>2026-04-18T08:49:06.493Z</time></trkpt><trkpt lat="43.4373539" lon="10.9610858"><ele>593.0</ele><time>2026-04-18T08:49:07.495Z</time></trkpt><trkpt lat="43.4372064" lon="10.9611985"><ele>590.6666666666666</ele><time>2026-04-18T08:49:08.496Z</time></trkpt><trkpt lat="43.4370808" lon="10.9613503"><ele>588.3333333333334</ele><time>2026-04-18T08:49:09.491Z</time></trkpt><trkpt lat="43.4369877" lon="10.9615389"><ele>586.0</ele><time>2026-04-18T08:49:10.492Z</time></trkpt><trkpt lat="43.4368988" lon="10.9617402"><ele>586.0</ele><time>2026-04-18T08:49:11.492Z</time></trkpt><trkpt lat="43.4368446" lon="10.9619427"><ele>586.0</ele><time>2026-04-18T08:49:12.494Z</time></trkpt><trkpt lat="43.4368072" lon="10.9621635"><ele>586.0</ele><time>2026-04-18T08:49:13.487Z</time></trkpt><trkpt lat="43.4367733" lon="10.9623809"><ele>586.3333333333334</ele><time>2026-04-18T08:49:14.506Z</time></trkpt><trkpt lat="43.436737" lon="10.9625927"><ele>586.6666666666666</ele><time>2026-04-18T08:49:15.483Z</time></trkpt><trkpt lat="43.4366658" lon="10.9627762"><ele>587.0</ele><time>2026-04-18T08:49:16.488Z</time></trkpt><trkpt lat="43.4365526" lon="10.9629041"><ele>587.0</ele><time>2026-04-18T08:49:17.488Z</time></trkpt><trkpt lat="43.4364318" lon="10.9630113"><ele>587.0</ele><time>2026-04-18T08:49:18.485Z</time></trkpt><trkpt lat="43.4363003" lon="10.963103"><ele>587.0</ele><time>2026-04-18T08:49:19.49Z</time></trkpt><trkpt lat="43.4361773" lon="10.9631974"><ele>587.0</ele><time>2026-04-18T08:49:20.483Z</time></trkpt><trkpt lat="43.436057" lon="10.9633233"><ele>586.6666666666666</ele><time>2026-04-18T08:49:21.489Z</time></trkpt><trkpt lat="43.4359502" lon="10.9634754"><ele>586.3333333333334</ele><time>2026-04-18T08:49:22.484Z</time></trkpt><trkpt lat="43.4358493" lon="10.9636355"><ele>586.0</ele><time>2026-04-18T08:49:23.48Z</time></trkpt><trkpt lat="43.4357637" lon="10.9638081"><ele>586.0</ele><time>2026-04-18T08:49:24.495Z</time></trkpt><trkpt lat="43.4356774" lon="10.9639907"><ele>586.0</ele><time>2026-04-18T08:49:25.486Z</time></trkpt><trkpt lat="43.4356194" lon="10.9641924"><ele>586.0</ele><time>2026-04-18T08:49:26.482Z</time></trkpt><trkpt lat="43.4355587" lon="10.9643711"><ele>584.6666666666667</ele><time>2026-04-18T08:49:27.489Z</time></trkpt><trkpt lat="43.435484" lon="10.9645626"><ele>583.3333333333334</ele><time>2026-04-18T08:49:28.489Z</time></trkpt><trkpt lat="43.4353951" lon="10.9647452"><ele>582.0</ele><time>2026-04-18T08:49:29.481Z</time></trkpt><trkpt lat="43.435298" lon="10.9649261"><ele>580.0</ele><time>2026-04-18T08:49:30.49Z</time></trkpt><trkpt lat="43.4352082" lon="10.9651116"><ele>578.0</ele><time>2026-04-18T08:49:31.5Z</time></trkpt><trkpt lat="43.435115" lon="10.9652983"><ele>576.0</ele><time>2026-04-18T08:49:32.495Z</time></trkpt><trkpt lat="43.4350193" lon="10.9654899"><ele>576.0</ele><time>2026-04-18T08:49:33.486Z</time></trkpt><trkpt lat="43.4349346" lon="10.9656739"><ele>576.0</ele><time>2026-04-18T08:49:34.486Z</time></trkpt><trkpt lat="43.4348534" lon="10.9658498"><ele>576.0</ele><time>2026-04-18T08:49:35.494Z</time></trkpt><trkpt lat="43.4347623" lon="10.9660141"><ele>573.3333333333334</ele><time>2026-04-18T08:49:36.487Z</time></trkpt><trkpt lat="43.4346662" lon="10.9661748"><ele>570.6666666666667</ele><time>2026-04-18T08:49:37.483Z</time></trkpt><trkpt lat="43.4345558" lon="10.9663406"><ele>568.0</ele><time>2026-04-18T08:49:38.482Z</time></trkpt><trkpt lat="43.434447" lon="10.96653"><ele>566.3333333333334</ele><time>2026-04-18T08:49:39.488Z</time></trkpt><trkpt lat="43.4343446" lon="10.9667109"><ele>564.6666666666666</ele><time>2026-04-18T08:49:40.489Z</time></trkpt><trkpt lat="43.4342386" lon="10.966904"><ele>563.0</ele><time>2026-04-18T08:49:41.493Z</time></trkpt><trkpt lat="43.4341211" lon="10.9670654"><ele>563.0</ele><time>2026-04-18T08:49:42.474Z</time></trkpt><trkpt lat="43.4339743" lon="10.9671855"><ele>563.0</ele><time>2026-04-18T08:49:43.488Z</time></trkpt><trkpt lat="43.433814" lon="10.9672873"><ele>563.0</ele><time>2026-04-18T08:49:44.481Z</time></trkpt><trkpt lat="43.4336523" lon="10.967387"><ele>562.3333333333333</ele><time>2026-04-18T08:49:45.493Z</time></trkpt><trkpt lat="43.4334865" lon="10.9674921"><ele>561.6666666666666</ele><time>2026-04-18T08:49:46.478Z</time></trkpt><trkpt lat="43.4333231" lon="10.9675926"><ele>561.0</ele><time>2026-04-18T08:49:47.484Z</time></trkpt><trkpt lat="43.4331638" lon="10.9676952"><ele>560.6666666666666</ele><time>2026-04-18T08:49:48.486Z</time></trkpt><trkpt lat="43.4330038" lon="10.9677995"><ele>560.3333333333333</ele><time>2026-04-18T08:49:49.488Z</time></trkpt><trkpt lat="43.4328603" lon="10.9678842"><ele>560.0</ele><time>2026-04-18T08:49:50.49Z</time></trkpt><trkpt lat="43.4327162" lon="10.9679468"><ele>560.0</ele><time>2026-04-18T08:49:51.482Z</time></trkpt><trkpt lat="43.4325786" lon="10.9679863"><ele>560.0</ele><time>2026-04-18T08:49:52.482Z</time></trkpt><trkpt lat="43.4324421" lon="10.9680358"><ele>560.0</ele><time>2026-04-18T08:49:53.478Z</time></trkpt><trkpt lat="43.4323208" lon="10.9681013"><ele>560.0</ele><time>2026-04-18T08:49:54.484Z</time></trkpt><trkpt lat="43.4322152" lon="10.9682071"><ele>558.25</ele><time>2026-04-18T08:49:55.484Z</time></trkpt><trkpt lat="43.4321155" lon="10.9683145"><ele>556.5</ele><time>2026-04-18T08:49:56.477Z</time></trkpt><trkpt lat="43.4320256" lon="10.968426"><ele>554.75</ele><time>2026-04-18T08:49:57.498Z</time></trkpt><trkpt lat="43.4319203" lon="10.9684717"><ele>553.0</ele><time>2026-04-18T08:49:58.483Z</time></trkpt><trkpt lat="43.4317953" lon="10.9684845"><ele>552.0</ele><time>2026-04-18T08:49:59.475Z</time></trkpt><trkpt lat="43.4316567" lon="10.9684708"><ele>551.0</ele><time>2026-04-18T08:50:00.48Z</time></trkpt><trkpt lat="43.4315026" lon="10.9684288"><ele>550.0</ele><time>2026-04-18T08:50:01.498Z</time></trkpt><trkpt lat="43.4313527" lon="10.9683698"><ele>549.5</ele><time>2026-04-18T08:50:02.479Z</time></trkpt><trkpt lat="43.4312112" lon="10.9682837"><ele>549.0</ele><time>2026-04-18T08:50:03.481Z</time></trkpt><trkpt lat="43.4310715" lon="10.9681978"><ele>548.5</ele><time>2026-04-18T08:50:04.485Z</time></trkpt><trkpt lat="43.4309368" lon="10.9681429"><ele>548.0</ele><time>2026-04-18T08:50:05.48Z</time></trkpt><trkpt lat="43.4308005" lon="10.9681014"><ele>548.0</ele><time>2026-04-18T08:50:06.481Z</time></trkpt><trkpt lat="43.4306604" lon="10.968074"><ele>548.0</ele><time>2026-04-18T08:50:07.479Z</time></trkpt><trkpt lat="43.4305266" lon="10.9680853"><ele>548.0</ele><time>2026-04-18T08:50:08.473Z</time></trkpt><trkpt lat="43.4303942" lon="10.9681412"><ele>548.0</ele><time>2026-04-18T08:50:09.476Z</time></trkpt><trkpt lat="43.4302757" lon="10.9682381"><ele>544.6666666666666</ele><time>2026-04-18T08:50:10.476Z</time></trkpt><trkpt lat="43.430145" lon="10.9683738"><ele>541.3333333333334</ele><time>2026-04-18T08:50:11.491Z</time></trkpt><trkpt lat="43.4300327" lon="10.9685115"><ele>538.0</ele><time>2026-04-18T08:50:12.48Z</time></trkpt><trkpt lat="43.4299031" lon="10.96866"><ele>538.0</ele><time>2026-04-18T08:50:13.491Z</time></trkpt><trkpt lat="43.4297847" lon="10.9688129"><ele>538.0</ele><time>2026-04-18T08:50:14.485Z</time></trkpt><trkpt lat="43.4296667" lon="10.9689804"><ele>538.0</ele><time>2026-04-18T08:50:15.478Z</time></trkpt><trkpt lat="43.4295644" lon="10.9691864"><ele>535.6666666666667</ele><time>2026-04-18T08:50:16.478Z</time></trkpt><trkpt lat="43.4294749" lon="10.9694003"><ele>533.3333333333334</ele><time>2026-04-18T08:50:17.485Z</time></trkpt><trkpt lat="43.4293831" lon="10.9696094"><ele>531.0</ele><time>2026-04-18T08:50:18.488Z</time></trkpt><trkpt lat="43.4292889" lon="10.9698092"><ele>531.0</ele><time>2026-04-18T08:50:19.489Z</time></trkpt><trkpt lat="43.4291966" lon="10.9699862"><ele>531.0</ele><time>2026-04-18T08:50:20.496Z</time></trkpt><trkpt lat="43.4291145" lon="10.970141"><ele>531.0</ele><time>2026-04-18T08:50:21.48Z</time></trkpt><trkpt lat="43.4290105" lon="10.9702498"><ele>531.0</ele><time>2026-04-18T08:50:22.497Z</time></trkpt><trkpt lat="43.4288826" lon="10.9703042"><ele>530.0</ele><time>2026-04-18T08:50:23.493Z</time></trkpt><trkpt lat="43.4287389" lon="10.9703396"><ele>529.0</ele><time>2026-04-18T08:50:24.477Z</time></trkpt><trkpt lat="43.4285968" lon="10.9703484"><ele>528.0</ele><time>2026-04-18T08:50:25.483Z</time></trkpt><trkpt lat="43.4284495" lon="10.9703582"><ele>527.0</ele><time>2026-04-18T08:50:26.487Z</time></trkpt><trkpt lat="43.4283125" lon="10.9703831"><ele>527.0</ele><time>2026-04-18T08:50:27.49Z</time></trkpt><trkpt lat="43.4281955" lon="10.9704081"><ele>527.0</ele><time>2026-04-18T08:50:28.497Z</time></trkpt><trkpt lat="43.4281098" lon="10.970407"><ele>527.0</ele><time>2026-04-18T08:50:29.492Z</time></trkpt><trkpt lat="43.4280342" lon="10.970421"><ele>527.0</ele><time>2026-04-18T08:50:30.479Z</time></trkpt><trkpt lat="43.4279924" lon="10.9705248"><ele>527.0</ele><time>2026-04-18T08:50:33.484Z</time></trkpt><trkpt lat="43.4280167" lon="10.9706465"><ele>527.0</ele><time>2026-04-18T08:50:35.488Z</time></trkpt><trkpt lat="43.4280331" lon="10.9708486"><ele>527.0</ele><time>2026-04-18T08:50:37.483Z</time></trkpt><trkpt lat="43.4280468" lon="10.9709889"><ele>527.0</ele><time>2026-04-18T08:50:38.49Z</time></trkpt><trkpt lat="43.4280612" lon="10.9711448"><ele>527.0</ele><time>2026-04-18T08:50:39.495Z</time></trkpt><trkpt lat="43.4280759" lon="10.9712953"><ele>526.25</ele><time>2026-04-18T08:50:40.488Z</time></trkpt><trkpt lat="43.4280838" lon="10.9714606"><ele>525.5</ele><time>2026-04-18T08:50:41.487Z</time></trkpt><trkpt lat="43.4280806" lon="10.9716366"><ele>524.75</ele><time>2026-04-18T08:50:42.501Z</time></trkpt><trkpt lat="43.4280523" lon="10.9718044"><ele>524.0</ele><time>2026-04-18T08:50:43.483Z</time></trkpt><trkpt lat="43.4279888" lon="10.9719477"><ele>521.25</ele><time>2026-04-18T08:50:44.485Z</time></trkpt><trkpt lat="43.4279104" lon="10.9721026"><ele>518.5</ele><time>2026-04-18T08:50:45.486Z</time></trkpt><trkpt lat="43.4278223" lon="10.9722682"><ele>515.75</ele><time>2026-04-18T08:50:46.486Z</time></trkpt><trkpt lat="43.4277238" lon="10.9724348"><ele>513.0</ele><time>2026-04-18T08:50:47.501Z</time></trkpt><trkpt lat="43.4276172" lon="10.9725926"><ele>512.6666666666666</ele><time>2026-04-18T08:50:48.488Z</time></trkpt><trkpt lat="43.4275016" lon="10.9727497"><ele>512.3333333333333</ele><time>2026-04-18T08:50:49.48Z</time></trkpt><trkpt lat="43.4273785" lon="10.9729121"><ele>512.0</ele><time>2026-04-18T08:50:50.486Z</time></trkpt><trkpt lat="43.4272457" lon="10.9730801"><ele>511.66666666666663</ele><time>2026-04-18T08:50:51.506Z</time></trkpt><trkpt lat="43.427115" lon="10.9732386"><ele>511.33333333333337</ele><time>2026-04-18T08:50:52.485Z</time></trkpt><trkpt lat="43.4269819" lon="10.9733944"><ele>511.0</ele><time>2026-04-18T08:50:53.496Z</time></trkpt><trkpt lat="43.4268443" lon="10.9735342"><ele>510.6666666666667</ele><time>2026-04-18T08:50:54.479Z</time></trkpt><trkpt lat="43.4267021" lon="10.9736374"><ele>510.33333333333337</ele><time>2026-04-18T08:50:55.492Z</time></trkpt><trkpt lat="43.4265455" lon="10.9736921"><ele>510.0</ele><time>2026-04-18T08:50:56.49Z</time></trkpt><trkpt lat="43.4263804" lon="10.9737293"><ele>509.5</ele><time>2026-04-18T08:50:57.491Z</time></trkpt><trkpt lat="43.4262289" lon="10.9737475"><ele>509.0</ele><time>2026-04-18T08:50:58.497Z</time></trkpt><trkpt lat="43.4260798" lon="10.9737333"><ele>508.5</ele><time>2026-04-18T08:50:59.484Z</time></trkpt><trkpt lat="43.425957" lon="10.9736558"><ele>508.0</ele><time>2026-04-18T08:51:00.483Z</time></trkpt><trkpt lat="43.4258679" lon="10.9735569"><ele>508.0</ele><time>2026-04-18T08:51:01.486Z</time></trkpt><trkpt lat="43.4257978" lon="10.9734516"><ele>507.99999999999994</ele><time>2026-04-18T08:51:02.493Z</time></trkpt><trkpt lat="43.4257121" lon="10.9733459"><ele>507.99999999999994</ele><time>2026-04-18T08:51:03.5Z</time></trkpt><trkpt lat="43.4256304" lon="10.9732581"><ele>508.0</ele><time>2026-04-18T08:51:04.491Z</time></trkpt><trkpt lat="43.4255422" lon="10.973167"><ele>508.0</ele><time>2026-04-18T08:51:05.484Z</time></trkpt><trkpt lat="43.4254199" lon="10.9731504"><ele>505.5</ele><time>2026-04-18T08:51:06.498Z</time></trkpt><trkpt lat="43.4253108" lon="10.9731945"><ele>503.0</ele><time>2026-04-18T08:51:07.488Z</time></trkpt><trkpt lat="43.4252087" lon="10.9732805"><ele>500.5</ele><time>2026-04-18T08:51:08.488Z</time></trkpt><trkpt lat="43.4251363" lon="10.9733889"><ele>498.0</ele><time>2026-04-18T08:51:09.486Z</time></trkpt><trkpt lat="43.4250964" lon="10.9735511"><ele>498.0</ele><time>2026-04-18T08:51:10.493Z</time></trkpt><trkpt lat="43.4250915" lon="10.9737115"><ele>498.0</ele><time>2026-04-18T08:51:11.506Z</time></trkpt><trkpt lat="43.4250931" lon="10.973891"><ele>498.0</ele><time>2026-04-18T08:51:12.48Z</time></trkpt><trkpt lat="43.4250799" lon="10.9740609"><ele>498.0</ele><time>2026-04-18T08:51:13.493Z</time></trkpt><trkpt lat="43.4250481" lon="10.974223"><ele>497.0</ele><time>2026-04-18T08:51:14.486Z</time></trkpt><trkpt lat="43.4249955" lon="10.9743872"><ele>496.0</ele><time>2026-04-18T08:51:15.487Z</time></trkpt><trkpt lat="43.4249292" lon="10.9745558"><ele>495.0</ele><time>2026-04-18T08:51:16.481Z</time></trkpt><trkpt lat="43.4248623" lon="10.9747363"><ele>494.0</ele><time>2026-04-18T08:51:17.484Z</time></trkpt><trkpt lat="43.4247946" lon="10.9748991"><ele>493.75</ele><time>2026-04-18T08:51:18.485Z</time></trkpt><trkpt lat="43.4247296" lon="10.9750495"><ele>493.5</ele><time>2026-04-18T08:51:19.499Z</time></trkpt><trkpt lat="43.424642" lon="10.9751689"><ele>493.25</ele><time>2026-04-18T08:51:20.493Z</time></trkpt><trkpt lat="43.424523" lon="10.9752543"><ele>493.0</ele><time>2026-04-18T08:51:21.489Z</time></trkpt><trkpt lat="43.4243886" lon="10.9753042"><ele>493.0</ele><time>2026-04-18T08:51:22.491Z</time></trkpt><trkpt lat="43.4242502" lon="10.975371"><ele>493.0</ele><time>2026-04-18T08:51:23.482Z</time></trkpt><trkpt lat="43.4241209" lon="10.9754353"><ele>493.0</ele><time>2026-04-18T08:51:24.496Z</time></trkpt><trkpt lat="43.4239738" lon="10.9754959"><ele>493.0</ele><time>2026-04-18T08:51:25.478Z</time></trkpt><trkpt lat="43.4238316" lon="10.9755623"><ele>493.33333333333337</ele><time>2026-04-18T08:51:26.489Z</time></trkpt><trkpt lat="43.4236884" lon="10.9756362"><ele>493.66666666666663</ele><time>2026-04-18T08:51:27.483Z</time></trkpt><trkpt lat="43.4235495" lon="10.97573"><ele>494.0</ele><time>2026-04-18T08:51:28.494Z</time></trkpt><trkpt lat="43.4234137" lon="10.9758503"><ele>492.3333333333333</ele><time>2026-04-18T08:51:29.487Z</time></trkpt><trkpt lat="43.4232781" lon="10.9759622"><ele>490.66666666666663</ele><time>2026-04-18T08:51:30.512Z</time></trkpt><trkpt lat="43.4231413" lon="10.9760775"><ele>489.0</ele><time>2026-04-18T08:51:31.491Z</time></trkpt><trkpt lat="43.4229992" lon="10.97616"><ele>490.75</ele><time>2026-04-18T08:51:32.478Z</time></trkpt><trkpt lat="43.4228568" lon="10.9762289"><ele>492.5</ele><time>2026-04-18T08:51:33.486Z</time></trkpt><trkpt lat="43.4227207" lon="10.9762682"><ele>494.25</ele><time>2026-04-18T08:51:34.484Z</time></trkpt><trkpt lat="43.4225832" lon="10.9762765"><ele>496.0</ele><time>2026-04-18T08:51:35.493Z</time></trkpt><trkpt lat="43.4224563" lon="10.9762499"><ele>496.0</ele><time>2026-04-18T08:51:36.495Z</time></trkpt><trkpt lat="43.4223376" lon="10.9761962"><ele>496.0</ele><time>2026-04-18T08:51:37.492Z</time></trkpt><trkpt lat="43.4222376" lon="10.9760934"><ele>496.0</ele><time>2026-04-18T08:51:38.483Z</time></trkpt><trkpt lat="43.4221549" lon="10.9759768"><ele>496.0</ele><time>2026-04-18T08:51:39.482Z</time></trkpt><trkpt lat="43.422073" lon="10.9758682"><ele>498.20000000000005</ele><time>2026-04-18T08:51:40.484Z</time></trkpt><trkpt lat="43.4219816" lon="10.9757776"><ele>500.40000000000003</ele><time>2026-04-18T08:51:41.481Z</time></trkpt><trkpt lat="43.4218843" lon="10.9757438"><ele>502.6</ele><time>2026-04-18T08:51:42.486Z</time></trkpt><trkpt lat="43.4217805" lon="10.9757707"><ele>504.8</ele><time>2026-04-18T08:51:43.479Z</time></trkpt><trkpt lat="43.4216835" lon="10.9758068"><ele>507.0</ele><time>2026-04-18T08:51:44.483Z</time></trkpt><trkpt lat="43.4215854" lon="10.9758473"><ele>507.0</ele><time>2026-04-18T08:51:45.485Z</time></trkpt><trkpt lat="43.4214881" lon="10.9758739"><ele>507.0</ele><time>2026-04-18T08:51:46.476Z</time></trkpt><trkpt lat="43.4213716" lon="10.9758915"><ele>507.0</ele><time>2026-04-18T08:51:47.486Z</time></trkpt><trkpt lat="43.4212491" lon="10.9759023"><ele>507.0</ele><time>2026-04-18T08:51:48.49Z</time></trkpt><trkpt lat="43.4211348" lon="10.9758902"><ele>508.25</ele><time>2026-04-18T08:51:49.479Z</time></trkpt><trkpt lat="43.4210138" lon="10.9758431"><ele>509.5</ele><time>2026-04-18T08:51:50.486Z</time></trkpt><trkpt lat="43.4208922" lon="10.9757955"><ele>510.75</ele><time>2026-04-18T08:51:51.478Z</time></trkpt><trkpt lat="43.4207684" lon="10.9757531"><ele>512.0</ele><time>2026-04-18T08:51:52.482Z</time></trkpt><trkpt lat="43.4206288" lon="10.9757185"><ele>513.6666666666666</ele><time>2026-04-18T08:51:53.477Z</time></trkpt><trkpt lat="43.4204779" lon="10.9757228"><ele>515.3333333333334</ele><time>2026-04-18T08:51:54.483Z</time></trkpt><trkpt lat="43.4203229" lon="10.9757392"><ele>517.0</ele><time>2026-04-18T08:51:55.482Z</time></trkpt><trkpt lat="43.4201737" lon="10.9757569"><ele>517.0</ele><time>2026-04-18T08:51:56.486Z</time></trkpt><trkpt lat="43.4200309" lon="10.9757927"><ele>517.0</ele><time>2026-04-18T08:51:57.481Z</time></trkpt><trkpt lat="43.4198809" lon="10.9758589"><ele>517.0</ele><time>2026-04-18T08:51:58.481Z</time></trkpt><trkpt lat="43.419727" lon="10.9759411"><ele>517.6666666666667</ele><time>2026-04-18T08:51:59.486Z</time></trkpt><trkpt lat="43.4195686" lon="10.9760304"><ele>518.3333333333334</ele><time>2026-04-18T08:52:00.485Z</time></trkpt><trkpt lat="43.4194138" lon="10.9761152"><ele>519.0</ele><time>2026-04-18T08:52:01.478Z</time></trkpt><trkpt lat="43.4192627" lon="10.9761936"><ele>519.0</ele><time>2026-04-18T08:52:02.483Z</time></trkpt><trkpt lat="43.4191138" lon="10.9762693"><ele>519.0</ele><time>2026-04-18T08:52:03.475Z</time></trkpt><trkpt lat="43.4189786" lon="10.9763226"><ele>519.0</ele><time>2026-04-18T08:52:04.476Z</time></trkpt><trkpt lat="43.4188472" lon="10.976353"><ele>519.0</ele><time>2026-04-18T08:52:05.488Z</time></trkpt><trkpt lat="43.418746" lon="10.976328"><ele>520.0</ele><time>2026-04-18T08:52:06.481Z</time></trkpt><trkpt lat="43.4186661" lon="10.9762494"><ele>521.0</ele><time>2026-04-18T08:52:07.476Z</time></trkpt><trkpt lat="43.418577" lon="10.9761816"><ele>522.0</ele><time>2026-04-18T08:52:08.49Z</time></trkpt><trkpt lat="43.418489" lon="10.976118"><ele>523.0</ele><time>2026-04-18T08:52:09.484Z</time></trkpt><trkpt lat="43.4184077" lon="10.9760558"><ele>524.0</ele><time>2026-04-18T08:52:10.492Z</time></trkpt><trkpt lat="43.418325" lon="10.9760185"><ele>524.0</ele><time>2026-04-18T08:52:11.474Z</time></trkpt><trkpt lat="43.4182473" lon="10.9759957"><ele>524.0</ele><time>2026-04-18T08:52:12.491Z</time></trkpt><trkpt lat="43.4181715" lon="10.9759962"><ele>524.0</ele><time>2026-04-18T08:52:13.481Z</time></trkpt><trkpt lat="43.4180842" lon="10.9760166"><ele>524.0</ele><time>2026-04-18T08:52:14.473Z</time></trkpt><trkpt lat="43.417988" lon="10.9760528"><ele>524.0</ele><time>2026-04-18T08:52:15.482Z</time></trkpt><trkpt lat="43.4178942" lon="10.9760781"><ele>524.0</ele><time>2026-04-18T08:52:16.477Z</time></trkpt><trkpt lat="43.417795" lon="10.9760936"><ele>524.6</ele><time>2026-04-18T08:52:17.481Z</time></trkpt><trkpt lat="43.4176942" lon="10.9761082"><ele>525.2</ele><time>2026-04-18T08:52:18.477Z</time></trkpt><trkpt lat="43.4175935" lon="10.9761363"><ele>525.8000000000001</ele><time>2026-04-18T08:52:19.483Z</time></trkpt><trkpt lat="43.4174911" lon="10.9761851"><ele>526.4</ele><time>2026-04-18T08:52:20.486Z</time></trkpt><trkpt lat="43.4174116" lon="10.9762606"><ele>527.0</ele><time>2026-04-18T08:52:21.477Z</time></trkpt><trkpt lat="43.4173394" lon="10.976333"><ele>527.0</ele><time>2026-04-18T08:52:22.485Z</time></trkpt><trkpt lat="43.417264" lon="10.9763742"><ele>527.0</ele><time>2026-04-18T08:52:23.486Z</time></trkpt><trkpt lat="43.417177" lon="10.9763739"><ele>527.0</ele><time>2026-04-18T08:52:24.481Z</time></trkpt><trkpt lat="43.4170883" lon="10.9763601"><ele>527.0</ele><time>2026-04-18T08:52:25.481Z</time></trkpt><trkpt lat="43.4170066" lon="10.9763075"><ele>527.0</ele><time>2026-04-18T08:52:26.484Z</time></trkpt><trkpt lat="43.416907" lon="10.9762658"><ele>526.25</ele><time>2026-04-18T08:52:27.485Z</time></trkpt><trkpt lat="43.4168011" lon="10.976255"><ele>525.5</ele><time>2026-04-18T08:52:28.486Z</time></trkpt><trkpt lat="43.4166942" lon="10.9762631"><ele>524.75</ele><time>2026-04-18T08:52:29.48Z</time></trkpt><trkpt lat="43.4165802" lon="10.976293"><ele>524.0</ele><time>2026-04-18T08:52:30.481Z</time></trkpt><trkpt lat="43.4164703" lon="10.9763658"><ele>524.0</ele><time>2026-04-18T08:52:31.491Z</time></trkpt><trkpt lat="43.4163665" lon="10.9764357"><ele>524.0</ele><time>2026-04-18T08:52:32.474Z</time></trkpt><trkpt lat="43.4162832" lon="10.9765405"><ele>524.0</ele><time>2026-04-18T08:52:33.485Z</time></trkpt><trkpt lat="43.4162339" lon="10.976661"><ele>524.0</ele><time>2026-04-18T08:52:34.474Z</time></trkpt><trkpt lat="43.4161922" lon="10.9767923"><ele>524.0</ele><time>2026-04-18T08:52:35.481Z</time></trkpt><trkpt lat="43.4161544" lon="10.9769187"><ele>524.5</ele><time>2026-04-18T08:52:36.478Z</time></trkpt><trkpt lat="43.4161297" lon="10.9770147"><ele>525.0</ele><time>2026-04-18T08:52:37.476Z</time></trkpt><trkpt lat="43.4160864" lon="10.9771366"><ele>525.5</ele><time>2026-04-18T08:52:39.473Z</time></trkpt><trkpt lat="43.4160335" lon="10.9770867"><ele>526.0</ele><time>2026-04-18T08:52:43.477Z</time></trkpt><trkpt lat="43.4160785" lon="10.9769841"><ele>526.5</ele><time>2026-04-18T08:52:46.476Z</time></trkpt><trkpt lat="43.4161123" lon="10.9768901"><ele>527.0</ele><time>2026-04-18T08:52:48.475Z</time></trkpt><trkpt lat="43.4161376" lon="10.9767838"><ele>526.4</ele><time>2026-04-18T08:52:50.473Z</time></trkpt><trkpt lat="43.4161873" lon="10.9766366"><ele>525.8000000000001</ele><time>2026-04-18T08:52:52.47Z</time></trkpt><trkpt lat="43.4162373" lon="10.976489"><ele>525.2</ele><time>2026-04-18T08:52:54.479Z</time></trkpt><trkpt lat="43.4162631" lon="10.9764029"><ele>524.6</ele><time>2026-04-18T08:52:55.483Z</time></trkpt><trkpt lat="43.4162966" lon="10.9763034"><ele>524.0</ele><time>2026-04-18T08:52:56.481Z</time></trkpt><trkpt lat="43.4163479" lon="10.9762025"><ele>524.0</ele><time>2026-04-18T08:52:57.474Z</time></trkpt><trkpt lat="43.4163967" lon="10.9760971"><ele>524.0</ele><time>2026-04-18T08:52:58.476Z</time></trkpt><trkpt lat="43.4164492" lon="10.9759942"><ele>524.0</ele><time>2026-04-18T08:52:59.476Z</time></trkpt><trkpt lat="43.4165093" lon="10.9759032"><ele>524.0</ele><time>2026-04-18T08:53:00.478Z</time></trkpt><trkpt lat="43.4165794" lon="10.9758171"><ele>524.0</ele><time>2026-04-18T08:53:01.474Z</time></trkpt><trkpt lat="43.4166632" lon="10.9757351"><ele>521.4</ele><time>2026-04-18T08:53:02.475Z</time></trkpt><trkpt lat="43.4167493" lon="10.9756628"><ele>518.8</ele><time>2026-04-18T08:53:03.476Z</time></trkpt><trkpt lat="43.4168418" lon="10.9756047"><ele>516.2</ele><time>2026-04-18T08:53:04.471Z</time></trkpt><trkpt lat="43.4169229" lon="10.9755653"><ele>513.6</ele><time>2026-04-18T08:53:05.477Z</time></trkpt><trkpt lat="43.4170004" lon="10.9755151"><ele>511.0</ele><time>2026-04-18T08:53:06.474Z</time></trkpt><trkpt lat="43.4170782" lon="10.9754529"><ele>511.20000000000005</ele><time>2026-04-18T08:53:07.469Z</time></trkpt><trkpt lat="43.4171558" lon="10.9753751"><ele>511.40000000000003</ele><time>2026-04-18T08:53:08.484Z</time></trkpt><trkpt lat="43.4172309" lon="10.9752892"><ele>511.6</ele><time>2026-04-18T08:53:09.475Z</time></trkpt><trkpt lat="43.4172961" lon="10.975192"><ele>511.8</ele><time>2026-04-18T08:53:10.482Z</time></trkpt><trkpt lat="43.4173605" lon="10.9750907"><ele>512.0</ele><time>2026-04-18T08:53:11.48Z</time></trkpt><trkpt lat="43.4174324" lon="10.9749906"><ele>509.20000000000005</ele><time>2026-04-18T08:53:12.478Z</time></trkpt><trkpt lat="43.4175101" lon="10.9748927"><ele>506.40000000000003</ele><time>2026-04-18T08:53:13.476Z</time></trkpt><trkpt lat="43.417589" lon="10.974806"><ele>503.59999999999997</ele><time>2026-04-18T08:53:14.478Z</time></trkpt><trkpt lat="43.4176436" lon="10.9747216"><ele>500.79999999999995</ele><time>2026-04-18T08:53:15.487Z</time></trkpt><trkpt lat="43.417679" lon="10.9746229"><ele>498.0</ele><time>2026-04-18T08:53:16.509Z</time></trkpt><trkpt lat="43.4176966" lon="10.9744557"><ele>498.0</ele><time>2026-04-18T08:53:18.482Z</time></trkpt><trkpt lat="43.4176725" lon="10.9743433"><ele>497.99999999999994</ele><time>2026-04-18T08:53:19.476Z</time></trkpt><trkpt lat="43.4176227" lon="10.9742138"><ele>497.99999999999994</ele><time>2026-04-18T08:53:20.476Z</time></trkpt><trkpt lat="43.4175603" lon="10.9740795"><ele>498.0</ele><time>2026-04-18T08:53:21.478Z</time></trkpt><trkpt lat="43.4175008" lon="10.9739382"><ele>498.0</ele><time>2026-04-18T08:53:22.479Z</time></trkpt><trkpt lat="43.4174359" lon="10.9738054"><ele>495.0</ele><time>2026-04-18T08:53:23.489Z</time></trkpt><trkpt lat="43.4173694" lon="10.9736595"><ele>492.0</ele><time>2026-04-18T08:53:24.486Z</time></trkpt><trkpt lat="43.4172904" lon="10.9735142"><ele>489.0</ele><time>2026-04-18T08:53:25.499Z</time></trkpt><trkpt lat="43.4172204" lon="10.9733707"><ele>486.0</ele><time>2026-04-18T08:53:26.479Z</time></trkpt><trkpt lat="43.4171489" lon="10.9732201"><ele>483.5</ele><time>2026-04-18T08:53:27.471Z</time></trkpt><trkpt lat="43.4170892" lon="10.9730533"><ele>481.0</ele><time>2026-04-18T08:53:28.479Z</time></trkpt><trkpt lat="43.4170265" lon="10.972888"><ele>478.5</ele><time>2026-04-18T08:53:29.485Z</time></trkpt><trkpt lat="43.4169756" lon="10.9727079"><ele>476.0</ele><time>2026-04-18T08:53:30.486Z</time></trkpt><trkpt lat="43.4169239" lon="10.9725326"><ele>475.75</ele><time>2026-04-18T08:53:31.482Z</time></trkpt><trkpt lat="43.4168717" lon="10.9723476"><ele>475.5</ele><time>2026-04-18T08:53:32.481Z</time></trkpt><trkpt lat="43.4168185" lon="10.9721696"><ele>475.25</ele><time>2026-04-18T08:53:33.477Z</time></trkpt><trkpt lat="43.4167788" lon="10.9719898"><ele>475.0</ele><time>2026-04-18T08:53:34.488Z</time></trkpt><trkpt lat="43.4167357" lon="10.9718136"><ele>475.75</ele><time>2026-04-18T08:53:35.481Z</time></trkpt><trkpt lat="43.4166906" lon="10.9716416"><ele>476.5</ele><time>2026-04-18T08:53:36.482Z</time></trkpt><trkpt lat="43.416638" lon="10.9714732"><ele>477.25</ele><time>2026-04-18T08:53:37.492Z</time></trkpt><trkpt lat="43.416567" lon="10.9712978"><ele>478.0</ele><time>2026-04-18T08:53:38.479Z</time></trkpt><trkpt lat="43.416506" lon="10.9711491"><ele>478.0</ele><time>2026-04-18T08:53:39.492Z</time></trkpt><trkpt lat="43.4164274" lon="10.9709944"><ele>478.0</ele><time>2026-04-18T08:53:40.48Z</time></trkpt><trkpt lat="43.4163454" lon="10.9708417"><ele>478.0</ele><time>2026-04-18T08:53:41.479Z</time></trkpt><trkpt lat="43.4162658" lon="10.9706828"><ele>478.0</ele><time>2026-04-18T08:53:42.484Z</time></trkpt><trkpt lat="43.4161869" lon="10.970521"><ele>478.5</ele><time>2026-04-18T08:53:43.48Z</time></trkpt><trkpt lat="43.4160939" lon="10.970357"><ele>479.0</ele><time>2026-04-18T08:53:44.475Z</time></trkpt><trkpt lat="43.416005" lon="10.9701946"><ele>479.5</ele><time>2026-04-18T08:53:45.487Z</time></trkpt><trkpt lat="43.4159107" lon="10.9700333"><ele>480.0</ele><time>2026-04-18T08:53:46.473Z</time></trkpt><trkpt lat="43.4158151" lon="10.9698746"><ele>480.0</ele><time>2026-04-18T08:53:47.484Z</time></trkpt><trkpt lat="43.4157235" lon="10.969723"><ele>480.0</ele><time>2026-04-18T08:53:48.49Z</time></trkpt><trkpt lat="43.4156381" lon="10.9695787"><ele>480.0</ele><time>2026-04-18T08:53:49.489Z</time></trkpt><trkpt lat="43.4155622" lon="10.9694417"><ele>480.0</ele><time>2026-04-18T08:53:50.482Z</time></trkpt><trkpt lat="43.4155046" lon="10.9693016"><ele>479.0</ele><time>2026-04-18T08:53:51.483Z</time></trkpt><trkpt lat="43.4154624" lon="10.9691708"><ele>478.0</ele><time>2026-04-18T08:53:52.482Z</time></trkpt><trkpt lat="43.4154377" lon="10.9690452"><ele>477.0</ele><time>2026-04-18T08:53:53.486Z</time></trkpt><trkpt lat="43.4154385" lon="10.9689104"><ele>476.0</ele><time>2026-04-18T08:53:54.484Z</time></trkpt><trkpt lat="43.4154499" lon="10.9687837"><ele>475.0</ele><time>2026-04-18T08:53:55.492Z</time></trkpt><trkpt lat="43.4154568" lon="10.9686518"><ele>475.0</ele><time>2026-04-18T08:53:56.486Z</time></trkpt><trkpt lat="43.4154707" lon="10.9684946"><ele>475.0</ele><time>2026-04-18T08:53:57.475Z</time></trkpt><trkpt lat="43.4154885" lon="10.9683113"><ele>475.0</ele><time>2026-04-18T08:53:58.492Z</time></trkpt><trkpt lat="43.4155103" lon="10.9681288"><ele>475.0</ele><time>2026-04-18T08:53:59.479Z</time></trkpt><trkpt lat="43.4155141" lon="10.9679233"><ele>475.25</ele><time>2026-04-18T08:54:00.486Z</time></trkpt><trkpt lat="43.415525" lon="10.9677481"><ele>475.5</ele><time>2026-04-18T08:54:01.488Z</time></trkpt><trkpt lat="43.4155358" lon="10.9675753"><ele>475.75</ele><time>2026-04-18T08:54:02.487Z</time></trkpt><trkpt lat="43.415546" lon="10.9674097"><ele>476.0</ele><time>2026-04-18T08:54:03.475Z</time></trkpt><trkpt lat="43.415549" lon="10.9672515"><ele>477.6</ele><time>2026-04-18T08:54:04.5Z</time></trkpt><trkpt lat="43.4155576" lon="10.9670977"><ele>479.20000000000005</ele><time>2026-04-18T08:54:05.482Z</time></trkpt><trkpt lat="43.4155752" lon="10.9669593"><ele>480.79999999999995</ele><time>2026-04-18T08:54:06.471Z</time></trkpt><trkpt lat="43.4155994" lon="10.9668281"><ele>482.4</ele><time>2026-04-18T08:54:07.491Z</time></trkpt><trkpt lat="43.4156204" lon="10.9667038"><ele>484.0</ele><time>2026-04-18T08:54:08.478Z</time></trkpt><trkpt lat="43.4156551" lon="10.9665761"><ele>485.4</ele><time>2026-04-18T08:54:09.484Z</time></trkpt><trkpt lat="43.415673" lon="10.966438"><ele>486.79999999999995</ele><time>2026-04-18T08:54:10.476Z</time></trkpt><trkpt lat="43.4156694" lon="10.9662999"><ele>488.20000000000005</ele><time>2026-04-18T08:54:11.48Z</time></trkpt><trkpt lat="43.4156564" lon="10.9661561"><ele>489.6</ele><time>2026-04-18T08:54:12.476Z</time></trkpt><trkpt lat="43.4156328" lon="10.9660079"><ele>491.0</ele><time>2026-04-18T08:54:13.478Z</time></trkpt><trkpt lat="43.4155997" lon="10.9658612"><ele>491.6</ele><time>2026-04-18T08:54:14.482Z</time></trkpt><trkpt lat="43.4155735" lon="10.965709"><ele>492.20000000000005</ele><time>2026-04-18T08:54:15.486Z</time></trkpt><trkpt lat="43.4155565" lon="10.9655612"><ele>492.79999999999995</ele><time>2026-04-18T08:54:16.483Z</time></trkpt><trkpt lat="43.4155483" lon="10.9654185"><ele>493.4</ele><time>2026-04-18T08:54:17.49Z</time></trkpt><trkpt lat="43.4155595" lon="10.9652686"><ele>494.0</ele><time>2026-04-18T08:54:18.48Z</time></trkpt><trkpt lat="43.4155736" lon="10.9651348"><ele>494.49999999999994</ele><time>2026-04-18T08:54:19.481Z</time></trkpt><trkpt lat="43.4155977" lon="10.9650168"><ele>495.0</ele><time>2026-04-18T08:54:20.488Z</time></trkpt><trkpt lat="43.4156239" lon="10.9649133"><ele>495.5</ele><time>2026-04-18T08:54:21.481Z</time></trkpt><trkpt lat="43.4156481" lon="10.9648145"><ele>496.0</ele><time>2026-04-18T08:54:22.488Z</time></trkpt><trkpt lat="43.4156892" lon="10.9646918"><ele>496.49999999999994</ele><time>2026-04-18T08:54:24.491Z</time></trkpt><trkpt lat="43.415664" lon="10.9646089"><ele>497.0</ele><time>2026-04-18T08:54:49.485Z</time></trkpt><trkpt lat="43.4156195" lon="10.964491"><ele>496.99999999999994</ele><time>2026-04-18T08:54:52.477Z</time></trkpt><trkpt lat="43.4155657" lon="10.9643926"><ele>497.0</ele><time>2026-04-18T08:54:54.49Z</time></trkpt><trkpt lat="43.4155108" lon="10.9643069"><ele>497.0</ele><time>2026-04-18T08:54:56.487Z</time></trkpt><trkpt lat="43.4154591" lon="10.9642226"><ele>497.0</ele><time>2026-04-18T08:54:58.48Z</time></trkpt><trkpt lat="43.415396" lon="10.9641408"><ele>496.99999999999994</ele><time>2026-04-18T08:55:00.484Z</time></trkpt><trkpt lat="43.4153258" lon="10.9640666"><ele>497.0</ele><time>2026-04-18T08:55:02.486Z</time></trkpt><trkpt lat="43.4152489" lon="10.9640112"><ele>496.0</ele><time>2026-04-18T08:55:04.488Z</time></trkpt><trkpt lat="43.4151617" lon="10.9639593"><ele>495.00000000000006</ele><time>2026-04-18T08:55:06.493Z</time></trkpt><trkpt lat="43.4150729" lon="10.9638904"><ele>494.00000000000006</ele><time>2026-04-18T08:55:08.476Z</time></trkpt><trkpt lat="43.4149889" lon="10.9637973"><ele>493.0</ele><time>2026-04-18T08:55:10.481Z</time></trkpt><trkpt lat="43.4149043" lon="10.9637262"><ele>492.0</ele><time>2026-04-18T08:55:12.489Z</time></trkpt><trkpt lat="43.414791" lon="10.9636687"><ele>492.00000000000006</ele><time>2026-04-18T08:55:14.483Z</time></trkpt><trkpt lat="43.4147265" lon="10.9636427"><ele>492.0</ele><time>2026-04-18T08:55:15.483Z</time></trkpt><trkpt lat="43.4146623" lon="10.9636174"><ele>492.00000000000006</ele><time>2026-04-18T08:55:16.486Z</time></trkpt><trkpt lat="43.414589" lon="10.9635956"><ele>492.00000000000006</ele><time>2026-04-18T08:55:17.492Z</time></trkpt><trkpt lat="43.4145168" lon="10.9635655"><ele>492.0</ele><time>2026-04-18T08:55:18.488Z</time></trkpt><trkpt lat="43.4144407" lon="10.9635464"><ele>492.00000000000006</ele><time>2026-04-18T08:55:19.487Z</time></trkpt><trkpt lat="43.4143675" lon="10.9635251"><ele>492.00000000000006</ele><time>2026-04-18T08:55:20.486Z</time></trkpt><trkpt lat="43.4142953" lon="10.9634923"><ele>489.6</ele><time>2026-04-18T08:55:21.487Z</time></trkpt><trkpt lat="43.4141811" lon="10.9634215"><ele>487.20000000000005</ele><time>2026-04-18T08:55:23.495Z</time></trkpt><trkpt lat="43.4141337" lon="10.9633591"><ele>484.8</ele><time>2026-04-18T08:55:24.482Z</time></trkpt><trkpt lat="43.4140696" lon="10.9631983"><ele>482.4</ele><time>2026-04-18T08:55:26.478Z</time></trkpt><trkpt lat="43.4140438" lon="10.963103"><ele>480.0</ele><time>2026-04-18T08:55:27.488Z</time></trkpt><trkpt lat="43.41402" lon="10.9630143"><ele>480.0</ele><time>2026-04-18T08:55:28.476Z</time></trkpt><trkpt lat="43.4139385" lon="10.962879"><ele>480.0</ele><time>2026-04-18T08:55:30.49Z</time></trkpt><trkpt lat="43.4138616" lon="10.9628689"><ele>480.0</ele><time>2026-04-18T08:55:31.513Z</time></trkpt><trkpt lat="43.4137973" lon="10.9629095"><ele>480.0</ele><time>2026-04-18T08:55:32.498Z</time></trkpt><trkpt lat="43.4137366" lon="10.962962"><ele>480.0</ele><time>2026-04-18T08:55:33.489Z</time></trkpt><trkpt lat="43.4136817" lon="10.9630161"><ele>480.0</ele><time>2026-04-18T08:55:34.478Z</time></trkpt><trkpt lat="43.4136241" lon="10.9630585"><ele>478.0</ele><time>2026-04-18T08:55:35.482Z</time></trkpt><trkpt lat="43.4135548" lon="10.9630922"><ele>476.0</ele><time>2026-04-18T08:55:36.489Z</time></trkpt><trkpt lat="43.4134738" lon="10.9631202"><ele>474.0</ele><time>2026-04-18T08:55:37.487Z</time></trkpt><trkpt lat="43.4133908" lon="10.9631284"><ele>472.0</ele><time>2026-04-18T08:55:38.473Z</time></trkpt><trkpt lat="43.4133038" lon="10.9631187"><ele>470.0</ele><time>2026-04-18T08:55:39.487Z</time></trkpt><trkpt lat="43.4132219" lon="10.9630792"><ele>468.0</ele><time>2026-04-18T08:55:40.477Z</time></trkpt><trkpt lat="43.4131535" lon="10.9630093"><ele>468.0</ele><time>2026-04-18T08:55:41.478Z</time></trkpt><trkpt lat="43.413087" lon="10.9629381"><ele>467.99999999999994</ele><time>2026-04-18T08:55:42.48Z</time></trkpt><trkpt lat="43.4130176" lon="10.9628541"><ele>467.99999999999994</ele><time>2026-04-18T08:55:43.478Z</time></trkpt><trkpt lat="43.4129416" lon="10.9627708"><ele>468.0</ele><time>2026-04-18T08:55:44.471Z</time></trkpt><trkpt lat="43.4128699" lon="10.9626811"><ele>468.0</ele><time>2026-04-18T08:55:45.474Z</time></trkpt><trkpt lat="43.4128081" lon="10.9626042"><ele>465.3333333333333</ele><time>2026-04-18T08:55:46.483Z</time></trkpt><trkpt lat="43.4127574" lon="10.9625374"><ele>462.66666666666663</ele><time>2026-04-18T08:55:47.486Z</time></trkpt><trkpt lat="43.4127098" lon="10.9624677"><ele>460.0</ele><time>2026-04-18T08:55:48.494Z</time></trkpt><trkpt lat="43.4126657" lon="10.9623154"><ele>457.3333333333333</ele><time>2026-04-18T08:55:50.486Z</time></trkpt><trkpt lat="43.4126709" lon="10.9622215"><ele>454.66666666666663</ele><time>2026-04-18T08:55:51.477Z</time></trkpt><trkpt lat="43.4126828" lon="10.9621147"><ele>452.0</ele><time>2026-04-18T08:55:52.49Z</time></trkpt><trkpt lat="43.4126964" lon="10.9620095"><ele>451.66666666666663</ele><time>2026-04-18T08:55:53.482Z</time></trkpt><trkpt lat="43.412709" lon="10.9618879"><ele>451.3333333333333</ele><time>2026-04-18T08:55:54.476Z</time></trkpt><trkpt lat="43.4127332" lon="10.9617635"><ele>451.0</ele><time>2026-04-18T08:55:55.553Z</time></trkpt><trkpt lat="43.4127617" lon="10.9616354"><ele>450.66666666666663</ele><time>2026-04-18T08:55:56.51Z</time></trkpt><trkpt lat="43.4127883" lon="10.961526"><ele>450.3333333333333</ele><time>2026-04-18T08:55:57.521Z</time></trkpt><trkpt lat="43.4128033" lon="10.9614181"><ele>450.0</ele><time>2026-04-18T08:55:58.524Z</time></trkpt><trkpt lat="43.4128097" lon="10.961306"><ele>449.1666666666667</ele><time>2026-04-18T08:55:59.521Z</time></trkpt><trkpt lat="43.4128089" lon="10.9612096"><ele>448.33333333333337</ele><time>2026-04-18T08:56:00.531Z</time></trkpt><trkpt lat="43.4127999" lon="10.9610917"><ele>447.5</ele><time>2026-04-18T08:56:01.521Z</time></trkpt><trkpt lat="43.4127845" lon="10.9609751"><ele>446.6666666666667</ele><time>2026-04-18T08:56:02.563Z</time></trkpt><trkpt lat="43.4127576" lon="10.96085"><ele>445.83333333333337</ele><time>2026-04-18T08:56:03.51Z</time></trkpt><trkpt lat="43.4127369" lon="10.960706"><ele>445.0</ele><time>2026-04-18T08:56:04.518Z</time></trkpt><trkpt lat="43.4127324" lon="10.9605683"><ele>442.4</ele><time>2026-04-18T08:56:05.525Z</time></trkpt><trkpt lat="43.412729" lon="10.9604274"><ele>439.8</ele><time>2026-04-18T08:56:06.515Z</time></trkpt><trkpt lat="43.4127265" lon="10.9602834"><ele>437.20000000000005</ele><time>2026-04-18T08:56:07.526Z</time></trkpt><trkpt lat="43.4127329" lon="10.9601235"><ele>434.6</ele><time>2026-04-18T08:56:08.523Z</time></trkpt><trkpt lat="43.4127488" lon="10.9599706"><ele>432.0</ele><time>2026-04-18T08:56:09.518Z</time></trkpt><trkpt lat="43.4127754" lon="10.9598072"><ele>429.5</ele><time>2026-04-18T08:56:10.524Z</time></trkpt><trkpt lat="43.4128094" lon="10.9596498"><ele>427.0</ele><time>2026-04-18T08:56:11.518Z</time></trkpt><trkpt lat="43.4128498" lon="10.9594894"><ele>424.5</ele><time>2026-04-18T08:56:12.524Z</time></trkpt><trkpt lat="43.4128926" lon="10.9593361"><ele>422.0</ele><time>2026-04-18T08:56:13.52Z</time></trkpt><trkpt lat="43.4129171" lon="10.9592022"><ele>420.0</ele><time>2026-04-18T08:56:14.518Z</time></trkpt><trkpt lat="43.4129277" lon="10.9590869"><ele>418.0</ele><time>2026-04-18T08:56:15.522Z</time></trkpt><trkpt lat="43.4129252" lon="10.9589611"><ele>416.0</ele><time>2026-04-18T08:56:16.52Z</time></trkpt><trkpt lat="43.4128985" lon="10.9588379"><ele>414.0</ele><time>2026-04-18T08:56:17.535Z</time></trkpt><trkpt lat="43.4128774" lon="10.9587136"><ele>412.0</ele><time>2026-04-18T08:56:18.52Z</time></trkpt><trkpt lat="43.4128484" lon="10.9585832"><ele>412.0</ele><time>2026-04-18T08:56:19.514Z</time></trkpt><trkpt lat="43.4128227" lon="10.9584452"><ele>412.0</ele><time>2026-04-18T08:56:20.535Z</time></trkpt><trkpt lat="43.4127825" lon="10.9582868"><ele>412.0</ele><time>2026-04-18T08:56:21.539Z</time></trkpt><trkpt lat="43.4127436" lon="10.9581194"><ele>412.0</ele><time>2026-04-18T08:56:22.542Z</time></trkpt><trkpt lat="43.4127068" lon="10.957949"><ele>410.0</ele><time>2026-04-18T08:56:23.551Z</time></trkpt><trkpt lat="43.4126578" lon="10.9577742"><ele>408.0</ele><time>2026-04-18T08:56:24.557Z</time></trkpt><trkpt lat="43.4126172" lon="10.9576665"><ele>406.0</ele><time>2026-04-18T08:56:25.543Z</time></trkpt><trkpt lat="43.4125757" lon="10.9574976"><ele>404.0</ele><time>2026-04-18T08:56:26.543Z</time></trkpt><trkpt lat="43.4125366" lon="10.9573362"><ele>402.0</ele><time>2026-04-18T08:56:27.531Z</time></trkpt><trkpt lat="43.4125058" lon="10.9571863"><ele>400.0</ele><time>2026-04-18T08:56:28.589Z</time></trkpt><trkpt lat="43.4124699" lon="10.9570542"><ele>398.0</ele><time>2026-04-18T08:56:29.541Z</time></trkpt><trkpt lat="43.4124386" lon="10.9569261"><ele>396.0</ele><time>2026-04-18T08:56:30.537Z</time></trkpt><trkpt lat="43.4124106" lon="10.956819"><ele>394.0</ele><time>2026-04-18T08:56:31.539Z</time></trkpt><trkpt lat="43.4123874" lon="10.9567235"><ele>393.1666666666667</ele><time>2026-04-18T08:56:32.536Z</time></trkpt><trkpt lat="43.4123765" lon="10.9566351"><ele>392.33333333333337</ele><time>2026-04-18T08:56:33.535Z</time></trkpt><trkpt lat="43.412405" lon="10.9564838"><ele>391.5</ele><time>2026-04-18T08:56:35.532Z</time></trkpt><trkpt lat="43.4124363" lon="10.9563135"><ele>390.66666666666663</ele><time>2026-04-18T08:56:37.536Z</time></trkpt><trkpt lat="43.4124377" lon="10.9562154"><ele>389.8333333333333</ele><time>2026-04-18T08:56:38.535Z</time></trkpt><trkpt lat="43.4124219" lon="10.9561249"><ele>389.0</ele><time>2026-04-18T08:56:39.523Z</time></trkpt><trkpt lat="43.4123763" lon="10.9560285"><ele>389.0</ele><time>2026-04-18T08:56:40.512Z</time></trkpt><trkpt lat="43.4123334" lon="10.9559311"><ele>389.0</ele><time>2026-04-18T08:56:41.523Z</time></trkpt><trkpt lat="43.412276" lon="10.9558442"><ele>389.0</ele><time>2026-04-18T08:56:42.53Z</time></trkpt><trkpt lat="43.4121676" lon="10.9557602"><ele>389.0</ele><time>2026-04-18T08:56:44.528Z</time></trkpt><trkpt lat="43.4120978" lon="10.955653"><ele>389.0</ele><time>2026-04-18T08:56:46.522Z</time></trkpt><trkpt lat="43.412102" lon="10.9555326"><ele>388.99999999999994</ele><time>2026-04-18T08:56:48.53Z</time></trkpt><trkpt lat="43.4121304" lon="10.9553596"><ele>389.0</ele><time>2026-04-18T08:56:50.536Z</time></trkpt><trkpt lat="43.4121417" lon="10.9552609"><ele>389.0</ele><time>2026-04-18T08:56:51.532Z</time></trkpt><trkpt lat="43.4121403" lon="10.9551392"><ele>389.0</ele><time>2026-04-18T08:56:52.539Z</time></trkpt><trkpt lat="43.41213" lon="10.9550355"><ele>388.99999999999994</ele><time>2026-04-18T08:56:53.536Z</time></trkpt><trkpt lat="43.4121099" lon="10.9549347"><ele>389.0</ele><time>2026-04-18T08:56:54.535Z</time></trkpt><trkpt lat="43.4120709" lon="10.9548302"><ele>390.79999999999995</ele><time>2026-04-18T08:56:55.526Z</time></trkpt><trkpt lat="43.4120316" lon="10.954732"><ele>392.59999999999997</ele><time>2026-04-18T08:56:56.535Z</time></trkpt><trkpt lat="43.4119925" lon="10.9546259"><ele>394.4</ele><time>2026-04-18T08:56:57.535Z</time></trkpt><trkpt lat="43.4119614" lon="10.9544996"><ele>396.2</ele><time>2026-04-18T08:56:58.525Z</time></trkpt><trkpt lat="43.4119413" lon="10.9543547"><ele>398.0</ele><time>2026-04-18T08:56:59.537Z</time></trkpt><trkpt lat="43.41194" lon="10.9542152"><ele>398.3333333333333</ele><time>2026-04-18T08:57:00.53Z</time></trkpt><trkpt lat="43.4119311" lon="10.9540886"><ele>398.66666666666663</ele><time>2026-04-18T08:57:01.555Z</time></trkpt><trkpt lat="43.4119199" lon="10.9539627"><ele>399.0</ele><time>2026-04-18T08:57:02.529Z</time></trkpt><trkpt lat="43.4119174" lon="10.9538433"><ele>399.33333333333337</ele><time>2026-04-18T08:57:03.525Z</time></trkpt><trkpt lat="43.4119127" lon="10.9537223"><ele>399.6666666666667</ele><time>2026-04-18T08:57:04.518Z</time></trkpt><trkpt lat="43.4118992" lon="10.9536061"><ele>400.0</ele><time>2026-04-18T08:57:05.534Z</time></trkpt><trkpt lat="43.4118106" lon="10.9535504"><ele>400.0</ele><time>2026-04-18T08:57:06.48Z</time></trkpt><trkpt lat="43.4118004" lon="10.9534155"><ele>400.0</ele><time>2026-04-18T08:57:07.487Z</time></trkpt><trkpt lat="43.4117955" lon="10.9532857"><ele>400.0</ele><time>2026-04-18T08:57:08.477Z</time></trkpt><trkpt lat="43.4117992" lon="10.9531376"><ele>400.0</ele><time>2026-04-18T08:57:09.476Z</time></trkpt><trkpt lat="43.4117929" lon="10.9529868"><ele>400.0</ele><time>2026-04-18T08:57:10.488Z</time></trkpt><trkpt lat="43.4117884" lon="10.9528471"><ele>401.2</ele><time>2026-04-18T08:57:11.472Z</time></trkpt><trkpt lat="43.4117889" lon="10.952692"><ele>402.4</ele><time>2026-04-18T08:57:12.487Z</time></trkpt><trkpt lat="43.4117885" lon="10.9525543"><ele>403.6</ele><time>2026-04-18T08:57:13.49Z</time></trkpt><trkpt lat="43.4117797" lon="10.9524279"><ele>404.8</ele><time>2026-04-18T08:57:14.49Z</time></trkpt><trkpt lat="43.4117689" lon="10.9522968"><ele>406.0</ele><time>2026-04-18T08:57:15.49Z</time></trkpt><trkpt lat="43.4117734" lon="10.9521616"><ele>407.20000000000005</ele><time>2026-04-18T08:57:16.478Z</time></trkpt><trkpt lat="43.4117715" lon="10.9520383"><ele>408.40000000000003</ele><time>2026-04-18T08:57:17.489Z</time></trkpt><trkpt lat="43.4117671" lon="10.9519078"><ele>409.6</ele><time>2026-04-18T08:57:18.485Z</time></trkpt><trkpt lat="43.4117588" lon="10.9517757"><ele>410.8</ele><time>2026-04-18T08:57:19.477Z</time></trkpt><trkpt lat="43.4117507" lon="10.9516422"><ele>412.0</ele><time>2026-04-18T08:57:20.489Z</time></trkpt><trkpt lat="43.4117435" lon="10.9515127"><ele>412.8</ele><time>2026-04-18T08:57:21.473Z</time></trkpt><trkpt lat="43.411734" lon="10.9513753"><ele>413.6</ele><time>2026-04-18T08:57:22.485Z</time></trkpt><trkpt lat="43.4117213" lon="10.9512306"><ele>414.40000000000003</ele><time>2026-04-18T08:57:23.479Z</time></trkpt><trkpt lat="43.4117065" lon="10.9510864"><ele>415.20000000000005</ele><time>2026-04-18T08:57:24.472Z</time></trkpt><trkpt lat="43.4116941" lon="10.950947"><ele>416.0</ele><time>2026-04-18T08:57:25.495Z</time></trkpt><trkpt lat="43.411685" lon="10.9508101"><ele>416.8</ele><time>2026-04-18T08:57:26.479Z</time></trkpt><trkpt lat="43.4116796" lon="10.950666"><ele>417.6</ele><time>2026-04-18T08:57:27.483Z</time></trkpt><trkpt lat="43.4116657" lon="10.9505328"><ele>418.4</ele><time>2026-04-18T08:57:28.492Z</time></trkpt><trkpt lat="43.4116511" lon="10.9504118"><ele>419.2</ele><time>2026-04-18T08:57:29.475Z</time></trkpt><trkpt lat="43.4116367" lon="10.9502882"><ele>420.0</ele><time>2026-04-18T08:57:30.479Z</time></trkpt><trkpt lat="43.4116156" lon="10.9501574"><ele>420.3333333333333</ele><time>2026-04-18T08:57:31.496Z</time></trkpt><trkpt lat="43.4115881" lon="10.9500344"><ele>420.66666666666663</ele><time>2026-04-18T08:57:32.484Z</time></trkpt><trkpt lat="43.4115645" lon="10.9499138"><ele>421.0</ele><time>2026-04-18T08:57:33.48Z</time></trkpt><trkpt lat="43.4115411" lon="10.9497974"><ele>421.3333333333333</ele><time>2026-04-18T08:57:34.477Z</time></trkpt><trkpt lat="43.4115167" lon="10.9496855"><ele>421.66666666666663</ele><time>2026-04-18T08:57:35.469Z</time></trkpt><trkpt lat="43.4114903" lon="10.9495742"><ele>422.0</ele><time>2026-04-18T08:57:36.476Z</time></trkpt><trkpt lat="43.4114554" lon="10.9494577"><ele>421.99999999999994</ele><time>2026-04-18T08:57:37.482Z</time></trkpt><trkpt lat="43.4114071" lon="10.9493596"><ele>422.0</ele><time>2026-04-18T08:57:38.485Z</time></trkpt><trkpt lat="43.4113626" lon="10.9492662"><ele>422.0</ele><time>2026-04-18T08:57:39.48Z</time></trkpt><trkpt lat="43.4113111" lon="10.9491933"><ele>422.0</ele><time>2026-04-18T08:57:40.478Z</time></trkpt><trkpt lat="43.4112519" lon="10.9491486"><ele>421.99999999999994</ele><time>2026-04-18T08:57:41.479Z</time></trkpt><trkpt lat="43.4111867" lon="10.9491024"><ele>422.0</ele><time>2026-04-18T08:57:42.48Z</time></trkpt><trkpt lat="43.4111256" lon="10.9490613"><ele>421.66666666666663</ele><time>2026-04-18T08:57:43.483Z</time></trkpt><trkpt lat="43.4110626" lon="10.9489978"><ele>421.3333333333333</ele><time>2026-04-18T08:57:44.481Z</time></trkpt><trkpt lat="43.4110182" lon="10.9489167"><ele>421.0</ele><time>2026-04-18T08:57:45.479Z</time></trkpt><trkpt lat="43.4109844" lon="10.948826"><ele>420.66666666666663</ele><time>2026-04-18T08:57:46.478Z</time></trkpt><trkpt lat="43.4109556" lon="10.948721"><ele>420.3333333333333</ele><time>2026-04-18T08:57:47.493Z</time></trkpt><trkpt lat="43.4109425" lon="10.9486039"><ele>420.0</ele><time>2026-04-18T08:57:48.485Z</time></trkpt><trkpt lat="43.4109349" lon="10.9484908"><ele>419.6</ele><time>2026-04-18T08:57:49.477Z</time></trkpt><trkpt lat="43.4109231" lon="10.9483641"><ele>419.2</ele><time>2026-04-18T08:57:50.487Z</time></trkpt><trkpt lat="43.4109074" lon="10.948225"><ele>418.79999999999995</ele><time>2026-04-18T08:57:51.476Z</time></trkpt><trkpt lat="43.4108975" lon="10.9480797"><ele>418.4</ele><time>2026-04-18T08:57:52.48Z</time></trkpt><trkpt lat="43.4108909" lon="10.9479426"><ele>418.0</ele><time>2026-04-18T08:57:53.483Z</time></trkpt><trkpt lat="43.4108891" lon="10.9477951"><ele>418.0</ele><time>2026-04-18T08:57:54.49Z</time></trkpt><trkpt lat="43.4108902" lon="10.9476487"><ele>418.0</ele><time>2026-04-18T08:57:55.484Z</time></trkpt><trkpt lat="43.4108968" lon="10.9475156"><ele>418.0</ele><time>2026-04-18T08:57:56.489Z</time></trkpt><trkpt lat="43.4109083" lon="10.9473854"><ele>418.0</ele><time>2026-04-18T08:57:57.476Z</time></trkpt><trkpt lat="43.4109225" lon="10.9472566"><ele>418.0</ele><time>2026-04-18T08:57:58.475Z</time></trkpt><trkpt lat="43.4109391" lon="10.9471302"><ele>418.79999999999995</ele><time>2026-04-18T08:57:59.48Z</time></trkpt><trkpt lat="43.4109482" lon="10.9470067"><ele>419.6</ele><time>2026-04-18T08:58:00.488Z</time></trkpt><trkpt lat="43.4109597" lon="10.9468779"><ele>420.4</ele><time>2026-04-18T08:58:01.482Z</time></trkpt><trkpt lat="43.4109809" lon="10.9467443"><ele>421.20000000000005</ele><time>2026-04-18T08:58:02.48Z</time></trkpt><trkpt lat="43.4109923" lon="10.9466112"><ele>422.0</ele><time>2026-04-18T08:58:03.484Z</time></trkpt><trkpt lat="43.4109985" lon="10.9464739"><ele>422.8</ele><time>2026-04-18T08:58:04.481Z</time></trkpt><trkpt lat="43.4110078" lon="10.9463358"><ele>423.6</ele><time>2026-04-18T08:58:05.494Z</time></trkpt><trkpt lat="43.4110149" lon="10.9461941"><ele>424.40000000000003</ele><time>2026-04-18T08:58:06.486Z</time></trkpt><trkpt lat="43.4110155" lon="10.9460413"><ele>425.20000000000005</ele><time>2026-04-18T08:58:07.495Z</time></trkpt><trkpt lat="43.4110144" lon="10.9458847"><ele>426.0</ele><time>2026-04-18T08:58:08.472Z</time></trkpt><trkpt lat="43.4110037" lon="10.9457261"><ele>426.0</ele><time>2026-04-18T08:58:09.485Z</time></trkpt><trkpt lat="43.4109867" lon="10.9455672"><ele>426.0</ele><time>2026-04-18T08:58:10.475Z</time></trkpt><trkpt lat="43.4109788" lon="10.945424"><ele>426.0</ele><time>2026-04-18T08:58:11.473Z</time></trkpt><trkpt lat="43.4109606" lon="10.9452798"><ele>426.0</ele><time>2026-04-18T08:58:12.483Z</time></trkpt><trkpt lat="43.4109448" lon="10.9451535"><ele>426.0</ele><time>2026-04-18T08:58:13.472Z</time></trkpt><trkpt lat="43.4109403" lon="10.9450272"><ele>426.0</ele><time>2026-04-18T08:58:14.494Z</time></trkpt><trkpt lat="43.410939" lon="10.9449182"><ele>426.0</ele><time>2026-04-18T08:58:15.476Z</time></trkpt><trkpt lat="43.4109296" lon="10.9448057"><ele>426.0</ele><time>2026-04-18T08:58:16.48Z</time></trkpt><trkpt lat="43.4109232" lon="10.9447059"><ele>426.0</ele><time>2026-04-18T08:58:17.467Z</time></trkpt><trkpt lat="43.4109147" lon="10.9446068"><ele>426.0</ele><time>2026-04-18T08:58:18.486Z</time></trkpt><trkpt lat="43.4108976" lon="10.9444249"><ele>426.0</ele><time>2026-04-18T08:58:20.485Z</time></trkpt><trkpt lat="43.4109036" lon="10.9442675"><ele>425.5</ele><time>2026-04-18T08:58:22.478Z</time></trkpt><trkpt lat="43.4109075" lon="10.9441264"><ele>425.0</ele><time>2026-04-18T08:58:24.481Z</time></trkpt><trkpt lat="43.4109009" lon="10.9440134"><ele>424.5</ele><time>2026-04-18T08:58:26.482Z</time></trkpt><trkpt lat="43.4108847" lon="10.9438456"><ele>424.0</ele><time>2026-04-18T08:58:28.473Z</time></trkpt><trkpt lat="43.4108795" lon="10.9437525"><ele>423.5</ele><time>2026-04-18T08:58:29.478Z</time></trkpt><trkpt lat="43.4108725" lon="10.9436567"><ele>423.0</ele><time>2026-04-18T08:58:30.49Z</time></trkpt><trkpt lat="43.4108629" lon="10.9435432"><ele>423.0</ele><time>2026-04-18T08:58:31.483Z</time></trkpt><trkpt lat="43.4108536" lon="10.9434163"><ele>423.0</ele><time>2026-04-18T08:58:32.504Z</time></trkpt><trkpt lat="43.4108473" lon="10.9432858"><ele>423.0</ele><time>2026-04-18T08:58:33.479Z</time></trkpt><trkpt lat="43.4108284" lon="10.9431374"><ele>423.0</ele><time>2026-04-18T08:58:34.493Z</time></trkpt><trkpt lat="43.4108026" lon="10.942981"><ele>423.0</ele><time>2026-04-18T08:58:35.477Z</time></trkpt><trkpt lat="43.4107699" lon="10.9428433"><ele>423.0</ele><time>2026-04-18T08:58:36.496Z</time></trkpt><trkpt lat="43.4107393" lon="10.9427288"><ele>423.0</ele><time>2026-04-18T08:58:37.49Z</time></trkpt><trkpt lat="43.4106974" lon="10.942592"><ele>423.0</ele><time>2026-04-18T08:58:38.49Z</time></trkpt><trkpt lat="43.4106594" lon="10.9424619"><ele>423.0</ele><time>2026-04-18T08:58:39.493Z</time></trkpt><trkpt lat="43.4106146" lon="10.9423236"><ele>423.0</ele><time>2026-04-18T08:58:40.511Z</time></trkpt><trkpt lat="43.4105758" lon="10.9421844"><ele>421.75</ele><time>2026-04-18T08:58:41.532Z</time></trkpt><trkpt lat="43.4105375" lon="10.9420305"><ele>420.5</ele><time>2026-04-18T08:58:42.487Z</time></trkpt><trkpt lat="43.4104928" lon="10.9418754"><ele>419.25</ele><time>2026-04-18T08:58:43.481Z</time></trkpt><trkpt lat="43.4104575" lon="10.9417292"><ele>418.0</ele><time>2026-04-18T08:58:44.475Z</time></trkpt><trkpt lat="43.4104281" lon="10.9415891"><ele>415.83333333333337</ele><time>2026-04-18T08:58:45.483Z</time></trkpt><trkpt lat="43.4104028" lon="10.9414556"><ele>413.6666666666667</ele><time>2026-04-18T08:58:46.482Z</time></trkpt><trkpt lat="43.4103708" lon="10.9413175"><ele>411.5</ele><time>2026-04-18T08:58:47.487Z</time></trkpt><trkpt lat="43.410344" lon="10.9411976"><ele>409.33333333333337</ele><time>2026-04-18T08:58:48.487Z</time></trkpt><trkpt lat="43.4103196" lon="10.9410842"><ele>407.1666666666667</ele><time>2026-04-18T08:58:49.488Z</time></trkpt><trkpt lat="43.4103003" lon="10.9410011"><ele>405.0</ele><time>2026-04-18T08:58:50.479Z</time></trkpt><trkpt lat="43.4103335" lon="10.9408606"><ele>404.5</ele><time>2026-04-18T08:58:52.486Z</time></trkpt><trkpt lat="43.410397" lon="10.9407406"><ele>404.0</ele><time>2026-04-18T08:58:54.504Z</time></trkpt><trkpt lat="43.4104971" lon="10.9406594"><ele>403.5</ele><time>2026-04-18T08:58:56.498Z</time></trkpt><trkpt lat="43.4106146" lon="10.9406349"><ele>403.0</ele><time>2026-04-18T08:58:58.481Z</time></trkpt><trkpt lat="43.410696" lon="10.9404904"><ele>403.0</ele><time>2026-04-18T08:59:00.495Z</time></trkpt><trkpt lat="43.4106921" lon="10.9403951"><ele>403.0</ele><time>2026-04-18T08:59:01.49Z</time></trkpt><trkpt lat="43.4106704" lon="10.9402661"><ele>403.0</ele><time>2026-04-18T08:59:02.48Z</time></trkpt><trkpt lat="43.4106626" lon="10.9401316"><ele>403.0</ele><time>2026-04-18T08:59:03.509Z</time></trkpt><trkpt lat="43.4106467" lon="10.9399812"><ele>403.0</ele><time>2026-04-18T08:59:04.473Z</time></trkpt><trkpt lat="43.4106431" lon="10.9398216"><ele>401.79999999999995</ele><time>2026-04-18T08:59:05.481Z</time></trkpt><trkpt lat="43.4106484" lon="10.9396713"><ele>400.6</ele><time>2026-04-18T08:59:06.471Z</time></trkpt><trkpt lat="43.4106363" lon="10.939533"><ele>399.4</ele><time>2026-04-18T08:59:07.483Z</time></trkpt><trkpt lat="43.4106346" lon="10.9394049"><ele>398.20000000000005</ele><time>2026-04-18T08:59:08.483Z</time></trkpt><trkpt lat="43.4106394" lon="10.9392962"><ele>397.0</ele><time>2026-04-18T08:59:09.48Z</time></trkpt><trkpt lat="43.4106532" lon="10.9391954"><ele>396.2857142857143</ele><time>2026-04-18T08:59:10.502Z</time></trkpt><trkpt lat="43.4106661" lon="10.9391085"><ele>395.57142857142856</ele><time>2026-04-18T08:59:11.476Z</time></trkpt><trkpt lat="43.4106782" lon="10.9390232"><ele>394.8571428571429</ele><time>2026-04-18T08:59:12.481Z</time></trkpt><trkpt lat="43.4106723" lon="10.9389363"><ele>394.1428571428571</ele><time>2026-04-18T08:59:13.493Z</time></trkpt><trkpt lat="43.4106609" lon="10.93884"><ele>393.42857142857144</ele><time>2026-04-18T08:59:14.488Z</time></trkpt><trkpt lat="43.4106511" lon="10.9387499"><ele>392.7142857142857</ele><time>2026-04-18T08:59:15.486Z</time></trkpt><trkpt lat="43.4106352" lon="10.938653"><ele>392.0</ele><time>2026-04-18T08:59:16.489Z</time></trkpt><trkpt lat="43.4106007" lon="10.938548"><ele>392.0</ele><time>2026-04-18T08:59:17.477Z</time></trkpt><trkpt lat="43.410565" lon="10.9384574"><ele>392.0</ele><time>2026-04-18T08:59:18.472Z</time></trkpt><trkpt lat="43.4105332" lon="10.9383735"><ele>392.0</ele><time>2026-04-18T08:59:19.493Z</time></trkpt><trkpt lat="43.4105009" lon="10.9382838"><ele>392.0</ele><time>2026-04-18T08:59:20.484Z</time></trkpt><trkpt lat="43.4104626" lon="10.9382094"><ele>392.0</ele><time>2026-04-18T08:59:21.503Z</time></trkpt><trkpt lat="43.4104016" lon="10.9381474"><ele>392.0</ele><time>2026-04-18T08:59:22.476Z</time></trkpt><trkpt lat="43.4103339" lon="10.938104"><ele>392.0</ele><time>2026-04-18T08:59:23.495Z</time></trkpt><trkpt lat="43.4102647" lon="10.9380785"><ele>391.0</ele><time>2026-04-18T08:59:24.49Z</time></trkpt><trkpt lat="43.4102013" lon="10.9380482"><ele>390.0</ele><time>2026-04-18T08:59:25.492Z</time></trkpt><trkpt lat="43.4101024" lon="10.9380158"><ele>389.0</ele><time>2026-04-18T08:59:27.488Z</time></trkpt><trkpt lat="43.4099869" lon="10.9379666"><ele>388.0</ele><time>2026-04-18T08:59:29.475Z</time></trkpt><trkpt lat="43.4098849" lon="10.9378825"><ele>387.0</ele><time>2026-04-18T08:59:31.488Z</time></trkpt><trkpt lat="43.409835" lon="10.9378101"><ele>387.0</ele><time>2026-04-18T08:59:32.5Z</time></trkpt><trkpt lat="43.4098144" lon="10.9377166"><ele>387.0</ele><time>2026-04-18T08:59:33.499Z</time></trkpt><trkpt lat="43.409816" lon="10.9376279"><ele>387.0</ele><time>2026-04-18T08:59:34.491Z</time></trkpt><trkpt lat="43.4098281" lon="10.9375289"><ele>387.0</ele><time>2026-04-18T08:59:35.488Z</time></trkpt><trkpt lat="43.4098298" lon="10.9374187"><ele>387.0</ele><time>2026-04-18T08:59:36.477Z</time></trkpt><trkpt lat="43.4098209" lon="10.9373015"><ele>387.0</ele><time>2026-04-18T08:59:37.501Z</time></trkpt><trkpt lat="43.4098168" lon="10.9371892"><ele>386.3333333333333</ele><time>2026-04-18T08:59:38.485Z</time></trkpt><trkpt lat="43.4098118" lon="10.9370792"><ele>385.6666666666667</ele><time>2026-04-18T08:59:39.491Z</time></trkpt><trkpt lat="43.4098122" lon="10.9369779"><ele>385.0</ele><time>2026-04-18T08:59:40.505Z</time></trkpt><trkpt lat="43.40982" lon="10.936888"><ele>384.33333333333337</ele><time>2026-04-18T08:59:41.501Z</time></trkpt><trkpt lat="43.4098337" lon="10.9368"><ele>383.6666666666667</ele><time>2026-04-18T08:59:42.493Z</time></trkpt><trkpt lat="43.409862" lon="10.9366549"><ele>383.0</ele><time>2026-04-18T08:59:44.489Z</time></trkpt><trkpt lat="43.4098422" lon="10.9364974"><ele>381.83333333333337</ele><time>2026-04-18T08:59:46.501Z</time></trkpt><trkpt lat="43.4098036" lon="10.936411"><ele>380.6666666666667</ele><time>2026-04-18T08:59:47.493Z</time></trkpt><trkpt lat="43.4097583" lon="10.9363232"><ele>379.5</ele><time>2026-04-18T08:59:48.489Z</time></trkpt><trkpt lat="43.4096996" lon="10.9362523"><ele>378.3333333333333</ele><time>2026-04-18T08:59:49.494Z</time></trkpt><trkpt lat="43.4096382" lon="10.9361784"><ele>377.16666666666663</ele><time>2026-04-18T08:59:50.489Z</time></trkpt><trkpt lat="43.4095775" lon="10.9361106"><ele>376.0</ele><time>2026-04-18T08:59:51.48Z</time></trkpt><trkpt lat="43.4095158" lon="10.9360365"><ele>375.8</ele><time>2026-04-18T08:59:52.499Z</time></trkpt><trkpt lat="43.4094395" lon="10.9359526"><ele>375.6</ele><time>2026-04-18T08:59:53.483Z</time></trkpt><trkpt lat="43.4093595" lon="10.9358626"><ele>375.4</ele><time>2026-04-18T08:59:54.487Z</time></trkpt><trkpt lat="43.4092868" lon="10.9357898"><ele>375.2</ele><time>2026-04-18T08:59:55.47Z</time></trkpt><trkpt lat="43.4092184" lon="10.9357263"><ele>375.0</ele><time>2026-04-18T08:59:56.486Z</time></trkpt><trkpt lat="43.4091447" lon="10.9356828"><ele>374.8333333333333</ele><time>2026-04-18T08:59:57.489Z</time></trkpt><trkpt lat="43.4090806" lon="10.9356394"><ele>374.6666666666667</ele><time>2026-04-18T08:59:58.488Z</time></trkpt><trkpt lat="43.4090228" lon="10.9355815"><ele>374.5</ele><time>2026-04-18T08:59:59.49Z</time></trkpt><trkpt lat="43.4089671" lon="10.9355291"><ele>374.33333333333337</ele><time>2026-04-18T09:00:00.484Z</time></trkpt><trkpt lat="43.4088873" lon="10.9354746"><ele>374.1666666666667</ele><time>2026-04-18T09:00:01.489Z</time></trkpt><trkpt lat="43.4088277" lon="10.9354146"><ele>374.0</ele><time>2026-04-18T09:00:02.491Z</time></trkpt><trkpt lat="43.4087644" lon="10.935333"><ele>372.83333333333337</ele><time>2026-04-18T09:00:03.476Z</time></trkpt><trkpt lat="43.4087199" lon="10.9352659"><ele>371.6666666666667</ele><time>2026-04-18T09:00:04.486Z</time></trkpt><trkpt lat="43.4086902" lon="10.9351517"><ele>370.5</ele><time>2026-04-18T09:00:05.484Z</time></trkpt><trkpt lat="43.4086586" lon="10.9350152"><ele>369.3333333333333</ele><time>2026-04-18T09:00:06.492Z</time></trkpt><trkpt lat="43.4086391" lon="10.934887"><ele>368.16666666666663</ele><time>2026-04-18T09:00:07.5Z</time></trkpt><trkpt lat="43.4086236" lon="10.9347854"><ele>367.0</ele><time>2026-04-18T09:00:08.483Z</time></trkpt><trkpt lat="43.4086054" lon="10.9346726"><ele>367.0</ele><time>2026-04-18T09:00:09.492Z</time></trkpt><trkpt lat="43.4085915" lon="10.9345652"><ele>367.0</ele><time>2026-04-18T09:00:10.485Z</time></trkpt><trkpt lat="43.4085913" lon="10.9344468"><ele>367.0</ele><time>2026-04-18T09:00:11.489Z</time></trkpt><trkpt lat="43.4085901" lon="10.9343104"><ele>367.0</ele><time>2026-04-18T09:00:12.49Z</time></trkpt><trkpt lat="43.4085805" lon="10.9341769"><ele>367.0</ele><time>2026-04-18T09:00:13.493Z</time></trkpt><trkpt lat="43.4085728" lon="10.9340392"><ele>367.0</ele><time>2026-04-18T09:00:14.48Z</time></trkpt><trkpt lat="43.4085513" lon="10.9339042"><ele>367.0</ele><time>2026-04-18T09:00:15.493Z</time></trkpt><trkpt lat="43.4085379" lon="10.9337498"><ele>367.0</ele><time>2026-04-18T09:00:16.487Z</time></trkpt><trkpt lat="43.4085212" lon="10.9335944"><ele>367.0</ele><time>2026-04-18T09:00:17.508Z</time></trkpt><trkpt lat="43.4085049" lon="10.9334506"><ele>367.0</ele><time>2026-04-18T09:00:18.498Z</time></trkpt><trkpt lat="43.4084883" lon="10.9333174"><ele>367.0</ele><time>2026-04-18T09:00:19.501Z</time></trkpt><trkpt lat="43.4084658" lon="10.9331927"><ele>367.0</ele><time>2026-04-18T09:00:20.498Z</time></trkpt><trkpt lat="43.408437" lon="10.93307"><ele>367.0</ele><time>2026-04-18T09:00:21.497Z</time></trkpt><trkpt lat="43.4083973" lon="10.9329483"><ele>367.0</ele><time>2026-04-18T09:00:22.498Z</time></trkpt><trkpt lat="43.408347" lon="10.9328267"><ele>367.0</ele><time>2026-04-18T09:00:23.5Z</time></trkpt><trkpt lat="43.4083027" lon="10.9326969"><ele>367.0</ele><time>2026-04-18T09:00:24.496Z</time></trkpt><trkpt lat="43.4082464" lon="10.9325805"><ele>367.0</ele><time>2026-04-18T09:00:25.484Z</time></trkpt><trkpt lat="43.4081917" lon="10.9324637"><ele>367.0</ele><time>2026-04-18T09:00:26.487Z</time></trkpt><trkpt lat="43.4081415" lon="10.9323486"><ele>367.0</ele><time>2026-04-18T09:00:27.493Z</time></trkpt><trkpt lat="43.4080902" lon="10.9322335"><ele>367.0</ele><time>2026-04-18T09:00:28.497Z</time></trkpt><trkpt lat="43.4080522" lon="10.9321117"><ele>366.8</ele><time>2026-04-18T09:00:29.49Z</time></trkpt><trkpt lat="43.4080152" lon="10.9319779"><ele>366.6</ele><time>2026-04-18T09:00:30.476Z</time></trkpt><trkpt lat="43.4079737" lon="10.9318589"><ele>366.40000000000003</ele><time>2026-04-18T09:00:31.488Z</time></trkpt><trkpt lat="43.407929" lon="10.9317312"><ele>366.20000000000005</ele><time>2026-04-18T09:00:32.491Z</time></trkpt><trkpt lat="43.4078821" lon="10.9316218"><ele>366.0</ele><time>2026-04-18T09:00:33.491Z</time></trkpt><trkpt lat="43.4078415" lon="10.9315209"><ele>366.0</ele><time>2026-04-18T09:00:34.498Z</time></trkpt><trkpt lat="43.4078" lon="10.9314363"><ele>366.0</ele><time>2026-04-18T09:00:35.507Z</time></trkpt><trkpt lat="43.4077466" lon="10.9313425"><ele>366.0</ele><time>2026-04-18T09:00:36.498Z</time></trkpt><trkpt lat="43.4076942" lon="10.9312487"><ele>366.0</ele><time>2026-04-18T09:00:37.491Z</time></trkpt><trkpt lat="43.4076515" lon="10.931142"><ele>366.0</ele><time>2026-04-18T09:00:38.497Z</time></trkpt><trkpt lat="43.4076087" lon="10.9310364"><ele>366.0</ele><time>2026-04-18T09:00:39.488Z</time></trkpt><trkpt lat="43.4075571" lon="10.930923"><ele>366.8333333333333</ele><time>2026-04-18T09:00:40.504Z</time></trkpt><trkpt lat="43.4075038" lon="10.9308204"><ele>367.6666666666667</ele><time>2026-04-18T09:00:41.493Z</time></trkpt><trkpt lat="43.4074486" lon="10.9307122"><ele>368.5</ele><time>2026-04-18T09:00:42.506Z</time></trkpt><trkpt lat="43.4074001" lon="10.9306153"><ele>369.33333333333337</ele><time>2026-04-18T09:00:43.489Z</time></trkpt><trkpt lat="43.4073703" lon="10.9305255"><ele>370.1666666666667</ele><time>2026-04-18T09:00:44.474Z</time></trkpt><trkpt lat="43.4073586" lon="10.9304345"><ele>371.0</ele><time>2026-04-18T09:00:45.485Z</time></trkpt><trkpt lat="43.4073534" lon="10.9303347"><ele>371.0</ele><time>2026-04-18T09:00:46.489Z</time></trkpt><trkpt lat="43.407355" lon="10.9302374"><ele>371.0</ele><time>2026-04-18T09:00:47.49Z</time></trkpt><trkpt lat="43.4073579" lon="10.9301311"><ele>371.0</ele><time>2026-04-18T09:00:48.495Z</time></trkpt><trkpt lat="43.4073662" lon="10.9300198"><ele>371.0</ele><time>2026-04-18T09:00:49.491Z</time></trkpt><trkpt lat="43.4073743" lon="10.9298832"><ele>371.0</ele><time>2026-04-18T09:00:50.487Z</time></trkpt><trkpt lat="43.4073749" lon="10.9297413"><ele>371.0</ele><time>2026-04-18T09:00:51.501Z</time></trkpt><trkpt lat="43.4073736" lon="10.9295988"><ele>371.0</ele><time>2026-04-18T09:00:52.493Z</time></trkpt><trkpt lat="43.4073757" lon="10.9294559"><ele>371.0</ele><time>2026-04-18T09:00:53.479Z</time></trkpt><trkpt lat="43.4073669" lon="10.9293155"><ele>371.0</ele><time>2026-04-18T09:00:54.484Z</time></trkpt><trkpt lat="43.4073574" lon="10.9291822"><ele>371.0</ele><time>2026-04-18T09:00:55.481Z</time></trkpt><trkpt lat="43.4073488" lon="10.9290505"><ele>371.0</ele><time>2026-04-18T09:00:56.485Z</time></trkpt><trkpt lat="43.4073379" lon="10.9289232"><ele>370.6</ele><time>2026-04-18T09:00:57.495Z</time></trkpt><trkpt lat="43.4073337" lon="10.9288066"><ele>370.20000000000005</ele><time>2026-04-18T09:00:58.498Z</time></trkpt><trkpt lat="43.407323" lon="10.9286697"><ele>369.79999999999995</ele><time>2026-04-18T09:00:59.505Z</time></trkpt><trkpt lat="43.4073027" lon="10.9285409"><ele>369.4</ele><time>2026-04-18T09:01:00.505Z</time></trkpt><trkpt lat="43.4072685" lon="10.9284222"><ele>369.0</ele><time>2026-04-18T09:01:01.489Z</time></trkpt><trkpt lat="43.4072118" lon="10.9283203"><ele>368.4</ele><time>2026-04-18T09:01:02.491Z</time></trkpt><trkpt lat="43.4071422" lon="10.9282301"><ele>367.79999999999995</ele><time>2026-04-18T09:01:03.485Z</time></trkpt><trkpt lat="43.4070728" lon="10.9281538"><ele>367.20000000000005</ele><time>2026-04-18T09:01:04.49Z</time></trkpt><trkpt lat="43.4070033" lon="10.9280632"><ele>366.6</ele><time>2026-04-18T09:01:05.48Z</time></trkpt><trkpt lat="43.4069385" lon="10.9279723"><ele>366.0</ele><time>2026-04-18T09:01:06.496Z</time></trkpt><trkpt lat="43.4068738" lon="10.9278923"><ele>366.0</ele><time>2026-04-18T09:01:07.486Z</time></trkpt><trkpt lat="43.4068056" lon="10.9278206"><ele>366.0</ele><time>2026-04-18T09:01:08.493Z</time></trkpt><trkpt lat="43.4067383" lon="10.9277546"><ele>366.0</ele><time>2026-04-18T09:01:09.489Z</time></trkpt><trkpt lat="43.4066855" lon="10.9276867"><ele>366.0</ele><time>2026-04-18T09:01:10.489Z</time></trkpt><trkpt lat="43.4066505" lon="10.9275975"><ele>366.0</ele><time>2026-04-18T09:01:11.506Z</time></trkpt><trkpt lat="43.4066167" lon="10.9274959"><ele>366.0</ele><time>2026-04-18T09:01:12.476Z</time></trkpt><trkpt lat="43.4065878" lon="10.9273553"><ele>368.5</ele><time>2026-04-18T09:01:13.483Z</time></trkpt><trkpt lat="43.4065492" lon="10.9271919"><ele>371.0</ele><time>2026-04-18T09:01:14.484Z</time></trkpt><trkpt lat="43.4065004" lon="10.9270161"><ele>373.5</ele><time>2026-04-18T09:01:15.479Z</time></trkpt><trkpt lat="43.4064373" lon="10.9268586"><ele>376.0</ele><time>2026-04-18T09:01:16.474Z</time></trkpt><trkpt lat="43.4063776" lon="10.9267206"><ele>376.5</ele><time>2026-04-18T09:01:17.478Z</time></trkpt><trkpt lat="43.4062928" lon="10.9266081"><ele>377.0</ele><time>2026-04-18T09:01:18.48Z</time></trkpt><trkpt lat="43.406205" lon="10.9265097"><ele>377.5</ele><time>2026-04-18T09:01:19.473Z</time></trkpt><trkpt lat="43.4061109" lon="10.9264207"><ele>378.0</ele><time>2026-04-18T09:01:20.48Z</time></trkpt><trkpt lat="43.4060229" lon="10.9263286"><ele>378.0</ele><time>2026-04-18T09:01:21.48Z</time></trkpt><trkpt lat="43.4059563" lon="10.9262354"><ele>378.0</ele><time>2026-04-18T09:01:22.513Z</time></trkpt><trkpt lat="43.4058863" lon="10.9261456"><ele>378.0</ele><time>2026-04-18T09:01:23.473Z</time></trkpt><trkpt lat="43.4058226" lon="10.9260699"><ele>378.0</ele><time>2026-04-18T09:01:24.481Z</time></trkpt><trkpt lat="43.4057634" lon="10.9259966"><ele>378.0</ele><time>2026-04-18T09:01:25.476Z</time></trkpt><trkpt lat="43.4057049" lon="10.9259144"><ele>378.0</ele><time>2026-04-18T09:01:26.478Z</time></trkpt><trkpt lat="43.4056414" lon="10.9258311"><ele>378.4</ele><time>2026-04-18T09:01:27.473Z</time></trkpt><trkpt lat="43.4055878" lon="10.9257412"><ele>378.79999999999995</ele><time>2026-04-18T09:01:28.486Z</time></trkpt><trkpt lat="43.4055264" lon="10.9256504"><ele>379.2</ele><time>2026-04-18T09:01:29.479Z</time></trkpt><trkpt lat="43.405469" lon="10.925565"><ele>379.6</ele><time>2026-04-18T09:01:30.477Z</time></trkpt><trkpt lat="43.4054107" lon="10.9254718"><ele>380.0</ele><time>2026-04-18T09:01:31.475Z</time></trkpt><trkpt lat="43.4053352" lon="10.9253722"><ele>379.75</ele><time>2026-04-18T09:01:32.472Z</time></trkpt><trkpt lat="43.4052503" lon="10.9252764"><ele>379.5</ele><time>2026-04-18T09:01:33.48Z</time></trkpt><trkpt lat="43.4051549" lon="10.925182"><ele>379.25</ele><time>2026-04-18T09:01:34.48Z</time></trkpt><trkpt lat="43.405067" lon="10.9250948"><ele>379.0</ele><time>2026-04-18T09:01:35.493Z</time></trkpt><trkpt lat="43.4049633" lon="10.9250126"><ele>379.0</ele><time>2026-04-18T09:01:36.474Z</time></trkpt><trkpt lat="43.4048583" lon="10.9249232"><ele>379.0</ele><time>2026-04-18T09:01:37.481Z</time></trkpt><trkpt lat="43.4047603" lon="10.9248306"><ele>379.0</ele><time>2026-04-18T09:01:38.475Z</time></trkpt><trkpt lat="43.4046617" lon="10.9247407"><ele>379.0</ele><time>2026-04-18T09:01:39.476Z</time></trkpt><trkpt lat="43.4045614" lon="10.9246456"><ele>378.25</ele><time>2026-04-18T09:01:40.473Z</time></trkpt><trkpt lat="43.4044629" lon="10.9245549"><ele>377.5</ele><time>2026-04-18T09:01:41.48Z</time></trkpt><trkpt lat="43.4043631" lon="10.924456"><ele>376.75</ele><time>2026-04-18T09:01:42.475Z</time></trkpt><trkpt lat="43.4042626" lon="10.9243517"><ele>376.0</ele><time>2026-04-18T09:01:43.48Z</time></trkpt><trkpt lat="43.4041652" lon="10.9242554"><ele>375.4</ele><time>2026-04-18T09:01:44.48Z</time></trkpt><trkpt lat="43.4040734" lon="10.9241545"><ele>374.8</ele><time>2026-04-18T09:01:45.474Z</time></trkpt><trkpt lat="43.4039915" lon="10.9240481"><ele>374.2</ele><time>2026-04-18T09:01:46.477Z</time></trkpt><trkpt lat="43.4039102" lon="10.9239443"><ele>373.59999999999997</ele><time>2026-04-18T09:01:47.472Z</time></trkpt><trkpt lat="43.4038328" lon="10.9238415"><ele>373.0</ele><time>2026-04-18T09:01:48.483Z</time></trkpt><trkpt lat="43.4037578" lon="10.9237224"><ele>373.0</ele><time>2026-04-18T09:01:49.468Z</time></trkpt><trkpt lat="43.4036822" lon="10.9236041"><ele>373.0</ele><time>2026-04-18T09:01:50.471Z</time></trkpt><trkpt lat="43.4036183" lon="10.9234693"><ele>373.0</ele><time>2026-04-18T09:01:51.482Z</time></trkpt><trkpt lat="43.4035732" lon="10.9233358"><ele>373.0</ele><time>2026-04-18T09:01:52.483Z</time></trkpt><trkpt lat="43.4035401" lon="10.9232013"><ele>373.0</ele><time>2026-04-18T09:01:53.476Z</time></trkpt><trkpt lat="43.4035088" lon="10.9230647"><ele>373.59999999999997</ele><time>2026-04-18T09:01:54.472Z</time></trkpt><trkpt lat="43.4034706" lon="10.922928"><ele>374.2</ele><time>2026-04-18T09:01:55.47Z</time></trkpt><trkpt lat="43.4034297" lon="10.9227883"><ele>374.8</ele><time>2026-04-18T09:01:56.481Z</time></trkpt><trkpt lat="43.4033854" lon="10.9226471"><ele>375.4</ele><time>2026-04-18T09:01:57.473Z</time></trkpt><trkpt lat="43.4033415" lon="10.922505"><ele>376.0</ele><time>2026-04-18T09:01:58.485Z</time></trkpt><trkpt lat="43.4032972" lon="10.9223562"><ele>376.0</ele><time>2026-04-18T09:01:59.478Z</time></trkpt><trkpt lat="43.4032518" lon="10.922196"><ele>376.0</ele><time>2026-04-18T09:02:00.486Z</time></trkpt><trkpt lat="43.4032122" lon="10.9220431"><ele>376.0</ele><time>2026-04-18T09:02:01.473Z</time></trkpt><trkpt lat="43.4031731" lon="10.9218965"><ele>376.0</ele><time>2026-04-18T09:02:02.489Z</time></trkpt><trkpt lat="43.4031348" lon="10.9217518"><ele>375.20000000000005</ele><time>2026-04-18T09:02:03.481Z</time></trkpt><trkpt lat="43.4031017" lon="10.921624"><ele>374.40000000000003</ele><time>2026-04-18T09:02:04.485Z</time></trkpt><trkpt lat="43.4030797" lon="10.9214966"><ele>373.6</ele><time>2026-04-18T09:02:05.485Z</time></trkpt><trkpt lat="43.4030638" lon="10.9213719"><ele>372.8</ele><time>2026-04-18T09:02:06.476Z</time></trkpt><trkpt lat="43.4030609" lon="10.9212516"><ele>372.0</ele><time>2026-04-18T09:02:07.485Z</time></trkpt><trkpt lat="43.4030712" lon="10.9211328"><ele>372.0</ele><time>2026-04-18T09:02:08.488Z</time></trkpt><trkpt lat="43.4030931" lon="10.9210002"><ele>372.0</ele><time>2026-04-18T09:02:09.489Z</time></trkpt><trkpt lat="43.4031248" lon="10.9208817"><ele>372.0</ele><time>2026-04-18T09:02:10.477Z</time></trkpt><trkpt lat="43.4031676" lon="10.9207562"><ele>372.0</ele><time>2026-04-18T09:02:11.474Z</time></trkpt><trkpt lat="43.4032145" lon="10.9206303"><ele>372.0</ele><time>2026-04-18T09:02:12.481Z</time></trkpt><trkpt lat="43.4032551" lon="10.9205173"><ele>371.20000000000005</ele><time>2026-04-18T09:02:13.48Z</time></trkpt><trkpt lat="43.4033042" lon="10.9204117"><ele>370.4</ele><time>2026-04-18T09:02:14.481Z</time></trkpt><trkpt lat="43.4033515" lon="10.9203022"><ele>369.6</ele><time>2026-04-18T09:02:15.487Z</time></trkpt><trkpt lat="43.4033914" lon="10.9201925"><ele>368.79999999999995</ele><time>2026-04-18T09:02:16.479Z</time></trkpt><trkpt lat="43.4034365" lon="10.9200673"><ele>368.0</ele><time>2026-04-18T09:02:17.466Z</time></trkpt><trkpt lat="43.4034785" lon="10.9199498"><ele>367.59999999999997</ele><time>2026-04-18T09:02:18.479Z</time></trkpt><trkpt lat="43.4035271" lon="10.9198238"><ele>367.2</ele><time>2026-04-18T09:02:19.475Z</time></trkpt><trkpt lat="43.4035684" lon="10.919684"><ele>366.8</ele><time>2026-04-18T09:02:20.474Z</time></trkpt><trkpt lat="43.4036064" lon="10.9195353"><ele>366.4</ele><time>2026-04-18T09:02:21.479Z</time></trkpt><trkpt lat="43.4036504" lon="10.9193925"><ele>366.0</ele><time>2026-04-18T09:02:22.481Z</time></trkpt><trkpt lat="43.4036854" lon="10.9192459"><ele>365.0</ele><time>2026-04-18T09:02:23.478Z</time></trkpt><trkpt lat="43.4037201" lon="10.9190924"><ele>364.0</ele><time>2026-04-18T09:02:24.508Z</time></trkpt><trkpt lat="43.4037487" lon="10.9189453"><ele>363.0</ele><time>2026-04-18T09:02:25.48Z</time></trkpt><trkpt lat="43.4037642" lon="10.9187831"><ele>362.0</ele><time>2026-04-18T09:02:26.47Z</time></trkpt><trkpt lat="43.4037732" lon="10.9186327"><ele>362.0</ele><time>2026-04-18T09:02:27.478Z</time></trkpt><trkpt lat="43.4037763" lon="10.91849"><ele>362.0</ele><time>2026-04-18T09:02:28.483Z</time></trkpt><trkpt lat="43.4037564" lon="10.9183392"><ele>362.0</ele><time>2026-04-18T09:02:29.508Z</time></trkpt><trkpt lat="43.4037219" lon="10.9182214"><ele>362.0</ele><time>2026-04-18T09:02:30.477Z</time></trkpt><trkpt lat="43.4036786" lon="10.9181118"><ele>362.0</ele><time>2026-04-18T09:02:31.474Z</time></trkpt><trkpt lat="43.4036318" lon="10.9180087"><ele>361.0</ele><time>2026-04-18T09:02:32.482Z</time></trkpt><trkpt lat="43.4035798" lon="10.9179199"><ele>360.0</ele><time>2026-04-18T09:02:33.477Z</time></trkpt><trkpt lat="43.4035272" lon="10.9178227"><ele>359.0</ele><time>2026-04-18T09:02:34.483Z</time></trkpt><trkpt lat="43.4034785" lon="10.9177171"><ele>358.0</ele><time>2026-04-18T09:02:35.48Z</time></trkpt><trkpt lat="43.4034428" lon="10.9176145"><ele>357.0</ele><time>2026-04-18T09:02:36.471Z</time></trkpt><trkpt lat="43.4034134" lon="10.9175139"><ele>356.0</ele><time>2026-04-18T09:02:37.5Z</time></trkpt><trkpt lat="43.4033878" lon="10.9173974"><ele>354.83333333333337</ele><time>2026-04-18T09:02:38.484Z</time></trkpt><trkpt lat="43.4033694" lon="10.9172856"><ele>353.6666666666667</ele><time>2026-04-18T09:02:39.479Z</time></trkpt><trkpt lat="43.4033541" lon="10.9171721"><ele>352.5</ele><time>2026-04-18T09:02:40.48Z</time></trkpt><trkpt lat="43.4033342" lon="10.9170666"><ele>351.3333333333333</ele><time>2026-04-18T09:02:41.475Z</time></trkpt><trkpt lat="43.4033136" lon="10.9169687"><ele>350.16666666666663</ele><time>2026-04-18T09:02:42.487Z</time></trkpt><trkpt lat="43.4032801" lon="10.9168793"><ele>349.0</ele><time>2026-04-18T09:02:43.483Z</time></trkpt><trkpt lat="43.4032401" lon="10.9167866"><ele>348.79999999999995</ele><time>2026-04-18T09:02:44.479Z</time></trkpt><trkpt lat="43.4031858" lon="10.9167002"><ele>348.59999999999997</ele><time>2026-04-18T09:02:45.486Z</time></trkpt><trkpt lat="43.4031226" lon="10.9166141"><ele>348.4</ele><time>2026-04-18T09:02:46.489Z</time></trkpt><trkpt lat="43.4030466" lon="10.9165355"><ele>348.2</ele><time>2026-04-18T09:02:47.481Z</time></trkpt><trkpt lat="43.4029753" lon="10.9164501"><ele>348.0</ele><time>2026-04-18T09:02:48.488Z</time></trkpt><trkpt lat="43.402909" lon="10.9163692"><ele>348.0</ele><time>2026-04-18T09:02:49.485Z</time></trkpt><trkpt lat="43.4028368" lon="10.9162827"><ele>348.0</ele><time>2026-04-18T09:02:50.47Z</time></trkpt><trkpt lat="43.4027631" lon="10.9161931"><ele>348.0</ele><time>2026-04-18T09:02:51.487Z</time></trkpt><trkpt lat="43.4026906" lon="10.9161174"><ele>348.0</ele><time>2026-04-18T09:02:52.493Z</time></trkpt><trkpt lat="43.402615" lon="10.9160336"><ele>348.0</ele><time>2026-04-18T09:02:53.477Z</time></trkpt><trkpt lat="43.4025429" lon="10.915967"><ele>346.3333333333333</ele><time>2026-04-18T09:02:54.48Z</time></trkpt><trkpt lat="43.4024674" lon="10.9158993"><ele>344.6666666666667</ele><time>2026-04-18T09:02:55.478Z</time></trkpt><trkpt lat="43.4023946" lon="10.9158328"><ele>343.0</ele><time>2026-04-18T09:02:56.488Z</time></trkpt><trkpt lat="43.4023322" lon="10.9157787"><ele>341.33333333333337</ele><time>2026-04-18T09:02:57.486Z</time></trkpt><trkpt lat="43.4022602" lon="10.9157042"><ele>339.6666666666667</ele><time>2026-04-18T09:02:59.476Z</time></trkpt><trkpt lat="43.4022157" lon="10.9156365"><ele>338.0</ele><time>2026-04-18T09:03:01.475Z</time></trkpt><trkpt lat="43.4022263" lon="10.9155316"><ele>338.0</ele><time>2026-04-18T09:03:03.475Z</time></trkpt><trkpt lat="43.4023052" lon="10.915459"><ele>338.0</ele><time>2026-04-18T09:03:05.478Z</time></trkpt><trkpt lat="43.402381" lon="10.9154524"><ele>338.0</ele><time>2026-04-18T09:03:06.476Z</time></trkpt><trkpt lat="43.4024601" lon="10.9154258"><ele>338.0</ele><time>2026-04-18T09:03:07.482Z</time></trkpt><trkpt lat="43.4025344" lon="10.9153968"><ele>338.0</ele><time>2026-04-18T09:03:08.477Z</time></trkpt><trkpt lat="43.4026025" lon="10.9153556"><ele>338.0</ele><time>2026-04-18T09:03:09.476Z</time></trkpt><trkpt lat="43.4026597" lon="10.915291"><ele>338.0</ele><time>2026-04-18T09:03:10.476Z</time></trkpt><trkpt lat="43.4027161" lon="10.9151994"><ele>338.0</ele><time>2026-04-18T09:03:11.471Z</time></trkpt><trkpt lat="43.4027603" lon="10.9150615"><ele>338.0</ele><time>2026-04-18T09:03:12.478Z</time></trkpt><trkpt lat="43.4027979" lon="10.9149237"><ele>338.0</ele><time>2026-04-18T09:03:13.484Z</time></trkpt><trkpt lat="43.4028358" lon="10.9147768"><ele>338.0</ele><time>2026-04-18T09:03:14.479Z</time></trkpt><trkpt lat="43.4028713" lon="10.9146225"><ele>335.5</ele><time>2026-04-18T09:03:15.49Z</time></trkpt><trkpt lat="43.4029004" lon="10.9144662"><ele>333.0</ele><time>2026-04-18T09:03:16.486Z</time></trkpt><trkpt lat="43.4029271" lon="10.9143149"><ele>330.5</ele><time>2026-04-18T09:03:17.471Z</time></trkpt><trkpt lat="43.4029589" lon="10.9141546"><ele>328.0</ele><time>2026-04-18T09:03:18.484Z</time></trkpt><trkpt lat="43.4029875" lon="10.9139819"><ele>326.5</ele><time>2026-04-18T09:03:19.477Z</time></trkpt><trkpt lat="43.4030116" lon="10.913803"><ele>325.0</ele><time>2026-04-18T09:03:20.475Z</time></trkpt><trkpt lat="43.4030282" lon="10.9136196"><ele>323.5</ele><time>2026-04-18T09:03:21.48Z</time></trkpt><trkpt lat="43.4030422" lon="10.9134346"><ele>322.0</ele><time>2026-04-18T09:03:22.475Z</time></trkpt><trkpt lat="43.4030458" lon="10.913245"><ele>322.25</ele><time>2026-04-18T09:03:23.474Z</time></trkpt><trkpt lat="43.4030323" lon="10.9130527"><ele>322.5</ele><time>2026-04-18T09:03:24.481Z</time></trkpt><trkpt lat="43.4030136" lon="10.9128681"><ele>322.75</ele><time>2026-04-18T09:03:25.478Z</time></trkpt><trkpt lat="43.4029885" lon="10.9126888"><ele>323.0</ele><time>2026-04-18T09:03:26.48Z</time></trkpt><trkpt lat="43.4029721" lon="10.9125031"><ele>323.0</ele><time>2026-04-18T09:03:27.477Z</time></trkpt><trkpt lat="43.4029492" lon="10.9123261"><ele>323.0</ele><time>2026-04-18T09:03:28.47Z</time></trkpt><trkpt lat="43.402925" lon="10.9121435"><ele>323.0</ele><time>2026-04-18T09:03:29.471Z</time></trkpt><trkpt lat="43.4029067" lon="10.9119657"><ele>323.0</ele><time>2026-04-18T09:03:30.473Z</time></trkpt><trkpt lat="43.402889" lon="10.9117898"><ele>324.5</ele><time>2026-04-18T09:03:31.479Z</time></trkpt><trkpt lat="43.4028626" lon="10.9116221"><ele>326.0</ele><time>2026-04-18T09:03:32.486Z</time></trkpt><trkpt lat="43.4028396" lon="10.9114546"><ele>327.5</ele><time>2026-04-18T09:03:33.478Z</time></trkpt><trkpt lat="43.4028067" lon="10.9113015"><ele>329.0</ele><time>2026-04-18T09:03:34.481Z</time></trkpt><trkpt lat="43.4027891" lon="10.9111421"><ele>329.0</ele><time>2026-04-18T09:03:35.466Z</time></trkpt><trkpt lat="43.4027713" lon="10.9109838"><ele>329.0</ele><time>2026-04-18T09:03:36.481Z</time></trkpt><trkpt lat="43.4027528" lon="10.9108309"><ele>329.0</ele><time>2026-04-18T09:03:37.475Z</time></trkpt><trkpt lat="43.4027296" lon="10.9106835"><ele>329.0</ele><time>2026-04-18T09:03:38.473Z</time></trkpt><trkpt lat="43.4026964" lon="10.9105509"><ele>329.0</ele><time>2026-04-18T09:03:39.478Z</time></trkpt><trkpt lat="43.4026465" lon="10.9104281"><ele>330.2</ele><time>2026-04-18T09:03:40.474Z</time></trkpt><trkpt lat="43.4025967" lon="10.9103221"><ele>331.4</ele><time>2026-04-18T09:03:41.49Z</time></trkpt><trkpt lat="43.4025484" lon="10.9102154"><ele>332.6</ele><time>2026-04-18T09:03:42.494Z</time></trkpt><trkpt lat="43.402508" lon="10.9101044"><ele>333.8</ele><time>2026-04-18T09:03:43.493Z</time></trkpt><trkpt lat="43.40247" lon="10.9099898"><ele>335.0</ele><time>2026-04-18T09:03:44.466Z</time></trkpt><trkpt lat="43.4024269" lon="10.9098889"><ele>336.6</ele><time>2026-04-18T09:03:45.485Z</time></trkpt><trkpt lat="43.4023822" lon="10.9097736"><ele>338.2</ele><time>2026-04-18T09:03:46.49Z</time></trkpt><trkpt lat="43.4023315" lon="10.9096507"><ele>339.79999999999995</ele><time>2026-04-18T09:03:47.486Z</time></trkpt><trkpt lat="43.4022714" lon="10.9095252"><ele>341.4</ele><time>2026-04-18T09:03:48.488Z</time></trkpt><trkpt lat="43.4022217" lon="10.9093978"><ele>343.0</ele><time>2026-04-18T09:03:49.483Z</time></trkpt><trkpt lat="43.4021763" lon="10.9092699"><ele>343.59999999999997</ele><time>2026-04-18T09:03:50.484Z</time></trkpt><trkpt lat="43.4021259" lon="10.9091352"><ele>344.2</ele><time>2026-04-18T09:03:51.489Z</time></trkpt><trkpt lat="43.4020741" lon="10.9090095"><ele>344.8</ele><time>2026-04-18T09:03:52.488Z</time></trkpt><trkpt lat="43.4020272" lon="10.9088804"><ele>345.4</ele><time>2026-04-18T09:03:53.482Z</time></trkpt><trkpt lat="43.4019837" lon="10.9087517"><ele>346.0</ele><time>2026-04-18T09:03:54.48Z</time></trkpt><trkpt lat="43.4019335" lon="10.9086251"><ele>346.0</ele><time>2026-04-18T09:03:55.482Z</time></trkpt><trkpt lat="43.4018769" lon="10.9085591"><ele>346.0</ele><time>2026-04-18T09:03:56.5Z</time></trkpt><trkpt lat="43.4017558" lon="10.9085088"><ele>346.0</ele><time>2026-04-18T09:03:58.464Z</time></trkpt><trkpt lat="43.4016514" lon="10.9085089"><ele>346.0</ele><time>2026-04-18T09:04:00.47Z</time></trkpt><trkpt lat="43.4015881" lon="10.9085163"><ele>346.0</ele><time>2026-04-18T09:04:01.474Z</time></trkpt><trkpt lat="43.4015074" lon="10.908529"><ele>346.0</ele><time>2026-04-18T09:04:02.477Z</time></trkpt><trkpt lat="43.4014181" lon="10.9085499"><ele>346.0</ele><time>2026-04-18T09:04:03.489Z</time></trkpt><trkpt lat="43.4013192" lon="10.908569"><ele>346.0</ele><time>2026-04-18T09:04:04.481Z</time></trkpt><trkpt lat="43.4012219" lon="10.9085731"><ele>346.0</ele><time>2026-04-18T09:04:05.468Z</time></trkpt><trkpt lat="43.4011248" lon="10.9085895"><ele>346.0</ele><time>2026-04-18T09:04:06.482Z</time></trkpt><trkpt lat="43.4010274" lon="10.9085983"><ele>346.0</ele><time>2026-04-18T09:04:07.478Z</time></trkpt><trkpt lat="43.4009377" lon="10.9085968"><ele>346.0</ele><time>2026-04-18T09:04:08.47Z</time></trkpt><trkpt lat="43.4008501" lon="10.9086011"><ele>346.0</ele><time>2026-04-18T09:04:09.488Z</time></trkpt><trkpt lat="43.4007693" lon="10.9085989"><ele>346.0</ele><time>2026-04-18T09:04:10.479Z</time></trkpt><trkpt lat="43.4006878" lon="10.9086026"><ele>346.0</ele><time>2026-04-18T09:04:11.479Z</time></trkpt><trkpt lat="43.4006133" lon="10.9086127"><ele>346.0</ele><time>2026-04-18T09:04:12.475Z</time></trkpt><trkpt lat="43.4005363" lon="10.9086208"><ele>346.3333333333333</ele><time>2026-04-18T09:04:13.484Z</time></trkpt><trkpt lat="43.4004599" lon="10.9086291"><ele>346.66666666666663</ele><time>2026-04-18T09:04:14.48Z</time></trkpt><trkpt lat="43.4003871" lon="10.9086414"><ele>347.0</ele><time>2026-04-18T09:04:15.491Z</time></trkpt><trkpt lat="43.4002688" lon="10.9086217"><ele>347.3333333333333</ele><time>2026-04-18T09:04:17.479Z</time></trkpt><trkpt lat="43.4002207" lon="10.9085563"><ele>347.6666666666667</ele><time>2026-04-18T09:04:18.483Z</time></trkpt><trkpt lat="43.4002164" lon="10.9084623"><ele>348.0</ele><time>2026-04-18T09:04:19.484Z</time></trkpt><trkpt lat="43.4001757" lon="10.90831"><ele>348.5</ele><time>2026-04-18T09:04:21.5Z</time></trkpt><trkpt lat="43.4001171" lon="10.9081567"><ele>349.0</ele><time>2026-04-18T09:04:23.481Z</time></trkpt><trkpt lat="43.4000751" lon="10.9080741"><ele>349.5</ele><time>2026-04-18T09:04:24.485Z</time></trkpt><trkpt lat="43.4000352" lon="10.9079943"><ele>350.0</ele><time>2026-04-18T09:04:25.48Z</time></trkpt><trkpt lat="43.4000114" lon="10.9079059"><ele>350.5</ele><time>2026-04-18T09:04:26.489Z</time></trkpt><trkpt lat="43.400004" lon="10.907813"><ele>351.0</ele><time>2026-04-18T09:04:27.5Z</time></trkpt><trkpt lat="43.4000131" lon="10.9077195"><ele>351.0</ele><time>2026-04-18T09:04:28.497Z</time></trkpt><trkpt lat="43.400027" lon="10.9076236"><ele>351.0</ele><time>2026-04-18T09:04:29.507Z</time></trkpt><trkpt lat="43.4000513" lon="10.9075149"><ele>351.0</ele><time>2026-04-18T09:04:30.493Z</time></trkpt><trkpt lat="43.4000769" lon="10.9074054"><ele>351.0</ele><time>2026-04-18T09:04:31.499Z</time></trkpt><trkpt lat="43.4001038" lon="10.9072983"><ele>351.0</ele><time>2026-04-18T09:04:32.485Z</time></trkpt><trkpt lat="43.4001295" lon="10.9071926"><ele>351.0</ele><time>2026-04-18T09:04:33.484Z</time></trkpt><trkpt lat="43.4001549" lon="10.9070837"><ele>349.8333333333333</ele><time>2026-04-18T09:04:34.504Z</time></trkpt><trkpt lat="43.4001728" lon="10.9069824"><ele>348.6666666666667</ele><time>2026-04-18T09:04:35.481Z</time></trkpt><trkpt lat="43.4002" lon="10.9068702"><ele>347.5</ele><time>2026-04-18T09:04:36.491Z</time></trkpt><trkpt lat="43.4002252" lon="10.9067523"><ele>346.33333333333337</ele><time>2026-04-18T09:04:37.478Z</time></trkpt><trkpt lat="43.4002522" lon="10.9066439"><ele>345.1666666666667</ele><time>2026-04-18T09:04:38.496Z</time></trkpt><trkpt lat="43.400278" lon="10.9065291"><ele>344.0</ele><time>2026-04-18T09:04:39.502Z</time></trkpt><trkpt lat="43.4002922" lon="10.9064161"><ele>343.4</ele><time>2026-04-18T09:04:40.481Z</time></trkpt><trkpt lat="43.4002933" lon="10.9062962"><ele>342.79999999999995</ele><time>2026-04-18T09:04:41.489Z</time></trkpt><trkpt lat="43.4002773" lon="10.9061728"><ele>342.20000000000005</ele><time>2026-04-18T09:04:42.507Z</time></trkpt><trkpt lat="43.4002565" lon="10.9060437"><ele>341.6</ele><time>2026-04-18T09:04:43.489Z</time></trkpt><trkpt lat="43.4002174" lon="10.90593"><ele>341.0</ele><time>2026-04-18T09:04:44.485Z</time></trkpt><trkpt lat="43.4001658" lon="10.905819"><ele>341.0</ele><time>2026-04-18T09:04:45.479Z</time></trkpt><trkpt lat="43.4001088" lon="10.9057047"><ele>341.0</ele><time>2026-04-18T09:04:46.48Z</time></trkpt><trkpt lat="43.4000445" lon="10.9055956"><ele>341.0</ele><time>2026-04-18T09:04:47.471Z</time></trkpt><trkpt lat="43.3999926" lon="10.9054723"><ele>341.0</ele><time>2026-04-18T09:04:48.479Z</time></trkpt><trkpt lat="43.3999533" lon="10.9053567"><ele>341.0</ele><time>2026-04-18T09:04:49.497Z</time></trkpt><trkpt lat="43.3999199" lon="10.9052581"><ele>341.0</ele><time>2026-04-18T09:04:50.481Z</time></trkpt><trkpt lat="43.3998834" lon="10.905174"><ele>341.0</ele><time>2026-04-18T09:04:51.487Z</time></trkpt><trkpt lat="43.3998465" lon="10.9050312"><ele>341.0</ele><time>2026-04-18T09:04:53.484Z</time></trkpt><trkpt lat="43.3998073" lon="10.9049225"><ele>341.0</ele><time>2026-04-18T09:04:55.483Z</time></trkpt><trkpt lat="43.399712" lon="10.9049529"><ele>341.0</ele><time>2026-04-18T09:04:57.501Z</time></trkpt><trkpt lat="43.3996497" lon="10.905114"><ele>341.0</ele><time>2026-04-18T09:04:59.486Z</time></trkpt><trkpt lat="43.399649" lon="10.9052101"><ele>341.0</ele><time>2026-04-18T09:05:00.482Z</time></trkpt><trkpt lat="43.3996689" lon="10.9052961"><ele>341.0</ele><time>2026-04-18T09:05:01.484Z</time></trkpt><trkpt lat="43.3997271" lon="10.9053982"><ele>341.0</ele><time>2026-04-18T09:05:03.492Z</time></trkpt><trkpt lat="43.3997389" lon="10.9055077"><ele>341.0</ele><time>2026-04-18T09:05:05.497Z</time></trkpt><trkpt lat="43.3996978" lon="10.9055818"><ele>341.0</ele><time>2026-04-18T09:05:07.487Z</time></trkpt><trkpt lat="43.3995892" lon="10.9055495"><ele>337.42857142857144</ele><time>2026-04-18T09:05:09.501Z</time></trkpt><trkpt lat="43.399532" lon="10.9054956"><ele>333.8571428571429</ele><time>2026-04-18T09:05:10.5Z</time></trkpt><trkpt lat="43.3994859" lon="10.9054313"><ele>330.28571428571433</ele><time>2026-04-18T09:05:11.485Z</time></trkpt><trkpt lat="43.3994489" lon="10.9053396"><ele>326.7142857142857</ele><time>2026-04-18T09:05:12.481Z</time></trkpt><trkpt lat="43.3994234" lon="10.9052372"><ele>323.14285714285717</ele><time>2026-04-18T09:05:13.489Z</time></trkpt><trkpt lat="43.3994066" lon="10.9051357"><ele>319.5714285714286</ele><time>2026-04-18T09:05:14.488Z</time></trkpt><trkpt lat="43.3993727" lon="10.9050357"><ele>316.0</ele><time>2026-04-18T09:05:15.498Z</time></trkpt><trkpt lat="43.3993405" lon="10.9049484"><ele>316.0</ele><time>2026-04-18T09:05:16.484Z</time></trkpt><trkpt lat="43.3993036" lon="10.9048778"><ele>316.0</ele><time>2026-04-18T09:05:17.482Z</time></trkpt><trkpt lat="43.3992768" lon="10.90473"><ele>316.0</ele><time>2026-04-18T09:05:19.488Z</time></trkpt><trkpt lat="43.399291" lon="10.9046368"><ele>316.0</ele><time>2026-04-18T09:05:20.488Z</time></trkpt><trkpt lat="43.399332" lon="10.9045526"><ele>316.0</ele><time>2026-04-18T09:05:21.501Z</time></trkpt><trkpt lat="43.3993761" lon="10.9044783"><ele>316.0</ele><time>2026-04-18T09:05:22.482Z</time></trkpt><trkpt lat="43.3994333" lon="10.9044253"><ele>316.0</ele><time>2026-04-18T09:05:23.496Z</time></trkpt><trkpt lat="43.3994863" lon="10.9043602"><ele>316.0</ele><time>2026-04-18T09:05:24.486Z</time></trkpt><trkpt lat="43.3995277" lon="10.9042802"><ele>316.0</ele><time>2026-04-18T09:05:25.494Z</time></trkpt><trkpt lat="43.3995551" lon="10.9041908"><ele>316.0</ele><time>2026-04-18T09:05:26.488Z</time></trkpt><trkpt lat="43.399564" lon="10.9041023"><ele>316.0</ele><time>2026-04-18T09:05:27.486Z</time></trkpt><trkpt lat="43.3994992" lon="10.9039815"><ele>316.0</ele><time>2026-04-18T09:05:29.482Z</time></trkpt><trkpt lat="43.3993763" lon="10.9040146"><ele>316.0</ele><time>2026-04-18T09:05:31.482Z</time></trkpt><trkpt lat="43.3993167" lon="10.9040732"><ele>316.0</ele><time>2026-04-18T09:05:32.484Z</time></trkpt><trkpt lat="43.3992637" lon="10.9041311"><ele>316.0</ele><time>2026-04-18T09:05:33.482Z</time></trkpt><trkpt lat="43.3991976" lon="10.9042001"><ele>316.0</ele><time>2026-04-18T09:05:34.472Z</time></trkpt><trkpt lat="43.3991315" lon="10.9042721"><ele>316.0</ele><time>2026-04-18T09:05:35.491Z</time></trkpt><trkpt lat="43.3990689" lon="10.9043585"><ele>316.0</ele><time>2026-04-18T09:05:36.478Z</time></trkpt><trkpt lat="43.3990114" lon="10.9044582"><ele>316.0</ele><time>2026-04-18T09:05:37.461Z</time></trkpt><trkpt lat="43.3989628" lon="10.9045588"><ele>316.0</ele><time>2026-04-18T09:05:38.473Z</time></trkpt><trkpt lat="43.3989264" lon="10.9046694"><ele>316.0</ele><time>2026-04-18T09:05:39.481Z</time></trkpt><trkpt lat="43.3989042" lon="10.9047973"><ele>316.0</ele><time>2026-04-18T09:05:40.478Z</time></trkpt><trkpt lat="43.398879" lon="10.9049209"><ele>316.0</ele><time>2026-04-18T09:05:41.48Z</time></trkpt><trkpt lat="43.3988384" lon="10.9050322"><ele>312.8333333333333</ele><time>2026-04-18T09:05:42.474Z</time></trkpt><trkpt lat="43.3987949" lon="10.9051351"><ele>309.66666666666663</ele><time>2026-04-18T09:05:43.467Z</time></trkpt><trkpt lat="43.3987443" lon="10.9052313"><ele>306.5</ele><time>2026-04-18T09:05:44.48Z</time></trkpt><trkpt lat="43.3986822" lon="10.9053322"><ele>303.3333333333333</ele><time>2026-04-18T09:05:45.475Z</time></trkpt><trkpt lat="43.3986418" lon="10.9054164"><ele>300.1666666666667</ele><time>2026-04-18T09:05:46.472Z</time></trkpt><trkpt lat="43.3986097" lon="10.9054956"><ele>297.0</ele><time>2026-04-18T09:05:47.478Z</time></trkpt><trkpt lat="43.3985535" lon="10.9056309"><ele>297.0</ele><time>2026-04-18T09:05:49.477Z</time></trkpt><trkpt lat="43.3984314" lon="10.9056667"><ele>297.0</ele><time>2026-04-18T09:05:51.471Z</time></trkpt><trkpt lat="43.3983696" lon="10.9056352"><ele>297.0</ele><time>2026-04-18T09:05:52.478Z</time></trkpt><trkpt lat="43.3983131" lon="10.9055881"><ele>297.0</ele><time>2026-04-18T09:05:53.483Z</time></trkpt><trkpt lat="43.39827" lon="10.9055101"><ele>297.0</ele><time>2026-04-18T09:05:54.48Z</time></trkpt><trkpt lat="43.3982484" lon="10.9054103"><ele>297.0</ele><time>2026-04-18T09:05:55.464Z</time></trkpt><trkpt lat="43.3982326" lon="10.9053079"><ele>297.0</ele><time>2026-04-18T09:05:56.475Z</time></trkpt><trkpt lat="43.3982099" lon="10.9051922"><ele>297.0</ele><time>2026-04-18T09:05:57.46Z</time></trkpt><trkpt lat="43.398183" lon="10.9050831"><ele>297.0</ele><time>2026-04-18T09:05:58.466Z</time></trkpt><trkpt lat="43.3981646" lon="10.9049771"><ele>297.0</ele><time>2026-04-18T09:05:59.479Z</time></trkpt><trkpt lat="43.3981633" lon="10.9048629"><ele>297.0</ele><time>2026-04-18T09:06:00.473Z</time></trkpt><trkpt lat="43.398167" lon="10.9047704"><ele>297.0</ele><time>2026-04-18T09:06:01.47Z</time></trkpt><trkpt lat="43.3981902" lon="10.9046782"><ele>296.5</ele><time>2026-04-18T09:06:02.47Z</time></trkpt><trkpt lat="43.3982149" lon="10.9045793"><ele>296.0</ele><time>2026-04-18T09:06:03.469Z</time></trkpt><trkpt lat="43.3982385" lon="10.9044865"><ele>295.5</ele><time>2026-04-18T09:06:04.477Z</time></trkpt><trkpt lat="43.3982724" lon="10.9044084"><ele>295.0</ele><time>2026-04-18T09:06:05.479Z</time></trkpt><trkpt lat="43.3982929" lon="10.9043221"><ele>294.5</ele><time>2026-04-18T09:06:06.477Z</time></trkpt><trkpt lat="43.3982958" lon="10.9041721"><ele>294.0</ele><time>2026-04-18T09:06:08.479Z</time></trkpt><trkpt lat="43.3982029" lon="10.904112"><ele>294.0</ele><time>2026-04-18T09:06:10.472Z</time></trkpt><trkpt lat="43.3981398" lon="10.9041429"><ele>294.0</ele><time>2026-04-18T09:06:11.481Z</time></trkpt><trkpt lat="43.3980847" lon="10.9042058"><ele>294.0</ele><time>2026-04-18T09:06:12.474Z</time></trkpt><trkpt lat="43.3980224" lon="10.9042897"><ele>294.0</ele><time>2026-04-18T09:06:13.49Z</time></trkpt><trkpt lat="43.3979614" lon="10.9043622"><ele>294.0</ele><time>2026-04-18T09:06:14.483Z</time></trkpt><trkpt lat="43.3979106" lon="10.9044427"><ele>294.0</ele><time>2026-04-18T09:06:15.474Z</time></trkpt><trkpt lat="43.3978638" lon="10.9045298"><ele>291.6666666666667</ele><time>2026-04-18T09:06:16.481Z</time></trkpt><trkpt lat="43.3978249" lon="10.9046347"><ele>289.3333333333333</ele><time>2026-04-18T09:06:17.475Z</time></trkpt><trkpt lat="43.3977896" lon="10.9047324"><ele>287.0</ele><time>2026-04-18T09:06:18.501Z</time></trkpt><trkpt lat="43.3977435" lon="10.9048325"><ele>284.66666666666663</ele><time>2026-04-18T09:06:19.48Z</time></trkpt><trkpt lat="43.397702" lon="10.9049361"><ele>282.3333333333333</ele><time>2026-04-18T09:06:20.477Z</time></trkpt><trkpt lat="43.3976607" lon="10.9050586"><ele>280.0</ele><time>2026-04-18T09:06:21.473Z</time></trkpt><trkpt lat="43.3976237" lon="10.905173"><ele>280.0</ele><time>2026-04-18T09:06:22.474Z</time></trkpt><trkpt lat="43.3975825" lon="10.9052895"><ele>280.0</ele><time>2026-04-18T09:06:23.481Z</time></trkpt><trkpt lat="43.3975413" lon="10.905403"><ele>280.0</ele><time>2026-04-18T09:06:24.469Z</time></trkpt><trkpt lat="43.3975048" lon="10.9055083"><ele>280.0</ele><time>2026-04-18T09:06:25.487Z</time></trkpt><trkpt lat="43.3974732" lon="10.9056285"><ele>280.0</ele><time>2026-04-18T09:06:26.477Z</time></trkpt><trkpt lat="43.3974582" lon="10.9057366"><ele>280.0</ele><time>2026-04-18T09:06:27.476Z</time></trkpt><trkpt lat="43.3974465" lon="10.9058324"><ele>280.0</ele><time>2026-04-18T09:06:28.485Z</time></trkpt><trkpt lat="43.3974041" lon="10.9059524"><ele>280.0</ele><time>2026-04-18T09:06:30.488Z</time></trkpt><trkpt lat="43.3972973" lon="10.9059415"><ele>280.0</ele><time>2026-04-18T09:06:32.476Z</time></trkpt><trkpt lat="43.3972083" lon="10.9058365"><ele>280.0</ele><time>2026-04-18T09:06:34.47Z</time></trkpt><trkpt lat="43.3971707" lon="10.9057532"><ele>280.0</ele><time>2026-04-18T09:06:35.498Z</time></trkpt><trkpt lat="43.3971353" lon="10.9056551"><ele>277.3333333333333</ele><time>2026-04-18T09:06:36.485Z</time></trkpt><trkpt lat="43.3971044" lon="10.9055606"><ele>274.66666666666663</ele><time>2026-04-18T09:06:37.478Z</time></trkpt><trkpt lat="43.397072" lon="10.9054619"><ele>272.0</ele><time>2026-04-18T09:06:38.475Z</time></trkpt><trkpt lat="43.3970417" lon="10.9053769"><ele>269.3333333333333</ele><time>2026-04-18T09:06:39.478Z</time></trkpt><trkpt lat="43.3970068" lon="10.9053042"><ele>266.6666666666667</ele><time>2026-04-18T09:06:40.474Z</time></trkpt><trkpt lat="43.3969238" lon="10.9052159"><ele>264.0</ele><time>2026-04-18T09:06:42.475Z</time></trkpt><trkpt lat="43.3968594" lon="10.9052328"><ele>264.0</ele><time>2026-04-18T09:06:43.474Z</time></trkpt><trkpt lat="43.3968153" lon="10.9053063"><ele>264.0</ele><time>2026-04-18T09:06:44.473Z</time></trkpt><trkpt lat="43.3967689" lon="10.9054625"><ele>264.0</ele><time>2026-04-18T09:06:46.471Z</time></trkpt><trkpt lat="43.3967402" lon="10.9055502"><ele>264.0</ele><time>2026-04-18T09:06:47.474Z</time></trkpt><trkpt lat="43.3967006" lon="10.9056313"><ele>264.0</ele><time>2026-04-18T09:06:48.473Z</time></trkpt><trkpt lat="43.3966556" lon="10.9057061"><ele>264.0</ele><time>2026-04-18T09:06:49.477Z</time></trkpt><trkpt lat="43.3965921" lon="10.9057572"><ele>264.0</ele><time>2026-04-18T09:06:50.477Z</time></trkpt><trkpt lat="43.3965244" lon="10.905762"><ele>264.0</ele><time>2026-04-18T09:06:51.494Z</time></trkpt><trkpt lat="43.3964521" lon="10.9057381"><ele>264.0</ele><time>2026-04-18T09:06:52.471Z</time></trkpt><trkpt lat="43.396369" lon="10.9056157"><ele>264.0</ele><time>2026-04-18T09:06:54.484Z</time></trkpt><trkpt lat="43.3963742" lon="10.9055088"><ele>264.0</ele><time>2026-04-18T09:06:55.476Z</time></trkpt><trkpt lat="43.3963784" lon="10.9054101"><ele>264.0</ele><time>2026-04-18T09:06:56.477Z</time></trkpt><trkpt lat="43.3963937" lon="10.905305"><ele>264.0</ele><time>2026-04-18T09:06:57.49Z</time></trkpt><trkpt lat="43.3964284" lon="10.9051851"><ele>264.0</ele><time>2026-04-18T09:06:58.484Z</time></trkpt><trkpt lat="43.3964699" lon="10.9050605"><ele>264.0</ele><time>2026-04-18T09:06:59.476Z</time></trkpt><trkpt lat="43.3964961" lon="10.9049293"><ele>264.0</ele><time>2026-04-18T09:07:00.478Z</time></trkpt><trkpt lat="43.3965138" lon="10.9047938"><ele>264.0</ele><time>2026-04-18T09:07:01.478Z</time></trkpt><trkpt lat="43.3965255" lon="10.9046679"><ele>264.1666666666667</ele><time>2026-04-18T09:07:02.471Z</time></trkpt><trkpt lat="43.3965184" lon="10.9045323"><ele>264.3333333333333</ele><time>2026-04-18T09:07:03.475Z</time></trkpt><trkpt lat="43.3965019" lon="10.9043985"><ele>264.5</ele><time>2026-04-18T09:07:04.482Z</time></trkpt><trkpt lat="43.3964799" lon="10.9042921"><ele>264.66666666666663</ele><time>2026-04-18T09:07:05.475Z</time></trkpt><trkpt lat="43.3964479" lon="10.9042048"><ele>264.8333333333333</ele><time>2026-04-18T09:07:06.481Z</time></trkpt><trkpt lat="43.3964144" lon="10.9041094"><ele>265.0</ele><time>2026-04-18T09:07:07.478Z</time></trkpt><trkpt lat="43.3963806" lon="10.904007"><ele>264.3333333333333</ele><time>2026-04-18T09:07:08.486Z</time></trkpt><trkpt lat="43.3963463" lon="10.9038931"><ele>263.66666666666663</ele><time>2026-04-18T09:07:09.48Z</time></trkpt><trkpt lat="43.3963383" lon="10.9037722"><ele>263.0</ele><time>2026-04-18T09:07:10.479Z</time></trkpt><trkpt lat="43.3963343" lon="10.9036525"><ele>262.3333333333333</ele><time>2026-04-18T09:07:11.482Z</time></trkpt><trkpt lat="43.3963316" lon="10.9035349"><ele>261.6666666666667</ele><time>2026-04-18T09:07:12.478Z</time></trkpt><trkpt lat="43.3963369" lon="10.9034107"><ele>261.0</ele><time>2026-04-18T09:07:13.472Z</time></trkpt><trkpt lat="43.3963403" lon="10.9032822"><ele>258.40000000000003</ele><time>2026-04-18T09:07:14.482Z</time></trkpt><trkpt lat="43.3963374" lon="10.9031741"><ele>255.8</ele><time>2026-04-18T09:07:15.478Z</time></trkpt><trkpt lat="43.3963466" lon="10.9030798"><ele>253.20000000000002</ele><time>2026-04-18T09:07:16.483Z</time></trkpt><trkpt lat="43.3964134" lon="10.9029348"><ele>250.60000000000002</ele><time>2026-04-18T09:07:18.475Z</time></trkpt><trkpt lat="43.3964743" lon="10.9028869"><ele>248.0</ele><time>2026-04-18T09:07:19.476Z</time></trkpt><trkpt lat="43.3965949" lon="10.9027804"><ele>248.00000000000003</ele><time>2026-04-18T09:07:21.472Z</time></trkpt><trkpt lat="43.3966397" lon="10.9027053"><ele>248.0</ele><time>2026-04-18T09:07:22.484Z</time></trkpt><trkpt lat="43.3966523" lon="10.9026071"><ele>248.0</ele><time>2026-04-18T09:07:23.468Z</time></trkpt><trkpt lat="43.3965698" lon="10.9024613"><ele>248.0</ele><time>2026-04-18T09:07:25.474Z</time></trkpt><trkpt lat="43.3964949" lon="10.9024596"><ele>248.00000000000003</ele><time>2026-04-18T09:07:26.462Z</time></trkpt><trkpt lat="43.3964268" lon="10.9024622"><ele>248.0</ele><time>2026-04-18T09:07:27.478Z</time></trkpt><trkpt lat="43.3963526" lon="10.9024615"><ele>245.83333333333334</ele><time>2026-04-18T09:07:28.471Z</time></trkpt><trkpt lat="43.3962688" lon="10.9024733"><ele>243.66666666666669</ele><time>2026-04-18T09:07:29.486Z</time></trkpt><trkpt lat="43.3961929" lon="10.902539"><ele>241.5</ele><time>2026-04-18T09:07:30.476Z</time></trkpt><trkpt lat="43.3961441" lon="10.902626"><ele>239.33333333333331</ele><time>2026-04-18T09:07:31.474Z</time></trkpt><trkpt lat="43.3960979" lon="10.9027294"><ele>237.16666666666666</ele><time>2026-04-18T09:07:32.474Z</time></trkpt><trkpt lat="43.3960481" lon="10.9028172"><ele>235.0</ele><time>2026-04-18T09:07:33.472Z</time></trkpt><trkpt lat="43.3959993" lon="10.9029021"><ele>235.0</ele><time>2026-04-18T09:07:34.479Z</time></trkpt><trkpt lat="43.3959479" lon="10.9029824"><ele>234.99999999999997</ele><time>2026-04-18T09:07:35.477Z</time></trkpt><trkpt lat="43.395904" lon="10.9030585"><ele>235.0</ele><time>2026-04-18T09:07:36.465Z</time></trkpt><trkpt lat="43.3958599" lon="10.9031318"><ele>235.0</ele><time>2026-04-18T09:07:37.475Z</time></trkpt><trkpt lat="43.3958205" lon="10.9032161"><ele>234.99999999999997</ele><time>2026-04-18T09:07:38.482Z</time></trkpt><trkpt lat="43.3957943" lon="10.903304"><ele>235.0</ele><time>2026-04-18T09:07:39.478Z</time></trkpt><trkpt lat="43.395773" lon="10.9034045"><ele>235.0</ele><time>2026-04-18T09:07:40.475Z</time></trkpt><trkpt lat="43.3957697" lon="10.903518"><ele>236.0</ele><time>2026-04-18T09:07:41.495Z</time></trkpt><trkpt lat="43.3957733" lon="10.903612"><ele>237.0</ele><time>2026-04-18T09:07:42.464Z</time></trkpt><trkpt lat="43.3957684" lon="10.9037986"><ele>238.0</ele><time>2026-04-18T09:07:44.466Z</time></trkpt><trkpt lat="43.3957031" lon="10.9039102"><ele>239.0</ele><time>2026-04-18T09:07:46.478Z</time></trkpt><trkpt lat="43.3956077" lon="10.9038521"><ele>240.0</ele><time>2026-04-18T09:07:48.477Z</time></trkpt><trkpt lat="43.3955707" lon="10.9037686"><ele>240.0</ele><time>2026-04-18T09:07:49.481Z</time></trkpt><trkpt lat="43.3955436" lon="10.9036677"><ele>240.0</ele><time>2026-04-18T09:07:50.472Z</time></trkpt><trkpt lat="43.3955275" lon="10.9035175"><ele>240.0</ele><time>2026-04-18T09:07:51.469Z</time></trkpt><trkpt lat="43.3955065" lon="10.9033713"><ele>240.0</ele><time>2026-04-18T09:07:52.473Z</time></trkpt><trkpt lat="43.3954946" lon="10.9032071"><ele>240.0</ele><time>2026-04-18T09:07:53.467Z</time></trkpt><trkpt lat="43.3954767" lon="10.9030644"><ele>238.66666666666666</ele><time>2026-04-18T09:07:54.47Z</time></trkpt><trkpt lat="43.3954864" lon="10.9029415"><ele>237.33333333333331</ele><time>2026-04-18T09:07:55.476Z</time></trkpt><trkpt lat="43.395491" lon="10.9028213"><ele>236.0</ele><time>2026-04-18T09:07:56.467Z</time></trkpt><trkpt lat="43.3954897" lon="10.9027091"><ele>234.66666666666666</ele><time>2026-04-18T09:07:57.476Z</time></trkpt><trkpt lat="43.3954629" lon="10.9026076"><ele>233.33333333333331</ele><time>2026-04-18T09:07:58.479Z</time></trkpt><trkpt lat="43.3954072" lon="10.9025535"><ele>232.0</ele><time>2026-04-18T09:07:59.479Z</time></trkpt><trkpt lat="43.395323" lon="10.902566"><ele>231.99999999999997</ele><time>2026-04-18T09:08:00.481Z</time></trkpt><trkpt lat="43.3952584" lon="10.9025843"><ele>232.0</ele><time>2026-04-18T09:08:01.481Z</time></trkpt><trkpt lat="43.3951854" lon="10.9026005"><ele>232.0</ele><time>2026-04-18T09:08:02.479Z</time></trkpt><trkpt lat="43.3951059" lon="10.9026201"><ele>232.0</ele><time>2026-04-18T09:08:03.477Z</time></trkpt><trkpt lat="43.3950307" lon="10.9026233"><ele>231.99999999999997</ele><time>2026-04-18T09:08:04.485Z</time></trkpt><trkpt lat="43.3949145" lon="10.902602"><ele>232.0</ele><time>2026-04-18T09:08:06.486Z</time></trkpt><trkpt lat="43.3948343" lon="10.9025009"><ele>231.49999999999997</ele><time>2026-04-18T09:08:08.477Z</time></trkpt><trkpt lat="43.3948479" lon="10.9023275"><ele>231.0</ele><time>2026-04-18T09:08:10.471Z</time></trkpt><trkpt lat="43.3948782" lon="10.9022373"><ele>230.5</ele><time>2026-04-18T09:08:11.473Z</time></trkpt><trkpt lat="43.3949209" lon="10.9021534"><ele>230.0</ele><time>2026-04-18T09:08:12.456Z</time></trkpt><trkpt lat="43.3949637" lon="10.90206"><ele>229.49999999999997</ele><time>2026-04-18T09:08:13.483Z</time></trkpt><trkpt lat="43.3950068" lon="10.9019488"><ele>229.0</ele><time>2026-04-18T09:08:14.47Z</time></trkpt><trkpt lat="43.3950442" lon="10.9018441"><ele>229.2</ele><time>2026-04-18T09:08:15.465Z</time></trkpt><trkpt lat="43.3950836" lon="10.9017364"><ele>229.39999999999998</ele><time>2026-04-18T09:08:16.48Z</time></trkpt><trkpt lat="43.3951258" lon="10.9016225"><ele>229.6</ele><time>2026-04-18T09:08:17.476Z</time></trkpt><trkpt lat="43.3951758" lon="10.9015146"><ele>229.8</ele><time>2026-04-18T09:08:18.491Z</time></trkpt><trkpt lat="43.3952315" lon="10.901407"><ele>230.0</ele><time>2026-04-18T09:08:19.476Z</time></trkpt><trkpt lat="43.3952677" lon="10.9012934"><ele>230.0</ele><time>2026-04-18T09:08:20.475Z</time></trkpt><trkpt lat="43.3952703" lon="10.9011651"><ele>230.0</ele><time>2026-04-18T09:08:21.471Z</time></trkpt><trkpt lat="43.3952568" lon="10.9010375"><ele>230.0</ele><time>2026-04-18T09:08:22.469Z</time></trkpt><trkpt lat="43.3952461" lon="10.9009013"><ele>230.0</ele><time>2026-04-18T09:08:23.457Z</time></trkpt><trkpt lat="43.3952226" lon="10.9007856"><ele>230.0</ele><time>2026-04-18T09:08:24.473Z</time></trkpt><trkpt lat="43.3952538" lon="10.9006265"><ele>230.99999999999997</ele><time>2026-04-18T09:08:26.47Z</time></trkpt><trkpt lat="43.3952719" lon="10.9005377"><ele>232.0</ele><time>2026-04-18T09:08:27.48Z</time></trkpt><trkpt lat="43.3952781" lon="10.9004437"><ele>232.99999999999997</ele><time>2026-04-18T09:08:28.465Z</time></trkpt><trkpt lat="43.3952984" lon="10.9003593"><ele>233.99999999999997</ele><time>2026-04-18T09:08:29.478Z</time></trkpt><trkpt lat="43.3953366" lon="10.9002624"><ele>235.0</ele><time>2026-04-18T09:08:30.47Z</time></trkpt><trkpt lat="43.395364" lon="10.9001594"><ele>235.99999999999997</ele><time>2026-04-18T09:08:31.483Z</time></trkpt><trkpt lat="43.3953739" lon="10.9000529"><ele>236.99999999999997</ele><time>2026-04-18T09:08:32.472Z</time></trkpt><trkpt lat="43.3953886" lon="10.8999311"><ele>236.0</ele><time>2026-04-18T09:08:33.472Z</time></trkpt><trkpt lat="43.3954106" lon="10.8997979"><ele>235.0</ele><time>2026-04-18T09:08:34.478Z</time></trkpt><trkpt lat="43.3954187" lon="10.8996739"><ele>234.0</ele><time>2026-04-18T09:08:35.478Z</time></trkpt><trkpt lat="43.3954387" lon="10.8995518"><ele>233.0</ele><time>2026-04-18T09:08:36.474Z</time></trkpt><trkpt lat="43.395468" lon="10.8994515"><ele>232.0</ele><time>2026-04-18T09:08:37.476Z</time></trkpt><trkpt lat="43.3955153" lon="10.8993596"><ele>231.0</ele><time>2026-04-18T09:08:38.483Z</time></trkpt><trkpt lat="43.3955597" lon="10.8992707"><ele>232.66666666666666</ele><time>2026-04-18T09:08:39.468Z</time></trkpt><trkpt lat="43.395609" lon="10.8991628"><ele>234.33333333333331</ele><time>2026-04-18T09:08:40.474Z</time></trkpt><trkpt lat="43.3956682" lon="10.8990761"><ele>236.0</ele><time>2026-04-18T09:08:41.482Z</time></trkpt><trkpt lat="43.3957208" lon="10.8989941"><ele>237.66666666666666</ele><time>2026-04-18T09:08:42.473Z</time></trkpt><trkpt lat="43.395764" lon="10.8989082"><ele>239.33333333333331</ele><time>2026-04-18T09:08:43.466Z</time></trkpt><trkpt lat="43.3958189" lon="10.8988357"><ele>241.0</ele><time>2026-04-18T09:08:44.465Z</time></trkpt><trkpt lat="43.3958723" lon="10.8987643"><ele>240.99999999999997</ele><time>2026-04-18T09:08:45.472Z</time></trkpt><trkpt lat="43.3959202" lon="10.8986738"><ele>241.0</ele><time>2026-04-18T09:08:46.471Z</time></trkpt><trkpt lat="43.3959715" lon="10.8985844"><ele>241.0</ele><time>2026-04-18T09:08:47.481Z</time></trkpt><trkpt lat="43.3960186" lon="10.8985004"><ele>241.0</ele><time>2026-04-18T09:08:48.477Z</time></trkpt><trkpt lat="43.3960445" lon="10.8983984"><ele>240.99999999999997</ele><time>2026-04-18T09:08:49.472Z</time></trkpt><trkpt lat="43.3960699" lon="10.8982991"><ele>241.0</ele><time>2026-04-18T09:08:50.48Z</time></trkpt><trkpt lat="43.3960922" lon="10.8982093"><ele>241.16666666666666</ele><time>2026-04-18T09:08:51.478Z</time></trkpt><trkpt lat="43.3961221" lon="10.8981211"><ele>241.33333333333331</ele><time>2026-04-18T09:08:52.465Z</time></trkpt><trkpt lat="43.3961676" lon="10.8980381"><ele>241.5</ele><time>2026-04-18T09:08:53.478Z</time></trkpt><trkpt lat="43.3962283" lon="10.8979581"><ele>241.66666666666669</ele><time>2026-04-18T09:08:54.469Z</time></trkpt><trkpt lat="43.396288" lon="10.8978897"><ele>241.83333333333334</ele><time>2026-04-18T09:08:55.479Z</time></trkpt><trkpt lat="43.3963424" lon="10.8978289"><ele>242.0</ele><time>2026-04-18T09:08:56.476Z</time></trkpt><trkpt lat="43.3964175" lon="10.8977522"><ele>242.00000000000003</ele><time>2026-04-18T09:08:57.474Z</time></trkpt><trkpt lat="43.3964991" lon="10.8976671"><ele>242.0</ele><time>2026-04-18T09:08:58.474Z</time></trkpt><trkpt lat="43.3965608" lon="10.8975886"><ele>242.0</ele><time>2026-04-18T09:08:59.465Z</time></trkpt><trkpt lat="43.3966349" lon="10.8975125"><ele>242.0</ele><time>2026-04-18T09:09:00.481Z</time></trkpt><trkpt lat="43.396694" lon="10.8974336"><ele>242.00000000000003</ele><time>2026-04-18T09:09:01.474Z</time></trkpt><trkpt lat="43.3967519" lon="10.8973533"><ele>242.0</ele><time>2026-04-18T09:09:02.476Z</time></trkpt><trkpt lat="43.396804" lon="10.8972375"><ele>244.33333333333334</ele><time>2026-04-18T09:09:03.474Z</time></trkpt><trkpt lat="43.3968324" lon="10.8971176"><ele>246.66666666666669</ele><time>2026-04-18T09:09:04.479Z</time></trkpt><trkpt lat="43.396854" lon="10.897007"><ele>249.0</ele><time>2026-04-18T09:09:05.483Z</time></trkpt><trkpt lat="43.396879" lon="10.8968946"><ele>251.33333333333331</ele><time>2026-04-18T09:09:06.475Z</time></trkpt><trkpt lat="43.396915" lon="10.8967957"><ele>253.66666666666666</ele><time>2026-04-18T09:09:07.474Z</time></trkpt><trkpt lat="43.3969564" lon="10.896695"><ele>256.0</ele><time>2026-04-18T09:09:08.473Z</time></trkpt><trkpt lat="43.3969969" lon="10.8965699"><ele>255.60000000000002</ele><time>2026-04-18T09:09:09.476Z</time></trkpt><trkpt lat="43.3970261" lon="10.8964372"><ele>255.20000000000002</ele><time>2026-04-18T09:09:10.467Z</time></trkpt><trkpt lat="43.3970528" lon="10.8963213"><ele>254.79999999999998</ele><time>2026-04-18T09:09:11.484Z</time></trkpt><trkpt lat="43.3971196" lon="10.8962052"><ele>254.39999999999998</ele><time>2026-04-18T09:09:12.466Z</time></trkpt><trkpt lat="43.3971877" lon="10.8961181"><ele>254.0</ele><time>2026-04-18T09:09:13.478Z</time></trkpt><trkpt lat="43.397244" lon="10.8960145"><ele>255.16666666666669</ele><time>2026-04-18T09:09:14.476Z</time></trkpt><trkpt lat="43.3972757" lon="10.8959182"><ele>256.33333333333337</ele><time>2026-04-18T09:09:15.472Z</time></trkpt><trkpt lat="43.3973067" lon="10.8958087"><ele>257.5</ele><time>2026-04-18T09:09:16.454Z</time></trkpt><trkpt lat="43.3973243" lon="10.8956844"><ele>258.6666666666667</ele><time>2026-04-18T09:09:17.477Z</time></trkpt><trkpt lat="43.3973229" lon="10.8955578"><ele>259.8333333333333</ele><time>2026-04-18T09:09:18.471Z</time></trkpt><trkpt lat="43.3973262" lon="10.8954375"><ele>261.0</ele><time>2026-04-18T09:09:19.474Z</time></trkpt><trkpt lat="43.3973523" lon="10.895325"><ele>261.0</ele><time>2026-04-18T09:09:20.47Z</time></trkpt><trkpt lat="43.3973743" lon="10.8952181"><ele>261.0</ele><time>2026-04-18T09:09:21.473Z</time></trkpt><trkpt lat="43.3973992" lon="10.8951295"><ele>261.0</ele><time>2026-04-18T09:09:22.469Z</time></trkpt><trkpt lat="43.3974429" lon="10.8950173"><ele>261.0</ele><time>2026-04-18T09:09:23.477Z</time></trkpt><trkpt lat="43.3974958" lon="10.8949065"><ele>261.0</ele><time>2026-04-18T09:09:24.467Z</time></trkpt><trkpt lat="43.3975509" lon="10.8948058"><ele>261.0</ele><time>2026-04-18T09:09:25.47Z</time></trkpt><trkpt lat="43.397625" lon="10.8947425"><ele>260.40000000000003</ele><time>2026-04-18T09:09:26.464Z</time></trkpt><trkpt lat="43.3977058" lon="10.8946785"><ele>259.8</ele><time>2026-04-18T09:09:27.474Z</time></trkpt><trkpt lat="43.3977879" lon="10.8946244"><ele>259.20000000000005</ele><time>2026-04-18T09:09:28.481Z</time></trkpt><trkpt lat="43.3978653" lon="10.8945638"><ele>258.6</ele><time>2026-04-18T09:09:29.47Z</time></trkpt><trkpt lat="43.3979514" lon="10.8944905"><ele>258.0</ele><time>2026-04-18T09:09:30.467Z</time></trkpt><trkpt lat="43.3980224" lon="10.8944173"><ele>258.0</ele><time>2026-04-18T09:09:31.468Z</time></trkpt><trkpt lat="43.3980654" lon="10.8943477"><ele>258.0</ele><time>2026-04-18T09:09:32.466Z</time></trkpt><trkpt lat="43.3981245" lon="10.8942618"><ele>258.0</ele><time>2026-04-18T09:09:33.483Z</time></trkpt><trkpt lat="43.3981694" lon="10.8941723"><ele>258.0</ele><time>2026-04-18T09:09:34.47Z</time></trkpt><trkpt lat="43.3982063" lon="10.8940999"><ele>258.0</ele><time>2026-04-18T09:09:35.478Z</time></trkpt><trkpt lat="43.3982464" lon="10.8940326"><ele>258.0</ele><time>2026-04-18T09:09:36.467Z</time></trkpt><trkpt lat="43.3983076" lon="10.8939171"><ele>260.6666666666667</ele><time>2026-04-18T09:09:38.469Z</time></trkpt><trkpt lat="43.3983504" lon="10.8938442"><ele>263.3333333333333</ele><time>2026-04-18T09:09:39.473Z</time></trkpt><trkpt lat="43.3983978" lon="10.8937845"><ele>266.0</ele><time>2026-04-18T09:09:40.483Z</time></trkpt><trkpt lat="43.3984464" lon="10.8937239"><ele>268.66666666666663</ele><time>2026-04-18T09:09:41.472Z</time></trkpt><trkpt lat="43.3985333" lon="10.893613"><ele>271.3333333333333</ele><time>2026-04-18T09:09:43.476Z</time></trkpt><trkpt lat="43.398596" lon="10.8935056"><ele>274.0</ele><time>2026-04-18T09:09:45.476Z</time></trkpt><trkpt lat="43.3986427" lon="10.8934459"><ele>274.8571428571429</ele><time>2026-04-18T09:09:46.461Z</time></trkpt><trkpt lat="43.3986892" lon="10.8933871"><ele>275.7142857142857</ele><time>2026-04-18T09:09:47.464Z</time></trkpt><trkpt lat="43.3987377" lon="10.8933267"><ele>276.57142857142856</ele><time>2026-04-18T09:09:48.468Z</time></trkpt><trkpt lat="43.3987915" lon="10.8932691"><ele>277.42857142857144</ele><time>2026-04-18T09:09:49.467Z</time></trkpt><trkpt lat="43.3988471" lon="10.8932273"><ele>278.2857142857143</ele><time>2026-04-18T09:09:50.479Z</time></trkpt><trkpt lat="43.3989087" lon="10.8931883"><ele>279.14285714285717</ele><time>2026-04-18T09:09:51.468Z</time></trkpt><trkpt lat="43.399016" lon="10.8931302"><ele>280.0</ele><time>2026-04-18T09:09:53.469Z</time></trkpt><trkpt lat="43.399078" lon="10.8931023"><ele>280.0</ele><time>2026-04-18T09:09:54.476Z</time></trkpt><trkpt lat="43.3992082" lon="10.8930833"><ele>280.0</ele><time>2026-04-18T09:09:56.476Z</time></trkpt><trkpt lat="43.3992791" lon="10.8930987"><ele>280.0</ele><time>2026-04-18T09:09:57.471Z</time></trkpt><trkpt lat="43.3993445" lon="10.8931043"><ele>280.0</ele><time>2026-04-18T09:09:58.472Z</time></trkpt><trkpt lat="43.3994313" lon="10.8931131"><ele>280.0</ele><time>2026-04-18T09:10:00.461Z</time></trkpt><trkpt lat="43.3995183" lon="10.893058"><ele>280.0</ele><time>2026-04-18T09:10:02.472Z</time></trkpt><trkpt lat="43.3995778" lon="10.8929556"><ele>280.0</ele><time>2026-04-18T09:10:04.471Z</time></trkpt><trkpt lat="43.3996305" lon="10.892829"><ele>280.0</ele><time>2026-04-18T09:10:06.468Z</time></trkpt><trkpt lat="43.3996814" lon="10.8927774"><ele>280.0</ele><time>2026-04-18T09:10:08.471Z</time></trkpt><trkpt lat="43.3996343" lon="10.8927112"><ele>280.0</ele><time>2026-04-18T09:10:16.48Z</time></trkpt><trkpt lat="43.399555" lon="10.8927998"><ele>280.0</ele><time>2026-04-18T09:10:18.476Z</time></trkpt><trkpt lat="43.3994724" lon="10.8928948"><ele>280.0</ele><time>2026-04-18T09:10:20.471Z</time></trkpt><trkpt lat="43.399402" lon="10.8929211"><ele>280.0</ele><time>2026-04-18T09:10:21.479Z</time></trkpt><trkpt lat="43.3992769" lon="10.8929412"><ele>280.0</ele><time>2026-04-18T09:10:23.479Z</time></trkpt><trkpt lat="43.3991991" lon="10.8929523"><ele>280.0</ele><time>2026-04-18T09:10:24.474Z</time></trkpt><trkpt lat="43.3991181" lon="10.892954"><ele>280.0</ele><time>2026-04-18T09:10:25.478Z</time></trkpt><trkpt lat="43.3990321" lon="10.8929531"><ele>280.0</ele><time>2026-04-18T09:10:26.465Z</time></trkpt><trkpt lat="43.3989376" lon="10.8929447"><ele>280.0</ele><time>2026-04-18T09:10:27.475Z</time></trkpt><trkpt lat="43.3988363" lon="10.8929482"><ele>280.0</ele><time>2026-04-18T09:10:28.472Z</time></trkpt><trkpt lat="43.3987384" lon="10.8929658"><ele>280.0</ele><time>2026-04-18T09:10:29.472Z</time></trkpt><trkpt lat="43.3986325" lon="10.8930092"><ele>280.0</ele><time>2026-04-18T09:10:30.469Z</time></trkpt><trkpt lat="43.3985252" lon="10.8930499"><ele>280.0</ele><time>2026-04-18T09:10:31.471Z</time></trkpt><trkpt lat="43.3984023" lon="10.8930913"><ele>283.5</ele><time>2026-04-18T09:10:32.469Z</time></trkpt><trkpt lat="43.3982719" lon="10.8931624"><ele>287.0</ele><time>2026-04-18T09:10:33.48Z</time></trkpt><trkpt lat="43.3981399" lon="10.8932266"><ele>290.5</ele><time>2026-04-18T09:10:34.474Z</time></trkpt><trkpt lat="43.3979961" lon="10.8932537"><ele>294.0</ele><time>2026-04-18T09:10:35.475Z</time></trkpt><trkpt lat="43.3978301" lon="10.8932447"><ele>296.25</ele><time>2026-04-18T09:10:36.471Z</time></trkpt><trkpt lat="43.3976851" lon="10.8932608"><ele>298.5</ele><time>2026-04-18T09:10:37.474Z</time></trkpt><trkpt lat="43.397545" lon="10.8932654"><ele>300.75</ele><time>2026-04-18T09:10:38.478Z</time></trkpt><trkpt lat="43.3973972" lon="10.8932583"><ele>303.0</ele><time>2026-04-18T09:10:39.487Z</time></trkpt><trkpt lat="43.3972458" lon="10.8932678"><ele>305.75</ele><time>2026-04-18T09:10:40.472Z</time></trkpt><trkpt lat="43.3971007" lon="10.8932797"><ele>308.5</ele><time>2026-04-18T09:10:41.481Z</time></trkpt><trkpt lat="43.3969609" lon="10.8933068"><ele>311.25</ele><time>2026-04-18T09:10:42.476Z</time></trkpt><trkpt lat="43.3968329" lon="10.8933581"><ele>314.0</ele><time>2026-04-18T09:10:43.47Z</time></trkpt><trkpt lat="43.3966998" lon="10.8934181"><ele>313.25</ele><time>2026-04-18T09:10:44.482Z</time></trkpt><trkpt lat="43.3965697" lon="10.8934911"><ele>312.5</ele><time>2026-04-18T09:10:45.471Z</time></trkpt><trkpt lat="43.3964467" lon="10.8935694"><ele>311.75</ele><time>2026-04-18T09:10:46.471Z</time></trkpt><trkpt lat="43.3963235" lon="10.89364"><ele>311.0</ele><time>2026-04-18T09:10:47.471Z</time></trkpt><trkpt lat="43.3961951" lon="10.8937257"><ele>311.0</ele><time>2026-04-18T09:10:48.476Z</time></trkpt><trkpt lat="43.3960656" lon="10.8938195"><ele>311.0</ele><time>2026-04-18T09:10:49.487Z</time></trkpt><trkpt lat="43.3959259" lon="10.8939123"><ele>311.0</ele><time>2026-04-18T09:10:50.475Z</time></trkpt><trkpt lat="43.3957827" lon="10.8940096"><ele>311.0</ele><time>2026-04-18T09:10:51.471Z</time></trkpt><trkpt lat="43.3956347" lon="10.8941069"><ele>311.0</ele><time>2026-04-18T09:10:52.489Z</time></trkpt><trkpt lat="43.3954857" lon="10.8942003"><ele>311.0</ele><time>2026-04-18T09:10:53.474Z</time></trkpt><trkpt lat="43.3953339" lon="10.8942968"><ele>312.6666666666667</ele><time>2026-04-18T09:10:54.48Z</time></trkpt><trkpt lat="43.3951865" lon="10.8944055"><ele>314.3333333333333</ele><time>2026-04-18T09:10:55.479Z</time></trkpt><trkpt lat="43.3950406" lon="10.8945262"><ele>316.0</ele><time>2026-04-18T09:10:56.468Z</time></trkpt><trkpt lat="43.3949028" lon="10.8946523"><ele>316.0</ele><time>2026-04-18T09:10:57.474Z</time></trkpt><trkpt lat="43.3947721" lon="10.8947876"><ele>316.0</ele><time>2026-04-18T09:10:58.474Z</time></trkpt><trkpt lat="43.3946407" lon="10.8949381"><ele>316.0</ele><time>2026-04-18T09:10:59.473Z</time></trkpt><trkpt lat="43.3945201" lon="10.8950809"><ele>318.66666666666663</ele><time>2026-04-18T09:11:00.471Z</time></trkpt><trkpt lat="43.3943844" lon="10.8952139"><ele>321.3333333333333</ele><time>2026-04-18T09:11:01.477Z</time></trkpt><trkpt lat="43.3942456" lon="10.8953286"><ele>324.0</ele><time>2026-04-18T09:11:02.472Z</time></trkpt><trkpt lat="43.3941051" lon="10.8954366"><ele>324.0</ele><time>2026-04-18T09:11:03.475Z</time></trkpt><trkpt lat="43.3939584" lon="10.8955317"><ele>324.0</ele><time>2026-04-18T09:11:04.477Z</time></trkpt><trkpt lat="43.3938143" lon="10.8956215"><ele>324.0</ele><time>2026-04-18T09:11:05.481Z</time></trkpt><trkpt lat="43.3936751" lon="10.8956948"><ele>326.25</ele><time>2026-04-18T09:11:06.479Z</time></trkpt><trkpt lat="43.3935396" lon="10.8957563"><ele>328.5</ele><time>2026-04-18T09:11:07.49Z</time></trkpt><trkpt lat="43.3934027" lon="10.8958094"><ele>330.75</ele><time>2026-04-18T09:11:08.48Z</time></trkpt><trkpt lat="43.3932886" lon="10.8958317"><ele>333.0</ele><time>2026-04-18T09:11:09.469Z</time></trkpt><trkpt lat="43.3931759" lon="10.8958511"><ele>333.0</ele><time>2026-04-18T09:11:10.481Z</time></trkpt><trkpt lat="43.3930684" lon="10.8958643"><ele>333.0</ele><time>2026-04-18T09:11:11.487Z</time></trkpt><trkpt lat="43.392965" lon="10.895869"><ele>333.0</ele><time>2026-04-18T09:11:12.472Z</time></trkpt><trkpt lat="43.3928613" lon="10.8958653"><ele>333.0</ele><time>2026-04-18T09:11:13.478Z</time></trkpt><trkpt lat="43.3927708" lon="10.8958519"><ele>333.0</ele><time>2026-04-18T09:11:14.484Z</time></trkpt><trkpt lat="43.3926971" lon="10.8958235"><ele>333.0</ele><time>2026-04-18T09:11:15.468Z</time></trkpt><trkpt lat="43.3926393" lon="10.8957838"><ele>333.0</ele><time>2026-04-18T09:11:16.466Z</time></trkpt><trkpt lat="43.3925728" lon="10.8956735"><ele>333.0</ele><time>2026-04-18T09:11:18.472Z</time></trkpt><trkpt lat="43.3925348" lon="10.8955785"><ele>333.0</ele><time>2026-04-18T09:11:20.477Z</time></trkpt><trkpt lat="43.3925407" lon="10.8954261"><ele>333.0</ele><time>2026-04-18T09:11:22.488Z</time></trkpt><trkpt lat="43.39254" lon="10.8953172"><ele>333.0</ele><time>2026-04-18T09:11:23.473Z</time></trkpt><trkpt lat="43.3925412" lon="10.8951826"><ele>333.79999999999995</ele><time>2026-04-18T09:11:24.471Z</time></trkpt><trkpt lat="43.392538" lon="10.8950369"><ele>334.6</ele><time>2026-04-18T09:11:25.48Z</time></trkpt><trkpt lat="43.3925486" lon="10.8949075"><ele>335.4</ele><time>2026-04-18T09:11:26.473Z</time></trkpt><trkpt lat="43.3925665" lon="10.8947774"><ele>336.20000000000005</ele><time>2026-04-18T09:11:27.466Z</time></trkpt><trkpt lat="43.3925885" lon="10.8946423"><ele>337.0</ele><time>2026-04-18T09:11:28.465Z</time></trkpt><trkpt lat="43.3926376" lon="10.8945163"><ele>337.0</ele><time>2026-04-18T09:11:29.472Z</time></trkpt><trkpt lat="43.3927036" lon="10.8943892"><ele>337.0</ele><time>2026-04-18T09:11:30.479Z</time></trkpt><trkpt lat="43.3927855" lon="10.8942723"><ele>337.0</ele><time>2026-04-18T09:11:31.478Z</time></trkpt><trkpt lat="43.3928812" lon="10.894165"><ele>337.0</ele><time>2026-04-18T09:11:32.478Z</time></trkpt><trkpt lat="43.3929825" lon="10.8940651"><ele>339.75</ele><time>2026-04-18T09:11:33.468Z</time></trkpt><trkpt lat="43.3930931" lon="10.8939714"><ele>342.5</ele><time>2026-04-18T09:11:34.493Z</time></trkpt><trkpt lat="43.3932125" lon="10.8938998"><ele>345.25</ele><time>2026-04-18T09:11:35.47Z</time></trkpt><trkpt lat="43.3933271" lon="10.8938198"><ele>348.0</ele><time>2026-04-18T09:11:36.475Z</time></trkpt><trkpt lat="43.3934378" lon="10.8937456"><ele>348.0</ele><time>2026-04-18T09:11:37.483Z</time></trkpt><trkpt lat="43.3935442" lon="10.8936472"><ele>348.0</ele><time>2026-04-18T09:11:38.483Z</time></trkpt><trkpt lat="43.3936311" lon="10.8935313"><ele>348.0</ele><time>2026-04-18T09:11:39.498Z</time></trkpt><trkpt lat="43.3937074" lon="10.8933824"><ele>348.0</ele><time>2026-04-18T09:11:40.496Z</time></trkpt><trkpt lat="43.3937722" lon="10.8932323"><ele>346.25</ele><time>2026-04-18T09:11:41.489Z</time></trkpt><trkpt lat="43.3938419" lon="10.8930856"><ele>344.5</ele><time>2026-04-18T09:11:42.48Z</time></trkpt><trkpt lat="43.393904" lon="10.8929334"><ele>342.75</ele><time>2026-04-18T09:11:43.493Z</time></trkpt><trkpt lat="43.3939444" lon="10.892778"><ele>341.0</ele><time>2026-04-18T09:11:44.488Z</time></trkpt><trkpt lat="43.3939564" lon="10.892606"><ele>340.5</ele><time>2026-04-18T09:11:45.491Z</time></trkpt><trkpt lat="43.3939366" lon="10.892423"><ele>340.0</ele><time>2026-04-18T09:11:46.484Z</time></trkpt><trkpt lat="43.393888" lon="10.8922684"><ele>339.5</ele><time>2026-04-18T09:11:47.485Z</time></trkpt><trkpt lat="43.3938204" lon="10.8921523"><ele>339.0</ele><time>2026-04-18T09:11:48.5Z</time></trkpt><trkpt lat="43.3937339" lon="10.8920528"><ele>339.0</ele><time>2026-04-18T09:11:49.504Z</time></trkpt><trkpt lat="43.3936469" lon="10.8919531"><ele>339.0</ele><time>2026-04-18T09:11:50.509Z</time></trkpt><trkpt lat="43.3935623" lon="10.8918419"><ele>339.0</ele><time>2026-04-18T09:11:51.501Z</time></trkpt><trkpt lat="43.3934829" lon="10.8917238"><ele>339.0</ele><time>2026-04-18T09:11:52.495Z</time></trkpt><trkpt lat="43.3934172" lon="10.8915917"><ele>342.5</ele><time>2026-04-18T09:11:53.495Z</time></trkpt><trkpt lat="43.3933501" lon="10.8914517"><ele>346.0</ele><time>2026-04-18T09:11:54.495Z</time></trkpt><trkpt lat="43.393282" lon="10.8912991"><ele>349.5</ele><time>2026-04-18T09:11:55.488Z</time></trkpt><trkpt lat="43.3932185" lon="10.8911483"><ele>353.0</ele><time>2026-04-18T09:11:56.504Z</time></trkpt><trkpt lat="43.3931509" lon="10.8910142"><ele>355.79999999999995</ele><time>2026-04-18T09:11:57.495Z</time></trkpt><trkpt lat="43.3930964" lon="10.8908888"><ele>358.6</ele><time>2026-04-18T09:11:58.497Z</time></trkpt><trkpt lat="43.3930834" lon="10.8907528"><ele>361.4</ele><time>2026-04-18T09:11:59.498Z</time></trkpt><trkpt lat="43.3930938" lon="10.8906121"><ele>364.20000000000005</ele><time>2026-04-18T09:12:00.497Z</time></trkpt><trkpt lat="43.3931397" lon="10.8904814"><ele>367.0</ele><time>2026-04-18T09:12:01.492Z</time></trkpt><trkpt lat="43.3931872" lon="10.8903604"><ele>367.0</ele><time>2026-04-18T09:12:02.486Z</time></trkpt><trkpt lat="43.3932411" lon="10.8902366"><ele>367.0</ele><time>2026-04-18T09:12:03.503Z</time></trkpt><trkpt lat="43.3933009" lon="10.8901033"><ele>367.0</ele><time>2026-04-18T09:12:04.493Z</time></trkpt><trkpt lat="43.3933707" lon="10.8899585"><ele>367.0</ele><time>2026-04-18T09:12:05.486Z</time></trkpt><trkpt lat="43.3934379" lon="10.889809"><ele>366.5</ele><time>2026-04-18T09:12:06.481Z</time></trkpt><trkpt lat="43.3935035" lon="10.8896532"><ele>366.0</ele><time>2026-04-18T09:12:07.48Z</time></trkpt><trkpt lat="43.3935624" lon="10.8894967"><ele>365.5</ele><time>2026-04-18T09:12:08.493Z</time></trkpt><trkpt lat="43.3936373" lon="10.8893647"><ele>365.0</ele><time>2026-04-18T09:12:09.486Z</time></trkpt><trkpt lat="43.3937333" lon="10.8892611"><ele>367.75</ele><time>2026-04-18T09:12:10.493Z</time></trkpt><trkpt lat="43.3938464" lon="10.8891762"><ele>370.5</ele><time>2026-04-18T09:12:11.487Z</time></trkpt><trkpt lat="43.3939632" lon="10.8890954"><ele>373.25</ele><time>2026-04-18T09:12:12.475Z</time></trkpt><trkpt lat="43.3940853" lon="10.8890103"><ele>376.0</ele><time>2026-04-18T09:12:13.493Z</time></trkpt><trkpt lat="43.3942115" lon="10.8889197"><ele>376.0</ele><time>2026-04-18T09:12:14.497Z</time></trkpt><trkpt lat="43.3943268" lon="10.8888235"><ele>376.0</ele><time>2026-04-18T09:12:15.489Z</time></trkpt><trkpt lat="43.3944296" lon="10.8886922"><ele>376.0</ele><time>2026-04-18T09:12:16.484Z</time></trkpt><trkpt lat="43.3944995" lon="10.8885479"><ele>376.0</ele><time>2026-04-18T09:12:17.496Z</time></trkpt><trkpt lat="43.3945283" lon="10.8884075"><ele>376.8333333333333</ele><time>2026-04-18T09:12:18.486Z</time></trkpt><trkpt lat="43.3945546" lon="10.8882987"><ele>377.66666666666663</ele><time>2026-04-18T09:12:19.48Z</time></trkpt><trkpt lat="43.3945904" lon="10.8882013"><ele>378.5</ele><time>2026-04-18T09:12:20.485Z</time></trkpt><trkpt lat="43.3946347" lon="10.8881389"><ele>379.3333333333333</ele><time>2026-04-18T09:12:21.504Z</time></trkpt><trkpt lat="43.3947572" lon="10.8881112"><ele>380.1666666666667</ele><time>2026-04-18T09:12:23.474Z</time></trkpt><trkpt lat="43.3948199" lon="10.8881356"><ele>381.0</ele><time>2026-04-18T09:12:24.486Z</time></trkpt><trkpt lat="43.3948595" lon="10.88821"><ele>381.0</ele><time>2026-04-18T09:12:25.49Z</time></trkpt><trkpt lat="43.394878" lon="10.888317"><ele>381.0</ele><time>2026-04-18T09:12:26.494Z</time></trkpt><trkpt lat="43.3948814" lon="10.8884433"><ele>381.0</ele><time>2026-04-18T09:12:27.476Z</time></trkpt><trkpt lat="43.3948725" lon="10.8885777"><ele>381.0</ele><time>2026-04-18T09:12:28.483Z</time></trkpt><trkpt lat="43.3948498" lon="10.8887161"><ele>381.0</ele><time>2026-04-18T09:12:29.476Z</time></trkpt><trkpt lat="43.3948325" lon="10.8888517"><ele>381.6</ele><time>2026-04-18T09:12:30.472Z</time></trkpt><trkpt lat="43.3948218" lon="10.888993"><ele>382.20000000000005</ele><time>2026-04-18T09:12:31.478Z</time></trkpt><trkpt lat="43.3948371" lon="10.889138"><ele>382.79999999999995</ele><time>2026-04-18T09:12:32.482Z</time></trkpt><trkpt lat="43.3948712" lon="10.8892403"><ele>383.4</ele><time>2026-04-18T09:12:33.468Z</time></trkpt><trkpt lat="43.3949239" lon="10.8893354"><ele>384.0</ele><time>2026-04-18T09:12:34.481Z</time></trkpt><trkpt lat="43.3950134" lon="10.8893817"><ele>384.0</ele><time>2026-04-18T09:12:35.471Z</time></trkpt><trkpt lat="43.3951081" lon="10.8893402"><ele>384.0</ele><time>2026-04-18T09:12:36.471Z</time></trkpt><trkpt lat="43.3951807" lon="10.8892627"><ele>384.0</ele><time>2026-04-18T09:12:37.473Z</time></trkpt><trkpt lat="43.3952328" lon="10.8891419"><ele>384.0</ele><time>2026-04-18T09:12:38.483Z</time></trkpt><trkpt lat="43.395293" lon="10.8890259"><ele>384.0</ele><time>2026-04-18T09:12:39.471Z</time></trkpt><trkpt lat="43.3953511" lon="10.8888949"><ele>384.0</ele><time>2026-04-18T09:12:40.475Z</time></trkpt><trkpt lat="43.3954025" lon="10.8887638"><ele>384.0</ele><time>2026-04-18T09:12:41.481Z</time></trkpt><trkpt lat="43.3954568" lon="10.888638"><ele>384.0</ele><time>2026-04-18T09:12:42.477Z</time></trkpt><trkpt lat="43.3955191" lon="10.888507"><ele>384.0</ele><time>2026-04-18T09:12:43.486Z</time></trkpt><trkpt lat="43.395566" lon="10.8883671"><ele>384.0</ele><time>2026-04-18T09:12:44.477Z</time></trkpt><trkpt lat="43.3956176" lon="10.888242"><ele>385.4</ele><time>2026-04-18T09:12:45.487Z</time></trkpt><trkpt lat="43.3956729" lon="10.8881153"><ele>386.79999999999995</ele><time>2026-04-18T09:12:46.478Z</time></trkpt><trkpt lat="43.3957506" lon="10.8880172"><ele>388.20000000000005</ele><time>2026-04-18T09:12:47.484Z</time></trkpt><trkpt lat="43.3958427" lon="10.8879496"><ele>389.6</ele><time>2026-04-18T09:12:48.469Z</time></trkpt><trkpt lat="43.3959314" lon="10.8878844"><ele>391.0</ele><time>2026-04-18T09:12:49.48Z</time></trkpt><trkpt lat="43.3960077" lon="10.8878247"><ele>391.0</ele><time>2026-04-18T09:12:50.471Z</time></trkpt><trkpt lat="43.396072" lon="10.8877262"><ele>391.0</ele><time>2026-04-18T09:12:51.476Z</time></trkpt><trkpt lat="43.3961021" lon="10.8875982"><ele>391.0</ele><time>2026-04-18T09:12:52.471Z</time></trkpt><trkpt lat="43.3960822" lon="10.8874773"><ele>391.0</ele><time>2026-04-18T09:12:53.475Z</time></trkpt><trkpt lat="43.3960507" lon="10.8873446"><ele>391.0</ele><time>2026-04-18T09:12:54.473Z</time></trkpt><trkpt lat="43.3960154" lon="10.8871897"><ele>392.20000000000005</ele><time>2026-04-18T09:12:55.483Z</time></trkpt><trkpt lat="43.3959779" lon="10.8870476"><ele>393.40000000000003</ele><time>2026-04-18T09:12:56.478Z</time></trkpt><trkpt lat="43.3959476" lon="10.8869068"><ele>394.6</ele><time>2026-04-18T09:12:57.477Z</time></trkpt><trkpt lat="43.3959295" lon="10.8867624"><ele>395.8</ele><time>2026-04-18T09:12:58.478Z</time></trkpt><trkpt lat="43.3959277" lon="10.886624"><ele>397.0</ele><time>2026-04-18T09:12:59.479Z</time></trkpt><trkpt lat="43.3959466" lon="10.8864845"><ele>397.5</ele><time>2026-04-18T09:13:00.47Z</time></trkpt><trkpt lat="43.3960006" lon="10.8863344"><ele>398.0</ele><time>2026-04-18T09:13:01.48Z</time></trkpt><trkpt lat="43.3960646" lon="10.886189"><ele>398.5</ele><time>2026-04-18T09:13:02.466Z</time></trkpt><trkpt lat="43.3961385" lon="10.8860514"><ele>399.0</ele><time>2026-04-18T09:13:03.477Z</time></trkpt><trkpt lat="43.3962151" lon="10.8859172"><ele>399.0</ele><time>2026-04-18T09:13:04.479Z</time></trkpt><trkpt lat="43.3962936" lon="10.8858019"><ele>399.0</ele><time>2026-04-18T09:13:05.476Z</time></trkpt><trkpt lat="43.3963681" lon="10.8856793"><ele>399.0</ele><time>2026-04-18T09:13:06.474Z</time></trkpt><trkpt lat="43.3964375" lon="10.8855591"><ele>399.0</ele><time>2026-04-18T09:13:07.48Z</time></trkpt><trkpt lat="43.3965063" lon="10.885445"><ele>400.75</ele><time>2026-04-18T09:13:08.481Z</time></trkpt><trkpt lat="43.3965817" lon="10.8853307"><ele>402.5</ele><time>2026-04-18T09:13:09.471Z</time></trkpt><trkpt lat="43.3966517" lon="10.8852131"><ele>404.25</ele><time>2026-04-18T09:13:10.477Z</time></trkpt><trkpt lat="43.3967268" lon="10.8850814"><ele>406.0</ele><time>2026-04-18T09:13:11.478Z</time></trkpt><trkpt lat="43.3967995" lon="10.8849475"><ele>406.0</ele><time>2026-04-18T09:13:12.474Z</time></trkpt><trkpt lat="43.3968668" lon="10.8848285"><ele>406.0</ele><time>2026-04-18T09:13:13.49Z</time></trkpt><trkpt lat="43.396927" lon="10.8847224"><ele>406.0</ele><time>2026-04-18T09:13:14.472Z</time></trkpt><trkpt lat="43.3969844" lon="10.8846274"><ele>406.0</ele><time>2026-04-18T09:13:15.475Z</time></trkpt><trkpt lat="43.3970416" lon="10.8845271"><ele>406.0</ele><time>2026-04-18T09:13:16.48Z</time></trkpt><trkpt lat="43.397109" lon="10.8844183"><ele>406.0</ele><time>2026-04-18T09:13:17.487Z</time></trkpt><trkpt lat="43.3971689" lon="10.884304"><ele>406.0</ele><time>2026-04-18T09:13:18.478Z</time></trkpt><trkpt lat="43.397225" lon="10.8841805"><ele>406.0</ele><time>2026-04-18T09:13:19.47Z</time></trkpt><trkpt lat="43.3972611" lon="10.884045"><ele>406.0</ele><time>2026-04-18T09:13:20.486Z</time></trkpt><trkpt lat="43.3972627" lon="10.8839026"><ele>406.0</ele><time>2026-04-18T09:13:21.471Z</time></trkpt><trkpt lat="43.39725" lon="10.8837458"><ele>406.75</ele><time>2026-04-18T09:13:22.486Z</time></trkpt><trkpt lat="43.397219" lon="10.8835652"><ele>407.5</ele><time>2026-04-18T09:13:23.471Z</time></trkpt><trkpt lat="43.3971852" lon="10.8833987"><ele>408.25</ele><time>2026-04-18T09:13:24.475Z</time></trkpt><trkpt lat="43.3971629" lon="10.8832251"><ele>409.0</ele><time>2026-04-18T09:13:25.476Z</time></trkpt><trkpt lat="43.3971464" lon="10.8830427"><ele>407.25</ele><time>2026-04-18T09:13:26.498Z</time></trkpt><trkpt lat="43.3971359" lon="10.8828516"><ele>405.5</ele><time>2026-04-18T09:13:27.473Z</time></trkpt><trkpt lat="43.3971345" lon="10.8826654"><ele>403.75</ele><time>2026-04-18T09:13:28.488Z</time></trkpt><trkpt lat="43.3971415" lon="10.8824735"><ele>402.0</ele><time>2026-04-18T09:13:29.468Z</time></trkpt><trkpt lat="43.3971394" lon="10.8822841"><ele>402.0</ele><time>2026-04-18T09:13:30.478Z</time></trkpt><trkpt lat="43.3971028" lon="10.882118"><ele>402.0</ele><time>2026-04-18T09:13:31.473Z</time></trkpt><trkpt lat="43.3970762" lon="10.8819415"><ele>402.0</ele><time>2026-04-18T09:13:32.471Z</time></trkpt><trkpt lat="43.3970457" lon="10.8817663"><ele>402.0</ele><time>2026-04-18T09:13:33.471Z</time></trkpt><trkpt lat="43.3970113" lon="10.8815857"><ele>405.0</ele><time>2026-04-18T09:13:34.478Z</time></trkpt><trkpt lat="43.3969777" lon="10.8813976"><ele>408.0</ele><time>2026-04-18T09:13:35.478Z</time></trkpt><trkpt lat="43.3969358" lon="10.8812077"><ele>411.0</ele><time>2026-04-18T09:13:36.467Z</time></trkpt><trkpt lat="43.3968988" lon="10.8810169"><ele>414.0</ele><time>2026-04-18T09:13:37.477Z</time></trkpt><trkpt lat="43.3968619" lon="10.8808216"><ele>416.5</ele><time>2026-04-18T09:13:38.47Z</time></trkpt><trkpt lat="43.3968319" lon="10.8806296"><ele>419.0</ele><time>2026-04-18T09:13:39.481Z</time></trkpt><trkpt lat="43.3968145" lon="10.8804337"><ele>421.5</ele><time>2026-04-18T09:13:40.474Z</time></trkpt><trkpt lat="43.396799" lon="10.8802327"><ele>424.0</ele><time>2026-04-18T09:13:41.474Z</time></trkpt><trkpt lat="43.3967771" lon="10.8800351"><ele>427.0</ele><time>2026-04-18T09:13:42.475Z</time></trkpt><trkpt lat="43.3967505" lon="10.8798345"><ele>430.0</ele><time>2026-04-18T09:13:43.479Z</time></trkpt><trkpt lat="43.396718" lon="10.8796356"><ele>433.0</ele><time>2026-04-18T09:13:44.469Z</time></trkpt><trkpt lat="43.3966773" lon="10.8794241"><ele>435.33333333333337</ele><time>2026-04-18T09:13:45.478Z</time></trkpt><trkpt lat="43.3966667" lon="10.8792041"><ele>437.66666666666663</ele><time>2026-04-18T09:13:46.474Z</time></trkpt><trkpt lat="43.3966737" lon="10.8789829"><ele>440.0</ele><time>2026-04-18T09:13:47.485Z</time></trkpt><trkpt lat="43.3967003" lon="10.8787981"><ele>440.0</ele><time>2026-04-18T09:13:48.476Z</time></trkpt><trkpt lat="43.396742" lon="10.878618"><ele>440.0</ele><time>2026-04-18T09:13:49.468Z</time></trkpt><trkpt lat="43.3967998" lon="10.8784467"><ele>440.0</ele><time>2026-04-18T09:13:50.469Z</time></trkpt><trkpt lat="43.3968737" lon="10.8782999"><ele>440.0</ele><time>2026-04-18T09:13:51.467Z</time></trkpt><trkpt lat="43.3969413" lon="10.8781466"><ele>439.75</ele><time>2026-04-18T09:13:52.462Z</time></trkpt><trkpt lat="43.3969828" lon="10.8779687"><ele>439.5</ele><time>2026-04-18T09:13:53.476Z</time></trkpt><trkpt lat="43.3970168" lon="10.8777727"><ele>439.25</ele><time>2026-04-18T09:13:54.475Z</time></trkpt><trkpt lat="43.3970484" lon="10.877573"><ele>439.0</ele><time>2026-04-18T09:13:55.478Z</time></trkpt><trkpt lat="43.397073" lon="10.8773643"><ele>439.0</ele><time>2026-04-18T09:13:56.482Z</time></trkpt><trkpt lat="43.3971025" lon="10.8771646"><ele>439.0</ele><time>2026-04-18T09:13:57.495Z</time></trkpt><trkpt lat="43.3971159" lon="10.8769637"><ele>439.0</ele><time>2026-04-18T09:13:58.495Z</time></trkpt><trkpt lat="43.3971305" lon="10.8767657"><ele>439.0</ele><time>2026-04-18T09:13:59.482Z</time></trkpt><trkpt lat="43.3971499" lon="10.8765714"><ele>446.0</ele><time>2026-04-18T09:14:00.487Z</time></trkpt><trkpt lat="43.3971831" lon="10.8763722"><ele>453.0</ele><time>2026-04-18T09:14:01.501Z</time></trkpt><trkpt lat="43.397237" lon="10.8761791"><ele>460.0</ele><time>2026-04-18T09:14:02.483Z</time></trkpt><trkpt lat="43.3972923" lon="10.875995"><ele>467.0</ele><time>2026-04-18T09:14:03.489Z</time></trkpt><trkpt lat="43.3973609" lon="10.8758135"><ele>467.0</ele><time>2026-04-18T09:14:04.484Z</time></trkpt><trkpt lat="43.3974328" lon="10.8756268"><ele>467.0</ele><time>2026-04-18T09:14:05.497Z</time></trkpt><trkpt lat="43.397503" lon="10.8754471"><ele>467.0</ele><time>2026-04-18T09:14:06.496Z</time></trkpt><trkpt lat="43.3975614" lon="10.8752758"><ele>467.0</ele><time>2026-04-18T09:14:07.479Z</time></trkpt><trkpt lat="43.3976158" lon="10.875107"><ele>466.40000000000003</ele><time>2026-04-18T09:14:08.486Z</time></trkpt><trkpt lat="43.3976572" lon="10.874945"><ele>465.80000000000007</ele><time>2026-04-18T09:14:09.487Z</time></trkpt><trkpt lat="43.3977026" lon="10.8748013"><ele>465.2</ele><time>2026-04-18T09:14:10.479Z</time></trkpt><trkpt lat="43.3977495" lon="10.8746717"><ele>464.6</ele><time>2026-04-18T09:14:11.496Z</time></trkpt><trkpt lat="43.3978113" lon="10.8745544"><ele>464.0</ele><time>2026-04-18T09:14:12.491Z</time></trkpt><trkpt lat="43.3978699" lon="10.874457"><ele>464.0</ele><time>2026-04-18T09:14:13.485Z</time></trkpt><trkpt lat="43.3979398" lon="10.8743584"><ele>464.0</ele><time>2026-04-18T09:14:14.486Z</time></trkpt><trkpt lat="43.3980067" lon="10.8742625"><ele>464.0</ele><time>2026-04-18T09:14:15.487Z</time></trkpt><trkpt lat="43.3980771" lon="10.8741647"><ele>464.0</ele><time>2026-04-18T09:14:16.486Z</time></trkpt><trkpt lat="43.3981435" lon="10.8740563"><ele>464.0</ele><time>2026-04-18T09:14:17.477Z</time></trkpt><trkpt lat="43.3982139" lon="10.8739582"><ele>466.79999999999995</ele><time>2026-04-18T09:14:18.472Z</time></trkpt><trkpt lat="43.3982773" lon="10.8738608"><ele>469.59999999999997</ele><time>2026-04-18T09:14:19.468Z</time></trkpt><trkpt lat="43.3983431" lon="10.8737543"><ele>472.4</ele><time>2026-04-18T09:14:20.471Z</time></trkpt><trkpt lat="43.3984047" lon="10.8736562"><ele>475.2</ele><time>2026-04-18T09:14:21.47Z</time></trkpt><trkpt lat="43.3984616" lon="10.8735443"><ele>478.0</ele><time>2026-04-18T09:14:22.469Z</time></trkpt><trkpt lat="43.3985162" lon="10.8734073"><ele>478.0</ele><time>2026-04-18T09:14:23.476Z</time></trkpt><trkpt lat="43.3985671" lon="10.873278"><ele>477.99999999999994</ele><time>2026-04-18T09:14:24.464Z</time></trkpt><trkpt lat="43.3986234" lon="10.8731544"><ele>477.99999999999994</ele><time>2026-04-18T09:14:25.471Z</time></trkpt><trkpt lat="43.3986742" lon="10.8730365"><ele>478.0</ele><time>2026-04-18T09:14:26.467Z</time></trkpt><trkpt lat="43.3987329" lon="10.8729245"><ele>478.0</ele><time>2026-04-18T09:14:27.476Z</time></trkpt><trkpt lat="43.3987948" lon="10.8728089"><ele>480.4</ele><time>2026-04-18T09:14:28.478Z</time></trkpt><trkpt lat="43.3988492" lon="10.8727046"><ele>482.79999999999995</ele><time>2026-04-18T09:14:29.476Z</time></trkpt><trkpt lat="43.3989017" lon="10.8725946"><ele>485.2</ele><time>2026-04-18T09:14:30.463Z</time></trkpt><trkpt lat="43.3989565" lon="10.8724968"><ele>487.6</ele><time>2026-04-18T09:14:31.465Z</time></trkpt><trkpt lat="43.3990145" lon="10.8724016"><ele>490.0</ele><time>2026-04-18T09:14:32.476Z</time></trkpt><trkpt lat="43.3990702" lon="10.8723178"><ele>490.0</ele><time>2026-04-18T09:14:33.477Z</time></trkpt><trkpt lat="43.3991286" lon="10.8722235"><ele>490.0</ele><time>2026-04-18T09:14:34.478Z</time></trkpt><trkpt lat="43.3991828" lon="10.8721707"><ele>490.0</ele><time>2026-04-18T09:14:35.472Z</time></trkpt><trkpt lat="43.3992349" lon="10.8721027"><ele>490.0</ele><time>2026-04-18T09:14:36.484Z</time></trkpt><trkpt lat="43.399294" lon="10.8720452"><ele>490.0</ele><time>2026-04-18T09:14:37.474Z</time></trkpt><trkpt lat="43.3993502" lon="10.8719897"><ele>490.0</ele><time>2026-04-18T09:14:38.477Z</time></trkpt><trkpt lat="43.3994037" lon="10.8719177"><ele>490.0</ele><time>2026-04-18T09:14:39.473Z</time></trkpt><trkpt lat="43.3994382" lon="10.8718421"><ele>490.33333333333337</ele><time>2026-04-18T09:14:40.468Z</time></trkpt><trkpt lat="43.3994804" lon="10.871756"><ele>490.6666666666667</ele><time>2026-04-18T09:14:41.478Z</time></trkpt><trkpt lat="43.3995427" lon="10.871602"><ele>491.0</ele><time>2026-04-18T09:14:43.482Z</time></trkpt><trkpt lat="43.399569" lon="10.8715213"><ele>491.33333333333337</ele><time>2026-04-18T09:14:44.462Z</time></trkpt><trkpt lat="43.399594" lon="10.8714223"><ele>491.6666666666667</ele><time>2026-04-18T09:14:45.483Z</time></trkpt><trkpt lat="43.3996107" lon="10.871336"><ele>492.0</ele><time>2026-04-18T09:14:46.471Z</time></trkpt><trkpt lat="43.3996602" lon="10.8711682"><ele>492.8333333333333</ele><time>2026-04-18T09:14:48.468Z</time></trkpt><trkpt lat="43.3996787" lon="10.8710645"><ele>493.66666666666663</ele><time>2026-04-18T09:14:49.475Z</time></trkpt><trkpt lat="43.3996952" lon="10.8709654"><ele>494.5</ele><time>2026-04-18T09:14:50.522Z</time></trkpt><trkpt lat="43.3997009" lon="10.8708586"><ele>495.3333333333333</ele><time>2026-04-18T09:14:51.472Z</time></trkpt><trkpt lat="43.3997003" lon="10.8707479"><ele>496.16666666666663</ele><time>2026-04-18T09:14:52.473Z</time></trkpt><trkpt lat="43.3996887" lon="10.8706292"><ele>497.0</ele><time>2026-04-18T09:14:53.477Z</time></trkpt><trkpt lat="43.3996813" lon="10.8704968"><ele>496.99999999999994</ele><time>2026-04-18T09:14:54.483Z</time></trkpt><trkpt lat="43.39967" lon="10.8703764"><ele>497.0</ele><time>2026-04-18T09:14:55.517Z</time></trkpt><trkpt lat="43.3996588" lon="10.8702639"><ele>497.0</ele><time>2026-04-18T09:14:56.473Z</time></trkpt><trkpt lat="43.3996468" lon="10.8701515"><ele>497.0</ele><time>2026-04-18T09:14:57.485Z</time></trkpt><trkpt lat="43.3996369" lon="10.8700517"><ele>496.99999999999994</ele><time>2026-04-18T09:14:58.472Z</time></trkpt><trkpt lat="43.3996289" lon="10.8699607"><ele>497.0</ele><time>2026-04-18T09:14:59.475Z</time></trkpt><trkpt lat="43.3996244" lon="10.8698537"><ele>497.49999999999994</ele><time>2026-04-18T09:15:00.48Z</time></trkpt><trkpt lat="43.399614" lon="10.8697465"><ele>498.0</ele><time>2026-04-18T09:15:01.48Z</time></trkpt><trkpt lat="43.3996008" lon="10.8696354"><ele>498.5</ele><time>2026-04-18T09:15:02.48Z</time></trkpt><trkpt lat="43.3996015" lon="10.8695253"><ele>499.0</ele><time>2026-04-18T09:15:03.476Z</time></trkpt><trkpt lat="43.3995871" lon="10.8694169"><ele>499.49999999999994</ele><time>2026-04-18T09:15:04.478Z</time></trkpt><trkpt lat="43.3995694" lon="10.8693114"><ele>500.0</ele><time>2026-04-18T09:15:05.477Z</time></trkpt><trkpt lat="43.3995499" lon="10.8691938"><ele>500.2</ele><time>2026-04-18T09:15:06.478Z</time></trkpt><trkpt lat="43.3995401" lon="10.8690603"><ele>500.4</ele><time>2026-04-18T09:15:07.477Z</time></trkpt><trkpt lat="43.3995235" lon="10.8689425"><ele>500.6</ele><time>2026-04-18T09:15:08.476Z</time></trkpt><trkpt lat="43.3994997" lon="10.8688215"><ele>500.8</ele><time>2026-04-18T09:15:09.468Z</time></trkpt><trkpt lat="43.3994803" lon="10.8686889"><ele>501.0</ele><time>2026-04-18T09:15:10.475Z</time></trkpt><trkpt lat="43.3994575" lon="10.8685529"><ele>501.0</ele><time>2026-04-18T09:15:11.472Z</time></trkpt><trkpt lat="43.3994217" lon="10.8684226"><ele>501.0</ele><time>2026-04-18T09:15:12.473Z</time></trkpt><trkpt lat="43.3993899" lon="10.8682846"><ele>501.0</ele><time>2026-04-18T09:15:13.466Z</time></trkpt><trkpt lat="43.3993609" lon="10.8681488"><ele>501.0</ele><time>2026-04-18T09:15:14.473Z</time></trkpt><trkpt lat="43.3993326" lon="10.8680156"><ele>501.0</ele><time>2026-04-18T09:15:15.472Z</time></trkpt><trkpt lat="43.3993059" lon="10.8678881"><ele>501.0</ele><time>2026-04-18T09:15:16.47Z</time></trkpt><trkpt lat="43.3992865" lon="10.8677742"><ele>501.0</ele><time>2026-04-18T09:15:17.476Z</time></trkpt><trkpt lat="43.3992679" lon="10.8676472"><ele>501.0</ele><time>2026-04-18T09:15:18.489Z</time></trkpt><trkpt lat="43.3992591" lon="10.8675079"><ele>501.0</ele><time>2026-04-18T09:15:19.477Z</time></trkpt><trkpt lat="43.3992527" lon="10.8673732"><ele>501.0</ele><time>2026-04-18T09:15:20.472Z</time></trkpt><trkpt lat="43.3992514" lon="10.8672458"><ele>502.20000000000005</ele><time>2026-04-18T09:15:21.475Z</time></trkpt><trkpt lat="43.3992515" lon="10.8671155"><ele>503.40000000000003</ele><time>2026-04-18T09:15:22.467Z</time></trkpt><trkpt lat="43.3992466" lon="10.8669831"><ele>504.6</ele><time>2026-04-18T09:15:23.479Z</time></trkpt><trkpt lat="43.3992479" lon="10.8668552"><ele>505.8</ele><time>2026-04-18T09:15:24.461Z</time></trkpt><trkpt lat="43.3992518" lon="10.8667236"><ele>507.0</ele><time>2026-04-18T09:15:25.474Z</time></trkpt><trkpt lat="43.3992534" lon="10.8665957"><ele>508.40000000000003</ele><time>2026-04-18T09:15:26.468Z</time></trkpt><trkpt lat="43.3992585" lon="10.8664692"><ele>509.80000000000007</ele><time>2026-04-18T09:15:27.464Z</time></trkpt><trkpt lat="43.3992652" lon="10.8663402"><ele>511.2</ele><time>2026-04-18T09:15:28.47Z</time></trkpt><trkpt lat="43.3992749" lon="10.8662074"><ele>512.6</ele><time>2026-04-18T09:15:29.475Z</time></trkpt><trkpt lat="43.3992841" lon="10.8660814"><ele>514.0</ele><time>2026-04-18T09:15:30.476Z</time></trkpt><trkpt lat="43.3992846" lon="10.8659418"><ele>514.8</ele><time>2026-04-18T09:15:31.469Z</time></trkpt><trkpt lat="43.3992891" lon="10.8658161"><ele>515.5999999999999</ele><time>2026-04-18T09:15:32.472Z</time></trkpt><trkpt lat="43.3992821" lon="10.8656778"><ele>516.4</ele><time>2026-04-18T09:15:33.471Z</time></trkpt><trkpt lat="43.3992647" lon="10.8655546"><ele>517.1999999999999</ele><time>2026-04-18T09:15:34.471Z</time></trkpt><trkpt lat="43.3992309" lon="10.8654413"><ele>518.0</ele><time>2026-04-18T09:15:35.469Z</time></trkpt><trkpt lat="43.3992134" lon="10.8653166"><ele>518.0</ele><time>2026-04-18T09:15:36.471Z</time></trkpt><trkpt lat="43.3992031" lon="10.8651799"><ele>518.0</ele><time>2026-04-18T09:15:37.461Z</time></trkpt><trkpt lat="43.3992061" lon="10.8650508"><ele>518.0</ele><time>2026-04-18T09:15:38.481Z</time></trkpt><trkpt lat="43.3992145" lon="10.8649189"><ele>518.0</ele><time>2026-04-18T09:15:39.473Z</time></trkpt><trkpt lat="43.3992189" lon="10.8647968"><ele>518.0</ele><time>2026-04-18T09:15:40.475Z</time></trkpt><trkpt lat="43.3992306" lon="10.8646621"><ele>517.8</ele><time>2026-04-18T09:15:41.465Z</time></trkpt><trkpt lat="43.3992377" lon="10.8645282"><ele>517.5999999999999</ele><time>2026-04-18T09:15:42.476Z</time></trkpt><trkpt lat="43.3992476" lon="10.8643812"><ele>517.4000000000001</ele><time>2026-04-18T09:15:43.468Z</time></trkpt><trkpt lat="43.3992538" lon="10.8642426"><ele>517.2</ele><time>2026-04-18T09:15:44.463Z</time></trkpt><trkpt lat="43.3992606" lon="10.8641003"><ele>517.0</ele><time>2026-04-18T09:15:45.484Z</time></trkpt><trkpt lat="43.399262" lon="10.8639545"><ele>516.6</ele><time>2026-04-18T09:15:46.469Z</time></trkpt><trkpt lat="43.3992661" lon="10.8638092"><ele>516.2</ele><time>2026-04-18T09:15:47.48Z</time></trkpt><trkpt lat="43.3992786" lon="10.8636736"><ele>515.8</ele><time>2026-04-18T09:15:48.475Z</time></trkpt><trkpt lat="43.3992904" lon="10.8635276"><ele>515.4</ele><time>2026-04-18T09:15:49.481Z</time></trkpt><trkpt lat="43.399304" lon="10.8633821"><ele>515.0</ele><time>2026-04-18T09:15:50.482Z</time></trkpt><trkpt lat="43.3993219" lon="10.8632385"><ele>513.75</ele><time>2026-04-18T09:15:51.473Z</time></trkpt><trkpt lat="43.3993279" lon="10.8630865"><ele>512.5</ele><time>2026-04-18T09:15:52.479Z</time></trkpt><trkpt lat="43.3993344" lon="10.862922"><ele>511.25</ele><time>2026-04-18T09:15:53.458Z</time></trkpt><trkpt lat="43.3993491" lon="10.8627597"><ele>510.0</ele><time>2026-04-18T09:15:54.472Z</time></trkpt><trkpt lat="43.3993579" lon="10.862579"><ele>508.25</ele><time>2026-04-18T09:15:55.469Z</time></trkpt><trkpt lat="43.3993655" lon="10.8624026"><ele>506.5</ele><time>2026-04-18T09:15:56.474Z</time></trkpt><trkpt lat="43.3993782" lon="10.8622193"><ele>504.75</ele><time>2026-04-18T09:15:57.48Z</time></trkpt><trkpt lat="43.3993966" lon="10.862027"><ele>503.0</ele><time>2026-04-18T09:15:58.478Z</time></trkpt><trkpt lat="43.3994075" lon="10.8618446"><ele>501.0</ele><time>2026-04-18T09:15:59.467Z</time></trkpt><trkpt lat="43.3994291" lon="10.8616603"><ele>499.0</ele><time>2026-04-18T09:16:00.476Z</time></trkpt><trkpt lat="43.3994388" lon="10.8614544"><ele>497.0</ele><time>2026-04-18T09:16:01.479Z</time></trkpt><trkpt lat="43.3994619" lon="10.8612508"><ele>495.0</ele><time>2026-04-18T09:16:02.47Z</time></trkpt><trkpt lat="43.399477" lon="10.8610598"><ele>493.75</ele><time>2026-04-18T09:16:03.468Z</time></trkpt><trkpt lat="43.3994934" lon="10.8608678"><ele>492.5</ele><time>2026-04-18T09:16:04.481Z</time></trkpt><trkpt lat="43.3995103" lon="10.8606776"><ele>491.25</ele><time>2026-04-18T09:16:05.474Z</time></trkpt><trkpt lat="43.3995323" lon="10.8604898"><ele>490.0</ele><time>2026-04-18T09:16:06.456Z</time></trkpt><trkpt lat="43.3995442" lon="10.8603022"><ele>490.0</ele><time>2026-04-18T09:16:07.465Z</time></trkpt><trkpt lat="43.3995534" lon="10.8601324"><ele>490.0</ele><time>2026-04-18T09:16:08.473Z</time></trkpt><trkpt lat="43.399561" lon="10.8599796"><ele>490.0</ele><time>2026-04-18T09:16:09.473Z</time></trkpt><trkpt lat="43.3995708" lon="10.8598432"><ele>490.0</ele><time>2026-04-18T09:16:10.459Z</time></trkpt><trkpt lat="43.3995786" lon="10.859718"><ele>490.0</ele><time>2026-04-18T09:16:11.469Z</time></trkpt><trkpt lat="43.399581" lon="10.8596072"><ele>489.33333333333337</ele><time>2026-04-18T09:16:12.471Z</time></trkpt><trkpt lat="43.3995939" lon="10.8595"><ele>488.6666666666667</ele><time>2026-04-18T09:16:13.466Z</time></trkpt><trkpt lat="43.3996214" lon="10.8593948"><ele>488.0</ele><time>2026-04-18T09:16:14.474Z</time></trkpt><trkpt lat="43.399657" lon="10.8592939"><ele>487.33333333333337</ele><time>2026-04-18T09:16:15.465Z</time></trkpt><trkpt lat="43.3997148" lon="10.8592127"><ele>486.6666666666667</ele><time>2026-04-18T09:16:16.458Z</time></trkpt><trkpt lat="43.3997725" lon="10.8591476"><ele>486.0</ele><time>2026-04-18T09:16:17.477Z</time></trkpt><trkpt lat="43.3998503" lon="10.8590339"><ele>488.6</ele><time>2026-04-18T09:16:19.469Z</time></trkpt><trkpt lat="43.3999411" lon="10.858931"><ele>491.20000000000005</ele><time>2026-04-18T09:16:21.473Z</time></trkpt><trkpt lat="43.4000044" lon="10.8588787"><ele>493.79999999999995</ele><time>2026-04-18T09:16:22.472Z</time></trkpt><trkpt lat="43.4000792" lon="10.8588359"><ele>496.4</ele><time>2026-04-18T09:16:23.463Z</time></trkpt><trkpt lat="43.4001492" lon="10.8587524"><ele>499.0</ele><time>2026-04-18T09:16:24.463Z</time></trkpt><trkpt lat="43.4002039" lon="10.8586555"><ele>499.00000000000006</ele><time>2026-04-18T09:16:25.463Z</time></trkpt><trkpt lat="43.4002585" lon="10.8585554"><ele>499.0</ele><time>2026-04-18T09:16:26.464Z</time></trkpt><trkpt lat="43.4003231" lon="10.8584679"><ele>499.0</ele><time>2026-04-18T09:16:27.464Z</time></trkpt><trkpt lat="43.4003857" lon="10.8583794"><ele>499.0</ele><time>2026-04-18T09:16:28.467Z</time></trkpt><trkpt lat="43.4004474" lon="10.858294"><ele>499.00000000000006</ele><time>2026-04-18T09:16:29.47Z</time></trkpt><trkpt lat="43.4004898" lon="10.8582181"><ele>499.0</ele><time>2026-04-18T09:16:30.465Z</time></trkpt><trkpt lat="43.400546" lon="10.8580841"><ele>501.00000000000006</ele><time>2026-04-18T09:16:32.467Z</time></trkpt><trkpt lat="43.400526" lon="10.8579813"><ele>503.0</ele><time>2026-04-18T09:16:34.471Z</time></trkpt><trkpt lat="43.4004661" lon="10.8579524"><ele>505.0</ele><time>2026-04-18T09:16:35.473Z</time></trkpt><trkpt lat="43.4003915" lon="10.857986"><ele>507.0</ele><time>2026-04-18T09:16:36.462Z</time></trkpt><trkpt lat="43.4002998" lon="10.8580169"><ele>509.00000000000006</ele><time>2026-04-18T09:16:37.469Z</time></trkpt><trkpt lat="43.4002177" lon="10.8580601"><ele>511.0</ele><time>2026-04-18T09:16:38.471Z</time></trkpt><trkpt lat="43.400126" lon="10.8580931"><ele>506.0</ele><time>2026-04-18T09:16:39.488Z</time></trkpt><trkpt lat="43.4000354" lon="10.8581314"><ele>501.0</ele><time>2026-04-18T09:16:40.463Z</time></trkpt><trkpt lat="43.3999468" lon="10.8581744"><ele>496.0</ele><time>2026-04-18T09:16:41.472Z</time></trkpt><trkpt lat="43.3998586" lon="10.8582138"><ele>491.0</ele><time>2026-04-18T09:16:42.473Z</time></trkpt><trkpt lat="43.3997722" lon="10.8582479"><ele>486.0</ele><time>2026-04-18T09:16:43.468Z</time></trkpt><trkpt lat="43.3996825" lon="10.8582845"><ele>484.8</ele><time>2026-04-18T09:16:44.468Z</time></trkpt><trkpt lat="43.3995802" lon="10.8583156"><ele>483.6</ele><time>2026-04-18T09:16:45.469Z</time></trkpt><trkpt lat="43.3994714" lon="10.8583433"><ele>482.4</ele><time>2026-04-18T09:16:46.468Z</time></trkpt><trkpt lat="43.3993774" lon="10.8583867"><ele>481.2</ele><time>2026-04-18T09:16:47.474Z</time></trkpt><trkpt lat="43.3992984" lon="10.8584457"><ele>480.0</ele><time>2026-04-18T09:16:48.489Z</time></trkpt><trkpt lat="43.3992147" lon="10.8585225"><ele>480.0</ele><time>2026-04-18T09:16:49.483Z</time></trkpt><trkpt lat="43.3991316" lon="10.8586153"><ele>480.0</ele><time>2026-04-18T09:16:50.487Z</time></trkpt><trkpt lat="43.399065" lon="10.8587178"><ele>480.0</ele><time>2026-04-18T09:16:51.471Z</time></trkpt><trkpt lat="43.3989987" lon="10.8588238"><ele>480.0</ele><time>2026-04-18T09:16:52.483Z</time></trkpt><trkpt lat="43.3989356" lon="10.8589244"><ele>480.0</ele><time>2026-04-18T09:16:53.48Z</time></trkpt><trkpt lat="43.3988827" lon="10.8590313"><ele>480.0</ele><time>2026-04-18T09:16:54.476Z</time></trkpt><trkpt lat="43.3988449" lon="10.859127"><ele>480.0</ele><time>2026-04-18T09:16:55.484Z</time></trkpt><trkpt lat="43.3988167" lon="10.8592153"><ele>480.0</ele><time>2026-04-18T09:16:56.482Z</time></trkpt><trkpt lat="43.3987649" lon="10.8593353"><ele>480.0</ele><time>2026-04-18T09:16:58.483Z</time></trkpt><trkpt lat="43.3986838" lon="10.8594023"><ele>480.0</ele><time>2026-04-18T09:17:00.474Z</time></trkpt><trkpt lat="43.3986154" lon="10.8595345"><ele>477.3333333333333</ele><time>2026-04-18T09:17:02.479Z</time></trkpt><trkpt lat="43.3985866" lon="10.8596386"><ele>474.66666666666663</ele><time>2026-04-18T09:17:03.48Z</time></trkpt><trkpt lat="43.3985759" lon="10.8597617"><ele>472.0</ele><time>2026-04-18T09:17:04.49Z</time></trkpt><trkpt lat="43.3985807" lon="10.8598813"><ele>469.3333333333333</ele><time>2026-04-18T09:17:05.484Z</time></trkpt><trkpt lat="43.3986136" lon="10.8600022"><ele>466.66666666666663</ele><time>2026-04-18T09:17:06.486Z</time></trkpt><trkpt lat="43.3986402" lon="10.8601286"><ele>464.0</ele><time>2026-04-18T09:17:07.473Z</time></trkpt><trkpt lat="43.3986568" lon="10.8602648"><ele>464.0</ele><time>2026-04-18T09:17:08.47Z</time></trkpt><trkpt lat="43.3986739" lon="10.8603985"><ele>464.0</ele><time>2026-04-18T09:17:09.473Z</time></trkpt><trkpt lat="43.3986807" lon="10.8605416"><ele>464.0</ele><time>2026-04-18T09:17:10.47Z</time></trkpt><trkpt lat="43.3986772" lon="10.8606888"><ele>464.0</ele><time>2026-04-18T09:17:11.469Z</time></trkpt><trkpt lat="43.3986694" lon="10.8608301"><ele>464.0</ele><time>2026-04-18T09:17:12.484Z</time></trkpt><trkpt lat="43.3986525" lon="10.8609549"><ele>464.8333333333333</ele><time>2026-04-18T09:17:13.476Z</time></trkpt><trkpt lat="43.3986374" lon="10.8610684"><ele>465.66666666666663</ele><time>2026-04-18T09:17:14.465Z</time></trkpt><trkpt lat="43.3986037" lon="10.8611727"><ele>466.5</ele><time>2026-04-18T09:17:15.469Z</time></trkpt><trkpt lat="43.3985509" lon="10.8612515"><ele>467.33333333333337</ele><time>2026-04-18T09:17:16.469Z</time></trkpt><trkpt lat="43.398481" lon="10.8613317"><ele>468.1666666666667</ele><time>2026-04-18T09:17:17.469Z</time></trkpt><trkpt lat="43.3984123" lon="10.8614125"><ele>469.0</ele><time>2026-04-18T09:17:18.465Z</time></trkpt><trkpt lat="43.3983455" lon="10.8615102"><ele>469.0</ele><time>2026-04-18T09:17:19.465Z</time></trkpt><trkpt lat="43.3982787" lon="10.8616062"><ele>469.0</ele><time>2026-04-18T09:17:20.466Z</time></trkpt><trkpt lat="43.3982194" lon="10.8617136"><ele>469.0</ele><time>2026-04-18T09:17:21.469Z</time></trkpt><trkpt lat="43.3981635" lon="10.8618269"><ele>469.0</ele><time>2026-04-18T09:17:22.474Z</time></trkpt><trkpt lat="43.3981035" lon="10.8619452"><ele>469.0</ele><time>2026-04-18T09:17:23.46Z</time></trkpt><trkpt lat="43.398044" lon="10.8620678"><ele>467.6</ele><time>2026-04-18T09:17:24.474Z</time></trkpt><trkpt lat="43.397973" lon="10.8621842"><ele>466.2</ele><time>2026-04-18T09:17:25.464Z</time></trkpt><trkpt lat="43.3978847" lon="10.8622667"><ele>464.80000000000007</ele><time>2026-04-18T09:17:26.47Z</time></trkpt><trkpt lat="43.3977783" lon="10.862313"><ele>463.40000000000003</ele><time>2026-04-18T09:17:27.471Z</time></trkpt><trkpt lat="43.3976894" lon="10.862359"><ele>462.0</ele><time>2026-04-18T09:17:28.467Z</time></trkpt><trkpt lat="43.397607" lon="10.8623963"><ele>462.0</ele><time>2026-04-18T09:17:29.478Z</time></trkpt><trkpt lat="43.3975252" lon="10.8624333"><ele>462.00000000000006</ele><time>2026-04-18T09:17:30.478Z</time></trkpt><trkpt lat="43.3974464" lon="10.8624771"><ele>462.00000000000006</ele><time>2026-04-18T09:17:31.475Z</time></trkpt><trkpt lat="43.3973558" lon="10.8625093"><ele>462.0</ele><time>2026-04-18T09:17:32.478Z</time></trkpt><trkpt lat="43.3972618" lon="10.8625198"><ele>462.0</ele><time>2026-04-18T09:17:33.475Z</time></trkpt><trkpt lat="43.3971673" lon="10.8625293"><ele>461.6</ele><time>2026-04-18T09:17:34.487Z</time></trkpt><trkpt lat="43.3970728" lon="10.8625222"><ele>461.20000000000005</ele><time>2026-04-18T09:17:35.475Z</time></trkpt><trkpt lat="43.3969774" lon="10.8624865"><ele>460.8</ele><time>2026-04-18T09:17:36.475Z</time></trkpt><trkpt lat="43.3968827" lon="10.8624504"><ele>460.4</ele><time>2026-04-18T09:17:37.48Z</time></trkpt><trkpt lat="43.3968013" lon="10.8624206"><ele>460.0</ele><time>2026-04-18T09:17:38.474Z</time></trkpt><trkpt lat="43.3967248" lon="10.8624035"><ele>460.0</ele><time>2026-04-18T09:17:39.479Z</time></trkpt><trkpt lat="43.396642" lon="10.8624077"><ele>460.0</ele><time>2026-04-18T09:17:40.492Z</time></trkpt><trkpt lat="43.3965449" lon="10.8624504"><ele>460.0</ele><time>2026-04-18T09:17:41.472Z</time></trkpt><trkpt lat="43.3964426" lon="10.8624849"><ele>460.0</ele><time>2026-04-18T09:17:42.477Z</time></trkpt><trkpt lat="43.3963337" lon="10.862526"><ele>460.0</ele><time>2026-04-18T09:17:43.48Z</time></trkpt><trkpt lat="43.3962191" lon="10.8625698"><ele>457.8</ele><time>2026-04-18T09:17:44.476Z</time></trkpt><trkpt lat="43.3961078" lon="10.862617"><ele>455.6</ele><time>2026-04-18T09:17:45.469Z</time></trkpt><trkpt lat="43.3960031" lon="10.862654"><ele>453.4</ele><time>2026-04-18T09:17:46.48Z</time></trkpt><trkpt lat="43.3959199" lon="10.8626957"><ele>451.2</ele><time>2026-04-18T09:17:47.475Z</time></trkpt><trkpt lat="43.3958378" lon="10.8627128"><ele>449.0</ele><time>2026-04-18T09:17:48.471Z</time></trkpt><trkpt lat="43.3957579" lon="10.8627078"><ele>449.0</ele><time>2026-04-18T09:17:49.484Z</time></trkpt><trkpt lat="43.395666" lon="10.8626748"><ele>449.0</ele><time>2026-04-18T09:17:50.467Z</time></trkpt><trkpt lat="43.3955645" lon="10.8626319"><ele>449.0</ele><time>2026-04-18T09:17:51.471Z</time></trkpt><trkpt lat="43.395458" lon="10.8626194"><ele>449.0</ele><time>2026-04-18T09:17:52.478Z</time></trkpt><trkpt lat="43.3953643" lon="10.8625886"><ele>449.0</ele><time>2026-04-18T09:17:53.467Z</time></trkpt><trkpt lat="43.3952825" lon="10.8625545"><ele>447.8333333333333</ele><time>2026-04-18T09:17:54.473Z</time></trkpt><trkpt lat="43.3952085" lon="10.8625128"><ele>446.66666666666663</ele><time>2026-04-18T09:17:55.476Z</time></trkpt><trkpt lat="43.3951384" lon="10.8624821"><ele>445.5</ele><time>2026-04-18T09:17:56.475Z</time></trkpt><trkpt lat="43.3950642" lon="10.8624606"><ele>444.33333333333337</ele><time>2026-04-18T09:17:57.473Z</time></trkpt><trkpt lat="43.3949888" lon="10.8624824"><ele>443.1666666666667</ele><time>2026-04-18T09:17:58.472Z</time></trkpt><trkpt lat="43.3949042" lon="10.8625208"><ele>442.0</ele><time>2026-04-18T09:17:59.467Z</time></trkpt><trkpt lat="43.3948138" lon="10.8625603"><ele>442.0</ele><time>2026-04-18T09:18:00.473Z</time></trkpt><trkpt lat="43.3947106" lon="10.8626132"><ele>442.00000000000006</ele><time>2026-04-18T09:18:01.473Z</time></trkpt><trkpt lat="43.3946167" lon="10.8626775"><ele>442.00000000000006</ele><time>2026-04-18T09:18:02.465Z</time></trkpt><trkpt lat="43.3945213" lon="10.8627417"><ele>442.0</ele><time>2026-04-18T09:18:03.469Z</time></trkpt><trkpt lat="43.394427" lon="10.8628101"><ele>442.0</ele><time>2026-04-18T09:18:04.466Z</time></trkpt><trkpt lat="43.3943345" lon="10.8628825"><ele>439.40000000000003</ele><time>2026-04-18T09:18:05.478Z</time></trkpt><trkpt lat="43.3942352" lon="10.8629397"><ele>436.80000000000007</ele><time>2026-04-18T09:18:06.47Z</time></trkpt><trkpt lat="43.3941387" lon="10.8630009"><ele>434.2</ele><time>2026-04-18T09:18:07.471Z</time></trkpt><trkpt lat="43.3940481" lon="10.863058"><ele>431.6</ele><time>2026-04-18T09:18:08.486Z</time></trkpt><trkpt lat="43.393961" lon="10.8631159"><ele>429.0</ele><time>2026-04-18T09:18:09.481Z</time></trkpt><trkpt lat="43.393863" lon="10.8631541"><ele>425.79999999999995</ele><time>2026-04-18T09:18:10.482Z</time></trkpt><trkpt lat="43.3937805" lon="10.8631558"><ele>422.59999999999997</ele><time>2026-04-18T09:18:11.475Z</time></trkpt><trkpt lat="43.3937001" lon="10.8631469"><ele>419.4</ele><time>2026-04-18T09:18:12.479Z</time></trkpt><trkpt lat="43.3936086" lon="10.863062"><ele>416.2</ele><time>2026-04-18T09:18:14.479Z</time></trkpt><trkpt lat="43.393629" lon="10.862934"><ele>413.0</ele><time>2026-04-18T09:18:15.485Z</time></trkpt><trkpt lat="43.3936453" lon="10.8627843"><ele>413.0</ele><time>2026-04-18T09:18:16.471Z</time></trkpt><trkpt lat="43.3936502" lon="10.8626375"><ele>413.0</ele><time>2026-04-18T09:18:17.481Z</time></trkpt><trkpt lat="43.3936384" lon="10.862504"><ele>413.0</ele><time>2026-04-18T09:18:18.477Z</time></trkpt><trkpt lat="43.3936198" lon="10.8623806"><ele>413.0</ele><time>2026-04-18T09:18:19.485Z</time></trkpt><trkpt lat="43.3935912" lon="10.8622466"><ele>413.0</ele><time>2026-04-18T09:18:20.465Z</time></trkpt><trkpt lat="43.3935593" lon="10.8621034"><ele>412.25</ele><time>2026-04-18T09:18:21.477Z</time></trkpt><trkpt lat="43.3935287" lon="10.8619609"><ele>411.5</ele><time>2026-04-18T09:18:22.472Z</time></trkpt><trkpt lat="43.3934907" lon="10.8618162"><ele>410.75</ele><time>2026-04-18T09:18:23.471Z</time></trkpt><trkpt lat="43.3934377" lon="10.8616677"><ele>410.0</ele><time>2026-04-18T09:18:24.474Z</time></trkpt><trkpt lat="43.3933806" lon="10.8615261"><ele>410.0</ele><time>2026-04-18T09:18:25.469Z</time></trkpt><trkpt lat="43.3933192" lon="10.8613651"><ele>410.0</ele><time>2026-04-18T09:18:26.472Z</time></trkpt><trkpt lat="43.3932721" lon="10.8612161"><ele>410.0</ele><time>2026-04-18T09:18:27.469Z</time></trkpt><trkpt lat="43.3932284" lon="10.8610726"><ele>410.0</ele><time>2026-04-18T09:18:28.476Z</time></trkpt><trkpt lat="43.393191" lon="10.8609494"><ele>409.49999999999994</ele><time>2026-04-18T09:18:29.473Z</time></trkpt><trkpt lat="43.3931615" lon="10.8608286"><ele>409.0</ele><time>2026-04-18T09:18:30.472Z</time></trkpt><trkpt lat="43.393125" lon="10.8607516"><ele>408.5</ele><time>2026-04-18T09:18:31.471Z</time></trkpt><trkpt lat="43.3930615" lon="10.8607052"><ele>408.0</ele><time>2026-04-18T09:18:32.473Z</time></trkpt><trkpt lat="43.3929445" lon="10.8607421"><ele>407.49999999999994</ele><time>2026-04-18T09:18:34.47Z</time></trkpt><trkpt lat="43.3929085" lon="10.8608301"><ele>407.0</ele><time>2026-04-18T09:18:35.47Z</time></trkpt><trkpt lat="43.3928935" lon="10.860938"><ele>403.66666666666663</ele><time>2026-04-18T09:18:36.472Z</time></trkpt><trkpt lat="43.3928812" lon="10.8610509"><ele>400.3333333333333</ele><time>2026-04-18T09:18:37.48Z</time></trkpt><trkpt lat="43.3928816" lon="10.8611573"><ele>397.0</ele><time>2026-04-18T09:18:38.479Z</time></trkpt><trkpt lat="43.3928821" lon="10.8612692"><ele>393.66666666666663</ele><time>2026-04-18T09:18:39.466Z</time></trkpt><trkpt lat="43.392881" lon="10.861375"><ele>390.3333333333333</ele><time>2026-04-18T09:18:40.473Z</time></trkpt><trkpt lat="43.3928719" lon="10.861479"><ele>387.0</ele><time>2026-04-18T09:18:41.476Z</time></trkpt><trkpt lat="43.3928533" lon="10.8615882"><ele>387.0</ele><time>2026-04-18T09:18:42.472Z</time></trkpt><trkpt lat="43.3928086" lon="10.861677"><ele>387.0</ele><time>2026-04-18T09:18:43.474Z</time></trkpt><trkpt lat="43.3927562" lon="10.8617541"><ele>387.0</ele><time>2026-04-18T09:18:44.474Z</time></trkpt><trkpt lat="43.3926907" lon="10.861806"><ele>387.0</ele><time>2026-04-18T09:18:45.471Z</time></trkpt><trkpt lat="43.3926218" lon="10.8618621"><ele>387.0</ele><time>2026-04-18T09:18:46.472Z</time></trkpt><trkpt lat="43.3925196" lon="10.8618826"><ele>387.0</ele><time>2026-04-18T09:18:48.484Z</time></trkpt><trkpt lat="43.3924461" lon="10.8617668"><ele>387.0</ele><time>2026-04-18T09:18:50.492Z</time></trkpt><trkpt lat="43.392429" lon="10.8616772"><ele>387.0</ele><time>2026-04-18T09:18:51.475Z</time></trkpt><trkpt lat="43.3923982" lon="10.8615739"><ele>387.0</ele><time>2026-04-18T09:18:52.469Z</time></trkpt><trkpt lat="43.392365" lon="10.8614664"><ele>387.0</ele><time>2026-04-18T09:18:53.474Z</time></trkpt><trkpt lat="43.3923266" lon="10.861344"><ele>387.0</ele><time>2026-04-18T09:18:54.473Z</time></trkpt><trkpt lat="43.3922918" lon="10.8612143"><ele>387.0</ele><time>2026-04-18T09:18:55.473Z</time></trkpt><trkpt lat="43.3922501" lon="10.8610868"><ele>387.0</ele><time>2026-04-18T09:18:56.479Z</time></trkpt><trkpt lat="43.3921912" lon="10.8609597"><ele>387.0</ele><time>2026-04-18T09:18:57.482Z</time></trkpt><trkpt lat="43.3921231" lon="10.860852"><ele>387.0</ele><time>2026-04-18T09:18:58.481Z</time></trkpt><trkpt lat="43.3920418" lon="10.8607595"><ele>387.0</ele><time>2026-04-18T09:18:59.475Z</time></trkpt><trkpt lat="43.3919476" lon="10.8607011"><ele>387.0</ele><time>2026-04-18T09:19:00.465Z</time></trkpt><trkpt lat="43.3918392" lon="10.8606459"><ele>382.8</ele><time>2026-04-18T09:19:01.477Z</time></trkpt><trkpt lat="43.3917342" lon="10.8605981"><ele>378.6</ele><time>2026-04-18T09:19:02.491Z</time></trkpt><trkpt lat="43.3916327" lon="10.8605468"><ele>374.40000000000003</ele><time>2026-04-18T09:19:03.48Z</time></trkpt><trkpt lat="43.391543" lon="10.8604989"><ele>370.20000000000005</ele><time>2026-04-18T09:19:04.473Z</time></trkpt><trkpt lat="43.3914573" lon="10.8604593"><ele>366.0</ele><time>2026-04-18T09:19:05.477Z</time></trkpt><trkpt lat="43.3913873" lon="10.8604126"><ele>363.20000000000005</ele><time>2026-04-18T09:19:06.48Z</time></trkpt><trkpt lat="43.3913273" lon="10.860344"><ele>360.40000000000003</ele><time>2026-04-18T09:19:07.476Z</time></trkpt><trkpt lat="43.3912853" lon="10.8602454"><ele>357.6</ele><time>2026-04-18T09:19:08.475Z</time></trkpt><trkpt lat="43.3912542" lon="10.8601148"><ele>354.8</ele><time>2026-04-18T09:19:09.478Z</time></trkpt><trkpt lat="43.39124" lon="10.8599741"><ele>352.0</ele><time>2026-04-18T09:19:10.481Z</time></trkpt><trkpt lat="43.3912208" lon="10.8598462"><ele>351.40000000000003</ele><time>2026-04-18T09:19:11.478Z</time></trkpt><trkpt lat="43.3911828" lon="10.8597124"><ele>350.8</ele><time>2026-04-18T09:19:12.482Z</time></trkpt><trkpt lat="43.3911445" lon="10.8595626"><ele>350.2</ele><time>2026-04-18T09:19:13.476Z</time></trkpt><trkpt lat="43.3911102" lon="10.8594085"><ele>349.6</ele><time>2026-04-18T09:19:14.49Z</time></trkpt><trkpt lat="43.391075" lon="10.8592615"><ele>349.0</ele><time>2026-04-18T09:19:15.475Z</time></trkpt><trkpt lat="43.3910452" lon="10.8590962"><ele>348.25</ele><time>2026-04-18T09:19:16.481Z</time></trkpt><trkpt lat="43.3910176" lon="10.8589389"><ele>347.5</ele><time>2026-04-18T09:19:17.474Z</time></trkpt><trkpt lat="43.390993" lon="10.8587836"><ele>346.75</ele><time>2026-04-18T09:19:18.473Z</time></trkpt><trkpt lat="43.3909692" lon="10.8586189"><ele>346.0</ele><time>2026-04-18T09:19:19.477Z</time></trkpt><trkpt lat="43.3909561" lon="10.8584706"><ele>344.8333333333333</ele><time>2026-04-18T09:19:20.474Z</time></trkpt><trkpt lat="43.3909374" lon="10.8583522"><ele>343.66666666666663</ele><time>2026-04-18T09:19:21.474Z</time></trkpt><trkpt lat="43.390927" lon="10.8582536"><ele>342.5</ele><time>2026-04-18T09:19:22.478Z</time></trkpt><trkpt lat="43.3909195" lon="10.8581655"><ele>341.3333333333333</ele><time>2026-04-18T09:19:23.474Z</time></trkpt><trkpt lat="43.3909031" lon="10.8580193"><ele>340.1666666666667</ele><time>2026-04-18T09:19:25.47Z</time></trkpt><trkpt lat="43.3908679" lon="10.8579195"><ele>339.0</ele><time>2026-04-18T09:19:29.475Z</time></trkpt><trkpt lat="43.390809" lon="10.8578629"><ele>339.0</ele><time>2026-04-18T09:19:31.474Z</time></trkpt><trkpt lat="43.3907543" lon="10.8578115"><ele>339.0</ele><time>2026-04-18T09:19:32.478Z</time></trkpt><trkpt lat="43.3907002" lon="10.8577641"><ele>339.0</ele><time>2026-04-18T09:19:33.467Z</time></trkpt><trkpt lat="43.390634" lon="10.8577136"><ele>339.0</ele><time>2026-04-18T09:19:34.469Z</time></trkpt><trkpt lat="43.3905675" lon="10.8576516"><ele>339.0</ele><time>2026-04-18T09:19:35.474Z</time></trkpt><trkpt lat="43.3904909" lon="10.8575903"><ele>339.0</ele><time>2026-04-18T09:19:36.468Z</time></trkpt><trkpt lat="43.3904153" lon="10.8575277"><ele>337.0</ele><time>2026-04-18T09:19:37.479Z</time></trkpt><trkpt lat="43.3903431" lon="10.8574724"><ele>335.0</ele><time>2026-04-18T09:19:38.468Z</time></trkpt><trkpt lat="43.3902715" lon="10.8574146"><ele>333.0</ele><time>2026-04-18T09:19:39.478Z</time></trkpt><trkpt lat="43.3901866" lon="10.8573537"><ele>331.0</ele><time>2026-04-18T09:19:40.478Z</time></trkpt><trkpt lat="43.390105" lon="10.8572917"><ele>329.0</ele><time>2026-04-18T09:19:41.478Z</time></trkpt><trkpt lat="43.39002" lon="10.8572359"><ele>327.0</ele><time>2026-04-18T09:19:42.476Z</time></trkpt><trkpt lat="43.3899326" lon="10.8571799"><ele>327.0</ele><time>2026-04-18T09:19:43.482Z</time></trkpt><trkpt lat="43.3898386" lon="10.8571164"><ele>327.0</ele><time>2026-04-18T09:19:44.481Z</time></trkpt><trkpt lat="43.3897495" lon="10.8570524"><ele>327.0</ele><time>2026-04-18T09:19:45.475Z</time></trkpt><trkpt lat="43.3896892" lon="10.856959"><ele>327.0</ele><time>2026-04-18T09:19:46.472Z</time></trkpt><trkpt lat="43.3896524" lon="10.8568662"><ele>327.0</ele><time>2026-04-18T09:19:47.476Z</time></trkpt><trkpt lat="43.3896112" lon="10.856771"><ele>325.6666666666667</ele><time>2026-04-18T09:19:48.478Z</time></trkpt><trkpt lat="43.3895464" lon="10.8567079"><ele>324.3333333333333</ele><time>2026-04-18T09:19:49.473Z</time></trkpt><trkpt lat="43.3894608" lon="10.8566514"><ele>323.0</ele><time>2026-04-18T09:19:50.475Z</time></trkpt><trkpt lat="43.3893826" lon="10.8565947"><ele>321.66666666666663</ele><time>2026-04-18T09:19:51.469Z</time></trkpt><trkpt lat="43.3893071" lon="10.8565371"><ele>320.3333333333333</ele><time>2026-04-18T09:19:52.475Z</time></trkpt><trkpt lat="43.3892399" lon="10.8564718"><ele>319.0</ele><time>2026-04-18T09:19:53.468Z</time></trkpt><trkpt lat="43.3891634" lon="10.8564143"><ele>319.0</ele><time>2026-04-18T09:19:54.479Z</time></trkpt><trkpt lat="43.3890849" lon="10.856356"><ele>319.0</ele><time>2026-04-18T09:19:55.475Z</time></trkpt><trkpt lat="43.3890095" lon="10.8562764"><ele>319.0</ele><time>2026-04-18T09:19:56.473Z</time></trkpt><trkpt lat="43.3889279" lon="10.8561994"><ele>319.0</ele><time>2026-04-18T09:19:57.477Z</time></trkpt><trkpt lat="43.3888532" lon="10.8561204"><ele>319.0</ele><time>2026-04-18T09:19:58.481Z</time></trkpt><trkpt lat="43.3887766" lon="10.8560325"><ele>317.2</ele><time>2026-04-18T09:19:59.491Z</time></trkpt><trkpt lat="43.3887104" lon="10.8559402"><ele>315.4</ele><time>2026-04-18T09:20:00.472Z</time></trkpt><trkpt lat="43.388652" lon="10.8558158"><ele>313.6</ele><time>2026-04-18T09:20:01.469Z</time></trkpt><trkpt lat="43.3885948" lon="10.8556859"><ele>311.8</ele><time>2026-04-18T09:20:02.484Z</time></trkpt><trkpt lat="43.3885418" lon="10.8555608"><ele>310.0</ele><time>2026-04-18T09:20:03.476Z</time></trkpt><trkpt lat="43.3884799" lon="10.8554403"><ele>310.0</ele><time>2026-04-18T09:20:04.478Z</time></trkpt><trkpt lat="43.388428" lon="10.8553117"><ele>310.0</ele><time>2026-04-18T09:20:05.482Z</time></trkpt><trkpt lat="43.3883684" lon="10.8551758"><ele>310.0</ele><time>2026-04-18T09:20:06.467Z</time></trkpt><trkpt lat="43.3883171" lon="10.8550504"><ele>310.0</ele><time>2026-04-18T09:20:07.473Z</time></trkpt><trkpt lat="43.3882677" lon="10.8549301"><ele>310.0</ele><time>2026-04-18T09:20:08.469Z</time></trkpt><trkpt lat="43.3882264" lon="10.8548217"><ele>309.4</ele><time>2026-04-18T09:20:09.469Z</time></trkpt><trkpt lat="43.388189" lon="10.8547152"><ele>308.8</ele><time>2026-04-18T09:20:10.472Z</time></trkpt><trkpt lat="43.3881441" lon="10.8546233"><ele>308.2</ele><time>2026-04-18T09:20:11.477Z</time></trkpt><trkpt lat="43.3880859" lon="10.8545362"><ele>307.6</ele><time>2026-04-18T09:20:12.485Z</time></trkpt><trkpt lat="43.3880134" lon="10.8544375"><ele>307.0</ele><time>2026-04-18T09:20:13.483Z</time></trkpt><trkpt lat="43.3879263" lon="10.8543503"><ele>304.2</ele><time>2026-04-18T09:20:14.474Z</time></trkpt><trkpt lat="43.3878358" lon="10.8542623"><ele>301.4</ele><time>2026-04-18T09:20:15.468Z</time></trkpt><trkpt lat="43.3877484" lon="10.8541727"><ele>298.6</ele><time>2026-04-18T09:20:16.479Z</time></trkpt><trkpt lat="43.387672" lon="10.8540909"><ele>295.8</ele><time>2026-04-18T09:20:17.469Z</time></trkpt><trkpt lat="43.3875986" lon="10.8540114"><ele>293.0</ele><time>2026-04-18T09:20:18.479Z</time></trkpt><trkpt lat="43.3875333" lon="10.8539413"><ele>293.0</ele><time>2026-04-18T09:20:19.469Z</time></trkpt><trkpt lat="43.3874661" lon="10.8538669"><ele>293.0</ele><time>2026-04-18T09:20:20.473Z</time></trkpt><trkpt lat="43.3874146" lon="10.8538033"><ele>293.0</ele><time>2026-04-18T09:20:21.481Z</time></trkpt><trkpt lat="43.3873601" lon="10.853746"><ele>293.0</ele><time>2026-04-18T09:20:22.485Z</time></trkpt><trkpt lat="43.3873057" lon="10.8536874"><ele>293.0</ele><time>2026-04-18T09:20:23.485Z</time></trkpt><trkpt lat="43.3872337" lon="10.853643"><ele>293.0</ele><time>2026-04-18T09:20:24.474Z</time></trkpt><trkpt lat="43.3871517" lon="10.853632"><ele>291.2</ele><time>2026-04-18T09:20:25.474Z</time></trkpt><trkpt lat="43.3870553" lon="10.8536568"><ele>289.4</ele><time>2026-04-18T09:20:26.471Z</time></trkpt><trkpt lat="43.386958" lon="10.8536845"><ele>287.59999999999997</ele><time>2026-04-18T09:20:27.468Z</time></trkpt><trkpt lat="43.3868677" lon="10.8537153"><ele>285.8</ele><time>2026-04-18T09:20:28.469Z</time></trkpt><trkpt lat="43.3867852" lon="10.8537427"><ele>284.0</ele><time>2026-04-18T09:20:29.468Z</time></trkpt><trkpt lat="43.3867135" lon="10.8537861"><ele>284.0</ele><time>2026-04-18T09:20:30.489Z</time></trkpt><trkpt lat="43.3866414" lon="10.8539163"><ele>284.0</ele><time>2026-04-18T09:20:32.474Z</time></trkpt><trkpt lat="43.3866269" lon="10.8540085"><ele>284.0</ele><time>2026-04-18T09:20:33.471Z</time></trkpt><trkpt lat="43.3866343" lon="10.8541131"><ele>284.0</ele><time>2026-04-18T09:20:34.469Z</time></trkpt><trkpt lat="43.386632" lon="10.854209"><ele>284.0</ele><time>2026-04-18T09:20:35.467Z</time></trkpt><trkpt lat="43.3866301" lon="10.8543049"><ele>284.0</ele><time>2026-04-18T09:20:36.474Z</time></trkpt><trkpt lat="43.3866285" lon="10.8544017"><ele>283.6666666666667</ele><time>2026-04-18T09:20:37.476Z</time></trkpt><trkpt lat="43.3866309" lon="10.854544"><ele>283.33333333333337</ele><time>2026-04-18T09:20:39.48Z</time></trkpt><trkpt lat="43.3866123" lon="10.8546535"><ele>283.0</ele><time>2026-04-18T09:20:41.473Z</time></trkpt><trkpt lat="43.3865425" lon="10.8547048"><ele>282.6666666666667</ele><time>2026-04-18T09:20:43.471Z</time></trkpt><trkpt lat="43.3864725" lon="10.8546997"><ele>282.3333333333333</ele><time>2026-04-18T09:20:45.47Z</time></trkpt><trkpt lat="43.3864085" lon="10.8547089"><ele>282.0</ele><time>2026-04-18T09:20:49.47Z</time></trkpt><trkpt lat="43.3863363" lon="10.8547345"><ele>279.2</ele><time>2026-04-18T09:20:52.479Z</time></trkpt><trkpt lat="43.3862533" lon="10.8547485"><ele>276.4</ele><time>2026-04-18T09:20:54.468Z</time></trkpt><trkpt lat="43.3861413" lon="10.8547669"><ele>273.6</ele><time>2026-04-18T09:20:56.481Z</time></trkpt><trkpt lat="43.3860438" lon="10.854857"><ele>270.8</ele><time>2026-04-18T09:20:58.469Z</time></trkpt><trkpt lat="43.3859933" lon="10.8549275"><ele>268.0</ele><time>2026-04-18T09:20:59.469Z</time></trkpt><trkpt lat="43.3859542" lon="10.8550056"><ele>268.0</ele><time>2026-04-18T09:21:00.478Z</time></trkpt><trkpt lat="43.3859156" lon="10.8550822"><ele>268.0</ele><time>2026-04-18T09:21:01.467Z</time></trkpt><trkpt lat="43.3858127" lon="10.8551261"><ele>268.0</ele><time>2026-04-18T09:21:03.469Z</time></trkpt><trkpt lat="43.3857495" lon="10.8551186"><ele>268.0</ele><time>2026-04-18T09:21:04.475Z</time></trkpt><trkpt lat="43.3856262" lon="10.8550685"><ele>268.0</ele><time>2026-04-18T09:21:06.477Z</time></trkpt><trkpt lat="43.3855537" lon="10.8550271"><ele>268.0</ele><time>2026-04-18T09:21:07.483Z</time></trkpt><trkpt lat="43.3854743" lon="10.8549869"><ele>266.0</ele><time>2026-04-18T09:21:08.475Z</time></trkpt><trkpt lat="43.3854008" lon="10.8549437"><ele>264.0</ele><time>2026-04-18T09:21:09.472Z</time></trkpt><trkpt lat="43.3853202" lon="10.8548987"><ele>262.0</ele><time>2026-04-18T09:21:10.468Z</time></trkpt><trkpt lat="43.385243" lon="10.8548565"><ele>260.0</ele><time>2026-04-18T09:21:11.473Z</time></trkpt><trkpt lat="43.3851658" lon="10.854832"><ele>258.0</ele><time>2026-04-18T09:21:12.474Z</time></trkpt><trkpt lat="43.3850844" lon="10.8548038"><ele>256.0</ele><time>2026-04-18T09:21:13.47Z</time></trkpt><trkpt lat="43.3850157" lon="10.854766"><ele>255.99999999999997</ele><time>2026-04-18T09:21:14.478Z</time></trkpt><trkpt lat="43.3849475" lon="10.8547204"><ele>256.0</ele><time>2026-04-18T09:21:15.475Z</time></trkpt><trkpt lat="43.3848923" lon="10.8546717"><ele>256.0</ele><time>2026-04-18T09:21:16.471Z</time></trkpt><trkpt lat="43.3847989" lon="10.8545856"><ele>256.0</ele><time>2026-04-18T09:21:18.469Z</time></trkpt><trkpt lat="43.384688" lon="10.8545323"><ele>255.99999999999997</ele><time>2026-04-18T09:21:20.462Z</time></trkpt><trkpt lat="43.38462" lon="10.8545043"><ele>256.0</ele><time>2026-04-18T09:21:21.47Z</time></trkpt><trkpt lat="43.3845576" lon="10.8544892"><ele>254.33333333333331</ele><time>2026-04-18T09:21:22.468Z</time></trkpt><trkpt lat="43.3844894" lon="10.8544825"><ele>252.66666666666666</ele><time>2026-04-18T09:21:23.476Z</time></trkpt><trkpt lat="43.3844257" lon="10.8544768"><ele>251.0</ele><time>2026-04-18T09:21:24.468Z</time></trkpt><trkpt lat="43.3843114" lon="10.854467"><ele>249.33333333333331</ele><time>2026-04-18T09:21:26.473Z</time></trkpt><trkpt lat="43.3842409" lon="10.8544828"><ele>247.66666666666666</ele><time>2026-04-18T09:21:28.469Z</time></trkpt><trkpt lat="43.3841801" lon="10.8545166"><ele>246.0</ele><time>2026-04-18T09:22:49.506Z</time></trkpt><trkpt lat="43.3841046" lon="10.8545749"><ele>246.0</ele><time>2026-04-18T09:22:52.494Z</time></trkpt><trkpt lat="43.3840284" lon="10.854654"><ele>246.0</ele><time>2026-04-18T09:22:55.501Z</time></trkpt><trkpt lat="43.3839587" lon="10.8547115"><ele>246.0</ele><time>2026-04-18T09:22:58.504Z</time></trkpt><trkpt lat="43.3838948" lon="10.8546929"><ele>246.0</ele><time>2026-04-18T09:23:01.482Z</time></trkpt><trkpt lat="43.3838521" lon="10.8545954"><ele>246.0</ele><time>2026-04-18T09:23:04.475Z</time></trkpt><trkpt lat="43.3837972" lon="10.8544582"><ele>246.0</ele><time>2026-04-18T09:23:06.478Z</time></trkpt><trkpt lat="43.3837607" lon="10.8543595"><ele>246.00000000000003</ele><time>2026-04-18T09:23:08.484Z</time></trkpt><trkpt lat="43.3837265" lon="10.8542797"><ele>246.0</ele><time>2026-04-18T09:23:25.489Z</time></trkpt><trkpt lat="43.3837488" lon="10.8543847"><ele>246.00000000000003</ele><time>2026-04-18T09:23:38.479Z</time></trkpt><trkpt lat="43.3837886" lon="10.8544537"><ele>246.00000000000003</ele><time>2026-04-18T09:23:41.488Z</time></trkpt><trkpt lat="43.3838246" lon="10.8545257"><ele>246.0</ele><time>2026-04-18T09:23:44.491Z</time></trkpt><trkpt lat="43.3838501" lon="10.8546234"><ele>246.00000000000003</ele><time>2026-04-18T09:23:48.495Z</time></trkpt><trkpt lat="43.3838214" lon="10.8547042"><ele>246.00000000000003</ele><time>2026-04-18T09:23:54.486Z</time></trkpt><trkpt lat="43.3837556" lon="10.8547643"><ele>244.60000000000002</ele><time>2026-04-18T09:23:57.485Z</time></trkpt><trkpt lat="43.3836772" lon="10.8548007"><ele>243.20000000000002</ele><time>2026-04-18T09:23:59.488Z</time></trkpt><trkpt lat="43.3835763" lon="10.8548224"><ele>241.79999999999998</ele><time>2026-04-18T09:24:01.476Z</time></trkpt><trkpt lat="43.383496" lon="10.8547899"><ele>240.39999999999998</ele><time>2026-04-18T09:24:03.497Z</time></trkpt><trkpt lat="43.3834149" lon="10.8547915"><ele>239.0</ele><time>2026-04-18T09:24:05.486Z</time></trkpt><trkpt lat="43.3833167" lon="10.8548327"><ele>239.0</ele><time>2026-04-18T09:24:07.502Z</time></trkpt><trkpt lat="43.3832574" lon="10.8548647"><ele>238.99999999999997</ele><time>2026-04-18T09:24:08.466Z</time></trkpt><trkpt lat="43.3831622" lon="10.8549313"><ele>238.99999999999997</ele><time>2026-04-18T09:24:10.489Z</time></trkpt><trkpt lat="43.3830693" lon="10.855008"><ele>239.0</ele><time>2026-04-18T09:24:12.492Z</time></trkpt><trkpt lat="43.3829645" lon="10.8550825"><ele>239.0</ele><time>2026-04-18T09:24:14.464Z</time></trkpt><trkpt lat="43.3829035" lon="10.8551135"><ele>237.8571428571429</ele><time>2026-04-18T09:24:15.469Z</time></trkpt><trkpt lat="43.3828364" lon="10.8551203"><ele>236.71428571428572</ele><time>2026-04-18T09:24:16.471Z</time></trkpt><trkpt lat="43.3827709" lon="10.8550996"><ele>235.57142857142858</ele><time>2026-04-18T09:24:17.464Z</time></trkpt><trkpt lat="43.382705" lon="10.8550821"><ele>234.42857142857144</ele><time>2026-04-18T09:24:18.486Z</time></trkpt><trkpt lat="43.3826337" lon="10.8550465"><ele>233.28571428571428</ele><time>2026-04-18T09:24:19.489Z</time></trkpt><trkpt lat="43.3825573" lon="10.8550042"><ele>232.14285714285714</ele><time>2026-04-18T09:24:20.488Z</time></trkpt><trkpt lat="43.3824824" lon="10.8549586"><ele>231.0</ele><time>2026-04-18T09:24:21.484Z</time></trkpt><trkpt lat="43.3824178" lon="10.8549199"><ele>231.0</ele><time>2026-04-18T09:24:22.478Z</time></trkpt><trkpt lat="43.3823532" lon="10.8548928"><ele>231.0</ele><time>2026-04-18T09:24:23.492Z</time></trkpt><trkpt lat="43.3822938" lon="10.8548565"><ele>231.0</ele><time>2026-04-18T09:24:24.494Z</time></trkpt><trkpt lat="43.3821793" lon="10.8547937"><ele>231.0</ele><time>2026-04-18T09:24:26.494Z</time></trkpt><trkpt lat="43.382121" lon="10.854757"><ele>231.0</ele><time>2026-04-18T09:24:27.479Z</time></trkpt><trkpt lat="43.3820622" lon="10.8547162"><ele>231.0</ele><time>2026-04-18T09:24:28.492Z</time></trkpt><trkpt lat="43.3819414" lon="10.8546549"><ele>230.20000000000002</ele><time>2026-04-18T09:24:30.511Z</time></trkpt><trkpt lat="43.381878" lon="10.8546341"><ele>229.40000000000003</ele><time>2026-04-18T09:24:31.491Z</time></trkpt><trkpt lat="43.3817697" lon="10.8545618"><ele>228.6</ele><time>2026-04-18T09:24:33.487Z</time></trkpt><trkpt lat="43.3816791" lon="10.8544304"><ele>227.8</ele><time>2026-04-18T09:24:35.496Z</time></trkpt><trkpt lat="43.3816419" lon="10.8543503"><ele>227.0</ele><time>2026-04-18T09:24:36.488Z</time></trkpt><trkpt lat="43.3816106" lon="10.8542541"><ele>226.42857142857144</ele><time>2026-04-18T09:24:37.489Z</time></trkpt><trkpt lat="43.381574" lon="10.8541604"><ele>225.8571428571429</ele><time>2026-04-18T09:24:38.484Z</time></trkpt><trkpt lat="43.3815306" lon="10.8540806"><ele>225.28571428571428</ele><time>2026-04-18T09:24:39.483Z</time></trkpt><trkpt lat="43.3814785" lon="10.8540093"><ele>224.71428571428572</ele><time>2026-04-18T09:24:40.501Z</time></trkpt><trkpt lat="43.38143" lon="10.853942"><ele>224.14285714285714</ele><time>2026-04-18T09:24:41.492Z</time></trkpt><trkpt lat="43.381363" lon="10.8538804"><ele>223.57142857142856</ele><time>2026-04-18T09:24:42.48Z</time></trkpt><trkpt lat="43.381306" lon="10.8538241"><ele>223.0</ele><time>2026-04-18T09:24:43.496Z</time></trkpt><trkpt lat="43.3812504" lon="10.8537604"><ele>223.0</ele><time>2026-04-18T09:24:44.491Z</time></trkpt><trkpt lat="43.381151" lon="10.8536599"><ele>223.0</ele><time>2026-04-18T09:24:46.489Z</time></trkpt><trkpt lat="43.3811031" lon="10.8535725"><ele>223.0</ele><time>2026-04-18T09:24:48.478Z</time></trkpt><trkpt lat="43.381116" lon="10.8534574"><ele>223.0</ele><time>2026-04-18T09:25:37.47Z</time></trkpt><trkpt lat="43.3811313" lon="10.8533396"><ele>223.0</ele><time>2026-04-18T09:25:39.476Z</time></trkpt><trkpt lat="43.3811176" lon="10.8532133"><ele>221.99999999999997</ele><time>2026-04-18T09:25:41.482Z</time></trkpt><trkpt lat="43.3810831" lon="10.8530753"><ele>221.0</ele><time>2026-04-18T09:25:43.49Z</time></trkpt><trkpt lat="43.3810452" lon="10.8529168"><ele>220.0</ele><time>2026-04-18T09:25:45.48Z</time></trkpt><trkpt lat="43.3810182" lon="10.8528342"><ele>219.0</ele><time>2026-04-18T09:25:46.479Z</time></trkpt><trkpt lat="43.3809876" lon="10.8527492"><ele>217.99999999999997</ele><time>2026-04-18T09:25:47.482Z</time></trkpt><trkpt lat="43.3809565" lon="10.8526626"><ele>217.0</ele><time>2026-04-18T09:25:48.476Z</time></trkpt><trkpt lat="43.3809222" lon="10.8525821"><ele>216.2</ele><time>2026-04-18T09:25:49.48Z</time></trkpt><trkpt lat="43.3808835" lon="10.8524965"><ele>215.39999999999998</ele><time>2026-04-18T09:25:50.473Z</time></trkpt><trkpt lat="43.3808472" lon="10.8524096"><ele>214.60000000000002</ele><time>2026-04-18T09:25:51.478Z</time></trkpt><trkpt lat="43.3808167" lon="10.8523292"><ele>213.8</ele><time>2026-04-18T09:25:52.472Z</time></trkpt><trkpt lat="43.3807451" lon="10.8521843"><ele>213.0</ele><time>2026-04-18T09:25:54.509Z</time></trkpt><trkpt lat="43.3806902" lon="10.8520427"><ele>213.0</ele><time>2026-04-18T09:25:56.48Z</time></trkpt><trkpt lat="43.3806335" lon="10.851921"><ele>213.0</ele><time>2026-04-18T09:25:58.488Z</time></trkpt><trkpt lat="43.3805733" lon="10.8518182"><ele>213.0</ele><time>2026-04-18T09:26:00.492Z</time></trkpt><trkpt lat="43.3805133" lon="10.8516925"><ele>213.0</ele><time>2026-04-18T09:26:02.488Z</time></trkpt><trkpt lat="43.3804589" lon="10.8515672"><ele>213.0</ele><time>2026-04-18T09:26:04.474Z</time></trkpt><trkpt lat="43.3804174" lon="10.8514493"><ele>211.83333333333334</ele><time>2026-04-18T09:26:06.471Z</time></trkpt><trkpt lat="43.3803851" lon="10.8513199"><ele>210.66666666666669</ele><time>2026-04-18T09:26:08.48Z</time></trkpt><trkpt lat="43.38036" lon="10.8512209"><ele>209.5</ele><time>2026-04-18T09:26:11.473Z</time></trkpt><trkpt lat="43.3803448" lon="10.8511155"><ele>208.33333333333334</ele><time>2026-04-18T09:26:17.484Z</time></trkpt><trkpt lat="43.3803283" lon="10.851023"><ele>207.16666666666669</ele><time>2026-04-18T09:26:21.479Z</time></trkpt><trkpt lat="43.3803058" lon="10.8509057"><ele>206.0</ele><time>2026-04-18T09:26:25.475Z</time></trkpt><trkpt lat="43.3803035" lon="10.8507874"><ele>205.20000000000002</ele><time>2026-04-18T09:26:27.469Z</time></trkpt><trkpt lat="43.3803072" lon="10.8506474"><ele>204.4</ele><time>2026-04-18T09:26:29.517Z</time></trkpt><trkpt lat="43.3802927" lon="10.8505236"><ele>203.6</ele><time>2026-04-18T09:26:31.477Z</time></trkpt><trkpt lat="43.3802528" lon="10.8504249"><ele>202.8</ele><time>2026-04-18T09:26:33.475Z</time></trkpt><trkpt lat="43.3801946" lon="10.8503308"><ele>202.0</ele><time>2026-04-18T09:26:35.488Z</time></trkpt><trkpt lat="43.3801488" lon="10.8502233"><ele>200.66666666666666</ele><time>2026-04-18T09:26:37.479Z</time></trkpt><trkpt lat="43.3801051" lon="10.8501145"><ele>199.33333333333331</ele><time>2026-04-18T09:26:39.486Z</time></trkpt><trkpt lat="43.3800657" lon="10.8499734"><ele>198.0</ele><time>2026-04-18T09:26:41.483Z</time></trkpt><trkpt lat="43.3800487" lon="10.8498874"><ele>196.66666666666669</ele><time>2026-04-18T09:26:42.479Z</time></trkpt><trkpt lat="43.3800259" lon="10.8497868"><ele>195.33333333333334</ele><time>2026-04-18T09:26:43.478Z</time></trkpt><trkpt lat="43.3800127" lon="10.849685"><ele>194.0</ele><time>2026-04-18T09:26:44.476Z</time></trkpt><trkpt lat="43.3799982" lon="10.8495904"><ele>194.00000000000003</ele><time>2026-04-18T09:26:45.467Z</time></trkpt><trkpt lat="43.3799774" lon="10.8494984"><ele>194.0</ele><time>2026-04-18T09:26:46.474Z</time></trkpt><trkpt lat="43.3799564" lon="10.8494097"><ele>194.0</ele><time>2026-04-18T09:26:47.473Z</time></trkpt><trkpt lat="43.3799293" lon="10.8493244"><ele>194.0</ele><time>2026-04-18T09:26:48.476Z</time></trkpt><trkpt lat="43.379867" lon="10.8491814"><ele>194.00000000000003</ele><time>2026-04-18T09:26:50.473Z</time></trkpt><trkpt lat="43.3798282" lon="10.8491104"><ele>194.0</ele><time>2026-04-18T09:26:51.482Z</time></trkpt><trkpt lat="43.3797404" lon="10.8489752"><ele>193.0</ele><time>2026-04-18T09:26:53.478Z</time></trkpt><trkpt lat="43.3796987" lon="10.8489024"><ele>192.0</ele><time>2026-04-18T09:26:54.472Z</time></trkpt><trkpt lat="43.3796487" lon="10.8488279"><ele>191.0</ele><time>2026-04-18T09:26:55.475Z</time></trkpt><trkpt lat="43.3795978" lon="10.848761"><ele>190.0</ele><time>2026-04-18T09:26:56.48Z</time></trkpt><trkpt lat="43.3795466" lon="10.8487071"><ele>189.0</ele><time>2026-04-18T09:26:57.489Z</time></trkpt><trkpt lat="43.3794899" lon="10.8486591"><ele>188.0</ele><time>2026-04-18T09:26:58.473Z</time></trkpt><trkpt lat="43.379435" lon="10.8486114"><ele>187.0</ele><time>2026-04-18T09:26:59.481Z</time></trkpt><trkpt lat="43.3793836" lon="10.8485599"><ele>185.6</ele><time>2026-04-18T09:27:00.475Z</time></trkpt><trkpt lat="43.3793304" lon="10.8485072"><ele>184.2</ele><time>2026-04-18T09:27:01.47Z</time></trkpt><trkpt lat="43.3792319" lon="10.8483997"><ele>182.8</ele><time>2026-04-18T09:27:03.481Z</time></trkpt><trkpt lat="43.3791473" lon="10.8482772"><ele>181.4</ele><time>2026-04-18T09:27:05.473Z</time></trkpt><trkpt lat="43.3791122" lon="10.8482026"><ele>180.0</ele><time>2026-04-18T09:27:06.474Z</time></trkpt><trkpt lat="43.3790811" lon="10.8481109"><ele>180.0</ele><time>2026-04-18T09:27:07.482Z</time></trkpt><trkpt lat="43.3790601" lon="10.8480138"><ele>180.0</ele><time>2026-04-18T09:27:08.478Z</time></trkpt><trkpt lat="43.3790504" lon="10.8479147"><ele>180.0</ele><time>2026-04-18T09:27:09.485Z</time></trkpt><trkpt lat="43.3790416" lon="10.8478134"><ele>180.0</ele><time>2026-04-18T09:27:10.504Z</time></trkpt><trkpt lat="43.379028" lon="10.8477215"><ele>180.0</ele><time>2026-04-18T09:27:11.479Z</time></trkpt><trkpt lat="43.3790131" lon="10.8476319"><ele>180.0</ele><time>2026-04-18T09:27:12.472Z</time></trkpt><trkpt lat="43.3789901" lon="10.8475493"><ele>180.0</ele><time>2026-04-18T09:27:13.472Z</time></trkpt><trkpt lat="43.3789416" lon="10.8474013"><ele>180.4</ele><time>2026-04-18T09:27:15.474Z</time></trkpt><trkpt lat="43.3788988" lon="10.8472388"><ele>180.8</ele><time>2026-04-18T09:27:17.47Z</time></trkpt><trkpt lat="43.3788687" lon="10.8470756"><ele>181.2</ele><time>2026-04-18T09:27:19.474Z</time></trkpt><trkpt lat="43.3788622" lon="10.8469864"><ele>181.6</ele><time>2026-04-18T09:27:20.472Z</time></trkpt><trkpt lat="43.3788479" lon="10.8468954"><ele>182.0</ele><time>2026-04-18T09:27:21.477Z</time></trkpt><trkpt lat="43.3788295" lon="10.846793"><ele>180.83333333333331</ele><time>2026-04-18T09:27:22.478Z</time></trkpt><trkpt lat="43.3788052" lon="10.8466953"><ele>179.66666666666666</ele><time>2026-04-18T09:27:23.475Z</time></trkpt><trkpt lat="43.3787716" lon="10.846602"><ele>178.5</ele><time>2026-04-18T09:27:24.474Z</time></trkpt><trkpt lat="43.3787336" lon="10.8465079"><ele>177.33333333333334</ele><time>2026-04-18T09:27:25.473Z</time></trkpt><trkpt lat="43.3786883" lon="10.8464045"><ele>176.16666666666669</ele><time>2026-04-18T09:27:26.467Z</time></trkpt><trkpt lat="43.3786446" lon="10.8463161"><ele>175.0</ele><time>2026-04-18T09:27:27.488Z</time></trkpt><trkpt lat="43.378606" lon="10.8462218"><ele>175.0</ele><time>2026-04-18T09:27:28.472Z</time></trkpt><trkpt lat="43.3785731" lon="10.8461243"><ele>175.0</ele><time>2026-04-18T09:27:29.473Z</time></trkpt><trkpt lat="43.3785349" lon="10.8460213"><ele>175.0</ele><time>2026-04-18T09:27:30.486Z</time></trkpt><trkpt lat="43.3784956" lon="10.8459164"><ele>175.0</ele><time>2026-04-18T09:27:31.473Z</time></trkpt><trkpt lat="43.3784596" lon="10.845809"><ele>175.0</ele><time>2026-04-18T09:27:32.48Z</time></trkpt><trkpt lat="43.3784211" lon="10.8456987"><ele>175.0</ele><time>2026-04-18T09:27:33.482Z</time></trkpt><trkpt lat="43.3783858" lon="10.8455927"><ele>175.5</ele><time>2026-04-18T09:27:34.489Z</time></trkpt><trkpt lat="43.3783531" lon="10.8454819"><ele>176.0</ele><time>2026-04-18T09:27:35.477Z</time></trkpt><trkpt lat="43.3783221" lon="10.8453786"><ele>176.5</ele><time>2026-04-18T09:27:36.476Z</time></trkpt><trkpt lat="43.3782947" lon="10.8452705"><ele>177.0</ele><time>2026-04-18T09:27:37.468Z</time></trkpt><trkpt lat="43.3782661" lon="10.8451747"><ele>177.5</ele><time>2026-04-18T09:27:38.488Z</time></trkpt><trkpt lat="43.3782303" lon="10.8450879"><ele>178.0</ele><time>2026-04-18T09:27:39.474Z</time></trkpt><trkpt lat="43.3781862" lon="10.8450071"><ele>178.16666666666669</ele><time>2026-04-18T09:27:40.476Z</time></trkpt><trkpt lat="43.3781397" lon="10.844938"><ele>178.33333333333334</ele><time>2026-04-18T09:27:41.478Z</time></trkpt><trkpt lat="43.3780923" lon="10.8448705"><ele>178.5</ele><time>2026-04-18T09:27:42.47Z</time></trkpt><trkpt lat="43.3780049" lon="10.8447312"><ele>178.66666666666666</ele><time>2026-04-18T09:27:44.478Z</time></trkpt><trkpt lat="43.3779513" lon="10.8446492"><ele>178.83333333333331</ele><time>2026-04-18T09:27:45.519Z</time></trkpt><trkpt lat="43.3779" lon="10.8445634"><ele>179.0</ele><time>2026-04-18T09:27:46.469Z</time></trkpt><trkpt lat="43.3778484" lon="10.8444688"><ele>178.71428571428572</ele><time>2026-04-18T09:27:47.484Z</time></trkpt><trkpt lat="43.3778032" lon="10.8443896"><ele>178.42857142857144</ele><time>2026-04-18T09:27:48.468Z</time></trkpt><trkpt lat="43.377761" lon="10.8443073"><ele>178.14285714285717</ele><time>2026-04-18T09:27:49.47Z</time></trkpt><trkpt lat="43.3777288" lon="10.8442237"><ele>177.85714285714286</ele><time>2026-04-18T09:27:50.482Z</time></trkpt><trkpt lat="43.3777122" lon="10.844135"><ele>177.57142857142856</ele><time>2026-04-18T09:27:51.468Z</time></trkpt><trkpt lat="43.3776999" lon="10.8440457"><ele>177.2857142857143</ele><time>2026-04-18T09:27:52.479Z</time></trkpt><trkpt lat="43.3776933" lon="10.843956"><ele>177.0</ele><time>2026-04-18T09:27:53.478Z</time></trkpt><trkpt lat="43.377685" lon="10.8438649"><ele>177.0</ele><time>2026-04-18T09:27:54.475Z</time></trkpt><trkpt lat="43.3776806" lon="10.8437754"><ele>177.0</ele><time>2026-04-18T09:27:55.475Z</time></trkpt><trkpt lat="43.3776635" lon="10.8436703"><ele>177.0</ele><time>2026-04-18T09:27:56.492Z</time></trkpt><trkpt lat="43.3776413" lon="10.8435681"><ele>177.0</ele><time>2026-04-18T09:27:57.479Z</time></trkpt><trkpt lat="43.3776184" lon="10.8434664"><ele>177.0</ele><time>2026-04-18T09:27:58.469Z</time></trkpt><trkpt lat="43.3775918" lon="10.8433558"><ele>177.0</ele><time>2026-04-18T09:27:59.48Z</time></trkpt><trkpt lat="43.3775633" lon="10.8432572"><ele>177.0</ele><time>2026-04-18T09:28:00.477Z</time></trkpt><trkpt lat="43.37754" lon="10.8431668"><ele>177.0</ele><time>2026-04-18T09:28:01.478Z</time></trkpt><trkpt lat="43.3775122" lon="10.8430789"><ele>177.0</ele><time>2026-04-18T09:28:02.474Z</time></trkpt><trkpt lat="43.3774597" lon="10.8429538"><ele>177.0</ele><time>2026-04-18T09:28:04.475Z</time></trkpt><trkpt lat="43.3774363" lon="10.8428595"><ele>177.0</ele><time>2026-04-18T09:28:15.471Z</time></trkpt><trkpt lat="43.3773937" lon="10.8427515"><ele>177.0</ele><time>2026-04-18T09:28:17.473Z</time></trkpt><trkpt lat="43.3773284" lon="10.8426328"><ele>175.39999999999998</ele><time>2026-04-18T09:28:19.472Z</time></trkpt><trkpt lat="43.3772556" lon="10.8425209"><ele>173.79999999999998</ele><time>2026-04-18T09:28:21.477Z</time></trkpt><trkpt lat="43.3771804" lon="10.8424132"><ele>172.2</ele><time>2026-04-18T09:28:23.475Z</time></trkpt><trkpt lat="43.3770982" lon="10.8422985"><ele>170.6</ele><time>2026-04-18T09:28:25.472Z</time></trkpt><trkpt lat="43.3770199" lon="10.8421842"><ele>169.0</ele><time>2026-04-18T09:28:27.471Z</time></trkpt><trkpt lat="43.3769279" lon="10.8420681"><ele>169.0</ele><time>2026-04-18T09:28:29.472Z</time></trkpt><trkpt lat="43.3768411" lon="10.84197"><ele>169.0</ele><time>2026-04-18T09:28:31.481Z</time></trkpt><trkpt lat="43.3767663" lon="10.8418856"><ele>169.0</ele><time>2026-04-18T09:28:33.466Z</time></trkpt><trkpt lat="43.3766948" lon="10.8417786"><ele>169.0</ele><time>2026-04-18T09:28:35.485Z</time></trkpt><trkpt lat="43.3766572" lon="10.8417058"><ele>169.0</ele><time>2026-04-18T09:28:36.478Z</time></trkpt><trkpt lat="43.3766136" lon="10.8416263"><ele>168.28571428571428</ele><time>2026-04-18T09:28:37.476Z</time></trkpt><trkpt lat="43.3765809" lon="10.8415445"><ele>167.57142857142856</ele><time>2026-04-18T09:28:38.469Z</time></trkpt><trkpt lat="43.3765423" lon="10.8414626"><ele>166.85714285714283</ele><time>2026-04-18T09:28:39.467Z</time></trkpt><trkpt lat="43.376503" lon="10.8413809"><ele>166.14285714285714</ele><time>2026-04-18T09:28:40.464Z</time></trkpt><trkpt lat="43.3764541" lon="10.8413058"><ele>165.42857142857142</ele><time>2026-04-18T09:28:41.466Z</time></trkpt><trkpt lat="43.3763992" lon="10.8412224"><ele>164.7142857142857</ele><time>2026-04-18T09:28:42.471Z</time></trkpt><trkpt lat="43.3763402" lon="10.8411442"><ele>164.0</ele><time>2026-04-18T09:28:43.465Z</time></trkpt><trkpt lat="43.3762811" lon="10.8410573"><ele>163.42857142857142</ele><time>2026-04-18T09:28:44.46Z</time></trkpt><trkpt lat="43.3762247" lon="10.8409853"><ele>162.85714285714286</ele><time>2026-04-18T09:28:45.468Z</time></trkpt><trkpt lat="43.376178" lon="10.8409105"><ele>162.28571428571428</ele><time>2026-04-18T09:28:46.474Z</time></trkpt><trkpt lat="43.3761255" lon="10.8408376"><ele>161.71428571428572</ele><time>2026-04-18T09:28:47.47Z</time></trkpt><trkpt lat="43.3760702" lon="10.8407726"><ele>161.14285714285714</ele><time>2026-04-18T09:28:48.499Z</time></trkpt><trkpt lat="43.3760162" lon="10.8407009"><ele>160.57142857142856</ele><time>2026-04-18T09:28:49.48Z</time></trkpt><trkpt lat="43.3759638" lon="10.8406327"><ele>160.0</ele><time>2026-04-18T09:28:50.465Z</time></trkpt><trkpt lat="43.3759177" lon="10.840561"><ele>160.0</ele><time>2026-04-18T09:28:51.47Z</time></trkpt><trkpt lat="43.3758697" lon="10.8404888"><ele>160.0</ele><time>2026-04-18T09:28:52.47Z</time></trkpt><trkpt lat="43.3758206" lon="10.8404262"><ele>160.0</ele><time>2026-04-18T09:28:53.47Z</time></trkpt><trkpt lat="43.3757734" lon="10.8403535"><ele>160.0</ele><time>2026-04-18T09:28:54.469Z</time></trkpt><trkpt lat="43.3756994" lon="10.8402468"><ele>160.0</ele><time>2026-04-18T09:28:56.471Z</time></trkpt><trkpt lat="43.3756531" lon="10.8401705"><ele>160.0</ele><time>2026-04-18T09:28:58.477Z</time></trkpt><trkpt lat="43.3756127" lon="10.8400969"><ele>159.66666666666669</ele><time>2026-04-18T09:29:00.464Z</time></trkpt><trkpt lat="43.3755734" lon="10.840023"><ele>159.33333333333334</ele><time>2026-04-18T09:29:02.469Z</time></trkpt><trkpt lat="43.3755515" lon="10.839941"><ele>159.0</ele><time>2026-04-18T09:29:07.473Z</time></trkpt><trkpt lat="43.3755839" lon="10.839834"><ele>158.66666666666666</ele><time>2026-04-18T09:29:31.472Z</time></trkpt><trkpt lat="43.3755945" lon="10.8397178"><ele>158.33333333333331</ele><time>2026-04-18T09:29:33.487Z</time></trkpt><trkpt lat="43.3755817" lon="10.8396022"><ele>158.0</ele><time>2026-04-18T09:29:35.487Z</time></trkpt><trkpt lat="43.3755544" lon="10.8394706"><ele>158.0</ele><time>2026-04-18T09:29:37.504Z</time></trkpt><trkpt lat="43.3755433" lon="10.8393178"><ele>158.0</ele><time>2026-04-18T09:29:39.476Z</time></trkpt><trkpt lat="43.3755394" lon="10.8391756"><ele>158.0</ele><time>2026-04-18T09:29:41.478Z</time></trkpt><trkpt lat="43.3755585" lon="10.8390164"><ele>158.0</ele><time>2026-04-18T09:29:43.48Z</time></trkpt><trkpt lat="43.3755549" lon="10.8388754"><ele>158.0</ele><time>2026-04-18T09:29:45.471Z</time></trkpt><trkpt lat="43.3755353" lon="10.8387386"><ele>157.20000000000002</ele><time>2026-04-18T09:29:47.469Z</time></trkpt><trkpt lat="43.375552" lon="10.8385822"><ele>156.4</ele><time>2026-04-18T09:29:49.47Z</time></trkpt><trkpt lat="43.3755951" lon="10.8384635"><ele>155.60000000000002</ele><time>2026-04-18T09:29:51.469Z</time></trkpt><trkpt lat="43.3756287" lon="10.83837"><ele>154.8</ele><time>2026-04-18T09:29:53.463Z</time></trkpt><trkpt lat="43.3756754" lon="10.8382722"><ele>154.0</ele><time>2026-04-18T09:29:55.472Z</time></trkpt><trkpt lat="43.3757245" lon="10.8381745"><ele>153.8</ele><time>2026-04-18T09:29:57.507Z</time></trkpt><trkpt lat="43.3757982" lon="10.8381068"><ele>153.60000000000002</ele><time>2026-04-18T09:29:59.467Z</time></trkpt><trkpt lat="43.3758733" lon="10.8380727"><ele>153.4</ele><time>2026-04-18T09:30:01.47Z</time></trkpt><trkpt lat="43.3759639" lon="10.8380528"><ele>153.20000000000002</ele><time>2026-04-18T09:30:03.473Z</time></trkpt><trkpt lat="43.3760766" lon="10.8380736"><ele>153.0</ele><time>2026-04-18T09:30:05.474Z</time></trkpt><trkpt lat="43.376191" lon="10.8380992"><ele>153.0</ele><time>2026-04-18T09:30:07.484Z</time></trkpt><trkpt lat="43.3763149" lon="10.8381287"><ele>153.0</ele><time>2026-04-18T09:30:09.473Z</time></trkpt><trkpt lat="43.3764339" lon="10.8381139"><ele>153.0</ele><time>2026-04-18T09:30:11.475Z</time></trkpt><trkpt lat="43.3765336" lon="10.8381015"><ele>153.0</ele><time>2026-04-18T09:30:13.477Z</time></trkpt><trkpt lat="43.376601" lon="10.838083"><ele>153.0</ele><time>2026-04-18T09:30:15.476Z</time></trkpt><trkpt lat="43.3766977" lon="10.8380886"><ele>150.20000000000002</ele><time>2026-04-18T09:30:18.477Z</time></trkpt><trkpt lat="43.3767856" lon="10.8381057"><ele>147.4</ele><time>2026-04-18T09:30:20.463Z</time></trkpt><trkpt lat="43.3768956" lon="10.8381086"><ele>144.60000000000002</ele><time>2026-04-18T09:30:22.472Z</time></trkpt><trkpt lat="43.3770216" lon="10.8381055"><ele>141.8</ele><time>2026-04-18T09:30:24.472Z</time></trkpt><trkpt lat="43.3771447" lon="10.8381013"><ele>139.0</ele><time>2026-04-18T09:30:26.476Z</time></trkpt><trkpt lat="43.3772086" lon="10.838098"><ele>136.8</ele><time>2026-04-18T09:30:27.47Z</time></trkpt><trkpt lat="43.3773147" lon="10.8380834"><ele>134.60000000000002</ele><time>2026-04-18T09:30:29.492Z</time></trkpt><trkpt lat="43.3774025" lon="10.838027"><ele>132.4</ele><time>2026-04-18T09:30:31.479Z</time></trkpt><trkpt lat="43.3774718" lon="10.8379408"><ele>130.20000000000002</ele><time>2026-04-18T09:30:33.48Z</time></trkpt><trkpt lat="43.3774988" lon="10.8378472"><ele>128.0</ele><time>2026-04-18T09:30:35.473Z</time></trkpt><trkpt lat="43.3775321" lon="10.8377325"><ele>128.0</ele><time>2026-04-18T09:30:38.47Z</time></trkpt><trkpt lat="43.3775801" lon="10.8375928"><ele>128.0</ele><time>2026-04-18T09:30:40.481Z</time></trkpt><trkpt lat="43.3776217" lon="10.8374715"><ele>128.0</ele><time>2026-04-18T09:30:42.472Z</time></trkpt><trkpt lat="43.3777009" lon="10.8374699"><ele>128.0</ele><time>2026-04-18T09:30:44.469Z</time></trkpt><trkpt lat="43.3777944" lon="10.8374603"><ele>128.0</ele><time>2026-04-18T09:30:46.468Z</time></trkpt><trkpt lat="43.3778969" lon="10.8373898"><ele>127.99999999999999</ele><time>2026-04-18T09:30:48.471Z</time></trkpt><trkpt lat="43.3779563" lon="10.8373421"><ele>128.0</ele><time>2026-04-18T09:30:49.465Z</time></trkpt><trkpt lat="43.3780278" lon="10.837311"><ele>128.0</ele><time>2026-04-18T09:30:50.465Z</time></trkpt><trkpt lat="43.3780895" lon="10.8372913"><ele>128.0</ele><time>2026-04-18T09:30:51.475Z</time></trkpt><trkpt lat="43.3781925" lon="10.8372534"><ele>127.99999999999999</ele><time>2026-04-18T09:30:53.483Z</time></trkpt><trkpt lat="43.3782663" lon="10.8371795"><ele>128.0</ele><time>2026-04-18T09:30:55.469Z</time></trkpt><trkpt lat="43.3782828" lon="10.8370424"><ele>127.49999999999999</ele><time>2026-04-18T09:30:57.468Z</time></trkpt><trkpt lat="43.3782937" lon="10.8368813"><ele>127.0</ele><time>2026-04-18T09:30:59.471Z</time></trkpt><trkpt lat="43.3782973" lon="10.8367826"><ele>126.5</ele><time>2026-04-18T09:31:00.468Z</time></trkpt><trkpt lat="43.3782988" lon="10.8366858"><ele>126.0</ele><time>2026-04-18T09:31:01.476Z</time></trkpt><trkpt lat="43.3783001" lon="10.836594"><ele>125.49999999999999</ele><time>2026-04-18T09:31:02.468Z</time></trkpt><trkpt lat="43.3783" lon="10.8364309"><ele>125.0</ele><time>2026-04-18T09:31:04.467Z</time></trkpt><trkpt lat="43.3783" lon="10.8362616"><ele>124.99999999999999</ele><time>2026-04-18T09:31:06.467Z</time></trkpt><trkpt lat="43.3782852" lon="10.836114"><ele>125.0</ele><time>2026-04-18T09:31:08.468Z</time></trkpt><trkpt lat="43.3782615" lon="10.8359913"><ele>125.0</ele><time>2026-04-18T09:31:10.475Z</time></trkpt><trkpt lat="43.3782421" lon="10.8358801"><ele>125.0</ele><time>2026-04-18T09:31:13.473Z</time></trkpt><trkpt lat="43.3782168" lon="10.8357885"><ele>124.99999999999999</ele><time>2026-04-18T09:31:16.475Z</time></trkpt><trkpt lat="43.3781925" lon="10.835671"><ele>125.0</ele><time>2026-04-18T09:31:18.471Z</time></trkpt><trkpt lat="43.3781599" lon="10.8354923"><ele>125.16666666666666</ele><time>2026-04-18T09:31:20.473Z</time></trkpt><trkpt lat="43.3781356" lon="10.8353867"><ele>125.33333333333333</ele><time>2026-04-18T09:31:21.478Z</time></trkpt><trkpt lat="43.3781121" lon="10.8352903"><ele>125.5</ele><time>2026-04-18T09:31:22.48Z</time></trkpt><trkpt lat="43.3780888" lon="10.8351848"><ele>125.66666666666666</ele><time>2026-04-18T09:31:23.47Z</time></trkpt><trkpt lat="43.3780578" lon="10.8350867"><ele>125.83333333333333</ele><time>2026-04-18T09:31:24.47Z</time></trkpt><trkpt lat="43.3780313" lon="10.8349919"><ele>126.0</ele><time>2026-04-18T09:31:25.477Z</time></trkpt><trkpt lat="43.3780021" lon="10.8349007"><ele>125.16666666666667</ele><time>2026-04-18T09:31:26.481Z</time></trkpt><trkpt lat="43.3779683" lon="10.834802"><ele>124.33333333333334</ele><time>2026-04-18T09:31:27.486Z</time></trkpt><trkpt lat="43.3779294" lon="10.8346996"><ele>123.5</ele><time>2026-04-18T09:31:28.48Z</time></trkpt><trkpt lat="43.3778933" lon="10.8345926"><ele>122.66666666666667</ele><time>2026-04-18T09:31:29.478Z</time></trkpt><trkpt lat="43.3778528" lon="10.8344915"><ele>121.83333333333334</ele><time>2026-04-18T09:31:30.482Z</time></trkpt><trkpt lat="43.3778096" lon="10.8343996"><ele>121.0</ele><time>2026-04-18T09:31:31.468Z</time></trkpt><trkpt lat="43.3777688" lon="10.8343109"><ele>121.14285714285714</ele><time>2026-04-18T09:31:32.467Z</time></trkpt><trkpt lat="43.377732" lon="10.8342287"><ele>121.28571428571428</ele><time>2026-04-18T09:31:33.462Z</time></trkpt><trkpt lat="43.3776886" lon="10.8341556"><ele>121.42857142857142</ele><time>2026-04-18T09:31:34.487Z</time></trkpt><trkpt lat="43.3776463" lon="10.834091"><ele>121.57142857142856</ele><time>2026-04-18T09:31:35.475Z</time></trkpt><trkpt lat="43.3775986" lon="10.8340117"><ele>121.71428571428571</ele><time>2026-04-18T09:31:36.473Z</time></trkpt><trkpt lat="43.3775447" lon="10.833941"><ele>121.85714285714283</ele><time>2026-04-18T09:31:37.473Z</time></trkpt><trkpt lat="43.3774912" lon="10.8338599"><ele>121.99999999999999</ele><time>2026-04-18T09:31:38.481Z</time></trkpt><trkpt lat="43.3774413" lon="10.8337753"><ele>121.99999999999999</ele><time>2026-04-18T09:31:39.48Z</time></trkpt><trkpt lat="43.3773897" lon="10.8336959"><ele>122.0</ele><time>2026-04-18T09:31:40.474Z</time></trkpt><trkpt lat="43.3773387" lon="10.8336207"><ele>121.99999999999999</ele><time>2026-04-18T09:31:41.475Z</time></trkpt><trkpt lat="43.377291" lon="10.8335478"><ele>121.99999999999999</ele><time>2026-04-18T09:31:42.466Z</time></trkpt><trkpt lat="43.3772348" lon="10.8334798"><ele>122.0</ele><time>2026-04-18T09:31:43.477Z</time></trkpt><trkpt lat="43.3771783" lon="10.8334118"><ele>121.99999999999999</ele><time>2026-04-18T09:31:44.474Z</time></trkpt><trkpt lat="43.377123" lon="10.8333439"><ele>121.99999999999999</ele><time>2026-04-18T09:31:45.482Z</time></trkpt><trkpt lat="43.3770677" lon="10.833279"><ele>121.14285714285712</ele><time>2026-04-18T09:31:46.482Z</time></trkpt><trkpt lat="43.3770123" lon="10.8332119"><ele>120.28571428571428</ele><time>2026-04-18T09:31:47.493Z</time></trkpt><trkpt lat="43.3769561" lon="10.8331519"><ele>119.42857142857143</ele><time>2026-04-18T09:31:48.488Z</time></trkpt><trkpt lat="43.3768989" lon="10.8331009"><ele>118.57142857142857</ele><time>2026-04-18T09:31:49.487Z</time></trkpt><trkpt lat="43.3768426" lon="10.8330478"><ele>117.71428571428572</ele><time>2026-04-18T09:31:50.484Z</time></trkpt><trkpt lat="43.3767819" lon="10.8329944"><ele>116.85714285714288</ele><time>2026-04-18T09:31:51.48Z</time></trkpt><trkpt lat="43.3767162" lon="10.8329375"><ele>116.00000000000001</ele><time>2026-04-18T09:31:52.485Z</time></trkpt><trkpt lat="43.3766442" lon="10.8328869"><ele>116.0</ele><time>2026-04-18T09:31:53.48Z</time></trkpt><trkpt lat="43.3765659" lon="10.8328263"><ele>116.0</ele><time>2026-04-18T09:31:54.47Z</time></trkpt><trkpt lat="43.3764808" lon="10.8327613"><ele>116.0</ele><time>2026-04-18T09:31:55.487Z</time></trkpt><trkpt lat="43.3764047" lon="10.8327055"><ele>116.0</ele><time>2026-04-18T09:31:56.485Z</time></trkpt><trkpt lat="43.3763256" lon="10.8326372"><ele>116.0</ele><time>2026-04-18T09:31:57.484Z</time></trkpt><trkpt lat="43.3762414" lon="10.8325602"><ele>116.19999999999999</ele><time>2026-04-18T09:31:58.478Z</time></trkpt><trkpt lat="43.3761459" lon="10.8324849"><ele>116.39999999999999</ele><time>2026-04-18T09:31:59.486Z</time></trkpt><trkpt lat="43.3760518" lon="10.8324108"><ele>116.6</ele><time>2026-04-18T09:32:00.468Z</time></trkpt><trkpt lat="43.3759622" lon="10.832333"><ele>116.8</ele><time>2026-04-18T09:32:01.471Z</time></trkpt><trkpt lat="43.375868" lon="10.8322681"><ele>117.0</ele><time>2026-04-18T09:32:02.473Z</time></trkpt><trkpt lat="43.375772" lon="10.8322044"><ele>117.0</ele><time>2026-04-18T09:32:03.501Z</time></trkpt><trkpt lat="43.3756802" lon="10.8321454"><ele>116.99999999999999</ele><time>2026-04-18T09:32:04.48Z</time></trkpt><trkpt lat="43.3755835" lon="10.8320962"><ele>116.99999999999999</ele><time>2026-04-18T09:32:05.476Z</time></trkpt><trkpt lat="43.3754876" lon="10.8320491"><ele>117.0</ele><time>2026-04-18T09:32:06.49Z</time></trkpt><trkpt lat="43.3754007" lon="10.8320123"><ele>117.0</ele><time>2026-04-18T09:32:07.471Z</time></trkpt><trkpt lat="43.3753121" lon="10.8319839"><ele>116.0</ele><time>2026-04-18T09:32:08.498Z</time></trkpt><trkpt lat="43.3752271" lon="10.8319469"><ele>114.99999999999999</ele><time>2026-04-18T09:32:09.493Z</time></trkpt><trkpt lat="43.3751392" lon="10.8319142"><ele>113.99999999999999</ele><time>2026-04-18T09:32:10.504Z</time></trkpt><trkpt lat="43.3750497" lon="10.8318919"><ele>113.0</ele><time>2026-04-18T09:32:11.505Z</time></trkpt><trkpt lat="43.3749596" lon="10.8318709"><ele>112.0</ele><time>2026-04-18T09:32:12.482Z</time></trkpt><trkpt lat="43.3748671" lon="10.8318463"><ele>112.0</ele><time>2026-04-18T09:32:13.484Z</time></trkpt><trkpt lat="43.3747787" lon="10.8318396"><ele>111.99999999999999</ele><time>2026-04-18T09:32:14.496Z</time></trkpt><trkpt lat="43.3746891" lon="10.8318277"><ele>111.99999999999999</ele><time>2026-04-18T09:32:15.486Z</time></trkpt><trkpt lat="43.3745921" lon="10.8318354"><ele>112.0</ele><time>2026-04-18T09:32:16.475Z</time></trkpt><trkpt lat="43.3744936" lon="10.8318408"><ele>112.0</ele><time>2026-04-18T09:32:17.471Z</time></trkpt><trkpt lat="43.3743977" lon="10.8318486"><ele>111.6</ele><time>2026-04-18T09:32:18.472Z</time></trkpt><trkpt lat="43.3743055" lon="10.8318678"><ele>111.19999999999999</ele><time>2026-04-18T09:32:19.476Z</time></trkpt><trkpt lat="43.3742015" lon="10.831881"><ele>110.8</ele><time>2026-04-18T09:32:20.473Z</time></trkpt><trkpt lat="43.3741152" lon="10.8319082"><ele>110.4</ele><time>2026-04-18T09:32:21.474Z</time></trkpt><trkpt lat="43.3740216" lon="10.8319353"><ele>110.0</ele><time>2026-04-18T09:32:22.5Z</time></trkpt><trkpt lat="43.3739329" lon="10.8319745"><ele>109.8</ele><time>2026-04-18T09:32:23.478Z</time></trkpt><trkpt lat="43.3738395" lon="10.8320047"><ele>109.6</ele><time>2026-04-18T09:32:24.482Z</time></trkpt><trkpt lat="43.3737453" lon="10.8320284"><ele>109.4</ele><time>2026-04-18T09:32:25.47Z</time></trkpt><trkpt lat="43.3736516" lon="10.8320561"><ele>109.2</ele><time>2026-04-18T09:32:26.48Z</time></trkpt><trkpt lat="43.373553" lon="10.8320805"><ele>109.0</ele><time>2026-04-18T09:32:27.467Z</time></trkpt><trkpt lat="43.3734573" lon="10.8321049"><ele>109.0</ele><time>2026-04-18T09:32:28.474Z</time></trkpt><trkpt lat="43.3733593" lon="10.8321416"><ele>109.0</ele><time>2026-04-18T09:32:29.477Z</time></trkpt><trkpt lat="43.3732642" lon="10.8321767"><ele>109.0</ele><time>2026-04-18T09:32:30.47Z</time></trkpt><trkpt lat="43.3731622" lon="10.8322089"><ele>109.0</ele><time>2026-04-18T09:32:31.481Z</time></trkpt><trkpt lat="43.3730752" lon="10.8322434"><ele>109.0</ele><time>2026-04-18T09:32:32.473Z</time></trkpt><trkpt lat="43.372985" lon="10.8322651"><ele>109.0</ele><time>2026-04-18T09:32:33.469Z</time></trkpt><trkpt lat="43.3728876" lon="10.8322822"><ele>109.0</ele><time>2026-04-18T09:32:34.479Z</time></trkpt><trkpt lat="43.3727994" lon="10.8323031"><ele>109.0</ele><time>2026-04-18T09:32:35.492Z</time></trkpt><trkpt lat="43.3727105" lon="10.8323216"><ele>109.0</ele><time>2026-04-18T09:32:36.476Z</time></trkpt><trkpt lat="43.3726244" lon="10.8323495"><ele>109.0</ele><time>2026-04-18T09:32:37.468Z</time></trkpt><trkpt lat="43.3725403" lon="10.8323743"><ele>109.00000000000001</ele><time>2026-04-18T09:32:38.471Z</time></trkpt><trkpt lat="43.3724629" lon="10.8323967"><ele>109.0</ele><time>2026-04-18T09:32:39.484Z</time></trkpt><trkpt lat="43.372383" lon="10.8324264"><ele>109.0</ele><time>2026-04-18T09:32:40.471Z</time></trkpt><trkpt lat="43.372307" lon="10.8324522"><ele>109.0</ele><time>2026-04-18T09:32:41.471Z</time></trkpt><trkpt lat="43.3722225" lon="10.8324722"><ele>109.00000000000001</ele><time>2026-04-18T09:32:42.475Z</time></trkpt><trkpt lat="43.3721349" lon="10.8324847"><ele>109.0</ele><time>2026-04-18T09:32:43.473Z</time></trkpt><trkpt lat="43.372042" lon="10.83248"><ele>108.4</ele><time>2026-04-18T09:32:44.474Z</time></trkpt><trkpt lat="43.3719494" lon="10.8324741"><ele>107.80000000000001</ele><time>2026-04-18T09:32:45.47Z</time></trkpt><trkpt lat="43.3718497" lon="10.8324676"><ele>107.19999999999999</ele><time>2026-04-18T09:32:46.476Z</time></trkpt><trkpt lat="43.3717568" lon="10.8324492"><ele>106.6</ele><time>2026-04-18T09:32:47.467Z</time></trkpt><trkpt lat="43.371657" lon="10.8324281"><ele>106.0</ele><time>2026-04-18T09:32:48.476Z</time></trkpt><trkpt lat="43.3715578" lon="10.8323956"><ele>106.0</ele><time>2026-04-18T09:32:49.469Z</time></trkpt><trkpt lat="43.3714586" lon="10.8323586"><ele>106.0</ele><time>2026-04-18T09:32:50.486Z</time></trkpt><trkpt lat="43.3713573" lon="10.8323164"><ele>106.0</ele><time>2026-04-18T09:32:51.471Z</time></trkpt><trkpt lat="43.3712603" lon="10.8322568"><ele>106.0</ele><time>2026-04-18T09:32:52.467Z</time></trkpt><trkpt lat="43.371166" lon="10.8321817"><ele>106.0</ele><time>2026-04-18T09:32:53.481Z</time></trkpt><trkpt lat="43.3710774" lon="10.8321185"><ele>106.0</ele><time>2026-04-18T09:32:54.469Z</time></trkpt><trkpt lat="43.3709942" lon="10.8320359"><ele>106.0</ele><time>2026-04-18T09:32:55.471Z</time></trkpt><trkpt lat="43.3709151" lon="10.8319641"><ele>106.0</ele><time>2026-04-18T09:32:56.481Z</time></trkpt><trkpt lat="43.3708434" lon="10.8318869"><ele>106.0</ele><time>2026-04-18T09:32:57.472Z</time></trkpt><trkpt lat="43.3707774" lon="10.8317955"><ele>106.0</ele><time>2026-04-18T09:32:58.486Z</time></trkpt><trkpt lat="43.3707149" lon="10.8317072"><ele>106.0</ele><time>2026-04-18T09:32:59.475Z</time></trkpt><trkpt lat="43.3706536" lon="10.8316199"><ele>106.0</ele><time>2026-04-18T09:33:00.472Z</time></trkpt><trkpt lat="43.3705988" lon="10.8315326"><ele>106.0</ele><time>2026-04-18T09:33:01.477Z</time></trkpt><trkpt lat="43.3705388" lon="10.8314372"><ele>106.0</ele><time>2026-04-18T09:33:02.479Z</time></trkpt><trkpt lat="43.3704826" lon="10.8313332"><ele>106.0</ele><time>2026-04-18T09:33:03.475Z</time></trkpt><trkpt lat="43.3704313" lon="10.8312175"><ele>104.4</ele><time>2026-04-18T09:33:04.473Z</time></trkpt><trkpt lat="43.3703739" lon="10.8310929"><ele>102.8</ele><time>2026-04-18T09:33:05.475Z</time></trkpt><trkpt lat="43.3703187" lon="10.8309669"><ele>101.2</ele><time>2026-04-18T09:33:06.476Z</time></trkpt><trkpt lat="43.3702537" lon="10.8308354"><ele>99.60000000000001</ele><time>2026-04-18T09:33:07.486Z</time></trkpt><trkpt lat="43.370189" lon="10.8307093"><ele>98.0</ele><time>2026-04-18T09:33:08.473Z</time></trkpt><trkpt lat="43.3701293" lon="10.8305834"><ele>98.0</ele><time>2026-04-18T09:33:09.475Z</time></trkpt><trkpt lat="43.3700662" lon="10.830468"><ele>98.0</ele><time>2026-04-18T09:33:10.473Z</time></trkpt><trkpt lat="43.3700086" lon="10.830348"><ele>98.0</ele><time>2026-04-18T09:33:11.484Z</time></trkpt><trkpt lat="43.369958" lon="10.8302292"><ele>98.0</ele><time>2026-04-18T09:33:12.478Z</time></trkpt><trkpt lat="43.3699122" lon="10.8301065"><ele>98.0</ele><time>2026-04-18T09:33:13.476Z</time></trkpt><trkpt lat="43.3698724" lon="10.829991"><ele>98.66666666666666</ele><time>2026-04-18T09:33:14.459Z</time></trkpt><trkpt lat="43.3698363" lon="10.8298733"><ele>99.33333333333333</ele><time>2026-04-18T09:33:15.479Z</time></trkpt><trkpt lat="43.3698082" lon="10.8297639"><ele>100.0</ele><time>2026-04-18T09:33:16.47Z</time></trkpt><trkpt lat="43.3697796" lon="10.8296511"><ele>100.66666666666666</ele><time>2026-04-18T09:33:17.503Z</time></trkpt><trkpt lat="43.3697512" lon="10.8295603"><ele>101.33333333333333</ele><time>2026-04-18T09:33:18.482Z</time></trkpt><trkpt lat="43.3697276" lon="10.8294674"><ele>102.0</ele><time>2026-04-18T09:33:19.466Z</time></trkpt><trkpt lat="43.3697042" lon="10.8293772"><ele>100.5</ele><time>2026-04-18T09:33:20.464Z</time></trkpt><trkpt lat="43.369678" lon="10.8292718"><ele>99.0</ele><time>2026-04-18T09:33:21.471Z</time></trkpt><trkpt lat="43.3696514" lon="10.8291653"><ele>97.5</ele><time>2026-04-18T09:33:22.471Z</time></trkpt><trkpt lat="43.3696233" lon="10.8290538"><ele>96.0</ele><time>2026-04-18T09:33:23.472Z</time></trkpt><trkpt lat="43.3695965" lon="10.8289443"><ele>94.5</ele><time>2026-04-18T09:33:24.474Z</time></trkpt><trkpt lat="43.3695682" lon="10.8288341"><ele>93.0</ele><time>2026-04-18T09:33:25.485Z</time></trkpt><trkpt lat="43.3695434" lon="10.8287242"><ele>93.0</ele><time>2026-04-18T09:33:26.487Z</time></trkpt><trkpt lat="43.3695168" lon="10.8286103"><ele>93.0</ele><time>2026-04-18T09:33:27.48Z</time></trkpt><trkpt lat="43.369491" lon="10.8284864"><ele>93.0</ele><time>2026-04-18T09:33:28.465Z</time></trkpt><trkpt lat="43.3694597" lon="10.8283674"><ele>93.0</ele><time>2026-04-18T09:33:29.468Z</time></trkpt><trkpt lat="43.3694356" lon="10.8282522"><ele>93.0</ele><time>2026-04-18T09:33:30.47Z</time></trkpt><trkpt lat="43.3694087" lon="10.8281379"><ele>93.0</ele><time>2026-04-18T09:33:31.462Z</time></trkpt><trkpt lat="43.3693939" lon="10.8280221"><ele>93.16666666666667</ele><time>2026-04-18T09:33:32.465Z</time></trkpt><trkpt lat="43.3693769" lon="10.8279138"><ele>93.33333333333333</ele><time>2026-04-18T09:33:33.47Z</time></trkpt><trkpt lat="43.3693615" lon="10.8278004"><ele>93.5</ele><time>2026-04-18T09:33:34.492Z</time></trkpt><trkpt lat="43.3693544" lon="10.8276744"><ele>93.66666666666666</ele><time>2026-04-18T09:33:35.488Z</time></trkpt><trkpt lat="43.3693491" lon="10.8275485"><ele>93.83333333333333</ele><time>2026-04-18T09:33:36.469Z</time></trkpt><trkpt lat="43.3693475" lon="10.8274093"><ele>94.0</ele><time>2026-04-18T09:33:37.473Z</time></trkpt><trkpt lat="43.3693548" lon="10.8272738"><ele>94.2</ele><time>2026-04-18T09:33:38.466Z</time></trkpt><trkpt lat="43.3693585" lon="10.8271334"><ele>94.4</ele><time>2026-04-18T09:33:39.469Z</time></trkpt><trkpt lat="43.369371" lon="10.827"><ele>94.6</ele><time>2026-04-18T09:33:40.472Z</time></trkpt><trkpt lat="43.3693822" lon="10.8268631"><ele>94.8</ele><time>2026-04-18T09:33:41.476Z</time></trkpt><trkpt lat="43.3694067" lon="10.8267249"><ele>95.0</ele><time>2026-04-18T09:33:42.464Z</time></trkpt><trkpt lat="43.3694403" lon="10.8266081"><ele>94.4</ele><time>2026-04-18T09:33:43.468Z</time></trkpt><trkpt lat="43.3694664" lon="10.8264827"><ele>93.8</ele><time>2026-04-18T09:33:44.477Z</time></trkpt><trkpt lat="43.369498" lon="10.8263561"><ele>93.19999999999999</ele><time>2026-04-18T09:33:45.463Z</time></trkpt><trkpt lat="43.3695299" lon="10.8262255"><ele>92.6</ele><time>2026-04-18T09:33:46.48Z</time></trkpt><trkpt lat="43.3695706" lon="10.8260878"><ele>92.0</ele><time>2026-04-18T09:33:47.464Z</time></trkpt><trkpt lat="43.369607" lon="10.8259538"><ele>91.19999999999999</ele><time>2026-04-18T09:33:48.468Z</time></trkpt><trkpt lat="43.3696453" lon="10.8258247"><ele>90.4</ele><time>2026-04-18T09:33:49.462Z</time></trkpt><trkpt lat="43.3696768" lon="10.8257035"><ele>89.6</ele><time>2026-04-18T09:33:50.472Z</time></trkpt><trkpt lat="43.3697082" lon="10.8255815"><ele>88.80000000000001</ele><time>2026-04-18T09:33:51.465Z</time></trkpt><trkpt lat="43.3697355" lon="10.8254634"><ele>88.0</ele><time>2026-04-18T09:33:52.497Z</time></trkpt><trkpt lat="43.3697588" lon="10.8253459"><ele>88.33333333333333</ele><time>2026-04-18T09:33:53.467Z</time></trkpt><trkpt lat="43.3697822" lon="10.8252339"><ele>88.66666666666666</ele><time>2026-04-18T09:33:54.486Z</time></trkpt><trkpt lat="43.3698005" lon="10.8251368"><ele>89.0</ele><time>2026-04-18T09:33:55.461Z</time></trkpt><trkpt lat="43.3698" lon="10.8250311"><ele>89.33333333333333</ele><time>2026-04-18T09:33:56.479Z</time></trkpt><trkpt lat="43.3698016" lon="10.8249294"><ele>89.66666666666667</ele><time>2026-04-18T09:33:57.472Z</time></trkpt><trkpt lat="43.369802" lon="10.8248274"><ele>90.0</ele><time>2026-04-18T09:33:58.461Z</time></trkpt><trkpt lat="43.3698076" lon="10.8247077"><ele>90.0</ele><time>2026-04-18T09:33:59.463Z</time></trkpt><trkpt lat="43.3697943" lon="10.8245824"><ele>90.0</ele><time>2026-04-18T09:34:00.468Z</time></trkpt><trkpt lat="43.3697785" lon="10.8244491"><ele>90.0</ele><time>2026-04-18T09:34:01.467Z</time></trkpt><trkpt lat="43.3697654" lon="10.8243269"><ele>90.0</ele><time>2026-04-18T09:34:02.464Z</time></trkpt><trkpt lat="43.369749" lon="10.8242119"><ele>90.0</ele><time>2026-04-18T09:34:03.466Z</time></trkpt><trkpt lat="43.3697247" lon="10.8240973"><ele>89.2</ele><time>2026-04-18T09:34:04.467Z</time></trkpt><trkpt lat="43.3696997" lon="10.8239841"><ele>88.4</ele><time>2026-04-18T09:34:05.484Z</time></trkpt><trkpt lat="43.3696679" lon="10.8238676"><ele>87.6</ele><time>2026-04-18T09:34:06.466Z</time></trkpt><trkpt lat="43.3696264" lon="10.8237473"><ele>86.8</ele><time>2026-04-18T09:34:07.474Z</time></trkpt><trkpt lat="43.3695776" lon="10.8236213"><ele>86.0</ele><time>2026-04-18T09:34:08.487Z</time></trkpt><trkpt lat="43.369526" lon="10.823496"><ele>85.8</ele><time>2026-04-18T09:34:09.465Z</time></trkpt><trkpt lat="43.3694657" lon="10.8233694"><ele>85.6</ele><time>2026-04-18T09:34:10.485Z</time></trkpt><trkpt lat="43.3694035" lon="10.8232486"><ele>85.4</ele><time>2026-04-18T09:34:11.463Z</time></trkpt><trkpt lat="43.3693433" lon="10.8231495"><ele>85.2</ele><time>2026-04-18T09:34:12.473Z</time></trkpt><trkpt lat="43.3692694" lon="10.8230575"><ele>85.0</ele><time>2026-04-18T09:34:13.467Z</time></trkpt><trkpt lat="43.3691995" lon="10.8229675"><ele>85.0</ele><time>2026-04-18T09:34:14.472Z</time></trkpt><trkpt lat="43.3691272" lon="10.8228849"><ele>85.0</ele><time>2026-04-18T09:34:15.478Z</time></trkpt><trkpt lat="43.3690554" lon="10.8228081"><ele>85.0</ele><time>2026-04-18T09:34:16.466Z</time></trkpt><trkpt lat="43.3689823" lon="10.8227356"><ele>85.0</ele><time>2026-04-18T09:34:17.474Z</time></trkpt><trkpt lat="43.3689094" lon="10.8226813"><ele>85.0</ele><time>2026-04-18T09:34:18.468Z</time></trkpt><trkpt lat="43.3688345" lon="10.8226166"><ele>85.0</ele><time>2026-04-18T09:34:19.473Z</time></trkpt><trkpt lat="43.3687613" lon="10.8225438"><ele>84.83333333333333</ele><time>2026-04-18T09:34:20.476Z</time></trkpt><trkpt lat="43.3686869" lon="10.822471"><ele>84.66666666666666</ele><time>2026-04-18T09:34:21.482Z</time></trkpt><trkpt lat="43.368613" lon="10.8224044"><ele>84.5</ele><time>2026-04-18T09:34:22.47Z</time></trkpt><trkpt lat="43.3685301" lon="10.8223503"><ele>84.33333333333333</ele><time>2026-04-18T09:34:23.477Z</time></trkpt><trkpt lat="43.3684539" lon="10.8222876"><ele>84.16666666666667</ele><time>2026-04-18T09:34:24.471Z</time></trkpt><trkpt lat="43.3683845" lon="10.8222163"><ele>84.0</ele><time>2026-04-18T09:34:25.474Z</time></trkpt><trkpt lat="43.3683174" lon="10.8221453"><ele>84.0</ele><time>2026-04-18T09:34:26.474Z</time></trkpt><trkpt lat="43.3682574" lon="10.8220903"><ele>84.0</ele><time>2026-04-18T09:34:27.473Z</time></trkpt><trkpt lat="43.3681894" lon="10.8220346"><ele>84.0</ele><time>2026-04-18T09:34:28.466Z</time></trkpt><trkpt lat="43.3681275" lon="10.8219824"><ele>84.0</ele><time>2026-04-18T09:34:29.463Z</time></trkpt><trkpt lat="43.3680702" lon="10.8219255"><ele>84.0</ele><time>2026-04-18T09:34:30.47Z</time></trkpt><trkpt lat="43.3680154" lon="10.8218776"><ele>84.0</ele><time>2026-04-18T09:34:31.467Z</time></trkpt><trkpt lat="43.3679581" lon="10.8218149"><ele>84.0</ele><time>2026-04-18T09:34:32.474Z</time></trkpt><trkpt lat="43.3678529" lon="10.8217321"><ele>84.16666666666667</ele><time>2026-04-18T09:34:34.469Z</time></trkpt><trkpt lat="43.3677996" lon="10.8216826"><ele>84.33333333333333</ele><time>2026-04-18T09:34:35.468Z</time></trkpt><trkpt lat="43.3676913" lon="10.8215954"><ele>84.5</ele><time>2026-04-18T09:34:37.465Z</time></trkpt><trkpt lat="43.3676364" lon="10.8215502"><ele>84.66666666666666</ele><time>2026-04-18T09:34:38.468Z</time></trkpt><trkpt lat="43.3675758" lon="10.8214894"><ele>84.83333333333333</ele><time>2026-04-18T09:34:39.472Z</time></trkpt><trkpt lat="43.3675154" lon="10.8214375"><ele>85.0</ele><time>2026-04-18T09:34:40.465Z</time></trkpt><trkpt lat="43.3674628" lon="10.8213871"><ele>85.0</ele><time>2026-04-18T09:34:41.47Z</time></trkpt><trkpt lat="43.3674107" lon="10.8213315"><ele>85.0</ele><time>2026-04-18T09:34:42.463Z</time></trkpt><trkpt lat="43.3673623" lon="10.8212751"><ele>85.0</ele><time>2026-04-18T09:34:43.466Z</time></trkpt><trkpt lat="43.3673039" lon="10.8212175"><ele>85.0</ele><time>2026-04-18T09:34:44.459Z</time></trkpt><trkpt lat="43.3672434" lon="10.8211814"><ele>85.0</ele><time>2026-04-18T09:34:45.471Z</time></trkpt><trkpt lat="43.3671819" lon="10.8211256"><ele>85.0</ele><time>2026-04-18T09:34:46.464Z</time></trkpt><trkpt lat="43.3671132" lon="10.821066"><ele>85.0</ele><time>2026-04-18T09:34:47.468Z</time></trkpt><trkpt lat="43.3670376" lon="10.821003"><ele>84.16666666666666</ele><time>2026-04-18T09:34:48.47Z</time></trkpt><trkpt lat="43.3669609" lon="10.8209418"><ele>83.33333333333333</ele><time>2026-04-18T09:34:49.469Z</time></trkpt><trkpt lat="43.3668886" lon="10.820879"><ele>82.5</ele><time>2026-04-18T09:34:50.48Z</time></trkpt><trkpt lat="43.3668241" lon="10.8208171"><ele>81.66666666666667</ele><time>2026-04-18T09:34:51.474Z</time></trkpt><trkpt lat="43.3667595" lon="10.8207482"><ele>80.83333333333334</ele><time>2026-04-18T09:34:52.469Z</time></trkpt><trkpt lat="43.3667003" lon="10.8206919"><ele>80.0</ele><time>2026-04-18T09:34:53.469Z</time></trkpt><trkpt lat="43.3666443" lon="10.8206307"><ele>80.0</ele><time>2026-04-18T09:34:54.466Z</time></trkpt><trkpt lat="43.3665901" lon="10.8205714"><ele>80.0</ele><time>2026-04-18T09:34:55.466Z</time></trkpt><trkpt lat="43.366536" lon="10.8205078"><ele>80.0</ele><time>2026-04-18T09:34:56.471Z</time></trkpt><trkpt lat="43.3664887" lon="10.8204478"><ele>80.0</ele><time>2026-04-18T09:34:57.468Z</time></trkpt><trkpt lat="43.3664371" lon="10.8203814"><ele>80.0</ele><time>2026-04-18T09:34:58.47Z</time></trkpt><trkpt lat="43.3663905" lon="10.8203208"><ele>80.0</ele><time>2026-04-18T09:34:59.455Z</time></trkpt><trkpt lat="43.3663134" lon="10.8202091"><ele>79.75</ele><time>2026-04-18T09:35:01.474Z</time></trkpt><trkpt lat="43.3662278" lon="10.8201112"><ele>79.5</ele><time>2026-04-18T09:35:03.471Z</time></trkpt><trkpt lat="43.3661482" lon="10.8199983"><ele>79.25</ele><time>2026-04-18T09:35:05.467Z</time></trkpt><trkpt lat="43.3660796" lon="10.8198855"><ele>79.0</ele><time>2026-04-18T09:35:07.472Z</time></trkpt><trkpt lat="43.3659964" lon="10.8197671"><ele>79.0</ele><time>2026-04-18T09:35:09.483Z</time></trkpt><trkpt lat="43.3659496" lon="10.819707"><ele>79.0</ele><time>2026-04-18T09:35:10.468Z</time></trkpt><trkpt lat="43.3659006" lon="10.8196504"><ele>79.0</ele><time>2026-04-18T09:35:11.481Z</time></trkpt><trkpt lat="43.3658163" lon="10.8195332"><ele>79.0</ele><time>2026-04-18T09:35:13.469Z</time></trkpt><trkpt lat="43.3657323" lon="10.8194293"><ele>79.0</ele><time>2026-04-18T09:35:15.479Z</time></trkpt><trkpt lat="43.3656883" lon="10.8193613"><ele>79.0</ele><time>2026-04-18T09:35:16.483Z</time></trkpt><trkpt lat="43.3656397" lon="10.8192895"><ele>79.00000000000001</ele><time>2026-04-18T09:35:17.479Z</time></trkpt><trkpt lat="43.3655987" lon="10.819219"><ele>79.0</ele><time>2026-04-18T09:35:18.466Z</time></trkpt><trkpt lat="43.3655562" lon="10.8191411"><ele>79.0</ele><time>2026-04-18T09:35:19.472Z</time></trkpt><trkpt lat="43.3655099" lon="10.8190638"><ele>79.0</ele><time>2026-04-18T09:35:20.471Z</time></trkpt><trkpt lat="43.365465" lon="10.8189849"><ele>79.0</ele><time>2026-04-18T09:35:21.468Z</time></trkpt><trkpt lat="43.3654165" lon="10.8189102"><ele>79.00000000000001</ele><time>2026-04-18T09:35:22.476Z</time></trkpt><trkpt lat="43.365368" lon="10.8188349"><ele>79.0</ele><time>2026-04-18T09:35:23.47Z</time></trkpt><trkpt lat="43.3652812" lon="10.8187051"><ele>79.0</ele><time>2026-04-18T09:35:25.475Z</time></trkpt><trkpt lat="43.3652332" lon="10.8186309"><ele>79.0</ele><time>2026-04-18T09:35:26.471Z</time></trkpt><trkpt lat="43.3651859" lon="10.818558"><ele>79.0</ele><time>2026-04-18T09:35:27.481Z</time></trkpt><trkpt lat="43.3651436" lon="10.8184932"><ele>79.0</ele><time>2026-04-18T09:35:28.463Z</time></trkpt><trkpt lat="43.3650667" lon="10.8183676"><ele>79.0</ele><time>2026-04-18T09:35:30.483Z</time></trkpt><trkpt lat="43.365024" lon="10.8183032"><ele>79.0</ele><time>2026-04-18T09:35:31.48Z</time></trkpt><trkpt lat="43.3649414" lon="10.8181907"><ele>78.8</ele><time>2026-04-18T09:35:33.469Z</time></trkpt><trkpt lat="43.3648661" lon="10.8180866"><ele>78.60000000000001</ele><time>2026-04-18T09:35:35.472Z</time></trkpt><trkpt lat="43.3647948" lon="10.8179803"><ele>78.4</ele><time>2026-04-18T09:35:37.471Z</time></trkpt><trkpt lat="43.3647271" lon="10.8178805"><ele>78.2</ele><time>2026-04-18T09:35:39.464Z</time></trkpt><trkpt lat="43.364665" lon="10.8177601"><ele>78.0</ele><time>2026-04-18T09:35:41.465Z</time></trkpt><trkpt lat="43.3645886" lon="10.8176591"><ele>77.66666666666667</ele><time>2026-04-18T09:35:43.469Z</time></trkpt><trkpt lat="43.3645076" lon="10.8175635"><ele>77.33333333333333</ele><time>2026-04-18T09:35:45.467Z</time></trkpt><trkpt lat="43.3644419" lon="10.8174759"><ele>77.0</ele><time>2026-04-18T09:35:47.468Z</time></trkpt><trkpt lat="43.3643941" lon="10.817416"><ele>76.66666666666666</ele><time>2026-04-18T09:35:50.479Z</time></trkpt><trkpt lat="43.3643499" lon="10.8173442"><ele>76.33333333333333</ele><time>2026-04-18T09:35:52.464Z</time></trkpt><trkpt lat="43.3643027" lon="10.8172657"><ele>76.0</ele><time>2026-04-18T09:35:54.468Z</time></trkpt><trkpt lat="43.3642361" lon="10.8171821"><ele>76.0</ele><time>2026-04-18T09:35:56.47Z</time></trkpt><trkpt lat="43.3641667" lon="10.8170908"><ele>76.0</ele><time>2026-04-18T09:35:58.459Z</time></trkpt><trkpt lat="43.3641144" lon="10.8169986"><ele>76.0</ele><time>2026-04-18T09:36:00.465Z</time></trkpt><trkpt lat="43.3640583" lon="10.8169071"><ele>76.0</ele><time>2026-04-18T09:36:02.469Z</time></trkpt><trkpt lat="43.3640167" lon="10.8168274"><ele>76.0</ele><time>2026-04-18T09:36:04.463Z</time></trkpt><trkpt lat="43.3639656" lon="10.8167722"><ele>76.0</ele><time>2026-04-18T09:36:17.466Z</time></trkpt><trkpt lat="43.3639773" lon="10.8166659"><ele>75.8</ele><time>2026-04-18T09:36:22.483Z</time></trkpt><trkpt lat="43.3640277" lon="10.8165721"><ele>75.6</ele><time>2026-04-18T09:36:24.467Z</time></trkpt><trkpt lat="43.3641019" lon="10.8164795"><ele>75.4</ele><time>2026-04-18T09:36:26.474Z</time></trkpt><trkpt lat="43.3641991" lon="10.8163599"><ele>75.2</ele><time>2026-04-18T09:36:28.469Z</time></trkpt><trkpt lat="43.3642457" lon="10.8162766"><ele>75.0</ele><time>2026-04-18T09:36:29.477Z</time></trkpt><trkpt lat="43.3643033" lon="10.8161923"><ele>74.99999999999999</ele><time>2026-04-18T09:36:30.47Z</time></trkpt><trkpt lat="43.3643615" lon="10.8161159"><ele>75.0</ele><time>2026-04-18T09:36:31.462Z</time></trkpt><trkpt lat="43.36442" lon="10.8160378"><ele>75.0</ele><time>2026-04-18T09:36:32.468Z</time></trkpt><trkpt lat="43.3644766" lon="10.8159658"><ele>75.0</ele><time>2026-04-18T09:36:33.471Z</time></trkpt><trkpt lat="43.364531" lon="10.8158986"><ele>75.0</ele><time>2026-04-18T09:36:34.469Z</time></trkpt><trkpt lat="43.364587" lon="10.8158413"><ele>74.99999999999999</ele><time>2026-04-18T09:36:35.478Z</time></trkpt><trkpt lat="43.3646391" lon="10.8157872"><ele>75.0</ele><time>2026-04-18T09:36:36.48Z</time></trkpt><trkpt lat="43.3646909" lon="10.8157302"><ele>75.33333333333333</ele><time>2026-04-18T09:36:37.468Z</time></trkpt><trkpt lat="43.3647519" lon="10.815666"><ele>75.66666666666667</ele><time>2026-04-18T09:36:38.471Z</time></trkpt><trkpt lat="43.364812" lon="10.8156135"><ele>76.0</ele><time>2026-04-18T09:36:39.472Z</time></trkpt><trkpt lat="43.3648689" lon="10.815558"><ele>76.33333333333334</ele><time>2026-04-18T09:36:40.467Z</time></trkpt><trkpt lat="43.3649772" lon="10.8154733"><ele>76.66666666666667</ele><time>2026-04-18T09:36:42.466Z</time></trkpt><trkpt lat="43.3650707" lon="10.8154123"><ele>77.0</ele><time>2026-04-18T09:36:44.463Z</time></trkpt><trkpt lat="43.3651156" lon="10.8153397"><ele>77.0</ele><time>2026-04-18T09:36:47.464Z</time></trkpt><trkpt lat="43.365223" lon="10.8153216"><ele>77.0</ele><time>2026-04-18T09:37:00.474Z</time></trkpt><trkpt lat="43.365328" lon="10.8152912"><ele>77.0</ele><time>2026-04-18T09:37:02.471Z</time></trkpt><trkpt lat="43.3654534" lon="10.8152641"><ele>77.0</ele><time>2026-04-18T09:37:04.471Z</time></trkpt><trkpt lat="43.3655381" lon="10.8152375"><ele>77.0</ele><time>2026-04-18T09:37:05.479Z</time></trkpt><trkpt lat="43.365633" lon="10.8152124"><ele>78.2</ele><time>2026-04-18T09:37:06.469Z</time></trkpt><trkpt lat="43.3657236" lon="10.8151947"><ele>79.4</ele><time>2026-04-18T09:37:07.475Z</time></trkpt><trkpt lat="43.3658172" lon="10.8151777"><ele>80.60000000000001</ele><time>2026-04-18T09:37:08.462Z</time></trkpt><trkpt lat="43.3659162" lon="10.8151656"><ele>81.80000000000001</ele><time>2026-04-18T09:37:09.461Z</time></trkpt><trkpt lat="43.3660127" lon="10.8151482"><ele>83.0</ele><time>2026-04-18T09:37:10.461Z</time></trkpt><trkpt lat="43.3661069" lon="10.8151411"><ele>83.0</ele><time>2026-04-18T09:37:11.471Z</time></trkpt><trkpt lat="43.3662061" lon="10.815132"><ele>83.0</ele><time>2026-04-18T09:37:12.474Z</time></trkpt><trkpt lat="43.3662867" lon="10.8151392"><ele>83.0</ele><time>2026-04-18T09:37:13.465Z</time></trkpt><trkpt lat="43.366373" lon="10.8151598"><ele>83.0</ele><time>2026-04-18T09:37:14.462Z</time></trkpt><trkpt lat="43.3664581" lon="10.8151652"><ele>83.0</ele><time>2026-04-18T09:37:15.479Z</time></trkpt><trkpt lat="43.3665327" lon="10.8151794"><ele>83.0</ele><time>2026-04-18T09:37:16.459Z</time></trkpt><trkpt lat="43.366643" lon="10.8151998"><ele>83.0</ele><time>2026-04-18T09:37:18.476Z</time></trkpt><trkpt lat="43.3666737" lon="10.815118"><ele>83.0</ele><time>2026-04-18T09:37:39.469Z</time></trkpt><trkpt lat="43.3666304" lon="10.8150347"><ele>83.0</ele><time>2026-04-18T09:37:41.471Z</time></trkpt><trkpt lat="43.3665369" lon="10.8149708"><ele>83.0</ele><time>2026-04-18T09:37:43.478Z</time></trkpt><trkpt lat="43.3664678" lon="10.8149365"><ele>83.0</ele><time>2026-04-18T09:37:44.469Z</time></trkpt><trkpt lat="43.3663846" lon="10.8148949"><ele>83.0</ele><time>2026-04-18T09:37:45.466Z</time></trkpt><trkpt lat="43.3662964" lon="10.8148511"><ele>83.0</ele><time>2026-04-18T09:37:46.459Z</time></trkpt><trkpt lat="43.3662032" lon="10.8148097"><ele>83.0</ele><time>2026-04-18T09:37:47.465Z</time></trkpt><trkpt lat="43.3661196" lon="10.8147662"><ele>83.0</ele><time>2026-04-18T09:37:48.47Z</time></trkpt><trkpt lat="43.3660321" lon="10.8147196"><ele>83.0</ele><time>2026-04-18T09:37:49.467Z</time></trkpt><trkpt lat="43.3659501" lon="10.8146741"><ele>83.0</ele><time>2026-04-18T09:37:50.472Z</time></trkpt><trkpt lat="43.3658698" lon="10.8146133"><ele>83.0</ele><time>2026-04-18T09:37:51.465Z</time></trkpt><trkpt lat="43.3657893" lon="10.8145486"><ele>83.0</ele><time>2026-04-18T09:37:52.467Z</time></trkpt><trkpt lat="43.3657162" lon="10.8144845"><ele>83.0</ele><time>2026-04-18T09:37:53.48Z</time></trkpt><trkpt lat="43.365646" lon="10.8144235"><ele>83.0</ele><time>2026-04-18T09:37:54.473Z</time></trkpt><trkpt lat="43.3655777" lon="10.8143588"><ele>83.0</ele><time>2026-04-18T09:37:55.469Z</time></trkpt><trkpt lat="43.3655072" lon="10.8142926"><ele>83.0</ele><time>2026-04-18T09:37:56.475Z</time></trkpt><trkpt lat="43.3654388" lon="10.8142295"><ele>82.33333333333334</ele><time>2026-04-18T09:37:57.474Z</time></trkpt><trkpt lat="43.3653738" lon="10.8141624"><ele>81.66666666666667</ele><time>2026-04-18T09:37:58.469Z</time></trkpt><trkpt lat="43.365304" lon="10.8140893"><ele>81.0</ele><time>2026-04-18T09:37:59.474Z</time></trkpt><trkpt lat="43.3652321" lon="10.8140285"><ele>80.33333333333333</ele><time>2026-04-18T09:38:00.467Z</time></trkpt><trkpt lat="43.3651565" lon="10.8139674"><ele>79.66666666666666</ele><time>2026-04-18T09:38:01.473Z</time></trkpt><trkpt lat="43.3650852" lon="10.8139012"><ele>79.0</ele><time>2026-04-18T09:38:02.474Z</time></trkpt><trkpt lat="43.3650141" lon="10.8138378"><ele>79.0</ele><time>2026-04-18T09:38:03.47Z</time></trkpt><trkpt lat="43.3649458" lon="10.813775"><ele>79.0</ele><time>2026-04-18T09:38:04.479Z</time></trkpt><trkpt lat="43.364887" lon="10.8137055"><ele>79.0</ele><time>2026-04-18T09:38:05.459Z</time></trkpt><trkpt lat="43.3648186" lon="10.8136354"><ele>79.0</ele><time>2026-04-18T09:38:06.469Z</time></trkpt><trkpt lat="43.364751" lon="10.8135715"><ele>79.0</ele><time>2026-04-18T09:38:07.465Z</time></trkpt><trkpt lat="43.3646742" lon="10.8134992"><ele>79.0</ele><time>2026-04-18T09:38:08.464Z</time></trkpt><trkpt lat="43.3646015" lon="10.813432"><ele>78.83333333333333</ele><time>2026-04-18T09:38:09.468Z</time></trkpt><trkpt lat="43.3645328" lon="10.8133662"><ele>78.66666666666666</ele><time>2026-04-18T09:38:10.466Z</time></trkpt><trkpt lat="43.3644684" lon="10.8133005"><ele>78.5</ele><time>2026-04-18T09:38:11.471Z</time></trkpt><trkpt lat="43.3643986" lon="10.8132348"><ele>78.33333333333333</ele><time>2026-04-18T09:38:12.457Z</time></trkpt><trkpt lat="43.3643327" lon="10.8131793"><ele>78.16666666666667</ele><time>2026-04-18T09:38:13.471Z</time></trkpt><trkpt lat="43.364269" lon="10.8131138"><ele>78.0</ele><time>2026-04-18T09:38:15.466Z</time></trkpt><trkpt lat="43.3642043" lon="10.8130656"><ele>78.0</ele><time>2026-04-18T09:38:22.465Z</time></trkpt><trkpt lat="43.364142" lon="10.8130077"><ele>78.0</ele><time>2026-04-18T09:38:24.481Z</time></trkpt><trkpt lat="43.3640782" lon="10.8129448"><ele>78.0</ele><time>2026-04-18T09:38:27.47Z</time></trkpt><trkpt lat="43.3640138" lon="10.8128927"><ele>78.0</ele><time>2026-04-18T09:38:31.481Z</time></trkpt><trkpt lat="43.3639659" lon="10.8128205"><ele>78.0</ele><time>2026-04-18T09:38:33.473Z</time></trkpt><trkpt lat="43.3638942" lon="10.8127439"><ele>78.0</ele><time>2026-04-18T09:38:42.475Z</time></trkpt><trkpt lat="43.3638394" lon="10.8126569"><ele>78.2</ele><time>2026-04-18T09:38:44.468Z</time></trkpt><trkpt lat="43.3637458" lon="10.8126358"><ele>78.4</ele><time>2026-04-18T09:38:46.472Z</time></trkpt><trkpt lat="43.3636375" lon="10.8126334"><ele>78.60000000000001</ele><time>2026-04-18T09:38:48.482Z</time></trkpt><trkpt lat="43.3634967" lon="10.8126531"><ele>78.8</ele><time>2026-04-18T09:38:50.508Z</time></trkpt><trkpt lat="43.3634076" lon="10.8126559"><ele>79.0</ele><time>2026-04-18T09:38:51.466Z</time></trkpt><trkpt lat="43.3633153" lon="10.8126478"><ele>79.0</ele><time>2026-04-18T09:38:52.473Z</time></trkpt><trkpt lat="43.3632275" lon="10.8126459"><ele>79.0</ele><time>2026-04-18T09:38:53.464Z</time></trkpt><trkpt lat="43.3631384" lon="10.8126381"><ele>79.0</ele><time>2026-04-18T09:38:54.47Z</time></trkpt><trkpt lat="43.3630546" lon="10.812632"><ele>79.0</ele><time>2026-04-18T09:38:55.468Z</time></trkpt><trkpt lat="43.362976" lon="10.8126206"><ele>79.0</ele><time>2026-04-18T09:38:56.468Z</time></trkpt><trkpt lat="43.3628946" lon="10.8126222"><ele>79.0</ele><time>2026-04-18T09:38:57.464Z</time></trkpt><trkpt lat="43.362826" lon="10.8126203"><ele>79.0</ele><time>2026-04-18T09:38:58.472Z</time></trkpt><trkpt lat="43.3627543" lon="10.8126245"><ele>79.0</ele><time>2026-04-18T09:38:59.465Z</time></trkpt><trkpt lat="43.3626852" lon="10.8126165"><ele>79.0</ele><time>2026-04-18T09:39:00.465Z</time></trkpt><trkpt lat="43.3625698" lon="10.8126022"><ele>79.0</ele><time>2026-04-18T09:39:02.473Z</time></trkpt><trkpt lat="43.3624584" lon="10.8126096"><ele>79.0</ele><time>2026-04-18T09:39:04.461Z</time></trkpt><trkpt lat="43.3623309" lon="10.8126077"><ele>79.0</ele><time>2026-04-18T09:39:06.464Z</time></trkpt><trkpt lat="43.36226" lon="10.8126013"><ele>79.0</ele><time>2026-04-18T09:39:07.474Z</time></trkpt><trkpt lat="43.3621718" lon="10.81259"><ele>79.0</ele><time>2026-04-18T09:39:08.469Z</time></trkpt><trkpt lat="43.3620773" lon="10.8125615"><ele>79.0</ele><time>2026-04-18T09:39:09.467Z</time></trkpt><trkpt lat="43.3619919" lon="10.8125371"><ele>79.0</ele><time>2026-04-18T09:39:10.473Z</time></trkpt><trkpt lat="43.3619023" lon="10.812514"><ele>79.0</ele><time>2026-04-18T09:39:11.468Z</time></trkpt><trkpt lat="43.3618153" lon="10.812483"><ele>78.4</ele><time>2026-04-18T09:39:12.466Z</time></trkpt><trkpt lat="43.3617297" lon="10.8124374"><ele>77.80000000000001</ele><time>2026-04-18T09:39:13.466Z</time></trkpt><trkpt lat="43.3616391" lon="10.8123854"><ele>77.19999999999999</ele><time>2026-04-18T09:39:14.47Z</time></trkpt><trkpt lat="43.3615549" lon="10.8123254"><ele>76.6</ele><time>2026-04-18T09:39:15.486Z</time></trkpt><trkpt lat="43.3614934" lon="10.8122679"><ele>76.0</ele><time>2026-04-18T09:39:16.474Z</time></trkpt><trkpt lat="43.3614119" lon="10.8121927"><ele>75.83333333333333</ele><time>2026-04-18T09:39:18.472Z</time></trkpt><trkpt lat="43.3613281" lon="10.8121123"><ele>75.66666666666666</ele><time>2026-04-18T09:39:25.469Z</time></trkpt><trkpt lat="43.3612736" lon="10.812053"><ele>75.5</ele><time>2026-04-18T09:39:26.48Z</time></trkpt><trkpt lat="43.3612174" lon="10.8119891"><ele>75.33333333333333</ele><time>2026-04-18T09:39:27.466Z</time></trkpt><trkpt lat="43.3611617" lon="10.8119073"><ele>75.16666666666667</ele><time>2026-04-18T09:39:28.477Z</time></trkpt><trkpt lat="43.3610951" lon="10.8118218"><ele>75.0</ele><time>2026-04-18T09:39:29.481Z</time></trkpt><trkpt lat="43.3610199" lon="10.8117014"><ele>75.0</ele><time>2026-04-18T09:39:30.472Z</time></trkpt><trkpt lat="43.3609366" lon="10.8115716"><ele>75.0</ele><time>2026-04-18T09:39:31.457Z</time></trkpt><trkpt lat="43.3608581" lon="10.811431"><ele>75.0</ele><time>2026-04-18T09:39:32.47Z</time></trkpt><trkpt lat="43.3607921" lon="10.8112914"><ele>75.0</ele><time>2026-04-18T09:39:33.466Z</time></trkpt><trkpt lat="43.3607228" lon="10.8111505"><ele>75.0</ele><time>2026-04-18T09:39:34.469Z</time></trkpt><trkpt lat="43.3606501" lon="10.8110115"><ele>75.0</ele><time>2026-04-18T09:39:35.462Z</time></trkpt><trkpt lat="43.36059" lon="10.8108605"><ele>75.0</ele><time>2026-04-18T09:39:36.465Z</time></trkpt><trkpt lat="43.3605354" lon="10.8107027"><ele>75.0</ele><time>2026-04-18T09:39:37.479Z</time></trkpt><trkpt lat="43.3604888" lon="10.8105302"><ele>74.25</ele><time>2026-04-18T09:39:38.465Z</time></trkpt><trkpt lat="43.360436" lon="10.8103545"><ele>73.5</ele><time>2026-04-18T09:39:39.467Z</time></trkpt><trkpt lat="43.3603932" lon="10.8101612"><ele>72.75</ele><time>2026-04-18T09:39:40.471Z</time></trkpt><trkpt lat="43.3603399" lon="10.809967"><ele>72.0</ele><time>2026-04-18T09:39:41.466Z</time></trkpt><trkpt lat="43.3602786" lon="10.8097751"><ele>72.0</ele><time>2026-04-18T09:39:42.465Z</time></trkpt><trkpt lat="43.360214" lon="10.8095702"><ele>72.0</ele><time>2026-04-18T09:39:43.472Z</time></trkpt><trkpt lat="43.3601521" lon="10.809373"><ele>72.0</ele><time>2026-04-18T09:39:44.465Z</time></trkpt><trkpt lat="43.3600844" lon="10.8091738"><ele>72.66666666666667</ele><time>2026-04-18T09:39:45.465Z</time></trkpt><trkpt lat="43.3600219" lon="10.8089795"><ele>73.33333333333334</ele><time>2026-04-18T09:39:46.457Z</time></trkpt><trkpt lat="43.3599558" lon="10.8087791"><ele>74.0</ele><time>2026-04-18T09:39:47.47Z</time></trkpt><trkpt lat="43.3598872" lon="10.808576"><ele>75.33333333333334</ele><time>2026-04-18T09:39:48.471Z</time></trkpt><trkpt lat="43.3598158" lon="10.8083685"><ele>76.66666666666667</ele><time>2026-04-18T09:39:49.463Z</time></trkpt><trkpt lat="43.3597506" lon="10.8081644"><ele>78.0</ele><time>2026-04-18T09:39:50.473Z</time></trkpt><trkpt lat="43.359686" lon="10.8079672"><ele>75.33333333333333</ele><time>2026-04-18T09:39:51.46Z</time></trkpt><trkpt lat="43.3596155" lon="10.8077623"><ele>72.66666666666666</ele><time>2026-04-18T09:39:52.466Z</time></trkpt><trkpt lat="43.3595509" lon="10.8075607"><ele>70.0</ele><time>2026-04-18T09:39:53.472Z</time></trkpt><trkpt lat="43.3594899" lon="10.8073644"><ele>70.0</ele><time>2026-04-18T09:39:54.466Z</time></trkpt><trkpt lat="43.3594282" lon="10.8071654"><ele>70.0</ele><time>2026-04-18T09:39:55.481Z</time></trkpt><trkpt lat="43.3593762" lon="10.8069849"><ele>70.0</ele><time>2026-04-18T09:39:56.482Z</time></trkpt><trkpt lat="43.3593204" lon="10.8068133"><ele>70.0</ele><time>2026-04-18T09:39:57.506Z</time></trkpt><trkpt lat="43.3592778" lon="10.8066573"><ele>69.75</ele><time>2026-04-18T09:39:58.484Z</time></trkpt><trkpt lat="43.3592508" lon="10.8065134"><ele>69.5</ele><time>2026-04-18T09:39:59.483Z</time></trkpt><trkpt lat="43.3592348" lon="10.8063625"><ele>69.25</ele><time>2026-04-18T09:40:00.492Z</time></trkpt><trkpt lat="43.3592295" lon="10.8062131"><ele>69.0</ele><time>2026-04-18T09:40:01.508Z</time></trkpt><trkpt lat="43.359245" lon="10.8060438"><ele>69.0</ele><time>2026-04-18T09:40:02.466Z</time></trkpt><trkpt lat="43.3592676" lon="10.8058823"><ele>69.0</ele><time>2026-04-18T09:40:03.494Z</time></trkpt><trkpt lat="43.3592885" lon="10.8056984"><ele>69.0</ele><time>2026-04-18T09:40:04.489Z</time></trkpt><trkpt lat="43.3592975" lon="10.8054956"><ele>69.0</ele><time>2026-04-18T09:40:05.489Z</time></trkpt><trkpt lat="43.3593233" lon="10.8052942"><ele>68.33333333333333</ele><time>2026-04-18T09:40:06.485Z</time></trkpt><trkpt lat="43.359352" lon="10.8050932"><ele>67.66666666666666</ele><time>2026-04-18T09:40:07.475Z</time></trkpt><trkpt lat="43.3593717" lon="10.8048815"><ele>67.0</ele><time>2026-04-18T09:40:08.479Z</time></trkpt><trkpt lat="43.3593984" lon="10.8046508"><ele>67.0</ele><time>2026-04-18T09:40:09.474Z</time></trkpt><trkpt lat="43.3594195" lon="10.8044262"><ele>67.0</ele><time>2026-04-18T09:40:10.487Z</time></trkpt><trkpt lat="43.3594457" lon="10.8041977"><ele>67.0</ele><time>2026-04-18T09:40:11.483Z</time></trkpt><trkpt lat="43.3594608" lon="10.8039827"><ele>66.66666666666666</ele><time>2026-04-18T09:40:12.473Z</time></trkpt><trkpt lat="43.3594586" lon="10.8037623"><ele>66.33333333333333</ele><time>2026-04-18T09:40:13.457Z</time></trkpt><trkpt lat="43.3594404" lon="10.8035339"><ele>66.0</ele><time>2026-04-18T09:40:14.473Z</time></trkpt><trkpt lat="43.359407" lon="10.8033047"><ele>66.0</ele><time>2026-04-18T09:40:15.47Z</time></trkpt><trkpt lat="43.3593548" lon="10.8030807"><ele>66.0</ele><time>2026-04-18T09:40:16.52Z</time></trkpt><trkpt lat="43.3592861" lon="10.8028589"><ele>66.0</ele><time>2026-04-18T09:40:17.467Z</time></trkpt><trkpt lat="43.3592065" lon="10.802647"><ele>67.0</ele><time>2026-04-18T09:40:18.49Z</time></trkpt><trkpt lat="43.3591084" lon="10.8024688"><ele>68.0</ele><time>2026-04-18T09:40:19.484Z</time></trkpt><trkpt lat="43.3589954" lon="10.8022936"><ele>69.0</ele><time>2026-04-18T09:40:20.476Z</time></trkpt><trkpt lat="43.358883" lon="10.8021219"><ele>68.33333333333333</ele><time>2026-04-18T09:40:21.488Z</time></trkpt><trkpt lat="43.3587681" lon="10.8019386"><ele>67.66666666666666</ele><time>2026-04-18T09:40:22.468Z</time></trkpt><trkpt lat="43.3586486" lon="10.8017531"><ele>67.0</ele><time>2026-04-18T09:40:23.49Z</time></trkpt><trkpt lat="43.3585292" lon="10.8015709"><ele>67.0</ele><time>2026-04-18T09:40:24.481Z</time></trkpt><trkpt lat="43.3584153" lon="10.8013819"><ele>67.0</ele><time>2026-04-18T09:40:25.477Z</time></trkpt><trkpt lat="43.3583113" lon="10.8011961"><ele>67.0</ele><time>2026-04-18T09:40:26.483Z</time></trkpt><trkpt lat="43.3582251" lon="10.8009861"><ele>66.0</ele><time>2026-04-18T09:40:27.481Z</time></trkpt><trkpt lat="43.3581489" lon="10.8007689"><ele>65.0</ele><time>2026-04-18T09:40:28.482Z</time></trkpt><trkpt lat="43.3580857" lon="10.8005282"><ele>64.0</ele><time>2026-04-18T09:40:29.495Z</time></trkpt><trkpt lat="43.3580081" lon="10.8002919"><ele>64.33333333333333</ele><time>2026-04-18T09:40:30.479Z</time></trkpt><trkpt lat="43.3579314" lon="10.8000446"><ele>64.66666666666667</ele><time>2026-04-18T09:40:31.474Z</time></trkpt><trkpt lat="43.3578528" lon="10.7997949"><ele>65.0</ele><time>2026-04-18T09:40:32.468Z</time></trkpt><trkpt lat="43.3577772" lon="10.7995538"><ele>65.66666666666667</ele><time>2026-04-18T09:40:33.471Z</time></trkpt><trkpt lat="43.3576838" lon="10.7993265"><ele>66.33333333333333</ele><time>2026-04-18T09:40:34.478Z</time></trkpt><trkpt lat="43.3575699" lon="10.7990964"><ele>67.0</ele><time>2026-04-18T09:40:35.487Z</time></trkpt><trkpt lat="43.3574339" lon="10.7988936"><ele>67.0</ele><time>2026-04-18T09:40:36.481Z</time></trkpt><trkpt lat="43.357292" lon="10.7986912"><ele>67.0</ele><time>2026-04-18T09:40:37.498Z</time></trkpt><trkpt lat="43.3571547" lon="10.7984836"><ele>67.0</ele><time>2026-04-18T09:40:38.513Z</time></trkpt><trkpt lat="43.3570161" lon="10.7982633"><ele>66.0</ele><time>2026-04-18T09:40:39.469Z</time></trkpt><trkpt lat="43.3567923" lon="10.7978082"><ele>65.0</ele><time>2026-04-18T09:40:41.462Z</time></trkpt><trkpt lat="43.3566957" lon="10.7975578"><ele>66.66666666666667</ele><time>2026-04-18T09:40:42.466Z</time></trkpt><trkpt lat="43.3566101" lon="10.7973087"><ele>68.33333333333333</ele><time>2026-04-18T09:40:43.46Z</time></trkpt><trkpt lat="43.3565335" lon="10.7970573"><ele>70.0</ele><time>2026-04-18T09:40:44.47Z</time></trkpt><trkpt lat="43.3564658" lon="10.796805"><ele>71.33333333333333</ele><time>2026-04-18T09:40:45.465Z</time></trkpt><trkpt lat="43.3564127" lon="10.7965413"><ele>72.66666666666667</ele><time>2026-04-18T09:40:46.464Z</time></trkpt><trkpt lat="43.3563727" lon="10.7962655"><ele>74.0</ele><time>2026-04-18T09:40:47.469Z</time></trkpt><trkpt lat="43.3563548" lon="10.7959708"><ele>70.33333333333334</ele><time>2026-04-18T09:40:48.504Z</time></trkpt><trkpt lat="43.3563426" lon="10.795671"><ele>66.66666666666667</ele><time>2026-04-18T09:40:49.484Z</time></trkpt><trkpt lat="43.3563424" lon="10.7953543"><ele>63.0</ele><time>2026-04-18T09:40:50.47Z</time></trkpt><trkpt lat="43.3563794" lon="10.7950098"><ele>63.0</ele><time>2026-04-18T09:40:51.478Z</time></trkpt><trkpt lat="43.3564154" lon="10.7946763"><ele>63.0</ele><time>2026-04-18T09:40:52.471Z</time></trkpt><trkpt lat="43.3564669" lon="10.7943542"><ele>62.0</ele><time>2026-04-18T09:40:53.474Z</time></trkpt><trkpt lat="43.3565395" lon="10.7940287"><ele>61.0</ele><time>2026-04-18T09:40:54.476Z</time></trkpt><trkpt lat="43.3566098" lon="10.793706"><ele>60.5</ele><time>2026-04-18T09:40:55.469Z</time></trkpt><trkpt lat="43.3566842" lon="10.7933751"><ele>60.0</ele><time>2026-04-18T09:40:56.467Z</time></trkpt><trkpt lat="43.3567602" lon="10.7930327"><ele>60.0</ele><time>2026-04-18T09:40:57.472Z</time></trkpt><trkpt lat="43.3568374" lon="10.792685"><ele>60.0</ele><time>2026-04-18T09:40:58.462Z</time></trkpt><trkpt lat="43.3569114" lon="10.7923334"><ele>60.0</ele><time>2026-04-18T09:40:59.469Z</time></trkpt><trkpt lat="43.3569876" lon="10.791983"><ele>60.0</ele><time>2026-04-18T09:41:00.504Z</time></trkpt><trkpt lat="43.3570611" lon="10.7916239"><ele>60.0</ele><time>2026-04-18T09:41:01.473Z</time></trkpt><trkpt lat="43.3571277" lon="10.7912596"><ele>60.0</ele><time>2026-04-18T09:41:02.48Z</time></trkpt><trkpt lat="43.3571886" lon="10.7908783"><ele>60.5</ele><time>2026-04-18T09:41:03.47Z</time></trkpt><trkpt lat="43.3572308" lon="10.7904982"><ele>61.0</ele><time>2026-04-18T09:41:04.475Z</time></trkpt><trkpt lat="43.3572727" lon="10.7901189"><ele>62.0</ele><time>2026-04-18T09:41:05.477Z</time></trkpt><trkpt lat="43.3573022" lon="10.7897303"><ele>63.0</ele><time>2026-04-18T09:41:06.472Z</time></trkpt><trkpt lat="43.3573078" lon="10.7893428"><ele>66.0</ele><time>2026-04-18T09:41:07.477Z</time></trkpt><trkpt lat="43.3573106" lon="10.788956"><ele>69.0</ele><time>2026-04-18T09:41:08.469Z</time></trkpt><trkpt lat="43.3573117" lon="10.7885771"><ele>67.5</ele><time>2026-04-18T09:41:09.492Z</time></trkpt><trkpt lat="43.3573012" lon="10.7881948"><ele>66.0</ele><time>2026-04-18T09:41:10.472Z</time></trkpt><trkpt lat="43.3572803" lon="10.7878142"><ele>64.5</ele><time>2026-04-18T09:41:11.49Z</time></trkpt><trkpt lat="43.357245" lon="10.7874383"><ele>63.0</ele><time>2026-04-18T09:41:12.47Z</time></trkpt><trkpt lat="43.3572005" lon="10.7870615"><ele>61.5</ele><time>2026-04-18T09:41:13.462Z</time></trkpt><trkpt lat="43.3571518" lon="10.7867036"><ele>60.0</ele><time>2026-04-18T09:41:14.461Z</time></trkpt><trkpt lat="43.3571008" lon="10.7863439"><ele>60.5</ele><time>2026-04-18T09:41:15.465Z</time></trkpt><trkpt lat="43.3570518" lon="10.7860052"><ele>61.0</ele><time>2026-04-18T09:41:16.469Z</time></trkpt><trkpt lat="43.3570034" lon="10.7856651"><ele>61.0</ele><time>2026-04-18T09:41:17.477Z</time></trkpt><trkpt lat="43.3569505" lon="10.7853376"><ele>61.0</ele><time>2026-04-18T09:41:18.493Z</time></trkpt><trkpt lat="43.3569065" lon="10.7850186"><ele>60.5</ele><time>2026-04-18T09:41:19.476Z</time></trkpt><trkpt lat="43.3568593" lon="10.7847"><ele>60.0</ele><time>2026-04-18T09:41:20.462Z</time></trkpt><trkpt lat="43.356803" lon="10.7843948"><ele>60.0</ele><time>2026-04-18T09:41:21.468Z</time></trkpt><trkpt lat="43.3567565" lon="10.7840999"><ele>60.0</ele><time>2026-04-18T09:41:22.474Z</time></trkpt><trkpt lat="43.3567128" lon="10.7838158"><ele>60.0</ele><time>2026-04-18T09:41:23.477Z</time></trkpt><trkpt lat="43.3566686" lon="10.7835305"><ele>59.66666666666667</ele><time>2026-04-18T09:41:24.471Z</time></trkpt><trkpt lat="43.356627" lon="10.7832432"><ele>59.333333333333336</ele><time>2026-04-18T09:41:25.477Z</time></trkpt><trkpt lat="43.3565912" lon="10.782967"><ele>59.0</ele><time>2026-04-18T09:41:26.474Z</time></trkpt><trkpt lat="43.3565553" lon="10.7826868"><ele>58.66666666666667</ele><time>2026-04-18T09:41:27.473Z</time></trkpt><trkpt lat="43.3565294" lon="10.7824186"><ele>58.33333333333333</ele><time>2026-04-18T09:41:28.488Z</time></trkpt><trkpt lat="43.356516" lon="10.78216"><ele>58.0</ele><time>2026-04-18T09:41:29.464Z</time></trkpt><trkpt lat="43.3565056" lon="10.7818967"><ele>58.33333333333333</ele><time>2026-04-18T09:41:30.472Z</time></trkpt><trkpt lat="43.3564955" lon="10.7816387"><ele>58.66666666666667</ele><time>2026-04-18T09:41:31.484Z</time></trkpt><trkpt lat="43.3564878" lon="10.7813811"><ele>59.0</ele><time>2026-04-18T09:41:32.47Z</time></trkpt><trkpt lat="43.3564828" lon="10.7811301"><ele>59.333333333333336</ele><time>2026-04-18T09:41:33.474Z</time></trkpt><trkpt lat="43.3564752" lon="10.7808825"><ele>59.66666666666667</ele><time>2026-04-18T09:41:34.476Z</time></trkpt><trkpt lat="43.3564655" lon="10.7806327"><ele>60.0</ele><time>2026-04-18T09:41:35.481Z</time></trkpt><trkpt lat="43.3564654" lon="10.7803737"><ele>60.0</ele><time>2026-04-18T09:41:36.477Z</time></trkpt><trkpt lat="43.3564659" lon="10.780118"><ele>60.0</ele><time>2026-04-18T09:41:37.498Z</time></trkpt><trkpt lat="43.3564679" lon="10.7798694"><ele>60.0</ele><time>2026-04-18T09:41:38.497Z</time></trkpt><trkpt lat="43.3564489" lon="10.7796206"><ele>60.0</ele><time>2026-04-18T09:41:39.472Z</time></trkpt><trkpt lat="43.3564269" lon="10.7793734"><ele>60.0</ele><time>2026-04-18T09:41:40.469Z</time></trkpt><trkpt lat="43.3564052" lon="10.7791154"><ele>60.0</ele><time>2026-04-18T09:41:41.475Z</time></trkpt><trkpt lat="43.3563919" lon="10.7788867"><ele>59.33333333333333</ele><time>2026-04-18T09:41:42.463Z</time></trkpt><trkpt lat="43.3563617" lon="10.7786658"><ele>58.666666666666664</ele><time>2026-04-18T09:41:43.475Z</time></trkpt><trkpt lat="43.3563133" lon="10.7784285"><ele>58.0</ele><time>2026-04-18T09:41:44.475Z</time></trkpt><trkpt lat="43.3562688" lon="10.7782132"><ele>58.0</ele><time>2026-04-18T09:41:45.477Z</time></trkpt><trkpt lat="43.3562181" lon="10.778006"><ele>58.0</ele><time>2026-04-18T09:41:46.484Z</time></trkpt><trkpt lat="43.3561433" lon="10.7778127"><ele>58.0</ele><time>2026-04-18T09:41:47.48Z</time></trkpt><trkpt lat="43.3560615" lon="10.7776218"><ele>59.33333333333333</ele><time>2026-04-18T09:41:48.479Z</time></trkpt><trkpt lat="43.3559744" lon="10.7774415"><ele>60.66666666666667</ele><time>2026-04-18T09:41:49.475Z</time></trkpt><trkpt lat="43.3558715" lon="10.7772742"><ele>62.0</ele><time>2026-04-18T09:41:50.481Z</time></trkpt><trkpt lat="43.355762" lon="10.7771062"><ele>62.0</ele><time>2026-04-18T09:41:51.491Z</time></trkpt><trkpt lat="43.3556441" lon="10.7769592"><ele>62.0</ele><time>2026-04-18T09:41:52.467Z</time></trkpt><trkpt lat="43.3555147" lon="10.7768183"><ele>62.0</ele><time>2026-04-18T09:41:53.497Z</time></trkpt><trkpt lat="43.3553691" lon="10.7767075"><ele>61.25</ele><time>2026-04-18T09:41:54.465Z</time></trkpt><trkpt lat="43.3552124" lon="10.776608"><ele>60.5</ele><time>2026-04-18T09:41:55.489Z</time></trkpt><trkpt lat="43.3550833" lon="10.776536"><ele>59.75</ele><time>2026-04-18T09:41:56.459Z</time></trkpt><trkpt lat="43.3549583" lon="10.7764635"><ele>59.0</ele><time>2026-04-18T09:41:57.481Z</time></trkpt><trkpt lat="43.3547487" lon="10.776327"><ele>58.6</ele><time>2026-04-18T09:41:59.477Z</time></trkpt><trkpt lat="43.3546482" lon="10.7762661"><ele>58.2</ele><time>2026-04-18T09:42:00.479Z</time></trkpt><trkpt lat="43.3545617" lon="10.7762169"><ele>57.800000000000004</ele><time>2026-04-18T09:42:01.475Z</time></trkpt><trkpt lat="43.3544669" lon="10.7761558"><ele>57.400000000000006</ele><time>2026-04-18T09:42:02.479Z</time></trkpt><trkpt lat="43.3543655" lon="10.7760903"><ele>57.0</ele><time>2026-04-18T09:42:03.468Z</time></trkpt><trkpt lat="43.3542577" lon="10.7760276"><ele>56.75</ele><time>2026-04-18T09:42:04.478Z</time></trkpt><trkpt lat="43.3541541" lon="10.7759657"><ele>56.5</ele><time>2026-04-18T09:42:05.465Z</time></trkpt><trkpt lat="43.3540383" lon="10.7758789"><ele>56.25</ele><time>2026-04-18T09:42:06.473Z</time></trkpt><trkpt lat="43.3539229" lon="10.7757857"><ele>56.0</ele><time>2026-04-18T09:42:07.468Z</time></trkpt><trkpt lat="43.3538101" lon="10.7756911"><ele>56.0</ele><time>2026-04-18T09:42:08.476Z</time></trkpt><trkpt lat="43.3537011" lon="10.7755673"><ele>56.0</ele><time>2026-04-18T09:42:09.47Z</time></trkpt><trkpt lat="43.3535981" lon="10.7754195"><ele>56.0</ele><time>2026-04-18T09:42:10.46Z</time></trkpt><trkpt lat="43.3535007" lon="10.775271"><ele>56.0</ele><time>2026-04-18T09:42:11.471Z</time></trkpt><trkpt lat="43.3534112" lon="10.7751234"><ele>56.25</ele><time>2026-04-18T09:42:12.464Z</time></trkpt><trkpt lat="43.3533227" lon="10.77497"><ele>56.5</ele><time>2026-04-18T09:42:13.473Z</time></trkpt><trkpt lat="43.3532237" lon="10.7748054"><ele>56.75</ele><time>2026-04-18T09:42:14.477Z</time></trkpt><trkpt lat="43.3531283" lon="10.7746441"><ele>57.0</ele><time>2026-04-18T09:42:15.473Z</time></trkpt><trkpt lat="43.3530255" lon="10.7744743"><ele>56.66666666666667</ele><time>2026-04-18T09:42:16.469Z</time></trkpt><trkpt lat="43.352921" lon="10.7742951"><ele>56.333333333333336</ele><time>2026-04-18T09:42:17.468Z</time></trkpt><trkpt lat="43.3528126" lon="10.7741031"><ele>56.0</ele><time>2026-04-18T09:42:18.466Z</time></trkpt><trkpt lat="43.3526985" lon="10.7739137"><ele>56.0</ele><time>2026-04-18T09:42:19.474Z</time></trkpt><trkpt lat="43.352591" lon="10.773727"><ele>56.0</ele><time>2026-04-18T09:42:20.477Z</time></trkpt><trkpt lat="43.3524857" lon="10.773537"><ele>56.0</ele><time>2026-04-18T09:42:21.469Z</time></trkpt><trkpt lat="43.3523834" lon="10.7733431"><ele>56.333333333333336</ele><time>2026-04-18T09:42:22.474Z</time></trkpt><trkpt lat="43.3522695" lon="10.7731493"><ele>56.66666666666667</ele><time>2026-04-18T09:42:23.468Z</time></trkpt><trkpt lat="43.3521626" lon="10.772967"><ele>57.0</ele><time>2026-04-18T09:42:24.467Z</time></trkpt><trkpt lat="43.3520564" lon="10.7727841"><ele>56.33333333333333</ele><time>2026-04-18T09:42:25.47Z</time></trkpt><trkpt lat="43.3519473" lon="10.7725988"><ele>55.666666666666664</ele><time>2026-04-18T09:42:26.473Z</time></trkpt><trkpt lat="43.3518422" lon="10.7724199"><ele>55.0</ele><time>2026-04-18T09:42:27.473Z</time></trkpt><trkpt lat="43.3517381" lon="10.7722427"><ele>55.0</ele><time>2026-04-18T09:42:28.472Z</time></trkpt><trkpt lat="43.3516327" lon="10.7720636"><ele>55.0</ele><time>2026-04-18T09:42:29.47Z</time></trkpt><trkpt lat="43.3515384" lon="10.7718932"><ele>55.0</ele><time>2026-04-18T09:42:30.461Z</time></trkpt><trkpt lat="43.3514426" lon="10.771737"><ele>54.75</ele><time>2026-04-18T09:42:31.475Z</time></trkpt><trkpt lat="43.3513508" lon="10.7715804"><ele>54.5</ele><time>2026-04-18T09:42:32.467Z</time></trkpt><trkpt lat="43.3512614" lon="10.7714304"><ele>54.25</ele><time>2026-04-18T09:42:33.465Z</time></trkpt><trkpt lat="43.351174" lon="10.7712849"><ele>54.0</ele><time>2026-04-18T09:42:34.468Z</time></trkpt><trkpt lat="43.3510904" lon="10.7711334"><ele>54.75</ele><time>2026-04-18T09:42:35.461Z</time></trkpt><trkpt lat="43.3510146" lon="10.7709975"><ele>55.5</ele><time>2026-04-18T09:42:36.465Z</time></trkpt><trkpt lat="43.3509409" lon="10.77087"><ele>56.25</ele><time>2026-04-18T09:42:37.472Z</time></trkpt><trkpt lat="43.3508713" lon="10.7707491"><ele>57.0</ele><time>2026-04-18T09:42:38.468Z</time></trkpt><trkpt lat="43.3508038" lon="10.7706198"><ele>57.0</ele><time>2026-04-18T09:42:39.47Z</time></trkpt><trkpt lat="43.3507432" lon="10.7704913"><ele>57.0</ele><time>2026-04-18T09:42:40.473Z</time></trkpt><trkpt lat="43.3506817" lon="10.7703684"><ele>57.0</ele><time>2026-04-18T09:42:41.47Z</time></trkpt><trkpt lat="43.3506359" lon="10.7702702"><ele>57.0</ele><time>2026-04-18T09:42:42.465Z</time></trkpt><trkpt lat="43.3505896" lon="10.7701793"><ele>57.0</ele><time>2026-04-18T09:42:43.47Z</time></trkpt><trkpt lat="43.3505304" lon="10.7700764"><ele>56.8</ele><time>2026-04-18T09:42:44.468Z</time></trkpt><trkpt lat="43.3504697" lon="10.7699684"><ele>56.6</ele><time>2026-04-18T09:42:45.473Z</time></trkpt><trkpt lat="43.3504092" lon="10.7698479"><ele>56.39999999999999</ele><time>2026-04-18T09:42:46.46Z</time></trkpt><trkpt lat="43.3503471" lon="10.7697146"><ele>56.199999999999996</ele><time>2026-04-18T09:42:47.466Z</time></trkpt><trkpt lat="43.350276" lon="10.7695773"><ele>56.0</ele><time>2026-04-18T09:42:48.465Z</time></trkpt><trkpt lat="43.3501997" lon="10.7694286"><ele>56.0</ele><time>2026-04-18T09:42:49.474Z</time></trkpt><trkpt lat="43.3501162" lon="10.7692757"><ele>56.0</ele><time>2026-04-18T09:42:50.48Z</time></trkpt><trkpt lat="43.3500285" lon="10.7691106"><ele>56.0</ele><time>2026-04-18T09:42:51.469Z</time></trkpt><trkpt lat="43.3499496" lon="10.7689501"><ele>56.0</ele><time>2026-04-18T09:42:52.466Z</time></trkpt><trkpt lat="43.3498802" lon="10.7687947"><ele>56.0</ele><time>2026-04-18T09:42:53.479Z</time></trkpt><trkpt lat="43.349808" lon="10.7686469"><ele>56.0</ele><time>2026-04-18T09:42:54.476Z</time></trkpt><trkpt lat="43.3497431" lon="10.7684869"><ele>56.0</ele><time>2026-04-18T09:42:55.472Z</time></trkpt><trkpt lat="43.3496859" lon="10.768313"><ele>56.0</ele><time>2026-04-18T09:42:56.465Z</time></trkpt><trkpt lat="43.3496354" lon="10.7681308"><ele>55.75</ele><time>2026-04-18T09:42:57.465Z</time></trkpt><trkpt lat="43.3495995" lon="10.7679538"><ele>55.5</ele><time>2026-04-18T09:42:58.471Z</time></trkpt><trkpt lat="43.3495612" lon="10.7677823"><ele>55.25</ele><time>2026-04-18T09:42:59.464Z</time></trkpt><trkpt lat="43.3495335" lon="10.7676217"><ele>55.0</ele><time>2026-04-18T09:43:00.461Z</time></trkpt><trkpt lat="43.3495163" lon="10.7674593"><ele>55.0</ele><time>2026-04-18T09:43:01.499Z</time></trkpt><trkpt lat="43.3495049" lon="10.7672978"><ele>55.0</ele><time>2026-04-18T09:43:02.469Z</time></trkpt><trkpt lat="43.3495029" lon="10.7671393"><ele>55.0</ele><time>2026-04-18T09:43:03.473Z</time></trkpt><trkpt lat="43.3495153" lon="10.7669807"><ele>55.0</ele><time>2026-04-18T09:43:04.488Z</time></trkpt><trkpt lat="43.3495264" lon="10.7668287"><ele>55.25</ele><time>2026-04-18T09:43:05.476Z</time></trkpt><trkpt lat="43.3495328" lon="10.76668"><ele>55.5</ele><time>2026-04-18T09:43:06.495Z</time></trkpt><trkpt lat="43.3495255" lon="10.7665304"><ele>55.75</ele><time>2026-04-18T09:43:07.469Z</time></trkpt><trkpt lat="43.3494746" lon="10.7663819"><ele>56.0</ele><time>2026-04-18T09:43:08.478Z</time></trkpt><trkpt lat="43.3493992" lon="10.7662494"><ele>56.0</ele><time>2026-04-18T09:43:09.475Z</time></trkpt><trkpt lat="43.3493201" lon="10.766123"><ele>56.0</ele><time>2026-04-18T09:43:10.48Z</time></trkpt><trkpt lat="43.3492284" lon="10.7659905"><ele>56.0</ele><time>2026-04-18T09:43:11.48Z</time></trkpt><trkpt lat="43.3491369" lon="10.7658572"><ele>56.0</ele><time>2026-04-18T09:43:12.474Z</time></trkpt><trkpt lat="43.3490446" lon="10.7657189"><ele>56.0</ele><time>2026-04-18T09:43:13.485Z</time></trkpt><trkpt lat="43.3489486" lon="10.7655712"><ele>56.0</ele><time>2026-04-18T09:43:14.472Z</time></trkpt><trkpt lat="43.3488623" lon="10.7654124"><ele>56.0</ele><time>2026-04-18T09:43:15.471Z</time></trkpt><trkpt lat="43.3487741" lon="10.7652529"><ele>56.0</ele><time>2026-04-18T09:43:16.464Z</time></trkpt><trkpt lat="43.3486849" lon="10.7650797"><ele>57.333333333333336</ele><time>2026-04-18T09:43:17.47Z</time></trkpt><trkpt lat="43.3486085" lon="10.7649037"><ele>58.66666666666667</ele><time>2026-04-18T09:43:18.486Z</time></trkpt><trkpt lat="43.3485344" lon="10.7647118"><ele>60.0</ele><time>2026-04-18T09:43:19.47Z</time></trkpt><trkpt lat="43.3484653" lon="10.7645117"><ele>61.66666666666667</ele><time>2026-04-18T09:43:20.485Z</time></trkpt><trkpt lat="43.348403" lon="10.7643209"><ele>63.333333333333336</ele><time>2026-04-18T09:43:21.467Z</time></trkpt><trkpt lat="43.3483404" lon="10.7641327"><ele>65.0</ele><time>2026-04-18T09:43:22.471Z</time></trkpt><trkpt lat="43.3482816" lon="10.7639453"><ele>65.0</ele><time>2026-04-18T09:43:23.47Z</time></trkpt><trkpt lat="43.3482311" lon="10.7637727"><ele>65.0</ele><time>2026-04-18T09:43:24.473Z</time></trkpt><trkpt lat="43.3481733" lon="10.7636005"><ele>65.0</ele><time>2026-04-18T09:43:25.48Z</time></trkpt><trkpt lat="43.3481148" lon="10.7634239"><ele>65.0</ele><time>2026-04-18T09:43:26.47Z</time></trkpt><trkpt lat="43.3480545" lon="10.7632511"><ele>63.5</ele><time>2026-04-18T09:43:27.47Z</time></trkpt><trkpt lat="43.3480035" lon="10.7630703"><ele>62.0</ele><time>2026-04-18T09:43:28.47Z</time></trkpt><trkpt lat="43.3479553" lon="10.7628859"><ele>60.5</ele><time>2026-04-18T09:43:29.466Z</time></trkpt><trkpt lat="43.3479068" lon="10.7627015"><ele>59.0</ele><time>2026-04-18T09:43:30.481Z</time></trkpt><trkpt lat="43.3478529" lon="10.7625059"><ele>58.66666666666667</ele><time>2026-04-18T09:43:31.472Z</time></trkpt><trkpt lat="43.3477998" lon="10.7623021"><ele>58.33333333333333</ele><time>2026-04-18T09:43:32.473Z</time></trkpt><trkpt lat="43.3477633" lon="10.7620962"><ele>58.0</ele><time>2026-04-18T09:43:33.474Z</time></trkpt><trkpt lat="43.3477261" lon="10.7618934"><ele>58.33333333333333</ele><time>2026-04-18T09:43:34.464Z</time></trkpt><trkpt lat="43.3477004" lon="10.7616843"><ele>58.66666666666667</ele><time>2026-04-18T09:43:35.473Z</time></trkpt><trkpt lat="43.3476757" lon="10.7614671"><ele>59.0</ele><time>2026-04-18T09:43:36.471Z</time></trkpt><trkpt lat="43.3476561" lon="10.7612331"><ele>58.66666666666667</ele><time>2026-04-18T09:43:37.466Z</time></trkpt><trkpt lat="43.3476336" lon="10.7609908"><ele>58.33333333333333</ele><time>2026-04-18T09:43:38.476Z</time></trkpt><trkpt lat="43.3476119" lon="10.7607404"><ele>58.0</ele><time>2026-04-18T09:43:39.47Z</time></trkpt><trkpt lat="43.3475864" lon="10.7604916"><ele>58.0</ele><time>2026-04-18T09:43:40.478Z</time></trkpt><trkpt lat="43.3475668" lon="10.760243"><ele>58.0</ele><time>2026-04-18T09:43:41.472Z</time></trkpt><trkpt lat="43.3475243" lon="10.7599996"><ele>58.0</ele><time>2026-04-18T09:43:42.468Z</time></trkpt><trkpt lat="43.3474662" lon="10.759763"><ele>57.666666666666664</ele><time>2026-04-18T09:43:43.469Z</time></trkpt><trkpt lat="43.3473821" lon="10.7595435"><ele>57.33333333333333</ele><time>2026-04-18T09:43:44.466Z</time></trkpt><trkpt lat="43.3472884" lon="10.7593322"><ele>57.0</ele><time>2026-04-18T09:43:45.469Z</time></trkpt><trkpt lat="43.3471895" lon="10.7591257"><ele>57.0</ele><time>2026-04-18T09:43:46.47Z</time></trkpt><trkpt lat="43.3470827" lon="10.75892"><ele>57.0</ele><time>2026-04-18T09:43:47.471Z</time></trkpt><trkpt lat="43.3469774" lon="10.7587302"><ele>57.0</ele><time>2026-04-18T09:43:48.471Z</time></trkpt><trkpt lat="43.3468802" lon="10.7585449"><ele>58.33333333333333</ele><time>2026-04-18T09:43:49.465Z</time></trkpt><trkpt lat="43.3467786" lon="10.7583622"><ele>59.666666666666664</ele><time>2026-04-18T09:43:50.477Z</time></trkpt><trkpt lat="43.3466768" lon="10.758173"><ele>61.0</ele><time>2026-04-18T09:43:51.471Z</time></trkpt><trkpt lat="43.3465756" lon="10.7579794"><ele>61.0</ele><time>2026-04-18T09:43:52.473Z</time></trkpt><trkpt lat="43.346475" lon="10.757781"><ele>61.0</ele><time>2026-04-18T09:43:53.463Z</time></trkpt><trkpt lat="43.3463737" lon="10.7575937"><ele>61.0</ele><time>2026-04-18T09:43:54.468Z</time></trkpt><trkpt lat="43.3462754" lon="10.7574096"><ele>59.666666666666664</ele><time>2026-04-18T09:43:55.466Z</time></trkpt><trkpt lat="43.346173" lon="10.757224"><ele>58.33333333333333</ele><time>2026-04-18T09:43:56.473Z</time></trkpt><trkpt lat="43.3460678" lon="10.7570552"><ele>57.0</ele><time>2026-04-18T09:43:57.477Z</time></trkpt><trkpt lat="43.3459603" lon="10.7568927"><ele>57.0</ele><time>2026-04-18T09:43:58.479Z</time></trkpt><trkpt lat="43.3458491" lon="10.7567439"><ele>57.0</ele><time>2026-04-18T09:43:59.464Z</time></trkpt><trkpt lat="43.3457398" lon="10.7566025"><ele>57.0</ele><time>2026-04-18T09:44:00.478Z</time></trkpt><trkpt lat="43.3456395" lon="10.7564705"><ele>57.0</ele><time>2026-04-18T09:44:01.476Z</time></trkpt><trkpt lat="43.3455478" lon="10.756359"><ele>56.8</ele><time>2026-04-18T09:44:02.468Z</time></trkpt><trkpt lat="43.3454762" lon="10.7562803"><ele>56.6</ele><time>2026-04-18T09:44:03.47Z</time></trkpt><trkpt lat="43.3454053" lon="10.7561978"><ele>56.39999999999999</ele><time>2026-04-18T09:44:04.47Z</time></trkpt><trkpt lat="43.3453462" lon="10.7561236"><ele>56.199999999999996</ele><time>2026-04-18T09:44:05.461Z</time></trkpt><trkpt lat="43.3452983" lon="10.7560552"><ele>56.0</ele><time>2026-04-18T09:44:06.47Z</time></trkpt><trkpt lat="43.3452357" lon="10.7559122"><ele>56.00000000000001</ele><time>2026-04-18T09:44:08.476Z</time></trkpt><trkpt lat="43.3452277" lon="10.755825"><ele>56.0</ele><time>2026-04-18T09:44:09.47Z</time></trkpt><trkpt lat="43.3452489" lon="10.7557286"><ele>56.0</ele><time>2026-04-18T09:44:10.476Z</time></trkpt><trkpt lat="43.3452792" lon="10.7556242"><ele>56.0</ele><time>2026-04-18T09:44:11.465Z</time></trkpt><trkpt lat="43.3453124" lon="10.7555137"><ele>56.00000000000001</ele><time>2026-04-18T09:44:12.472Z</time></trkpt><trkpt lat="43.3453138" lon="10.7554005"><ele>56.0</ele><time>2026-04-18T09:44:13.468Z</time></trkpt><trkpt lat="43.3452822" lon="10.7553111"><ele>56.0</ele><time>2026-04-18T09:44:14.468Z</time></trkpt><trkpt lat="43.3452075" lon="10.7552255"><ele>55.99999999999999</ele><time>2026-04-18T09:44:15.472Z</time></trkpt><trkpt lat="43.345125" lon="10.7551743"><ele>55.99999999999999</ele><time>2026-04-18T09:44:16.467Z</time></trkpt><trkpt lat="43.3450443" lon="10.755107"><ele>56.0</ele><time>2026-04-18T09:44:17.475Z</time></trkpt><trkpt lat="43.3449718" lon="10.7550238"><ele>56.0</ele><time>2026-04-18T09:44:18.469Z</time></trkpt><trkpt lat="43.3449263" lon="10.7548942"><ele>56.0</ele><time>2026-04-18T09:44:19.479Z</time></trkpt><trkpt lat="43.3448926" lon="10.7547651"><ele>55.99999999999999</ele><time>2026-04-18T09:44:20.473Z</time></trkpt><trkpt lat="43.3448605" lon="10.7546212"><ele>55.99999999999999</ele><time>2026-04-18T09:44:21.481Z</time></trkpt><trkpt lat="43.3448216" lon="10.754476"><ele>56.0</ele><time>2026-04-18T09:44:22.478Z</time></trkpt><trkpt lat="43.344784" lon="10.7543305"><ele>56.0</ele><time>2026-04-18T09:44:23.517Z</time></trkpt><trkpt lat="43.3447444" lon="10.7541806"><ele>55.75</ele><time>2026-04-18T09:44:24.483Z</time></trkpt><trkpt lat="43.3446897" lon="10.7540206"><ele>55.5</ele><time>2026-04-18T09:44:25.481Z</time></trkpt><trkpt lat="43.3446311" lon="10.7538682"><ele>55.25</ele><time>2026-04-18T09:44:26.475Z</time></trkpt><trkpt lat="43.3445615" lon="10.7537026"><ele>55.0</ele><time>2026-04-18T09:44:27.481Z</time></trkpt><trkpt lat="43.3444807" lon="10.753558"><ele>55.5</ele><time>2026-04-18T09:44:28.482Z</time></trkpt><trkpt lat="43.3443883" lon="10.7534161"><ele>56.0</ele><time>2026-04-18T09:44:29.475Z</time></trkpt><trkpt lat="43.3442878" lon="10.7532758"><ele>56.5</ele><time>2026-04-18T09:44:30.483Z</time></trkpt><trkpt lat="43.3441798" lon="10.7531303"><ele>57.0</ele><time>2026-04-18T09:44:31.481Z</time></trkpt><trkpt lat="43.3440806" lon="10.7529864"><ele>57.0</ele><time>2026-04-18T09:44:32.467Z</time></trkpt><trkpt lat="43.3439862" lon="10.7528427"><ele>57.0</ele><time>2026-04-18T09:44:33.48Z</time></trkpt><trkpt lat="43.3438841" lon="10.752696"><ele>57.0</ele><time>2026-04-18T09:44:34.473Z</time></trkpt><trkpt lat="43.3437926" lon="10.7525534"><ele>57.0</ele><time>2026-04-18T09:44:35.483Z</time></trkpt><trkpt lat="43.3436908" lon="10.7524019"><ele>56.66666666666667</ele><time>2026-04-18T09:44:36.461Z</time></trkpt><trkpt lat="43.3435901" lon="10.7522445"><ele>56.333333333333336</ele><time>2026-04-18T09:44:37.465Z</time></trkpt><trkpt lat="43.3434803" lon="10.7520942"><ele>56.0</ele><time>2026-04-18T09:44:38.467Z</time></trkpt><trkpt lat="43.3433786" lon="10.7519406"><ele>56.25</ele><time>2026-04-18T09:44:39.478Z</time></trkpt><trkpt lat="43.3432748" lon="10.7518005"><ele>56.5</ele><time>2026-04-18T09:44:40.487Z</time></trkpt><trkpt lat="43.343172" lon="10.7516507"><ele>56.75</ele><time>2026-04-18T09:44:41.477Z</time></trkpt><trkpt lat="43.3430676" lon="10.7515028"><ele>57.0</ele><time>2026-04-18T09:44:42.464Z</time></trkpt><trkpt lat="43.3429578" lon="10.7513618"><ele>56.66666666666667</ele><time>2026-04-18T09:44:43.483Z</time></trkpt><trkpt lat="43.3428539" lon="10.7512068"><ele>56.333333333333336</ele><time>2026-04-18T09:44:44.487Z</time></trkpt><trkpt lat="43.3427474" lon="10.7510529"><ele>56.0</ele><time>2026-04-18T09:44:45.48Z</time></trkpt><trkpt lat="43.3426414" lon="10.7509001"><ele>56.0</ele><time>2026-04-18T09:44:46.483Z</time></trkpt><trkpt lat="43.3425291" lon="10.7507489"><ele>56.0</ele><time>2026-04-18T09:44:47.474Z</time></trkpt><trkpt lat="43.3424225" lon="10.7505933"><ele>56.0</ele><time>2026-04-18T09:44:48.481Z</time></trkpt><trkpt lat="43.3423026" lon="10.7504249"><ele>55.66666666666667</ele><time>2026-04-18T09:44:49.463Z</time></trkpt><trkpt lat="43.3421835" lon="10.7502606"><ele>55.33333333333333</ele><time>2026-04-18T09:44:50.473Z</time></trkpt><trkpt lat="43.3420663" lon="10.7500935"><ele>55.0</ele><time>2026-04-18T09:44:51.47Z</time></trkpt><trkpt lat="43.3419515" lon="10.7499279"><ele>55.0</ele><time>2026-04-18T09:44:52.471Z</time></trkpt><trkpt lat="43.3418487" lon="10.7497778"><ele>55.0</ele><time>2026-04-18T09:44:53.479Z</time></trkpt><trkpt lat="43.3417428" lon="10.7496134"><ele>55.0</ele><time>2026-04-18T09:44:54.477Z</time></trkpt><trkpt lat="43.3416423" lon="10.7494612"><ele>54.666666666666664</ele><time>2026-04-18T09:44:55.476Z</time></trkpt><trkpt lat="43.3415297" lon="10.7493177"><ele>54.33333333333333</ele><time>2026-04-18T09:44:56.473Z</time></trkpt><trkpt lat="43.3414088" lon="10.7491835"><ele>54.0</ele><time>2026-04-18T09:44:57.479Z</time></trkpt><trkpt lat="43.341276" lon="10.7490616"><ele>54.0</ele><time>2026-04-18T09:44:58.478Z</time></trkpt><trkpt lat="43.3411404" lon="10.7489464"><ele>54.0</ele><time>2026-04-18T09:44:59.473Z</time></trkpt><trkpt lat="43.3410032" lon="10.7488381"><ele>54.0</ele><time>2026-04-18T09:45:00.481Z</time></trkpt><trkpt lat="43.3408733" lon="10.7487231"><ele>54.0</ele><time>2026-04-18T09:45:01.48Z</time></trkpt><trkpt lat="43.3407358" lon="10.7486111"><ele>54.0</ele><time>2026-04-18T09:45:02.49Z</time></trkpt><trkpt lat="43.3405886" lon="10.7485099"><ele>54.0</ele><time>2026-04-18T09:45:03.48Z</time></trkpt><trkpt lat="43.3404386" lon="10.7484171"><ele>54.33333333333333</ele><time>2026-04-18T09:45:04.475Z</time></trkpt><trkpt lat="43.3402829" lon="10.7483296"><ele>54.666666666666664</ele><time>2026-04-18T09:45:05.476Z</time></trkpt><trkpt lat="43.3401252" lon="10.7482382"><ele>55.0</ele><time>2026-04-18T09:45:06.477Z</time></trkpt><trkpt lat="43.3399721" lon="10.7481548"><ele>55.0</ele><time>2026-04-18T09:45:07.514Z</time></trkpt><trkpt lat="43.3398099" lon="10.7480838"><ele>55.0</ele><time>2026-04-18T09:45:08.465Z</time></trkpt><trkpt lat="43.3396488" lon="10.7480161"><ele>55.0</ele><time>2026-04-18T09:45:09.477Z</time></trkpt><trkpt lat="43.3394882" lon="10.747951"><ele>55.0</ele><time>2026-04-18T09:45:10.475Z</time></trkpt><trkpt lat="43.3393239" lon="10.7478851"><ele>55.0</ele><time>2026-04-18T09:45:11.475Z</time></trkpt><trkpt lat="43.3391629" lon="10.7478351"><ele>55.0</ele><time>2026-04-18T09:45:12.472Z</time></trkpt><trkpt lat="43.339" lon="10.7478048"><ele>54.0</ele><time>2026-04-18T09:45:13.478Z</time></trkpt><trkpt lat="43.3388338" lon="10.7477836"><ele>53.0</ele><time>2026-04-18T09:45:14.477Z</time></trkpt><trkpt lat="43.338668" lon="10.7477766"><ele>52.0</ele><time>2026-04-18T09:45:15.482Z</time></trkpt><trkpt lat="43.3385154" lon="10.7477812"><ele>52.0</ele><time>2026-04-18T09:45:16.471Z</time></trkpt><trkpt lat="43.3383642" lon="10.7477818"><ele>52.0</ele><time>2026-04-18T09:45:17.474Z</time></trkpt><trkpt lat="43.3382214" lon="10.7477808"><ele>52.0</ele><time>2026-04-18T09:45:18.466Z</time></trkpt><trkpt lat="43.3380888" lon="10.7477962"><ele>52.0</ele><time>2026-04-18T09:45:19.476Z</time></trkpt><trkpt lat="43.3379554" lon="10.7478049"><ele>52.25</ele><time>2026-04-18T09:45:20.472Z</time></trkpt><trkpt lat="43.337815" lon="10.747803"><ele>52.5</ele><time>2026-04-18T09:45:21.469Z</time></trkpt><trkpt lat="43.3376729" lon="10.7477822"><ele>52.75</ele><time>2026-04-18T09:45:22.471Z</time></trkpt><trkpt lat="43.3375371" lon="10.7477505"><ele>53.0</ele><time>2026-04-18T09:45:23.469Z</time></trkpt><trkpt lat="43.3374159" lon="10.7476891"><ele>53.75</ele><time>2026-04-18T09:45:24.468Z</time></trkpt><trkpt lat="43.337305" lon="10.7476116"><ele>54.5</ele><time>2026-04-18T09:45:25.467Z</time></trkpt><trkpt lat="43.3371963" lon="10.7475337"><ele>55.25</ele><time>2026-04-18T09:45:26.479Z</time></trkpt><trkpt lat="43.3371034" lon="10.7474384"><ele>56.0</ele><time>2026-04-18T09:45:27.47Z</time></trkpt><trkpt lat="43.3370119" lon="10.7473206"><ele>56.0</ele><time>2026-04-18T09:45:28.477Z</time></trkpt><trkpt lat="43.3369177" lon="10.747198"><ele>56.0</ele><time>2026-04-18T09:45:29.479Z</time></trkpt><trkpt lat="43.3368196" lon="10.7470681"><ele>56.0</ele><time>2026-04-18T09:45:30.48Z</time></trkpt><trkpt lat="43.3367286" lon="10.7469391"><ele>56.0</ele><time>2026-04-18T09:45:31.472Z</time></trkpt><trkpt lat="43.3366343" lon="10.7468277"><ele>55.5</ele><time>2026-04-18T09:45:32.478Z</time></trkpt><trkpt lat="43.3365292" lon="10.746701"><ele>55.0</ele><time>2026-04-18T09:45:33.471Z</time></trkpt><trkpt lat="43.3364327" lon="10.7465657"><ele>54.5</ele><time>2026-04-18T09:45:34.479Z</time></trkpt><trkpt lat="43.3363518" lon="10.7464065"><ele>54.0</ele><time>2026-04-18T09:45:35.464Z</time></trkpt><trkpt lat="43.3362802" lon="10.7462415"><ele>54.0</ele><time>2026-04-18T09:45:36.473Z</time></trkpt><trkpt lat="43.3362126" lon="10.7460624"><ele>54.0</ele><time>2026-04-18T09:45:37.468Z</time></trkpt><trkpt lat="43.3361474" lon="10.7458846"><ele>54.0</ele><time>2026-04-18T09:45:38.467Z</time></trkpt><trkpt lat="43.336094" lon="10.7457077"><ele>54.0</ele><time>2026-04-18T09:45:39.46Z</time></trkpt><trkpt lat="43.3360458" lon="10.7455207"><ele>54.25</ele><time>2026-04-18T09:45:40.469Z</time></trkpt><trkpt lat="43.335996" lon="10.7453353"><ele>54.5</ele><time>2026-04-18T09:45:41.476Z</time></trkpt><trkpt lat="43.335938" lon="10.7451625"><ele>54.75</ele><time>2026-04-18T09:45:42.481Z</time></trkpt><trkpt lat="43.33588" lon="10.7449918"><ele>55.0</ele><time>2026-04-18T09:45:43.474Z</time></trkpt><trkpt lat="43.3358278" lon="10.7448251"><ele>55.75</ele><time>2026-04-18T09:45:44.48Z</time></trkpt><trkpt lat="43.3357745" lon="10.7446571"><ele>56.5</ele><time>2026-04-18T09:45:45.467Z</time></trkpt><trkpt lat="43.3357278" lon="10.7444979"><ele>57.25</ele><time>2026-04-18T09:45:46.474Z</time></trkpt><trkpt lat="43.3356868" lon="10.7443352"><ele>58.0</ele><time>2026-04-18T09:45:47.477Z</time></trkpt><trkpt lat="43.3356446" lon="10.7441816"><ele>57.2</ele><time>2026-04-18T09:45:48.475Z</time></trkpt><trkpt lat="43.3356039" lon="10.7440315"><ele>56.4</ele><time>2026-04-18T09:45:49.461Z</time></trkpt><trkpt lat="43.3355669" lon="10.7438909"><ele>55.60000000000001</ele><time>2026-04-18T09:45:50.474Z</time></trkpt><trkpt lat="43.3355286" lon="10.7437618"><ele>54.800000000000004</ele><time>2026-04-18T09:45:51.471Z</time></trkpt><trkpt lat="43.3354889" lon="10.7436262"><ele>54.0</ele><time>2026-04-18T09:45:52.48Z</time></trkpt><trkpt lat="43.3354507" lon="10.7434895"><ele>54.0</ele><time>2026-04-18T09:45:53.475Z</time></trkpt><trkpt lat="43.3354219" lon="10.7433533"><ele>54.00000000000001</ele><time>2026-04-18T09:45:54.474Z</time></trkpt><trkpt lat="43.335402" lon="10.7432146"><ele>54.00000000000001</ele><time>2026-04-18T09:45:55.467Z</time></trkpt><trkpt lat="43.3354006" lon="10.7430782"><ele>54.0</ele><time>2026-04-18T09:45:56.467Z</time></trkpt><trkpt lat="43.3354051" lon="10.7429425"><ele>54.0</ele><time>2026-04-18T09:45:57.472Z</time></trkpt><trkpt lat="43.3354089" lon="10.7428442"><ele>54.0</ele><time>2026-04-18T09:45:58.474Z</time></trkpt><trkpt lat="43.3354328" lon="10.7427033"><ele>54.0</ele><time>2026-04-18T09:46:00.473Z</time></trkpt><trkpt lat="43.3354294" lon="10.7426157"><ele>54.0</ele><time>2026-04-18T09:46:03.47Z</time></trkpt><trkpt lat="43.3353525" lon="10.7425271"><ele>54.0</ele><time>2026-04-18T09:46:05.469Z</time></trkpt><trkpt lat="43.3353016" lon="10.7424574"><ele>54.0</ele><time>2026-04-18T09:46:06.489Z</time></trkpt><trkpt lat="43.3352611" lon="10.7423789"><ele>54.0</ele><time>2026-04-18T09:46:07.477Z</time></trkpt><trkpt lat="43.3352213" lon="10.7422855"><ele>54.0</ele><time>2026-04-18T09:46:08.483Z</time></trkpt><trkpt lat="43.3351778" lon="10.7422087"><ele>54.0</ele><time>2026-04-18T09:46:09.465Z</time></trkpt><trkpt lat="43.3351295" lon="10.7421246"><ele>54.0</ele><time>2026-04-18T09:46:10.455Z</time></trkpt><trkpt lat="43.3350791" lon="10.742027"><ele>54.0</ele><time>2026-04-18T09:46:11.474Z</time></trkpt><trkpt lat="43.3350295" lon="10.7419497"><ele>54.0</ele><time>2026-04-18T09:46:12.471Z</time></trkpt><trkpt lat="43.3349812" lon="10.7418689"><ele>54.0</ele><time>2026-04-18T09:46:13.481Z</time></trkpt><trkpt lat="43.3349294" lon="10.7417853"><ele>53.714285714285715</ele><time>2026-04-18T09:46:14.471Z</time></trkpt><trkpt lat="43.3348783" lon="10.7417087"><ele>53.42857142857143</ele><time>2026-04-18T09:46:15.488Z</time></trkpt><trkpt lat="43.3348306" lon="10.7416355"><ele>53.14285714285714</ele><time>2026-04-18T09:46:16.472Z</time></trkpt><trkpt lat="43.3347828" lon="10.7415597"><ele>52.85714285714286</ele><time>2026-04-18T09:46:17.473Z</time></trkpt><trkpt lat="43.3347365" lon="10.7414807"><ele>52.57142857142858</ele><time>2026-04-18T09:46:18.479Z</time></trkpt><trkpt lat="43.3346873" lon="10.7414005"><ele>52.285714285714285</ele><time>2026-04-18T09:46:19.475Z</time></trkpt><trkpt lat="43.3346417" lon="10.7413338"><ele>52.0</ele><time>2026-04-18T09:46:20.502Z</time></trkpt><trkpt lat="43.3345908" lon="10.741261"><ele>51.99999999999999</ele><time>2026-04-18T09:46:21.481Z</time></trkpt><trkpt lat="43.3345508" lon="10.7411831"><ele>52.0</ele><time>2026-04-18T09:46:22.482Z</time></trkpt><trkpt lat="43.3345054" lon="10.7410962"><ele>52.0</ele><time>2026-04-18T09:46:23.464Z</time></trkpt><trkpt lat="43.3344564" lon="10.7410176"><ele>52.0</ele><time>2026-04-18T09:46:24.485Z</time></trkpt><trkpt lat="43.3344124" lon="10.7409427"><ele>51.99999999999999</ele><time>2026-04-18T09:46:25.472Z</time></trkpt><trkpt lat="43.3343498" lon="10.7408688"><ele>52.0</ele><time>2026-04-18T09:46:26.476Z</time></trkpt><trkpt lat="43.3342869" lon="10.7407827"><ele>51.8</ele><time>2026-04-18T09:46:27.475Z</time></trkpt><trkpt lat="43.3342233" lon="10.7406788"><ele>51.6</ele><time>2026-04-18T09:46:28.47Z</time></trkpt><trkpt lat="43.334159" lon="10.7405588"><ele>51.4</ele><time>2026-04-18T09:46:29.502Z</time></trkpt><trkpt lat="43.3341015" lon="10.7404455"><ele>51.199999999999996</ele><time>2026-04-18T09:46:30.474Z</time></trkpt><trkpt lat="43.3340408" lon="10.7403261"><ele>51.0</ele><time>2026-04-18T09:46:31.476Z</time></trkpt><trkpt lat="43.3339749" lon="10.7402075"><ele>51.199999999999996</ele><time>2026-04-18T09:46:32.476Z</time></trkpt><trkpt lat="43.3339108" lon="10.7400968"><ele>51.4</ele><time>2026-04-18T09:46:33.474Z</time></trkpt><trkpt lat="43.33385" lon="10.7399792"><ele>51.6</ele><time>2026-04-18T09:46:34.471Z</time></trkpt><trkpt lat="43.3337879" lon="10.73986"><ele>51.8</ele><time>2026-04-18T09:46:35.477Z</time></trkpt><trkpt lat="43.333724" lon="10.7397474"><ele>52.0</ele><time>2026-04-18T09:46:36.48Z</time></trkpt><trkpt lat="43.3336624" lon="10.7396465"><ele>52.0</ele><time>2026-04-18T09:46:37.475Z</time></trkpt><trkpt lat="43.3336053" lon="10.739537"><ele>52.0</ele><time>2026-04-18T09:46:38.471Z</time></trkpt><trkpt lat="43.3335436" lon="10.739421"><ele>52.0</ele><time>2026-04-18T09:46:39.473Z</time></trkpt><trkpt lat="43.3334799" lon="10.7393094"><ele>52.0</ele><time>2026-04-18T09:46:40.47Z</time></trkpt><trkpt lat="43.3334226" lon="10.7391947"><ele>52.0</ele><time>2026-04-18T09:46:41.472Z</time></trkpt><trkpt lat="43.3333607" lon="10.7390921"><ele>52.0</ele><time>2026-04-18T09:46:42.487Z</time></trkpt><trkpt lat="43.333291" lon="10.7389855"><ele>52.0</ele><time>2026-04-18T09:46:43.478Z</time></trkpt><trkpt lat="43.333211" lon="10.7388897"><ele>52.0</ele><time>2026-04-18T09:46:44.476Z</time></trkpt><trkpt lat="43.3331273" lon="10.7387904"><ele>52.0</ele><time>2026-04-18T09:46:45.473Z</time></trkpt><trkpt lat="43.3330355" lon="10.7387078"><ele>52.0</ele><time>2026-04-18T09:46:46.469Z</time></trkpt><trkpt lat="43.3329309" lon="10.73864"><ele>52.25</ele><time>2026-04-18T09:46:47.467Z</time></trkpt><trkpt lat="43.3328146" lon="10.7385859"><ele>52.5</ele><time>2026-04-18T09:46:48.477Z</time></trkpt><trkpt lat="43.3326964" lon="10.7385239"><ele>52.75</ele><time>2026-04-18T09:46:49.467Z</time></trkpt><trkpt lat="43.3325795" lon="10.7384607"><ele>53.0</ele><time>2026-04-18T09:46:50.466Z</time></trkpt><trkpt lat="43.3324646" lon="10.738393"><ele>53.25</ele><time>2026-04-18T09:46:51.465Z</time></trkpt><trkpt lat="43.3323402" lon="10.7383172"><ele>53.5</ele><time>2026-04-18T09:46:52.476Z</time></trkpt><trkpt lat="43.3322208" lon="10.7382473"><ele>53.75</ele><time>2026-04-18T09:46:53.468Z</time></trkpt><trkpt lat="43.332096" lon="10.7381702"><ele>54.0</ele><time>2026-04-18T09:46:54.466Z</time></trkpt><trkpt lat="43.331973" lon="10.738089"><ele>53.5</ele><time>2026-04-18T09:46:55.459Z</time></trkpt><trkpt lat="43.3318479" lon="10.7380132"><ele>53.0</ele><time>2026-04-18T09:46:56.465Z</time></trkpt><trkpt lat="43.3317196" lon="10.7379439"><ele>52.5</ele><time>2026-04-18T09:46:57.472Z</time></trkpt><trkpt lat="43.3315956" lon="10.7378704"><ele>52.0</ele><time>2026-04-18T09:46:58.464Z</time></trkpt><trkpt lat="43.3314696" lon="10.7377999"><ele>53.5</ele><time>2026-04-18T09:46:59.474Z</time></trkpt><trkpt lat="43.3313533" lon="10.7377257"><ele>55.0</ele><time>2026-04-18T09:47:00.477Z</time></trkpt><trkpt lat="43.3312489" lon="10.7376304"><ele>56.5</ele><time>2026-04-18T09:47:01.477Z</time></trkpt><trkpt lat="43.3311517" lon="10.7375169"><ele>58.0</ele><time>2026-04-18T09:47:02.467Z</time></trkpt><trkpt lat="43.3310604" lon="10.7373809"><ele>59.0</ele><time>2026-04-18T09:47:03.472Z</time></trkpt><trkpt lat="43.3309778" lon="10.7372398"><ele>60.0</ele><time>2026-04-18T09:47:04.467Z</time></trkpt><trkpt lat="43.3309002" lon="10.7370807"><ele>61.0</ele><time>2026-04-18T09:47:05.468Z</time></trkpt><trkpt lat="43.3308376" lon="10.7369201"><ele>62.0</ele><time>2026-04-18T09:47:06.482Z</time></trkpt><trkpt lat="43.3307976" lon="10.7367459"><ele>62.400000000000006</ele><time>2026-04-18T09:47:07.468Z</time></trkpt><trkpt lat="43.3307593" lon="10.7365741"><ele>62.800000000000004</ele><time>2026-04-18T09:47:08.466Z</time></trkpt><trkpt lat="43.3307217" lon="10.7364205"><ele>63.2</ele><time>2026-04-18T09:47:09.465Z</time></trkpt><trkpt lat="43.330689" lon="10.7363134"><ele>63.6</ele><time>2026-04-18T09:47:10.474Z</time></trkpt><trkpt lat="43.3306524" lon="10.7362245"><ele>64.0</ele><time>2026-04-18T09:47:11.469Z</time></trkpt><trkpt lat="43.3305459" lon="10.7361626"><ele>65.60000000000001</ele><time>2026-04-18T09:47:13.463Z</time></trkpt><trkpt lat="43.3304387" lon="10.7362211"><ele>67.2</ele><time>2026-04-18T09:47:15.48Z</time></trkpt><trkpt lat="43.3303305" lon="10.736282"><ele>68.80000000000001</ele><time>2026-04-18T09:47:17.467Z</time></trkpt><trkpt lat="43.3302658" lon="10.7363161"><ele>70.4</ele><time>2026-04-18T09:47:18.465Z</time></trkpt><trkpt lat="43.3301842" lon="10.7363595"><ele>72.0</ele><time>2026-04-18T09:47:19.482Z</time></trkpt><trkpt lat="43.3301065" lon="10.7363979"><ele>72.0</ele><time>2026-04-18T09:47:20.477Z</time></trkpt><trkpt lat="43.3300191" lon="10.7364528"><ele>72.0</ele><time>2026-04-18T09:47:21.468Z</time></trkpt><trkpt lat="43.3299273" lon="10.7365052"><ele>72.0</ele><time>2026-04-18T09:47:22.464Z</time></trkpt><trkpt lat="43.3298442" lon="10.7365495"><ele>72.0</ele><time>2026-04-18T09:47:23.477Z</time></trkpt><trkpt lat="43.3297552" lon="10.7366072"><ele>72.0</ele><time>2026-04-18T09:47:24.475Z</time></trkpt><trkpt lat="43.3296642" lon="10.7366596"><ele>72.25</ele><time>2026-04-18T09:47:25.469Z</time></trkpt><trkpt lat="43.3295675" lon="10.7367136"><ele>72.5</ele><time>2026-04-18T09:47:26.481Z</time></trkpt><trkpt lat="43.3294617" lon="10.7367722"><ele>72.75</ele><time>2026-04-18T09:47:27.472Z</time></trkpt><trkpt lat="43.3293497" lon="10.7368343"><ele>73.0</ele><time>2026-04-18T09:47:28.473Z</time></trkpt><trkpt lat="43.3292328" lon="10.7369012"><ele>73.25</ele><time>2026-04-18T09:47:29.473Z</time></trkpt><trkpt lat="43.3291144" lon="10.7369585"><ele>73.5</ele><time>2026-04-18T09:47:30.477Z</time></trkpt><trkpt lat="43.328995" lon="10.7370321"><ele>73.75</ele><time>2026-04-18T09:47:31.476Z</time></trkpt><trkpt lat="43.3288689" lon="10.7371069"><ele>74.0</ele><time>2026-04-18T09:47:32.473Z</time></trkpt><trkpt lat="43.3287327" lon="10.7371797"><ele>74.5</ele><time>2026-04-18T09:47:33.479Z</time></trkpt><trkpt lat="43.3285975" lon="10.7372458"><ele>75.0</ele><time>2026-04-18T09:47:34.479Z</time></trkpt><trkpt lat="43.3284605" lon="10.7373211"><ele>75.5</ele><time>2026-04-18T09:47:35.469Z</time></trkpt><trkpt lat="43.3283261" lon="10.7373925"><ele>76.0</ele><time>2026-04-18T09:47:36.474Z</time></trkpt><trkpt lat="43.3281879" lon="10.737461"><ele>76.25</ele><time>2026-04-18T09:47:37.472Z</time></trkpt><trkpt lat="43.3280574" lon="10.7375416"><ele>76.5</ele><time>2026-04-18T09:47:38.469Z</time></trkpt><trkpt lat="43.3279324" lon="10.7376081"><ele>76.75</ele><time>2026-04-18T09:47:39.477Z</time></trkpt><trkpt lat="43.3278119" lon="10.7376688"><ele>77.0</ele><time>2026-04-18T09:47:40.464Z</time></trkpt><trkpt lat="43.327696" lon="10.7377289"><ele>77.0</ele><time>2026-04-18T09:47:41.47Z</time></trkpt><trkpt lat="43.3275886" lon="10.7377809"><ele>77.0</ele><time>2026-04-18T09:47:42.465Z</time></trkpt><trkpt lat="43.3274835" lon="10.7378451"><ele>77.0</ele><time>2026-04-18T09:47:43.475Z</time></trkpt><trkpt lat="43.327384" lon="10.7379282"><ele>77.0</ele><time>2026-04-18T09:47:44.466Z</time></trkpt><trkpt lat="43.3272971" lon="10.7380189"><ele>77.2</ele><time>2026-04-18T09:47:45.465Z</time></trkpt><trkpt lat="43.3272157" lon="10.738108"><ele>77.4</ele><time>2026-04-18T09:47:46.471Z</time></trkpt><trkpt lat="43.3271091" lon="10.7381914"><ele>77.6</ele><time>2026-04-18T09:47:47.478Z</time></trkpt><trkpt lat="43.3270057" lon="10.7382526"><ele>77.8</ele><time>2026-04-18T09:47:48.475Z</time></trkpt><trkpt lat="43.3269121" lon="10.7383111"><ele>78.0</ele><time>2026-04-18T09:47:49.476Z</time></trkpt><trkpt lat="43.3268187" lon="10.7383673"><ele>78.0</ele><time>2026-04-18T09:47:50.499Z</time></trkpt><trkpt lat="43.3267237" lon="10.7384458"><ele>78.0</ele><time>2026-04-18T09:47:51.477Z</time></trkpt><trkpt lat="43.3266362" lon="10.7385541"><ele>78.0</ele><time>2026-04-18T09:47:52.476Z</time></trkpt><trkpt lat="43.3265622" lon="10.7386638"><ele>78.0</ele><time>2026-04-18T09:47:53.474Z</time></trkpt><trkpt lat="43.3264978" lon="10.7387856"><ele>78.0</ele><time>2026-04-18T09:47:54.485Z</time></trkpt><trkpt lat="43.326443" lon="10.7389024"><ele>78.2</ele><time>2026-04-18T09:47:55.487Z</time></trkpt><trkpt lat="43.3263922" lon="10.739016"><ele>78.4</ele><time>2026-04-18T09:47:56.487Z</time></trkpt><trkpt lat="43.3263571" lon="10.7391334"><ele>78.60000000000001</ele><time>2026-04-18T09:47:57.469Z</time></trkpt><trkpt lat="43.3263613" lon="10.7392567"><ele>78.8</ele><time>2026-04-18T09:47:58.474Z</time></trkpt><trkpt lat="43.3263701" lon="10.7393912"><ele>79.0</ele><time>2026-04-18T09:47:59.477Z</time></trkpt><trkpt lat="43.3263757" lon="10.7395306"><ele>77.33333333333333</ele><time>2026-04-18T09:48:00.471Z</time></trkpt><trkpt lat="43.3263789" lon="10.739656"><ele>75.66666666666666</ele><time>2026-04-18T09:48:01.474Z</time></trkpt><trkpt lat="43.326378" lon="10.7397801"><ele>74.0</ele><time>2026-04-18T09:48:02.469Z</time></trkpt><trkpt lat="43.3263599" lon="10.7398786"><ele>72.33333333333333</ele><time>2026-04-18T09:48:03.478Z</time></trkpt><trkpt lat="43.3263159" lon="10.7399754"><ele>70.66666666666667</ele><time>2026-04-18T09:48:04.482Z</time></trkpt><trkpt lat="43.3262553" lon="10.7400605"><ele>69.0</ele><time>2026-04-18T09:48:05.483Z</time></trkpt><trkpt lat="43.3261731" lon="10.7401111"><ele>69.0</ele><time>2026-04-18T09:48:06.471Z</time></trkpt><trkpt lat="43.3260746" lon="10.7401717"><ele>69.0</ele><time>2026-04-18T09:48:07.474Z</time></trkpt><trkpt lat="43.3259664" lon="10.7402474"><ele>69.0</ele><time>2026-04-18T09:48:08.472Z</time></trkpt><trkpt lat="43.3258677" lon="10.7403158"><ele>69.0</ele><time>2026-04-18T09:48:09.481Z</time></trkpt><trkpt lat="43.3257502" lon="10.7403913"><ele>68.0</ele><time>2026-04-18T09:48:10.484Z</time></trkpt><trkpt lat="43.3256349" lon="10.7404689"><ele>67.0</ele><time>2026-04-18T09:48:11.483Z</time></trkpt><trkpt lat="43.3255152" lon="10.7405587"><ele>66.0</ele><time>2026-04-18T09:48:12.484Z</time></trkpt><trkpt lat="43.3253976" lon="10.7406504"><ele>65.0</ele><time>2026-04-18T09:48:13.472Z</time></trkpt><trkpt lat="43.3252709" lon="10.7407445"><ele>65.0</ele><time>2026-04-18T09:48:14.468Z</time></trkpt><trkpt lat="43.3251537" lon="10.740842"><ele>65.0</ele><time>2026-04-18T09:48:15.473Z</time></trkpt><trkpt lat="43.3250268" lon="10.7409447"><ele>65.0</ele><time>2026-04-18T09:48:16.474Z</time></trkpt><trkpt lat="43.3249149" lon="10.7410658"><ele>65.0</ele><time>2026-04-18T09:48:17.477Z</time></trkpt><trkpt lat="43.3248129" lon="10.7412019"><ele>64.25</ele><time>2026-04-18T09:48:18.47Z</time></trkpt><trkpt lat="43.3247031" lon="10.7413414"><ele>63.5</ele><time>2026-04-18T09:48:19.484Z</time></trkpt><trkpt lat="43.3246039" lon="10.7414899"><ele>62.75</ele><time>2026-04-18T09:48:20.475Z</time></trkpt><trkpt lat="43.3244964" lon="10.7416371"><ele>62.0</ele><time>2026-04-18T09:48:21.464Z</time></trkpt><trkpt lat="43.324397" lon="10.7417848"><ele>60.333333333333336</ele><time>2026-04-18T09:48:22.475Z</time></trkpt><trkpt lat="43.3242894" lon="10.7419335"><ele>58.66666666666667</ele><time>2026-04-18T09:48:23.472Z</time></trkpt><trkpt lat="43.3241854" lon="10.7420807"><ele>57.0</ele><time>2026-04-18T09:48:24.477Z</time></trkpt><trkpt lat="43.3240766" lon="10.7422363"><ele>57.0</ele><time>2026-04-18T09:48:25.479Z</time></trkpt><trkpt lat="43.3239879" lon="10.7424066"><ele>57.0</ele><time>2026-04-18T09:48:26.473Z</time></trkpt><trkpt lat="43.3238802" lon="10.7425814"><ele>57.0</ele><time>2026-04-18T09:48:27.489Z</time></trkpt><trkpt lat="43.3237764" lon="10.7427549"><ele>57.33333333333333</ele><time>2026-04-18T09:48:28.469Z</time></trkpt><trkpt lat="43.3236687" lon="10.742925"><ele>57.666666666666664</ele><time>2026-04-18T09:48:29.477Z</time></trkpt><trkpt lat="43.3235599" lon="10.7431"><ele>58.0</ele><time>2026-04-18T09:48:30.482Z</time></trkpt><trkpt lat="43.323454" lon="10.74327"><ele>58.0</ele><time>2026-04-18T09:48:31.475Z</time></trkpt><trkpt lat="43.323347" lon="10.7434405"><ele>58.0</ele><time>2026-04-18T09:48:32.476Z</time></trkpt><trkpt lat="43.3232366" lon="10.74362"><ele>58.0</ele><time>2026-04-18T09:48:33.48Z</time></trkpt><trkpt lat="43.3231266" lon="10.7438023"><ele>60.0</ele><time>2026-04-18T09:48:34.486Z</time></trkpt><trkpt lat="43.3230205" lon="10.7439879"><ele>62.0</ele><time>2026-04-18T09:48:35.478Z</time></trkpt><trkpt lat="43.3229132" lon="10.7441664"><ele>64.0</ele><time>2026-04-18T09:48:36.468Z</time></trkpt><trkpt lat="43.3228075" lon="10.744345"><ele>61.666666666666664</ele><time>2026-04-18T09:48:37.482Z</time></trkpt><trkpt lat="43.3226984" lon="10.7445157"><ele>59.33333333333333</ele><time>2026-04-18T09:48:38.483Z</time></trkpt><trkpt lat="43.3225947" lon="10.7446808"><ele>57.0</ele><time>2026-04-18T09:48:39.479Z</time></trkpt><trkpt lat="43.3224891" lon="10.7448487"><ele>57.0</ele><time>2026-04-18T09:48:40.483Z</time></trkpt><trkpt lat="43.3223818" lon="10.7450104"><ele>57.0</ele><time>2026-04-18T09:48:41.475Z</time></trkpt><trkpt lat="43.3222747" lon="10.7451763"><ele>57.0</ele><time>2026-04-18T09:48:42.479Z</time></trkpt><trkpt lat="43.3221646" lon="10.7453493"><ele>58.33333333333333</ele><time>2026-04-18T09:48:43.478Z</time></trkpt><trkpt lat="43.3220565" lon="10.7455285"><ele>59.666666666666664</ele><time>2026-04-18T09:48:44.474Z</time></trkpt><trkpt lat="43.3219597" lon="10.7457254"><ele>61.0</ele><time>2026-04-18T09:48:45.48Z</time></trkpt><trkpt lat="43.3218718" lon="10.7459291"><ele>59.33333333333333</ele><time>2026-04-18T09:48:46.48Z</time></trkpt><trkpt lat="43.3217814" lon="10.7461379"><ele>57.66666666666667</ele><time>2026-04-18T09:48:47.472Z</time></trkpt><trkpt lat="43.321694" lon="10.7463547"><ele>56.0</ele><time>2026-04-18T09:48:48.474Z</time></trkpt><trkpt lat="43.3216058" lon="10.7465748"><ele>56.0</ele><time>2026-04-18T09:48:49.475Z</time></trkpt><trkpt lat="43.321518" lon="10.7467887"><ele>56.0</ele><time>2026-04-18T09:48:50.488Z</time></trkpt><trkpt lat="43.3214311" lon="10.7470093"><ele>56.0</ele><time>2026-04-18T09:48:51.482Z</time></trkpt><trkpt lat="43.3213436" lon="10.7472359"><ele>57.66666666666667</ele><time>2026-04-18T09:48:52.473Z</time></trkpt><trkpt lat="43.3212588" lon="10.7474458"><ele>59.33333333333333</ele><time>2026-04-18T09:48:53.463Z</time></trkpt><trkpt lat="43.3211728" lon="10.7476607"><ele>61.0</ele><time>2026-04-18T09:48:54.484Z</time></trkpt><trkpt lat="43.3210923" lon="10.7478748"><ele>61.0</ele><time>2026-04-18T09:48:55.478Z</time></trkpt><trkpt lat="43.3210083" lon="10.7480892"><ele>61.0</ele><time>2026-04-18T09:48:56.48Z</time></trkpt><trkpt lat="43.3209195" lon="10.7483059"><ele>61.0</ele><time>2026-04-18T09:48:57.469Z</time></trkpt><trkpt lat="43.320831" lon="10.7485215"><ele>59.666666666666664</ele><time>2026-04-18T09:48:58.488Z</time></trkpt><trkpt lat="43.3207459" lon="10.7487462"><ele>58.33333333333333</ele><time>2026-04-18T09:48:59.467Z</time></trkpt><trkpt lat="43.3206592" lon="10.7489589"><ele>57.0</ele><time>2026-04-18T09:49:00.493Z</time></trkpt><trkpt lat="43.32057" lon="10.749174"><ele>58.66666666666667</ele><time>2026-04-18T09:49:01.481Z</time></trkpt><trkpt lat="43.3204807" lon="10.7493711"><ele>60.333333333333336</ele><time>2026-04-18T09:49:02.473Z</time></trkpt><trkpt lat="43.3204028" lon="10.7495662"><ele>62.0</ele><time>2026-04-18T09:49:03.487Z</time></trkpt><trkpt lat="43.3203245" lon="10.7497537"><ele>62.0</ele><time>2026-04-18T09:49:04.478Z</time></trkpt><trkpt lat="43.3202395" lon="10.7499367"><ele>62.0</ele><time>2026-04-18T09:49:05.48Z</time></trkpt><trkpt lat="43.3201542" lon="10.7500987"><ele>62.0</ele><time>2026-04-18T09:49:06.49Z</time></trkpt><trkpt lat="43.3200511" lon="10.7502539"><ele>63.0</ele><time>2026-04-18T09:49:07.474Z</time></trkpt><trkpt lat="43.3199359" lon="10.750396"><ele>64.0</ele><time>2026-04-18T09:49:08.483Z</time></trkpt><trkpt lat="43.3198099" lon="10.7505318"><ele>65.0</ele><time>2026-04-18T09:49:09.475Z</time></trkpt><trkpt lat="43.3196851" lon="10.7506678"><ele>65.0</ele><time>2026-04-18T09:49:10.475Z</time></trkpt><trkpt lat="43.3195476" lon="10.7507977"><ele>65.0</ele><time>2026-04-18T09:49:11.479Z</time></trkpt><trkpt lat="43.3194196" lon="10.7509401"><ele>65.0</ele><time>2026-04-18T09:49:12.47Z</time></trkpt><trkpt lat="43.3192956" lon="10.7510751"><ele>64.0</ele><time>2026-04-18T09:49:13.475Z</time></trkpt><trkpt lat="43.3191784" lon="10.751214"><ele>63.0</ele><time>2026-04-18T09:49:14.484Z</time></trkpt><trkpt lat="43.3190757" lon="10.7513771"><ele>62.0</ele><time>2026-04-18T09:49:15.478Z</time></trkpt><trkpt lat="43.3189919" lon="10.7515595"><ele>62.0</ele><time>2026-04-18T09:49:16.474Z</time></trkpt><trkpt lat="43.3189152" lon="10.751747"><ele>62.0</ele><time>2026-04-18T09:49:17.471Z</time></trkpt><trkpt lat="43.3188432" lon="10.7519441"><ele>62.0</ele><time>2026-04-18T09:49:18.477Z</time></trkpt><trkpt lat="43.3187731" lon="10.7521523"><ele>64.66666666666667</ele><time>2026-04-18T09:49:19.479Z</time></trkpt><trkpt lat="43.3186981" lon="10.7523631"><ele>67.33333333333333</ele><time>2026-04-18T09:49:20.469Z</time></trkpt><trkpt lat="43.3186183" lon="10.7525709"><ele>70.0</ele><time>2026-04-18T09:49:21.479Z</time></trkpt><trkpt lat="43.3185431" lon="10.7527739"><ele>70.0</ele><time>2026-04-18T09:49:22.475Z</time></trkpt><trkpt lat="43.3184658" lon="10.7529903"><ele>70.0</ele><time>2026-04-18T09:49:23.469Z</time></trkpt><trkpt lat="43.3183858" lon="10.7532063"><ele>70.0</ele><time>2026-04-18T09:49:24.471Z</time></trkpt><trkpt lat="43.3183053" lon="10.7534207"><ele>68.0</ele><time>2026-04-18T09:49:25.493Z</time></trkpt><trkpt lat="43.3182254" lon="10.7536342"><ele>66.0</ele><time>2026-04-18T09:49:26.474Z</time></trkpt><trkpt lat="43.3181523" lon="10.7538423"><ele>64.0</ele><time>2026-04-18T09:49:27.465Z</time></trkpt><trkpt lat="43.3180794" lon="10.7540573"><ele>65.0</ele><time>2026-04-18T09:49:28.484Z</time></trkpt><trkpt lat="43.3180058" lon="10.7542664"><ele>66.0</ele><time>2026-04-18T09:49:29.472Z</time></trkpt><trkpt lat="43.3179327" lon="10.7544814"><ele>67.0</ele><time>2026-04-18T09:49:30.478Z</time></trkpt><trkpt lat="43.3178588" lon="10.7546987"><ele>67.0</ele><time>2026-04-18T09:49:31.483Z</time></trkpt><trkpt lat="43.3177871" lon="10.7549128"><ele>67.0</ele><time>2026-04-18T09:49:32.48Z</time></trkpt><trkpt lat="43.317723" lon="10.7551226"><ele>67.0</ele><time>2026-04-18T09:49:33.479Z</time></trkpt><trkpt lat="43.3176652" lon="10.7553303"><ele>66.66666666666666</ele><time>2026-04-18T09:49:34.473Z</time></trkpt><trkpt lat="43.3176077" lon="10.7555375"><ele>66.33333333333333</ele><time>2026-04-18T09:49:35.482Z</time></trkpt><trkpt lat="43.3175523" lon="10.7557281"><ele>66.0</ele><time>2026-04-18T09:49:36.475Z</time></trkpt><trkpt lat="43.3175007" lon="10.7559261"><ele>65.66666666666667</ele><time>2026-04-18T09:49:37.482Z</time></trkpt><trkpt lat="43.3174431" lon="10.7561205"><ele>65.33333333333334</ele><time>2026-04-18T09:49:38.475Z</time></trkpt><trkpt lat="43.3173811" lon="10.7563122"><ele>65.0</ele><time>2026-04-18T09:49:39.478Z</time></trkpt><trkpt lat="43.3173145" lon="10.7564951"><ele>65.0</ele><time>2026-04-18T09:49:40.473Z</time></trkpt><trkpt lat="43.3172451" lon="10.7566946"><ele>65.0</ele><time>2026-04-18T09:49:41.471Z</time></trkpt><trkpt lat="43.3171761" lon="10.7568915"><ele>65.0</ele><time>2026-04-18T09:49:42.49Z</time></trkpt><trkpt lat="43.3171107" lon="10.7571082"><ele>68.0</ele><time>2026-04-18T09:49:43.481Z</time></trkpt><trkpt lat="43.3170438" lon="10.757334"><ele>71.0</ele><time>2026-04-18T09:49:44.475Z</time></trkpt><trkpt lat="43.3169865" lon="10.757567"><ele>74.0</ele><time>2026-04-18T09:49:45.473Z</time></trkpt><trkpt lat="43.3169261" lon="10.7577896"><ele>74.0</ele><time>2026-04-18T09:49:46.462Z</time></trkpt><trkpt lat="43.3168737" lon="10.7580151"><ele>74.0</ele><time>2026-04-18T09:49:47.463Z</time></trkpt><trkpt lat="43.3168313" lon="10.7582295"><ele>74.0</ele><time>2026-04-18T09:49:48.46Z</time></trkpt><trkpt lat="43.3167808" lon="10.7584333"><ele>72.0</ele><time>2026-04-18T09:49:49.468Z</time></trkpt><trkpt lat="43.3167353" lon="10.7586426"><ele>70.0</ele><time>2026-04-18T09:49:50.471Z</time></trkpt><trkpt lat="43.3166928" lon="10.7588496"><ele>68.0</ele><time>2026-04-18T09:49:51.46Z</time></trkpt><trkpt lat="43.3166457" lon="10.7590499"><ele>68.0</ele><time>2026-04-18T09:49:52.469Z</time></trkpt><trkpt lat="43.3166012" lon="10.7592433"><ele>68.0</ele><time>2026-04-18T09:49:53.474Z</time></trkpt><trkpt lat="43.316558" lon="10.7594499"><ele>68.0</ele><time>2026-04-18T09:49:54.467Z</time></trkpt><trkpt lat="43.3165161" lon="10.7596522"><ele>67.33333333333334</ele><time>2026-04-18T09:49:55.465Z</time></trkpt><trkpt lat="43.316487" lon="10.7598619"><ele>66.66666666666667</ele><time>2026-04-18T09:49:56.459Z</time></trkpt><trkpt lat="43.3164465" lon="10.7600779"><ele>66.0</ele><time>2026-04-18T09:49:57.467Z</time></trkpt><trkpt lat="43.3164103" lon="10.760282"><ele>67.39999999999999</ele><time>2026-04-18T09:49:58.464Z</time></trkpt><trkpt lat="43.3163784" lon="10.7604693"><ele>68.8</ele><time>2026-04-18T09:49:59.467Z</time></trkpt><trkpt lat="43.3163416" lon="10.7606342"><ele>70.19999999999999</ele><time>2026-04-18T09:50:00.471Z</time></trkpt><trkpt lat="43.3163164" lon="10.7607745"><ele>71.6</ele><time>2026-04-18T09:50:01.471Z</time></trkpt><trkpt lat="43.3162777" lon="10.7608651"><ele>73.0</ele><time>2026-04-18T09:50:02.48Z</time></trkpt><trkpt lat="43.3162264" lon="10.7609246"><ele>73.0</ele><time>2026-04-18T09:50:03.475Z</time></trkpt><trkpt lat="43.3161037" lon="10.7609823"><ele>73.0</ele><time>2026-04-18T09:50:05.472Z</time></trkpt><trkpt lat="43.3160096" lon="10.7610128"><ele>73.0</ele><time>2026-04-18T09:50:06.469Z</time></trkpt><trkpt lat="43.315909" lon="10.7610384"><ele>73.0</ele><time>2026-04-18T09:50:07.468Z</time></trkpt><trkpt lat="43.3158093" lon="10.7610741"><ele>73.0</ele><time>2026-04-18T09:50:08.478Z</time></trkpt><trkpt lat="43.3157133" lon="10.7611157"><ele>71.75</ele><time>2026-04-18T09:50:09.47Z</time></trkpt><trkpt lat="43.3156035" lon="10.7611591"><ele>70.5</ele><time>2026-04-18T09:50:10.477Z</time></trkpt><trkpt lat="43.3154903" lon="10.7612238"><ele>69.25</ele><time>2026-04-18T09:50:11.475Z</time></trkpt><trkpt lat="43.3153754" lon="10.7612997"><ele>68.0</ele><time>2026-04-18T09:50:12.486Z</time></trkpt><trkpt lat="43.3152727" lon="10.7613946"><ele>67.75</ele><time>2026-04-18T09:50:13.486Z</time></trkpt><trkpt lat="43.3151777" lon="10.7615172"><ele>67.5</ele><time>2026-04-18T09:50:14.465Z</time></trkpt><trkpt lat="43.3150898" lon="10.7616631"><ele>67.25</ele><time>2026-04-18T09:50:15.473Z</time></trkpt><trkpt lat="43.3150032" lon="10.7618012"><ele>67.0</ele><time>2026-04-18T09:50:16.485Z</time></trkpt><trkpt lat="43.314909" lon="10.7619281"><ele>66.75</ele><time>2026-04-18T09:50:17.478Z</time></trkpt><trkpt lat="43.3148099" lon="10.76204"><ele>66.5</ele><time>2026-04-18T09:50:18.485Z</time></trkpt><trkpt lat="43.3147004" lon="10.7621442"><ele>66.25</ele><time>2026-04-18T09:50:19.484Z</time></trkpt><trkpt lat="43.3145853" lon="10.7622373"><ele>66.0</ele><time>2026-04-18T09:50:20.481Z</time></trkpt><trkpt lat="43.314474" lon="10.7623161"><ele>66.75</ele><time>2026-04-18T09:50:21.48Z</time></trkpt><trkpt lat="43.3143595" lon="10.7624158"><ele>67.5</ele><time>2026-04-18T09:50:22.474Z</time></trkpt><trkpt lat="43.314251" lon="10.7625309"><ele>68.25</ele><time>2026-04-18T09:50:23.483Z</time></trkpt><trkpt lat="43.31415" lon="10.7626596"><ele>69.0</ele><time>2026-04-18T09:50:24.474Z</time></trkpt><trkpt lat="43.3140514" lon="10.7627996"><ele>69.0</ele><time>2026-04-18T09:50:25.467Z</time></trkpt><trkpt lat="43.3139538" lon="10.7629494"><ele>69.0</ele><time>2026-04-18T09:50:26.482Z</time></trkpt><trkpt lat="43.3138694" lon="10.7631165"><ele>69.0</ele><time>2026-04-18T09:50:27.476Z</time></trkpt><trkpt lat="43.3137806" lon="10.7632698"><ele>69.0</ele><time>2026-04-18T09:50:28.472Z</time></trkpt><trkpt lat="43.3136912" lon="10.7634035"><ele>70.5</ele><time>2026-04-18T09:50:29.482Z</time></trkpt><trkpt lat="43.3136095" lon="10.7635295"><ele>72.0</ele><time>2026-04-18T09:50:30.472Z</time></trkpt><trkpt lat="43.3135291" lon="10.7636607"><ele>73.5</ele><time>2026-04-18T09:50:31.478Z</time></trkpt><trkpt lat="43.313448" lon="10.7637813"><ele>75.0</ele><time>2026-04-18T09:50:32.458Z</time></trkpt><trkpt lat="43.3133497" lon="10.763884"><ele>75.0</ele><time>2026-04-18T09:50:33.473Z</time></trkpt><trkpt lat="43.3132434" lon="10.7639584"><ele>75.0</ele><time>2026-04-18T09:50:34.478Z</time></trkpt><trkpt lat="43.3131291" lon="10.7640302"><ele>75.0</ele><time>2026-04-18T09:50:35.479Z</time></trkpt><trkpt lat="43.3130148" lon="10.7641073"><ele>75.0</ele><time>2026-04-18T09:50:36.487Z</time></trkpt><trkpt lat="43.3128953" lon="10.7641823"><ele>78.0</ele><time>2026-04-18T09:50:37.484Z</time></trkpt><trkpt lat="43.3127837" lon="10.764258"><ele>81.0</ele><time>2026-04-18T09:50:38.481Z</time></trkpt><trkpt lat="43.3126783" lon="10.764336"><ele>84.0</ele><time>2026-04-18T09:50:39.479Z</time></trkpt><trkpt lat="43.3125821" lon="10.7644326"><ele>87.0</ele><time>2026-04-18T09:50:40.476Z</time></trkpt><trkpt lat="43.3124823" lon="10.7645358"><ele>87.0</ele><time>2026-04-18T09:50:41.477Z</time></trkpt><trkpt lat="43.3123794" lon="10.7646306"><ele>87.0</ele><time>2026-04-18T09:50:42.475Z</time></trkpt><trkpt lat="43.3122793" lon="10.7647371"><ele>87.0</ele><time>2026-04-18T09:50:43.471Z</time></trkpt><trkpt lat="43.31218" lon="10.7648397"><ele>87.0</ele><time>2026-04-18T09:50:44.472Z</time></trkpt><trkpt lat="43.3120954" lon="10.7649492"><ele>90.5</ele><time>2026-04-18T09:50:45.481Z</time></trkpt><trkpt lat="43.3120156" lon="10.7650632"><ele>94.0</ele><time>2026-04-18T09:50:46.471Z</time></trkpt><trkpt lat="43.3119526" lon="10.7651766"><ele>97.5</ele><time>2026-04-18T09:50:47.471Z</time></trkpt><trkpt lat="43.3118887" lon="10.7653173"><ele>101.0</ele><time>2026-04-18T09:50:48.479Z</time></trkpt><trkpt lat="43.3118259" lon="10.7654587"><ele>101.75</ele><time>2026-04-18T09:50:49.475Z</time></trkpt><trkpt lat="43.3117664" lon="10.7656098"><ele>102.5</ele><time>2026-04-18T09:50:50.472Z</time></trkpt><trkpt lat="43.3117065" lon="10.7657606"><ele>103.25</ele><time>2026-04-18T09:50:51.482Z</time></trkpt><trkpt lat="43.3116418" lon="10.7658956"><ele>104.0</ele><time>2026-04-18T09:50:52.474Z</time></trkpt><trkpt lat="43.3115776" lon="10.7660145"><ele>104.80000000000001</ele><time>2026-04-18T09:50:53.477Z</time></trkpt><trkpt lat="43.3115023" lon="10.7661"><ele>105.60000000000001</ele><time>2026-04-18T09:50:54.475Z</time></trkpt><trkpt lat="43.3114188" lon="10.766127"><ele>106.4</ele><time>2026-04-18T09:50:55.467Z</time></trkpt><trkpt lat="43.3113181" lon="10.7661161"><ele>107.2</ele><time>2026-04-18T09:50:56.466Z</time></trkpt><trkpt lat="43.3112193" lon="10.7660967"><ele>108.0</ele><time>2026-04-18T09:50:57.472Z</time></trkpt><trkpt lat="43.3111066" lon="10.7660539"><ele>109.25</ele><time>2026-04-18T09:50:58.481Z</time></trkpt><trkpt lat="43.3109887" lon="10.7660272"><ele>110.5</ele><time>2026-04-18T09:50:59.47Z</time></trkpt><trkpt lat="43.3108774" lon="10.7659942"><ele>111.75</ele><time>2026-04-18T09:51:00.473Z</time></trkpt><trkpt lat="43.3107579" lon="10.7659627"><ele>113.0</ele><time>2026-04-18T09:51:01.467Z</time></trkpt><trkpt lat="43.3106526" lon="10.7659237"><ele>116.25</ele><time>2026-04-18T09:51:02.469Z</time></trkpt><trkpt lat="43.3105554" lon="10.7658674"><ele>119.5</ele><time>2026-04-18T09:51:03.479Z</time></trkpt><trkpt lat="43.3104537" lon="10.7657829"><ele>122.75</ele><time>2026-04-18T09:51:04.489Z</time></trkpt><trkpt lat="43.3103504" lon="10.7656879"><ele>126.0</ele><time>2026-04-18T09:51:05.481Z</time></trkpt><trkpt lat="43.3102558" lon="10.7655917"><ele>126.0</ele><time>2026-04-18T09:51:06.481Z</time></trkpt><trkpt lat="43.3101608" lon="10.7654773"><ele>126.0</ele><time>2026-04-18T09:51:07.496Z</time></trkpt><trkpt lat="43.3100708" lon="10.7653491"><ele>126.0</ele><time>2026-04-18T09:51:08.466Z</time></trkpt><trkpt lat="43.3100015" lon="10.7652011"><ele>126.0</ele><time>2026-04-18T09:51:09.47Z</time></trkpt><trkpt lat="43.30994" lon="10.7650404"><ele>126.25</ele><time>2026-04-18T09:51:10.479Z</time></trkpt><trkpt lat="43.3098833" lon="10.7648733"><ele>126.5</ele><time>2026-04-18T09:51:11.472Z</time></trkpt><trkpt lat="43.3098361" lon="10.7647052"><ele>126.75</ele><time>2026-04-18T09:51:12.476Z</time></trkpt><trkpt lat="43.3097879" lon="10.7645425"><ele>127.0</ele><time>2026-04-18T09:51:13.496Z</time></trkpt><trkpt lat="43.3097377" lon="10.7644005"><ele>128.6</ele><time>2026-04-18T09:51:14.483Z</time></trkpt><trkpt lat="43.30968" lon="10.7642707"><ele>130.2</ele><time>2026-04-18T09:51:15.476Z</time></trkpt><trkpt lat="43.3096085" lon="10.7641715"><ele>131.8</ele><time>2026-04-18T09:51:16.472Z</time></trkpt><trkpt lat="43.3095355" lon="10.7641012"><ele>133.4</ele><time>2026-04-18T09:51:17.487Z</time></trkpt><trkpt lat="43.309458" lon="10.7640955"><ele>135.0</ele><time>2026-04-18T09:51:18.488Z</time></trkpt><trkpt lat="43.3093654" lon="10.7641853"><ele>135.0</ele><time>2026-04-18T09:51:20.48Z</time></trkpt><trkpt lat="43.3092744" lon="10.7643332"><ele>135.0</ele><time>2026-04-18T09:51:22.478Z</time></trkpt><trkpt lat="43.3092055" lon="10.7644077"><ele>135.0</ele><time>2026-04-18T09:51:23.471Z</time></trkpt><trkpt lat="43.3091376" lon="10.764498"><ele>135.0</ele><time>2026-04-18T09:51:24.5Z</time></trkpt><trkpt lat="43.3090675" lon="10.7645756"><ele>135.0</ele><time>2026-04-18T09:51:25.475Z</time></trkpt><trkpt lat="43.3090015" lon="10.7646436"><ele>136.16666666666666</ele><time>2026-04-18T09:51:26.486Z</time></trkpt><trkpt lat="43.3089293" lon="10.7646954"><ele>137.33333333333334</ele><time>2026-04-18T09:51:27.498Z</time></trkpt><trkpt lat="43.3088572" lon="10.7647528"><ele>138.5</ele><time>2026-04-18T09:51:28.482Z</time></trkpt><trkpt lat="43.3087748" lon="10.764817"><ele>139.66666666666669</ele><time>2026-04-18T09:51:29.478Z</time></trkpt><trkpt lat="43.308694" lon="10.7648792"><ele>140.83333333333334</ele><time>2026-04-18T09:51:30.471Z</time></trkpt><trkpt lat="43.3086168" lon="10.7649437"><ele>142.0</ele><time>2026-04-18T09:51:31.473Z</time></trkpt><trkpt lat="43.3085403" lon="10.7650139"><ele>142.0</ele><time>2026-04-18T09:51:32.475Z</time></trkpt><trkpt lat="43.3084613" lon="10.7650832"><ele>142.0</ele><time>2026-04-18T09:51:33.471Z</time></trkpt><trkpt lat="43.3083797" lon="10.7651517"><ele>142.0</ele><time>2026-04-18T09:51:34.47Z</time></trkpt><trkpt lat="43.3082892" lon="10.7652077"><ele>142.0</ele><time>2026-04-18T09:51:35.47Z</time></trkpt><trkpt lat="43.3082012" lon="10.7652731"><ele>142.0</ele><time>2026-04-18T09:51:36.463Z</time></trkpt><trkpt lat="43.3081193" lon="10.7653369"><ele>142.5</ele><time>2026-04-18T09:51:37.469Z</time></trkpt><trkpt lat="43.3080381" lon="10.7654024"><ele>143.0</ele><time>2026-04-18T09:51:38.476Z</time></trkpt><trkpt lat="43.3079695" lon="10.7654594"><ele>143.5</ele><time>2026-04-18T09:51:39.467Z</time></trkpt><trkpt lat="43.3079028" lon="10.7655159"><ele>144.0</ele><time>2026-04-18T09:51:40.485Z</time></trkpt><trkpt lat="43.307825" lon="10.7655764"><ele>144.5</ele><time>2026-04-18T09:51:41.475Z</time></trkpt><trkpt lat="43.3077503" lon="10.7656333"><ele>145.0</ele><time>2026-04-18T09:51:42.47Z</time></trkpt><trkpt lat="43.3076829" lon="10.7656961"><ele>145.0</ele><time>2026-04-18T09:51:43.474Z</time></trkpt><trkpt lat="43.3076145" lon="10.7657673"><ele>145.0</ele><time>2026-04-18T09:51:44.479Z</time></trkpt><trkpt lat="43.3075404" lon="10.7658468"><ele>145.0</ele><time>2026-04-18T09:51:45.464Z</time></trkpt><trkpt lat="43.3074654" lon="10.7659344"><ele>145.0</ele><time>2026-04-18T09:51:46.463Z</time></trkpt><trkpt lat="43.3073914" lon="10.7660258"><ele>145.0</ele><time>2026-04-18T09:51:47.478Z</time></trkpt><trkpt lat="43.3073264" lon="10.7661206"><ele>144.2</ele><time>2026-04-18T09:51:48.482Z</time></trkpt><trkpt lat="43.3072691" lon="10.7662315"><ele>143.4</ele><time>2026-04-18T09:51:49.477Z</time></trkpt><trkpt lat="43.3072107" lon="10.7663506"><ele>142.6</ele><time>2026-04-18T09:51:50.478Z</time></trkpt><trkpt lat="43.3071521" lon="10.7664731"><ele>141.8</ele><time>2026-04-18T09:51:51.467Z</time></trkpt><trkpt lat="43.307092" lon="10.7665987"><ele>141.0</ele><time>2026-04-18T09:51:52.48Z</time></trkpt><trkpt lat="43.3070216" lon="10.7667082"><ele>141.0</ele><time>2026-04-18T09:51:53.477Z</time></trkpt><trkpt lat="43.3069369" lon="10.7668019"><ele>141.0</ele><time>2026-04-18T09:51:54.476Z</time></trkpt><trkpt lat="43.3068507" lon="10.7668784"><ele>141.0</ele><time>2026-04-18T09:51:55.477Z</time></trkpt><trkpt lat="43.3067581" lon="10.7669404"><ele>141.0</ele><time>2026-04-18T09:51:56.474Z</time></trkpt><trkpt lat="43.3066638" lon="10.7669836"><ele>141.0</ele><time>2026-04-18T09:51:57.473Z</time></trkpt><trkpt lat="43.3065629" lon="10.7670189"><ele>140.8</ele><time>2026-04-18T09:51:58.489Z</time></trkpt><trkpt lat="43.3064646" lon="10.7670613"><ele>140.6</ele><time>2026-04-18T09:51:59.507Z</time></trkpt><trkpt lat="43.3063724" lon="10.7671213"><ele>140.4</ele><time>2026-04-18T09:52:00.491Z</time></trkpt><trkpt lat="43.306285" lon="10.7671844"><ele>140.2</ele><time>2026-04-18T09:52:01.473Z</time></trkpt><trkpt lat="43.3061958" lon="10.7672393"><ele>140.0</ele><time>2026-04-18T09:52:02.481Z</time></trkpt><trkpt lat="43.3061113" lon="10.7672888"><ele>140.8</ele><time>2026-04-18T09:52:03.464Z</time></trkpt><trkpt lat="43.3060306" lon="10.7673389"><ele>141.6</ele><time>2026-04-18T09:52:04.478Z</time></trkpt><trkpt lat="43.3059492" lon="10.7673686"><ele>142.4</ele><time>2026-04-18T09:52:05.467Z</time></trkpt><trkpt lat="43.3058656" lon="10.7673881"><ele>143.2</ele><time>2026-04-18T09:52:06.464Z</time></trkpt><trkpt lat="43.3057577" lon="10.7673896"><ele>144.0</ele><time>2026-04-18T09:52:07.473Z</time></trkpt><trkpt lat="43.3056587" lon="10.7673851"><ele>144.8</ele><time>2026-04-18T09:52:08.485Z</time></trkpt><trkpt lat="43.3055665" lon="10.7673849"><ele>145.60000000000002</ele><time>2026-04-18T09:52:09.484Z</time></trkpt><trkpt lat="43.3054668" lon="10.7673773"><ele>146.4</ele><time>2026-04-18T09:52:10.483Z</time></trkpt><trkpt lat="43.3053575" lon="10.7673793"><ele>147.20000000000002</ele><time>2026-04-18T09:52:11.481Z</time></trkpt><trkpt lat="43.3052565" lon="10.7673835"><ele>148.0</ele><time>2026-04-18T09:52:12.474Z</time></trkpt><trkpt lat="43.3051602" lon="10.767392"><ele>148.0</ele><time>2026-04-18T09:52:13.481Z</time></trkpt><trkpt lat="43.3050643" lon="10.7673958"><ele>148.0</ele><time>2026-04-18T09:52:14.482Z</time></trkpt><trkpt lat="43.3049573" lon="10.7673904"><ele>148.0</ele><time>2026-04-18T09:52:15.475Z</time></trkpt><trkpt lat="43.3048561" lon="10.7673678"><ele>148.0</ele><time>2026-04-18T09:52:16.47Z</time></trkpt><trkpt lat="43.3047566" lon="10.7673403"><ele>148.0</ele><time>2026-04-18T09:52:17.47Z</time></trkpt><trkpt lat="43.3046411" lon="10.7672995"><ele>148.6</ele><time>2026-04-18T09:52:18.48Z</time></trkpt><trkpt lat="43.3045272" lon="10.7672601"><ele>149.20000000000002</ele><time>2026-04-18T09:52:19.478Z</time></trkpt><trkpt lat="43.3044202" lon="10.7672091"><ele>149.8</ele><time>2026-04-18T09:52:20.474Z</time></trkpt><trkpt lat="43.3043166" lon="10.7671652"><ele>150.4</ele><time>2026-04-18T09:52:21.478Z</time></trkpt><trkpt lat="43.3042145" lon="10.7671227"><ele>151.0</ele><time>2026-04-18T09:52:22.476Z</time></trkpt><trkpt lat="43.3041166" lon="10.7670936"><ele>151.0</ele><time>2026-04-18T09:52:23.481Z</time></trkpt><trkpt lat="43.3040203" lon="10.7670649"><ele>151.0</ele><time>2026-04-18T09:52:24.487Z</time></trkpt><trkpt lat="43.3039193" lon="10.767064"><ele>151.0</ele><time>2026-04-18T09:52:25.481Z</time></trkpt><trkpt lat="43.3038211" lon="10.767074"><ele>151.0</ele><time>2026-04-18T09:52:26.48Z</time></trkpt><trkpt lat="43.3037141" lon="10.7671061"><ele>151.0</ele><time>2026-04-18T09:52:27.483Z</time></trkpt><trkpt lat="43.3036085" lon="10.7671322"><ele>151.75</ele><time>2026-04-18T09:52:28.465Z</time></trkpt><trkpt lat="43.3035003" lon="10.7671726"><ele>152.5</ele><time>2026-04-18T09:52:29.478Z</time></trkpt><trkpt lat="43.3033883" lon="10.7672205"><ele>153.25</ele><time>2026-04-18T09:52:30.481Z</time></trkpt><trkpt lat="43.3032782" lon="10.76726"><ele>154.0</ele><time>2026-04-18T09:52:31.472Z</time></trkpt><trkpt lat="43.3031637" lon="10.7672992"><ele>154.25</ele><time>2026-04-18T09:52:32.47Z</time></trkpt><trkpt lat="43.3030433" lon="10.7673439"><ele>154.5</ele><time>2026-04-18T09:52:33.48Z</time></trkpt><trkpt lat="43.3029185" lon="10.7673864"><ele>154.75</ele><time>2026-04-18T09:52:34.476Z</time></trkpt><trkpt lat="43.3027988" lon="10.7674242"><ele>155.0</ele><time>2026-04-18T09:52:35.501Z</time></trkpt><trkpt lat="43.3026754" lon="10.7674588"><ele>155.0</ele><time>2026-04-18T09:52:36.47Z</time></trkpt><trkpt lat="43.3025418" lon="10.767503"><ele>155.0</ele><time>2026-04-18T09:52:37.486Z</time></trkpt><trkpt lat="43.3024029" lon="10.767556"><ele>155.0</ele><time>2026-04-18T09:52:38.479Z</time></trkpt><trkpt lat="43.3022616" lon="10.7676129"><ele>155.0</ele><time>2026-04-18T09:52:39.477Z</time></trkpt><trkpt lat="43.3021165" lon="10.7676698"><ele>154.66666666666666</ele><time>2026-04-18T09:52:40.474Z</time></trkpt><trkpt lat="43.3019662" lon="10.7677319"><ele>154.33333333333334</ele><time>2026-04-18T09:52:41.474Z</time></trkpt><trkpt lat="43.3018081" lon="10.7677843"><ele>154.0</ele><time>2026-04-18T09:52:42.469Z</time></trkpt><trkpt lat="43.3016549" lon="10.7678451"><ele>154.0</ele><time>2026-04-18T09:52:43.507Z</time></trkpt><trkpt lat="43.3015042" lon="10.7679015"><ele>154.0</ele><time>2026-04-18T09:52:44.473Z</time></trkpt><trkpt lat="43.301346" lon="10.7679655"><ele>154.0</ele><time>2026-04-18T09:52:45.502Z</time></trkpt><trkpt lat="43.301182" lon="10.7680296"><ele>155.0</ele><time>2026-04-18T09:52:46.476Z</time></trkpt><trkpt lat="43.3010241" lon="10.7680843"><ele>156.0</ele><time>2026-04-18T09:52:47.468Z</time></trkpt><trkpt lat="43.3008723" lon="10.7681381"><ele>157.0</ele><time>2026-04-18T09:52:48.479Z</time></trkpt><trkpt lat="43.3007197" lon="10.7681852"><ele>158.75</ele><time>2026-04-18T09:52:49.471Z</time></trkpt><trkpt lat="43.3005741" lon="10.7682201"><ele>160.5</ele><time>2026-04-18T09:52:50.475Z</time></trkpt><trkpt lat="43.3004342" lon="10.7682507"><ele>162.25</ele><time>2026-04-18T09:52:51.469Z</time></trkpt><trkpt lat="43.3002926" lon="10.7682625"><ele>164.0</ele><time>2026-04-18T09:52:52.472Z</time></trkpt><trkpt lat="43.3001425" lon="10.7682744"><ele>164.0</ele><time>2026-04-18T09:52:53.479Z</time></trkpt><trkpt lat="43.2999987" lon="10.7682834"><ele>164.0</ele><time>2026-04-18T09:52:54.47Z</time></trkpt><trkpt lat="43.2998505" lon="10.7682738"><ele>164.0</ele><time>2026-04-18T09:52:55.478Z</time></trkpt><trkpt lat="43.2997025" lon="10.7682462"><ele>164.0</ele><time>2026-04-18T09:52:56.473Z</time></trkpt><trkpt lat="43.2995499" lon="10.7681924"><ele>166.0</ele><time>2026-04-18T09:52:57.475Z</time></trkpt><trkpt lat="43.2994082" lon="10.7681391"><ele>168.0</ele><time>2026-04-18T09:52:58.474Z</time></trkpt><trkpt lat="43.2992625" lon="10.7680805"><ele>170.0</ele><time>2026-04-18T09:52:59.466Z</time></trkpt><trkpt lat="43.2991148" lon="10.7680208"><ele>170.0</ele><time>2026-04-18T09:53:00.468Z</time></trkpt><trkpt lat="43.2989812" lon="10.7679734"><ele>170.0</ele><time>2026-04-18T09:53:01.473Z</time></trkpt><trkpt lat="43.2988527" lon="10.7679275"><ele>170.0</ele><time>2026-04-18T09:53:02.472Z</time></trkpt><trkpt lat="43.29873" lon="10.7678821"><ele>170.0</ele><time>2026-04-18T09:53:03.476Z</time></trkpt><trkpt lat="43.2986005" lon="10.7678311"><ele>172.5</ele><time>2026-04-18T09:53:04.468Z</time></trkpt><trkpt lat="43.2984773" lon="10.7677656"><ele>175.0</ele><time>2026-04-18T09:53:05.483Z</time></trkpt><trkpt lat="43.2983609" lon="10.7677036"><ele>177.5</ele><time>2026-04-18T09:53:06.463Z</time></trkpt><trkpt lat="43.2982437" lon="10.7676533"><ele>180.0</ele><time>2026-04-18T09:53:07.482Z</time></trkpt><trkpt lat="43.2981212" lon="10.767618"><ele>182.0</ele><time>2026-04-18T09:53:08.476Z</time></trkpt><trkpt lat="43.2980004" lon="10.7676255"><ele>184.0</ele><time>2026-04-18T09:53:09.466Z</time></trkpt><trkpt lat="43.2978721" lon="10.7676595"><ele>186.0</ele><time>2026-04-18T09:53:10.469Z</time></trkpt><trkpt lat="43.2977556" lon="10.7677055"><ele>188.0</ele><time>2026-04-18T09:53:11.478Z</time></trkpt><trkpt lat="43.29764" lon="10.7677503"><ele>188.0</ele><time>2026-04-18T09:53:12.474Z</time></trkpt><trkpt lat="43.2975436" lon="10.7677925"><ele>188.0</ele><time>2026-04-18T09:53:13.475Z</time></trkpt><trkpt lat="43.2974486" lon="10.7678426"><ele>188.0</ele><time>2026-04-18T09:53:14.485Z</time></trkpt><trkpt lat="43.2973517" lon="10.7679154"><ele>188.0</ele><time>2026-04-18T09:53:15.471Z</time></trkpt><trkpt lat="43.2972571" lon="10.7680096"><ele>188.0</ele><time>2026-04-18T09:53:16.47Z</time></trkpt><trkpt lat="43.2971678" lon="10.7681028"><ele>190.4</ele><time>2026-04-18T09:53:17.473Z</time></trkpt><trkpt lat="43.2970801" lon="10.7681891"><ele>192.8</ele><time>2026-04-18T09:53:18.472Z</time></trkpt><trkpt lat="43.2969963" lon="10.7682614"><ele>195.2</ele><time>2026-04-18T09:53:19.476Z</time></trkpt><trkpt lat="43.2969141" lon="10.7683233"><ele>197.6</ele><time>2026-04-18T09:53:20.48Z</time></trkpt><trkpt lat="43.2968301" lon="10.7683846"><ele>200.0</ele><time>2026-04-18T09:53:21.465Z</time></trkpt><trkpt lat="43.2967419" lon="10.7684349"><ele>200.0</ele><time>2026-04-18T09:53:22.478Z</time></trkpt><trkpt lat="43.2966376" lon="10.7684613"><ele>200.0</ele><time>2026-04-18T09:53:23.468Z</time></trkpt><trkpt lat="43.2965321" lon="10.7684672"><ele>200.0</ele><time>2026-04-18T09:53:24.465Z</time></trkpt><trkpt lat="43.2964202" lon="10.7684578"><ele>200.0</ele><time>2026-04-18T09:53:25.472Z</time></trkpt><trkpt lat="43.2963159" lon="10.7684381"><ele>200.0</ele><time>2026-04-18T09:53:26.478Z</time></trkpt><trkpt lat="43.2962067" lon="10.7684253"><ele>200.8</ele><time>2026-04-18T09:53:27.476Z</time></trkpt><trkpt lat="43.2960986" lon="10.7684128"><ele>201.6</ele><time>2026-04-18T09:53:28.476Z</time></trkpt><trkpt lat="43.2959933" lon="10.7684138"><ele>202.39999999999998</ele><time>2026-04-18T09:53:29.481Z</time></trkpt><trkpt lat="43.2958811" lon="10.7684202"><ele>203.2</ele><time>2026-04-18T09:53:30.477Z</time></trkpt><trkpt lat="43.2957709" lon="10.7684155"><ele>204.0</ele><time>2026-04-18T09:53:31.468Z</time></trkpt><trkpt lat="43.2956651" lon="10.76842"><ele>205.25</ele><time>2026-04-18T09:53:32.477Z</time></trkpt><trkpt lat="43.2955553" lon="10.7684345"><ele>206.5</ele><time>2026-04-18T09:53:33.484Z</time></trkpt><trkpt lat="43.2954407" lon="10.7684483"><ele>207.75</ele><time>2026-04-18T09:53:34.476Z</time></trkpt><trkpt lat="43.2953206" lon="10.7684649"><ele>209.0</ele><time>2026-04-18T09:53:35.468Z</time></trkpt><trkpt lat="43.2952026" lon="10.7684869"><ele>209.0</ele><time>2026-04-18T09:53:36.48Z</time></trkpt><trkpt lat="43.2950893" lon="10.7685158"><ele>209.0</ele><time>2026-04-18T09:53:37.474Z</time></trkpt><trkpt lat="43.2949763" lon="10.7685357"><ele>209.0</ele><time>2026-04-18T09:53:38.478Z</time></trkpt><trkpt lat="43.2948659" lon="10.7685427"><ele>209.0</ele><time>2026-04-18T09:53:39.487Z</time></trkpt><trkpt lat="43.2947577" lon="10.7685372"><ele>209.0</ele><time>2026-04-18T09:53:40.475Z</time></trkpt><trkpt lat="43.2946489" lon="10.7685184"><ele>210.25</ele><time>2026-04-18T09:53:41.478Z</time></trkpt><trkpt lat="43.2945324" lon="10.7684991"><ele>211.5</ele><time>2026-04-18T09:53:42.486Z</time></trkpt><trkpt lat="43.294415" lon="10.7684779"><ele>212.75</ele><time>2026-04-18T09:53:43.513Z</time></trkpt><trkpt lat="43.2942997" lon="10.7684836"><ele>214.0</ele><time>2026-04-18T09:53:44.485Z</time></trkpt><trkpt lat="43.294185" lon="10.7685128"><ele>209.5</ele><time>2026-04-18T09:53:45.475Z</time></trkpt><trkpt lat="43.2940644" lon="10.7685553"><ele>205.0</ele><time>2026-04-18T09:53:46.473Z</time></trkpt><trkpt lat="43.2939411" lon="10.7685872"><ele>200.5</ele><time>2026-04-18T09:53:47.484Z</time></trkpt><trkpt lat="43.2938211" lon="10.7685988"><ele>196.0</ele><time>2026-04-18T09:53:48.474Z</time></trkpt><trkpt lat="43.2937032" lon="10.7686098"><ele>196.0</ele><time>2026-04-18T09:53:49.47Z</time></trkpt><trkpt lat="43.293593" lon="10.7686197"><ele>196.0</ele><time>2026-04-18T09:53:50.483Z</time></trkpt><trkpt lat="43.2934864" lon="10.7686302"><ele>196.0</ele><time>2026-04-18T09:53:51.482Z</time></trkpt><trkpt lat="43.2933696" lon="10.7686449"><ele>196.0</ele><time>2026-04-18T09:53:52.492Z</time></trkpt><trkpt lat="43.2932578" lon="10.7686547"><ele>196.0</ele><time>2026-04-18T09:53:53.476Z</time></trkpt><trkpt lat="43.2931509" lon="10.7686496"><ele>196.25</ele><time>2026-04-18T09:53:54.471Z</time></trkpt><trkpt lat="43.2930429" lon="10.7686126"><ele>196.5</ele><time>2026-04-18T09:53:55.477Z</time></trkpt><trkpt lat="43.2929255" lon="10.7685755"><ele>196.75</ele><time>2026-04-18T09:53:56.472Z</time></trkpt><trkpt lat="43.2928091" lon="10.7685522"><ele>197.0</ele><time>2026-04-18T09:53:57.469Z</time></trkpt><trkpt lat="43.2926865" lon="10.7685081"><ele>199.5</ele><time>2026-04-18T09:53:58.479Z</time></trkpt><trkpt lat="43.2925653" lon="10.7684569"><ele>202.0</ele><time>2026-04-18T09:53:59.467Z</time></trkpt><trkpt lat="43.2924547" lon="10.7684033"><ele>204.5</ele><time>2026-04-18T09:54:00.461Z</time></trkpt><trkpt lat="43.2923432" lon="10.7683553"><ele>207.0</ele><time>2026-04-18T09:54:01.473Z</time></trkpt><trkpt lat="43.2922285" lon="10.7683071"><ele>207.0</ele><time>2026-04-18T09:54:02.482Z</time></trkpt><trkpt lat="43.2921156" lon="10.7682623"><ele>207.0</ele><time>2026-04-18T09:54:03.482Z</time></trkpt><trkpt lat="43.2919954" lon="10.7682107"><ele>207.0</ele><time>2026-04-18T09:54:04.469Z</time></trkpt><trkpt lat="43.2918712" lon="10.7681639"><ele>207.0</ele><time>2026-04-18T09:54:05.478Z</time></trkpt><trkpt lat="43.2917433" lon="10.7681376"><ele>207.0</ele><time>2026-04-18T09:54:06.481Z</time></trkpt><trkpt lat="43.2916093" lon="10.7681246"><ele>207.0</ele><time>2026-04-18T09:54:07.472Z</time></trkpt><trkpt lat="43.2914639" lon="10.7681222"><ele>207.0</ele><time>2026-04-18T09:54:08.475Z</time></trkpt><trkpt lat="43.2913212" lon="10.7681215"><ele>207.0</ele><time>2026-04-18T09:54:09.493Z</time></trkpt><trkpt lat="43.2911837" lon="10.7681153"><ele>208.0</ele><time>2026-04-18T09:54:10.481Z</time></trkpt><trkpt lat="43.291034" lon="10.768115"><ele>209.0</ele><time>2026-04-18T09:54:11.475Z</time></trkpt><trkpt lat="43.2908918" lon="10.7681075"><ele>210.0</ele><time>2026-04-18T09:54:12.469Z</time></trkpt><trkpt lat="43.2907582" lon="10.7681049"><ele>211.0</ele><time>2026-04-18T09:54:13.474Z</time></trkpt><trkpt lat="43.2906295" lon="10.7681024"><ele>213.5</ele><time>2026-04-18T09:54:14.472Z</time></trkpt><trkpt lat="43.2905071" lon="10.7681018"><ele>216.0</ele><time>2026-04-18T09:54:15.476Z</time></trkpt><trkpt lat="43.2903841" lon="10.7681042"><ele>218.5</ele><time>2026-04-18T09:54:16.475Z</time></trkpt><trkpt lat="43.2902667" lon="10.7680984"><ele>221.0</ele><time>2026-04-18T09:54:17.472Z</time></trkpt><trkpt lat="43.290145" lon="10.7680933"><ele>221.0</ele><time>2026-04-18T09:54:18.476Z</time></trkpt><trkpt lat="43.2900225" lon="10.7680895"><ele>221.0</ele><time>2026-04-18T09:54:19.47Z</time></trkpt><trkpt lat="43.2899095" lon="10.7680825"><ele>221.0</ele><time>2026-04-18T09:54:20.496Z</time></trkpt><trkpt lat="43.2897977" lon="10.768077"><ele>221.0</ele><time>2026-04-18T09:54:21.477Z</time></trkpt><trkpt lat="43.2896813" lon="10.7680707"><ele>223.5</ele><time>2026-04-18T09:54:22.483Z</time></trkpt><trkpt lat="43.2895615" lon="10.7680705"><ele>226.0</ele><time>2026-04-18T09:54:23.469Z</time></trkpt><trkpt lat="43.2894433" lon="10.7680669"><ele>228.5</ele><time>2026-04-18T09:54:24.475Z</time></trkpt><trkpt lat="43.2893207" lon="10.7680623"><ele>231.0</ele><time>2026-04-18T09:54:25.482Z</time></trkpt><trkpt lat="43.2891989" lon="10.7680681"><ele>231.0</ele><time>2026-04-18T09:54:26.477Z</time></trkpt><trkpt lat="43.2890824" lon="10.7680759"><ele>231.00000000000003</ele><time>2026-04-18T09:54:27.475Z</time></trkpt><trkpt lat="43.2889718" lon="10.7680783"><ele>231.00000000000003</ele><time>2026-04-18T09:54:28.48Z</time></trkpt><trkpt lat="43.2888664" lon="10.7680752"><ele>231.0</ele><time>2026-04-18T09:54:29.471Z</time></trkpt><trkpt lat="43.2887637" lon="10.7680567"><ele>231.0</ele><time>2026-04-18T09:54:30.481Z</time></trkpt><trkpt lat="43.2886605" lon="10.7680127"><ele>232.20000000000002</ele><time>2026-04-18T09:54:31.475Z</time></trkpt><trkpt lat="43.2885782" lon="10.7679373"><ele>233.40000000000003</ele><time>2026-04-18T09:54:32.47Z</time></trkpt><trkpt lat="43.2884948" lon="10.7678645"><ele>234.6</ele><time>2026-04-18T09:54:33.469Z</time></trkpt><trkpt lat="43.2884135" lon="10.7677615"><ele>235.8</ele><time>2026-04-18T09:54:34.48Z</time></trkpt><trkpt lat="43.2883447" lon="10.7676532"><ele>237.0</ele><time>2026-04-18T09:54:35.475Z</time></trkpt><trkpt lat="43.2882734" lon="10.767548"><ele>239.6</ele><time>2026-04-18T09:54:36.469Z</time></trkpt><trkpt lat="43.2882159" lon="10.7674349"><ele>242.2</ele><time>2026-04-18T09:54:37.467Z</time></trkpt><trkpt lat="43.2881552" lon="10.7673121"><ele>244.8</ele><time>2026-04-18T09:54:38.461Z</time></trkpt><trkpt lat="43.288112" lon="10.767183"><ele>247.4</ele><time>2026-04-18T09:54:39.467Z</time></trkpt><trkpt lat="43.2880917" lon="10.7670538"><ele>250.0</ele><time>2026-04-18T09:54:40.47Z</time></trkpt><trkpt lat="43.2880651" lon="10.7669207"><ele>253.75</ele><time>2026-04-18T09:54:41.482Z</time></trkpt><trkpt lat="43.2880296" lon="10.7667788"><ele>257.5</ele><time>2026-04-18T09:54:42.461Z</time></trkpt><trkpt lat="43.2879829" lon="10.7666399"><ele>261.25</ele><time>2026-04-18T09:54:43.486Z</time></trkpt><trkpt lat="43.2879248" lon="10.766499"><ele>265.0</ele><time>2026-04-18T09:54:44.464Z</time></trkpt><trkpt lat="43.2878426" lon="10.7663777"><ele>265.0</ele><time>2026-04-18T09:54:45.472Z</time></trkpt><trkpt lat="43.2877478" lon="10.7662787"><ele>265.0</ele><time>2026-04-18T09:54:46.47Z</time></trkpt><trkpt lat="43.2876439" lon="10.7661783"><ele>265.0</ele><time>2026-04-18T09:54:47.465Z</time></trkpt><trkpt lat="43.2875306" lon="10.7660828"><ele>265.0</ele><time>2026-04-18T09:54:48.475Z</time></trkpt><trkpt lat="43.2874147" lon="10.765997"><ele>266.8</ele><time>2026-04-18T09:54:49.481Z</time></trkpt><trkpt lat="43.2873081" lon="10.7659082"><ele>268.6</ele><time>2026-04-18T09:54:50.47Z</time></trkpt><trkpt lat="43.2872111" lon="10.7658412"><ele>270.4</ele><time>2026-04-18T09:54:51.482Z</time></trkpt><trkpt lat="43.2871189" lon="10.7657733"><ele>272.2</ele><time>2026-04-18T09:54:52.476Z</time></trkpt><trkpt lat="43.2870296" lon="10.7657239"><ele>274.0</ele><time>2026-04-18T09:54:53.469Z</time></trkpt><trkpt lat="43.2869359" lon="10.7656992"><ele>275.0</ele><time>2026-04-18T09:54:54.477Z</time></trkpt><trkpt lat="43.2868335" lon="10.7656854"><ele>276.0</ele><time>2026-04-18T09:54:55.476Z</time></trkpt><trkpt lat="43.2867289" lon="10.7656626"><ele>277.0</ele><time>2026-04-18T09:54:56.475Z</time></trkpt><trkpt lat="43.2866236" lon="10.7656511"><ele>278.0</ele><time>2026-04-18T09:54:57.472Z</time></trkpt><trkpt lat="43.2865212" lon="10.7656239"><ele>279.0</ele><time>2026-04-18T09:54:58.466Z</time></trkpt><trkpt lat="43.28641" lon="10.7655987"><ele>279.59999999999997</ele><time>2026-04-18T09:54:59.463Z</time></trkpt><trkpt lat="43.2862953" lon="10.7655932"><ele>280.2</ele><time>2026-04-18T09:55:00.475Z</time></trkpt><trkpt lat="43.2861829" lon="10.7655898"><ele>280.79999999999995</ele><time>2026-04-18T09:55:01.469Z</time></trkpt><trkpt lat="43.2860723" lon="10.7655945"><ele>281.4</ele><time>2026-04-18T09:55:02.475Z</time></trkpt><trkpt lat="43.2859663" lon="10.765591"><ele>282.0</ele><time>2026-04-18T09:55:03.49Z</time></trkpt><trkpt lat="43.2858478" lon="10.7655937"><ele>282.0</ele><time>2026-04-18T09:55:04.475Z</time></trkpt><trkpt lat="43.2857228" lon="10.7655819"><ele>282.0</ele><time>2026-04-18T09:55:05.472Z</time></trkpt><trkpt lat="43.2856004" lon="10.7655633"><ele>282.0</ele><time>2026-04-18T09:55:06.485Z</time></trkpt><trkpt lat="43.2854752" lon="10.7655284"><ele>282.0</ele><time>2026-04-18T09:55:07.474Z</time></trkpt><trkpt lat="43.2853467" lon="10.7654868"><ele>282.25</ele><time>2026-04-18T09:55:08.474Z</time></trkpt><trkpt lat="43.2852144" lon="10.7654473"><ele>282.5</ele><time>2026-04-18T09:55:09.481Z</time></trkpt><trkpt lat="43.2850889" lon="10.7654143"><ele>282.75</ele><time>2026-04-18T09:55:10.476Z</time></trkpt><trkpt lat="43.2849711" lon="10.76539"><ele>283.0</ele><time>2026-04-18T09:55:11.474Z</time></trkpt><trkpt lat="43.2848508" lon="10.7653437"><ele>285.5</ele><time>2026-04-18T09:55:12.477Z</time></trkpt><trkpt lat="43.2847357" lon="10.7653093"><ele>288.0</ele><time>2026-04-18T09:55:13.472Z</time></trkpt><trkpt lat="43.2846257" lon="10.765266"><ele>290.5</ele><time>2026-04-18T09:55:14.465Z</time></trkpt><trkpt lat="43.284517" lon="10.765217"><ele>293.0</ele><time>2026-04-18T09:55:15.471Z</time></trkpt><trkpt lat="43.2844012" lon="10.7651706"><ele>296.0</ele><time>2026-04-18T09:55:16.469Z</time></trkpt><trkpt lat="43.2842901" lon="10.7651287"><ele>299.0</ele><time>2026-04-18T09:55:17.478Z</time></trkpt><trkpt lat="43.2841765" lon="10.7650926"><ele>302.0</ele><time>2026-04-18T09:55:18.471Z</time></trkpt><trkpt lat="43.2840573" lon="10.7650659"><ele>305.0</ele><time>2026-04-18T09:55:19.476Z</time></trkpt><trkpt lat="43.2839417" lon="10.7650668"><ele>305.83333333333337</ele><time>2026-04-18T09:55:20.474Z</time></trkpt><trkpt lat="43.2838403" lon="10.7650688"><ele>306.6666666666667</ele><time>2026-04-18T09:55:21.475Z</time></trkpt><trkpt lat="43.2837503" lon="10.7650731"><ele>307.5</ele><time>2026-04-18T09:55:22.467Z</time></trkpt><trkpt lat="43.2836648" lon="10.7650708"><ele>308.3333333333333</ele><time>2026-04-18T09:55:23.469Z</time></trkpt><trkpt lat="43.2835871" lon="10.7650647"><ele>309.16666666666663</ele><time>2026-04-18T09:55:24.471Z</time></trkpt><trkpt lat="43.2835197" lon="10.7650716"><ele>310.0</ele><time>2026-04-18T09:55:25.457Z</time></trkpt><trkpt lat="43.2834466" lon="10.7651057"><ele>310.0</ele><time>2026-04-18T09:55:26.464Z</time></trkpt><trkpt lat="43.2833869" lon="10.7651556"><ele>310.0</ele><time>2026-04-18T09:55:27.463Z</time></trkpt><trkpt lat="43.2833416" lon="10.76523"><ele>310.0</ele><time>2026-04-18T09:55:28.466Z</time></trkpt><trkpt lat="43.2833176" lon="10.7653115"><ele>310.0</ele><time>2026-04-18T09:55:29.472Z</time></trkpt><trkpt lat="43.2833063" lon="10.7654011"><ele>310.0</ele><time>2026-04-18T09:55:30.461Z</time></trkpt><trkpt lat="43.2833061" lon="10.7654881"><ele>310.0</ele><time>2026-04-18T09:55:31.466Z</time></trkpt><trkpt lat="43.2833105" lon="10.7655872"><ele>310.0</ele><time>2026-04-18T09:55:32.464Z</time></trkpt><trkpt lat="43.2833096" lon="10.7656919"><ele>309.66666666666663</ele><time>2026-04-18T09:55:33.46Z</time></trkpt><trkpt lat="43.2833069" lon="10.7657982"><ele>309.3333333333333</ele><time>2026-04-18T09:55:34.467Z</time></trkpt><trkpt lat="43.2833127" lon="10.7659194"><ele>309.0</ele><time>2026-04-18T09:55:35.458Z</time></trkpt><trkpt lat="43.2833307" lon="10.7660396"><ele>308.6666666666667</ele><time>2026-04-18T09:55:36.46Z</time></trkpt><trkpt lat="43.2833593" lon="10.7661591"><ele>308.33333333333337</ele><time>2026-04-18T09:55:37.464Z</time></trkpt><trkpt lat="43.2833871" lon="10.7662777"><ele>308.0</ele><time>2026-04-18T09:55:38.468Z</time></trkpt><trkpt lat="43.2834263" lon="10.7663856"><ele>309.8</ele><time>2026-04-18T09:55:39.466Z</time></trkpt><trkpt lat="43.2834668" lon="10.7664991"><ele>311.6</ele><time>2026-04-18T09:55:40.465Z</time></trkpt><trkpt lat="43.2835059" lon="10.7666133"><ele>313.4</ele><time>2026-04-18T09:55:41.47Z</time></trkpt><trkpt lat="43.2835524" lon="10.7667328"><ele>315.2</ele><time>2026-04-18T09:55:42.458Z</time></trkpt><trkpt lat="43.2835916" lon="10.7668446"><ele>317.0</ele><time>2026-04-18T09:55:43.466Z</time></trkpt><trkpt lat="43.283604" lon="10.766967"><ele>317.0</ele><time>2026-04-18T09:55:44.474Z</time></trkpt><trkpt lat="43.2835915" lon="10.7671025"><ele>317.0</ele><time>2026-04-18T09:55:45.476Z</time></trkpt><trkpt lat="43.2835718" lon="10.7672374"><ele>317.0</ele><time>2026-04-18T09:55:46.468Z</time></trkpt><trkpt lat="43.2835523" lon="10.767391"><ele>317.0</ele><time>2026-04-18T09:55:47.465Z</time></trkpt><trkpt lat="43.2835352" lon="10.7675375"><ele>317.0</ele><time>2026-04-18T09:55:48.473Z</time></trkpt><trkpt lat="43.283522" lon="10.7676911"><ele>316.2</ele><time>2026-04-18T09:55:49.476Z</time></trkpt><trkpt lat="43.2835046" lon="10.7678372"><ele>315.4</ele><time>2026-04-18T09:55:50.46Z</time></trkpt><trkpt lat="43.2834731" lon="10.7679795"><ele>314.6</ele><time>2026-04-18T09:55:51.47Z</time></trkpt><trkpt lat="43.2834147" lon="10.7681075"><ele>313.8</ele><time>2026-04-18T09:55:52.468Z</time></trkpt><trkpt lat="43.2833345" lon="10.7682155"><ele>313.0</ele><time>2026-04-18T09:55:53.464Z</time></trkpt><trkpt lat="43.2832512" lon="10.7683373"><ele>313.0</ele><time>2026-04-18T09:55:54.476Z</time></trkpt><trkpt lat="43.2831672" lon="10.7684297"><ele>313.0</ele><time>2026-04-18T09:55:55.469Z</time></trkpt><trkpt lat="43.2830732" lon="10.768473"><ele>313.0</ele><time>2026-04-18T09:55:56.46Z</time></trkpt><trkpt lat="43.2829687" lon="10.7685032"><ele>313.0</ele><time>2026-04-18T09:55:57.475Z</time></trkpt><trkpt lat="43.2828667" lon="10.7685354"><ele>313.0</ele><time>2026-04-18T09:55:58.472Z</time></trkpt><trkpt lat="43.2827475" lon="10.7685736"><ele>314.0</ele><time>2026-04-18T09:55:59.472Z</time></trkpt><trkpt lat="43.2826229" lon="10.7686089"><ele>315.0</ele><time>2026-04-18T09:56:00.485Z</time></trkpt><trkpt lat="43.2824977" lon="10.7686523"><ele>316.0</ele><time>2026-04-18T09:56:01.485Z</time></trkpt><trkpt lat="43.2823856" lon="10.7687073"><ele>317.0</ele><time>2026-04-18T09:56:02.469Z</time></trkpt><trkpt lat="43.2822898" lon="10.7687764"><ele>321.5</ele><time>2026-04-18T09:56:03.48Z</time></trkpt><trkpt lat="43.2822016" lon="10.7688957"><ele>326.0</ele><time>2026-04-18T09:56:04.475Z</time></trkpt><trkpt lat="43.282117" lon="10.7690164"><ele>330.5</ele><time>2026-04-18T09:56:05.499Z</time></trkpt><trkpt lat="43.2820338" lon="10.7691335"><ele>335.0</ele><time>2026-04-18T09:56:06.473Z</time></trkpt><trkpt lat="43.2819484" lon="10.76925"><ele>335.0</ele><time>2026-04-18T09:56:07.465Z</time></trkpt><trkpt lat="43.2818609" lon="10.7693543"><ele>335.0</ele><time>2026-04-18T09:56:08.469Z</time></trkpt><trkpt lat="43.2817641" lon="10.7694377"><ele>335.0</ele><time>2026-04-18T09:56:09.479Z</time></trkpt><trkpt lat="43.2816565" lon="10.7694804"><ele>335.0</ele><time>2026-04-18T09:56:10.47Z</time></trkpt><trkpt lat="43.2815289" lon="10.7695135"><ele>335.5</ele><time>2026-04-18T09:56:11.47Z</time></trkpt><trkpt lat="43.2814037" lon="10.7695426"><ele>336.0</ele><time>2026-04-18T09:56:12.473Z</time></trkpt><trkpt lat="43.2812735" lon="10.7695794"><ele>336.5</ele><time>2026-04-18T09:56:13.478Z</time></trkpt><trkpt lat="43.2811311" lon="10.7696361"><ele>337.0</ele><time>2026-04-18T09:56:14.474Z</time></trkpt><trkpt lat="43.2810024" lon="10.7697164"><ele>337.0</ele><time>2026-04-18T09:56:15.481Z</time></trkpt><trkpt lat="43.2808998" lon="10.7698161"><ele>337.0</ele><time>2026-04-18T09:56:16.477Z</time></trkpt><trkpt lat="43.2808218" lon="10.76993"><ele>337.0</ele><time>2026-04-18T09:56:17.473Z</time></trkpt><trkpt lat="43.2807673" lon="10.7700625"><ele>337.0</ele><time>2026-04-18T09:56:18.465Z</time></trkpt><trkpt lat="43.2807445" lon="10.7702011"><ele>336.0</ele><time>2026-04-18T09:56:19.478Z</time></trkpt><trkpt lat="43.2807273" lon="10.7703325"><ele>335.0</ele><time>2026-04-18T09:56:20.487Z</time></trkpt><trkpt lat="43.2807149" lon="10.7704624"><ele>334.0</ele><time>2026-04-18T09:56:21.472Z</time></trkpt><trkpt lat="43.2807288" lon="10.7706004"><ele>333.0</ele><time>2026-04-18T09:56:22.485Z</time></trkpt><trkpt lat="43.2807453" lon="10.7707427"><ele>332.0</ele><time>2026-04-18T09:56:23.476Z</time></trkpt><trkpt lat="43.2807513" lon="10.7708807"><ele>332.0</ele><time>2026-04-18T09:56:24.481Z</time></trkpt><trkpt lat="43.2807507" lon="10.7710233"><ele>332.0</ele><time>2026-04-18T09:56:25.478Z</time></trkpt><trkpt lat="43.2807476" lon="10.7711771"><ele>332.0</ele><time>2026-04-18T09:56:26.465Z</time></trkpt><trkpt lat="43.2807442" lon="10.7713145"><ele>332.0</ele><time>2026-04-18T09:56:27.47Z</time></trkpt><trkpt lat="43.2807489" lon="10.7714521"><ele>332.0</ele><time>2026-04-18T09:56:28.465Z</time></trkpt><trkpt lat="43.2807658" lon="10.7715841"><ele>332.40000000000003</ele><time>2026-04-18T09:56:29.47Z</time></trkpt><trkpt lat="43.2808061" lon="10.7717047"><ele>332.8</ele><time>2026-04-18T09:56:30.462Z</time></trkpt><trkpt lat="43.2808679" lon="10.7718128"><ele>333.2</ele><time>2026-04-18T09:56:31.463Z</time></trkpt><trkpt lat="43.2809447" lon="10.771911"><ele>333.6</ele><time>2026-04-18T09:56:32.469Z</time></trkpt><trkpt lat="43.2810336" lon="10.7719951"><ele>334.0</ele><time>2026-04-18T09:56:33.472Z</time></trkpt><trkpt lat="43.2811215" lon="10.772081"><ele>332.79999999999995</ele><time>2026-04-18T09:56:34.468Z</time></trkpt><trkpt lat="43.2812077" lon="10.7721698"><ele>331.59999999999997</ele><time>2026-04-18T09:56:35.467Z</time></trkpt><trkpt lat="43.2812799" lon="10.7722572"><ele>330.4</ele><time>2026-04-18T09:56:36.457Z</time></trkpt><trkpt lat="43.2813399" lon="10.7723781"><ele>329.2</ele><time>2026-04-18T09:56:37.459Z</time></trkpt><trkpt lat="43.2813906" lon="10.7725077"><ele>328.0</ele><time>2026-04-18T09:56:38.477Z</time></trkpt><trkpt lat="43.2814379" lon="10.7726318"><ele>330.0</ele><time>2026-04-18T09:56:39.495Z</time></trkpt><trkpt lat="43.2814614" lon="10.7727601"><ele>332.0</ele><time>2026-04-18T09:56:40.471Z</time></trkpt><trkpt lat="43.2814876" lon="10.7728935"><ele>334.0</ele><time>2026-04-18T09:56:41.47Z</time></trkpt><trkpt lat="43.281471" lon="10.7730385"><ele>336.0</ele><time>2026-04-18T09:56:42.469Z</time></trkpt><trkpt lat="43.2814405" lon="10.7731693"><ele>338.0</ele><time>2026-04-18T09:56:43.494Z</time></trkpt><trkpt lat="43.2814126" lon="10.7733112"><ele>338.0</ele><time>2026-04-18T09:56:44.477Z</time></trkpt><trkpt lat="43.28144" lon="10.7734455"><ele>338.0</ele><time>2026-04-18T09:56:45.469Z</time></trkpt><trkpt lat="43.2814842" lon="10.7735821"><ele>338.0</ele><time>2026-04-18T09:56:46.463Z</time></trkpt><trkpt lat="43.281526" lon="10.7737098"><ele>338.0</ele><time>2026-04-18T09:56:47.476Z</time></trkpt><trkpt lat="43.2815561" lon="10.7738263"><ele>338.0</ele><time>2026-04-18T09:56:48.463Z</time></trkpt><trkpt lat="43.2815612" lon="10.7739546"><ele>339.2</ele><time>2026-04-18T09:56:49.47Z</time></trkpt><trkpt lat="43.2815368" lon="10.7740967"><ele>340.4</ele><time>2026-04-18T09:56:50.467Z</time></trkpt><trkpt lat="43.2814961" lon="10.7742351"><ele>341.59999999999997</ele><time>2026-04-18T09:56:51.469Z</time></trkpt><trkpt lat="43.2814495" lon="10.7743738"><ele>342.79999999999995</ele><time>2026-04-18T09:56:52.47Z</time></trkpt><trkpt lat="43.2814165" lon="10.7745243"><ele>344.0</ele><time>2026-04-18T09:56:53.466Z</time></trkpt><trkpt lat="43.2813821" lon="10.7746934"><ele>349.2</ele><time>2026-04-18T09:56:54.481Z</time></trkpt><trkpt lat="43.2813616" lon="10.7748159"><ele>354.4</ele><time>2026-04-18T09:56:55.472Z</time></trkpt><trkpt lat="43.2813275" lon="10.7749614"><ele>359.6</ele><time>2026-04-18T09:56:56.471Z</time></trkpt><trkpt lat="43.2812931" lon="10.7750879"><ele>364.8</ele><time>2026-04-18T09:56:57.458Z</time></trkpt><trkpt lat="43.2812591" lon="10.7752268"><ele>370.0</ele><time>2026-04-18T09:56:58.472Z</time></trkpt><trkpt lat="43.2812224" lon="10.7753782"><ele>370.0</ele><time>2026-04-18T09:56:59.467Z</time></trkpt><trkpt lat="43.2811806" lon="10.7755299"><ele>370.0</ele><time>2026-04-18T09:57:00.475Z</time></trkpt><trkpt lat="43.2811551" lon="10.775672"><ele>370.0</ele><time>2026-04-18T09:57:01.475Z</time></trkpt><trkpt lat="43.281136" lon="10.7758295"><ele>370.0</ele><time>2026-04-18T09:57:02.477Z</time></trkpt><trkpt lat="43.2811292" lon="10.7760038"><ele>371.25</ele><time>2026-04-18T09:57:03.465Z</time></trkpt><trkpt lat="43.2811265" lon="10.7761796"><ele>372.5</ele><time>2026-04-18T09:57:04.465Z</time></trkpt><trkpt lat="43.2811193" lon="10.7763497"><ele>373.75</ele><time>2026-04-18T09:57:05.471Z</time></trkpt><trkpt lat="43.2810984" lon="10.7765148"><ele>375.0</ele><time>2026-04-18T09:57:06.457Z</time></trkpt><trkpt lat="43.2810759" lon="10.7766866"><ele>377.25</ele><time>2026-04-18T09:57:07.461Z</time></trkpt><trkpt lat="43.2810564" lon="10.7768589"><ele>379.5</ele><time>2026-04-18T09:57:08.455Z</time></trkpt><trkpt lat="43.2810492" lon="10.7770468"><ele>381.75</ele><time>2026-04-18T09:57:09.459Z</time></trkpt><trkpt lat="43.2810538" lon="10.7772159"><ele>384.0</ele><time>2026-04-18T09:57:10.463Z</time></trkpt><trkpt lat="43.2810663" lon="10.7773998"><ele>384.0</ele><time>2026-04-18T09:57:11.462Z</time></trkpt><trkpt lat="43.2810832" lon="10.7775772"><ele>384.0</ele><time>2026-04-18T09:57:12.457Z</time></trkpt><trkpt lat="43.2811113" lon="10.7777601"><ele>384.0</ele><time>2026-04-18T09:57:13.455Z</time></trkpt><trkpt lat="43.2811515" lon="10.7779413"><ele>384.0</ele><time>2026-04-18T09:57:14.45Z</time></trkpt><trkpt lat="43.2811878" lon="10.7781259"><ele>386.25</ele><time>2026-04-18T09:57:15.466Z</time></trkpt><trkpt lat="43.2812135" lon="10.7783068"><ele>388.5</ele><time>2026-04-18T09:57:16.456Z</time></trkpt><trkpt lat="43.2812434" lon="10.7784956"><ele>390.75</ele><time>2026-04-18T09:57:17.456Z</time></trkpt><trkpt lat="43.2812588" lon="10.7786933"><ele>393.0</ele><time>2026-04-18T09:57:18.454Z</time></trkpt><trkpt lat="43.2812633" lon="10.7788821"><ele>392.59999999999997</ele><time>2026-04-18T09:57:19.448Z</time></trkpt><trkpt lat="43.2812703" lon="10.779061"><ele>392.2</ele><time>2026-04-18T09:57:20.458Z</time></trkpt><trkpt lat="43.2812781" lon="10.7792162"><ele>391.8</ele><time>2026-04-18T09:57:21.467Z</time></trkpt><trkpt lat="43.2813138" lon="10.7793478"><ele>391.4</ele><time>2026-04-18T09:57:22.474Z</time></trkpt><trkpt lat="43.2813302" lon="10.779468"><ele>391.0</ele><time>2026-04-18T09:57:23.462Z</time></trkpt><trkpt lat="43.281325" lon="10.7795866"><ele>391.0</ele><time>2026-04-18T09:57:25.456Z</time></trkpt><trkpt lat="43.2813389" lon="10.7796756"><ele>391.0</ele><time>2026-04-18T09:57:27.462Z</time></trkpt><trkpt lat="43.281362" lon="10.7797766"><ele>391.0</ele><time>2026-04-18T09:57:30.457Z</time></trkpt><trkpt lat="43.2813841" lon="10.7799122"><ele>391.0</ele><time>2026-04-18T09:57:32.448Z</time></trkpt><trkpt lat="43.2814135" lon="10.7800704"><ele>391.0</ele><time>2026-04-18T09:57:34.454Z</time></trkpt><trkpt lat="43.281485" lon="10.7802121"><ele>391.8</ele><time>2026-04-18T09:57:36.486Z</time></trkpt><trkpt lat="43.2815537" lon="10.7802507"><ele>392.6</ele><time>2026-04-18T09:57:37.465Z</time></trkpt><trkpt lat="43.2816363" lon="10.7803442"><ele>393.4</ele><time>2026-04-18T09:57:39.455Z</time></trkpt><trkpt lat="43.2817069" lon="10.7804459"><ele>394.2</ele><time>2026-04-18T09:57:41.477Z</time></trkpt><trkpt lat="43.2817668" lon="10.780606"><ele>395.0</ele><time>2026-04-18T09:57:43.488Z</time></trkpt><trkpt lat="43.2817923" lon="10.7807036"><ele>394.99999999999994</ele><time>2026-04-18T09:57:44.481Z</time></trkpt><trkpt lat="43.2818089" lon="10.7808007"><ele>395.0</ele><time>2026-04-18T09:57:45.469Z</time></trkpt><trkpt lat="43.2818338" lon="10.7809656"><ele>395.0</ele><time>2026-04-18T09:57:47.469Z</time></trkpt><trkpt lat="43.2818655" lon="10.7810598"><ele>395.0</ele><time>2026-04-18T09:57:48.492Z</time></trkpt><trkpt lat="43.2818945" lon="10.7811527"><ele>394.99999999999994</ele><time>2026-04-18T09:57:49.46Z</time></trkpt><trkpt lat="43.2819216" lon="10.7812416"><ele>395.0</ele><time>2026-04-18T09:57:50.466Z</time></trkpt><trkpt lat="43.2819445" lon="10.7813405"><ele>394.66666666666663</ele><time>2026-04-18T09:57:51.455Z</time></trkpt><trkpt lat="43.2819716" lon="10.7814409"><ele>394.3333333333333</ele><time>2026-04-18T09:57:52.47Z</time></trkpt><trkpt lat="43.2819896" lon="10.7815333"><ele>394.0</ele><time>2026-04-18T09:57:53.465Z</time></trkpt><trkpt lat="43.2820194" lon="10.7816776"><ele>393.66666666666663</ele><time>2026-04-18T09:57:55.476Z</time></trkpt><trkpt lat="43.2820617" lon="10.7817693"><ele>393.3333333333333</ele><time>2026-04-18T09:57:58.466Z</time></trkpt><trkpt lat="43.2821193" lon="10.7818363"><ele>393.0</ele><time>2026-04-18T09:58:01.471Z</time></trkpt><trkpt lat="43.2821876" lon="10.7819389"><ele>392.3333333333333</ele><time>2026-04-18T09:58:03.466Z</time></trkpt><trkpt lat="43.2822566" lon="10.7820491"><ele>391.66666666666663</ele><time>2026-04-18T09:58:05.468Z</time></trkpt><trkpt lat="43.2823326" lon="10.7821872"><ele>391.0</ele><time>2026-04-18T09:58:07.469Z</time></trkpt><trkpt lat="43.2823704" lon="10.7822607"><ele>390.3333333333333</ele><time>2026-04-18T09:58:08.473Z</time></trkpt><trkpt lat="43.2824304" lon="10.7823438"><ele>389.66666666666663</ele><time>2026-04-18T09:58:10.467Z</time></trkpt><trkpt lat="43.2823879" lon="10.7822783"><ele>389.0</ele><time>2026-04-18T09:58:15.474Z</time></trkpt><trkpt lat="43.2824457" lon="10.7822325"><ele>389.0</ele><time>2026-04-18T09:58:25.474Z</time></trkpt><trkpt lat="43.2823514" lon="10.7821743"><ele>389.0</ele><time>2026-04-18T09:58:37.469Z</time></trkpt><trkpt lat="43.2822667" lon="10.782063"><ele>389.0</ele><time>2026-04-18T09:58:39.481Z</time></trkpt><trkpt lat="43.2821983" lon="10.7819491"><ele>389.0</ele><time>2026-04-18T09:58:41.471Z</time></trkpt><trkpt lat="43.2821204" lon="10.7818269"><ele>389.0</ele><time>2026-04-18T09:58:43.479Z</time></trkpt><trkpt lat="43.2820677" lon="10.7817187"><ele>389.79999999999995</ele><time>2026-04-18T09:58:45.471Z</time></trkpt><trkpt lat="43.2820379" lon="10.7816205"><ele>390.59999999999997</ele><time>2026-04-18T09:58:47.474Z</time></trkpt><trkpt lat="43.2819989" lon="10.781496"><ele>391.4</ele><time>2026-04-18T09:58:49.463Z</time></trkpt><trkpt lat="43.2819463" lon="10.7813458"><ele>392.2</ele><time>2026-04-18T09:58:51.47Z</time></trkpt><trkpt lat="43.2819089" lon="10.7811879"><ele>393.0</ele><time>2026-04-18T09:58:53.474Z</time></trkpt><trkpt lat="43.281875" lon="10.7810606"><ele>393.3333333333333</ele><time>2026-04-18T09:58:55.464Z</time></trkpt><trkpt lat="43.2818466" lon="10.7809629"><ele>393.66666666666663</ele><time>2026-04-18T09:58:57.485Z</time></trkpt><trkpt lat="43.2818092" lon="10.7808685"><ele>394.0</ele><time>2026-04-18T09:58:59.471Z</time></trkpt><trkpt lat="43.2817702" lon="10.7807383"><ele>394.3333333333333</ele><time>2026-04-18T09:59:01.466Z</time></trkpt><trkpt lat="43.281732" lon="10.780647"><ele>394.66666666666663</ele><time>2026-04-18T09:59:03.479Z</time></trkpt><trkpt lat="43.281728" lon="10.7807351"><ele>395.0</ele><time>2026-04-18T09:59:16.476Z</time></trkpt><trkpt lat="43.2817816" lon="10.7808961"><ele>394.6</ele><time>2026-04-18T09:59:19.463Z</time></trkpt><trkpt lat="43.2818407" lon="10.781022"><ele>394.2</ele><time>2026-04-18T09:59:21.477Z</time></trkpt><trkpt lat="43.2819074" lon="10.7811026"><ele>393.79999999999995</ele><time>2026-04-18T09:59:23.463Z</time></trkpt><trkpt lat="43.2819792" lon="10.7811765"><ele>393.4</ele><time>2026-04-18T09:59:25.468Z</time></trkpt><trkpt lat="43.2820488" lon="10.7812963"><ele>393.0</ele><time>2026-04-18T09:59:27.473Z</time></trkpt><trkpt lat="43.2820978" lon="10.7813523"><ele>393.0</ele><time>2026-04-18T09:59:28.471Z</time></trkpt><trkpt lat="43.2821946" lon="10.7814425"><ele>393.0</ele><time>2026-04-18T09:59:30.465Z</time></trkpt><trkpt lat="43.2822817" lon="10.7814657"><ele>393.0</ele><time>2026-04-18T09:59:32.475Z</time></trkpt><trkpt lat="43.2823499" lon="10.7814285"><ele>393.0</ele><time>2026-04-18T09:59:34.467Z</time></trkpt><trkpt lat="43.2823821" lon="10.7813182"><ele>393.0</ele><time>2026-04-18T09:59:36.462Z</time></trkpt><trkpt lat="43.2824244" lon="10.7811753"><ele>394.0</ele><time>2026-04-18T09:59:38.453Z</time></trkpt><trkpt lat="43.2824732" lon="10.7810373"><ele>395.0</ele><time>2026-04-18T09:59:40.463Z</time></trkpt><trkpt lat="43.2825463" lon="10.7809077"><ele>396.0</ele><time>2026-04-18T09:59:42.461Z</time></trkpt><trkpt lat="43.2826183" lon="10.7808145"><ele>397.0</ele><time>2026-04-18T09:59:44.458Z</time></trkpt><trkpt lat="43.2827177" lon="10.7807833"><ele>398.0</ele><time>2026-04-18T09:59:46.459Z</time></trkpt><trkpt lat="43.2827809" lon="10.7807677"><ele>396.3333333333333</ele><time>2026-04-18T09:59:47.466Z</time></trkpt><trkpt lat="43.2828513" lon="10.7807556"><ele>394.66666666666663</ele><time>2026-04-18T09:59:48.458Z</time></trkpt><trkpt lat="43.2829299" lon="10.7807371"><ele>393.0</ele><time>2026-04-18T09:59:49.466Z</time></trkpt><trkpt lat="43.2830133" lon="10.7807328"><ele>391.33333333333337</ele><time>2026-04-18T09:59:50.451Z</time></trkpt><trkpt lat="43.2830898" lon="10.7807348"><ele>389.6666666666667</ele><time>2026-04-18T09:59:51.46Z</time></trkpt><trkpt lat="43.2831797" lon="10.7807384"><ele>388.0</ele><time>2026-04-18T09:59:52.465Z</time></trkpt><trkpt lat="43.2832584" lon="10.7807355"><ele>386.00000000000006</ele><time>2026-04-18T09:59:53.464Z</time></trkpt><trkpt lat="43.2833516" lon="10.7807216"><ele>384.0</ele><time>2026-04-18T09:59:54.473Z</time></trkpt><trkpt lat="43.2834374" lon="10.7806925"><ele>382.0</ele><time>2026-04-18T09:59:55.463Z</time></trkpt><trkpt lat="43.2835196" lon="10.7806852"><ele>380.0</ele><time>2026-04-18T09:59:56.461Z</time></trkpt><trkpt lat="43.2836071" lon="10.7806785"><ele>378.0</ele><time>2026-04-18T09:59:57.463Z</time></trkpt><trkpt lat="43.2836723" lon="10.7806841"><ele>376.0</ele><time>2026-04-18T09:59:58.459Z</time></trkpt><trkpt lat="43.2837371" lon="10.780703"><ele>376.0</ele><time>2026-04-18T09:59:59.457Z</time></trkpt><trkpt lat="43.2838098" lon="10.7807274"><ele>376.0</ele><time>2026-04-18T10:00:00.458Z</time></trkpt><trkpt lat="43.2838959" lon="10.7807355"><ele>376.0</ele><time>2026-04-18T10:00:01.461Z</time></trkpt><trkpt lat="43.2839733" lon="10.7807272"><ele>376.0</ele><time>2026-04-18T10:00:02.469Z</time></trkpt><trkpt lat="43.2840375" lon="10.7806964"><ele>376.0</ele><time>2026-04-18T10:00:03.462Z</time></trkpt><trkpt lat="43.2841051" lon="10.7806376"><ele>376.0</ele><time>2026-04-18T10:00:04.455Z</time></trkpt><trkpt lat="43.2842059" lon="10.7805584"><ele>374.5</ele><time>2026-04-18T10:00:05.468Z</time></trkpt><trkpt lat="43.2842738" lon="10.7804947"><ele>373.0</ele><time>2026-04-18T10:00:06.454Z</time></trkpt><trkpt lat="43.2843348" lon="10.7804227"><ele>371.5</ele><time>2026-04-18T10:00:07.457Z</time></trkpt><trkpt lat="43.2843934" lon="10.7803898"><ele>370.0</ele><time>2026-04-18T10:00:08.475Z</time></trkpt><trkpt lat="43.2845041" lon="10.7803852"><ele>368.5</ele><time>2026-04-18T10:00:10.468Z</time></trkpt><trkpt lat="43.2845637" lon="10.7804435"><ele>367.0</ele><time>2026-04-18T10:00:11.467Z</time></trkpt><trkpt lat="43.2846314" lon="10.7805242"><ele>367.0</ele><time>2026-04-18T10:00:12.46Z</time></trkpt><trkpt lat="43.2846858" lon="10.7806035"><ele>367.0</ele><time>2026-04-18T10:00:13.475Z</time></trkpt><trkpt lat="43.284741" lon="10.7806911"><ele>367.0</ele><time>2026-04-18T10:00:14.464Z</time></trkpt><trkpt lat="43.284786" lon="10.7807833"><ele>367.0</ele><time>2026-04-18T10:00:15.458Z</time></trkpt><trkpt lat="43.2848314" lon="10.78089"><ele>367.0</ele><time>2026-04-18T10:00:16.466Z</time></trkpt><trkpt lat="43.2848898" lon="10.7809972"><ele>367.0</ele><time>2026-04-18T10:00:17.463Z</time></trkpt><trkpt lat="43.284935" lon="10.7811031"><ele>367.16666666666663</ele><time>2026-04-18T10:00:18.469Z</time></trkpt><trkpt lat="43.2849821" lon="10.7812012"><ele>367.3333333333333</ele><time>2026-04-18T10:00:19.463Z</time></trkpt><trkpt lat="43.2850238" lon="10.781293"><ele>367.5</ele><time>2026-04-18T10:00:20.459Z</time></trkpt><trkpt lat="43.285058" lon="10.7813696"><ele>367.6666666666667</ele><time>2026-04-18T10:00:21.461Z</time></trkpt><trkpt lat="43.2851208" lon="10.7814054"><ele>367.83333333333337</ele><time>2026-04-18T10:00:22.461Z</time></trkpt><trkpt lat="43.2852143" lon="10.7813993"><ele>368.0</ele><time>2026-04-18T10:00:23.464Z</time></trkpt><trkpt lat="43.2853161" lon="10.7813571"><ele>368.0</ele><time>2026-04-18T10:00:24.466Z</time></trkpt><trkpt lat="43.2853598" lon="10.7812706"><ele>368.0</ele><time>2026-04-18T10:00:25.464Z</time></trkpt><trkpt lat="43.2854236" lon="10.7811861"><ele>368.0</ele><time>2026-04-18T10:00:26.463Z</time></trkpt><trkpt lat="43.2854931" lon="10.7810915"><ele>368.0</ele><time>2026-04-18T10:00:27.46Z</time></trkpt><trkpt lat="43.285561" lon="10.7810132"><ele>368.0</ele><time>2026-04-18T10:00:28.467Z</time></trkpt><trkpt lat="43.2856146" lon="10.7809324"><ele>368.0</ele><time>2026-04-18T10:00:29.465Z</time></trkpt><trkpt lat="43.2856818" lon="10.7808509"><ele>365.59999999999997</ele><time>2026-04-18T10:00:30.471Z</time></trkpt><trkpt lat="43.285751" lon="10.7807649"><ele>363.2</ele><time>2026-04-18T10:00:31.47Z</time></trkpt><trkpt lat="43.28582" lon="10.7806827"><ele>360.8</ele><time>2026-04-18T10:00:32.471Z</time></trkpt><trkpt lat="43.2858918" lon="10.780606"><ele>358.4</ele><time>2026-04-18T10:00:33.461Z</time></trkpt><trkpt lat="43.2859646" lon="10.7805395"><ele>356.0</ele><time>2026-04-18T10:00:34.454Z</time></trkpt><trkpt lat="43.2860334" lon="10.7804638"><ele>356.0</ele><time>2026-04-18T10:00:35.46Z</time></trkpt><trkpt lat="43.2861034" lon="10.7804015"><ele>356.0</ele><time>2026-04-18T10:00:36.46Z</time></trkpt><trkpt lat="43.286177" lon="10.7803579"><ele>356.0</ele><time>2026-04-18T10:00:37.466Z</time></trkpt><trkpt lat="43.2862492" lon="10.7803211"><ele>356.0</ele><time>2026-04-18T10:00:38.477Z</time></trkpt><trkpt lat="43.286323" lon="10.7802827"><ele>356.0</ele><time>2026-04-18T10:00:39.477Z</time></trkpt><trkpt lat="43.2864066" lon="10.7802166"><ele>356.0</ele><time>2026-04-18T10:00:40.464Z</time></trkpt><trkpt lat="43.2864749" lon="10.7801274"><ele>352.6</ele><time>2026-04-18T10:00:41.466Z</time></trkpt><trkpt lat="43.2865361" lon="10.7800149"><ele>349.20000000000005</ele><time>2026-04-18T10:00:42.455Z</time></trkpt><trkpt lat="43.2865947" lon="10.7798873"><ele>345.79999999999995</ele><time>2026-04-18T10:00:43.458Z</time></trkpt><trkpt lat="43.2866446" lon="10.7797443"><ele>342.4</ele><time>2026-04-18T10:00:44.466Z</time></trkpt><trkpt lat="43.2866891" lon="10.7796395"><ele>339.0</ele><time>2026-04-18T10:00:45.467Z</time></trkpt><trkpt lat="43.2867228" lon="10.7795319"><ele>339.0</ele><time>2026-04-18T10:00:46.471Z</time></trkpt><trkpt lat="43.2867632" lon="10.77944"><ele>339.0</ele><time>2026-04-18T10:00:47.476Z</time></trkpt><trkpt lat="43.2868106" lon="10.7793628"><ele>339.0</ele><time>2026-04-18T10:00:48.474Z</time></trkpt><trkpt lat="43.2868552" lon="10.7792927"><ele>339.0</ele><time>2026-04-18T10:00:49.472Z</time></trkpt><trkpt lat="43.2869228" lon="10.7791589"><ele>339.0</ele><time>2026-04-18T10:00:51.477Z</time></trkpt><trkpt lat="43.286974" lon="10.7790469"><ele>339.0</ele><time>2026-04-18T10:00:53.475Z</time></trkpt><trkpt lat="43.2870196" lon="10.7789137"><ele>337.3333333333333</ele><time>2026-04-18T10:00:55.466Z</time></trkpt><trkpt lat="43.2870531" lon="10.7788388"><ele>335.6666666666667</ele><time>2026-04-18T10:00:56.471Z</time></trkpt><trkpt lat="43.2870844" lon="10.7787518"><ele>334.0</ele><time>2026-04-18T10:00:57.471Z</time></trkpt><trkpt lat="43.2871186" lon="10.7786749"><ele>332.33333333333337</ele><time>2026-04-18T10:00:58.474Z</time></trkpt><trkpt lat="43.2871692" lon="10.7785218"><ele>330.6666666666667</ele><time>2026-04-18T10:01:00.468Z</time></trkpt><trkpt lat="43.2871799" lon="10.7784009"><ele>329.0</ele><time>2026-04-18T10:01:02.473Z</time></trkpt><trkpt lat="43.2871857" lon="10.7783097"><ele>327.1666666666667</ele><time>2026-04-18T10:01:05.481Z</time></trkpt><trkpt lat="43.2872001" lon="10.7781954"><ele>325.33333333333337</ele><time>2026-04-18T10:01:08.467Z</time></trkpt><trkpt lat="43.2872098" lon="10.7780628"><ele>323.5</ele><time>2026-04-18T10:01:11.489Z</time></trkpt><trkpt lat="43.2872124" lon="10.7779723"><ele>321.6666666666667</ele><time>2026-04-18T10:01:13.462Z</time></trkpt><trkpt lat="43.2872202" lon="10.777849"><ele>319.8333333333333</ele><time>2026-04-18T10:01:16.46Z</time></trkpt><trkpt lat="43.2872427" lon="10.7777461"><ele>318.0</ele><time>2026-04-18T10:01:20.475Z</time></trkpt><trkpt lat="43.2872778" lon="10.7776358"><ele>316.3333333333333</ele><time>2026-04-18T10:01:23.482Z</time></trkpt><trkpt lat="43.2873258" lon="10.7775461"><ele>314.6666666666667</ele><time>2026-04-18T10:01:26.473Z</time></trkpt><trkpt lat="43.287401" lon="10.7774916"><ele>313.0</ele><time>2026-04-18T10:01:29.469Z</time></trkpt><trkpt lat="43.2874789" lon="10.777466"><ele>311.33333333333337</ele><time>2026-04-18T10:01:31.471Z</time></trkpt><trkpt lat="43.2875574" lon="10.7774776"><ele>309.6666666666667</ele><time>2026-04-18T10:01:33.474Z</time></trkpt><trkpt lat="43.2876464" lon="10.7774943"><ele>308.0</ele><time>2026-04-18T10:01:36.466Z</time></trkpt><trkpt lat="43.2877302" lon="10.7775322"><ele>308.0</ele><time>2026-04-18T10:01:39.467Z</time></trkpt><trkpt lat="43.2878047" lon="10.777584"><ele>308.0</ele><time>2026-04-18T10:01:41.478Z</time></trkpt><trkpt lat="43.2878819" lon="10.7776376"><ele>308.0</ele><time>2026-04-18T10:01:43.464Z</time></trkpt><trkpt lat="43.2879516" lon="10.777722"><ele>308.0</ele><time>2026-04-18T10:01:45.466Z</time></trkpt><trkpt lat="43.2880086" lon="10.7777842"><ele>308.0</ele><time>2026-04-18T10:01:47.459Z</time></trkpt><trkpt lat="43.2880631" lon="10.7778355"><ele>308.0</ele><time>2026-04-18T10:01:49.459Z</time></trkpt><trkpt lat="43.2881361" lon="10.7778531"><ele>307.5</ele><time>2026-04-18T10:01:52.466Z</time></trkpt><trkpt lat="43.2882006" lon="10.7778663"><ele>307.0</ele><time>2026-04-18T10:01:55.463Z</time></trkpt><trkpt lat="43.2882688" lon="10.7779377"><ele>306.5</ele><time>2026-04-18T10:01:59.458Z</time></trkpt><trkpt lat="43.2883405" lon="10.7779833"><ele>306.0</ele><time>2026-04-18T10:02:01.47Z</time></trkpt><trkpt lat="43.2884218" lon="10.7779969"><ele>305.5</ele><time>2026-04-18T10:02:02.464Z</time></trkpt><trkpt lat="43.2884999" lon="10.7780087"><ele>305.0</ele><time>2026-04-18T10:02:03.466Z</time></trkpt><trkpt lat="43.2886278" lon="10.7780453"><ele>305.0</ele><time>2026-04-18T10:02:05.465Z</time></trkpt><trkpt lat="43.2886925" lon="10.7780921"><ele>305.0</ele><time>2026-04-18T10:02:06.47Z</time></trkpt><trkpt lat="43.2887643" lon="10.7781347"><ele>305.0</ele><time>2026-04-18T10:02:07.459Z</time></trkpt><trkpt lat="43.2888432" lon="10.7781823"><ele>305.0</ele><time>2026-04-18T10:02:08.465Z</time></trkpt><trkpt lat="43.2889178" lon="10.7782237"><ele>305.0</ele><time>2026-04-18T10:02:09.457Z</time></trkpt><trkpt lat="43.288984" lon="10.7782655"><ele>305.0</ele><time>2026-04-18T10:02:10.469Z</time></trkpt><trkpt lat="43.2890542" lon="10.7783187"><ele>306.75</ele><time>2026-04-18T10:02:11.466Z</time></trkpt><trkpt lat="43.2891674" lon="10.7783661"><ele>308.5</ele><time>2026-04-18T10:02:13.465Z</time></trkpt><trkpt lat="43.2892631" lon="10.7784575"><ele>310.25</ele><time>2026-04-18T10:02:15.46Z</time></trkpt><trkpt lat="43.2893511" lon="10.7785635"><ele>312.0</ele><time>2026-04-18T10:02:17.465Z</time></trkpt><trkpt lat="43.2894275" lon="10.7786702"><ele>312.0</ele><time>2026-04-18T10:02:19.464Z</time></trkpt><trkpt lat="43.2895061" lon="10.7787618"><ele>312.0</ele><time>2026-04-18T10:02:21.466Z</time></trkpt><trkpt lat="43.2896197" lon="10.7787821"><ele>312.0</ele><time>2026-04-18T10:02:23.454Z</time></trkpt><trkpt lat="43.2896881" lon="10.7787736"><ele>312.0</ele><time>2026-04-18T10:02:24.457Z</time></trkpt><trkpt lat="43.2897584" lon="10.778779"><ele>312.0</ele><time>2026-04-18T10:02:25.458Z</time></trkpt><trkpt lat="43.2898234" lon="10.7787745"><ele>312.0</ele><time>2026-04-18T10:02:26.459Z</time></trkpt><trkpt lat="43.2898906" lon="10.7787724"><ele>311.2</ele><time>2026-04-18T10:02:27.465Z</time></trkpt><trkpt lat="43.2899704" lon="10.7787668"><ele>310.4</ele><time>2026-04-18T10:02:28.466Z</time></trkpt><trkpt lat="43.2900887" lon="10.7788"><ele>309.6</ele><time>2026-04-18T10:02:30.466Z</time></trkpt><trkpt lat="43.2902026" lon="10.7788643"><ele>308.8</ele><time>2026-04-18T10:02:32.465Z</time></trkpt><trkpt lat="43.2902654" lon="10.7789142"><ele>308.0</ele><time>2026-04-18T10:02:33.466Z</time></trkpt><trkpt lat="43.2903201" lon="10.7790038"><ele>308.0</ele><time>2026-04-18T10:02:34.465Z</time></trkpt><trkpt lat="43.2903728" lon="10.7790846"><ele>308.0</ele><time>2026-04-18T10:02:35.461Z</time></trkpt><trkpt lat="43.2904198" lon="10.7791735"><ele>308.0</ele><time>2026-04-18T10:02:36.458Z</time></trkpt><trkpt lat="43.290466" lon="10.7792697"><ele>308.0</ele><time>2026-04-18T10:02:37.473Z</time></trkpt><trkpt lat="43.2905107" lon="10.7793513"><ele>308.0</ele><time>2026-04-18T10:02:38.463Z</time></trkpt><trkpt lat="43.2905797" lon="10.7794749"><ele>308.0</ele><time>2026-04-18T10:02:40.456Z</time></trkpt><trkpt lat="43.2906722" lon="10.779576"><ele>307.8</ele><time>2026-04-18T10:02:42.461Z</time></trkpt><trkpt lat="43.2907224" lon="10.7796336"><ele>307.6</ele><time>2026-04-18T10:02:43.473Z</time></trkpt><trkpt lat="43.2907968" lon="10.779729"><ele>307.4</ele><time>2026-04-18T10:02:45.454Z</time></trkpt><trkpt lat="43.2908687" lon="10.7798225"><ele>307.2</ele><time>2026-04-18T10:02:47.462Z</time></trkpt><trkpt lat="43.2909299" lon="10.7799092"><ele>307.0</ele><time>2026-04-18T10:02:49.458Z</time></trkpt><trkpt lat="43.2910278" lon="10.7799841"><ele>307.0</ele><time>2026-04-18T10:02:51.464Z</time></trkpt><trkpt lat="43.2911106" lon="10.780023"><ele>307.0</ele><time>2026-04-18T10:02:53.467Z</time></trkpt><trkpt lat="43.2911816" lon="10.7800951"><ele>307.0</ele><time>2026-04-18T10:02:56.46Z</time></trkpt><trkpt lat="43.2912377" lon="10.7801769"><ele>307.0</ele><time>2026-04-18T10:02:59.463Z</time></trkpt><trkpt lat="43.2912824" lon="10.7802529"><ele>307.0</ele><time>2026-04-18T10:03:01.471Z</time></trkpt><trkpt lat="43.2913306" lon="10.7803111"><ele>307.0</ele><time>2026-04-18T10:03:03.463Z</time></trkpt><trkpt lat="43.2914037" lon="10.7803227"><ele>304.4</ele><time>2026-04-18T10:03:05.465Z</time></trkpt><trkpt lat="43.2914978" lon="10.7802963"><ele>301.79999999999995</ele><time>2026-04-18T10:03:07.464Z</time></trkpt><trkpt lat="43.2915687" lon="10.7802665"><ele>299.2</ele><time>2026-04-18T10:03:09.464Z</time></trkpt><trkpt lat="43.2916517" lon="10.7802738"><ele>296.59999999999997</ele><time>2026-04-18T10:03:11.462Z</time></trkpt><trkpt lat="43.2917369" lon="10.7803488"><ele>294.0</ele><time>2026-04-18T10:03:13.465Z</time></trkpt><trkpt lat="43.2918179" lon="10.7804883"><ele>294.0</ele><time>2026-04-18T10:03:15.467Z</time></trkpt><trkpt lat="43.2918656" lon="10.7805648"><ele>294.0</ele><time>2026-04-18T10:03:16.479Z</time></trkpt><trkpt lat="43.2919103" lon="10.7806367"><ele>294.0</ele><time>2026-04-18T10:03:17.473Z</time></trkpt><trkpt lat="43.2919496" lon="10.7807241"><ele>294.0</ele><time>2026-04-18T10:03:18.465Z</time></trkpt><trkpt lat="43.2919652" lon="10.7808359"><ele>294.0</ele><time>2026-04-18T10:03:19.46Z</time></trkpt><trkpt lat="43.2919806" lon="10.7809493"><ele>294.0</ele><time>2026-04-18T10:03:20.47Z</time></trkpt><trkpt lat="43.2919857" lon="10.7810621"><ele>294.6666666666667</ele><time>2026-04-18T10:03:21.471Z</time></trkpt><trkpt lat="43.2919959" lon="10.7811657"><ele>295.3333333333333</ele><time>2026-04-18T10:03:22.463Z</time></trkpt><trkpt lat="43.2919898" lon="10.7812634"><ele>296.0</ele><time>2026-04-18T10:03:23.469Z</time></trkpt><trkpt lat="43.2919862" lon="10.7813719"><ele>296.66666666666663</ele><time>2026-04-18T10:03:24.469Z</time></trkpt><trkpt lat="43.2920006" lon="10.7814602"><ele>297.3333333333333</ele><time>2026-04-18T10:03:25.462Z</time></trkpt><trkpt lat="43.2920141" lon="10.7815475"><ele>298.0</ele><time>2026-04-18T10:03:26.466Z</time></trkpt><trkpt lat="43.2920596" lon="10.7817025"><ele>298.0</ele><time>2026-04-18T10:03:28.471Z</time></trkpt><trkpt lat="43.2921234" lon="10.7818156"><ele>298.0</ele><time>2026-04-18T10:03:30.461Z</time></trkpt><trkpt lat="43.2921595" lon="10.7818956"><ele>298.0</ele><time>2026-04-18T10:03:31.471Z</time></trkpt><trkpt lat="43.2921837" lon="10.7820367"><ele>298.0</ele><time>2026-04-18T10:03:33.465Z</time></trkpt><trkpt lat="43.2921818" lon="10.78213"><ele>298.0</ele><time>2026-04-18T10:03:34.474Z</time></trkpt><trkpt lat="43.2921792" lon="10.7822266"><ele>298.0</ele><time>2026-04-18T10:03:35.468Z</time></trkpt><trkpt lat="43.2921557" lon="10.7823217"><ele>298.5</ele><time>2026-04-18T10:03:36.472Z</time></trkpt><trkpt lat="43.2921527" lon="10.7824274"><ele>299.0</ele><time>2026-04-18T10:03:37.478Z</time></trkpt><trkpt lat="43.2921364" lon="10.7825306"><ele>299.5</ele><time>2026-04-18T10:03:38.471Z</time></trkpt><trkpt lat="43.2921198" lon="10.7826286"><ele>300.0</ele><time>2026-04-18T10:03:39.476Z</time></trkpt><trkpt lat="43.2920867" lon="10.7827294"><ele>300.5</ele><time>2026-04-18T10:03:40.48Z</time></trkpt><trkpt lat="43.292033" lon="10.7828142"><ele>301.0</ele><time>2026-04-18T10:03:41.469Z</time></trkpt><trkpt lat="43.2919776" lon="10.7829648"><ele>300.8333333333333</ele><time>2026-04-18T10:03:43.468Z</time></trkpt><trkpt lat="43.2919466" lon="10.7830703"><ele>300.66666666666663</ele><time>2026-04-18T10:03:44.482Z</time></trkpt><trkpt lat="43.291936" lon="10.7831878"><ele>300.5</ele><time>2026-04-18T10:03:45.47Z</time></trkpt><trkpt lat="43.291945" lon="10.7832862"><ele>300.3333333333333</ele><time>2026-04-18T10:03:46.472Z</time></trkpt><trkpt lat="43.2919676" lon="10.7833693"><ele>300.1666666666667</ele><time>2026-04-18T10:03:47.479Z</time></trkpt><trkpt lat="43.291974" lon="10.7834629"><ele>300.0</ele><time>2026-04-18T10:03:48.461Z</time></trkpt><trkpt lat="43.2919864" lon="10.7835991"><ele>300.0</ele><time>2026-04-18T10:03:50.456Z</time></trkpt><trkpt lat="43.2920103" lon="10.7837196"><ele>300.0</ele><time>2026-04-18T10:03:52.457Z</time></trkpt><trkpt lat="43.2920068" lon="10.7838633"><ele>300.0</ele><time>2026-04-18T10:03:54.466Z</time></trkpt><trkpt lat="43.2919724" lon="10.7839957"><ele>300.0</ele><time>2026-04-18T10:03:56.468Z</time></trkpt><trkpt lat="43.2919472" lon="10.7840832"><ele>300.0</ele><time>2026-04-18T10:03:58.464Z</time></trkpt><trkpt lat="43.291913" lon="10.7841939"><ele>298.1666666666667</ele><time>2026-04-18T10:04:01.481Z</time></trkpt><trkpt lat="43.2919255" lon="10.7843636"><ele>296.3333333333333</ele><time>2026-04-18T10:04:04.473Z</time></trkpt><trkpt lat="43.2919891" lon="10.7844232"><ele>294.5</ele><time>2026-04-18T10:04:05.464Z</time></trkpt><trkpt lat="43.2920428" lon="10.7844844"><ele>292.66666666666663</ele><time>2026-04-18T10:04:06.474Z</time></trkpt><trkpt lat="43.2921022" lon="10.7845342"><ele>290.8333333333333</ele><time>2026-04-18T10:04:07.471Z</time></trkpt><trkpt lat="43.292168" lon="10.7845846"><ele>289.0</ele><time>2026-04-18T10:04:08.505Z</time></trkpt><trkpt lat="43.2922334" lon="10.7846455"><ele>287.66666666666663</ele><time>2026-04-18T10:04:09.464Z</time></trkpt><trkpt lat="43.2922953" lon="10.7846803"><ele>286.3333333333333</ele><time>2026-04-18T10:04:10.469Z</time></trkpt><trkpt lat="43.2923805" lon="10.7847128"><ele>285.0</ele><time>2026-04-18T10:04:12.472Z</time></trkpt><trkpt lat="43.2924754" lon="10.7847347"><ele>283.6666666666667</ele><time>2026-04-18T10:04:14.469Z</time></trkpt><trkpt lat="43.2925953" lon="10.7847551"><ele>282.33333333333337</ele><time>2026-04-18T10:04:16.488Z</time></trkpt><trkpt lat="43.2926667" lon="10.7847724"><ele>281.0</ele><time>2026-04-18T10:04:17.463Z</time></trkpt><trkpt lat="43.2927341" lon="10.7847885"><ele>281.0</ele><time>2026-04-18T10:04:18.465Z</time></trkpt><trkpt lat="43.2928302" lon="10.7848303"><ele>281.0</ele><time>2026-04-18T10:04:20.466Z</time></trkpt><trkpt lat="43.2929233" lon="10.7848596"><ele>281.0</ele><time>2026-04-18T10:04:22.473Z</time></trkpt><trkpt lat="43.2929819" lon="10.7849311"><ele>281.0</ele><time>2026-04-18T10:04:24.466Z</time></trkpt><trkpt lat="43.2930335" lon="10.7850518"><ele>281.0</ele><time>2026-04-18T10:04:26.465Z</time></trkpt><trkpt lat="43.2930405" lon="10.785139"><ele>281.0</ele><time>2026-04-18T10:04:27.467Z</time></trkpt><trkpt lat="43.293046" lon="10.7852256"><ele>280.1666666666667</ele><time>2026-04-18T10:04:28.474Z</time></trkpt><trkpt lat="43.2930546" lon="10.7853297"><ele>279.33333333333337</ele><time>2026-04-18T10:04:29.472Z</time></trkpt><trkpt lat="43.2930666" lon="10.7854448"><ele>278.5</ele><time>2026-04-18T10:04:30.468Z</time></trkpt><trkpt lat="43.2930815" lon="10.7855563"><ele>277.6666666666667</ele><time>2026-04-18T10:04:31.467Z</time></trkpt><trkpt lat="43.2930877" lon="10.7856666"><ele>276.8333333333333</ele><time>2026-04-18T10:04:32.466Z</time></trkpt><trkpt lat="43.2930962" lon="10.7857806"><ele>276.0</ele><time>2026-04-18T10:04:33.457Z</time></trkpt><trkpt lat="43.2931056" lon="10.7858835"><ele>272.2</ele><time>2026-04-18T10:04:34.471Z</time></trkpt><trkpt lat="43.2931268" lon="10.7860462"><ele>268.40000000000003</ele><time>2026-04-18T10:04:36.472Z</time></trkpt><trkpt lat="43.2931874" lon="10.786194"><ele>264.6</ele><time>2026-04-18T10:04:38.465Z</time></trkpt><trkpt lat="43.293233" lon="10.7862573"><ele>260.8</ele><time>2026-04-18T10:04:39.485Z</time></trkpt><trkpt lat="43.2932817" lon="10.7863152"><ele>257.0</ele><time>2026-04-18T10:04:40.471Z</time></trkpt><trkpt lat="43.2933624" lon="10.7864333"><ele>257.0</ele><time>2026-04-18T10:04:42.474Z</time></trkpt><trkpt lat="43.2934424" lon="10.7865426"><ele>257.0</ele><time>2026-04-18T10:04:44.467Z</time></trkpt><trkpt lat="43.2934972" lon="10.7866045"><ele>257.0</ele><time>2026-04-18T10:04:45.465Z</time></trkpt><trkpt lat="43.2935607" lon="10.7866665"><ele>257.0</ele><time>2026-04-18T10:04:46.464Z</time></trkpt><trkpt lat="43.2936153" lon="10.7867282"><ele>257.0</ele><time>2026-04-18T10:04:47.471Z</time></trkpt><trkpt lat="43.2936759" lon="10.7867883"><ele>257.0</ele><time>2026-04-18T10:04:48.481Z</time></trkpt><trkpt lat="43.2937384" lon="10.7868468"><ele>256.1666666666667</ele><time>2026-04-18T10:04:49.471Z</time></trkpt><trkpt lat="43.2937955" lon="10.7869038"><ele>255.33333333333334</ele><time>2026-04-18T10:04:50.472Z</time></trkpt><trkpt lat="43.293855" lon="10.786959"><ele>254.5</ele><time>2026-04-18T10:04:51.467Z</time></trkpt><trkpt lat="43.293915" lon="10.7870117"><ele>253.66666666666669</ele><time>2026-04-18T10:04:52.486Z</time></trkpt><trkpt lat="43.2939758" lon="10.7870588"><ele>252.83333333333334</ele><time>2026-04-18T10:04:53.467Z</time></trkpt><trkpt lat="43.2940734" lon="10.7871367"><ele>252.0</ele><time>2026-04-18T10:04:55.473Z</time></trkpt><trkpt lat="43.2941042" lon="10.7872283"><ele>252.0</ele><time>2026-04-18T10:04:57.467Z</time></trkpt><trkpt lat="43.2940692" lon="10.7873098"><ele>252.0</ele><time>2026-04-18T10:04:59.466Z</time></trkpt><trkpt lat="43.2939956" lon="10.7873993"><ele>252.0</ele><time>2026-04-18T10:05:01.475Z</time></trkpt><trkpt lat="43.2939146" lon="10.7875123"><ele>252.0</ele><time>2026-04-18T10:05:03.466Z</time></trkpt><trkpt lat="43.293866" lon="10.7875706"><ele>252.0</ele><time>2026-04-18T10:05:04.47Z</time></trkpt><trkpt lat="43.2937755" lon="10.7876925"><ele>251.57142857142856</ele><time>2026-04-18T10:05:06.461Z</time></trkpt><trkpt lat="43.2937287" lon="10.7877557"><ele>251.14285714285714</ele><time>2026-04-18T10:05:07.474Z</time></trkpt><trkpt lat="43.2936809" lon="10.7878201"><ele>250.71428571428572</ele><time>2026-04-18T10:05:08.471Z</time></trkpt><trkpt lat="43.2936284" lon="10.787888"><ele>250.28571428571428</ele><time>2026-04-18T10:05:09.471Z</time></trkpt><trkpt lat="43.2935812" lon="10.7879597"><ele>249.85714285714283</ele><time>2026-04-18T10:05:10.469Z</time></trkpt><trkpt lat="43.2935344" lon="10.7880412"><ele>249.42857142857142</ele><time>2026-04-18T10:05:11.461Z</time></trkpt><trkpt lat="43.2934907" lon="10.788136"><ele>249.0</ele><time>2026-04-18T10:05:12.463Z</time></trkpt><trkpt lat="43.2934514" lon="10.7882337"><ele>249.0</ele><time>2026-04-18T10:05:13.466Z</time></trkpt><trkpt lat="43.2934249" lon="10.7883293"><ele>248.99999999999997</ele><time>2026-04-18T10:05:14.466Z</time></trkpt><trkpt lat="43.2933933" lon="10.7884175"><ele>249.0</ele><time>2026-04-18T10:05:15.471Z</time></trkpt><trkpt lat="43.2933542" lon="10.7885032"><ele>249.0</ele><time>2026-04-18T10:05:16.459Z</time></trkpt><trkpt lat="43.2933179" lon="10.788595"><ele>248.99999999999997</ele><time>2026-04-18T10:05:17.471Z</time></trkpt><trkpt lat="43.2932797" lon="10.7886769"><ele>249.0</ele><time>2026-04-18T10:05:18.473Z</time></trkpt><trkpt lat="43.2932433" lon="10.7887647"><ele>249.0</ele><time>2026-04-18T10:05:19.467Z</time></trkpt><trkpt lat="43.2932114" lon="10.7888469"><ele>248.57142857142856</ele><time>2026-04-18T10:05:20.462Z</time></trkpt><trkpt lat="43.2931874" lon="10.7889308"><ele>248.1428571428571</ele><time>2026-04-18T10:05:21.463Z</time></trkpt><trkpt lat="43.2931561" lon="10.7890117"><ele>247.71428571428572</ele><time>2026-04-18T10:05:22.461Z</time></trkpt><trkpt lat="43.2931287" lon="10.7891007"><ele>247.28571428571428</ele><time>2026-04-18T10:05:23.463Z</time></trkpt><trkpt lat="43.2931027" lon="10.7891953"><ele>246.85714285714286</ele><time>2026-04-18T10:05:24.462Z</time></trkpt><trkpt lat="43.2930755" lon="10.7892938"><ele>246.42857142857144</ele><time>2026-04-18T10:05:25.465Z</time></trkpt><trkpt lat="43.2930498" lon="10.7893949"><ele>246.00000000000003</ele><time>2026-04-18T10:05:26.462Z</time></trkpt><trkpt lat="43.2930264" lon="10.7894997"><ele>248.42857142857144</ele><time>2026-04-18T10:05:27.456Z</time></trkpt><trkpt lat="43.2929992" lon="10.7895965"><ele>250.85714285714286</ele><time>2026-04-18T10:05:28.469Z</time></trkpt><trkpt lat="43.2929675" lon="10.7896872"><ele>253.28571428571428</ele><time>2026-04-18T10:05:29.462Z</time></trkpt><trkpt lat="43.2929253" lon="10.789765"><ele>255.71428571428572</ele><time>2026-04-18T10:05:30.467Z</time></trkpt><trkpt lat="43.2928647" lon="10.789815"><ele>258.1428571428571</ele><time>2026-04-18T10:05:31.459Z</time></trkpt><trkpt lat="43.2928028" lon="10.7898727"><ele>260.57142857142856</ele><time>2026-04-18T10:05:32.465Z</time></trkpt><trkpt lat="43.2927416" lon="10.789925"><ele>263.0</ele><time>2026-04-18T10:05:33.463Z</time></trkpt><trkpt lat="43.2926833" lon="10.7899759"><ele>263.0</ele><time>2026-04-18T10:05:34.479Z</time></trkpt><trkpt lat="43.2926022" lon="10.7900774"><ele>263.0</ele><time>2026-04-18T10:05:36.466Z</time></trkpt><trkpt lat="43.2925367" lon="10.7901768"><ele>263.0</ele><time>2026-04-18T10:05:38.47Z</time></trkpt><trkpt lat="43.292463" lon="10.7902921"><ele>263.0</ele><time>2026-04-18T10:05:40.467Z</time></trkpt><trkpt lat="43.2923661" lon="10.7904054"><ele>263.0</ele><time>2026-04-18T10:05:42.462Z</time></trkpt><trkpt lat="43.2922845" lon="10.7905141"><ele>261.83333333333337</ele><time>2026-04-18T10:05:44.472Z</time></trkpt><trkpt lat="43.2922513" lon="10.7905904"><ele>260.6666666666667</ele><time>2026-04-18T10:05:45.469Z</time></trkpt><trkpt lat="43.292237" lon="10.7906881"><ele>259.5</ele><time>2026-04-18T10:05:46.465Z</time></trkpt><trkpt lat="43.2922503" lon="10.7908019"><ele>258.3333333333333</ele><time>2026-04-18T10:05:47.458Z</time></trkpt><trkpt lat="43.2922647" lon="10.7909165"><ele>257.16666666666663</ele><time>2026-04-18T10:05:48.462Z</time></trkpt><trkpt lat="43.2922858" lon="10.791032"><ele>256.0</ele><time>2026-04-18T10:05:49.457Z</time></trkpt><trkpt lat="43.2923111" lon="10.7911369"><ele>255.33333333333331</ele><time>2026-04-18T10:05:50.47Z</time></trkpt><trkpt lat="43.292334" lon="10.7912444"><ele>254.66666666666666</ele><time>2026-04-18T10:05:51.465Z</time></trkpt><trkpt lat="43.2923467" lon="10.7913479"><ele>254.0</ele><time>2026-04-18T10:05:52.46Z</time></trkpt><trkpt lat="43.2923467" lon="10.7914554"><ele>253.33333333333331</ele><time>2026-04-18T10:05:53.458Z</time></trkpt><trkpt lat="43.2923477" lon="10.7915519"><ele>252.66666666666666</ele><time>2026-04-18T10:05:54.46Z</time></trkpt><trkpt lat="43.2923304" lon="10.7916484"><ele>252.0</ele><time>2026-04-18T10:05:55.47Z</time></trkpt><trkpt lat="43.292299" lon="10.791755"><ele>251.0</ele><time>2026-04-18T10:05:56.454Z</time></trkpt><trkpt lat="43.292269" lon="10.7918632"><ele>250.0</ele><time>2026-04-18T10:05:57.459Z</time></trkpt><trkpt lat="43.2922165" lon="10.7919727"><ele>249.0</ele><time>2026-04-18T10:05:58.466Z</time></trkpt><trkpt lat="43.2921619" lon="10.792066"><ele>248.0</ele><time>2026-04-18T10:05:59.472Z</time></trkpt><trkpt lat="43.2921167" lon="10.7921713"><ele>247.0</ele><time>2026-04-18T10:06:00.464Z</time></trkpt><trkpt lat="43.2920765" lon="10.7922794"><ele>246.0</ele><time>2026-04-18T10:06:01.451Z</time></trkpt><trkpt lat="43.29205" lon="10.7923921"><ele>245.83333333333334</ele><time>2026-04-18T10:06:02.465Z</time></trkpt><trkpt lat="43.29202" lon="10.7924788"><ele>245.66666666666669</ele><time>2026-04-18T10:06:03.465Z</time></trkpt><trkpt lat="43.2919852" lon="10.7925835"><ele>245.5</ele><time>2026-04-18T10:06:05.459Z</time></trkpt><trkpt lat="43.2920022" lon="10.792717"><ele>245.33333333333334</ele><time>2026-04-18T10:06:09.46Z</time></trkpt><trkpt lat="43.2920796" lon="10.7928376"><ele>245.16666666666669</ele><time>2026-04-18T10:06:11.468Z</time></trkpt><trkpt lat="43.292132" lon="10.7929196"><ele>245.0</ele><time>2026-04-18T10:06:12.486Z</time></trkpt><trkpt lat="43.2921887" lon="10.7930036"><ele>245.00000000000003</ele><time>2026-04-18T10:06:13.463Z</time></trkpt><trkpt lat="43.2922401" lon="10.7930963"><ele>245.0</ele><time>2026-04-18T10:06:14.471Z</time></trkpt><trkpt lat="43.2923003" lon="10.7931845"><ele>245.0</ele><time>2026-04-18T10:06:15.477Z</time></trkpt><trkpt lat="43.2923481" lon="10.7932786"><ele>245.0</ele><time>2026-04-18T10:06:16.475Z</time></trkpt><trkpt lat="43.2923911" lon="10.7933774"><ele>245.00000000000003</ele><time>2026-04-18T10:06:17.475Z</time></trkpt><trkpt lat="43.2924326" lon="10.7934816"><ele>245.0</ele><time>2026-04-18T10:06:18.47Z</time></trkpt><trkpt lat="43.2924773" lon="10.7935888"><ele>244.50000000000003</ele><time>2026-04-18T10:06:19.46Z</time></trkpt><trkpt lat="43.2925277" lon="10.793684"><ele>244.0</ele><time>2026-04-18T10:06:20.467Z</time></trkpt><trkpt lat="43.2925798" lon="10.793752"><ele>243.5</ele><time>2026-04-18T10:06:21.465Z</time></trkpt><trkpt lat="43.2926319" lon="10.7938149"><ele>243.0</ele><time>2026-04-18T10:06:22.467Z</time></trkpt><trkpt lat="43.2927246" lon="10.7939013"><ele>242.50000000000003</ele><time>2026-04-18T10:06:24.473Z</time></trkpt><trkpt lat="43.2927414" lon="10.7940297"><ele>242.0</ele><time>2026-04-18T10:06:26.462Z</time></trkpt><trkpt lat="43.2926572" lon="10.7941229"><ele>242.00000000000003</ele><time>2026-04-18T10:06:28.468Z</time></trkpt><trkpt lat="43.2925917" lon="10.7941296"><ele>242.0</ele><time>2026-04-18T10:06:29.475Z</time></trkpt><trkpt lat="43.2925191" lon="10.7941145"><ele>242.0</ele><time>2026-04-18T10:06:30.476Z</time></trkpt><trkpt lat="43.2924428" lon="10.7941142"><ele>242.0</ele><time>2026-04-18T10:06:31.465Z</time></trkpt><trkpt lat="43.2923444" lon="10.7941332"><ele>242.00000000000003</ele><time>2026-04-18T10:06:32.468Z</time></trkpt><trkpt lat="43.2922345" lon="10.7941111"><ele>242.0</ele><time>2026-04-18T10:06:33.471Z</time></trkpt><trkpt lat="43.2921306" lon="10.7940805"><ele>240.6</ele><time>2026-04-18T10:06:34.46Z</time></trkpt><trkpt lat="43.2920392" lon="10.7940218"><ele>239.2</ele><time>2026-04-18T10:06:35.473Z</time></trkpt><trkpt lat="43.2919504" lon="10.7939645"><ele>237.8</ele><time>2026-04-18T10:06:36.472Z</time></trkpt><trkpt lat="43.2918679" lon="10.7938988"><ele>236.4</ele><time>2026-04-18T10:06:37.458Z</time></trkpt><trkpt lat="43.291775" lon="10.7938603"><ele>235.0</ele><time>2026-04-18T10:06:38.464Z</time></trkpt><trkpt lat="43.2916863" lon="10.7938388"><ele>234.99999999999997</ele><time>2026-04-18T10:06:39.462Z</time></trkpt><trkpt lat="43.2916044" lon="10.7938189"><ele>235.0</ele><time>2026-04-18T10:06:40.476Z</time></trkpt><trkpt lat="43.2915326" lon="10.7938073"><ele>235.0</ele><time>2026-04-18T10:06:41.466Z</time></trkpt><trkpt lat="43.2914644" lon="10.7939111"><ele>235.0</ele><time>2026-04-18T10:06:43.468Z</time></trkpt><trkpt lat="43.2914852" lon="10.793994"><ele>234.99999999999997</ele><time>2026-04-18T10:06:44.461Z</time></trkpt><trkpt lat="43.2915453" lon="10.7940619"><ele>235.0</ele><time>2026-04-18T10:06:45.465Z</time></trkpt><trkpt lat="43.2916183" lon="10.7941028"><ele>235.0</ele><time>2026-04-18T10:06:46.479Z</time></trkpt><trkpt lat="43.2916851" lon="10.7941763"><ele>235.0</ele><time>2026-04-18T10:06:47.469Z</time></trkpt><trkpt lat="43.2917422" lon="10.794271"><ele>235.0</ele><time>2026-04-18T10:06:48.474Z</time></trkpt><trkpt lat="43.2917846" lon="10.794377"><ele>235.0</ele><time>2026-04-18T10:06:49.459Z</time></trkpt><trkpt lat="43.2918323" lon="10.7944972"><ele>235.0</ele><time>2026-04-18T10:06:50.462Z</time></trkpt><trkpt lat="43.2918833" lon="10.7946246"><ele>231.5</ele><time>2026-04-18T10:06:51.473Z</time></trkpt><trkpt lat="43.2919503" lon="10.7947347"><ele>228.0</ele><time>2026-04-18T10:06:52.468Z</time></trkpt><trkpt lat="43.292032" lon="10.7948311"><ele>224.5</ele><time>2026-04-18T10:06:53.464Z</time></trkpt><trkpt lat="43.2921317" lon="10.7949248"><ele>221.0</ele><time>2026-04-18T10:06:54.472Z</time></trkpt><trkpt lat="43.292242" lon="10.7950027"><ele>222.0</ele><time>2026-04-18T10:06:55.471Z</time></trkpt><trkpt lat="43.2923495" lon="10.7950756"><ele>223.0</ele><time>2026-04-18T10:06:56.463Z</time></trkpt><trkpt lat="43.2924627" lon="10.7951483"><ele>224.0</ele><time>2026-04-18T10:06:57.459Z</time></trkpt><trkpt lat="43.2925691" lon="10.7952291"><ele>225.0</ele><time>2026-04-18T10:06:58.458Z</time></trkpt><trkpt lat="43.2926627" lon="10.7953232"><ele>222.0</ele><time>2026-04-18T10:06:59.455Z</time></trkpt><trkpt lat="43.2927362" lon="10.7954373"><ele>219.0</ele><time>2026-04-18T10:07:00.458Z</time></trkpt><trkpt lat="43.2928024" lon="10.7955588"><ele>216.0</ele><time>2026-04-18T10:07:01.474Z</time></trkpt><trkpt lat="43.2928601" lon="10.7956771"><ele>213.0</ele><time>2026-04-18T10:07:02.464Z</time></trkpt><trkpt lat="43.2929237" lon="10.7957977"><ele>210.0</ele><time>2026-04-18T10:07:03.469Z</time></trkpt><trkpt lat="43.2929904" lon="10.7959131"><ele>210.0</ele><time>2026-04-18T10:07:04.462Z</time></trkpt><trkpt lat="43.2930762" lon="10.7960022"><ele>210.0</ele><time>2026-04-18T10:07:05.471Z</time></trkpt><trkpt lat="43.2931705" lon="10.7960317"><ele>210.0</ele><time>2026-04-18T10:07:06.463Z</time></trkpt><trkpt lat="43.2932622" lon="10.7960324"><ele>210.0</ele><time>2026-04-18T10:07:07.459Z</time></trkpt><trkpt lat="43.2933711" lon="10.7959942"><ele>210.0</ele><time>2026-04-18T10:07:08.461Z</time></trkpt><trkpt lat="43.2934644" lon="10.7959255"><ele>210.33333333333334</ele><time>2026-04-18T10:07:09.467Z</time></trkpt><trkpt lat="43.2935411" lon="10.7958402"><ele>210.66666666666669</ele><time>2026-04-18T10:07:10.46Z</time></trkpt><trkpt lat="43.293615" lon="10.7957761"><ele>211.0</ele><time>2026-04-18T10:07:11.466Z</time></trkpt><trkpt lat="43.2936997" lon="10.7957512"><ele>211.33333333333334</ele><time>2026-04-18T10:07:12.474Z</time></trkpt><trkpt lat="43.2937749" lon="10.7957611"><ele>211.66666666666669</ele><time>2026-04-18T10:07:13.464Z</time></trkpt><trkpt lat="43.2938422" lon="10.7958505"><ele>212.0</ele><time>2026-04-18T10:07:14.462Z</time></trkpt><trkpt lat="43.2938976" lon="10.7959492"><ele>209.6</ele><time>2026-04-18T10:07:15.464Z</time></trkpt><trkpt lat="43.29395" lon="10.796061"><ele>207.2</ele><time>2026-04-18T10:07:16.468Z</time></trkpt><trkpt lat="43.2940017" lon="10.7961799"><ele>204.8</ele><time>2026-04-18T10:07:17.467Z</time></trkpt><trkpt lat="43.2940698" lon="10.7963137"><ele>202.4</ele><time>2026-04-18T10:07:18.468Z</time></trkpt><trkpt lat="43.2941405" lon="10.7964303"><ele>200.0</ele><time>2026-04-18T10:07:19.464Z</time></trkpt><trkpt lat="43.2942276" lon="10.7965276"><ele>200.0</ele><time>2026-04-18T10:07:20.469Z</time></trkpt><trkpt lat="43.2943245" lon="10.796611"><ele>200.0</ele><time>2026-04-18T10:07:21.468Z</time></trkpt><trkpt lat="43.294434" lon="10.7966706"><ele>200.0</ele><time>2026-04-18T10:07:22.466Z</time></trkpt><trkpt lat="43.2945411" lon="10.79668"><ele>200.0</ele><time>2026-04-18T10:07:23.475Z</time></trkpt><trkpt lat="43.2946503" lon="10.7966602"><ele>198.6</ele><time>2026-04-18T10:07:24.461Z</time></trkpt><trkpt lat="43.2947684" lon="10.796646"><ele>197.2</ele><time>2026-04-18T10:07:25.464Z</time></trkpt><trkpt lat="43.2948844" lon="10.7966633"><ele>195.8</ele><time>2026-04-18T10:07:26.466Z</time></trkpt><trkpt lat="43.2949844" lon="10.7966839"><ele>194.4</ele><time>2026-04-18T10:07:27.459Z</time></trkpt><trkpt lat="43.2950709" lon="10.7967167"><ele>193.0</ele><time>2026-04-18T10:07:28.463Z</time></trkpt><trkpt lat="43.2951625" lon="10.7967171"><ele>193.0</ele><time>2026-04-18T10:07:29.465Z</time></trkpt><trkpt lat="43.295256" lon="10.7966577"><ele>193.0</ele><time>2026-04-18T10:07:30.479Z</time></trkpt><trkpt lat="43.295354" lon="10.7965798"><ele>193.0</ele><time>2026-04-18T10:07:31.476Z</time></trkpt><trkpt lat="43.2954399" lon="10.7964832"><ele>193.0</ele><time>2026-04-18T10:07:32.471Z</time></trkpt><trkpt lat="43.2955017" lon="10.7963596"><ele>193.0</ele><time>2026-04-18T10:07:33.476Z</time></trkpt><trkpt lat="43.2955468" lon="10.7962279"><ele>192.99999999999997</ele><time>2026-04-18T10:07:34.464Z</time></trkpt><trkpt lat="43.2955777" lon="10.7961181"><ele>193.0</ele><time>2026-04-18T10:07:35.472Z</time></trkpt><trkpt lat="43.2956175" lon="10.7960324"><ele>193.0</ele><time>2026-04-18T10:07:36.468Z</time></trkpt><trkpt lat="43.2956967" lon="10.7960014"><ele>193.0</ele><time>2026-04-18T10:07:37.486Z</time></trkpt><trkpt lat="43.2957729" lon="10.7959952"><ele>192.99999999999997</ele><time>2026-04-18T10:07:38.472Z</time></trkpt><trkpt lat="43.2958405" lon="10.7960324"><ele>193.0</ele><time>2026-04-18T10:07:39.465Z</time></trkpt><trkpt lat="43.2959145" lon="10.7960396"><ele>191.4</ele><time>2026-04-18T10:07:40.471Z</time></trkpt><trkpt lat="43.2960032" lon="10.7960199"><ele>189.8</ele><time>2026-04-18T10:07:41.479Z</time></trkpt><trkpt lat="43.2961018" lon="10.7959794"><ele>188.2</ele><time>2026-04-18T10:07:42.474Z</time></trkpt><trkpt lat="43.2962022" lon="10.7959282"><ele>186.6</ele><time>2026-04-18T10:07:43.475Z</time></trkpt><trkpt lat="43.2963104" lon="10.7958939"><ele>185.0</ele><time>2026-04-18T10:07:44.483Z</time></trkpt><trkpt lat="43.2964136" lon="10.7958868"><ele>182.4</ele><time>2026-04-18T10:07:45.488Z</time></trkpt><trkpt lat="43.2965129" lon="10.7958924"><ele>179.8</ele><time>2026-04-18T10:07:46.466Z</time></trkpt><trkpt lat="43.296613" lon="10.795877"><ele>177.2</ele><time>2026-04-18T10:07:47.473Z</time></trkpt><trkpt lat="43.2967064" lon="10.7958218"><ele>174.6</ele><time>2026-04-18T10:07:48.493Z</time></trkpt><trkpt lat="43.2967736" lon="10.7956933"><ele>172.0</ele><time>2026-04-18T10:07:49.468Z</time></trkpt><trkpt lat="43.2968202" lon="10.7955428"><ele>172.0</ele><time>2026-04-18T10:07:50.473Z</time></trkpt><trkpt lat="43.2968738" lon="10.7954051"><ele>172.0</ele><time>2026-04-18T10:07:51.466Z</time></trkpt><trkpt lat="43.2969438" lon="10.7952925"><ele>172.0</ele><time>2026-04-18T10:07:52.469Z</time></trkpt><trkpt lat="43.2970277" lon="10.7952285"><ele>172.0</ele><time>2026-04-18T10:07:53.476Z</time></trkpt><trkpt lat="43.2971281" lon="10.795229"><ele>172.0</ele><time>2026-04-18T10:07:54.47Z</time></trkpt><trkpt lat="43.2972289" lon="10.7952449"><ele>169.0</ele><time>2026-04-18T10:07:55.498Z</time></trkpt><trkpt lat="43.2973455" lon="10.7952692"><ele>166.0</ele><time>2026-04-18T10:07:56.474Z</time></trkpt><trkpt lat="43.2974625" lon="10.7952716"><ele>163.0</ele><time>2026-04-18T10:07:57.473Z</time></trkpt><trkpt lat="43.2975817" lon="10.7952621"><ele>160.0</ele><time>2026-04-18T10:07:58.474Z</time></trkpt><trkpt lat="43.2977096" lon="10.7952626"><ele>160.0</ele><time>2026-04-18T10:07:59.475Z</time></trkpt><trkpt lat="43.2978311" lon="10.7952512"><ele>160.0</ele><time>2026-04-18T10:08:00.473Z</time></trkpt><trkpt lat="43.2979398" lon="10.795255"><ele>160.0</ele><time>2026-04-18T10:08:01.47Z</time></trkpt><trkpt lat="43.2980501" lon="10.7952569"><ele>160.0</ele><time>2026-04-18T10:08:02.478Z</time></trkpt><trkpt lat="43.2981542" lon="10.7953115"><ele>160.5</ele><time>2026-04-18T10:08:03.476Z</time></trkpt><trkpt lat="43.2982525" lon="10.7953988"><ele>161.0</ele><time>2026-04-18T10:08:04.476Z</time></trkpt><trkpt lat="43.2983225" lon="10.7955134"><ele>161.5</ele><time>2026-04-18T10:08:05.466Z</time></trkpt><trkpt lat="43.2983797" lon="10.7956518"><ele>162.0</ele><time>2026-04-18T10:08:06.476Z</time></trkpt><trkpt lat="43.2984179" lon="10.7957953"><ele>162.0</ele><time>2026-04-18T10:08:07.469Z</time></trkpt><trkpt lat="43.2984314" lon="10.7959466"><ele>162.0</ele><time>2026-04-18T10:08:08.467Z</time></trkpt><trkpt lat="43.2984182" lon="10.7961138"><ele>162.0</ele><time>2026-04-18T10:08:09.468Z</time></trkpt><trkpt lat="43.2984048" lon="10.796285"><ele>162.0</ele><time>2026-04-18T10:08:10.467Z</time></trkpt><trkpt lat="43.2984022" lon="10.7964532"><ele>160.5</ele><time>2026-04-18T10:08:11.468Z</time></trkpt><trkpt lat="43.2983987" lon="10.7966296"><ele>159.0</ele><time>2026-04-18T10:08:12.467Z</time></trkpt><trkpt lat="43.2983941" lon="10.7967773"><ele>157.5</ele><time>2026-04-18T10:08:13.466Z</time></trkpt><trkpt lat="43.2984195" lon="10.7969208"><ele>156.0</ele><time>2026-04-18T10:08:14.471Z</time></trkpt><trkpt lat="43.29847" lon="10.7970574"><ele>153.5</ele><time>2026-04-18T10:08:15.476Z</time></trkpt><trkpt lat="43.298545" lon="10.7971908"><ele>151.0</ele><time>2026-04-18T10:08:16.465Z</time></trkpt><trkpt lat="43.2986201" lon="10.7973047"><ele>148.5</ele><time>2026-04-18T10:08:17.474Z</time></trkpt><trkpt lat="43.2986929" lon="10.7974122"><ele>146.0</ele><time>2026-04-18T10:08:18.481Z</time></trkpt><trkpt lat="43.2987676" lon="10.7975228"><ele>146.0</ele><time>2026-04-18T10:08:19.47Z</time></trkpt><trkpt lat="43.2988382" lon="10.79766"><ele>146.0</ele><time>2026-04-18T10:08:20.475Z</time></trkpt><trkpt lat="43.2988756" lon="10.7978053"><ele>146.0</ele><time>2026-04-18T10:08:21.473Z</time></trkpt><trkpt lat="43.2988895" lon="10.7979658"><ele>146.0</ele><time>2026-04-18T10:08:22.464Z</time></trkpt><trkpt lat="43.2989154" lon="10.7981186"><ele>146.0</ele><time>2026-04-18T10:08:23.475Z</time></trkpt><trkpt lat="43.2989696" lon="10.7982805"><ele>146.0</ele><time>2026-04-18T10:08:24.472Z</time></trkpt><trkpt lat="43.2990483" lon="10.7984347"><ele>146.0</ele><time>2026-04-18T10:08:25.471Z</time></trkpt><trkpt lat="43.2991288" lon="10.798587"><ele>146.0</ele><time>2026-04-18T10:08:26.482Z</time></trkpt><trkpt lat="43.2992069" lon="10.7987476"><ele>146.0</ele><time>2026-04-18T10:08:27.47Z</time></trkpt><trkpt lat="43.2992772" lon="10.7989105"><ele>146.0</ele><time>2026-04-18T10:08:28.465Z</time></trkpt><trkpt lat="43.2993355" lon="10.7990579"><ele>146.0</ele><time>2026-04-18T10:08:29.464Z</time></trkpt><trkpt lat="43.299379" lon="10.7992167"><ele>146.0</ele><time>2026-04-18T10:08:30.476Z</time></trkpt><trkpt lat="43.2994083" lon="10.7993761"><ele>144.5</ele><time>2026-04-18T10:08:31.467Z</time></trkpt><trkpt lat="43.2994178" lon="10.7995471"><ele>143.0</ele><time>2026-04-18T10:08:32.48Z</time></trkpt><trkpt lat="43.2994115" lon="10.7997154"><ele>141.5</ele><time>2026-04-18T10:08:33.476Z</time></trkpt><trkpt lat="43.2994214" lon="10.7998834"><ele>140.0</ele><time>2026-04-18T10:08:34.468Z</time></trkpt><trkpt lat="43.2994368" lon="10.8000421"><ele>139.6</ele><time>2026-04-18T10:08:35.488Z</time></trkpt><trkpt lat="43.2994325" lon="10.8001855"><ele>139.2</ele><time>2026-04-18T10:08:36.472Z</time></trkpt><trkpt lat="43.2994159" lon="10.8003053"><ele>138.8</ele><time>2026-04-18T10:08:37.474Z</time></trkpt><trkpt lat="43.2993741" lon="10.8004263"><ele>138.4</ele><time>2026-04-18T10:08:38.458Z</time></trkpt><trkpt lat="43.2993276" lon="10.8005441"><ele>138.0</ele><time>2026-04-18T10:08:39.464Z</time></trkpt><trkpt lat="43.2993007" lon="10.8006463"><ele>138.0</ele><time>2026-04-18T10:08:40.478Z</time></trkpt><trkpt lat="43.2992949" lon="10.8007789"><ele>138.0</ele><time>2026-04-18T10:08:41.479Z</time></trkpt><trkpt lat="43.2993452" lon="10.8009214"><ele>138.0</ele><time>2026-04-18T10:08:42.477Z</time></trkpt><trkpt lat="43.2994058" lon="10.8010156"><ele>138.0</ele><time>2026-04-18T10:08:43.469Z</time></trkpt><trkpt lat="43.299483" lon="10.8010927"><ele>138.0</ele><time>2026-04-18T10:08:44.47Z</time></trkpt><trkpt lat="43.2995828" lon="10.80114"><ele>137.5</ele><time>2026-04-18T10:08:45.481Z</time></trkpt><trkpt lat="43.2996795" lon="10.8011804"><ele>137.0</ele><time>2026-04-18T10:08:46.476Z</time></trkpt><trkpt lat="43.2997884" lon="10.8012293"><ele>136.5</ele><time>2026-04-18T10:08:47.479Z</time></trkpt><trkpt lat="43.2999047" lon="10.8012684"><ele>136.0</ele><time>2026-04-18T10:08:48.477Z</time></trkpt><trkpt lat="43.3000303" lon="10.8012973"><ele>138.0</ele><time>2026-04-18T10:08:49.485Z</time></trkpt><trkpt lat="43.3001534" lon="10.8013103"><ele>140.0</ele><time>2026-04-18T10:08:50.473Z</time></trkpt><trkpt lat="43.3002857" lon="10.8013232"><ele>142.0</ele><time>2026-04-18T10:08:51.477Z</time></trkpt><trkpt lat="43.3004136" lon="10.8013072"><ele>144.0</ele><time>2026-04-18T10:08:52.482Z</time></trkpt><trkpt lat="43.3005418" lon="10.8012915"><ele>143.75</ele><time>2026-04-18T10:08:53.477Z</time></trkpt><trkpt lat="43.3006623" lon="10.8013163"><ele>143.5</ele><time>2026-04-18T10:08:54.493Z</time></trkpt><trkpt lat="43.3007792" lon="10.8013787"><ele>143.25</ele><time>2026-04-18T10:08:55.494Z</time></trkpt><trkpt lat="43.3008851" lon="10.8014568"><ele>143.0</ele><time>2026-04-18T10:08:56.487Z</time></trkpt><trkpt lat="43.3009852" lon="10.8015659"><ele>143.0</ele><time>2026-04-18T10:08:57.485Z</time></trkpt><trkpt lat="43.3010933" lon="10.8016875"><ele>143.0</ele><time>2026-04-18T10:08:58.483Z</time></trkpt><trkpt lat="43.3011954" lon="10.8017996"><ele>143.0</ele><time>2026-04-18T10:08:59.472Z</time></trkpt><trkpt lat="43.3013058" lon="10.8019224"><ele>143.0</ele><time>2026-04-18T10:09:00.474Z</time></trkpt><trkpt lat="43.3014223" lon="10.8020357"><ele>142.25</ele><time>2026-04-18T10:09:01.467Z</time></trkpt><trkpt lat="43.3015364" lon="10.8021551"><ele>141.5</ele><time>2026-04-18T10:09:02.461Z</time></trkpt><trkpt lat="43.3016518" lon="10.8022666"><ele>140.75</ele><time>2026-04-18T10:09:03.469Z</time></trkpt><trkpt lat="43.3017625" lon="10.8023665"><ele>140.0</ele><time>2026-04-18T10:09:04.476Z</time></trkpt><trkpt lat="43.30187" lon="10.8024596"><ele>140.0</ele><time>2026-04-18T10:09:05.466Z</time></trkpt><trkpt lat="43.3019797" lon="10.8025541"><ele>140.0</ele><time>2026-04-18T10:09:06.457Z</time></trkpt><trkpt lat="43.3020873" lon="10.8026508"><ele>140.0</ele><time>2026-04-18T10:09:07.475Z</time></trkpt><trkpt lat="43.3021938" lon="10.8027442"><ele>140.0</ele><time>2026-04-18T10:09:08.499Z</time></trkpt><trkpt lat="43.3023005" lon="10.8028274"><ele>139.0</ele><time>2026-04-18T10:09:09.469Z</time></trkpt><trkpt lat="43.3024084" lon="10.8028895"><ele>138.0</ele><time>2026-04-18T10:09:10.482Z</time></trkpt><trkpt lat="43.3024996" lon="10.8029295"><ele>137.0</ele><time>2026-04-18T10:09:11.473Z</time></trkpt><trkpt lat="43.3025676" lon="10.80294"><ele>136.0</ele><time>2026-04-18T10:09:12.467Z</time></trkpt><trkpt lat="43.3026383" lon="10.8029324"><ele>135.0</ele><time>2026-04-18T10:09:14.466Z</time></trkpt><trkpt lat="43.3027039" lon="10.8028999"><ele>134.0</ele><time>2026-04-18T10:09:16.465Z</time></trkpt><trkpt lat="43.302797" lon="10.8028841"><ele>134.0</ele><time>2026-04-18T10:09:18.462Z</time></trkpt><trkpt lat="43.3028567" lon="10.8028558"><ele>134.0</ele><time>2026-04-18T10:09:19.467Z</time></trkpt><trkpt lat="43.3029275" lon="10.8028133"><ele>134.0</ele><time>2026-04-18T10:09:20.479Z</time></trkpt><trkpt lat="43.3029998" lon="10.8027546"><ele>134.0</ele><time>2026-04-18T10:09:21.472Z</time></trkpt><trkpt lat="43.3030754" lon="10.8026957"><ele>134.0</ele><time>2026-04-18T10:09:22.463Z</time></trkpt><trkpt lat="43.3031526" lon="10.8026505"><ele>134.0</ele><time>2026-04-18T10:09:23.468Z</time></trkpt><trkpt lat="43.3032384" lon="10.8026331"><ele>133.6</ele><time>2026-04-18T10:09:24.472Z</time></trkpt><trkpt lat="43.3033295" lon="10.8026238"><ele>133.2</ele><time>2026-04-18T10:09:25.472Z</time></trkpt><trkpt lat="43.3034123" lon="10.8026476"><ele>132.79999999999998</ele><time>2026-04-18T10:09:26.485Z</time></trkpt><trkpt lat="43.3035007" lon="10.802694"><ele>132.4</ele><time>2026-04-18T10:09:27.506Z</time></trkpt><trkpt lat="43.3035773" lon="10.8027585"><ele>132.0</ele><time>2026-04-18T10:09:28.493Z</time></trkpt><trkpt lat="43.3036436" lon="10.8028484"><ele>131.6</ele><time>2026-04-18T10:09:29.487Z</time></trkpt><trkpt lat="43.3036799" lon="10.8029742"><ele>131.2</ele><time>2026-04-18T10:09:30.474Z</time></trkpt><trkpt lat="43.3037092" lon="10.8031168"><ele>130.8</ele><time>2026-04-18T10:09:31.474Z</time></trkpt><trkpt lat="43.3037377" lon="10.8032717"><ele>130.4</ele><time>2026-04-18T10:09:32.459Z</time></trkpt><trkpt lat="43.3037585" lon="10.8034429"><ele>130.0</ele><time>2026-04-18T10:09:33.477Z</time></trkpt><trkpt lat="43.3037872" lon="10.8036213"><ele>127.66666666666667</ele><time>2026-04-18T10:09:34.476Z</time></trkpt><trkpt lat="43.3038256" lon="10.8038146"><ele>125.33333333333334</ele><time>2026-04-18T10:09:35.498Z</time></trkpt><trkpt lat="43.3038597" lon="10.804017"><ele>123.0</ele><time>2026-04-18T10:09:36.473Z</time></trkpt><trkpt lat="43.3039004" lon="10.8042283"><ele>116.33333333333334</ele><time>2026-04-18T10:09:37.491Z</time></trkpt><trkpt lat="43.3039429" lon="10.8044377"><ele>109.66666666666667</ele><time>2026-04-18T10:09:38.471Z</time></trkpt><trkpt lat="43.3039888" lon="10.8046536"><ele>103.0</ele><time>2026-04-18T10:09:39.478Z</time></trkpt><trkpt lat="43.3040417" lon="10.8048767"><ele>103.0</ele><time>2026-04-18T10:09:40.5Z</time></trkpt><trkpt lat="43.3040732" lon="10.8050876"><ele>103.0</ele><time>2026-04-18T10:09:41.484Z</time></trkpt><trkpt lat="43.3040964" lon="10.8052851"><ele>103.0</ele><time>2026-04-18T10:09:42.488Z</time></trkpt><trkpt lat="43.3041148" lon="10.8054641"><ele>103.0</ele><time>2026-04-18T10:09:43.482Z</time></trkpt><trkpt lat="43.3041118" lon="10.8056512"><ele>102.25</ele><time>2026-04-18T10:09:44.477Z</time></trkpt><trkpt lat="43.304084" lon="10.8058356"><ele>101.5</ele><time>2026-04-18T10:09:45.476Z</time></trkpt><trkpt lat="43.304026" lon="10.8060072"><ele>100.75</ele><time>2026-04-18T10:09:46.467Z</time></trkpt><trkpt lat="43.3039447" lon="10.8061547"><ele>100.0</ele><time>2026-04-18T10:09:47.476Z</time></trkpt><trkpt lat="43.3038441" lon="10.8062966"><ele>100.0</ele><time>2026-04-18T10:09:48.494Z</time></trkpt><trkpt lat="43.3037221" lon="10.8064491"><ele>100.0</ele><time>2026-04-18T10:09:49.506Z</time></trkpt><trkpt lat="43.3036132" lon="10.8066059"><ele>100.0</ele><time>2026-04-18T10:09:50.48Z</time></trkpt><trkpt lat="43.3035009" lon="10.8067572"><ele>99.75</ele><time>2026-04-18T10:09:51.501Z</time></trkpt><trkpt lat="43.3033895" lon="10.8068986"><ele>99.5</ele><time>2026-04-18T10:09:52.492Z</time></trkpt><trkpt lat="43.3032782" lon="10.8070449"><ele>99.25</ele><time>2026-04-18T10:09:53.485Z</time></trkpt><trkpt lat="43.3031748" lon="10.8071784"><ele>99.0</ele><time>2026-04-18T10:09:54.486Z</time></trkpt><trkpt lat="43.30307" lon="10.8073213"><ele>99.75</ele><time>2026-04-18T10:09:55.481Z</time></trkpt><trkpt lat="43.3029737" lon="10.8074647"><ele>100.5</ele><time>2026-04-18T10:09:56.49Z</time></trkpt><trkpt lat="43.30288" lon="10.8076135"><ele>101.25</ele><time>2026-04-18T10:09:57.478Z</time></trkpt><trkpt lat="43.3028041" lon="10.8077573"><ele>102.0</ele><time>2026-04-18T10:09:58.487Z</time></trkpt><trkpt lat="43.3027482" lon="10.8078935"><ele>102.0</ele><time>2026-04-18T10:09:59.478Z</time></trkpt><trkpt lat="43.3026935" lon="10.8080206"><ele>102.0</ele><time>2026-04-18T10:10:00.498Z</time></trkpt><trkpt lat="43.3026487" lon="10.808132"><ele>102.0</ele><time>2026-04-18T10:10:01.481Z</time></trkpt><trkpt lat="43.3026229" lon="10.8082314"><ele>102.0</ele><time>2026-04-18T10:10:02.49Z</time></trkpt><trkpt lat="43.3025819" lon="10.8083696"><ele>102.0</ele><time>2026-04-18T10:10:04.489Z</time></trkpt><trkpt lat="43.3025446" lon="10.8084946"><ele>102.0</ele><time>2026-04-18T10:10:06.483Z</time></trkpt><trkpt lat="43.3025028" lon="10.8086253"><ele>102.0</ele><time>2026-04-18T10:10:08.495Z</time></trkpt><trkpt lat="43.3024623" lon="10.8087231"><ele>102.0</ele><time>2026-04-18T10:10:10.483Z</time></trkpt><trkpt lat="43.3024284" lon="10.8088376"><ele>102.0</ele><time>2026-04-18T10:10:12.49Z</time></trkpt><trkpt lat="43.3023852" lon="10.8089559"><ele>102.0</ele><time>2026-04-18T10:10:14.493Z</time></trkpt><trkpt lat="43.3023373" lon="10.8090671"><ele>102.0</ele><time>2026-04-18T10:10:16.487Z</time></trkpt><trkpt lat="43.3022954" lon="10.8091334"><ele>102.0</ele><time>2026-04-18T10:10:18.474Z</time></trkpt><trkpt lat="43.3022326" lon="10.8092002"><ele>102.0</ele><time>2026-04-18T10:11:04.47Z</time></trkpt><trkpt lat="43.3021629" lon="10.8091908"><ele>102.0</ele><time>2026-04-18T10:11:06.509Z</time></trkpt><trkpt lat="43.3020969" lon="10.8090883"><ele>102.0</ele><time>2026-04-18T10:11:08.478Z</time></trkpt><trkpt lat="43.3020557" lon="10.8090111"><ele>102.0</ele><time>2026-04-18T10:11:09.479Z</time></trkpt><trkpt lat="43.3019784" lon="10.8089001"><ele>102.5</ele><time>2026-04-18T10:11:11.468Z</time></trkpt><trkpt lat="43.3019291" lon="10.8088344"><ele>103.0</ele><time>2026-04-18T10:11:12.487Z</time></trkpt><trkpt lat="43.30186" lon="10.8087755"><ele>103.5</ele><time>2026-04-18T10:11:13.501Z</time></trkpt><trkpt lat="43.301782" lon="10.8087141"><ele>104.0</ele><time>2026-04-18T10:11:14.512Z</time></trkpt><trkpt lat="43.3016999" lon="10.808641"><ele>104.5</ele><time>2026-04-18T10:11:15.486Z</time></trkpt><trkpt lat="43.3016154" lon="10.8085581"><ele>105.0</ele><time>2026-04-18T10:11:16.487Z</time></trkpt><trkpt lat="43.3015364" lon="10.8084625"><ele>105.0</ele><time>2026-04-18T10:11:17.479Z</time></trkpt><trkpt lat="43.301467" lon="10.808375"><ele>105.0</ele><time>2026-04-18T10:11:18.477Z</time></trkpt><trkpt lat="43.3013976" lon="10.8083078"><ele>105.0</ele><time>2026-04-18T10:11:19.483Z</time></trkpt><trkpt lat="43.3013294" lon="10.8082579"><ele>105.0</ele><time>2026-04-18T10:11:20.499Z</time></trkpt><trkpt lat="43.3012528" lon="10.8082376"><ele>105.0</ele><time>2026-04-18T10:11:21.47Z</time></trkpt><trkpt lat="43.3011878" lon="10.808248"><ele>105.0</ele><time>2026-04-18T10:11:22.475Z</time></trkpt><trkpt lat="43.3011583" lon="10.8083455"><ele>106.14285714285714</ele><time>2026-04-18T10:11:23.481Z</time></trkpt><trkpt lat="43.3011745" lon="10.8084319"><ele>107.28571428571428</ele><time>2026-04-18T10:11:24.47Z</time></trkpt><trkpt lat="43.3012002" lon="10.8085271"><ele>108.42857142857143</ele><time>2026-04-18T10:11:25.494Z</time></trkpt><trkpt lat="43.3012246" lon="10.8086283"><ele>109.57142857142857</ele><time>2026-04-18T10:11:26.476Z</time></trkpt><trkpt lat="43.3012444" lon="10.8087294"><ele>110.71428571428571</ele><time>2026-04-18T10:11:27.463Z</time></trkpt><trkpt lat="43.3012401" lon="10.8088319"><ele>111.85714285714286</ele><time>2026-04-18T10:11:28.485Z</time></trkpt><trkpt lat="43.301202" lon="10.8089259"><ele>113.0</ele><time>2026-04-18T10:11:29.486Z</time></trkpt><trkpt lat="43.3011574" lon="10.8090256"><ele>113.80000000000001</ele><time>2026-04-18T10:11:30.511Z</time></trkpt><trkpt lat="43.3010926" lon="10.8091074"><ele>114.60000000000001</ele><time>2026-04-18T10:11:31.491Z</time></trkpt><trkpt lat="43.3010148" lon="10.8091795"><ele>115.39999999999999</ele><time>2026-04-18T10:11:32.48Z</time></trkpt><trkpt lat="43.300931" lon="10.809254"><ele>116.19999999999999</ele><time>2026-04-18T10:11:33.483Z</time></trkpt><trkpt lat="43.3008545" lon="10.8093188"><ele>117.0</ele><time>2026-04-18T10:11:34.513Z</time></trkpt><trkpt lat="43.3007817" lon="10.8094016"><ele>117.0</ele><time>2026-04-18T10:11:35.481Z</time></trkpt><trkpt lat="43.3007002" lon="10.8095061"><ele>116.99999999999999</ele><time>2026-04-18T10:11:36.487Z</time></trkpt><trkpt lat="43.3006357" lon="10.8096107"><ele>116.99999999999999</ele><time>2026-04-18T10:11:37.492Z</time></trkpt><trkpt lat="43.3005734" lon="10.8097172"><ele>117.0</ele><time>2026-04-18T10:11:38.497Z</time></trkpt><trkpt lat="43.3005258" lon="10.8098431"><ele>117.0</ele><time>2026-04-18T10:11:39.481Z</time></trkpt><trkpt lat="43.3004826" lon="10.8099674"><ele>120.19999999999999</ele><time>2026-04-18T10:11:40.484Z</time></trkpt><trkpt lat="43.3004625" lon="10.8100918"><ele>123.39999999999999</ele><time>2026-04-18T10:11:41.492Z</time></trkpt><trkpt lat="43.3004425" lon="10.8102192"><ele>126.60000000000001</ele><time>2026-04-18T10:11:42.495Z</time></trkpt><trkpt lat="43.3004504" lon="10.8103515"><ele>129.8</ele><time>2026-04-18T10:11:43.487Z</time></trkpt><trkpt lat="43.3004629" lon="10.810479"><ele>133.0</ele><time>2026-04-18T10:11:44.488Z</time></trkpt><trkpt lat="43.3004697" lon="10.8105924"><ele>133.4</ele><time>2026-04-18T10:11:45.465Z</time></trkpt><trkpt lat="43.3003934" lon="10.8107137"><ele>133.8</ele><time>2026-04-18T10:11:47.483Z</time></trkpt><trkpt lat="43.3002695" lon="10.8107006"><ele>134.2</ele><time>2026-04-18T10:11:49.472Z</time></trkpt><trkpt lat="43.3002095" lon="10.8106187"><ele>134.6</ele><time>2026-04-18T10:11:50.482Z</time></trkpt><trkpt lat="43.3001699" lon="10.8105401"><ele>135.0</ele><time>2026-04-18T10:11:51.471Z</time></trkpt><trkpt lat="43.3001145" lon="10.8104484"><ele>135.0</ele><time>2026-04-18T10:11:52.477Z</time></trkpt><trkpt lat="43.3000676" lon="10.81034"><ele>135.0</ele><time>2026-04-18T10:11:53.466Z</time></trkpt><trkpt lat="43.3000275" lon="10.8102269"><ele>135.0</ele><time>2026-04-18T10:11:54.496Z</time></trkpt><trkpt lat="43.29998" lon="10.8101107"><ele>135.0</ele><time>2026-04-18T10:11:55.482Z</time></trkpt><trkpt lat="43.2999212" lon="10.8100075"><ele>135.0</ele><time>2026-04-18T10:11:56.493Z</time></trkpt><trkpt lat="43.2998582" lon="10.8099078"><ele>134.6</ele><time>2026-04-18T10:11:57.482Z</time></trkpt><trkpt lat="43.2998052" lon="10.8097918"><ele>134.2</ele><time>2026-04-18T10:11:58.48Z</time></trkpt><trkpt lat="43.2997677" lon="10.8096684"><ele>133.8</ele><time>2026-04-18T10:11:59.505Z</time></trkpt><trkpt lat="43.299733" lon="10.8095463"><ele>133.4</ele><time>2026-04-18T10:12:00.48Z</time></trkpt><trkpt lat="43.2996848" lon="10.8094364"><ele>133.0</ele><time>2026-04-18T10:12:01.479Z</time></trkpt><trkpt lat="43.2996314" lon="10.8093394"><ele>133.6</ele><time>2026-04-18T10:12:02.468Z</time></trkpt><trkpt lat="43.2995544" lon="10.8092896"><ele>134.20000000000002</ele><time>2026-04-18T10:12:03.466Z</time></trkpt><trkpt lat="43.2994541" lon="10.8092704"><ele>134.8</ele><time>2026-04-18T10:12:04.497Z</time></trkpt><trkpt lat="43.299367" lon="10.8092811"><ele>135.4</ele><time>2026-04-18T10:12:05.495Z</time></trkpt><trkpt lat="43.2992648" lon="10.8093233"><ele>136.0</ele><time>2026-04-18T10:12:06.477Z</time></trkpt><trkpt lat="43.2991618" lon="10.809359"><ele>137.2</ele><time>2026-04-18T10:12:07.468Z</time></trkpt><trkpt lat="43.2990619" lon="10.8093975"><ele>138.39999999999998</ele><time>2026-04-18T10:12:08.477Z</time></trkpt><trkpt lat="43.2989616" lon="10.8094346"><ele>139.6</ele><time>2026-04-18T10:12:09.495Z</time></trkpt><trkpt lat="43.2988518" lon="10.8094628"><ele>140.79999999999998</ele><time>2026-04-18T10:12:10.488Z</time></trkpt><trkpt lat="43.2987454" lon="10.80951"><ele>142.0</ele><time>2026-04-18T10:12:11.483Z</time></trkpt><trkpt lat="43.2986181" lon="10.8095574"><ele>142.0</ele><time>2026-04-18T10:12:12.484Z</time></trkpt><trkpt lat="43.2984916" lon="10.80961"><ele>142.0</ele><time>2026-04-18T10:12:13.506Z</time></trkpt><trkpt lat="43.2983517" lon="10.8096679"><ele>142.0</ele><time>2026-04-18T10:12:14.471Z</time></trkpt><trkpt lat="43.2982119" lon="10.809732"><ele>142.0</ele><time>2026-04-18T10:12:15.476Z</time></trkpt><trkpt lat="43.298067" lon="10.8098109"><ele>142.0</ele><time>2026-04-18T10:12:16.48Z</time></trkpt><trkpt lat="43.2979235" lon="10.8098862"><ele>142.0</ele><time>2026-04-18T10:12:17.484Z</time></trkpt><trkpt lat="43.2977821" lon="10.8099601"><ele>142.0</ele><time>2026-04-18T10:12:18.484Z</time></trkpt><trkpt lat="43.2976426" lon="10.8100336"><ele>142.0</ele><time>2026-04-18T10:12:19.474Z</time></trkpt><trkpt lat="43.2975014" lon="10.8101116"><ele>142.0</ele><time>2026-04-18T10:12:20.477Z</time></trkpt><trkpt lat="43.2973562" lon="10.8101869"><ele>142.0</ele><time>2026-04-18T10:12:21.469Z</time></trkpt><trkpt lat="43.2972111" lon="10.8102629"><ele>144.33333333333334</ele><time>2026-04-18T10:12:22.479Z</time></trkpt><trkpt lat="43.2970614" lon="10.8103345"><ele>146.66666666666666</ele><time>2026-04-18T10:12:23.473Z</time></trkpt><trkpt lat="43.2969148" lon="10.8104055"><ele>149.0</ele><time>2026-04-18T10:12:24.476Z</time></trkpt><trkpt lat="43.2967737" lon="10.8104908"><ele>149.0</ele><time>2026-04-18T10:12:25.465Z</time></trkpt><trkpt lat="43.2966321" lon="10.8105693"><ele>149.0</ele><time>2026-04-18T10:12:26.474Z</time></trkpt><trkpt lat="43.2964962" lon="10.8106496"><ele>149.0</ele><time>2026-04-18T10:12:27.463Z</time></trkpt><trkpt lat="43.2963648" lon="10.8107184"><ele>149.0</ele><time>2026-04-18T10:12:28.478Z</time></trkpt><trkpt lat="43.2962417" lon="10.8107887"><ele>149.0</ele><time>2026-04-18T10:12:29.477Z</time></trkpt><trkpt lat="43.2961171" lon="10.8108559"><ele>149.0</ele><time>2026-04-18T10:12:30.476Z</time></trkpt><trkpt lat="43.2959904" lon="10.8109074"><ele>149.0</ele><time>2026-04-18T10:12:31.469Z</time></trkpt><trkpt lat="43.2958596" lon="10.8109444"><ele>149.0</ele><time>2026-04-18T10:12:32.457Z</time></trkpt><trkpt lat="43.2957213" lon="10.8109645"><ele>149.5</ele><time>2026-04-18T10:12:33.467Z</time></trkpt><trkpt lat="43.2955751" lon="10.8109686"><ele>150.0</ele><time>2026-04-18T10:12:34.468Z</time></trkpt><trkpt lat="43.2954343" lon="10.8109532"><ele>150.5</ele><time>2026-04-18T10:12:35.477Z</time></trkpt><trkpt lat="43.2952853" lon="10.810949"><ele>151.0</ele><time>2026-04-18T10:12:36.46Z</time></trkpt><trkpt lat="43.2951301" lon="10.8109337"><ele>151.0</ele><time>2026-04-18T10:12:37.471Z</time></trkpt><trkpt lat="43.2949818" lon="10.8109246"><ele>151.0</ele><time>2026-04-18T10:12:38.466Z</time></trkpt><trkpt lat="43.2948349" lon="10.8109193"><ele>151.0</ele><time>2026-04-18T10:12:39.476Z</time></trkpt><trkpt lat="43.294708" lon="10.8109013"><ele>151.0</ele><time>2026-04-18T10:12:40.47Z</time></trkpt><trkpt lat="43.2945942" lon="10.8108845"><ele>151.00000000000003</ele><time>2026-04-18T10:12:41.466Z</time></trkpt><trkpt lat="43.2945298" lon="10.810877"><ele>151.0</ele><time>2026-04-18T10:12:42.477Z</time></trkpt><trkpt lat="43.2944579" lon="10.8108682"><ele>151.0</ele><time>2026-04-18T10:12:44.473Z</time></trkpt><trkpt lat="43.2943908" lon="10.8108765"><ele>151.0</ele><time>2026-04-18T10:13:20.46Z</time></trkpt><trkpt lat="43.2943275" lon="10.8108862"><ele>151.0</ele><time>2026-04-18T10:13:21.46Z</time></trkpt><trkpt lat="43.2942504" lon="10.8108866"><ele>151.00000000000003</ele><time>2026-04-18T10:13:22.466Z</time></trkpt><trkpt lat="43.2941829" lon="10.8109135"><ele>151.0</ele><time>2026-04-18T10:13:23.47Z</time></trkpt><trkpt lat="43.2941021" lon="10.810964"><ele>150.4</ele><time>2026-04-18T10:13:24.472Z</time></trkpt><trkpt lat="43.2940178" lon="10.8110452"><ele>149.8</ele><time>2026-04-18T10:13:25.471Z</time></trkpt><trkpt lat="43.2939416" lon="10.8111224"><ele>149.20000000000002</ele><time>2026-04-18T10:13:26.457Z</time></trkpt><trkpt lat="43.2938647" lon="10.811204"><ele>148.6</ele><time>2026-04-18T10:13:27.461Z</time></trkpt><trkpt lat="43.2937695" lon="10.8112568"><ele>148.0</ele><time>2026-04-18T10:13:28.475Z</time></trkpt><trkpt lat="43.2936738" lon="10.8112934"><ele>150.20000000000002</ele><time>2026-04-18T10:13:29.474Z</time></trkpt><trkpt lat="43.2935827" lon="10.8112804"><ele>152.4</ele><time>2026-04-18T10:13:30.472Z</time></trkpt><trkpt lat="43.2934943" lon="10.8112303"><ele>154.60000000000002</ele><time>2026-04-18T10:13:31.486Z</time></trkpt><trkpt lat="43.2934053" lon="10.8111305"><ele>156.8</ele><time>2026-04-18T10:13:32.464Z</time></trkpt><trkpt lat="43.2933115" lon="10.8110624"><ele>159.0</ele><time>2026-04-18T10:13:33.476Z</time></trkpt><trkpt lat="43.2932001" lon="10.8110263"><ele>159.0</ele><time>2026-04-18T10:13:34.472Z</time></trkpt><trkpt lat="43.2931018" lon="10.8109774"><ele>159.0</ele><time>2026-04-18T10:13:35.474Z</time></trkpt><trkpt lat="43.2929896" lon="10.8109216"><ele>159.0</ele><time>2026-04-18T10:13:36.473Z</time></trkpt><trkpt lat="43.2928782" lon="10.8108792"><ele>159.0</ele><time>2026-04-18T10:13:37.494Z</time></trkpt><trkpt lat="43.2927769" lon="10.8108379"><ele>159.0</ele><time>2026-04-18T10:13:38.486Z</time></trkpt><trkpt lat="43.2926922" lon="10.8107959"><ele>161.2</ele><time>2026-04-18T10:13:39.477Z</time></trkpt><trkpt lat="43.2925977" lon="10.8107638"><ele>163.4</ele><time>2026-04-18T10:13:40.477Z</time></trkpt><trkpt lat="43.2924909" lon="10.8107471"><ele>165.6</ele><time>2026-04-18T10:13:41.488Z</time></trkpt><trkpt lat="43.2923741" lon="10.8107405"><ele>167.8</ele><time>2026-04-18T10:13:42.492Z</time></trkpt><trkpt lat="43.2922508" lon="10.8107407"><ele>170.0</ele><time>2026-04-18T10:13:43.489Z</time></trkpt><trkpt lat="43.2921325" lon="10.810746"><ele>172.0</ele><time>2026-04-18T10:13:44.491Z</time></trkpt><trkpt lat="43.2920231" lon="10.8107504"><ele>174.0</ele><time>2026-04-18T10:13:45.491Z</time></trkpt><trkpt lat="43.2919155" lon="10.8107545"><ele>176.0</ele><time>2026-04-18T10:13:46.498Z</time></trkpt><trkpt lat="43.291823" lon="10.8107397"><ele>178.0</ele><time>2026-04-18T10:13:47.461Z</time></trkpt><trkpt lat="43.29173" lon="10.8107023"><ele>180.0</ele><time>2026-04-18T10:13:48.488Z</time></trkpt><trkpt lat="43.2916374" lon="10.8106413"><ele>180.0</ele><time>2026-04-18T10:13:49.483Z</time></trkpt><trkpt lat="43.2915649" lon="10.8105454"><ele>180.0</ele><time>2026-04-18T10:13:50.485Z</time></trkpt><trkpt lat="43.2915021" lon="10.8104172"><ele>180.0</ele><time>2026-04-18T10:13:51.481Z</time></trkpt><trkpt lat="43.2914451" lon="10.8102839"><ele>180.0</ele><time>2026-04-18T10:13:52.479Z</time></trkpt><trkpt lat="43.2913746" lon="10.8101449"><ele>180.0</ele><time>2026-04-18T10:13:53.484Z</time></trkpt><trkpt lat="43.2913071" lon="10.8100163"><ele>182.0</ele><time>2026-04-18T10:13:54.493Z</time></trkpt><trkpt lat="43.2912347" lon="10.8098956"><ele>184.0</ele><time>2026-04-18T10:13:55.478Z</time></trkpt><trkpt lat="43.2911739" lon="10.8097959"><ele>186.0</ele><time>2026-04-18T10:13:56.46Z</time></trkpt><trkpt lat="43.2911339" lon="10.809686"><ele>188.0</ele><time>2026-04-18T10:13:57.48Z</time></trkpt><trkpt lat="43.2911057" lon="10.8095636"><ele>190.0</ele><time>2026-04-18T10:13:58.476Z</time></trkpt><trkpt lat="43.2910904" lon="10.8094338"><ele>190.2</ele><time>2026-04-18T10:13:59.49Z</time></trkpt><trkpt lat="43.2910756" lon="10.8092929"><ele>190.4</ele><time>2026-04-18T10:14:00.481Z</time></trkpt><trkpt lat="43.2910686" lon="10.8091668"><ele>190.60000000000002</ele><time>2026-04-18T10:14:01.465Z</time></trkpt><trkpt lat="43.2910771" lon="10.8090326"><ele>190.8</ele><time>2026-04-18T10:14:02.485Z</time></trkpt><trkpt lat="43.2911041" lon="10.8088953"><ele>191.0</ele><time>2026-04-18T10:14:03.481Z</time></trkpt><trkpt lat="43.2911439" lon="10.8087588"><ele>191.0</ele><time>2026-04-18T10:14:04.48Z</time></trkpt><trkpt lat="43.2911909" lon="10.8086349"><ele>191.0</ele><time>2026-04-18T10:14:05.485Z</time></trkpt><trkpt lat="43.2912479" lon="10.8085365"><ele>191.0</ele><time>2026-04-18T10:14:06.479Z</time></trkpt><trkpt lat="43.2913165" lon="10.8084532"><ele>191.0</ele><time>2026-04-18T10:14:07.487Z</time></trkpt><trkpt lat="43.2913575" lon="10.808376"><ele>191.0</ele><time>2026-04-18T10:14:08.48Z</time></trkpt><trkpt lat="43.2913586" lon="10.8082533"><ele>191.0</ele><time>2026-04-18T10:14:09.471Z</time></trkpt><trkpt lat="43.2913364" lon="10.8081363"><ele>192.25</ele><time>2026-04-18T10:14:10.472Z</time></trkpt><trkpt lat="43.2912957" lon="10.8080091"><ele>193.5</ele><time>2026-04-18T10:14:11.481Z</time></trkpt><trkpt lat="43.2912576" lon="10.8078679"><ele>194.75</ele><time>2026-04-18T10:14:12.484Z</time></trkpt><trkpt lat="43.2912239" lon="10.8077124"><ele>196.0</ele><time>2026-04-18T10:14:13.484Z</time></trkpt><trkpt lat="43.2912056" lon="10.8075479"><ele>196.8</ele><time>2026-04-18T10:14:14.466Z</time></trkpt><trkpt lat="43.291183" lon="10.8073886"><ele>197.60000000000002</ele><time>2026-04-18T10:14:15.463Z</time></trkpt><trkpt lat="43.2911655" lon="10.8072409"><ele>198.4</ele><time>2026-04-18T10:14:16.469Z</time></trkpt><trkpt lat="43.2911384" lon="10.8071183"><ele>199.2</ele><time>2026-04-18T10:14:17.483Z</time></trkpt><trkpt lat="43.2911126" lon="10.8069871"><ele>200.0</ele><time>2026-04-18T10:14:18.476Z</time></trkpt><trkpt lat="43.2910852" lon="10.8068634"><ele>199.66666666666669</ele><time>2026-04-18T10:14:19.487Z</time></trkpt><trkpt lat="43.2910448" lon="10.8067449"><ele>199.33333333333334</ele><time>2026-04-18T10:14:20.48Z</time></trkpt><trkpt lat="43.2909975" lon="10.8066428"><ele>199.0</ele><time>2026-04-18T10:14:21.473Z</time></trkpt><trkpt lat="43.2909428" lon="10.8065589"><ele>198.66666666666669</ele><time>2026-04-18T10:14:22.471Z</time></trkpt><trkpt lat="43.2908938" lon="10.80649"><ele>198.33333333333334</ele><time>2026-04-18T10:14:23.469Z</time></trkpt><trkpt lat="43.2907962" lon="10.8064339"><ele>198.0</ele><time>2026-04-18T10:14:25.49Z</time></trkpt><trkpt lat="43.2906991" lon="10.8064635"><ele>198.0</ele><time>2026-04-18T10:14:27.479Z</time></trkpt><trkpt lat="43.2906623" lon="10.8065876"><ele>198.0</ele><time>2026-04-18T10:14:29.476Z</time></trkpt><trkpt lat="43.2906988" lon="10.8067074"><ele>198.0</ele><time>2026-04-18T10:14:30.491Z</time></trkpt><trkpt lat="43.2907176" lon="10.8068241"><ele>198.0</ele><time>2026-04-18T10:14:31.488Z</time></trkpt><trkpt lat="43.2907229" lon="10.8069505"><ele>198.0</ele><time>2026-04-18T10:14:32.474Z</time></trkpt><trkpt lat="43.2907232" lon="10.8070701"><ele>198.4</ele><time>2026-04-18T10:14:33.473Z</time></trkpt><trkpt lat="43.2907145" lon="10.8072096"><ele>198.8</ele><time>2026-04-18T10:14:34.486Z</time></trkpt><trkpt lat="43.2906998" lon="10.8073493"><ele>199.2</ele><time>2026-04-18T10:14:35.489Z</time></trkpt><trkpt lat="43.2906792" lon="10.8074993"><ele>199.6</ele><time>2026-04-18T10:14:36.475Z</time></trkpt><trkpt lat="43.2906555" lon="10.807656"><ele>200.0</ele><time>2026-04-18T10:14:37.473Z</time></trkpt><trkpt lat="43.2906187" lon="10.8078032"><ele>203.5</ele><time>2026-04-18T10:14:38.497Z</time></trkpt><trkpt lat="43.2905751" lon="10.807943"><ele>207.0</ele><time>2026-04-18T10:14:39.474Z</time></trkpt><trkpt lat="43.2905195" lon="10.8080823"><ele>210.5</ele><time>2026-04-18T10:14:40.5Z</time></trkpt><trkpt lat="43.2904454" lon="10.8082023"><ele>214.0</ele><time>2026-04-18T10:14:41.472Z</time></trkpt><trkpt lat="43.290356" lon="10.8083175"><ele>214.0</ele><time>2026-04-18T10:14:42.464Z</time></trkpt><trkpt lat="43.2902738" lon="10.8084273"><ele>213.99999999999997</ele><time>2026-04-18T10:14:43.466Z</time></trkpt><trkpt lat="43.2901989" lon="10.8085294"><ele>213.99999999999997</ele><time>2026-04-18T10:14:44.482Z</time></trkpt><trkpt lat="43.2901353" lon="10.8086421"><ele>214.0</ele><time>2026-04-18T10:14:45.47Z</time></trkpt><trkpt lat="43.2900763" lon="10.8087857"><ele>214.0</ele><time>2026-04-18T10:14:46.471Z</time></trkpt><trkpt lat="43.290041" lon="10.8089311"><ele>213.79999999999998</ele><time>2026-04-18T10:14:47.47Z</time></trkpt><trkpt lat="43.2900279" lon="10.8090856"><ele>213.59999999999997</ele><time>2026-04-18T10:14:48.463Z</time></trkpt><trkpt lat="43.290023" lon="10.8092234"><ele>213.4</ele><time>2026-04-18T10:14:49.459Z</time></trkpt><trkpt lat="43.2899944" lon="10.8093361"><ele>213.2</ele><time>2026-04-18T10:14:50.472Z</time></trkpt><trkpt lat="43.2899548" lon="10.8094288"><ele>213.0</ele><time>2026-04-18T10:14:51.468Z</time></trkpt><trkpt lat="43.2898897" lon="10.8094977"><ele>212.2</ele><time>2026-04-18T10:14:52.472Z</time></trkpt><trkpt lat="43.2898104" lon="10.8095532"><ele>211.4</ele><time>2026-04-18T10:14:53.453Z</time></trkpt><trkpt lat="43.2897271" lon="10.8096064"><ele>210.6</ele><time>2026-04-18T10:14:54.466Z</time></trkpt><trkpt lat="43.2896442" lon="10.8096668"><ele>209.79999999999998</ele><time>2026-04-18T10:14:55.465Z</time></trkpt><trkpt lat="43.2895739" lon="10.8097669"><ele>209.0</ele><time>2026-04-18T10:14:56.467Z</time></trkpt><trkpt lat="43.2895087" lon="10.8098671"><ele>212.6</ele><time>2026-04-18T10:14:57.473Z</time></trkpt><trkpt lat="43.2894406" lon="10.8099723"><ele>216.2</ele><time>2026-04-18T10:14:58.474Z</time></trkpt><trkpt lat="43.2893849" lon="10.8100768"><ele>219.79999999999998</ele><time>2026-04-18T10:14:59.47Z</time></trkpt><trkpt lat="43.2893498" lon="10.8101854"><ele>223.39999999999998</ele><time>2026-04-18T10:15:00.461Z</time></trkpt><trkpt lat="43.2893328" lon="10.8103015"><ele>227.0</ele><time>2026-04-18T10:15:01.467Z</time></trkpt><trkpt lat="43.2893409" lon="10.8104264"><ele>227.0</ele><time>2026-04-18T10:15:02.467Z</time></trkpt><trkpt lat="43.289363" lon="10.8105517"><ele>227.0</ele><time>2026-04-18T10:15:03.46Z</time></trkpt><trkpt lat="43.2893805" lon="10.8106765"><ele>227.0</ele><time>2026-04-18T10:15:04.463Z</time></trkpt><trkpt lat="43.2893888" lon="10.8108134"><ele>227.0</ele><time>2026-04-18T10:15:05.473Z</time></trkpt><trkpt lat="43.2893619" lon="10.8109469"><ele>227.0</ele><time>2026-04-18T10:15:06.469Z</time></trkpt><trkpt lat="43.2893157" lon="10.8110753"><ele>226.8</ele><time>2026-04-18T10:15:07.457Z</time></trkpt><trkpt lat="43.2892645" lon="10.8112084"><ele>226.6</ele><time>2026-04-18T10:15:08.461Z</time></trkpt><trkpt lat="43.2892043" lon="10.8113306"><ele>226.40000000000003</ele><time>2026-04-18T10:15:09.462Z</time></trkpt><trkpt lat="43.2891576" lon="10.8114483"><ele>226.20000000000002</ele><time>2026-04-18T10:15:10.478Z</time></trkpt><trkpt lat="43.2891148" lon="10.8115647"><ele>226.0</ele><time>2026-04-18T10:15:11.478Z</time></trkpt><trkpt lat="43.2890649" lon="10.8116473"><ele>226.0</ele><time>2026-04-18T10:15:12.462Z</time></trkpt><trkpt lat="43.2890151" lon="10.8117035"><ele>226.00000000000003</ele><time>2026-04-18T10:15:13.47Z</time></trkpt><trkpt lat="43.2888978" lon="10.8117112"><ele>226.00000000000003</ele><time>2026-04-18T10:15:15.455Z</time></trkpt><trkpt lat="43.2888561" lon="10.8115774"><ele>226.0</ele><time>2026-04-18T10:15:17.47Z</time></trkpt><trkpt lat="43.2888929" lon="10.8114088"><ele>226.0</ele><time>2026-04-18T10:15:19.458Z</time></trkpt><trkpt lat="43.2889217" lon="10.8112898"><ele>228.20000000000002</ele><time>2026-04-18T10:15:20.466Z</time></trkpt><trkpt lat="43.2889146" lon="10.8111708"><ele>230.40000000000003</ele><time>2026-04-18T10:15:21.462Z</time></trkpt><trkpt lat="43.2888872" lon="10.8110181"><ele>232.6</ele><time>2026-04-18T10:15:22.457Z</time></trkpt><trkpt lat="43.2888542" lon="10.8108698"><ele>234.8</ele><time>2026-04-18T10:15:23.456Z</time></trkpt><trkpt lat="43.2888197" lon="10.8107309"><ele>237.0</ele><time>2026-04-18T10:15:24.459Z</time></trkpt><trkpt lat="43.2887913" lon="10.8105884"><ele>238.0</ele><time>2026-04-18T10:15:25.454Z</time></trkpt><trkpt lat="43.2887544" lon="10.8104481"><ele>239.0</ele><time>2026-04-18T10:15:26.465Z</time></trkpt><trkpt lat="43.2887235" lon="10.8103006"><ele>240.0</ele><time>2026-04-18T10:15:27.466Z</time></trkpt><trkpt lat="43.2887069" lon="10.8101514"><ele>241.0</ele><time>2026-04-18T10:15:28.464Z</time></trkpt><trkpt lat="43.2887092" lon="10.809996"><ele>242.0</ele><time>2026-04-18T10:15:29.456Z</time></trkpt><trkpt lat="43.2887254" lon="10.8098476"><ele>243.0</ele><time>2026-04-18T10:15:30.465Z</time></trkpt><trkpt lat="43.2887557" lon="10.8096977"><ele>244.0</ele><time>2026-04-18T10:15:31.463Z</time></trkpt><trkpt lat="43.2887746" lon="10.8095577"><ele>245.0</ele><time>2026-04-18T10:15:32.468Z</time></trkpt><trkpt lat="43.288795" lon="10.809425"><ele>246.0</ele><time>2026-04-18T10:15:33.469Z</time></trkpt><trkpt lat="43.2888007" lon="10.8093094"><ele>247.0</ele><time>2026-04-18T10:15:34.462Z</time></trkpt><trkpt lat="43.2887926" lon="10.8092089"><ele>247.0</ele><time>2026-04-18T10:15:35.462Z</time></trkpt><trkpt lat="43.2887801" lon="10.8091218"><ele>247.0</ele><time>2026-04-18T10:15:36.476Z</time></trkpt><trkpt lat="43.2887006" lon="10.8090028"><ele>247.0</ele><time>2026-04-18T10:15:38.47Z</time></trkpt><trkpt lat="43.2885825" lon="10.8090608"><ele>247.0</ele><time>2026-04-18T10:15:40.457Z</time></trkpt><trkpt lat="43.2885217" lon="10.8091749"><ele>247.0</ele><time>2026-04-18T10:15:42.476Z</time></trkpt><trkpt lat="43.2884965" lon="10.8093456"><ele>247.0</ele><time>2026-04-18T10:15:44.467Z</time></trkpt><trkpt lat="43.2884625" lon="10.8094566"><ele>247.0</ele><time>2026-04-18T10:15:45.465Z</time></trkpt><trkpt lat="43.2884289" lon="10.8095964"><ele>247.0</ele><time>2026-04-18T10:15:46.476Z</time></trkpt><trkpt lat="43.2883963" lon="10.8097389"><ele>247.0</ele><time>2026-04-18T10:15:47.465Z</time></trkpt><trkpt lat="43.2883689" lon="10.8098808"><ele>247.0</ele><time>2026-04-18T10:15:48.462Z</time></trkpt><trkpt lat="43.2883534" lon="10.8100323"><ele>246.0</ele><time>2026-04-18T10:15:49.46Z</time></trkpt><trkpt lat="43.2883463" lon="10.8101903"><ele>245.0</ele><time>2026-04-18T10:15:50.458Z</time></trkpt><trkpt lat="43.2883408" lon="10.8103398"><ele>244.0</ele><time>2026-04-18T10:15:51.463Z</time></trkpt><trkpt lat="43.2883379" lon="10.8104861"><ele>243.0</ele><time>2026-04-18T10:15:52.47Z</time></trkpt><trkpt lat="43.2883247" lon="10.8106405"><ele>242.0</ele><time>2026-04-18T10:15:53.464Z</time></trkpt><trkpt lat="43.288314" lon="10.8107972"><ele>242.0</ele><time>2026-04-18T10:15:54.471Z</time></trkpt><trkpt lat="43.2882816" lon="10.8109436"><ele>242.0</ele><time>2026-04-18T10:15:55.452Z</time></trkpt><trkpt lat="43.2882322" lon="10.81108"><ele>242.0</ele><time>2026-04-18T10:15:56.467Z</time></trkpt><trkpt lat="43.2881636" lon="10.8112185"><ele>242.0</ele><time>2026-04-18T10:15:57.459Z</time></trkpt><trkpt lat="43.2880767" lon="10.8113426"><ele>244.0</ele><time>2026-04-18T10:15:58.471Z</time></trkpt><trkpt lat="43.2879735" lon="10.8114432"><ele>246.0</ele><time>2026-04-18T10:15:59.463Z</time></trkpt><trkpt lat="43.2878707" lon="10.8115431"><ele>248.0</ele><time>2026-04-18T10:16:00.47Z</time></trkpt><trkpt lat="43.28778" lon="10.8116318"><ele>250.0</ele><time>2026-04-18T10:16:01.471Z</time></trkpt><trkpt lat="43.2876799" lon="10.8117006"><ele>250.0</ele><time>2026-04-18T10:16:02.463Z</time></trkpt><trkpt lat="43.2875895" lon="10.8117389"><ele>250.0</ele><time>2026-04-18T10:16:03.478Z</time></trkpt><trkpt lat="43.2874833" lon="10.8117873"><ele>250.0</ele><time>2026-04-18T10:16:04.457Z</time></trkpt><trkpt lat="43.2873686" lon="10.8118425"><ele>250.0</ele><time>2026-04-18T10:16:05.47Z</time></trkpt><trkpt lat="43.2872659" lon="10.8118983"><ele>250.0</ele><time>2026-04-18T10:16:06.477Z</time></trkpt><trkpt lat="43.2871712" lon="10.8119753"><ele>252.8</ele><time>2026-04-18T10:16:07.464Z</time></trkpt><trkpt lat="43.287078" lon="10.8120596"><ele>255.6</ele><time>2026-04-18T10:16:08.458Z</time></trkpt><trkpt lat="43.2869923" lon="10.8121536"><ele>258.4</ele><time>2026-04-18T10:16:09.472Z</time></trkpt><trkpt lat="43.2869314" lon="10.8122642"><ele>261.2</ele><time>2026-04-18T10:16:10.468Z</time></trkpt><trkpt lat="43.2868858" lon="10.8123891"><ele>264.0</ele><time>2026-04-18T10:16:11.468Z</time></trkpt><trkpt lat="43.2868741" lon="10.8125182"><ele>264.0</ele><time>2026-04-18T10:16:12.453Z</time></trkpt><trkpt lat="43.2868828" lon="10.8126418"><ele>264.0</ele><time>2026-04-18T10:16:13.461Z</time></trkpt><trkpt lat="43.286907" lon="10.8127662"><ele>264.0</ele><time>2026-04-18T10:16:14.47Z</time></trkpt><trkpt lat="43.286954" lon="10.8128894"><ele>264.0</ele><time>2026-04-18T10:16:15.459Z</time></trkpt><trkpt lat="43.2869814" lon="10.8130209"><ele>264.0</ele><time>2026-04-18T10:16:16.465Z</time></trkpt><trkpt lat="43.2870096" lon="10.8131523"><ele>263.4</ele><time>2026-04-18T10:16:17.467Z</time></trkpt><trkpt lat="43.2870096" lon="10.8132684"><ele>262.79999999999995</ele><time>2026-04-18T10:16:18.475Z</time></trkpt><trkpt lat="43.2869969" lon="10.8133794"><ele>262.20000000000005</ele><time>2026-04-18T10:16:19.454Z</time></trkpt><trkpt lat="43.2869395" lon="10.8134762"><ele>261.6</ele><time>2026-04-18T10:16:20.457Z</time></trkpt><trkpt lat="43.2868618" lon="10.8135713"><ele>261.0</ele><time>2026-04-18T10:16:21.463Z</time></trkpt><trkpt lat="43.2867831" lon="10.8136594"><ele>259.5</ele><time>2026-04-18T10:16:22.463Z</time></trkpt><trkpt lat="43.286696" lon="10.8137614"><ele>258.0</ele><time>2026-04-18T10:16:23.459Z</time></trkpt><trkpt lat="43.2865972" lon="10.8138375"><ele>256.5</ele><time>2026-04-18T10:16:24.463Z</time></trkpt><trkpt lat="43.2864965" lon="10.8139186"><ele>255.0</ele><time>2026-04-18T10:16:25.459Z</time></trkpt><trkpt lat="43.2864124" lon="10.8140081"><ele>257.2</ele><time>2026-04-18T10:16:26.453Z</time></trkpt><trkpt lat="43.2863282" lon="10.814133"><ele>259.4</ele><time>2026-04-18T10:16:27.47Z</time></trkpt><trkpt lat="43.2862699" lon="10.814252"><ele>261.6</ele><time>2026-04-18T10:16:28.459Z</time></trkpt><trkpt lat="43.2862334" lon="10.8143896"><ele>263.8</ele><time>2026-04-18T10:16:29.456Z</time></trkpt><trkpt lat="43.2862067" lon="10.8144989"><ele>266.0</ele><time>2026-04-18T10:16:30.455Z</time></trkpt><trkpt lat="43.2861615" lon="10.8145869"><ele>266.0</ele><time>2026-04-18T10:16:31.462Z</time></trkpt><trkpt lat="43.2860902" lon="10.8146522"><ele>266.0</ele><time>2026-04-18T10:16:32.467Z</time></trkpt><trkpt lat="43.2859953" lon="10.8147123"><ele>266.0</ele><time>2026-04-18T10:16:33.459Z</time></trkpt><trkpt lat="43.2859116" lon="10.8147483"><ele>266.0</ele><time>2026-04-18T10:16:34.491Z</time></trkpt><trkpt lat="43.2858164" lon="10.8147862"><ele>266.0</ele><time>2026-04-18T10:16:35.465Z</time></trkpt><trkpt lat="43.285716" lon="10.8148092"><ele>266.0</ele><time>2026-04-18T10:16:36.463Z</time></trkpt><trkpt lat="43.285604" lon="10.8148416"><ele>266.0</ele><time>2026-04-18T10:16:37.466Z</time></trkpt><trkpt lat="43.285497" lon="10.8148897"><ele>266.0</ele><time>2026-04-18T10:16:38.462Z</time></trkpt><trkpt lat="43.2853929" lon="10.8149667"><ele>266.0</ele><time>2026-04-18T10:16:39.467Z</time></trkpt><trkpt lat="43.2852964" lon="10.8150612"><ele>267.5</ele><time>2026-04-18T10:16:40.467Z</time></trkpt><trkpt lat="43.2852041" lon="10.8151729"><ele>269.0</ele><time>2026-04-18T10:16:41.464Z</time></trkpt><trkpt lat="43.285101" lon="10.8153032"><ele>270.5</ele><time>2026-04-18T10:16:42.464Z</time></trkpt><trkpt lat="43.2850132" lon="10.8154248"><ele>272.0</ele><time>2026-04-18T10:16:43.467Z</time></trkpt><trkpt lat="43.2849336" lon="10.8155283"><ele>272.0</ele><time>2026-04-18T10:16:44.46Z</time></trkpt><trkpt lat="43.2848658" lon="10.8156269"><ele>272.0</ele><time>2026-04-18T10:16:45.47Z</time></trkpt><trkpt lat="43.2847994" lon="10.8157081"><ele>272.0</ele><time>2026-04-18T10:16:46.467Z</time></trkpt><trkpt lat="43.2847299" lon="10.8157774"><ele>272.0</ele><time>2026-04-18T10:16:47.467Z</time></trkpt><trkpt lat="43.2846607" lon="10.8158465"><ele>272.0</ele><time>2026-04-18T10:16:48.465Z</time></trkpt><trkpt lat="43.2845985" lon="10.8158965"><ele>272.0</ele><time>2026-04-18T10:16:49.477Z</time></trkpt><trkpt lat="43.2845342" lon="10.8159327"><ele>273.8</ele><time>2026-04-18T10:16:50.462Z</time></trkpt><trkpt lat="43.2844632" lon="10.8159516"><ele>275.6</ele><time>2026-04-18T10:16:51.445Z</time></trkpt><trkpt lat="43.2843522" lon="10.8158794"><ele>277.40000000000003</ele><time>2026-04-18T10:16:53.458Z</time></trkpt><trkpt lat="43.2843074" lon="10.8158014"><ele>279.2</ele><time>2026-04-18T10:16:54.457Z</time></trkpt><trkpt lat="43.2842549" lon="10.8157043"><ele>281.0</ele><time>2026-04-18T10:16:55.458Z</time></trkpt><trkpt lat="43.2841771" lon="10.8156166"><ele>281.0</ele><time>2026-04-18T10:16:56.466Z</time></trkpt><trkpt lat="43.2841019" lon="10.8155078"><ele>281.0</ele><time>2026-04-18T10:16:57.463Z</time></trkpt><trkpt lat="43.2840319" lon="10.8153999"><ele>281.0</ele><time>2026-04-18T10:16:58.462Z</time></trkpt><trkpt lat="43.2839616" lon="10.8152993"><ele>281.0</ele><time>2026-04-18T10:16:59.462Z</time></trkpt><trkpt lat="43.2838771" lon="10.8152349"><ele>281.0</ele><time>2026-04-18T10:17:00.462Z</time></trkpt><trkpt lat="43.2837727" lon="10.8152046"><ele>280.6</ele><time>2026-04-18T10:17:01.46Z</time></trkpt><trkpt lat="43.2836658" lon="10.8152048"><ele>280.20000000000005</ele><time>2026-04-18T10:17:02.462Z</time></trkpt><trkpt lat="43.2835641" lon="10.8152272"><ele>279.79999999999995</ele><time>2026-04-18T10:17:03.471Z</time></trkpt><trkpt lat="43.2834607" lon="10.8152562"><ele>279.4</ele><time>2026-04-18T10:17:04.462Z</time></trkpt><trkpt lat="43.2833685" lon="10.8152969"><ele>279.0</ele><time>2026-04-18T10:17:05.461Z</time></trkpt><trkpt lat="43.2832996" lon="10.8152992"><ele>279.0</ele><time>2026-04-18T10:17:06.449Z</time></trkpt><trkpt lat="43.2832366" lon="10.8152986"><ele>279.0</ele><time>2026-04-18T10:17:07.498Z</time></trkpt><trkpt lat="43.2831622" lon="10.8152108"><ele>279.0</ele><time>2026-04-18T10:17:09.466Z</time></trkpt><trkpt lat="43.2832078" lon="10.8150735"><ele>279.0</ele><time>2026-04-18T10:17:11.465Z</time></trkpt><trkpt lat="43.2832572" lon="10.8150136"><ele>279.0</ele><time>2026-04-18T10:17:12.467Z</time></trkpt><trkpt lat="43.2833279" lon="10.8149409"><ele>279.0</ele><time>2026-04-18T10:17:13.487Z</time></trkpt><trkpt lat="43.2834157" lon="10.8148556"><ele>281.59999999999997</ele><time>2026-04-18T10:17:14.477Z</time></trkpt><trkpt lat="43.283506" lon="10.8147817"><ele>284.2</ele><time>2026-04-18T10:17:15.48Z</time></trkpt><trkpt lat="43.2835889" lon="10.8147066"><ele>286.79999999999995</ele><time>2026-04-18T10:17:16.467Z</time></trkpt><trkpt lat="43.2836664" lon="10.814628"><ele>289.4</ele><time>2026-04-18T10:17:17.48Z</time></trkpt><trkpt lat="43.2837438" lon="10.8145492"><ele>292.0</ele><time>2026-04-18T10:17:18.464Z</time></trkpt><trkpt lat="43.2838337" lon="10.8144755"><ele>292.0</ele><time>2026-04-18T10:17:19.471Z</time></trkpt><trkpt lat="43.2839266" lon="10.8144067"><ele>292.0</ele><time>2026-04-18T10:17:20.481Z</time></trkpt><trkpt lat="43.2840277" lon="10.8143441"><ele>292.0</ele><time>2026-04-18T10:17:21.462Z</time></trkpt><trkpt lat="43.284117" lon="10.8142732"><ele>292.0</ele><time>2026-04-18T10:17:22.478Z</time></trkpt><trkpt lat="43.2841863" lon="10.8141757"><ele>292.0</ele><time>2026-04-18T10:17:23.458Z</time></trkpt><trkpt lat="43.2842511" lon="10.8140485"><ele>293.0</ele><time>2026-04-18T10:17:24.457Z</time></trkpt><trkpt lat="43.2843065" lon="10.8139032"><ele>294.0</ele><time>2026-04-18T10:17:25.459Z</time></trkpt><trkpt lat="43.2843563" lon="10.8137792"><ele>295.0</ele><time>2026-04-18T10:17:26.452Z</time></trkpt><trkpt lat="43.2843964" lon="10.8136536"><ele>296.0</ele><time>2026-04-18T10:17:27.484Z</time></trkpt><trkpt lat="43.2844176" lon="10.8135209"><ele>297.0</ele><time>2026-04-18T10:17:28.464Z</time></trkpt><trkpt lat="43.2844181" lon="10.8133709"><ele>299.0</ele><time>2026-04-18T10:17:29.467Z</time></trkpt><trkpt lat="43.2844104" lon="10.8132271"><ele>301.0</ele><time>2026-04-18T10:17:30.468Z</time></trkpt><trkpt lat="43.2844014" lon="10.8130806"><ele>303.0</ele><time>2026-04-18T10:17:31.463Z</time></trkpt><trkpt lat="43.2843952" lon="10.8129417"><ele>305.0</ele><time>2026-04-18T10:17:32.482Z</time></trkpt><trkpt lat="43.2843909" lon="10.8128122"><ele>307.0</ele><time>2026-04-18T10:17:33.474Z</time></trkpt><trkpt lat="43.2844041" lon="10.8126848"><ele>310.6</ele><time>2026-04-18T10:17:34.465Z</time></trkpt><trkpt lat="43.2844309" lon="10.8125556"><ele>314.2</ele><time>2026-04-18T10:17:35.465Z</time></trkpt><trkpt lat="43.2844677" lon="10.8124353"><ele>317.8</ele><time>2026-04-18T10:17:36.473Z</time></trkpt><trkpt lat="43.2845089" lon="10.8123197"><ele>321.4</ele><time>2026-04-18T10:17:37.473Z</time></trkpt><trkpt lat="43.2845451" lon="10.8122134"><ele>325.0</ele><time>2026-04-18T10:17:38.46Z</time></trkpt><trkpt lat="43.2845657" lon="10.8120946"><ele>325.0</ele><time>2026-04-18T10:17:39.462Z</time></trkpt><trkpt lat="43.2845835" lon="10.8119661"><ele>325.0</ele><time>2026-04-18T10:17:40.463Z</time></trkpt><trkpt lat="43.2845891" lon="10.8118297"><ele>325.0</ele><time>2026-04-18T10:17:41.47Z</time></trkpt><trkpt lat="43.2845967" lon="10.8116887"><ele>325.0</ele><time>2026-04-18T10:17:42.476Z</time></trkpt><trkpt lat="43.2846169" lon="10.811546"><ele>325.0</ele><time>2026-04-18T10:17:43.463Z</time></trkpt><trkpt lat="43.2846371" lon="10.8113908"><ele>323.4</ele><time>2026-04-18T10:17:44.465Z</time></trkpt><trkpt lat="43.284667" lon="10.8112437"><ele>321.8</ele><time>2026-04-18T10:17:45.465Z</time></trkpt><trkpt lat="43.2846965" lon="10.8110973"><ele>320.2</ele><time>2026-04-18T10:17:46.458Z</time></trkpt><trkpt lat="43.2847241" lon="10.8109547"><ele>318.6</ele><time>2026-04-18T10:17:47.452Z</time></trkpt><trkpt lat="43.2847596" lon="10.8108107"><ele>317.0</ele><time>2026-04-18T10:17:48.466Z</time></trkpt><trkpt lat="43.284806" lon="10.8106932"><ele>317.0</ele><time>2026-04-18T10:17:49.463Z</time></trkpt><trkpt lat="43.2848582" lon="10.8105922"><ele>317.0</ele><time>2026-04-18T10:17:50.454Z</time></trkpt><trkpt lat="43.2849158" lon="10.8104841"><ele>317.0</ele><time>2026-04-18T10:17:51.462Z</time></trkpt><trkpt lat="43.2849733" lon="10.810367"><ele>317.0</ele><time>2026-04-18T10:17:52.481Z</time></trkpt><trkpt lat="43.2850274" lon="10.8102417"><ele>317.0</ele><time>2026-04-18T10:17:53.46Z</time></trkpt><trkpt lat="43.2850641" lon="10.8101027"><ele>320.2</ele><time>2026-04-18T10:17:54.453Z</time></trkpt><trkpt lat="43.2850934" lon="10.8099609"><ele>323.4</ele><time>2026-04-18T10:17:55.464Z</time></trkpt><trkpt lat="43.2851059" lon="10.8098173"><ele>326.59999999999997</ele><time>2026-04-18T10:17:56.463Z</time></trkpt><trkpt lat="43.2851018" lon="10.8096705"><ele>329.79999999999995</ele><time>2026-04-18T10:17:57.479Z</time></trkpt><trkpt lat="43.2850742" lon="10.809519"><ele>333.0</ele><time>2026-04-18T10:17:58.457Z</time></trkpt><trkpt lat="43.2850474" lon="10.8093628"><ele>332.75</ele><time>2026-04-18T10:17:59.46Z</time></trkpt><trkpt lat="43.2850134" lon="10.8092183"><ele>332.5</ele><time>2026-04-18T10:18:00.46Z</time></trkpt><trkpt lat="43.2849714" lon="10.8090723"><ele>332.25</ele><time>2026-04-18T10:18:01.456Z</time></trkpt><trkpt lat="43.2849282" lon="10.808927"><ele>332.0</ele><time>2026-04-18T10:18:02.456Z</time></trkpt><trkpt lat="43.2848721" lon="10.8087878"><ele>332.0</ele><time>2026-04-18T10:18:03.456Z</time></trkpt><trkpt lat="43.284814" lon="10.8086749"><ele>332.0</ele><time>2026-04-18T10:18:04.464Z</time></trkpt><trkpt lat="43.28476" lon="10.8085573"><ele>332.0</ele><time>2026-04-18T10:18:05.464Z</time></trkpt><trkpt lat="43.2847039" lon="10.8084446"><ele>332.0</ele><time>2026-04-18T10:18:06.473Z</time></trkpt><trkpt lat="43.2846754" lon="10.8083233"><ele>332.0</ele><time>2026-04-18T10:18:07.474Z</time></trkpt><trkpt lat="43.2846553" lon="10.8081901"><ele>330.8</ele><time>2026-04-18T10:18:08.474Z</time></trkpt><trkpt lat="43.2846713" lon="10.8080537"><ele>329.6</ele><time>2026-04-18T10:18:09.463Z</time></trkpt><trkpt lat="43.2847168" lon="10.8079156"><ele>328.40000000000003</ele><time>2026-04-18T10:18:10.458Z</time></trkpt><trkpt lat="43.2847412" lon="10.8077779"><ele>327.20000000000005</ele><time>2026-04-18T10:18:11.492Z</time></trkpt><trkpt lat="43.2847805" lon="10.8076436"><ele>326.0</ele><time>2026-04-18T10:18:12.454Z</time></trkpt><trkpt lat="43.2848046" lon="10.8075024"><ele>326.0</ele><time>2026-04-18T10:18:13.464Z</time></trkpt><trkpt lat="43.284812" lon="10.8073532"><ele>326.0</ele><time>2026-04-18T10:18:14.462Z</time></trkpt><trkpt lat="43.2847925" lon="10.8072105"><ele>326.0</ele><time>2026-04-18T10:18:15.47Z</time></trkpt><trkpt lat="43.2847601" lon="10.8070704"><ele>326.0</ele><time>2026-04-18T10:18:16.468Z</time></trkpt><trkpt lat="43.284738" lon="10.8069396"><ele>326.0</ele><time>2026-04-18T10:18:17.475Z</time></trkpt><trkpt lat="43.2847225" lon="10.8067992"><ele>333.0</ele><time>2026-04-18T10:18:18.452Z</time></trkpt><trkpt lat="43.2846868" lon="10.8066724"><ele>340.0</ele><time>2026-04-18T10:18:19.476Z</time></trkpt><trkpt lat="43.2846643" lon="10.8065425"><ele>347.0</ele><time>2026-04-18T10:18:20.481Z</time></trkpt><trkpt lat="43.2846677" lon="10.8063872"><ele>354.0</ele><time>2026-04-18T10:18:21.46Z</time></trkpt><trkpt lat="43.2847177" lon="10.8062263"><ele>361.0</ele><time>2026-04-18T10:18:22.45Z</time></trkpt><trkpt lat="43.2847448" lon="10.8060947"><ele>355.20000000000005</ele><time>2026-04-18T10:18:23.474Z</time></trkpt><trkpt lat="43.2847717" lon="10.8059652"><ele>349.40000000000003</ele><time>2026-04-18T10:18:24.457Z</time></trkpt><trkpt lat="43.2847957" lon="10.8058261"><ele>343.6</ele><time>2026-04-18T10:18:25.455Z</time></trkpt><trkpt lat="43.2848007" lon="10.8056992"><ele>337.8</ele><time>2026-04-18T10:18:26.46Z</time></trkpt><trkpt lat="43.2847908" lon="10.8055479"><ele>332.0</ele><time>2026-04-18T10:18:27.472Z</time></trkpt><trkpt lat="43.2847754" lon="10.8053894"><ele>338.20000000000005</ele><time>2026-04-18T10:18:28.453Z</time></trkpt><trkpt lat="43.2847606" lon="10.8052322"><ele>344.4</ele><time>2026-04-18T10:18:29.465Z</time></trkpt><trkpt lat="43.2847523" lon="10.8050914"><ele>350.6</ele><time>2026-04-18T10:18:30.462Z</time></trkpt><trkpt lat="43.28475" lon="10.804942"><ele>356.79999999999995</ele><time>2026-04-18T10:18:31.466Z</time></trkpt><trkpt lat="43.2847467" lon="10.8047873"><ele>363.0</ele><time>2026-04-18T10:18:32.472Z</time></trkpt><trkpt lat="43.2847456" lon="10.8046256"><ele>364.2</ele><time>2026-04-18T10:18:33.481Z</time></trkpt><trkpt lat="43.2847597" lon="10.8044833"><ele>365.4</ele><time>2026-04-18T10:18:34.464Z</time></trkpt><trkpt lat="43.284786" lon="10.8043473"><ele>366.59999999999997</ele><time>2026-04-18T10:18:35.467Z</time></trkpt><trkpt lat="43.2848213" lon="10.8042212"><ele>367.79999999999995</ele><time>2026-04-18T10:18:36.468Z</time></trkpt><trkpt lat="43.2848672" lon="10.8041127"><ele>369.0</ele><time>2026-04-18T10:18:37.464Z</time></trkpt><trkpt lat="43.2849004" lon="10.8040192"><ele>367.57142857142856</ele><time>2026-04-18T10:18:38.462Z</time></trkpt><trkpt lat="43.2849116" lon="10.8039083"><ele>366.1428571428571</ele><time>2026-04-18T10:18:39.468Z</time></trkpt><trkpt lat="43.2849009" lon="10.8038098"><ele>364.7142857142857</ele><time>2026-04-18T10:18:40.466Z</time></trkpt><trkpt lat="43.2848518" lon="10.8037288"><ele>363.2857142857143</ele><time>2026-04-18T10:18:41.487Z</time></trkpt><trkpt lat="43.2848321" lon="10.8036461"><ele>361.8571428571429</ele><time>2026-04-18T10:18:42.472Z</time></trkpt><trkpt lat="43.2847946" lon="10.8035597"><ele>360.42857142857144</ele><time>2026-04-18T10:18:43.467Z</time></trkpt><trkpt lat="43.2847646" lon="10.8034746"><ele>359.0</ele><time>2026-04-18T10:18:44.466Z</time></trkpt><trkpt lat="43.2847253" lon="10.8033993"><ele>359.0</ele><time>2026-04-18T10:18:45.457Z</time></trkpt><trkpt lat="43.2846334" lon="10.8033155"><ele>359.0</ele><time>2026-04-18T10:18:47.469Z</time></trkpt><trkpt lat="43.2845507" lon="10.8033664"><ele>359.0</ele><time>2026-04-18T10:18:49.46Z</time></trkpt><trkpt lat="43.2845289" lon="10.8034614"><ele>359.0</ele><time>2026-04-18T10:18:50.463Z</time></trkpt><trkpt lat="43.2846032" lon="10.8035736"><ele>359.0</ele><time>2026-04-18T10:18:52.461Z</time></trkpt><trkpt lat="43.2846705" lon="10.8036197"><ele>361.14285714285717</ele><time>2026-04-18T10:18:53.473Z</time></trkpt><trkpt lat="43.2847302" lon="10.8036696"><ele>363.28571428571433</ele><time>2026-04-18T10:18:54.464Z</time></trkpt><trkpt lat="43.2847743" lon="10.8037463"><ele>365.42857142857144</ele><time>2026-04-18T10:18:55.467Z</time></trkpt><trkpt lat="43.2847783" lon="10.8038332"><ele>367.57142857142856</ele><time>2026-04-18T10:18:56.466Z</time></trkpt><trkpt lat="43.2847552" lon="10.8039196"><ele>369.7142857142857</ele><time>2026-04-18T10:18:57.475Z</time></trkpt><trkpt lat="43.2847306" lon="10.8040079"><ele>371.85714285714283</ele><time>2026-04-18T10:18:58.457Z</time></trkpt><trkpt lat="43.2846894" lon="10.8041128"><ele>374.0</ele><time>2026-04-18T10:18:59.457Z</time></trkpt><trkpt lat="43.2846548" lon="10.8042256"><ele>373.0</ele><time>2026-04-18T10:19:00.463Z</time></trkpt><trkpt lat="43.284622" lon="10.804344"><ele>372.0</ele><time>2026-04-18T10:19:01.466Z</time></trkpt><trkpt lat="43.2845882" lon="10.8044662"><ele>371.0</ele><time>2026-04-18T10:19:02.463Z</time></trkpt><trkpt lat="43.2845524" lon="10.8045811"><ele>370.0</ele><time>2026-04-18T10:19:03.463Z</time></trkpt><trkpt lat="43.284507" lon="10.8046874"><ele>369.0</ele><time>2026-04-18T10:19:04.453Z</time></trkpt><trkpt lat="43.284452" lon="10.8047814"><ele>369.0</ele><time>2026-04-18T10:19:05.473Z</time></trkpt><trkpt lat="43.2843828" lon="10.8048494"><ele>369.0</ele><time>2026-04-18T10:19:06.448Z</time></trkpt><trkpt lat="43.2843108" lon="10.8049003"><ele>369.0</ele><time>2026-04-18T10:19:07.466Z</time></trkpt><trkpt lat="43.2842399" lon="10.8049546"><ele>369.0</ele><time>2026-04-18T10:19:08.473Z</time></trkpt><trkpt lat="43.2841847" lon="10.8050271"><ele>369.0</ele><time>2026-04-18T10:19:09.469Z</time></trkpt><trkpt lat="43.2841373" lon="10.8051188"><ele>369.0</ele><time>2026-04-18T10:19:10.463Z</time></trkpt><trkpt lat="43.2841042" lon="10.8052254"><ele>367.79999999999995</ele><time>2026-04-18T10:19:11.48Z</time></trkpt><trkpt lat="43.2840518" lon="10.805337"><ele>366.59999999999997</ele><time>2026-04-18T10:19:12.465Z</time></trkpt><trkpt lat="43.2839952" lon="10.805444"><ele>365.4</ele><time>2026-04-18T10:19:13.461Z</time></trkpt><trkpt lat="43.2839261" lon="10.8055341"><ele>364.2</ele><time>2026-04-18T10:19:14.467Z</time></trkpt><trkpt lat="43.2838392" lon="10.8056311"><ele>363.0</ele><time>2026-04-18T10:19:15.46Z</time></trkpt><trkpt lat="43.2837479" lon="10.8057372"><ele>367.4</ele><time>2026-04-18T10:19:16.494Z</time></trkpt><trkpt lat="43.283641" lon="10.805873"><ele>371.79999999999995</ele><time>2026-04-18T10:19:17.465Z</time></trkpt><trkpt lat="43.2835984" lon="10.8059864"><ele>376.2</ele><time>2026-04-18T10:19:18.474Z</time></trkpt><trkpt lat="43.2835954" lon="10.8061107"><ele>380.6</ele><time>2026-04-18T10:19:19.465Z</time></trkpt><trkpt lat="43.2836054" lon="10.8062439"><ele>385.0</ele><time>2026-04-18T10:19:20.458Z</time></trkpt><trkpt lat="43.283642" lon="10.8063429"><ele>386.33333333333337</ele><time>2026-04-18T10:19:21.478Z</time></trkpt><trkpt lat="43.2836861" lon="10.8064216"><ele>387.6666666666667</ele><time>2026-04-18T10:19:22.465Z</time></trkpt><trkpt lat="43.2837329" lon="10.8065325"><ele>389.0</ele><time>2026-04-18T10:19:23.465Z</time></trkpt><trkpt lat="43.2837926" lon="10.8066316"><ele>390.33333333333337</ele><time>2026-04-18T10:19:24.478Z</time></trkpt><trkpt lat="43.2838415" lon="10.8067375"><ele>391.6666666666667</ele><time>2026-04-18T10:19:25.475Z</time></trkpt><trkpt lat="43.2838809" lon="10.8068389"><ele>393.0</ele><time>2026-04-18T10:19:26.461Z</time></trkpt><trkpt lat="43.2839219" lon="10.8069468"><ele>393.8333333333333</ele><time>2026-04-18T10:19:27.457Z</time></trkpt><trkpt lat="43.2839617" lon="10.8070546"><ele>394.66666666666663</ele><time>2026-04-18T10:19:28.468Z</time></trkpt><trkpt lat="43.2839809" lon="10.8071734"><ele>395.5</ele><time>2026-04-18T10:19:29.453Z</time></trkpt><trkpt lat="43.283986" lon="10.8072841"><ele>396.3333333333333</ele><time>2026-04-18T10:19:30.461Z</time></trkpt><trkpt lat="43.2839617" lon="10.8073707"><ele>397.16666666666663</ele><time>2026-04-18T10:19:31.464Z</time></trkpt><trkpt lat="43.2838544" lon="10.8074264"><ele>398.0</ele><time>2026-04-18T10:19:33.465Z</time></trkpt><trkpt lat="43.2837389" lon="10.8074161"><ele>397.99999999999994</ele><time>2026-04-18T10:19:35.463Z</time></trkpt><trkpt lat="43.2836765" lon="10.8074025"><ele>398.0</ele><time>2026-04-18T10:19:36.468Z</time></trkpt><trkpt lat="43.2836089" lon="10.8074085"><ele>398.0</ele><time>2026-04-18T10:19:37.456Z</time></trkpt><trkpt lat="43.2835387" lon="10.8074017"><ele>398.0</ele><time>2026-04-18T10:19:38.467Z</time></trkpt><trkpt lat="43.283457" lon="10.8074536"><ele>397.99999999999994</ele><time>2026-04-18T10:19:40.481Z</time></trkpt><trkpt lat="43.2834283" lon="10.8076093"><ele>398.0</ele><time>2026-04-18T10:19:42.455Z</time></trkpt><trkpt lat="43.2834734" lon="10.8076953"><ele>400.0</ele><time>2026-04-18T10:19:43.469Z</time></trkpt><trkpt lat="43.2835208" lon="10.807781"><ele>402.0</ele><time>2026-04-18T10:19:44.461Z</time></trkpt><trkpt lat="43.2835849" lon="10.8078796"><ele>404.0</ele><time>2026-04-18T10:19:45.486Z</time></trkpt><trkpt lat="43.283666" lon="10.8079805"><ele>406.0</ele><time>2026-04-18T10:19:46.462Z</time></trkpt><trkpt lat="43.2837285" lon="10.8080932"><ele>408.0</ele><time>2026-04-18T10:19:47.463Z</time></trkpt><trkpt lat="43.2837673" lon="10.8082062"><ele>408.0</ele><time>2026-04-18T10:19:48.474Z</time></trkpt><trkpt lat="43.2837978" lon="10.808317"><ele>408.0</ele><time>2026-04-18T10:19:49.501Z</time></trkpt><trkpt lat="43.2838224" lon="10.8084366"><ele>408.0</ele><time>2026-04-18T10:19:50.443Z</time></trkpt><trkpt lat="43.2838283" lon="10.8085491"><ele>408.0</ele><time>2026-04-18T10:19:51.491Z</time></trkpt><trkpt lat="43.283815" lon="10.8086524"><ele>408.0</ele><time>2026-04-18T10:19:52.466Z</time></trkpt><trkpt lat="43.2837781" lon="10.808773"><ele>408.0</ele><time>2026-04-18T10:19:53.477Z</time></trkpt><trkpt lat="43.2837475" lon="10.8088988"><ele>408.59999999999997</ele><time>2026-04-18T10:19:54.475Z</time></trkpt><trkpt lat="43.2837435" lon="10.8090321"><ele>409.2</ele><time>2026-04-18T10:19:55.469Z</time></trkpt><trkpt lat="43.2837711" lon="10.8091561"><ele>409.8</ele><time>2026-04-18T10:19:56.479Z</time></trkpt><trkpt lat="43.2838114" lon="10.8092825"><ele>410.4</ele><time>2026-04-18T10:19:57.465Z</time></trkpt><trkpt lat="43.283859" lon="10.8093989"><ele>411.0</ele><time>2026-04-18T10:19:58.463Z</time></trkpt><trkpt lat="43.2839123" lon="10.8095003"><ele>411.0</ele><time>2026-04-18T10:19:59.455Z</time></trkpt><trkpt lat="43.2839664" lon="10.8095991"><ele>411.0</ele><time>2026-04-18T10:20:00.468Z</time></trkpt><trkpt lat="43.2839901" lon="10.8097151"><ele>411.0</ele><time>2026-04-18T10:20:01.465Z</time></trkpt><trkpt lat="43.2840084" lon="10.8098204"><ele>411.0</ele><time>2026-04-18T10:20:02.455Z</time></trkpt><trkpt lat="43.2839923" lon="10.8099365"><ele>411.0</ele><time>2026-04-18T10:20:03.461Z</time></trkpt><trkpt lat="43.2839546" lon="10.8100479"><ele>411.0</ele><time>2026-04-18T10:20:04.47Z</time></trkpt><trkpt lat="43.2838816" lon="10.8101373"><ele>408.6666666666667</ele><time>2026-04-18T10:20:05.468Z</time></trkpt><trkpt lat="43.283814" lon="10.810201"><ele>406.33333333333337</ele><time>2026-04-18T10:20:06.47Z</time></trkpt><trkpt lat="43.2837496" lon="10.8102417"><ele>404.0</ele><time>2026-04-18T10:20:07.472Z</time></trkpt><trkpt lat="43.2836839" lon="10.8102725"><ele>401.6666666666667</ele><time>2026-04-18T10:20:08.459Z</time></trkpt><trkpt lat="43.2835912" lon="10.8103076"><ele>399.33333333333337</ele><time>2026-04-18T10:20:09.46Z</time></trkpt><trkpt lat="43.2834884" lon="10.8103279"><ele>397.0</ele><time>2026-04-18T10:20:10.456Z</time></trkpt><trkpt lat="43.2834066" lon="10.8103368"><ele>397.0</ele><time>2026-04-18T10:20:11.455Z</time></trkpt><trkpt lat="43.2833219" lon="10.8103113"><ele>397.0</ele><time>2026-04-18T10:20:12.455Z</time></trkpt><trkpt lat="43.2832435" lon="10.8102545"><ele>397.0</ele><time>2026-04-18T10:20:13.453Z</time></trkpt><trkpt lat="43.2831604" lon="10.8101813"><ele>397.0</ele><time>2026-04-18T10:20:14.452Z</time></trkpt><trkpt lat="43.2830813" lon="10.8100976"><ele>397.0</ele><time>2026-04-18T10:20:15.47Z</time></trkpt><trkpt lat="43.2830099" lon="10.8100041"><ele>399.40000000000003</ele><time>2026-04-18T10:20:16.465Z</time></trkpt><trkpt lat="43.2829314" lon="10.8098876"><ele>401.8</ele><time>2026-04-18T10:20:17.453Z</time></trkpt><trkpt lat="43.2828729" lon="10.809787"><ele>404.2</ele><time>2026-04-18T10:20:18.464Z</time></trkpt><trkpt lat="43.2828042" lon="10.809699"><ele>406.6</ele><time>2026-04-18T10:20:19.463Z</time></trkpt><trkpt lat="43.2827418" lon="10.8096382"><ele>409.0</ele><time>2026-04-18T10:20:20.514Z</time></trkpt><trkpt lat="43.2826551" lon="10.8096106"><ele>409.0</ele><time>2026-04-18T10:20:21.481Z</time></trkpt><trkpt lat="43.2825568" lon="10.8096296"><ele>409.0</ele><time>2026-04-18T10:20:22.482Z</time></trkpt><trkpt lat="43.2824469" lon="10.8096826"><ele>409.0</ele><time>2026-04-18T10:20:23.473Z</time></trkpt><trkpt lat="43.2823459" lon="10.8097429"><ele>409.0</ele><time>2026-04-18T10:20:24.471Z</time></trkpt><trkpt lat="43.2822863" lon="10.8097914"><ele>409.0</ele><time>2026-04-18T10:20:25.488Z</time></trkpt><trkpt lat="43.2822289" lon="10.8097431"><ele>409.0</ele><time>2026-04-18T10:20:27.467Z</time></trkpt><trkpt lat="43.2822928" lon="10.8096154"><ele>409.0</ele><time>2026-04-18T10:20:30.485Z</time></trkpt><trkpt lat="43.2823746" lon="10.8095068"><ele>409.0</ele><time>2026-04-18T10:20:32.472Z</time></trkpt><trkpt lat="43.2824271" lon="10.8094519"><ele>409.0</ele><time>2026-04-18T10:20:33.487Z</time></trkpt><trkpt lat="43.282502" lon="10.8094181"><ele>409.0</ele><time>2026-04-18T10:20:34.493Z</time></trkpt><trkpt lat="43.2825878" lon="10.8093934"><ele>409.0</ele><time>2026-04-18T10:20:35.486Z</time></trkpt><trkpt lat="43.282673" lon="10.8094026"><ele>409.0</ele><time>2026-04-18T10:20:36.486Z</time></trkpt><trkpt lat="43.2827636" lon="10.8094356"><ele>409.0</ele><time>2026-04-18T10:20:37.491Z</time></trkpt><trkpt lat="43.2828546" lon="10.8094626"><ele>409.0</ele><time>2026-04-18T10:20:38.472Z</time></trkpt><trkpt lat="43.2829567" lon="10.8094741"><ele>409.0</ele><time>2026-04-18T10:20:39.47Z</time></trkpt><trkpt lat="43.2830354" lon="10.8094908"><ele>409.33333333333337</ele><time>2026-04-18T10:20:40.482Z</time></trkpt><trkpt lat="43.2831028" lon="10.8095044"><ele>409.6666666666667</ele><time>2026-04-18T10:20:41.469Z</time></trkpt><trkpt lat="43.2831905" lon="10.809484"><ele>410.0</ele><time>2026-04-18T10:20:43.48Z</time></trkpt><trkpt lat="43.2831919" lon="10.8093784"><ele>410.33333333333337</ele><time>2026-04-18T10:20:45.476Z</time></trkpt><trkpt lat="43.2831243" lon="10.8092357"><ele>410.6666666666667</ele><time>2026-04-18T10:20:47.477Z</time></trkpt><trkpt lat="43.2830946" lon="10.8091471"><ele>411.0</ele><time>2026-04-18T10:20:48.497Z</time></trkpt><trkpt lat="43.2830645" lon="10.8090642"><ele>414.0</ele><time>2026-04-18T10:20:49.491Z</time></trkpt><trkpt lat="43.2830345" lon="10.8089736"><ele>417.0</ele><time>2026-04-18T10:20:50.508Z</time></trkpt><trkpt lat="43.2829887" lon="10.8088911"><ele>420.0</ele><time>2026-04-18T10:20:51.472Z</time></trkpt><trkpt lat="43.282944" lon="10.8088174"><ele>423.0</ele><time>2026-04-18T10:20:52.479Z</time></trkpt><trkpt lat="43.2828464" lon="10.8087535"><ele>426.0</ele><time>2026-04-18T10:20:54.48Z</time></trkpt><trkpt lat="43.2827342" lon="10.8087922"><ele>429.0</ele><time>2026-04-18T10:20:56.49Z</time></trkpt><trkpt lat="43.282671" lon="10.8088124"><ele>429.0</ele><time>2026-04-18T10:20:57.481Z</time></trkpt><trkpt lat="43.2826063" lon="10.8088435"><ele>429.0</ele><time>2026-04-18T10:20:58.482Z</time></trkpt><trkpt lat="43.2825292" lon="10.8088767"><ele>429.0</ele><time>2026-04-18T10:20:59.504Z</time></trkpt><trkpt lat="43.2824392" lon="10.8088903"><ele>429.0</ele><time>2026-04-18T10:21:00.484Z</time></trkpt><trkpt lat="43.2823416" lon="10.8088976"><ele>429.0</ele><time>2026-04-18T10:21:01.471Z</time></trkpt><trkpt lat="43.2822421" lon="10.8088863"><ele>429.0</ele><time>2026-04-18T10:21:02.491Z</time></trkpt><trkpt lat="43.282149" lon="10.8088841"><ele>428.8333333333333</ele><time>2026-04-18T10:21:03.476Z</time></trkpt><trkpt lat="43.2820663" lon="10.8088687"><ele>428.66666666666663</ele><time>2026-04-18T10:21:04.493Z</time></trkpt><trkpt lat="43.2819908" lon="10.8088496"><ele>428.5</ele><time>2026-04-18T10:21:05.49Z</time></trkpt><trkpt lat="43.281899" lon="10.8088277"><ele>428.3333333333333</ele><time>2026-04-18T10:21:07.482Z</time></trkpt><trkpt lat="43.2818124" lon="10.8087846"><ele>428.16666666666663</ele><time>2026-04-18T10:21:12.499Z</time></trkpt><trkpt lat="43.2817602" lon="10.808837"><ele>428.0</ele><time>2026-04-18T10:21:28.496Z</time></trkpt><trkpt lat="43.2816779" lon="10.8087666"><ele>428.0</ele><time>2026-04-18T10:21:31.48Z</time></trkpt><trkpt lat="43.2816132" lon="10.8086342"><ele>427.99999999999994</ele><time>2026-04-18T10:21:33.485Z</time></trkpt><trkpt lat="43.2815636" lon="10.8085707"><ele>427.99999999999994</ele><time>2026-04-18T10:21:34.457Z</time></trkpt><trkpt lat="43.2815164" lon="10.8085129"><ele>428.0</ele><time>2026-04-18T10:21:35.468Z</time></trkpt><trkpt lat="43.2814247" lon="10.8084216"><ele>428.0</ele><time>2026-04-18T10:21:37.503Z</time></trkpt><trkpt lat="43.2813205" lon="10.8083479"><ele>429.4</ele><time>2026-04-18T10:21:39.468Z</time></trkpt><trkpt lat="43.2812146" lon="10.8082999"><ele>430.79999999999995</ele><time>2026-04-18T10:21:41.469Z</time></trkpt><trkpt lat="43.2810975" lon="10.8082887"><ele>432.2</ele><time>2026-04-18T10:21:43.481Z</time></trkpt><trkpt lat="43.2809642" lon="10.8082971"><ele>433.6</ele><time>2026-04-18T10:21:45.473Z</time></trkpt><trkpt lat="43.280897" lon="10.8082961"><ele>435.0</ele><time>2026-04-18T10:21:46.46Z</time></trkpt><trkpt lat="43.2807781" lon="10.8082923"><ele>435.0</ele><time>2026-04-18T10:21:48.467Z</time></trkpt><trkpt lat="43.2807111" lon="10.8082862"><ele>435.0</ele><time>2026-04-18T10:21:49.476Z</time></trkpt><trkpt lat="43.2806469" lon="10.8082889"><ele>435.0</ele><time>2026-04-18T10:21:50.464Z</time></trkpt><trkpt lat="43.2805769" lon="10.8082994"><ele>435.0</ele><time>2026-04-18T10:21:51.463Z</time></trkpt><trkpt lat="43.2804718" lon="10.8083571"><ele>435.0</ele><time>2026-04-18T10:21:53.473Z</time></trkpt><trkpt lat="43.2803959" lon="10.8084087"><ele>435.0</ele><time>2026-04-18T10:21:55.465Z</time></trkpt><trkpt lat="43.2802889" lon="10.8084962"><ele>434.3333333333333</ele><time>2026-04-18T10:21:57.467Z</time></trkpt><trkpt lat="43.2802055" lon="10.8084983"><ele>433.66666666666663</ele><time>2026-04-18T10:21:58.467Z</time></trkpt><trkpt lat="43.2801114" lon="10.8085016"><ele>433.0</ele><time>2026-04-18T10:21:59.465Z</time></trkpt><trkpt lat="43.2800243" lon="10.8085171"><ele>432.3333333333333</ele><time>2026-04-18T10:22:00.508Z</time></trkpt><trkpt lat="43.2799474" lon="10.8085274"><ele>431.66666666666663</ele><time>2026-04-18T10:22:01.467Z</time></trkpt><trkpt lat="43.2798763" lon="10.808548"><ele>431.0</ele><time>2026-04-18T10:22:02.461Z</time></trkpt><trkpt lat="43.2798075" lon="10.8085822"><ele>433.8333333333333</ele><time>2026-04-18T10:22:03.464Z</time></trkpt><trkpt lat="43.2797432" lon="10.8086506"><ele>436.66666666666663</ele><time>2026-04-18T10:22:04.472Z</time></trkpt><trkpt lat="43.2796793" lon="10.8087401"><ele>439.5</ele><time>2026-04-18T10:22:05.459Z</time></trkpt><trkpt lat="43.2796073" lon="10.8088249"><ele>442.33333333333337</ele><time>2026-04-18T10:22:06.459Z</time></trkpt><trkpt lat="43.2795276" lon="10.8088909"><ele>445.1666666666667</ele><time>2026-04-18T10:22:07.493Z</time></trkpt><trkpt lat="43.2794559" lon="10.8089577"><ele>448.0</ele><time>2026-04-18T10:22:08.467Z</time></trkpt><trkpt lat="43.2793622" lon="10.8090424"><ele>448.0</ele><time>2026-04-18T10:22:10.46Z</time></trkpt><trkpt lat="43.2792829" lon="10.8090651"><ele>447.99999999999994</ele><time>2026-04-18T10:22:12.472Z</time></trkpt><trkpt lat="43.2791895" lon="10.8090202"><ele>447.99999999999994</ele><time>2026-04-18T10:22:14.472Z</time></trkpt><trkpt lat="43.2791151" lon="10.8089329"><ele>448.0</ele><time>2026-04-18T10:22:16.467Z</time></trkpt><trkpt lat="43.2790691" lon="10.8088087"><ele>448.0</ele><time>2026-04-18T10:22:18.469Z</time></trkpt><trkpt lat="43.2790483" lon="10.8086442"><ele>450.1666666666667</ele><time>2026-04-18T10:22:20.466Z</time></trkpt><trkpt lat="43.2790475" lon="10.8084796"><ele>452.33333333333337</ele><time>2026-04-18T10:22:22.473Z</time></trkpt><trkpt lat="43.27905" lon="10.8083884"><ele>454.5</ele><time>2026-04-18T10:22:23.463Z</time></trkpt><trkpt lat="43.2790577" lon="10.8082945"><ele>456.66666666666663</ele><time>2026-04-18T10:22:24.476Z</time></trkpt><trkpt lat="43.2790553" lon="10.808202"><ele>458.8333333333333</ele><time>2026-04-18T10:22:25.443Z</time></trkpt><trkpt lat="43.2790078" lon="10.8080459"><ele>461.0</ele><time>2026-04-18T10:22:27.449Z</time></trkpt><trkpt lat="43.278962" lon="10.8079819"><ele>459.14285714285717</ele><time>2026-04-18T10:22:28.466Z</time></trkpt><trkpt lat="43.2789086" lon="10.8079041"><ele>457.28571428571433</ele><time>2026-04-18T10:22:29.45Z</time></trkpt><trkpt lat="43.2788447" lon="10.8078437"><ele>455.42857142857144</ele><time>2026-04-18T10:22:30.459Z</time></trkpt><trkpt lat="43.2787718" lon="10.8078316"><ele>453.57142857142856</ele><time>2026-04-18T10:22:31.47Z</time></trkpt><trkpt lat="43.2787039" lon="10.8078163"><ele>451.7142857142857</ele><time>2026-04-18T10:22:32.463Z</time></trkpt><trkpt lat="43.2786347" lon="10.8077963"><ele>449.8571428571429</ele><time>2026-04-18T10:22:33.469Z</time></trkpt><trkpt lat="43.2785724" lon="10.8077675"><ele>448.0</ele><time>2026-04-18T10:22:34.468Z</time></trkpt><trkpt lat="43.2785083" lon="10.8077114"><ele>450.79999999999995</ele><time>2026-04-18T10:22:35.46Z</time></trkpt><trkpt lat="43.2784466" lon="10.8076262"><ele>453.59999999999997</ele><time>2026-04-18T10:22:36.455Z</time></trkpt><trkpt lat="43.2783984" lon="10.8075257"><ele>456.40000000000003</ele><time>2026-04-18T10:22:37.468Z</time></trkpt><trkpt lat="43.2783614" lon="10.8074001"><ele>459.20000000000005</ele><time>2026-04-18T10:22:38.469Z</time></trkpt><trkpt lat="43.2783266" lon="10.807272"><ele>462.0</ele><time>2026-04-18T10:22:39.45Z</time></trkpt><trkpt lat="43.2782815" lon="10.8071489"><ele>462.0</ele><time>2026-04-18T10:22:40.46Z</time></trkpt><trkpt lat="43.2782304" lon="10.8070292"><ele>462.0</ele><time>2026-04-18T10:22:41.461Z</time></trkpt><trkpt lat="43.2781778" lon="10.80694"><ele>462.0</ele><time>2026-04-18T10:22:42.463Z</time></trkpt><trkpt lat="43.2781147" lon="10.8068883"><ele>462.0</ele><time>2026-04-18T10:22:43.463Z</time></trkpt><trkpt lat="43.2780506" lon="10.8068472"><ele>462.0</ele><time>2026-04-18T10:22:44.448Z</time></trkpt><trkpt lat="43.2779854" lon="10.8068314"><ele>462.0</ele><time>2026-04-18T10:22:45.462Z</time></trkpt><trkpt lat="43.2779105" lon="10.8068296"><ele>462.8333333333333</ele><time>2026-04-18T10:22:46.469Z</time></trkpt><trkpt lat="43.277844" lon="10.8068235"><ele>463.66666666666663</ele><time>2026-04-18T10:22:47.458Z</time></trkpt><trkpt lat="43.2777787" lon="10.8068109"><ele>464.5</ele><time>2026-04-18T10:22:48.468Z</time></trkpt><trkpt lat="43.2776689" lon="10.8067587"><ele>465.3333333333333</ele><time>2026-04-18T10:22:50.472Z</time></trkpt><trkpt lat="43.2776218" lon="10.8066998"><ele>466.16666666666663</ele><time>2026-04-18T10:22:51.47Z</time></trkpt><trkpt lat="43.2775491" lon="10.8065759"><ele>467.0</ele><time>2026-04-18T10:22:53.471Z</time></trkpt><trkpt lat="43.2774986" lon="10.8065212"><ele>466.99999999999994</ele><time>2026-04-18T10:22:54.469Z</time></trkpt><trkpt lat="43.2774437" lon="10.8064639"><ele>467.0</ele><time>2026-04-18T10:22:55.468Z</time></trkpt><trkpt lat="43.2773867" lon="10.8063807"><ele>467.0</ele><time>2026-04-18T10:22:56.485Z</time></trkpt><trkpt lat="43.2773427" lon="10.8062855"><ele>467.0</ele><time>2026-04-18T10:22:57.467Z</time></trkpt><trkpt lat="43.2773048" lon="10.8062028"><ele>466.99999999999994</ele><time>2026-04-18T10:22:58.469Z</time></trkpt><trkpt lat="43.2772648" lon="10.806099"><ele>467.0</ele><time>2026-04-18T10:22:59.468Z</time></trkpt><trkpt lat="43.2772266" lon="10.8059887"><ele>467.49999999999994</ele><time>2026-04-18T10:23:00.471Z</time></trkpt><trkpt lat="43.27718" lon="10.8058916"><ele>468.0</ele><time>2026-04-18T10:23:01.471Z</time></trkpt><trkpt lat="43.277138" lon="10.8058073"><ele>468.5</ele><time>2026-04-18T10:23:02.458Z</time></trkpt><trkpt lat="43.2770957" lon="10.8057305"><ele>469.0</ele><time>2026-04-18T10:23:03.465Z</time></trkpt><trkpt lat="43.277002" lon="10.8056163"><ele>469.49999999999994</ele><time>2026-04-18T10:23:05.473Z</time></trkpt><trkpt lat="43.2769449" lon="10.8055752"><ele>470.0</ele><time>2026-04-18T10:23:06.457Z</time></trkpt><trkpt lat="43.2768831" lon="10.805548"><ele>470.0</ele><time>2026-04-18T10:23:07.472Z</time></trkpt><trkpt lat="43.276772" lon="10.8055833"><ele>470.0</ele><time>2026-04-18T10:23:09.462Z</time></trkpt><trkpt lat="43.2766503" lon="10.805629"><ele>470.0</ele><time>2026-04-18T10:23:11.46Z</time></trkpt><trkpt lat="43.2765732" lon="10.8056635"><ele>470.0</ele><time>2026-04-18T10:23:12.467Z</time></trkpt><trkpt lat="43.276491" lon="10.8056826"><ele>470.0</ele><time>2026-04-18T10:23:13.455Z</time></trkpt><trkpt lat="43.2764084" lon="10.805691"><ele>469.16666666666663</ele><time>2026-04-18T10:23:14.469Z</time></trkpt><trkpt lat="43.2763347" lon="10.8056825"><ele>468.3333333333333</ele><time>2026-04-18T10:23:15.478Z</time></trkpt><trkpt lat="43.2762687" lon="10.8056487"><ele>467.5</ele><time>2026-04-18T10:23:16.461Z</time></trkpt><trkpt lat="43.2762087" lon="10.8056078"><ele>466.66666666666663</ele><time>2026-04-18T10:23:17.472Z</time></trkpt><trkpt lat="43.2760862" lon="10.8055503"><ele>465.8333333333333</ele><time>2026-04-18T10:23:19.467Z</time></trkpt><trkpt lat="43.2760166" lon="10.8055117"><ele>465.0</ele><time>2026-04-18T10:23:20.46Z</time></trkpt><trkpt lat="43.2759636" lon="10.8054601"><ele>465.0</ele><time>2026-04-18T10:23:21.466Z</time></trkpt><trkpt lat="43.2759206" lon="10.8053907"><ele>465.0</ele><time>2026-04-18T10:23:22.468Z</time></trkpt><trkpt lat="43.2758413" lon="10.8052503"><ele>465.0</ele><time>2026-04-18T10:23:24.46Z</time></trkpt><trkpt lat="43.2757898" lon="10.8051681"><ele>465.0</ele><time>2026-04-18T10:23:25.468Z</time></trkpt><trkpt lat="43.2757386" lon="10.8051037"><ele>465.0</ele><time>2026-04-18T10:23:26.462Z</time></trkpt><trkpt lat="43.2756727" lon="10.8050664"><ele>465.0</ele><time>2026-04-18T10:23:27.459Z</time></trkpt><trkpt lat="43.2756112" lon="10.8050451"><ele>465.0</ele><time>2026-04-18T10:23:28.474Z</time></trkpt><trkpt lat="43.2755446" lon="10.8050152"><ele>465.0</ele><time>2026-04-18T10:23:29.445Z</time></trkpt><trkpt lat="43.2754772" lon="10.8049842"><ele>465.0</ele><time>2026-04-18T10:23:30.468Z</time></trkpt><trkpt lat="43.2754086" lon="10.8049713"><ele>465.0</ele><time>2026-04-18T10:23:31.458Z</time></trkpt><trkpt lat="43.2753417" lon="10.8049602"><ele>465.0</ele><time>2026-04-18T10:23:32.459Z</time></trkpt><trkpt lat="43.275273" lon="10.8049768"><ele>465.0</ele><time>2026-04-18T10:23:33.468Z</time></trkpt><trkpt lat="43.2751988" lon="10.804996"><ele>465.0</ele><time>2026-04-18T10:23:34.463Z</time></trkpt><trkpt lat="43.2751223" lon="10.8050172"><ele>465.0</ele><time>2026-04-18T10:23:35.451Z</time></trkpt><trkpt lat="43.2750358" lon="10.8050468"><ele>465.0</ele><time>2026-04-18T10:23:36.472Z</time></trkpt><trkpt lat="43.2749465" lon="10.8050605"><ele>465.0</ele><time>2026-04-18T10:23:37.473Z</time></trkpt><trkpt lat="43.2748626" lon="10.8050821"><ele>465.0</ele><time>2026-04-18T10:23:38.47Z</time></trkpt><trkpt lat="43.2747982" lon="10.8051146"><ele>465.0</ele><time>2026-04-18T10:23:39.468Z</time></trkpt><trkpt lat="43.2747191" lon="10.8051426"><ele>465.0</ele><time>2026-04-18T10:23:40.459Z</time></trkpt><trkpt lat="43.2746413" lon="10.8051713"><ele>462.0</ele><time>2026-04-18T10:23:41.459Z</time></trkpt><trkpt lat="43.2745508" lon="10.8052022"><ele>459.0</ele><time>2026-04-18T10:23:42.459Z</time></trkpt><trkpt lat="43.2744604" lon="10.8052263"><ele>456.0</ele><time>2026-04-18T10:23:43.494Z</time></trkpt><trkpt lat="43.2743619" lon="10.8052594"><ele>453.0</ele><time>2026-04-18T10:23:44.456Z</time></trkpt><trkpt lat="43.2742645" lon="10.8052745"><ele>450.0</ele><time>2026-04-18T10:23:45.46Z</time></trkpt><trkpt lat="43.2741634" lon="10.8052896"><ele>450.0</ele><time>2026-04-18T10:23:46.462Z</time></trkpt><trkpt lat="43.2740534" lon="10.8053012"><ele>450.0</ele><time>2026-04-18T10:23:47.468Z</time></trkpt><trkpt lat="43.2739467" lon="10.8053085"><ele>450.0</ele><time>2026-04-18T10:23:48.464Z</time></trkpt><trkpt lat="43.2738373" lon="10.8053137"><ele>450.0</ele><time>2026-04-18T10:23:49.463Z</time></trkpt><trkpt lat="43.2737262" lon="10.8053218"><ele>450.0</ele><time>2026-04-18T10:23:50.464Z</time></trkpt><trkpt lat="43.2736216" lon="10.8053299"><ele>450.0</ele><time>2026-04-18T10:23:51.472Z</time></trkpt><trkpt lat="43.2735239" lon="10.8053372"><ele>450.0</ele><time>2026-04-18T10:23:52.502Z</time></trkpt><trkpt lat="43.2734218" lon="10.8053488"><ele>450.0</ele><time>2026-04-18T10:23:53.476Z</time></trkpt><trkpt lat="43.2733163" lon="10.8053538"><ele>450.0</ele><time>2026-04-18T10:23:54.469Z</time></trkpt><trkpt lat="43.2732047" lon="10.8053586"><ele>450.0</ele><time>2026-04-18T10:23:55.465Z</time></trkpt><trkpt lat="43.2730949" lon="10.8053589"><ele>450.0</ele><time>2026-04-18T10:23:56.465Z</time></trkpt><trkpt lat="43.2729903" lon="10.8053649"><ele>450.0</ele><time>2026-04-18T10:23:57.472Z</time></trkpt><trkpt lat="43.2728883" lon="10.8053743"><ele>450.0</ele><time>2026-04-18T10:23:58.47Z</time></trkpt><trkpt lat="43.2727849" lon="10.8053898"><ele>450.0</ele><time>2026-04-18T10:23:59.47Z</time></trkpt><trkpt lat="43.2726883" lon="10.8054104"><ele>450.0</ele><time>2026-04-18T10:24:00.471Z</time></trkpt><trkpt lat="43.2725874" lon="10.8054384"><ele>450.0</ele><time>2026-04-18T10:24:01.473Z</time></trkpt><trkpt lat="43.2724854" lon="10.8054648"><ele>450.0</ele><time>2026-04-18T10:24:02.476Z</time></trkpt><trkpt lat="43.2723848" lon="10.8055041"><ele>450.0</ele><time>2026-04-18T10:24:03.473Z</time></trkpt><trkpt lat="43.2722862" lon="10.8055449"><ele>450.0</ele><time>2026-04-18T10:24:04.494Z</time></trkpt><trkpt lat="43.272188" lon="10.805588"><ele>450.0</ele><time>2026-04-18T10:24:05.464Z</time></trkpt><trkpt lat="43.2720958" lon="10.8056338"><ele>450.0</ele><time>2026-04-18T10:24:06.467Z</time></trkpt><trkpt lat="43.2720034" lon="10.8056808"><ele>450.0</ele><time>2026-04-18T10:24:07.46Z</time></trkpt><trkpt lat="43.2719065" lon="10.8057274"><ele>450.0</ele><time>2026-04-18T10:24:08.464Z</time></trkpt><trkpt lat="43.2718083" lon="10.8057712"><ele>450.0</ele><time>2026-04-18T10:24:09.461Z</time></trkpt><trkpt lat="43.2717079" lon="10.8057947"><ele>450.0</ele><time>2026-04-18T10:24:10.465Z</time></trkpt><trkpt lat="43.2716074" lon="10.8058016"><ele>450.0</ele><time>2026-04-18T10:24:11.473Z</time></trkpt><trkpt lat="43.2715031" lon="10.8058056"><ele>450.0</ele><time>2026-04-18T10:24:12.463Z</time></trkpt><trkpt lat="43.2713971" lon="10.8058163"><ele>450.0</ele><time>2026-04-18T10:24:13.497Z</time></trkpt><trkpt lat="43.2712931" lon="10.8058169"><ele>450.0</ele><time>2026-04-18T10:24:14.477Z</time></trkpt><trkpt lat="43.2711956" lon="10.8058166"><ele>450.0</ele><time>2026-04-18T10:24:15.466Z</time></trkpt><trkpt lat="43.271097" lon="10.8058286"><ele>450.2</ele><time>2026-04-18T10:24:16.459Z</time></trkpt><trkpt lat="43.270991" lon="10.8058484"><ele>450.4</ele><time>2026-04-18T10:24:17.468Z</time></trkpt><trkpt lat="43.2708853" lon="10.8058674"><ele>450.6</ele><time>2026-04-18T10:24:18.46Z</time></trkpt><trkpt lat="43.2707798" lon="10.8058777"><ele>450.8</ele><time>2026-04-18T10:24:19.466Z</time></trkpt><trkpt lat="43.2706762" lon="10.8058893"><ele>451.0</ele><time>2026-04-18T10:24:20.471Z</time></trkpt><trkpt lat="43.2705697" lon="10.8059039"><ele>451.20000000000005</ele><time>2026-04-18T10:24:21.474Z</time></trkpt><trkpt lat="43.2704637" lon="10.8059152"><ele>451.40000000000003</ele><time>2026-04-18T10:24:22.465Z</time></trkpt><trkpt lat="43.2703652" lon="10.8059207"><ele>451.6</ele><time>2026-04-18T10:24:23.475Z</time></trkpt><trkpt lat="43.2702581" lon="10.8059336"><ele>451.8</ele><time>2026-04-18T10:24:24.466Z</time></trkpt><trkpt lat="43.2701552" lon="10.8059482"><ele>452.0</ele><time>2026-04-18T10:24:25.461Z</time></trkpt><trkpt lat="43.2700424" lon="10.805958"><ele>452.0</ele><time>2026-04-18T10:24:26.46Z</time></trkpt><trkpt lat="43.2699319" lon="10.8059723"><ele>452.00000000000006</ele><time>2026-04-18T10:24:27.462Z</time></trkpt><trkpt lat="43.2698249" lon="10.805974"><ele>452.00000000000006</ele><time>2026-04-18T10:24:28.467Z</time></trkpt><trkpt lat="43.26972" lon="10.8059756"><ele>452.0</ele><time>2026-04-18T10:24:29.473Z</time></trkpt><trkpt lat="43.2696146" lon="10.8059661"><ele>452.0</ele><time>2026-04-18T10:24:30.458Z</time></trkpt><trkpt lat="43.2695133" lon="10.8059543"><ele>453.0</ele><time>2026-04-18T10:24:31.465Z</time></trkpt><trkpt lat="43.269417" lon="10.8059115"><ele>454.00000000000006</ele><time>2026-04-18T10:24:32.466Z</time></trkpt><trkpt lat="43.2693273" lon="10.8058471"><ele>455.00000000000006</ele><time>2026-04-18T10:24:33.461Z</time></trkpt><trkpt lat="43.2692397" lon="10.8057731"><ele>456.0</ele><time>2026-04-18T10:24:34.478Z</time></trkpt><trkpt lat="43.2691543" lon="10.8057095"><ele>457.0</ele><time>2026-04-18T10:24:35.451Z</time></trkpt><trkpt lat="43.2690572" lon="10.8056447"><ele>457.0</ele><time>2026-04-18T10:24:36.466Z</time></trkpt><trkpt lat="43.2689542" lon="10.8056026"><ele>457.00000000000006</ele><time>2026-04-18T10:24:37.473Z</time></trkpt><trkpt lat="43.2688502" lon="10.8056018"><ele>457.00000000000006</ele><time>2026-04-18T10:24:38.463Z</time></trkpt><trkpt lat="43.2687363" lon="10.8056235"><ele>457.0</ele><time>2026-04-18T10:24:39.455Z</time></trkpt><trkpt lat="43.2686245" lon="10.8056434"><ele>457.0</ele><time>2026-04-18T10:24:40.463Z</time></trkpt><trkpt lat="43.2685094" lon="10.8056767"><ele>457.0</ele><time>2026-04-18T10:24:41.48Z</time></trkpt><trkpt lat="43.2683922" lon="10.8056872"><ele>457.0</ele><time>2026-04-18T10:24:42.47Z</time></trkpt><trkpt lat="43.2682745" lon="10.8056934"><ele>457.0</ele><time>2026-04-18T10:24:43.463Z</time></trkpt><trkpt lat="43.2681676" lon="10.8056923"><ele>457.0</ele><time>2026-04-18T10:24:44.473Z</time></trkpt><trkpt lat="43.2680555" lon="10.8056793"><ele>457.25</ele><time>2026-04-18T10:24:45.481Z</time></trkpt><trkpt lat="43.2679446" lon="10.8056443"><ele>457.5</ele><time>2026-04-18T10:24:46.476Z</time></trkpt><trkpt lat="43.2678274" lon="10.8055984"><ele>457.75</ele><time>2026-04-18T10:24:47.471Z</time></trkpt><trkpt lat="43.2677218" lon="10.8055555"><ele>458.0</ele><time>2026-04-18T10:24:48.466Z</time></trkpt><trkpt lat="43.2676169" lon="10.8055004"><ele>458.0</ele><time>2026-04-18T10:24:49.463Z</time></trkpt><trkpt lat="43.267517" lon="10.8054412"><ele>457.99999999999994</ele><time>2026-04-18T10:24:50.469Z</time></trkpt><trkpt lat="43.2674208" lon="10.8053906"><ele>457.99999999999994</ele><time>2026-04-18T10:24:51.474Z</time></trkpt><trkpt lat="43.2673215" lon="10.8053441"><ele>458.0</ele><time>2026-04-18T10:24:52.466Z</time></trkpt><trkpt lat="43.2672156" lon="10.8053146"><ele>458.0</ele><time>2026-04-18T10:24:53.467Z</time></trkpt><trkpt lat="43.2671084" lon="10.8052923"><ele>457.4</ele><time>2026-04-18T10:24:54.462Z</time></trkpt><trkpt lat="43.267002" lon="10.8052602"><ele>456.79999999999995</ele><time>2026-04-18T10:24:55.47Z</time></trkpt><trkpt lat="43.2668981" lon="10.8052246"><ele>456.2</ele><time>2026-04-18T10:24:56.476Z</time></trkpt><trkpt lat="43.2667954" lon="10.8051697"><ele>455.6</ele><time>2026-04-18T10:24:57.465Z</time></trkpt><trkpt lat="43.2666914" lon="10.8051008"><ele>455.0</ele><time>2026-04-18T10:24:58.485Z</time></trkpt><trkpt lat="43.2665945" lon="10.8050215"><ele>455.0</ele><time>2026-04-18T10:24:59.469Z</time></trkpt><trkpt lat="43.2664884" lon="10.8049399"><ele>455.0</ele><time>2026-04-18T10:25:00.468Z</time></trkpt><trkpt lat="43.2663874" lon="10.8048587"><ele>455.0</ele><time>2026-04-18T10:25:01.473Z</time></trkpt><trkpt lat="43.266301" lon="10.8047777"><ele>455.0</ele><time>2026-04-18T10:25:02.474Z</time></trkpt><trkpt lat="43.2662201" lon="10.8046961"><ele>455.0</ele><time>2026-04-18T10:25:03.466Z</time></trkpt><trkpt lat="43.2661345" lon="10.8046164"><ele>456.0</ele><time>2026-04-18T10:25:04.468Z</time></trkpt><trkpt lat="43.2660553" lon="10.8045381"><ele>457.0</ele><time>2026-04-18T10:25:05.463Z</time></trkpt><trkpt lat="43.2659787" lon="10.8044662"><ele>458.0</ele><time>2026-04-18T10:25:06.458Z</time></trkpt><trkpt lat="43.2659008" lon="10.8044013"><ele>459.0</ele><time>2026-04-18T10:25:07.467Z</time></trkpt><trkpt lat="43.2658248" lon="10.8043384"><ele>460.0</ele><time>2026-04-18T10:25:08.474Z</time></trkpt><trkpt lat="43.2657375" lon="10.8042786"><ele>460.0</ele><time>2026-04-18T10:25:09.463Z</time></trkpt><trkpt lat="43.2656555" lon="10.8042194"><ele>460.0</ele><time>2026-04-18T10:25:10.461Z</time></trkpt><trkpt lat="43.2655753" lon="10.8041583"><ele>460.0</ele><time>2026-04-18T10:25:11.47Z</time></trkpt><trkpt lat="43.2655041" lon="10.8040687"><ele>460.0</ele><time>2026-04-18T10:25:12.47Z</time></trkpt><trkpt lat="43.2654446" lon="10.8039816"><ele>460.0</ele><time>2026-04-18T10:25:13.457Z</time></trkpt><trkpt lat="43.2654057" lon="10.8038625"><ele>462.6</ele><time>2026-04-18T10:25:14.461Z</time></trkpt><trkpt lat="43.2653649" lon="10.8037428"><ele>465.2</ele><time>2026-04-18T10:25:15.458Z</time></trkpt><trkpt lat="43.2653135" lon="10.8036517"><ele>467.79999999999995</ele><time>2026-04-18T10:25:16.462Z</time></trkpt><trkpt lat="43.2652391" lon="10.803596"><ele>470.4</ele><time>2026-04-18T10:25:17.471Z</time></trkpt><trkpt lat="43.2651476" lon="10.803576"><ele>473.0</ele><time>2026-04-18T10:25:18.458Z</time></trkpt><trkpt lat="43.265054" lon="10.803576"><ele>473.0</ele><time>2026-04-18T10:25:19.468Z</time></trkpt><trkpt lat="43.2649477" lon="10.8035725"><ele>472.99999999999994</ele><time>2026-04-18T10:25:20.462Z</time></trkpt><trkpt lat="43.2648426" lon="10.8035675"><ele>472.99999999999994</ele><time>2026-04-18T10:25:21.461Z</time></trkpt><trkpt lat="43.2647336" lon="10.803558"><ele>473.0</ele><time>2026-04-18T10:25:22.46Z</time></trkpt><trkpt lat="43.2646173" lon="10.8035575"><ele>473.0</ele><time>2026-04-18T10:25:23.463Z</time></trkpt><trkpt lat="43.2645087" lon="10.8035694"><ele>474.0</ele><time>2026-04-18T10:25:24.466Z</time></trkpt><trkpt lat="43.2644195" lon="10.8035676"><ele>474.99999999999994</ele><time>2026-04-18T10:25:25.466Z</time></trkpt><trkpt lat="43.2643156" lon="10.8035896"><ele>475.99999999999994</ele><time>2026-04-18T10:25:26.453Z</time></trkpt><trkpt lat="43.2642121" lon="10.8036003"><ele>477.0</ele><time>2026-04-18T10:25:27.461Z</time></trkpt><trkpt lat="43.2641237" lon="10.8035741"><ele>478.0</ele><time>2026-04-18T10:25:28.464Z</time></trkpt><trkpt lat="43.2640411" lon="10.8035027"><ele>475.83333333333337</ele><time>2026-04-18T10:25:29.465Z</time></trkpt><trkpt lat="43.2639597" lon="10.8034102"><ele>473.6666666666667</ele><time>2026-04-18T10:25:30.477Z</time></trkpt><trkpt lat="43.2638906" lon="10.803328"><ele>471.5</ele><time>2026-04-18T10:25:31.462Z</time></trkpt><trkpt lat="43.2638222" lon="10.8032519"><ele>469.33333333333337</ele><time>2026-04-18T10:25:32.464Z</time></trkpt><trkpt lat="43.2637681" lon="10.8031861"><ele>467.1666666666667</ele><time>2026-04-18T10:25:33.466Z</time></trkpt><trkpt lat="43.2637106" lon="10.8030969"><ele>465.0</ele><time>2026-04-18T10:25:34.472Z</time></trkpt><trkpt lat="43.2636587" lon="10.8030112"><ele>465.0</ele><time>2026-04-18T10:25:35.478Z</time></trkpt><trkpt lat="43.2636237" lon="10.8029166"><ele>465.0</ele><time>2026-04-18T10:25:36.474Z</time></trkpt><trkpt lat="43.2635917" lon="10.8028164"><ele>465.0</ele><time>2026-04-18T10:25:37.46Z</time></trkpt><trkpt lat="43.2635686" lon="10.8026935"><ele>465.0</ele><time>2026-04-18T10:25:38.471Z</time></trkpt><trkpt lat="43.2635587" lon="10.8025672"><ele>465.0</ele><time>2026-04-18T10:25:39.472Z</time></trkpt><trkpt lat="43.2635637" lon="10.8024335"><ele>465.0</ele><time>2026-04-18T10:25:40.469Z</time></trkpt><trkpt lat="43.2635766" lon="10.8022947"><ele>465.1666666666667</ele><time>2026-04-18T10:25:41.462Z</time></trkpt><trkpt lat="43.2635933" lon="10.802175"><ele>465.33333333333337</ele><time>2026-04-18T10:25:42.469Z</time></trkpt><trkpt lat="43.2636136" lon="10.8020558"><ele>465.5</ele><time>2026-04-18T10:25:43.458Z</time></trkpt><trkpt lat="43.263636" lon="10.801937"><ele>465.6666666666667</ele><time>2026-04-18T10:25:44.451Z</time></trkpt><trkpt lat="43.2636541" lon="10.8018199"><ele>465.83333333333337</ele><time>2026-04-18T10:25:45.466Z</time></trkpt><trkpt lat="43.2636709" lon="10.8017099"><ele>466.0</ele><time>2026-04-18T10:25:46.462Z</time></trkpt><trkpt lat="43.2636901" lon="10.8016005"><ele>466.00000000000006</ele><time>2026-04-18T10:25:47.482Z</time></trkpt><trkpt lat="43.2637151" lon="10.8014931"><ele>466.0</ele><time>2026-04-18T10:25:48.466Z</time></trkpt><trkpt lat="43.2637603" lon="10.8014088"><ele>466.0</ele><time>2026-04-18T10:25:49.453Z</time></trkpt><trkpt lat="43.2638009" lon="10.801303"><ele>466.0</ele><time>2026-04-18T10:25:50.483Z</time></trkpt><trkpt lat="43.2638363" lon="10.8011947"><ele>466.00000000000006</ele><time>2026-04-18T10:25:51.463Z</time></trkpt><trkpt lat="43.2638568" lon="10.801079"><ele>466.0</ele><time>2026-04-18T10:25:52.474Z</time></trkpt><trkpt lat="43.2638587" lon="10.8009748"><ele>465.50000000000006</ele><time>2026-04-18T10:25:53.465Z</time></trkpt><trkpt lat="43.263842" lon="10.8008826"><ele>465.0</ele><time>2026-04-18T10:25:54.457Z</time></trkpt><trkpt lat="43.2637679" lon="10.8007592"><ele>464.5</ele><time>2026-04-18T10:25:56.463Z</time></trkpt><trkpt lat="43.263713" lon="10.8007024"><ele>464.0</ele><time>2026-04-18T10:25:57.463Z</time></trkpt><trkpt lat="43.2636452" lon="10.8006369"><ele>463.50000000000006</ele><time>2026-04-18T10:25:58.467Z</time></trkpt><trkpt lat="43.2635734" lon="10.8005717"><ele>463.0</ele><time>2026-04-18T10:25:59.472Z</time></trkpt><trkpt lat="43.2635042" lon="10.8005158"><ele>463.00000000000006</ele><time>2026-04-18T10:26:00.477Z</time></trkpt><trkpt lat="43.2634393" lon="10.8004457"><ele>463.0</ele><time>2026-04-18T10:26:01.466Z</time></trkpt><trkpt lat="43.2633897" lon="10.800364"><ele>463.0</ele><time>2026-04-18T10:26:02.466Z</time></trkpt><trkpt lat="43.2633279" lon="10.8002771"><ele>463.0</ele><time>2026-04-18T10:26:03.471Z</time></trkpt><trkpt lat="43.2632561" lon="10.8001987"><ele>463.00000000000006</ele><time>2026-04-18T10:26:04.473Z</time></trkpt><trkpt lat="43.2631811" lon="10.8001107"><ele>463.0</ele><time>2026-04-18T10:26:05.466Z</time></trkpt><trkpt lat="43.2630967" lon="10.8000288"><ele>464.2</ele><time>2026-04-18T10:26:06.477Z</time></trkpt><trkpt lat="43.263006" lon="10.7999558"><ele>465.4</ele><time>2026-04-18T10:26:07.467Z</time></trkpt><trkpt lat="43.2629264" lon="10.799874"><ele>466.59999999999997</ele><time>2026-04-18T10:26:08.465Z</time></trkpt><trkpt lat="43.2628509" lon="10.7997988"><ele>467.79999999999995</ele><time>2026-04-18T10:26:09.481Z</time></trkpt><trkpt lat="43.2627766" lon="10.7997221"><ele>469.0</ele><time>2026-04-18T10:26:10.466Z</time></trkpt><trkpt lat="43.2627048" lon="10.7996502"><ele>469.00000000000006</ele><time>2026-04-18T10:26:11.473Z</time></trkpt><trkpt lat="43.2626403" lon="10.7995992"><ele>469.0</ele><time>2026-04-18T10:26:12.478Z</time></trkpt><trkpt lat="43.2625739" lon="10.7995439"><ele>469.0</ele><time>2026-04-18T10:26:13.477Z</time></trkpt><trkpt lat="43.2625155" lon="10.7994884"><ele>469.0</ele><time>2026-04-18T10:26:14.472Z</time></trkpt><trkpt lat="43.2624582" lon="10.7994233"><ele>469.00000000000006</ele><time>2026-04-18T10:26:15.483Z</time></trkpt><trkpt lat="43.2624019" lon="10.7993422"><ele>469.0</ele><time>2026-04-18T10:26:16.467Z</time></trkpt><trkpt lat="43.2623579" lon="10.7992473"><ele>470.2</ele><time>2026-04-18T10:26:17.476Z</time></trkpt><trkpt lat="43.2623214" lon="10.799139"><ele>471.4</ele><time>2026-04-18T10:26:18.475Z</time></trkpt><trkpt lat="43.2622832" lon="10.7990038"><ele>472.6</ele><time>2026-04-18T10:26:19.477Z</time></trkpt><trkpt lat="43.2622496" lon="10.7988784"><ele>473.8</ele><time>2026-04-18T10:26:20.462Z</time></trkpt><trkpt lat="43.2622114" lon="10.7987367"><ele>475.0</ele><time>2026-04-18T10:26:21.462Z</time></trkpt><trkpt lat="43.2621748" lon="10.7986042"><ele>477.8</ele><time>2026-04-18T10:26:22.463Z</time></trkpt><trkpt lat="43.2621377" lon="10.7984744"><ele>480.6</ele><time>2026-04-18T10:26:23.465Z</time></trkpt><trkpt lat="43.2621038" lon="10.7983362"><ele>483.4</ele><time>2026-04-18T10:26:24.469Z</time></trkpt><trkpt lat="43.2620691" lon="10.7982002"><ele>486.2</ele><time>2026-04-18T10:26:25.46Z</time></trkpt><trkpt lat="43.262044" lon="10.7980718"><ele>489.0</ele><time>2026-04-18T10:26:26.473Z</time></trkpt><trkpt lat="43.2620197" lon="10.7979603"><ele>489.0</ele><time>2026-04-18T10:26:27.469Z</time></trkpt><trkpt lat="43.2619923" lon="10.7978366"><ele>489.0</ele><time>2026-04-18T10:26:28.482Z</time></trkpt><trkpt lat="43.2619684" lon="10.7977236"><ele>489.0</ele><time>2026-04-18T10:26:29.472Z</time></trkpt><trkpt lat="43.2619395" lon="10.7976041"><ele>489.0</ele><time>2026-04-18T10:26:30.471Z</time></trkpt><trkpt lat="43.2619" lon="10.7974859"><ele>489.0</ele><time>2026-04-18T10:26:31.453Z</time></trkpt><trkpt lat="43.2618561" lon="10.7973638"><ele>488.6</ele><time>2026-04-18T10:26:32.456Z</time></trkpt><trkpt lat="43.2618166" lon="10.7972468"><ele>488.2</ele><time>2026-04-18T10:26:33.458Z</time></trkpt><trkpt lat="43.2617859" lon="10.7971226"><ele>487.80000000000007</ele><time>2026-04-18T10:26:34.477Z</time></trkpt><trkpt lat="43.2617585" lon="10.7969922"><ele>487.40000000000003</ele><time>2026-04-18T10:26:35.464Z</time></trkpt><trkpt lat="43.2617357" lon="10.7968746"><ele>487.0</ele><time>2026-04-18T10:26:36.473Z</time></trkpt><trkpt lat="43.2617074" lon="10.7967596"><ele>485.6</ele><time>2026-04-18T10:26:37.464Z</time></trkpt><trkpt lat="43.2616617" lon="10.7966412"><ele>484.20000000000005</ele><time>2026-04-18T10:26:38.513Z</time></trkpt><trkpt lat="43.2616131" lon="10.7965293"><ele>482.8</ele><time>2026-04-18T10:26:39.474Z</time></trkpt><trkpt lat="43.2615597" lon="10.7963901"><ele>481.4</ele><time>2026-04-18T10:26:40.465Z</time></trkpt><trkpt lat="43.2615178" lon="10.7962567"><ele>480.0</ele><time>2026-04-18T10:26:41.468Z</time></trkpt><trkpt lat="43.2614788" lon="10.7961394"><ele>480.6</ele><time>2026-04-18T10:26:42.477Z</time></trkpt><trkpt lat="43.2614393" lon="10.7960183"><ele>481.2</ele><time>2026-04-18T10:26:43.459Z</time></trkpt><trkpt lat="43.2614013" lon="10.7958938"><ele>481.79999999999995</ele><time>2026-04-18T10:26:44.462Z</time></trkpt><trkpt lat="43.2613707" lon="10.7957739"><ele>482.4</ele><time>2026-04-18T10:26:45.458Z</time></trkpt><trkpt lat="43.2613385" lon="10.7956572"><ele>483.0</ele><time>2026-04-18T10:26:46.467Z</time></trkpt><trkpt lat="43.2612976" lon="10.7955403"><ele>481.79999999999995</ele><time>2026-04-18T10:26:47.468Z</time></trkpt><trkpt lat="43.2612544" lon="10.7954294"><ele>480.59999999999997</ele><time>2026-04-18T10:26:48.456Z</time></trkpt><trkpt lat="43.2612021" lon="10.7953211"><ele>479.40000000000003</ele><time>2026-04-18T10:26:49.463Z</time></trkpt><trkpt lat="43.261143" lon="10.7952155"><ele>478.20000000000005</ele><time>2026-04-18T10:26:50.472Z</time></trkpt><trkpt lat="43.2610884" lon="10.7951079"><ele>477.0</ele><time>2026-04-18T10:26:51.47Z</time></trkpt><trkpt lat="43.2610309" lon="10.7950008"><ele>475.40000000000003</ele><time>2026-04-18T10:26:52.493Z</time></trkpt><trkpt lat="43.2609722" lon="10.7948939"><ele>473.80000000000007</ele><time>2026-04-18T10:26:53.463Z</time></trkpt><trkpt lat="43.260919" lon="10.7947775"><ele>472.2</ele><time>2026-04-18T10:26:54.473Z</time></trkpt><trkpt lat="43.2608616" lon="10.7946727"><ele>470.6</ele><time>2026-04-18T10:26:55.468Z</time></trkpt><trkpt lat="43.2608077" lon="10.7945594"><ele>469.0</ele><time>2026-04-18T10:26:56.46Z</time></trkpt><trkpt lat="43.2607558" lon="10.7944447"><ele>467.79999999999995</ele><time>2026-04-18T10:26:57.459Z</time></trkpt><trkpt lat="43.260701" lon="10.7943352"><ele>466.59999999999997</ele><time>2026-04-18T10:26:58.473Z</time></trkpt><trkpt lat="43.2606487" lon="10.7942376"><ele>465.4</ele><time>2026-04-18T10:26:59.467Z</time></trkpt><trkpt lat="43.2606016" lon="10.7941292"><ele>464.2</ele><time>2026-04-18T10:27:00.492Z</time></trkpt><trkpt lat="43.2605504" lon="10.7940201"><ele>463.0</ele><time>2026-04-18T10:27:01.461Z</time></trkpt><trkpt lat="43.2605048" lon="10.7939013"><ele>462.2</ele><time>2026-04-18T10:27:02.467Z</time></trkpt><trkpt lat="43.2604679" lon="10.7937718"><ele>461.4</ele><time>2026-04-18T10:27:03.462Z</time></trkpt><trkpt lat="43.2604412" lon="10.7936383"><ele>460.59999999999997</ele><time>2026-04-18T10:27:04.464Z</time></trkpt><trkpt lat="43.2604161" lon="10.793501"><ele>459.79999999999995</ele><time>2026-04-18T10:27:05.49Z</time></trkpt><trkpt lat="43.2603858" lon="10.7933686"><ele>459.0</ele><time>2026-04-18T10:27:06.469Z</time></trkpt><trkpt lat="43.2603456" lon="10.7932455"><ele>459.0</ele><time>2026-04-18T10:27:07.469Z</time></trkpt><trkpt lat="43.2602981" lon="10.7931285"><ele>459.0</ele><time>2026-04-18T10:27:08.453Z</time></trkpt><trkpt lat="43.2602443" lon="10.7930096"><ele>459.0</ele><time>2026-04-18T10:27:09.471Z</time></trkpt><trkpt lat="43.2601916" lon="10.7929005"><ele>459.0</ele><time>2026-04-18T10:27:10.474Z</time></trkpt><trkpt lat="43.2601389" lon="10.79278"><ele>459.0</ele><time>2026-04-18T10:27:11.477Z</time></trkpt><trkpt lat="43.2600806" lon="10.7926477"><ele>459.75</ele><time>2026-04-18T10:27:12.478Z</time></trkpt><trkpt lat="43.2600176" lon="10.7925244"><ele>460.5</ele><time>2026-04-18T10:27:13.465Z</time></trkpt><trkpt lat="43.2599537" lon="10.7924009"><ele>461.25</ele><time>2026-04-18T10:27:14.466Z</time></trkpt><trkpt lat="43.2598861" lon="10.7922808"><ele>462.0</ele><time>2026-04-18T10:27:15.468Z</time></trkpt><trkpt lat="43.2598138" lon="10.7921494"><ele>461.0</ele><time>2026-04-18T10:27:16.464Z</time></trkpt><trkpt lat="43.2597367" lon="10.7920211"><ele>460.0</ele><time>2026-04-18T10:27:17.479Z</time></trkpt><trkpt lat="43.2596579" lon="10.7919012"><ele>459.0</ele><time>2026-04-18T10:27:18.471Z</time></trkpt><trkpt lat="43.2595754" lon="10.7917733"><ele>458.0</ele><time>2026-04-18T10:27:19.468Z</time></trkpt><trkpt lat="43.2594923" lon="10.7916456"><ele>458.0</ele><time>2026-04-18T10:27:20.457Z</time></trkpt><trkpt lat="43.2594069" lon="10.7915154"><ele>458.0</ele><time>2026-04-18T10:27:21.468Z</time></trkpt><trkpt lat="43.2593302" lon="10.7913841"><ele>458.0</ele><time>2026-04-18T10:27:22.469Z</time></trkpt><trkpt lat="43.2592543" lon="10.7912467"><ele>458.0</ele><time>2026-04-18T10:27:23.469Z</time></trkpt><trkpt lat="43.2591775" lon="10.7911043"><ele>458.0</ele><time>2026-04-18T10:27:24.474Z</time></trkpt><trkpt lat="43.2591015" lon="10.7909662"><ele>458.0</ele><time>2026-04-18T10:27:25.489Z</time></trkpt><trkpt lat="43.2590369" lon="10.7908212"><ele>458.0</ele><time>2026-04-18T10:27:26.466Z</time></trkpt><trkpt lat="43.2589757" lon="10.790687"><ele>458.0</ele><time>2026-04-18T10:27:27.481Z</time></trkpt><trkpt lat="43.2589214" lon="10.7905641"><ele>457.79999999999995</ele><time>2026-04-18T10:27:28.465Z</time></trkpt><trkpt lat="43.2588723" lon="10.7904344"><ele>457.59999999999997</ele><time>2026-04-18T10:27:29.464Z</time></trkpt><trkpt lat="43.258819" lon="10.7903046"><ele>457.40000000000003</ele><time>2026-04-18T10:27:30.464Z</time></trkpt><trkpt lat="43.2587598" lon="10.7901711"><ele>457.20000000000005</ele><time>2026-04-18T10:27:31.472Z</time></trkpt><trkpt lat="43.2587014" lon="10.7900282"><ele>457.0</ele><time>2026-04-18T10:27:32.467Z</time></trkpt><trkpt lat="43.2586509" lon="10.7898772"><ele>457.0</ele><time>2026-04-18T10:27:33.466Z</time></trkpt><trkpt lat="43.2586072" lon="10.7897199"><ele>457.0</ele><time>2026-04-18T10:27:34.466Z</time></trkpt><trkpt lat="43.2585647" lon="10.7895521"><ele>457.0</ele><time>2026-04-18T10:27:35.475Z</time></trkpt><trkpt lat="43.2585217" lon="10.7893895"><ele>457.0</ele><time>2026-04-18T10:27:36.466Z</time></trkpt><trkpt lat="43.2584791" lon="10.7892305"><ele>456.5</ele><time>2026-04-18T10:27:37.459Z</time></trkpt><trkpt lat="43.2584494" lon="10.7890804"><ele>456.0</ele><time>2026-04-18T10:27:38.466Z</time></trkpt><trkpt lat="43.2584267" lon="10.788912"><ele>455.5</ele><time>2026-04-18T10:27:39.47Z</time></trkpt><trkpt lat="43.25841" lon="10.788735"><ele>455.0</ele><time>2026-04-18T10:27:40.469Z</time></trkpt><trkpt lat="43.2583948" lon="10.7885623"><ele>455.0</ele><time>2026-04-18T10:27:41.473Z</time></trkpt><trkpt lat="43.2583897" lon="10.7883907"><ele>455.0</ele><time>2026-04-18T10:27:42.472Z</time></trkpt><trkpt lat="43.2583859" lon="10.7882192"><ele>455.0</ele><time>2026-04-18T10:27:43.475Z</time></trkpt><trkpt lat="43.2583833" lon="10.7880475"><ele>455.0</ele><time>2026-04-18T10:27:44.467Z</time></trkpt><trkpt lat="43.2583783" lon="10.7878849"><ele>454.99999999999994</ele><time>2026-04-18T10:27:45.462Z</time></trkpt><trkpt lat="43.2583713" lon="10.7877437"><ele>455.0</ele><time>2026-04-18T10:27:46.476Z</time></trkpt><trkpt lat="43.2583639" lon="10.7876235"><ele>455.0</ele><time>2026-04-18T10:27:47.467Z</time></trkpt><trkpt lat="43.2583491" lon="10.7875106"><ele>455.0</ele><time>2026-04-18T10:27:48.461Z</time></trkpt><trkpt lat="43.2583195" lon="10.7874091"><ele>454.99999999999994</ele><time>2026-04-18T10:27:49.474Z</time></trkpt><trkpt lat="43.2582844" lon="10.7873332"><ele>455.0</ele><time>2026-04-18T10:27:50.461Z</time></trkpt><trkpt lat="43.2582384" lon="10.78727"><ele>455.3333333333333</ele><time>2026-04-18T10:27:51.464Z</time></trkpt><trkpt lat="43.2581917" lon="10.7872081"><ele>455.66666666666663</ele><time>2026-04-18T10:27:52.46Z</time></trkpt><trkpt lat="43.2581287" lon="10.7871495"><ele>456.0</ele><time>2026-04-18T10:27:53.465Z</time></trkpt><trkpt lat="43.2580529" lon="10.7870805"><ele>456.33333333333337</ele><time>2026-04-18T10:27:54.481Z</time></trkpt><trkpt lat="43.2579719" lon="10.7869974"><ele>456.6666666666667</ele><time>2026-04-18T10:27:55.459Z</time></trkpt><trkpt lat="43.2578861" lon="10.7869189"><ele>457.0</ele><time>2026-04-18T10:27:56.469Z</time></trkpt><trkpt lat="43.2577959" lon="10.7868388"><ele>455.20000000000005</ele><time>2026-04-18T10:27:57.462Z</time></trkpt><trkpt lat="43.2577038" lon="10.7867606"><ele>453.40000000000003</ele><time>2026-04-18T10:27:58.471Z</time></trkpt><trkpt lat="43.2576214" lon="10.7866704"><ele>451.59999999999997</ele><time>2026-04-18T10:27:59.471Z</time></trkpt><trkpt lat="43.2575409" lon="10.7865721"><ele>449.79999999999995</ele><time>2026-04-18T10:28:00.475Z</time></trkpt><trkpt lat="43.2574625" lon="10.786468"><ele>448.0</ele><time>2026-04-18T10:28:01.473Z</time></trkpt><trkpt lat="43.2573871" lon="10.7863655"><ele>448.0</ele><time>2026-04-18T10:28:02.472Z</time></trkpt><trkpt lat="43.2573115" lon="10.7862663"><ele>447.99999999999994</ele><time>2026-04-18T10:28:03.467Z</time></trkpt><trkpt lat="43.2572369" lon="10.7861658"><ele>447.99999999999994</ele><time>2026-04-18T10:28:04.469Z</time></trkpt><trkpt lat="43.2571877" lon="10.7860591"><ele>448.0</ele><time>2026-04-18T10:28:05.468Z</time></trkpt><trkpt lat="43.257164" lon="10.7859395"><ele>448.0</ele><time>2026-04-18T10:28:06.468Z</time></trkpt><trkpt lat="43.2571514" lon="10.785817"><ele>446.4</ele><time>2026-04-18T10:28:07.477Z</time></trkpt><trkpt lat="43.2571684" lon="10.7856888"><ele>444.79999999999995</ele><time>2026-04-18T10:28:08.456Z</time></trkpt><trkpt lat="43.2571828" lon="10.7855629"><ele>443.2</ele><time>2026-04-18T10:28:09.496Z</time></trkpt><trkpt lat="43.2571829" lon="10.7854308"><ele>441.6</ele><time>2026-04-18T10:28:10.465Z</time></trkpt><trkpt lat="43.2571611" lon="10.7852956"><ele>440.0</ele><time>2026-04-18T10:28:11.461Z</time></trkpt><trkpt lat="43.2571077" lon="10.7851642"><ele>439.99999999999994</ele><time>2026-04-18T10:28:12.464Z</time></trkpt><trkpt lat="43.257044" lon="10.7850465"><ele>440.0</ele><time>2026-04-18T10:28:13.461Z</time></trkpt><trkpt lat="43.2569826" lon="10.7849447"><ele>440.0</ele><time>2026-04-18T10:28:14.473Z</time></trkpt><trkpt lat="43.2569321" lon="10.7848416"><ele>440.0</ele><time>2026-04-18T10:28:15.466Z</time></trkpt><trkpt lat="43.2568856" lon="10.7847569"><ele>439.99999999999994</ele><time>2026-04-18T10:28:16.46Z</time></trkpt><trkpt lat="43.2568529" lon="10.7846648"><ele>440.0</ele><time>2026-04-18T10:28:17.47Z</time></trkpt><trkpt lat="43.2568272" lon="10.7845187"><ele>440.0</ele><time>2026-04-18T10:28:18.454Z</time></trkpt><trkpt lat="43.2568035" lon="10.7843728"><ele>440.0</ele><time>2026-04-18T10:28:19.463Z</time></trkpt><trkpt lat="43.2567775" lon="10.784228"><ele>440.0</ele><time>2026-04-18T10:28:20.462Z</time></trkpt><trkpt lat="43.2567501" lon="10.7840944"><ele>440.0</ele><time>2026-04-18T10:28:21.462Z</time></trkpt><trkpt lat="43.2567242" lon="10.7839522"><ele>440.0</ele><time>2026-04-18T10:28:22.469Z</time></trkpt><trkpt lat="43.2567063" lon="10.7838089"><ele>440.8</ele><time>2026-04-18T10:28:23.461Z</time></trkpt><trkpt lat="43.2567042" lon="10.7836708"><ele>441.6</ele><time>2026-04-18T10:28:24.466Z</time></trkpt><trkpt lat="43.2567051" lon="10.7835371"><ele>442.4</ele><time>2026-04-18T10:28:25.47Z</time></trkpt><trkpt lat="43.2566841" lon="10.7834002"><ele>443.2</ele><time>2026-04-18T10:28:26.465Z</time></trkpt><trkpt lat="43.2566479" lon="10.7832757"><ele>444.0</ele><time>2026-04-18T10:28:27.461Z</time></trkpt><trkpt lat="43.2565868" lon="10.7831712"><ele>444.8333333333333</ele><time>2026-04-18T10:28:28.47Z</time></trkpt><trkpt lat="43.2565079" lon="10.7831075"><ele>445.66666666666663</ele><time>2026-04-18T10:28:29.468Z</time></trkpt><trkpt lat="43.2564296" lon="10.7830956"><ele>446.5</ele><time>2026-04-18T10:28:30.462Z</time></trkpt><trkpt lat="43.2563457" lon="10.7831059"><ele>447.3333333333333</ele><time>2026-04-18T10:28:31.467Z</time></trkpt><trkpt lat="43.2562608" lon="10.7831124"><ele>448.16666666666663</ele><time>2026-04-18T10:28:32.457Z</time></trkpt><trkpt lat="43.2561775" lon="10.7831163"><ele>449.0</ele><time>2026-04-18T10:28:33.471Z</time></trkpt><trkpt lat="43.256099" lon="10.7831217"><ele>449.3333333333333</ele><time>2026-04-18T10:28:34.47Z</time></trkpt><trkpt lat="43.2560259" lon="10.7831185"><ele>449.66666666666663</ele><time>2026-04-18T10:28:35.455Z</time></trkpt><trkpt lat="43.2559443" lon="10.7831191"><ele>450.0</ele><time>2026-04-18T10:28:36.467Z</time></trkpt><trkpt lat="43.2558703" lon="10.7830951"><ele>450.33333333333337</ele><time>2026-04-18T10:28:37.471Z</time></trkpt><trkpt lat="43.2558011" lon="10.783052"><ele>450.6666666666667</ele><time>2026-04-18T10:28:38.499Z</time></trkpt><trkpt lat="43.2557344" lon="10.7830065"><ele>451.0</ele><time>2026-04-18T10:28:39.455Z</time></trkpt><trkpt lat="43.2556721" lon="10.7829446"><ele>451.00000000000006</ele><time>2026-04-18T10:28:40.466Z</time></trkpt><trkpt lat="43.2556145" lon="10.7828625"><ele>451.0</ele><time>2026-04-18T10:28:41.462Z</time></trkpt><trkpt lat="43.2555569" lon="10.7827838"><ele>451.0</ele><time>2026-04-18T10:28:42.464Z</time></trkpt><trkpt lat="43.2554976" lon="10.7827038"><ele>451.0</ele><time>2026-04-18T10:28:43.46Z</time></trkpt><trkpt lat="43.2554359" lon="10.7826268"><ele>451.00000000000006</ele><time>2026-04-18T10:28:44.456Z</time></trkpt><trkpt lat="43.2553844" lon="10.7825519"><ele>451.0</ele><time>2026-04-18T10:28:45.467Z</time></trkpt><trkpt lat="43.255347" lon="10.7824759"><ele>451.00000000000006</ele><time>2026-04-18T10:28:46.456Z</time></trkpt><trkpt lat="43.2553247" lon="10.7823799"><ele>451.0</ele><time>2026-04-18T10:28:47.492Z</time></trkpt><trkpt lat="43.2553232" lon="10.7822757"><ele>451.0</ele><time>2026-04-18T10:28:48.46Z</time></trkpt><trkpt lat="43.2553148" lon="10.7821585"><ele>451.0</ele><time>2026-04-18T10:28:49.456Z</time></trkpt><trkpt lat="43.2552976" lon="10.7820418"><ele>451.00000000000006</ele><time>2026-04-18T10:28:50.462Z</time></trkpt><trkpt lat="43.2552721" lon="10.7819253"><ele>451.0</ele><time>2026-04-18T10:28:51.455Z</time></trkpt><trkpt lat="43.2552352" lon="10.7818073"><ele>453.4</ele><time>2026-04-18T10:28:52.496Z</time></trkpt><trkpt lat="43.2551887" lon="10.7816967"><ele>455.8</ele><time>2026-04-18T10:28:53.463Z</time></trkpt><trkpt lat="43.2551297" lon="10.7815834"><ele>458.19999999999993</ele><time>2026-04-18T10:28:54.476Z</time></trkpt><trkpt lat="43.2550574" lon="10.7814653"><ele>460.59999999999997</ele><time>2026-04-18T10:28:55.461Z</time></trkpt><trkpt lat="43.2549956" lon="10.7813568"><ele>463.0</ele><time>2026-04-18T10:28:56.462Z</time></trkpt><trkpt lat="43.2549264" lon="10.7812574"><ele>463.0</ele><time>2026-04-18T10:28:57.469Z</time></trkpt><trkpt lat="43.2548408" lon="10.7811758"><ele>462.99999999999994</ele><time>2026-04-18T10:28:58.46Z</time></trkpt><trkpt lat="43.2547495" lon="10.7811296"><ele>462.99999999999994</ele><time>2026-04-18T10:28:59.463Z</time></trkpt><trkpt lat="43.2546554" lon="10.7811328"><ele>463.0</ele><time>2026-04-18T10:29:00.463Z</time></trkpt><trkpt lat="43.2545449" lon="10.7811763"><ele>463.0</ele><time>2026-04-18T10:29:01.466Z</time></trkpt><trkpt lat="43.2544493" lon="10.7812145"><ele>462.1666666666667</ele><time>2026-04-18T10:29:02.462Z</time></trkpt><trkpt lat="43.2543699" lon="10.7812735"><ele>461.33333333333337</ele><time>2026-04-18T10:29:03.46Z</time></trkpt><trkpt lat="43.2542868" lon="10.7812727"><ele>460.5</ele><time>2026-04-18T10:29:04.463Z</time></trkpt><trkpt lat="43.2542031" lon="10.7812492"><ele>459.66666666666663</ele><time>2026-04-18T10:29:05.469Z</time></trkpt><trkpt lat="43.2541128" lon="10.7811999"><ele>458.8333333333333</ele><time>2026-04-18T10:29:06.49Z</time></trkpt><trkpt lat="43.2540417" lon="10.7811407"><ele>458.0</ele><time>2026-04-18T10:29:07.468Z</time></trkpt><trkpt lat="43.2539663" lon="10.7810666"><ele>458.66666666666663</ele><time>2026-04-18T10:29:08.462Z</time></trkpt><trkpt lat="43.2538923" lon="10.7810008"><ele>459.3333333333333</ele><time>2026-04-18T10:29:09.463Z</time></trkpt><trkpt lat="43.2538218" lon="10.7809376"><ele>460.0</ele><time>2026-04-18T10:29:10.47Z</time></trkpt><trkpt lat="43.2537592" lon="10.7808706"><ele>460.66666666666663</ele><time>2026-04-18T10:29:11.465Z</time></trkpt><trkpt lat="43.2537002" lon="10.7808019"><ele>461.3333333333333</ele><time>2026-04-18T10:29:12.467Z</time></trkpt><trkpt lat="43.25365" lon="10.7807117"><ele>462.0</ele><time>2026-04-18T10:29:13.465Z</time></trkpt><trkpt lat="43.2536153" lon="10.7806102"><ele>462.0</ele><time>2026-04-18T10:29:14.466Z</time></trkpt><trkpt lat="43.2535843" lon="10.7804978"><ele>462.0</ele><time>2026-04-18T10:29:15.462Z</time></trkpt><trkpt lat="43.2535498" lon="10.7803902"><ele>462.0</ele><time>2026-04-18T10:29:16.455Z</time></trkpt><trkpt lat="43.2535049" lon="10.780281"><ele>462.0</ele><time>2026-04-18T10:29:17.462Z</time></trkpt><trkpt lat="43.2534549" lon="10.7801855"><ele>462.0</ele><time>2026-04-18T10:29:18.469Z</time></trkpt><trkpt lat="43.253391" lon="10.7800826"><ele>462.0</ele><time>2026-04-18T10:29:19.458Z</time></trkpt><trkpt lat="43.2533227" lon="10.7799847"><ele>461.6</ele><time>2026-04-18T10:29:20.469Z</time></trkpt><trkpt lat="43.2532513" lon="10.7798919"><ele>461.20000000000005</ele><time>2026-04-18T10:29:21.462Z</time></trkpt><trkpt lat="43.2531755" lon="10.7798049"><ele>460.8</ele><time>2026-04-18T10:29:22.467Z</time></trkpt><trkpt lat="43.2530996" lon="10.7797157"><ele>460.4</ele><time>2026-04-18T10:29:23.458Z</time></trkpt><trkpt lat="43.2530211" lon="10.7796275"><ele>460.0</ele><time>2026-04-18T10:29:24.456Z</time></trkpt><trkpt lat="43.2529416" lon="10.7795379"><ele>460.0</ele><time>2026-04-18T10:29:25.453Z</time></trkpt><trkpt lat="43.2528621" lon="10.7794524"><ele>460.0</ele><time>2026-04-18T10:29:26.478Z</time></trkpt><trkpt lat="43.2527791" lon="10.779377"><ele>460.0</ele><time>2026-04-18T10:29:27.468Z</time></trkpt><trkpt lat="43.2526877" lon="10.7793017"><ele>460.0</ele><time>2026-04-18T10:29:28.465Z</time></trkpt><trkpt lat="43.2526026" lon="10.7792333"><ele>460.0</ele><time>2026-04-18T10:29:29.475Z</time></trkpt><trkpt lat="43.2525227" lon="10.7791676"><ele>461.2</ele><time>2026-04-18T10:29:30.473Z</time></trkpt><trkpt lat="43.2524423" lon="10.7790955"><ele>462.4</ele><time>2026-04-18T10:29:31.459Z</time></trkpt><trkpt lat="43.2523571" lon="10.7790181"><ele>463.6</ele><time>2026-04-18T10:29:32.469Z</time></trkpt><trkpt lat="43.2522694" lon="10.7789357"><ele>464.8</ele><time>2026-04-18T10:29:33.463Z</time></trkpt><trkpt lat="43.2521838" lon="10.778856"><ele>466.0</ele><time>2026-04-18T10:29:34.475Z</time></trkpt><trkpt lat="43.2520964" lon="10.778788"><ele>466.0</ele><time>2026-04-18T10:29:35.457Z</time></trkpt><trkpt lat="43.2519969" lon="10.7787207"><ele>466.0</ele><time>2026-04-18T10:29:36.462Z</time></trkpt><trkpt lat="43.2518928" lon="10.778641"><ele>466.0</ele><time>2026-04-18T10:29:37.468Z</time></trkpt><trkpt lat="43.2517838" lon="10.7785526"><ele>466.0</ele><time>2026-04-18T10:29:38.48Z</time></trkpt><trkpt lat="43.2516816" lon="10.778468"><ele>467.0</ele><time>2026-04-18T10:29:39.471Z</time></trkpt><trkpt lat="43.2515681" lon="10.7783843"><ele>468.0</ele><time>2026-04-18T10:29:40.462Z</time></trkpt><trkpt lat="43.2514505" lon="10.7783062"><ele>469.0</ele><time>2026-04-18T10:29:41.467Z</time></trkpt><trkpt lat="43.2513317" lon="10.7782296"><ele>470.0</ele><time>2026-04-18T10:29:42.474Z</time></trkpt><trkpt lat="43.251223" lon="10.7781605"><ele>470.3333333333333</ele><time>2026-04-18T10:29:43.47Z</time></trkpt><trkpt lat="43.2511194" lon="10.7780994"><ele>470.66666666666663</ele><time>2026-04-18T10:29:44.463Z</time></trkpt><trkpt lat="43.2510305" lon="10.778051"><ele>471.0</ele><time>2026-04-18T10:29:45.478Z</time></trkpt><trkpt lat="43.2509556" lon="10.7780133"><ele>471.33333333333337</ele><time>2026-04-18T10:29:46.458Z</time></trkpt><trkpt lat="43.2508846" lon="10.7780004"><ele>471.6666666666667</ele><time>2026-04-18T10:29:47.475Z</time></trkpt><trkpt lat="43.2507992" lon="10.7780129"><ele>472.0</ele><time>2026-04-18T10:29:48.469Z</time></trkpt><trkpt lat="43.2507137" lon="10.7780522"><ele>472.8</ele><time>2026-04-18T10:29:49.468Z</time></trkpt><trkpt lat="43.2506175" lon="10.7780856"><ele>473.6</ele><time>2026-04-18T10:29:50.459Z</time></trkpt><trkpt lat="43.2505039" lon="10.7781194"><ele>474.40000000000003</ele><time>2026-04-18T10:29:51.467Z</time></trkpt><trkpt lat="43.2503882" lon="10.7781217"><ele>475.20000000000005</ele><time>2026-04-18T10:29:52.456Z</time></trkpt><trkpt lat="43.2502761" lon="10.7781227"><ele>476.0</ele><time>2026-04-18T10:29:53.461Z</time></trkpt><trkpt lat="43.2501773" lon="10.7781102"><ele>476.0</ele><time>2026-04-18T10:29:54.471Z</time></trkpt><trkpt lat="43.2500794" lon="10.7781108"><ele>476.0</ele><time>2026-04-18T10:29:55.457Z</time></trkpt><trkpt lat="43.2499928" lon="10.7781206"><ele>476.0</ele><time>2026-04-18T10:29:56.474Z</time></trkpt><trkpt lat="43.2499088" lon="10.7781217"><ele>476.0</ele><time>2026-04-18T10:29:57.472Z</time></trkpt><trkpt lat="43.2498411" lon="10.778098"><ele>476.0</ele><time>2026-04-18T10:29:58.477Z</time></trkpt><trkpt lat="43.2497402" lon="10.7780306"><ele>479.66666666666663</ele><time>2026-04-18T10:30:00.465Z</time></trkpt><trkpt lat="43.2496898" lon="10.7779751"><ele>483.3333333333333</ele><time>2026-04-18T10:30:01.462Z</time></trkpt><trkpt lat="43.2496291" lon="10.7779196"><ele>487.0</ele><time>2026-04-18T10:30:02.467Z</time></trkpt><trkpt lat="43.249569" lon="10.7778526"><ele>490.66666666666663</ele><time>2026-04-18T10:30:03.466Z</time></trkpt><trkpt lat="43.2495014" lon="10.7777734"><ele>494.3333333333333</ele><time>2026-04-18T10:30:04.483Z</time></trkpt><trkpt lat="43.2494302" lon="10.7776944"><ele>498.0</ele><time>2026-04-18T10:30:05.466Z</time></trkpt><trkpt lat="43.2493632" lon="10.7776006"><ele>498.0</ele><time>2026-04-18T10:30:06.45Z</time></trkpt><trkpt lat="43.2493009" lon="10.7774951"><ele>497.99999999999994</ele><time>2026-04-18T10:30:07.461Z</time></trkpt><trkpt lat="43.2492431" lon="10.7773771"><ele>497.99999999999994</ele><time>2026-04-18T10:30:08.457Z</time></trkpt><trkpt lat="43.2491971" lon="10.7772668"><ele>498.0</ele><time>2026-04-18T10:30:09.453Z</time></trkpt><trkpt lat="43.2491623" lon="10.7771519"><ele>498.0</ele><time>2026-04-18T10:30:10.449Z</time></trkpt><trkpt lat="43.2491428" lon="10.7770261"><ele>498.0</ele><time>2026-04-18T10:30:11.457Z</time></trkpt><trkpt lat="43.249126" lon="10.776906"><ele>498.0</ele><time>2026-04-18T10:30:12.487Z</time></trkpt><trkpt lat="43.2490963" lon="10.7768019"><ele>498.0</ele><time>2026-04-18T10:30:13.466Z</time></trkpt><trkpt lat="43.2490506" lon="10.7766992"><ele>498.0</ele><time>2026-04-18T10:30:14.445Z</time></trkpt><trkpt lat="43.2489924" lon="10.7766118"><ele>498.0</ele><time>2026-04-18T10:30:15.46Z</time></trkpt><trkpt lat="43.2489144" lon="10.7765415"><ele>498.0</ele><time>2026-04-18T10:30:16.462Z</time></trkpt><trkpt lat="43.2488429" lon="10.7764792"><ele>498.8333333333333</ele><time>2026-04-18T10:30:17.467Z</time></trkpt><trkpt lat="43.248773" lon="10.7763937"><ele>499.66666666666663</ele><time>2026-04-18T10:30:18.474Z</time></trkpt><trkpt lat="43.2487118" lon="10.7762974"><ele>500.5</ele><time>2026-04-18T10:30:19.452Z</time></trkpt><trkpt lat="43.2486612" lon="10.7762057"><ele>501.3333333333333</ele><time>2026-04-18T10:30:20.465Z</time></trkpt><trkpt lat="43.2486143" lon="10.7761135"><ele>502.16666666666663</ele><time>2026-04-18T10:30:21.462Z</time></trkpt><trkpt lat="43.248566" lon="10.7760213"><ele>503.0</ele><time>2026-04-18T10:30:22.467Z</time></trkpt><trkpt lat="43.2484719" lon="10.7759082"><ele>502.99999999999994</ele><time>2026-04-18T10:30:24.457Z</time></trkpt><trkpt lat="43.2483545" lon="10.7759159"><ele>503.0</ele><time>2026-04-18T10:30:26.467Z</time></trkpt><trkpt lat="43.2482788" lon="10.7759687"><ele>503.0</ele><time>2026-04-18T10:30:27.455Z</time></trkpt><trkpt lat="43.248209" lon="10.7760342"><ele>503.0</ele><time>2026-04-18T10:30:28.457Z</time></trkpt><trkpt lat="43.2481524" lon="10.7760853"><ele>502.99999999999994</ele><time>2026-04-18T10:30:29.458Z</time></trkpt><trkpt lat="43.2480785" lon="10.7761102"><ele>503.0</ele><time>2026-04-18T10:30:31.469Z</time></trkpt><trkpt lat="43.2479967" lon="10.7760864"><ele>503.4</ele><time>2026-04-18T10:30:34.457Z</time></trkpt><trkpt lat="43.2479104" lon="10.7760605"><ele>503.79999999999995</ele><time>2026-04-18T10:30:37.462Z</time></trkpt><trkpt lat="43.2478393" lon="10.7760317"><ele>504.2</ele><time>2026-04-18T10:30:39.465Z</time></trkpt><trkpt lat="43.247772" lon="10.7760166"><ele>504.6</ele><time>2026-04-18T10:30:41.474Z</time></trkpt><trkpt lat="43.2476783" lon="10.7759941"><ele>505.0</ele><time>2026-04-18T10:30:43.459Z</time></trkpt><trkpt lat="43.2475549" lon="10.7760205"><ele>509.2</ele><time>2026-04-18T10:30:45.455Z</time></trkpt><trkpt lat="43.2474867" lon="10.776041"><ele>513.4</ele><time>2026-04-18T10:30:46.472Z</time></trkpt><trkpt lat="43.2473758" lon="10.7760703"><ele>517.6</ele><time>2026-04-18T10:30:48.454Z</time></trkpt><trkpt lat="43.2472594" lon="10.7761124"><ele>521.8</ele><time>2026-04-18T10:30:50.46Z</time></trkpt><trkpt lat="43.2471389" lon="10.7761794"><ele>526.0</ele><time>2026-04-18T10:30:52.451Z</time></trkpt><trkpt lat="43.2470733" lon="10.7762252"><ele>526.0</ele><time>2026-04-18T10:30:53.455Z</time></trkpt><trkpt lat="43.2469932" lon="10.7762386"><ele>526.0</ele><time>2026-04-18T10:30:54.474Z</time></trkpt><trkpt lat="43.2469201" lon="10.7762133"><ele>526.0</ele><time>2026-04-18T10:30:55.462Z</time></trkpt><trkpt lat="43.2468455" lon="10.7761796"><ele>526.0</ele><time>2026-04-18T10:30:56.47Z</time></trkpt><trkpt lat="43.2467778" lon="10.7761143"><ele>526.0</ele><time>2026-04-18T10:30:57.462Z</time></trkpt><trkpt lat="43.2467075" lon="10.7760301"><ele>526.0</ele><time>2026-04-18T10:30:58.452Z</time></trkpt><trkpt lat="43.2466519" lon="10.7759423"><ele>524.0</ele><time>2026-04-18T10:30:59.461Z</time></trkpt><trkpt lat="43.2465847" lon="10.7758598"><ele>522.0</ele><time>2026-04-18T10:31:00.456Z</time></trkpt><trkpt lat="43.2465108" lon="10.7757777"><ele>520.0</ele><time>2026-04-18T10:31:01.478Z</time></trkpt><trkpt lat="43.246444" lon="10.7757069"><ele>518.0</ele><time>2026-04-18T10:31:02.453Z</time></trkpt><trkpt lat="43.2463788" lon="10.7756442"><ele>516.0</ele><time>2026-04-18T10:31:03.485Z</time></trkpt><trkpt lat="43.2463158" lon="10.7755606"><ele>514.0</ele><time>2026-04-18T10:31:04.46Z</time></trkpt><trkpt lat="43.2462677" lon="10.7754777"><ele>514.0</ele><time>2026-04-18T10:31:05.46Z</time></trkpt><trkpt lat="43.2462335" lon="10.7753857"><ele>514.0</ele><time>2026-04-18T10:31:06.458Z</time></trkpt><trkpt lat="43.2462028" lon="10.775304"><ele>514.0</ele><time>2026-04-18T10:31:07.47Z</time></trkpt><trkpt lat="43.2461653" lon="10.7752146"><ele>514.0</ele><time>2026-04-18T10:31:08.461Z</time></trkpt><trkpt lat="43.2461124" lon="10.7751366"><ele>514.0</ele><time>2026-04-18T10:31:09.467Z</time></trkpt><trkpt lat="43.2460477" lon="10.7750726"><ele>514.0</ele><time>2026-04-18T10:31:10.459Z</time></trkpt><trkpt lat="43.2459801" lon="10.7750339"><ele>514.0</ele><time>2026-04-18T10:31:11.456Z</time></trkpt><trkpt lat="43.245895" lon="10.7750375"><ele>512.5</ele><time>2026-04-18T10:31:12.454Z</time></trkpt><trkpt lat="43.2458172" lon="10.7750566"><ele>511.0</ele><time>2026-04-18T10:31:13.457Z</time></trkpt><trkpt lat="43.24574" lon="10.77509"><ele>509.5</ele><time>2026-04-18T10:31:14.453Z</time></trkpt><trkpt lat="43.2456535" lon="10.7750896"><ele>508.0</ele><time>2026-04-18T10:31:15.456Z</time></trkpt><trkpt lat="43.2455818" lon="10.775099"><ele>506.50000000000006</ele><time>2026-04-18T10:31:16.458Z</time></trkpt><trkpt lat="43.2455123" lon="10.7751209"><ele>505.0</ele><time>2026-04-18T10:31:17.467Z</time></trkpt><trkpt lat="43.2454321" lon="10.7751036"><ele>504.6</ele><time>2026-04-18T10:31:18.469Z</time></trkpt><trkpt lat="43.2453433" lon="10.7750704"><ele>504.2</ele><time>2026-04-18T10:31:19.46Z</time></trkpt><trkpt lat="43.2452548" lon="10.7750182"><ele>503.79999999999995</ele><time>2026-04-18T10:31:20.477Z</time></trkpt><trkpt lat="43.2451639" lon="10.7749627"><ele>503.4</ele><time>2026-04-18T10:31:21.451Z</time></trkpt><trkpt lat="43.2450609" lon="10.7748914"><ele>503.0</ele><time>2026-04-18T10:31:22.456Z</time></trkpt><trkpt lat="43.2449557" lon="10.7748134"><ele>503.0</ele><time>2026-04-18T10:31:23.458Z</time></trkpt><trkpt lat="43.2448557" lon="10.7747412"><ele>502.99999999999994</ele><time>2026-04-18T10:31:24.468Z</time></trkpt><trkpt lat="43.2447636" lon="10.7746746"><ele>502.99999999999994</ele><time>2026-04-18T10:31:25.467Z</time></trkpt><trkpt lat="43.2446733" lon="10.7746049"><ele>503.0</ele><time>2026-04-18T10:31:26.466Z</time></trkpt><trkpt lat="43.2445848" lon="10.7745424"><ele>503.0</ele><time>2026-04-18T10:31:27.465Z</time></trkpt><trkpt lat="43.2444939" lon="10.7744769"><ele>502.59999999999997</ele><time>2026-04-18T10:31:28.461Z</time></trkpt><trkpt lat="43.2444069" lon="10.7744114"><ele>502.19999999999993</ele><time>2026-04-18T10:31:29.465Z</time></trkpt><trkpt lat="43.244309" lon="10.7743301"><ele>501.8</ele><time>2026-04-18T10:31:30.461Z</time></trkpt><trkpt lat="43.2442166" lon="10.774256"><ele>501.4</ele><time>2026-04-18T10:31:31.468Z</time></trkpt><trkpt lat="43.2441469" lon="10.7741765"><ele>501.0</ele><time>2026-04-18T10:31:32.454Z</time></trkpt><trkpt lat="43.244096" lon="10.7740707"><ele>501.0</ele><time>2026-04-18T10:31:33.464Z</time></trkpt><trkpt lat="43.24405" lon="10.7739468"><ele>501.0</ele><time>2026-04-18T10:31:34.465Z</time></trkpt><trkpt lat="43.2440201" lon="10.7737982"><ele>501.0</ele><time>2026-04-18T10:31:35.465Z</time></trkpt><trkpt lat="43.2439979" lon="10.773646"><ele>501.0</ele><time>2026-04-18T10:31:36.472Z</time></trkpt><trkpt lat="43.2439703" lon="10.7735134"><ele>501.0</ele><time>2026-04-18T10:31:37.473Z</time></trkpt><trkpt lat="43.243919" lon="10.7733824"><ele>501.3333333333333</ele><time>2026-04-18T10:31:38.46Z</time></trkpt><trkpt lat="43.2438581" lon="10.7732981"><ele>501.66666666666663</ele><time>2026-04-18T10:31:39.501Z</time></trkpt><trkpt lat="43.2437786" lon="10.7732114"><ele>502.0</ele><time>2026-04-18T10:31:40.459Z</time></trkpt><trkpt lat="43.2437163" lon="10.7731311"><ele>502.3333333333333</ele><time>2026-04-18T10:31:41.461Z</time></trkpt><trkpt lat="43.2436709" lon="10.7730606"><ele>502.66666666666663</ele><time>2026-04-18T10:31:42.468Z</time></trkpt><trkpt lat="43.2436315" lon="10.7729324"><ele>503.0</ele><time>2026-04-18T10:31:43.462Z</time></trkpt><trkpt lat="43.2436078" lon="10.7728037"><ele>503.79999999999995</ele><time>2026-04-18T10:31:44.452Z</time></trkpt><trkpt lat="43.2436052" lon="10.7726646"><ele>504.59999999999997</ele><time>2026-04-18T10:31:45.451Z</time></trkpt><trkpt lat="43.2436066" lon="10.7725172"><ele>505.40000000000003</ele><time>2026-04-18T10:31:46.456Z</time></trkpt><trkpt lat="43.243625" lon="10.7723656"><ele>506.20000000000005</ele><time>2026-04-18T10:31:47.472Z</time></trkpt><trkpt lat="43.2436319" lon="10.7722089"><ele>507.0</ele><time>2026-04-18T10:31:48.467Z</time></trkpt><trkpt lat="43.2436393" lon="10.7720709"><ele>507.0</ele><time>2026-04-18T10:31:49.461Z</time></trkpt><trkpt lat="43.2436434" lon="10.7719321"><ele>507.0</ele><time>2026-04-18T10:31:50.464Z</time></trkpt><trkpt lat="43.2436402" lon="10.771802"><ele>507.0</ele><time>2026-04-18T10:31:51.458Z</time></trkpt><trkpt lat="43.2436336" lon="10.7717047"><ele>507.0</ele><time>2026-04-18T10:31:52.461Z</time></trkpt><trkpt lat="43.2435807" lon="10.7716191"><ele>507.0</ele><time>2026-04-18T10:31:53.458Z</time></trkpt><trkpt lat="43.2435096" lon="10.7715722"><ele>507.0</ele><time>2026-04-18T10:31:54.458Z</time></trkpt><trkpt lat="43.2434196" lon="10.7715722"><ele>506.20000000000005</ele><time>2026-04-18T10:31:55.466Z</time></trkpt><trkpt lat="43.2433131" lon="10.7715563"><ele>505.40000000000003</ele><time>2026-04-18T10:31:56.464Z</time></trkpt><trkpt lat="43.2432291" lon="10.7715456"><ele>504.59999999999997</ele><time>2026-04-18T10:31:57.47Z</time></trkpt><trkpt lat="43.2431607" lon="10.771498"><ele>503.79999999999995</ele><time>2026-04-18T10:31:58.468Z</time></trkpt><trkpt lat="43.2430971" lon="10.771419"><ele>503.0</ele><time>2026-04-18T10:31:59.459Z</time></trkpt><trkpt lat="43.2430583" lon="10.7712965"><ele>503.75</ele><time>2026-04-18T10:32:00.457Z</time></trkpt><trkpt lat="43.2430349" lon="10.7711351"><ele>504.5</ele><time>2026-04-18T10:32:01.459Z</time></trkpt><trkpt lat="43.2430221" lon="10.7709606"><ele>505.25</ele><time>2026-04-18T10:32:02.46Z</time></trkpt><trkpt lat="43.2429992" lon="10.7708106"><ele>506.0</ele><time>2026-04-18T10:32:03.459Z</time></trkpt><trkpt lat="43.2429785" lon="10.7706802"><ele>505.99999999999994</ele><time>2026-04-18T10:32:04.454Z</time></trkpt><trkpt lat="43.2429477" lon="10.7705751"><ele>506.0</ele><time>2026-04-18T10:32:05.459Z</time></trkpt><trkpt lat="43.2429065" lon="10.7704621"><ele>506.0</ele><time>2026-04-18T10:32:06.459Z</time></trkpt><trkpt lat="43.2428563" lon="10.7703575"><ele>506.0</ele><time>2026-04-18T10:32:07.456Z</time></trkpt><trkpt lat="43.2428063" lon="10.7702555"><ele>505.99999999999994</ele><time>2026-04-18T10:32:08.459Z</time></trkpt><trkpt lat="43.2427589" lon="10.7701552"><ele>506.0</ele><time>2026-04-18T10:32:09.465Z</time></trkpt><trkpt lat="43.2427318" lon="10.7700507"><ele>503.20000000000005</ele><time>2026-04-18T10:32:10.458Z</time></trkpt><trkpt lat="43.2427061" lon="10.7699405"><ele>500.40000000000003</ele><time>2026-04-18T10:32:11.457Z</time></trkpt><trkpt lat="43.2426871" lon="10.7698043"><ele>497.6</ele><time>2026-04-18T10:32:12.463Z</time></trkpt><trkpt lat="43.2426796" lon="10.7696604"><ele>494.8</ele><time>2026-04-18T10:32:13.459Z</time></trkpt><trkpt lat="43.2426578" lon="10.7695165"><ele>492.0</ele><time>2026-04-18T10:32:14.459Z</time></trkpt><trkpt lat="43.2426273" lon="10.7694019"><ele>489.8</ele><time>2026-04-18T10:32:15.461Z</time></trkpt><trkpt lat="43.2425642" lon="10.7692866"><ele>487.6</ele><time>2026-04-18T10:32:16.476Z</time></trkpt><trkpt lat="43.2424732" lon="10.7692072"><ele>485.40000000000003</ele><time>2026-04-18T10:32:17.475Z</time></trkpt><trkpt lat="43.242381" lon="10.7691525"><ele>483.20000000000005</ele><time>2026-04-18T10:32:18.463Z</time></trkpt><trkpt lat="43.2422899" lon="10.7691091"><ele>481.0</ele><time>2026-04-18T10:32:19.466Z</time></trkpt><trkpt lat="43.2421798" lon="10.7690778"><ele>481.0</ele><time>2026-04-18T10:32:20.465Z</time></trkpt><trkpt lat="43.2420769" lon="10.7690319"><ele>481.0</ele><time>2026-04-18T10:32:21.456Z</time></trkpt><trkpt lat="43.2419787" lon="10.7689816"><ele>481.0</ele><time>2026-04-18T10:32:22.46Z</time></trkpt><trkpt lat="43.2418833" lon="10.7689336"><ele>481.0</ele><time>2026-04-18T10:32:23.449Z</time></trkpt><trkpt lat="43.2417876" lon="10.7688951"><ele>481.0</ele><time>2026-04-18T10:32:24.469Z</time></trkpt><trkpt lat="43.2416949" lon="10.768875"><ele>481.00000000000006</ele><time>2026-04-18T10:32:25.454Z</time></trkpt><trkpt lat="43.2415997" lon="10.7688777"><ele>481.0</ele><time>2026-04-18T10:32:26.463Z</time></trkpt><trkpt lat="43.2415074" lon="10.7688876"><ele>481.0</ele><time>2026-04-18T10:32:27.457Z</time></trkpt><trkpt lat="43.2414206" lon="10.768895"><ele>481.0</ele><time>2026-04-18T10:32:28.467Z</time></trkpt><trkpt lat="43.2413383" lon="10.7688705"><ele>481.00000000000006</ele><time>2026-04-18T10:32:29.455Z</time></trkpt><trkpt lat="43.2412568" lon="10.7688362"><ele>481.0</ele><time>2026-04-18T10:32:30.454Z</time></trkpt><trkpt lat="43.2411748" lon="10.7687968"><ele>479.20000000000005</ele><time>2026-04-18T10:32:31.462Z</time></trkpt><trkpt lat="43.2410903" lon="10.7687565"><ele>477.40000000000003</ele><time>2026-04-18T10:32:32.454Z</time></trkpt><trkpt lat="43.2410075" lon="10.7687146"><ele>475.6</ele><time>2026-04-18T10:32:33.465Z</time></trkpt><trkpt lat="43.2409266" lon="10.7686748"><ele>473.8</ele><time>2026-04-18T10:32:34.458Z</time></trkpt><trkpt lat="43.2408476" lon="10.7686305"><ele>472.0</ele><time>2026-04-18T10:32:35.459Z</time></trkpt><trkpt lat="43.2407464" lon="10.7685569"><ele>470.0</ele><time>2026-04-18T10:32:37.469Z</time></trkpt><trkpt lat="43.2406917" lon="10.768487"><ele>468.00000000000006</ele><time>2026-04-18T10:32:39.459Z</time></trkpt><trkpt lat="43.2406923" lon="10.7683361"><ele>466.00000000000006</ele><time>2026-04-18T10:32:41.462Z</time></trkpt><trkpt lat="43.2406995" lon="10.7681578"><ele>464.0</ele><time>2026-04-18T10:32:43.473Z</time></trkpt><trkpt lat="43.2406945" lon="10.7680533"><ele>462.0</ele><time>2026-04-18T10:32:44.459Z</time></trkpt><trkpt lat="43.2406888" lon="10.7679292"><ele>462.0</ele><time>2026-04-18T10:32:45.466Z</time></trkpt><trkpt lat="43.2406971" lon="10.7677999"><ele>462.00000000000006</ele><time>2026-04-18T10:32:46.458Z</time></trkpt><trkpt lat="43.2407159" lon="10.767662"><ele>462.00000000000006</ele><time>2026-04-18T10:32:47.456Z</time></trkpt><trkpt lat="43.2407362" lon="10.7675128"><ele>462.0</ele><time>2026-04-18T10:32:48.465Z</time></trkpt><trkpt lat="43.2407578" lon="10.7673711"><ele>462.0</ele><time>2026-04-18T10:32:49.457Z</time></trkpt><trkpt lat="43.240779" lon="10.7672279"><ele>461.8</ele><time>2026-04-18T10:32:50.458Z</time></trkpt><trkpt lat="43.240794" lon="10.7670836"><ele>461.6</ele><time>2026-04-18T10:32:51.46Z</time></trkpt><trkpt lat="43.2408102" lon="10.7669373"><ele>461.40000000000003</ele><time>2026-04-18T10:32:52.451Z</time></trkpt><trkpt lat="43.240825" lon="10.7667902"><ele>461.20000000000005</ele><time>2026-04-18T10:32:53.46Z</time></trkpt><trkpt lat="43.2408472" lon="10.7666667"><ele>461.0</ele><time>2026-04-18T10:32:54.458Z</time></trkpt><trkpt lat="43.24087" lon="10.7665391"><ele>460.99999999999994</ele><time>2026-04-18T10:32:55.459Z</time></trkpt><trkpt lat="43.2409018" lon="10.7664192"><ele>461.0</ele><time>2026-04-18T10:32:56.459Z</time></trkpt><trkpt lat="43.2409299" lon="10.7663188"><ele>461.0</ele><time>2026-04-18T10:32:57.463Z</time></trkpt><trkpt lat="43.2409546" lon="10.7662158"><ele>461.0</ele><time>2026-04-18T10:32:58.47Z</time></trkpt><trkpt lat="43.2409807" lon="10.7661121"><ele>460.99999999999994</ele><time>2026-04-18T10:32:59.463Z</time></trkpt><trkpt lat="43.2410007" lon="10.7660043"><ele>461.0</ele><time>2026-04-18T10:33:00.461Z</time></trkpt><trkpt lat="43.2410143" lon="10.7658982"><ele>460.49999999999994</ele><time>2026-04-18T10:33:01.461Z</time></trkpt><trkpt lat="43.2410217" lon="10.7658029"><ele>460.0</ele><time>2026-04-18T10:33:02.468Z</time></trkpt><trkpt lat="43.2410182" lon="10.7656892"><ele>459.5</ele><time>2026-04-18T10:33:03.459Z</time></trkpt><trkpt lat="43.2410015" lon="10.7655704"><ele>459.0</ele><time>2026-04-18T10:33:04.457Z</time></trkpt><trkpt lat="43.2409699" lon="10.7654421"><ele>458.49999999999994</ele><time>2026-04-18T10:33:05.469Z</time></trkpt><trkpt lat="43.2409325" lon="10.7653077"><ele>458.0</ele><time>2026-04-18T10:33:06.487Z</time></trkpt><trkpt lat="43.2409081" lon="10.7651829"><ele>457.99999999999994</ele><time>2026-04-18T10:33:07.463Z</time></trkpt><trkpt lat="43.2408999" lon="10.7650677"><ele>458.0</ele><time>2026-04-18T10:33:08.466Z</time></trkpt><trkpt lat="43.2409122" lon="10.764972"><ele>458.0</ele><time>2026-04-18T10:33:09.465Z</time></trkpt><trkpt lat="43.2409143" lon="10.7648704"><ele>458.0</ele><time>2026-04-18T10:33:10.46Z</time></trkpt><trkpt lat="43.2408953" lon="10.7647582"><ele>457.99999999999994</ele><time>2026-04-18T10:33:11.466Z</time></trkpt><trkpt lat="43.2408573" lon="10.7646389"><ele>458.0</ele><time>2026-04-18T10:33:12.464Z</time></trkpt><trkpt lat="43.2408067" lon="10.7645267"><ele>458.0</ele><time>2026-04-18T10:33:13.47Z</time></trkpt><trkpt lat="43.2407361" lon="10.7644156"><ele>457.99999999999994</ele><time>2026-04-18T10:33:14.464Z</time></trkpt><trkpt lat="43.2406522" lon="10.764307"><ele>457.99999999999994</ele><time>2026-04-18T10:33:15.451Z</time></trkpt><trkpt lat="43.2405982" lon="10.7641794"><ele>458.0</ele><time>2026-04-18T10:33:16.459Z</time></trkpt><trkpt lat="43.2405529" lon="10.7640713"><ele>458.0</ele><time>2026-04-18T10:33:17.453Z</time></trkpt><trkpt lat="43.2405005" lon="10.7639929"><ele>461.0</ele><time>2026-04-18T10:33:18.46Z</time></trkpt><trkpt lat="43.2404387" lon="10.7639481"><ele>463.99999999999994</ele><time>2026-04-18T10:33:19.457Z</time></trkpt><trkpt lat="43.240357" lon="10.7639131"><ele>466.99999999999994</ele><time>2026-04-18T10:33:20.456Z</time></trkpt><trkpt lat="43.2402793" lon="10.7638719"><ele>470.0</ele><time>2026-04-18T10:33:21.456Z</time></trkpt><trkpt lat="43.2401803" lon="10.7637898"><ele>473.0</ele><time>2026-04-18T10:33:23.466Z</time></trkpt><trkpt lat="43.2401151" lon="10.763669"><ele>473.0</ele><time>2026-04-18T10:33:25.46Z</time></trkpt><trkpt lat="43.2401426" lon="10.7635378"><ele>472.99999999999994</ele><time>2026-04-18T10:33:27.458Z</time></trkpt><trkpt lat="43.2402058" lon="10.7635135"><ele>472.99999999999994</ele><time>2026-04-18T10:33:28.482Z</time></trkpt><trkpt lat="43.2403175" lon="10.763463"><ele>473.0</ele><time>2026-04-18T10:33:30.447Z</time></trkpt><trkpt lat="43.2404179" lon="10.7633834"><ele>473.0</ele><time>2026-04-18T10:33:32.467Z</time></trkpt><trkpt lat="43.2405345" lon="10.7632692"><ele>472.3333333333333</ele><time>2026-04-18T10:33:34.467Z</time></trkpt><trkpt lat="43.2406124" lon="10.7632149"><ele>471.66666666666663</ele><time>2026-04-18T10:33:35.468Z</time></trkpt><trkpt lat="43.2406832" lon="10.7631805"><ele>471.0</ele><time>2026-04-18T10:33:36.463Z</time></trkpt><trkpt lat="43.2407433" lon="10.7631404"><ele>470.33333333333337</ele><time>2026-04-18T10:33:37.462Z</time></trkpt><trkpt lat="43.2408052" lon="10.7630684"><ele>469.6666666666667</ele><time>2026-04-18T10:33:38.46Z</time></trkpt><trkpt lat="43.2408663" lon="10.7629628"><ele>469.0</ele><time>2026-04-18T10:33:39.47Z</time></trkpt><trkpt lat="43.2409209" lon="10.7628643"><ele>468.33333333333337</ele><time>2026-04-18T10:33:40.455Z</time></trkpt><trkpt lat="43.2409744" lon="10.7627756"><ele>467.6666666666667</ele><time>2026-04-18T10:33:41.474Z</time></trkpt><trkpt lat="43.2410346" lon="10.762699"><ele>467.0</ele><time>2026-04-18T10:33:42.461Z</time></trkpt><trkpt lat="43.2410918" lon="10.7626294"><ele>466.33333333333337</ele><time>2026-04-18T10:33:43.474Z</time></trkpt><trkpt lat="43.2411497" lon="10.7624715"><ele>465.6666666666667</ele><time>2026-04-18T10:33:45.471Z</time></trkpt><trkpt lat="43.2411538" lon="10.7623736"><ele>465.0</ele><time>2026-04-18T10:33:46.464Z</time></trkpt><trkpt lat="43.2411396" lon="10.7622677"><ele>465.0</ele><time>2026-04-18T10:33:47.465Z</time></trkpt><trkpt lat="43.2411358" lon="10.7621589"><ele>465.0</ele><time>2026-04-18T10:33:48.459Z</time></trkpt><trkpt lat="43.2411486" lon="10.7620268"><ele>465.0</ele><time>2026-04-18T10:33:49.468Z</time></trkpt><trkpt lat="43.2411751" lon="10.761914"><ele>465.0</ele><time>2026-04-18T10:33:50.465Z</time></trkpt><trkpt lat="43.2412032" lon="10.7618229"><ele>465.0</ele><time>2026-04-18T10:33:51.469Z</time></trkpt><trkpt lat="43.2412477" lon="10.7617254"><ele>465.0</ele><time>2026-04-18T10:33:52.466Z</time></trkpt><trkpt lat="43.2412949" lon="10.761635"><ele>465.8333333333333</ele><time>2026-04-18T10:33:53.471Z</time></trkpt><trkpt lat="43.2413453" lon="10.7615581"><ele>466.66666666666663</ele><time>2026-04-18T10:33:54.469Z</time></trkpt><trkpt lat="43.2414039" lon="10.7615189"><ele>467.5</ele><time>2026-04-18T10:33:55.476Z</time></trkpt><trkpt lat="43.2414776" lon="10.7614625"><ele>468.3333333333333</ele><time>2026-04-18T10:33:57.459Z</time></trkpt><trkpt lat="43.2415112" lon="10.7613285"><ele>469.16666666666663</ele><time>2026-04-18T10:33:59.472Z</time></trkpt><trkpt lat="43.2414996" lon="10.7612416"><ele>470.0</ele><time>2026-04-18T10:34:00.467Z</time></trkpt><trkpt lat="43.2414222" lon="10.7611058"><ele>470.0</ele><time>2026-04-18T10:34:02.463Z</time></trkpt><trkpt lat="43.2413781" lon="10.7610384"><ele>469.99999999999994</ele><time>2026-04-18T10:34:03.454Z</time></trkpt><trkpt lat="43.2413463" lon="10.7609497"><ele>470.0</ele><time>2026-04-18T10:34:04.454Z</time></trkpt><trkpt lat="43.2413064" lon="10.760879"><ele>470.0</ele><time>2026-04-18T10:34:05.453Z</time></trkpt><trkpt lat="43.2412691" lon="10.7608068"><ele>469.99999999999994</ele><time>2026-04-18T10:34:06.455Z</time></trkpt><trkpt lat="43.2412337" lon="10.7607287"><ele>470.0</ele><time>2026-04-18T10:34:07.459Z</time></trkpt><trkpt lat="43.2412071" lon="10.7606407"><ele>470.0</ele><time>2026-04-18T10:34:08.462Z</time></trkpt><trkpt lat="43.2411886" lon="10.7605364"><ele>469.66666666666663</ele><time>2026-04-18T10:34:09.451Z</time></trkpt><trkpt lat="43.2411756" lon="10.7604381"><ele>469.3333333333333</ele><time>2026-04-18T10:34:10.457Z</time></trkpt><trkpt lat="43.2411707" lon="10.7603441"><ele>469.0</ele><time>2026-04-18T10:34:11.457Z</time></trkpt><trkpt lat="43.2411812" lon="10.7602311"><ele>468.66666666666663</ele><time>2026-04-18T10:34:12.468Z</time></trkpt><trkpt lat="43.2411884" lon="10.7601259"><ele>468.3333333333333</ele><time>2026-04-18T10:34:13.46Z</time></trkpt><trkpt lat="43.2411884" lon="10.7600151"><ele>468.0</ele><time>2026-04-18T10:34:14.454Z</time></trkpt><trkpt lat="43.2411924" lon="10.7599027"><ele>465.6666666666667</ele><time>2026-04-18T10:34:15.453Z</time></trkpt><trkpt lat="43.2412117" lon="10.7597961"><ele>463.33333333333337</ele><time>2026-04-18T10:34:16.475Z</time></trkpt><trkpt lat="43.2412349" lon="10.7596999"><ele>461.0</ele><time>2026-04-18T10:34:17.457Z</time></trkpt><trkpt lat="43.2412554" lon="10.7596018"><ele>458.6666666666667</ele><time>2026-04-18T10:34:18.443Z</time></trkpt><trkpt lat="43.2412679" lon="10.7594888"><ele>456.33333333333337</ele><time>2026-04-18T10:34:19.45Z</time></trkpt><trkpt lat="43.2412561" lon="10.7593826"><ele>454.0</ele><time>2026-04-18T10:34:20.448Z</time></trkpt><trkpt lat="43.2412326" lon="10.7592857"><ele>451.6</ele><time>2026-04-18T10:34:21.456Z</time></trkpt><trkpt lat="43.2412097" lon="10.759192"><ele>449.2</ele><time>2026-04-18T10:34:22.456Z</time></trkpt><trkpt lat="43.2411426" lon="10.759058"><ele>446.80000000000007</ele><time>2026-04-18T10:34:24.465Z</time></trkpt><trkpt lat="43.241173" lon="10.7589261"><ele>444.40000000000003</ele><time>2026-04-18T10:34:26.458Z</time></trkpt><trkpt lat="43.2412691" lon="10.7589307"><ele>442.0</ele><time>2026-04-18T10:34:28.47Z</time></trkpt><trkpt lat="43.2413112" lon="10.7590157"><ele>442.00000000000006</ele><time>2026-04-18T10:34:29.456Z</time></trkpt><trkpt lat="43.2413217" lon="10.7591045"><ele>442.0</ele><time>2026-04-18T10:34:30.463Z</time></trkpt><trkpt lat="43.2413442" lon="10.7592111"><ele>442.0</ele><time>2026-04-18T10:34:31.464Z</time></trkpt><trkpt lat="43.2413595" lon="10.7593122"><ele>442.0</ele><time>2026-04-18T10:34:32.457Z</time></trkpt><trkpt lat="43.2413885" lon="10.7594142"><ele>442.00000000000006</ele><time>2026-04-18T10:34:33.467Z</time></trkpt><trkpt lat="43.2414197" lon="10.759527"><ele>442.0</ele><time>2026-04-18T10:34:34.453Z</time></trkpt><trkpt lat="43.2414536" lon="10.7596408"><ele>441.1666666666667</ele><time>2026-04-18T10:34:35.464Z</time></trkpt><trkpt lat="43.2414854" lon="10.7597577"><ele>440.33333333333337</ele><time>2026-04-18T10:34:36.457Z</time></trkpt><trkpt lat="43.2415195" lon="10.7598741"><ele>439.5</ele><time>2026-04-18T10:34:37.45Z</time></trkpt><trkpt lat="43.2415574" lon="10.7599815"><ele>438.66666666666663</ele><time>2026-04-18T10:34:38.459Z</time></trkpt><trkpt lat="43.2415874" lon="10.7600792"><ele>437.8333333333333</ele><time>2026-04-18T10:34:39.455Z</time></trkpt><trkpt lat="43.2416216" lon="10.7601668"><ele>437.0</ele><time>2026-04-18T10:34:40.467Z</time></trkpt><trkpt lat="43.2416742" lon="10.7602187"><ele>436.99999999999994</ele><time>2026-04-18T10:34:41.468Z</time></trkpt><trkpt lat="43.2417774" lon="10.7602225"><ele>437.0</ele><time>2026-04-18T10:34:43.458Z</time></trkpt><trkpt lat="43.2418403" lon="10.7602083"><ele>437.0</ele><time>2026-04-18T10:34:44.452Z</time></trkpt><trkpt lat="43.2419181" lon="10.7601679"><ele>437.0</ele><time>2026-04-18T10:34:45.457Z</time></trkpt><trkpt lat="43.2419864" lon="10.7601147"><ele>436.99999999999994</ele><time>2026-04-18T10:34:46.449Z</time></trkpt><trkpt lat="43.2420646" lon="10.7600196"><ele>437.0</ele><time>2026-04-18T10:34:47.447Z</time></trkpt><trkpt lat="43.2421329" lon="10.759924"><ele>436.99999999999994</ele><time>2026-04-18T10:34:48.454Z</time></trkpt><trkpt lat="43.242206" lon="10.7598469"><ele>437.0</ele><time>2026-04-18T10:34:49.459Z</time></trkpt><trkpt lat="43.2422803" lon="10.7597805"><ele>437.0</ele><time>2026-04-18T10:34:50.456Z</time></trkpt><trkpt lat="43.2423555" lon="10.7597043"><ele>437.0</ele><time>2026-04-18T10:34:51.454Z</time></trkpt><trkpt lat="43.242419" lon="10.7596447"><ele>436.99999999999994</ele><time>2026-04-18T10:34:52.475Z</time></trkpt><trkpt lat="43.2424995" lon="10.759588"><ele>437.0</ele><time>2026-04-18T10:34:53.452Z</time></trkpt><trkpt lat="43.2425815" lon="10.7595501"><ele>437.6</ele><time>2026-04-18T10:34:54.467Z</time></trkpt><trkpt lat="43.2426628" lon="10.7595189"><ele>438.20000000000005</ele><time>2026-04-18T10:34:55.451Z</time></trkpt><trkpt lat="43.2427524" lon="10.7595297"><ele>438.8</ele><time>2026-04-18T10:34:56.46Z</time></trkpt><trkpt lat="43.2428443" lon="10.7595625"><ele>439.4</ele><time>2026-04-18T10:34:57.461Z</time></trkpt><trkpt lat="43.2429339" lon="10.7596228"><ele>440.0</ele><time>2026-04-18T10:34:58.457Z</time></trkpt><trkpt lat="43.2430069" lon="10.7596769"><ele>440.0</ele><time>2026-04-18T10:34:59.46Z</time></trkpt><trkpt lat="43.2430885" lon="10.7597545"><ele>440.0</ele><time>2026-04-18T10:35:00.454Z</time></trkpt><trkpt lat="43.2431781" lon="10.7598227"><ele>440.0</ele><time>2026-04-18T10:35:01.467Z</time></trkpt><trkpt lat="43.2432944" lon="10.7598685"><ele>440.0</ele><time>2026-04-18T10:35:02.46Z</time></trkpt><trkpt lat="43.2434217" lon="10.7598914"><ele>438.4</ele><time>2026-04-18T10:35:03.471Z</time></trkpt><trkpt lat="43.2435216" lon="10.7599327"><ele>436.8</ele><time>2026-04-18T10:35:04.463Z</time></trkpt><trkpt lat="43.2436199" lon="10.7599846"><ele>435.20000000000005</ele><time>2026-04-18T10:35:05.455Z</time></trkpt><trkpt lat="43.2437172" lon="10.7600457"><ele>433.6</ele><time>2026-04-18T10:35:06.465Z</time></trkpt><trkpt lat="43.2438086" lon="10.760121"><ele>432.0</ele><time>2026-04-18T10:35:07.452Z</time></trkpt><trkpt lat="43.2439008" lon="10.7602086"><ele>429.20000000000005</ele><time>2026-04-18T10:35:08.496Z</time></trkpt><trkpt lat="43.2439889" lon="10.7602761"><ele>426.40000000000003</ele><time>2026-04-18T10:35:09.457Z</time></trkpt><trkpt lat="43.2440763" lon="10.7603418"><ele>423.6</ele><time>2026-04-18T10:35:10.463Z</time></trkpt><trkpt lat="43.2441733" lon="10.7603843"><ele>420.79999999999995</ele><time>2026-04-18T10:35:11.46Z</time></trkpt><trkpt lat="43.2442707" lon="10.7604032"><ele>418.0</ele><time>2026-04-18T10:35:12.459Z</time></trkpt><trkpt lat="43.2443704" lon="10.7604"><ele>418.00000000000006</ele><time>2026-04-18T10:35:13.468Z</time></trkpt><trkpt lat="43.2444603" lon="10.7604005"><ele>418.0</ele><time>2026-04-18T10:35:14.456Z</time></trkpt><trkpt lat="43.2445618" lon="10.7603744"><ele>418.0</ele><time>2026-04-18T10:35:15.463Z</time></trkpt><trkpt lat="43.2446394" lon="10.7603513"><ele>418.0</ele><time>2026-04-18T10:35:16.457Z</time></trkpt><trkpt lat="43.2447062" lon="10.760326"><ele>418.00000000000006</ele><time>2026-04-18T10:35:17.461Z</time></trkpt><trkpt lat="43.2447692" lon="10.7602785"><ele>418.0</ele><time>2026-04-18T10:35:18.46Z</time></trkpt><trkpt lat="43.24482" lon="10.7602203"><ele>420.50000000000006</ele><time>2026-04-18T10:35:19.461Z</time></trkpt><trkpt lat="43.2448631" lon="10.7601508"><ele>423.0</ele><time>2026-04-18T10:35:20.461Z</time></trkpt><trkpt lat="43.2448898" lon="10.7600671"><ele>425.5</ele><time>2026-04-18T10:35:21.463Z</time></trkpt><trkpt lat="43.2449106" lon="10.7599556"><ele>428.0</ele><time>2026-04-18T10:35:22.496Z</time></trkpt><trkpt lat="43.244919" lon="10.7598243"><ele>430.50000000000006</ele><time>2026-04-18T10:35:23.457Z</time></trkpt><trkpt lat="43.2449301" lon="10.7596908"><ele>433.0</ele><time>2026-04-18T10:35:24.46Z</time></trkpt><trkpt lat="43.2449427" lon="10.7595618"><ele>433.00000000000006</ele><time>2026-04-18T10:35:25.466Z</time></trkpt><trkpt lat="43.2449621" lon="10.7594404"><ele>433.0</ele><time>2026-04-18T10:35:26.461Z</time></trkpt><trkpt lat="43.2449835" lon="10.7593247"><ele>433.0</ele><time>2026-04-18T10:35:27.454Z</time></trkpt><trkpt lat="43.2450197" lon="10.759214"><ele>433.0</ele><time>2026-04-18T10:35:28.458Z</time></trkpt><trkpt lat="43.2450591" lon="10.7591054"><ele>433.00000000000006</ele><time>2026-04-18T10:35:29.454Z</time></trkpt><trkpt lat="43.2451102" lon="10.7589989"><ele>433.0</ele><time>2026-04-18T10:35:30.464Z</time></trkpt><trkpt lat="43.2451715" lon="10.7588995"><ele>433.50000000000006</ele><time>2026-04-18T10:35:31.456Z</time></trkpt><trkpt lat="43.245239" lon="10.7588035"><ele>434.0</ele><time>2026-04-18T10:35:32.459Z</time></trkpt><trkpt lat="43.2453009" lon="10.7587112"><ele>434.5</ele><time>2026-04-18T10:35:33.458Z</time></trkpt><trkpt lat="43.2453708" lon="10.75863"><ele>435.0</ele><time>2026-04-18T10:35:34.455Z</time></trkpt><trkpt lat="43.24543" lon="10.7585621"><ele>435.50000000000006</ele><time>2026-04-18T10:35:35.463Z</time></trkpt><trkpt lat="43.2454804" lon="10.7584825"><ele>436.0</ele><time>2026-04-18T10:35:36.461Z</time></trkpt><trkpt lat="43.2455294" lon="10.7584003"><ele>435.00000000000006</ele><time>2026-04-18T10:35:37.466Z</time></trkpt><trkpt lat="43.2455553" lon="10.7582961"><ele>434.0</ele><time>2026-04-18T10:35:38.476Z</time></trkpt><trkpt lat="43.2455622" lon="10.7581838"><ele>433.0</ele><time>2026-04-18T10:35:39.458Z</time></trkpt><trkpt lat="43.2455714" lon="10.7580771"><ele>432.0</ele><time>2026-04-18T10:35:40.463Z</time></trkpt><trkpt lat="43.2455841" lon="10.7579835"><ele>431.00000000000006</ele><time>2026-04-18T10:35:41.467Z</time></trkpt><trkpt lat="43.2456092" lon="10.7578817"><ele>430.0</ele><time>2026-04-18T10:35:42.464Z</time></trkpt><trkpt lat="43.2456279" lon="10.7577818"><ele>435.0</ele><time>2026-04-18T10:35:43.454Z</time></trkpt><trkpt lat="43.2456577" lon="10.7576805"><ele>440.0</ele><time>2026-04-18T10:35:44.459Z</time></trkpt><trkpt lat="43.2456909" lon="10.75758"><ele>445.0</ele><time>2026-04-18T10:35:45.466Z</time></trkpt><trkpt lat="43.2457314" lon="10.75748"><ele>450.0</ele><time>2026-04-18T10:35:46.461Z</time></trkpt><trkpt lat="43.2457925" lon="10.7573592"><ele>455.0</ele><time>2026-04-18T10:35:47.461Z</time></trkpt><trkpt lat="43.2458585" lon="10.7572501"><ele>454.99999999999994</ele><time>2026-04-18T10:35:48.459Z</time></trkpt><trkpt lat="43.2459203" lon="10.7571645"><ele>455.0</ele><time>2026-04-18T10:35:49.456Z</time></trkpt><trkpt lat="43.2459848" lon="10.7570873"><ele>455.0</ele><time>2026-04-18T10:35:50.456Z</time></trkpt><trkpt lat="43.2460524" lon="10.7570171"><ele>455.0</ele><time>2026-04-18T10:35:51.458Z</time></trkpt><trkpt lat="43.2461159" lon="10.7569411"><ele>454.99999999999994</ele><time>2026-04-18T10:35:52.456Z</time></trkpt><trkpt lat="43.2461816" lon="10.7568911"><ele>455.0</ele><time>2026-04-18T10:35:53.464Z</time></trkpt><trkpt lat="43.2462477" lon="10.7568506"><ele>456.16666666666663</ele><time>2026-04-18T10:35:54.473Z</time></trkpt><trkpt lat="43.2463203" lon="10.7568292"><ele>457.3333333333333</ele><time>2026-04-18T10:35:55.456Z</time></trkpt><trkpt lat="43.2464064" lon="10.7568257"><ele>458.5</ele><time>2026-04-18T10:35:56.469Z</time></trkpt><trkpt lat="43.2464956" lon="10.756815"><ele>459.66666666666663</ele><time>2026-04-18T10:35:57.456Z</time></trkpt><trkpt lat="43.2465809" lon="10.7568011"><ele>460.8333333333333</ele><time>2026-04-18T10:35:58.467Z</time></trkpt><trkpt lat="43.246656" lon="10.7567801"><ele>462.0</ele><time>2026-04-18T10:35:59.454Z</time></trkpt><trkpt lat="43.2467388" lon="10.7567573"><ele>462.0</ele><time>2026-04-18T10:36:00.461Z</time></trkpt><trkpt lat="43.2468189" lon="10.7567273"><ele>462.0</ele><time>2026-04-18T10:36:01.445Z</time></trkpt><trkpt lat="43.2469003" lon="10.7567001"><ele>462.0</ele><time>2026-04-18T10:36:02.456Z</time></trkpt><trkpt lat="43.246985" lon="10.7566681"><ele>462.0</ele><time>2026-04-18T10:36:03.453Z</time></trkpt><trkpt lat="43.2470643" lon="10.7566384"><ele>462.0</ele><time>2026-04-18T10:36:04.449Z</time></trkpt><trkpt lat="43.2471317" lon="10.756602"><ele>462.0</ele><time>2026-04-18T10:36:05.451Z</time></trkpt><trkpt lat="43.2471864" lon="10.7565553"><ele>462.0</ele><time>2026-04-18T10:36:06.448Z</time></trkpt><trkpt lat="43.2472465" lon="10.7564896"><ele>462.0</ele><time>2026-04-18T10:36:07.455Z</time></trkpt><trkpt lat="43.2472577" lon="10.7564043"><ele>462.0</ele><time>2026-04-18T10:36:08.46Z</time></trkpt><trkpt lat="43.2472189" lon="10.7563329"><ele>462.0</ele><time>2026-04-18T10:36:09.459Z</time></trkpt><trkpt lat="43.2471354" lon="10.7561913"><ele>462.0</ele><time>2026-04-18T10:36:11.46Z</time></trkpt><trkpt lat="43.2470955" lon="10.7561138"><ele>462.0</ele><time>2026-04-18T10:36:12.458Z</time></trkpt><trkpt lat="43.2470925" lon="10.756022"><ele>461.0</ele><time>2026-04-18T10:36:13.457Z</time></trkpt><trkpt lat="43.2471043" lon="10.7558677"><ele>460.0</ele><time>2026-04-18T10:36:15.468Z</time></trkpt><trkpt lat="43.2471502" lon="10.7558018"><ele>459.0</ele><time>2026-04-18T10:36:16.464Z</time></trkpt><trkpt lat="43.2472117" lon="10.7557215"><ele>458.0</ele><time>2026-04-18T10:36:17.468Z</time></trkpt><trkpt lat="43.2472526" lon="10.7556544"><ele>457.0</ele><time>2026-04-18T10:36:18.457Z</time></trkpt><trkpt lat="43.2473203" lon="10.7555841"><ele>456.0</ele><time>2026-04-18T10:36:19.455Z</time></trkpt><trkpt lat="43.2474033" lon="10.7555007"><ele>458.20000000000005</ele><time>2026-04-18T10:36:20.463Z</time></trkpt><trkpt lat="43.2474834" lon="10.7554226"><ele>460.40000000000003</ele><time>2026-04-18T10:36:21.475Z</time></trkpt><trkpt lat="43.2475688" lon="10.7553504"><ele>462.6</ele><time>2026-04-18T10:36:22.459Z</time></trkpt><trkpt lat="43.2476482" lon="10.7552745"><ele>464.8</ele><time>2026-04-18T10:36:23.47Z</time></trkpt><trkpt lat="43.2477198" lon="10.7552125"><ele>467.0</ele><time>2026-04-18T10:36:24.469Z</time></trkpt><trkpt lat="43.2477896" lon="10.7551285"><ele>467.0</ele><time>2026-04-18T10:36:25.459Z</time></trkpt><trkpt lat="43.2478437" lon="10.7550298"><ele>467.00000000000006</ele><time>2026-04-18T10:36:26.467Z</time></trkpt><trkpt lat="43.2478909" lon="10.7549283"><ele>467.00000000000006</ele><time>2026-04-18T10:36:27.48Z</time></trkpt><trkpt lat="43.2479424" lon="10.7548339"><ele>467.0</ele><time>2026-04-18T10:36:28.46Z</time></trkpt><trkpt lat="43.2479949" lon="10.7547275"><ele>467.0</ele><time>2026-04-18T10:36:29.494Z</time></trkpt><trkpt lat="43.2480547" lon="10.7546209"><ele>467.0</ele><time>2026-04-18T10:36:30.461Z</time></trkpt><trkpt lat="43.2481058" lon="10.7545227"><ele>467.00000000000006</ele><time>2026-04-18T10:36:31.484Z</time></trkpt><trkpt lat="43.2481487" lon="10.7544054"><ele>467.00000000000006</ele><time>2026-04-18T10:36:32.464Z</time></trkpt><trkpt lat="43.2481824" lon="10.7542901"><ele>467.0</ele><time>2026-04-18T10:36:33.464Z</time></trkpt><trkpt lat="43.2482121" lon="10.7541635"><ele>467.0</ele><time>2026-04-18T10:36:34.47Z</time></trkpt><trkpt lat="43.2482447" lon="10.754032"><ele>467.6</ele><time>2026-04-18T10:36:35.464Z</time></trkpt><trkpt lat="43.2482738" lon="10.7538969"><ele>468.20000000000005</ele><time>2026-04-18T10:36:36.455Z</time></trkpt><trkpt lat="43.2482985" lon="10.7537626"><ele>468.8</ele><time>2026-04-18T10:36:37.463Z</time></trkpt><trkpt lat="43.2483247" lon="10.7536227"><ele>469.4</ele><time>2026-04-18T10:36:38.466Z</time></trkpt><trkpt lat="43.2483547" lon="10.7534902"><ele>470.0</ele><time>2026-04-18T10:36:39.457Z</time></trkpt><trkpt lat="43.2483864" lon="10.7533618"><ele>471.8333333333333</ele><time>2026-04-18T10:36:40.463Z</time></trkpt><trkpt lat="43.2484113" lon="10.7532439"><ele>473.66666666666663</ele><time>2026-04-18T10:36:41.468Z</time></trkpt><trkpt lat="43.2484338" lon="10.7531329"><ele>475.5</ele><time>2026-04-18T10:36:42.466Z</time></trkpt><trkpt lat="43.2484569" lon="10.7530305"><ele>477.33333333333337</ele><time>2026-04-18T10:36:43.464Z</time></trkpt><trkpt lat="43.2484771" lon="10.7529226"><ele>479.1666666666667</ele><time>2026-04-18T10:36:44.455Z</time></trkpt><trkpt lat="43.2484765" lon="10.7528079"><ele>481.0</ele><time>2026-04-18T10:36:45.465Z</time></trkpt><trkpt lat="43.2484575" lon="10.7526792"><ele>482.33333333333337</ele><time>2026-04-18T10:36:46.463Z</time></trkpt><trkpt lat="43.2484412" lon="10.7525543"><ele>483.6666666666667</ele><time>2026-04-18T10:36:47.459Z</time></trkpt><trkpt lat="43.2484316" lon="10.7524237"><ele>485.0</ele><time>2026-04-18T10:36:48.459Z</time></trkpt><trkpt lat="43.2484191" lon="10.7522955"><ele>486.33333333333337</ele><time>2026-04-18T10:36:49.461Z</time></trkpt><trkpt lat="43.2484251" lon="10.7521743"><ele>487.6666666666667</ele><time>2026-04-18T10:36:50.449Z</time></trkpt><trkpt lat="43.2484417" lon="10.7520687"><ele>489.0</ele><time>2026-04-18T10:36:51.457Z</time></trkpt><trkpt lat="43.2484394" lon="10.7519523"><ele>488.2</ele><time>2026-04-18T10:36:52.469Z</time></trkpt><trkpt lat="43.2484387" lon="10.7518313"><ele>487.4</ele><time>2026-04-18T10:36:53.457Z</time></trkpt><trkpt lat="43.2484319" lon="10.7517161"><ele>486.6</ele><time>2026-04-18T10:36:54.47Z</time></trkpt><trkpt lat="43.2484263" lon="10.7515876"><ele>485.8</ele><time>2026-04-18T10:36:55.455Z</time></trkpt><trkpt lat="43.2484409" lon="10.7514481"><ele>485.0</ele><time>2026-04-18T10:36:56.46Z</time></trkpt><trkpt lat="43.2484709" lon="10.7513118"><ele>485.0</ele><time>2026-04-18T10:36:57.455Z</time></trkpt><trkpt lat="43.2485" lon="10.7511525"><ele>485.0</ele><time>2026-04-18T10:36:58.455Z</time></trkpt><trkpt lat="43.2485191" lon="10.7509873"><ele>485.0</ele><time>2026-04-18T10:36:59.465Z</time></trkpt><trkpt lat="43.248545" lon="10.7508224"><ele>485.0</ele><time>2026-04-18T10:37:00.457Z</time></trkpt><trkpt lat="43.2485599" lon="10.7506663"><ele>485.0</ele><time>2026-04-18T10:37:01.462Z</time></trkpt><trkpt lat="43.2485789" lon="10.7504965"><ele>485.0</ele><time>2026-04-18T10:37:02.459Z</time></trkpt><trkpt lat="43.2485961" lon="10.7503261"><ele>485.0</ele><time>2026-04-18T10:37:03.452Z</time></trkpt><trkpt lat="43.2486012" lon="10.7501554"><ele>485.0</ele><time>2026-04-18T10:37:04.461Z</time></trkpt><trkpt lat="43.2485955" lon="10.7500018"><ele>485.0</ele><time>2026-04-18T10:37:05.475Z</time></trkpt><trkpt lat="43.2486026" lon="10.7498554"><ele>485.0</ele><time>2026-04-18T10:37:06.461Z</time></trkpt><trkpt lat="43.2486024" lon="10.7497249"><ele>485.0</ele><time>2026-04-18T10:37:07.468Z</time></trkpt><trkpt lat="43.2486073" lon="10.7495928"><ele>485.0</ele><time>2026-04-18T10:37:08.475Z</time></trkpt><trkpt lat="43.2485915" lon="10.7494508"><ele>485.0</ele><time>2026-04-18T10:37:09.46Z</time></trkpt><trkpt lat="43.2485742" lon="10.7493125"><ele>485.2</ele><time>2026-04-18T10:37:10.455Z</time></trkpt><trkpt lat="43.2485468" lon="10.7491712"><ele>485.4</ele><time>2026-04-18T10:37:11.46Z</time></trkpt><trkpt lat="43.2485283" lon="10.7490291"><ele>485.6</ele><time>2026-04-18T10:37:12.46Z</time></trkpt><trkpt lat="43.2485129" lon="10.7489009"><ele>485.8</ele><time>2026-04-18T10:37:13.462Z</time></trkpt><trkpt lat="43.2484984" lon="10.7487701"><ele>486.0</ele><time>2026-04-18T10:37:14.457Z</time></trkpt><trkpt lat="43.2484704" lon="10.7486468"><ele>486.6666666666667</ele><time>2026-04-18T10:37:15.457Z</time></trkpt><trkpt lat="43.2484307" lon="10.7485303"><ele>487.33333333333337</ele><time>2026-04-18T10:37:16.464Z</time></trkpt><trkpt lat="43.2484024" lon="10.7484175"><ele>488.0</ele><time>2026-04-18T10:37:17.477Z</time></trkpt><trkpt lat="43.2483897" lon="10.7483233"><ele>488.6666666666667</ele><time>2026-04-18T10:37:18.477Z</time></trkpt><trkpt lat="43.2484034" lon="10.7482361"><ele>489.33333333333337</ele><time>2026-04-18T10:37:19.47Z</time></trkpt><trkpt lat="43.248461" lon="10.7481855"><ele>490.0</ele><time>2026-04-18T10:37:20.48Z</time></trkpt><trkpt lat="43.2485811" lon="10.7482112"><ele>490.00000000000006</ele><time>2026-04-18T10:37:22.459Z</time></trkpt><trkpt lat="43.2486483" lon="10.748251"><ele>490.0</ele><time>2026-04-18T10:37:23.464Z</time></trkpt><trkpt lat="43.2487266" lon="10.7482964"><ele>490.0</ele><time>2026-04-18T10:37:24.468Z</time></trkpt><trkpt lat="43.2488081" lon="10.7483587"><ele>490.0</ele><time>2026-04-18T10:37:25.472Z</time></trkpt><trkpt lat="43.2488855" lon="10.748421"><ele>490.00000000000006</ele><time>2026-04-18T10:37:26.468Z</time></trkpt><trkpt lat="43.2489708" lon="10.7484832"><ele>490.0</ele><time>2026-04-18T10:37:27.473Z</time></trkpt><trkpt lat="43.2490506" lon="10.7485447"><ele>490.83333333333337</ele><time>2026-04-18T10:37:28.458Z</time></trkpt><trkpt lat="43.2491326" lon="10.7486069"><ele>491.6666666666667</ele><time>2026-04-18T10:37:29.472Z</time></trkpt><trkpt lat="43.2492147" lon="10.7486644"><ele>492.5</ele><time>2026-04-18T10:37:30.476Z</time></trkpt><trkpt lat="43.2492977" lon="10.7487111"><ele>493.33333333333337</ele><time>2026-04-18T10:37:31.46Z</time></trkpt><trkpt lat="43.2493755" lon="10.7487483"><ele>494.1666666666667</ele><time>2026-04-18T10:37:32.471Z</time></trkpt><trkpt lat="43.2494539" lon="10.7487785"><ele>495.0</ele><time>2026-04-18T10:37:33.465Z</time></trkpt><trkpt lat="43.2495281" lon="10.7487956"><ele>495.0</ele><time>2026-04-18T10:37:34.454Z</time></trkpt><trkpt lat="43.2496138" lon="10.7488005"><ele>495.0</ele><time>2026-04-18T10:37:35.465Z</time></trkpt><trkpt lat="43.249706" lon="10.7487828"><ele>495.0</ele><time>2026-04-18T10:37:36.459Z</time></trkpt><trkpt lat="43.2497951" lon="10.7487541"><ele>495.0</ele><time>2026-04-18T10:37:37.494Z</time></trkpt><trkpt lat="43.249884" lon="10.7487247"><ele>495.0</ele><time>2026-04-18T10:37:38.461Z</time></trkpt><trkpt lat="43.2499759" lon="10.7487017"><ele>494.4</ele><time>2026-04-18T10:37:39.461Z</time></trkpt><trkpt lat="43.2500677" lon="10.7486652"><ele>493.8</ele><time>2026-04-18T10:37:40.462Z</time></trkpt><trkpt lat="43.2501458" lon="10.7486038"><ele>493.20000000000005</ele><time>2026-04-18T10:37:41.454Z</time></trkpt><trkpt lat="43.2502208" lon="10.7485204"><ele>492.6</ele><time>2026-04-18T10:37:42.458Z</time></trkpt><trkpt lat="43.2503059" lon="10.7484352"><ele>492.0</ele><time>2026-04-18T10:37:43.465Z</time></trkpt><trkpt lat="43.2504115" lon="10.7483729"><ele>492.0</ele><time>2026-04-18T10:37:44.461Z</time></trkpt><trkpt lat="43.2505101" lon="10.7483225"><ele>492.00000000000006</ele><time>2026-04-18T10:37:45.459Z</time></trkpt><trkpt lat="43.2505958" lon="10.7482558"><ele>492.00000000000006</ele><time>2026-04-18T10:37:46.466Z</time></trkpt><trkpt lat="43.25067" lon="10.7481543"><ele>492.0</ele><time>2026-04-18T10:37:47.475Z</time></trkpt><trkpt lat="43.2507168" lon="10.7480307"><ele>492.0</ele><time>2026-04-18T10:37:48.456Z</time></trkpt><trkpt lat="43.2507367" lon="10.747898"><ele>492.0</ele><time>2026-04-18T10:37:49.483Z</time></trkpt><trkpt lat="43.2507611" lon="10.7477692"><ele>492.00000000000006</ele><time>2026-04-18T10:37:50.464Z</time></trkpt><trkpt lat="43.2507939" lon="10.7476518"><ele>492.00000000000006</ele><time>2026-04-18T10:37:51.456Z</time></trkpt><trkpt lat="43.2508325" lon="10.7475295"><ele>492.0</ele><time>2026-04-18T10:37:52.459Z</time></trkpt><trkpt lat="43.2508823" lon="10.7474134"><ele>492.0</ele><time>2026-04-18T10:37:53.458Z</time></trkpt><trkpt lat="43.2509638" lon="10.7472902"><ele>492.0</ele><time>2026-04-18T10:37:54.469Z</time></trkpt><trkpt lat="43.2510411" lon="10.747171"><ele>492.00000000000006</ele><time>2026-04-18T10:37:55.46Z</time></trkpt><trkpt lat="43.2511027" lon="10.7470572"><ele>492.00000000000006</ele><time>2026-04-18T10:37:56.456Z</time></trkpt><trkpt lat="43.2511693" lon="10.7469447"><ele>492.0</ele><time>2026-04-18T10:37:57.455Z</time></trkpt><trkpt lat="43.2512462" lon="10.7468364"><ele>492.0</ele><time>2026-04-18T10:37:58.464Z</time></trkpt><trkpt lat="43.2513091" lon="10.7467159"><ele>492.3333333333333</ele><time>2026-04-18T10:37:59.469Z</time></trkpt><trkpt lat="43.2513599" lon="10.7466027"><ele>492.66666666666663</ele><time>2026-04-18T10:38:00.449Z</time></trkpt><trkpt lat="43.251389" lon="10.7464965"><ele>493.0</ele><time>2026-04-18T10:38:01.453Z</time></trkpt><trkpt lat="43.2514316" lon="10.7464102"><ele>493.3333333333333</ele><time>2026-04-18T10:38:02.459Z</time></trkpt><trkpt lat="43.2514976" lon="10.7463417"><ele>493.66666666666663</ele><time>2026-04-18T10:38:03.474Z</time></trkpt><trkpt lat="43.2515652" lon="10.7463191"><ele>494.0</ele><time>2026-04-18T10:38:04.464Z</time></trkpt><trkpt lat="43.251629" lon="10.7463375"><ele>494.0</ele><time>2026-04-18T10:38:05.454Z</time></trkpt><trkpt lat="43.2517013" lon="10.7463945"><ele>494.0</ele><time>2026-04-18T10:38:06.466Z</time></trkpt><trkpt lat="43.2517798" lon="10.7464819"><ele>494.0</ele><time>2026-04-18T10:38:07.461Z</time></trkpt><trkpt lat="43.251845" lon="10.7465816"><ele>494.0</ele><time>2026-04-18T10:38:08.456Z</time></trkpt><trkpt lat="43.2519078" lon="10.7466844"><ele>494.0</ele><time>2026-04-18T10:38:09.464Z</time></trkpt><trkpt lat="43.2519636" lon="10.7467973"><ele>494.79999999999995</ele><time>2026-04-18T10:38:10.462Z</time></trkpt><trkpt lat="43.2520228" lon="10.7468988"><ele>495.59999999999997</ele><time>2026-04-18T10:38:11.467Z</time></trkpt><trkpt lat="43.2520867" lon="10.7469856"><ele>496.4</ele><time>2026-04-18T10:38:12.467Z</time></trkpt><trkpt lat="43.2521667" lon="10.7470616"><ele>497.2</ele><time>2026-04-18T10:38:13.461Z</time></trkpt><trkpt lat="43.2522589" lon="10.747124"><ele>498.0</ele><time>2026-04-18T10:38:14.456Z</time></trkpt><trkpt lat="43.2523496" lon="10.7471712"><ele>498.0</ele><time>2026-04-18T10:38:15.471Z</time></trkpt><trkpt lat="43.2524447" lon="10.747194"><ele>498.0</ele><time>2026-04-18T10:38:16.463Z</time></trkpt><trkpt lat="43.252528" lon="10.7472052"><ele>498.0</ele><time>2026-04-18T10:38:17.453Z</time></trkpt><trkpt lat="43.2526045" lon="10.7471894"><ele>498.0</ele><time>2026-04-18T10:38:18.45Z</time></trkpt><trkpt lat="43.2526841" lon="10.7471649"><ele>498.0</ele><time>2026-04-18T10:38:19.461Z</time></trkpt><trkpt lat="43.2527607" lon="10.7471475"><ele>498.0</ele><time>2026-04-18T10:38:20.458Z</time></trkpt><trkpt lat="43.252824" lon="10.7471311"><ele>498.0</ele><time>2026-04-18T10:38:21.471Z</time></trkpt><trkpt lat="43.2529109" lon="10.7472227"><ele>497.99999999999994</ele><time>2026-04-18T10:38:23.456Z</time></trkpt><trkpt lat="43.2529497" lon="10.7473034"><ele>497.99999999999994</ele><time>2026-04-18T10:38:24.476Z</time></trkpt><trkpt lat="43.2529965" lon="10.7474069"><ele>498.0</ele><time>2026-04-18T10:38:25.465Z</time></trkpt><trkpt lat="43.2530351" lon="10.7475159"><ele>498.0</ele><time>2026-04-18T10:38:26.455Z</time></trkpt><trkpt lat="43.2530742" lon="10.7476518"><ele>498.5</ele><time>2026-04-18T10:38:27.462Z</time></trkpt><trkpt lat="43.2531113" lon="10.7477784"><ele>499.0</ele><time>2026-04-18T10:38:28.466Z</time></trkpt><trkpt lat="43.2531468" lon="10.747905"><ele>499.5</ele><time>2026-04-18T10:38:29.47Z</time></trkpt><trkpt lat="43.2531978" lon="10.7479847"><ele>500.0</ele><time>2026-04-18T10:38:30.461Z</time></trkpt><trkpt lat="43.2532607" lon="10.7480582"><ele>500.5</ele><time>2026-04-18T10:38:31.447Z</time></trkpt><trkpt lat="43.2533322" lon="10.748129"><ele>501.0</ele><time>2026-04-18T10:38:32.46Z</time></trkpt><trkpt lat="43.2534251" lon="10.7481915"><ele>498.8333333333333</ele><time>2026-04-18T10:38:33.45Z</time></trkpt><trkpt lat="43.2535194" lon="10.7482443"><ele>496.66666666666663</ele><time>2026-04-18T10:38:34.449Z</time></trkpt><trkpt lat="43.2535861" lon="10.7483144"><ele>494.5</ele><time>2026-04-18T10:38:35.463Z</time></trkpt><trkpt lat="43.2536433" lon="10.7483824"><ele>492.3333333333333</ele><time>2026-04-18T10:38:36.463Z</time></trkpt><trkpt lat="43.2536853" lon="10.7484626"><ele>490.16666666666663</ele><time>2026-04-18T10:38:37.458Z</time></trkpt><trkpt lat="43.2537228" lon="10.7485649"><ele>488.0</ele><time>2026-04-18T10:38:38.452Z</time></trkpt><trkpt lat="43.2537264" lon="10.7486945"><ele>488.0</ele><time>2026-04-18T10:38:39.46Z</time></trkpt><trkpt lat="43.2537273" lon="10.7488158"><ele>487.99999999999994</ele><time>2026-04-18T10:38:40.459Z</time></trkpt><trkpt lat="43.2537361" lon="10.7489437"><ele>487.99999999999994</ele><time>2026-04-18T10:38:41.477Z</time></trkpt><trkpt lat="43.2537499" lon="10.7490643"><ele>488.0</ele><time>2026-04-18T10:38:42.465Z</time></trkpt><trkpt lat="43.25379" lon="10.7491872"><ele>488.0</ele><time>2026-04-18T10:38:43.457Z</time></trkpt><trkpt lat="43.2538416" lon="10.7493033"><ele>487.59999999999997</ele><time>2026-04-18T10:38:44.453Z</time></trkpt><trkpt lat="43.2539089" lon="10.74941"><ele>487.19999999999993</ele><time>2026-04-18T10:38:45.46Z</time></trkpt><trkpt lat="43.2539948" lon="10.749482"><ele>486.8</ele><time>2026-04-18T10:38:46.465Z</time></trkpt><trkpt lat="43.2540823" lon="10.7495563"><ele>486.4</ele><time>2026-04-18T10:38:47.466Z</time></trkpt><trkpt lat="43.2541612" lon="10.7496182"><ele>486.0</ele><time>2026-04-18T10:38:48.463Z</time></trkpt><trkpt lat="43.2542271" lon="10.7497038"><ele>486.0</ele><time>2026-04-18T10:38:49.452Z</time></trkpt><trkpt lat="43.2542926" lon="10.7497822"><ele>486.0</ele><time>2026-04-18T10:38:50.456Z</time></trkpt><trkpt lat="43.25436" lon="10.7498564"><ele>486.0</ele><time>2026-04-18T10:38:51.464Z</time></trkpt><trkpt lat="43.2544219" lon="10.7499055"><ele>486.0</ele><time>2026-04-18T10:38:52.49Z</time></trkpt><trkpt lat="43.2545445" lon="10.7499484"><ele>486.0</ele><time>2026-04-18T10:38:54.456Z</time></trkpt><trkpt lat="43.2546248" lon="10.7499624"><ele>486.0</ele><time>2026-04-18T10:38:55.458Z</time></trkpt><trkpt lat="43.2547113" lon="10.7499628"><ele>486.0</ele><time>2026-04-18T10:38:56.452Z</time></trkpt><trkpt lat="43.2548098" lon="10.7499626"><ele>486.0</ele><time>2026-04-18T10:38:57.473Z</time></trkpt><trkpt lat="43.2549093" lon="10.7499712"><ele>486.0</ele><time>2026-04-18T10:38:58.467Z</time></trkpt><trkpt lat="43.2550098" lon="10.7499754"><ele>486.0</ele><time>2026-04-18T10:38:59.453Z</time></trkpt><trkpt lat="43.2551035" lon="10.7499453"><ele>483.8</ele><time>2026-04-18T10:39:00.459Z</time></trkpt><trkpt lat="43.2552102" lon="10.7499025"><ele>481.6</ele><time>2026-04-18T10:39:01.461Z</time></trkpt><trkpt lat="43.2553097" lon="10.7498679"><ele>479.4</ele><time>2026-04-18T10:39:02.453Z</time></trkpt><trkpt lat="43.2553996" lon="10.7498346"><ele>477.2</ele><time>2026-04-18T10:39:03.469Z</time></trkpt><trkpt lat="43.2554882" lon="10.7498342"><ele>475.0</ele><time>2026-04-18T10:39:04.458Z</time></trkpt><trkpt lat="43.2555644" lon="10.7498852"><ele>474.2</ele><time>2026-04-18T10:39:05.463Z</time></trkpt><trkpt lat="43.255641" lon="10.7499578"><ele>473.4</ele><time>2026-04-18T10:39:06.465Z</time></trkpt><trkpt lat="43.255711" lon="10.7500527"><ele>472.6</ele><time>2026-04-18T10:39:07.475Z</time></trkpt><trkpt lat="43.2557739" lon="10.7501408"><ele>471.8</ele><time>2026-04-18T10:39:08.449Z</time></trkpt><trkpt lat="43.2558339" lon="10.7502328"><ele>471.0</ele><time>2026-04-18T10:39:09.46Z</time></trkpt><trkpt lat="43.2559106" lon="10.7503126"><ele>471.0</ele><time>2026-04-18T10:39:10.459Z</time></trkpt><trkpt lat="43.2559999" lon="10.7503711"><ele>471.0</ele><time>2026-04-18T10:39:11.458Z</time></trkpt><trkpt lat="43.256087" lon="10.7503915"><ele>471.0</ele><time>2026-04-18T10:39:12.471Z</time></trkpt><trkpt lat="43.2561826" lon="10.7504139"><ele>471.0</ele><time>2026-04-18T10:39:13.46Z</time></trkpt><trkpt lat="43.256261" lon="10.7504465"><ele>471.0</ele><time>2026-04-18T10:39:14.493Z</time></trkpt><trkpt lat="43.2563328" lon="10.7505208"><ele>471.0</ele><time>2026-04-18T10:39:15.467Z</time></trkpt><trkpt lat="43.2564064" lon="10.7505958"><ele>471.0</ele><time>2026-04-18T10:39:16.455Z</time></trkpt><trkpt lat="43.2564515" lon="10.7507248"><ele>471.0</ele><time>2026-04-18T10:39:17.472Z</time></trkpt><trkpt lat="43.2564924" lon="10.7508554"><ele>471.0</ele><time>2026-04-18T10:39:18.452Z</time></trkpt><trkpt lat="43.2565138" lon="10.750959"><ele>471.0</ele><time>2026-04-18T10:39:19.469Z</time></trkpt><trkpt lat="43.256569" lon="10.7510732"><ele>469.4</ele><time>2026-04-18T10:39:20.46Z</time></trkpt><trkpt lat="43.2566194" lon="10.7511903"><ele>467.8</ele><time>2026-04-18T10:39:21.47Z</time></trkpt><trkpt lat="43.2566847" lon="10.7512939"><ele>466.19999999999993</ele><time>2026-04-18T10:39:22.474Z</time></trkpt><trkpt lat="43.256743" lon="10.7514055"><ele>464.59999999999997</ele><time>2026-04-18T10:39:23.469Z</time></trkpt><trkpt lat="43.2567964" lon="10.751506"><ele>463.0</ele><time>2026-04-18T10:39:24.471Z</time></trkpt><trkpt lat="43.2568534" lon="10.7516098"><ele>463.0</ele><time>2026-04-18T10:39:25.47Z</time></trkpt><trkpt lat="43.2569295" lon="10.7516879"><ele>462.99999999999994</ele><time>2026-04-18T10:39:26.46Z</time></trkpt><trkpt lat="43.2569979" lon="10.7517718"><ele>462.99999999999994</ele><time>2026-04-18T10:39:27.459Z</time></trkpt><trkpt lat="43.2570727" lon="10.7518609"><ele>463.0</ele><time>2026-04-18T10:39:28.462Z</time></trkpt><trkpt lat="43.2571507" lon="10.7519404"><ele>463.0</ele><time>2026-04-18T10:39:29.452Z</time></trkpt><trkpt lat="43.2572513" lon="10.7519991"><ele>462.59999999999997</ele><time>2026-04-18T10:39:30.462Z</time></trkpt><trkpt lat="43.2573495" lon="10.7520683"><ele>462.19999999999993</ele><time>2026-04-18T10:39:31.462Z</time></trkpt><trkpt lat="43.2574399" lon="10.7521364"><ele>461.8</ele><time>2026-04-18T10:39:32.467Z</time></trkpt><trkpt lat="43.2575266" lon="10.7522066"><ele>461.4</ele><time>2026-04-18T10:39:33.463Z</time></trkpt><trkpt lat="43.2576081" lon="10.7522872"><ele>461.0</ele><time>2026-04-18T10:39:34.459Z</time></trkpt><trkpt lat="43.2576858" lon="10.7523346"><ele>460.99999999999994</ele><time>2026-04-18T10:39:35.455Z</time></trkpt><trkpt lat="43.2577617" lon="10.7523641"><ele>461.0</ele><time>2026-04-18T10:39:36.448Z</time></trkpt><trkpt lat="43.2578385" lon="10.7523621"><ele>461.0</ele><time>2026-04-18T10:39:37.475Z</time></trkpt><trkpt lat="43.2579178" lon="10.7523557"><ele>461.0</ele><time>2026-04-18T10:39:38.466Z</time></trkpt><trkpt lat="43.2580175" lon="10.752348"><ele>460.99999999999994</ele><time>2026-04-18T10:39:39.465Z</time></trkpt><trkpt lat="43.2581062" lon="10.7523333"><ele>461.0</ele><time>2026-04-18T10:39:40.455Z</time></trkpt><trkpt lat="43.2581978" lon="10.7523138"><ele>462.0</ele><time>2026-04-18T10:39:41.456Z</time></trkpt><trkpt lat="43.2582919" lon="10.7523071"><ele>463.0</ele><time>2026-04-18T10:39:42.47Z</time></trkpt><trkpt lat="43.2583881" lon="10.7522709"><ele>464.0</ele><time>2026-04-18T10:39:43.464Z</time></trkpt><trkpt lat="43.2584978" lon="10.7522148"><ele>465.0</ele><time>2026-04-18T10:39:44.461Z</time></trkpt><trkpt lat="43.2586024" lon="10.7521531"><ele>466.0</ele><time>2026-04-18T10:39:45.454Z</time></trkpt><trkpt lat="43.2587016" lon="10.7520874"><ele>466.0</ele><time>2026-04-18T10:39:46.458Z</time></trkpt><trkpt lat="43.2587941" lon="10.7520175"><ele>466.0</ele><time>2026-04-18T10:39:47.46Z</time></trkpt><trkpt lat="43.2588804" lon="10.7519498"><ele>466.0</ele><time>2026-04-18T10:39:48.467Z</time></trkpt><trkpt lat="43.2589651" lon="10.7519308"><ele>466.0</ele><time>2026-04-18T10:39:49.464Z</time></trkpt><trkpt lat="43.2590433" lon="10.7519504"><ele>466.0</ele><time>2026-04-18T10:39:50.458Z</time></trkpt><trkpt lat="43.2591369" lon="10.7519717"><ele>465.8</ele><time>2026-04-18T10:39:51.452Z</time></trkpt><trkpt lat="43.259252" lon="10.75199"><ele>465.6</ele><time>2026-04-18T10:39:52.462Z</time></trkpt><trkpt lat="43.2593469" lon="10.7520103"><ele>465.4</ele><time>2026-04-18T10:39:53.464Z</time></trkpt><trkpt lat="43.2594398" lon="10.7520383"><ele>465.2</ele><time>2026-04-18T10:39:54.451Z</time></trkpt><trkpt lat="43.2595186" lon="10.7520683"><ele>465.0</ele><time>2026-04-18T10:39:55.467Z</time></trkpt><trkpt lat="43.2595894" lon="10.7521036"><ele>465.0</ele><time>2026-04-18T10:39:56.453Z</time></trkpt><trkpt lat="43.2596426" lon="10.7521853"><ele>465.0</ele><time>2026-04-18T10:39:57.455Z</time></trkpt><trkpt lat="43.2596588" lon="10.752288"><ele>465.0</ele><time>2026-04-18T10:39:58.467Z</time></trkpt><trkpt lat="43.2596477" lon="10.7524149"><ele>465.0</ele><time>2026-04-18T10:39:59.463Z</time></trkpt><trkpt lat="43.2596372" lon="10.7525461"><ele>465.0</ele><time>2026-04-18T10:40:00.459Z</time></trkpt><trkpt lat="43.259619" lon="10.7526792"><ele>465.0</ele><time>2026-04-18T10:40:01.478Z</time></trkpt><trkpt lat="43.2595843" lon="10.7527931"><ele>463.3333333333333</ele><time>2026-04-18T10:40:02.462Z</time></trkpt><trkpt lat="43.2595515" lon="10.7529015"><ele>461.66666666666663</ele><time>2026-04-18T10:40:03.466Z</time></trkpt><trkpt lat="43.2595181" lon="10.7530043"><ele>460.0</ele><time>2026-04-18T10:40:04.464Z</time></trkpt><trkpt lat="43.2594973" lon="10.7531109"><ele>458.3333333333333</ele><time>2026-04-18T10:40:05.461Z</time></trkpt><trkpt lat="43.2594923" lon="10.7532209"><ele>456.66666666666663</ele><time>2026-04-18T10:40:06.463Z</time></trkpt><trkpt lat="43.2595033" lon="10.753312"><ele>455.0</ele><time>2026-04-18T10:40:07.464Z</time></trkpt><trkpt lat="43.2595307" lon="10.7534007"><ele>455.0</ele><time>2026-04-18T10:40:08.471Z</time></trkpt><trkpt lat="43.2595625" lon="10.7535084"><ele>455.0</ele><time>2026-04-18T10:40:09.487Z</time></trkpt><trkpt lat="43.2596" lon="10.7536209"><ele>455.0</ele><time>2026-04-18T10:40:10.465Z</time></trkpt><trkpt lat="43.259652" lon="10.7537213"><ele>455.0</ele><time>2026-04-18T10:40:11.467Z</time></trkpt><trkpt lat="43.25973" lon="10.7538166"><ele>455.0</ele><time>2026-04-18T10:40:12.459Z</time></trkpt><trkpt lat="43.2598131" lon="10.7538834"><ele>455.6</ele><time>2026-04-18T10:40:13.464Z</time></trkpt><trkpt lat="43.2598944" lon="10.7539552"><ele>456.2</ele><time>2026-04-18T10:40:14.465Z</time></trkpt><trkpt lat="43.2599889" lon="10.754008"><ele>456.79999999999995</ele><time>2026-04-18T10:40:15.475Z</time></trkpt><trkpt lat="43.2600915" lon="10.7540543"><ele>457.4</ele><time>2026-04-18T10:40:16.472Z</time></trkpt><trkpt lat="43.2601952" lon="10.7540935"><ele>458.0</ele><time>2026-04-18T10:40:17.447Z</time></trkpt><trkpt lat="43.2602892" lon="10.7541188"><ele>458.0</ele><time>2026-04-18T10:40:18.468Z</time></trkpt><trkpt lat="43.2603849" lon="10.7541251"><ele>457.99999999999994</ele><time>2026-04-18T10:40:19.458Z</time></trkpt><trkpt lat="43.2604767" lon="10.7541087"><ele>457.99999999999994</ele><time>2026-04-18T10:40:20.454Z</time></trkpt><trkpt lat="43.2605673" lon="10.7540751"><ele>458.0</ele><time>2026-04-18T10:40:21.474Z</time></trkpt><trkpt lat="43.2606555" lon="10.7540468"><ele>458.0</ele><time>2026-04-18T10:40:22.469Z</time></trkpt><trkpt lat="43.2607431" lon="10.7540083"><ele>458.0</ele><time>2026-04-18T10:40:23.465Z</time></trkpt><trkpt lat="43.2608154" lon="10.7539454"><ele>457.99999999999994</ele><time>2026-04-18T10:40:24.462Z</time></trkpt><trkpt lat="43.2608768" lon="10.7538685"><ele>457.99999999999994</ele><time>2026-04-18T10:40:25.466Z</time></trkpt><trkpt lat="43.2609188" lon="10.7537856"><ele>458.0</ele><time>2026-04-18T10:40:26.461Z</time></trkpt><trkpt lat="43.260953" lon="10.7536464"><ele>458.0</ele><time>2026-04-18T10:40:28.46Z</time></trkpt><trkpt lat="43.261053" lon="10.753558"><ele>457.99999999999994</ele><time>2026-04-18T10:40:30.45Z</time></trkpt><trkpt lat="43.2611424" lon="10.7535467"><ele>458.0</ele><time>2026-04-18T10:40:31.457Z</time></trkpt><trkpt lat="43.2612237" lon="10.7535378"><ele>458.0</ele><time>2026-04-18T10:40:32.461Z</time></trkpt><trkpt lat="43.2612977" lon="10.7535079"><ele>458.0</ele><time>2026-04-18T10:40:33.467Z</time></trkpt><trkpt lat="43.2613637" lon="10.7534269"><ele>457.99999999999994</ele><time>2026-04-18T10:40:34.453Z</time></trkpt><trkpt lat="43.2614412" lon="10.7533161"><ele>458.0</ele><time>2026-04-18T10:40:35.456Z</time></trkpt><trkpt lat="43.2615197" lon="10.7532201"><ele>459.3333333333333</ele><time>2026-04-18T10:40:36.45Z</time></trkpt><trkpt lat="43.2615951" lon="10.7531383"><ele>460.66666666666663</ele><time>2026-04-18T10:40:37.455Z</time></trkpt><trkpt lat="43.2616794" lon="10.7530551"><ele>462.0</ele><time>2026-04-18T10:40:38.461Z</time></trkpt><trkpt lat="43.2617504" lon="10.7529993"><ele>463.33333333333337</ele><time>2026-04-18T10:40:39.454Z</time></trkpt><trkpt lat="43.2618157" lon="10.752975"><ele>464.6666666666667</ele><time>2026-04-18T10:40:40.462Z</time></trkpt><trkpt lat="43.2618915" lon="10.7529761"><ele>466.0</ele><time>2026-04-18T10:40:41.461Z</time></trkpt><trkpt lat="43.2620085" lon="10.7530408"><ele>466.00000000000006</ele><time>2026-04-18T10:40:43.448Z</time></trkpt><trkpt lat="43.2620415" lon="10.7531214"><ele>466.0</ele><time>2026-04-18T10:40:44.455Z</time></trkpt><trkpt lat="43.2621226" lon="10.7532043"><ele>466.0</ele><time>2026-04-18T10:40:46.466Z</time></trkpt><trkpt lat="43.2621948" lon="10.7532069"><ele>466.0</ele><time>2026-04-18T10:46:10.461Z</time></trkpt><trkpt lat="43.2622756" lon="10.7532491"><ele>466.00000000000006</ele><time>2026-04-18T10:46:12.453Z</time></trkpt><trkpt lat="43.262393" lon="10.7532311"><ele>466.0</ele><time>2026-04-18T10:46:14.455Z</time></trkpt><trkpt lat="43.2624536" lon="10.7531907"><ele>465.00000000000006</ele><time>2026-04-18T10:46:15.444Z</time></trkpt><trkpt lat="43.2625179" lon="10.7531514"><ele>464.0</ele><time>2026-04-18T10:46:16.45Z</time></trkpt><trkpt lat="43.2625879" lon="10.7531489"><ele>463.0</ele><time>2026-04-18T10:46:17.452Z</time></trkpt><trkpt lat="43.2626574" lon="10.7531738"><ele>462.0</ele><time>2026-04-18T10:46:18.444Z</time></trkpt><trkpt lat="43.2627276" lon="10.7532304"><ele>461.00000000000006</ele><time>2026-04-18T10:46:19.456Z</time></trkpt><trkpt lat="43.2627965" lon="10.7533128"><ele>460.0</ele><time>2026-04-18T10:46:20.448Z</time></trkpt><trkpt lat="43.2628804" lon="10.7533862"><ele>460.0</ele><time>2026-04-18T10:46:21.452Z</time></trkpt><trkpt lat="43.2629704" lon="10.7534371"><ele>460.0</ele><time>2026-04-18T10:46:22.459Z</time></trkpt><trkpt lat="43.2630819" lon="10.7534556"><ele>460.0</ele><time>2026-04-18T10:46:23.459Z</time></trkpt><trkpt lat="43.2631857" lon="10.7534659"><ele>460.0</ele><time>2026-04-18T10:46:24.448Z</time></trkpt><trkpt lat="43.2633064" lon="10.7534628"><ele>460.0</ele><time>2026-04-18T10:46:25.457Z</time></trkpt><trkpt lat="43.2634143" lon="10.7534958"><ele>457.2</ele><time>2026-04-18T10:46:26.456Z</time></trkpt><trkpt lat="43.2635026" lon="10.753539"><ele>454.4</ele><time>2026-04-18T10:46:27.457Z</time></trkpt><trkpt lat="43.2635706" lon="10.7536171"><ele>451.6</ele><time>2026-04-18T10:46:28.455Z</time></trkpt><trkpt lat="43.2636327" lon="10.7537318"><ele>448.8</ele><time>2026-04-18T10:46:29.5Z</time></trkpt><trkpt lat="43.2636759" lon="10.7538687"><ele>446.0</ele><time>2026-04-18T10:46:30.466Z</time></trkpt><trkpt lat="43.2637109" lon="10.7540135"><ele>446.0</ele><time>2026-04-18T10:46:31.494Z</time></trkpt><trkpt lat="43.2637416" lon="10.7541562"><ele>446.0</ele><time>2026-04-18T10:46:32.464Z</time></trkpt><trkpt lat="43.2637882" lon="10.7542995"><ele>446.0</ele><time>2026-04-18T10:46:33.462Z</time></trkpt><trkpt lat="43.2638356" lon="10.7544299"><ele>446.0</ele><time>2026-04-18T10:46:34.456Z</time></trkpt><trkpt lat="43.2638934" lon="10.7545293"><ele>446.0</ele><time>2026-04-18T10:46:35.46Z</time></trkpt><trkpt lat="43.2639561" lon="10.7546149"><ele>447.3333333333333</ele><time>2026-04-18T10:46:36.469Z</time></trkpt><trkpt lat="43.2640339" lon="10.7546793"><ele>448.66666666666663</ele><time>2026-04-18T10:46:37.467Z</time></trkpt><trkpt lat="43.2640996" lon="10.7547141"><ele>450.0</ele><time>2026-04-18T10:46:38.454Z</time></trkpt><trkpt lat="43.2641719" lon="10.7547335"><ele>451.33333333333337</ele><time>2026-04-18T10:46:39.462Z</time></trkpt><trkpt lat="43.2642564" lon="10.7547366"><ele>452.6666666666667</ele><time>2026-04-18T10:46:40.474Z</time></trkpt><trkpt lat="43.2643494" lon="10.7547427"><ele>454.0</ele><time>2026-04-18T10:46:41.463Z</time></trkpt><trkpt lat="43.2644387" lon="10.7547514"><ele>454.0</ele><time>2026-04-18T10:46:42.463Z</time></trkpt><trkpt lat="43.2645323" lon="10.7547634"><ele>454.0</ele><time>2026-04-18T10:46:43.456Z</time></trkpt><trkpt lat="43.2646156" lon="10.7547917"><ele>454.0</ele><time>2026-04-18T10:46:44.46Z</time></trkpt><trkpt lat="43.2646974" lon="10.7548395"><ele>454.0</ele><time>2026-04-18T10:46:45.45Z</time></trkpt><trkpt lat="43.2647928" lon="10.7549007"><ele>454.0</ele><time>2026-04-18T10:46:46.533Z</time></trkpt><trkpt lat="43.2648908" lon="10.7549353"><ele>455.50000000000006</ele><time>2026-04-18T10:46:47.518Z</time></trkpt><trkpt lat="43.2649801" lon="10.7549472"><ele>457.0</ele><time>2026-04-18T10:46:48.501Z</time></trkpt><trkpt lat="43.2650777" lon="10.754974"><ele>458.5</ele><time>2026-04-18T10:46:49.5Z</time></trkpt><trkpt lat="43.2651548" lon="10.7549808"><ele>460.0</ele><time>2026-04-18T10:46:50.494Z</time></trkpt><trkpt lat="43.2652296" lon="10.7549709"><ele>461.50000000000006</ele><time>2026-04-18T10:46:51.525Z</time></trkpt><trkpt lat="43.2652931" lon="10.7549378"><ele>463.0</ele><time>2026-04-18T10:46:52.497Z</time></trkpt><trkpt lat="43.2653627" lon="10.7549048"><ele>463.0</ele><time>2026-04-18T10:46:53.491Z</time></trkpt><trkpt lat="43.2654486" lon="10.7548813"><ele>462.99999999999994</ele><time>2026-04-18T10:46:54.493Z</time></trkpt><trkpt lat="43.2655369" lon="10.7548934"><ele>462.99999999999994</ele><time>2026-04-18T10:46:55.492Z</time></trkpt><trkpt lat="43.2656412" lon="10.7549069"><ele>463.0</ele><time>2026-04-18T10:46:56.542Z</time></trkpt><trkpt lat="43.2657577" lon="10.7549076"><ele>463.0</ele><time>2026-04-18T10:46:57.497Z</time></trkpt><trkpt lat="43.2658595" lon="10.7548747"><ele>460.0</ele><time>2026-04-18T10:46:58.496Z</time></trkpt><trkpt lat="43.2659592" lon="10.7548433"><ele>457.0</ele><time>2026-04-18T10:46:59.496Z</time></trkpt><trkpt lat="43.2660748" lon="10.7548231"><ele>454.0</ele><time>2026-04-18T10:47:00.506Z</time></trkpt><trkpt lat="43.2661885" lon="10.7548295"><ele>451.0</ele><time>2026-04-18T10:47:01.5Z</time></trkpt><trkpt lat="43.2663038" lon="10.7548636"><ele>451.0</ele><time>2026-04-18T10:47:02.494Z</time></trkpt><trkpt lat="43.2664316" lon="10.7549273"><ele>451.0</ele><time>2026-04-18T10:47:03.498Z</time></trkpt><trkpt lat="43.2665596" lon="10.7550052"><ele>451.0</ele><time>2026-04-18T10:47:04.505Z</time></trkpt><trkpt lat="43.2666728" lon="10.7551039"><ele>451.0</ele><time>2026-04-18T10:47:05.54Z</time></trkpt><trkpt lat="43.2667704" lon="10.7551973"><ele>446.25</ele><time>2026-04-18T10:47:06.494Z</time></trkpt><trkpt lat="43.2668799" lon="10.7552728"><ele>441.5</ele><time>2026-04-18T10:47:07.501Z</time></trkpt><trkpt lat="43.266989" lon="10.7553358"><ele>436.75</ele><time>2026-04-18T10:47:08.515Z</time></trkpt><trkpt lat="43.2670918" lon="10.755381"><ele>432.0</ele><time>2026-04-18T10:47:09.516Z</time></trkpt><trkpt lat="43.2671998" lon="10.7554264"><ele>434.0</ele><time>2026-04-18T10:47:10.51Z</time></trkpt><trkpt lat="43.267306" lon="10.7554496"><ele>436.00000000000006</ele><time>2026-04-18T10:47:11.51Z</time></trkpt><trkpt lat="43.2674102" lon="10.7554458"><ele>438.00000000000006</ele><time>2026-04-18T10:47:12.518Z</time></trkpt><trkpt lat="43.2675154" lon="10.7554079"><ele>440.0</ele><time>2026-04-18T10:47:13.51Z</time></trkpt><trkpt lat="43.2676192" lon="10.7553336"><ele>442.0</ele><time>2026-04-18T10:47:14.51Z</time></trkpt><trkpt lat="43.2677141" lon="10.7552479"><ele>441.40000000000003</ele><time>2026-04-18T10:47:15.511Z</time></trkpt><trkpt lat="43.267788" lon="10.7551384"><ele>440.80000000000007</ele><time>2026-04-18T10:47:16.513Z</time></trkpt><trkpt lat="43.2678508" lon="10.7550449"><ele>440.2</ele><time>2026-04-18T10:47:17.51Z</time></trkpt><trkpt lat="43.2679158" lon="10.7549942"><ele>439.6</ele><time>2026-04-18T10:47:18.522Z</time></trkpt><trkpt lat="43.2680312" lon="10.7549939"><ele>439.0</ele><time>2026-04-18T10:47:20.517Z</time></trkpt><trkpt lat="43.2680926" lon="10.7550261"><ele>439.0</ele><time>2026-04-18T10:47:21.519Z</time></trkpt><trkpt lat="43.2680707" lon="10.7551119"><ele>439.0</ele><time>2026-04-18T10:47:22.514Z</time></trkpt><trkpt lat="43.268121" lon="10.7551787"><ele>439.0</ele><time>2026-04-18T10:47:23.516Z</time></trkpt><trkpt lat="43.2681646" lon="10.7552524"><ele>439.0</ele><time>2026-04-18T10:47:24.508Z</time></trkpt><trkpt lat="43.2682024" lon="10.7553246"><ele>439.0</ele><time>2026-04-18T10:47:25.542Z</time></trkpt><trkpt lat="43.2682462" lon="10.755403"><ele>439.0</ele><time>2026-04-18T10:47:26.51Z</time></trkpt><trkpt lat="43.2682755" lon="10.7554846"><ele>439.0</ele><time>2026-04-18T10:47:27.517Z</time></trkpt><trkpt lat="43.2683183" lon="10.7555691"><ele>439.6666666666667</ele><time>2026-04-18T10:47:29.519Z</time></trkpt><trkpt lat="43.2683957" lon="10.7556228"><ele>440.33333333333337</ele><time>2026-04-18T10:48:01.537Z</time></trkpt><trkpt lat="43.2684767" lon="10.7557111"><ele>441.0</ele><time>2026-04-18T10:48:03.525Z</time></trkpt><trkpt lat="43.2685354" lon="10.7557637"><ele>441.66666666666663</ele><time>2026-04-18T10:48:04.528Z</time></trkpt><trkpt lat="43.268594" lon="10.755841"><ele>442.3333333333333</ele><time>2026-04-18T10:48:05.518Z</time></trkpt><trkpt lat="43.2686594" lon="10.7559309"><ele>443.0</ele><time>2026-04-18T10:48:06.531Z</time></trkpt><trkpt lat="43.2687337" lon="10.7560004"><ele>442.4</ele><time>2026-04-18T10:48:07.521Z</time></trkpt><trkpt lat="43.2688107" lon="10.7560684"><ele>441.79999999999995</ele><time>2026-04-18T10:48:08.537Z</time></trkpt><trkpt lat="43.2688767" lon="10.756153"><ele>441.2</ele><time>2026-04-18T10:48:09.537Z</time></trkpt><trkpt lat="43.2689447" lon="10.756238"><ele>440.6</ele><time>2026-04-18T10:48:10.53Z</time></trkpt><trkpt lat="43.2690244" lon="10.7563207"><ele>440.0</ele><time>2026-04-18T10:48:11.529Z</time></trkpt><trkpt lat="43.2691101" lon="10.7563994"><ele>440.0</ele><time>2026-04-18T10:48:12.53Z</time></trkpt><trkpt lat="43.2691998" lon="10.7564738"><ele>440.0</ele><time>2026-04-18T10:48:13.52Z</time></trkpt><trkpt lat="43.2692957" lon="10.7565451"><ele>440.0</ele><time>2026-04-18T10:48:14.521Z</time></trkpt><trkpt lat="43.2693904" lon="10.7566164"><ele>440.0</ele><time>2026-04-18T10:48:15.525Z</time></trkpt><trkpt lat="43.2694833" lon="10.7566817"><ele>440.0</ele><time>2026-04-18T10:48:16.518Z</time></trkpt><trkpt lat="43.2695731" lon="10.7567414"><ele>440.0</ele><time>2026-04-18T10:48:17.528Z</time></trkpt><trkpt lat="43.2696608" lon="10.7567925"><ele>440.0</ele><time>2026-04-18T10:48:18.522Z</time></trkpt><trkpt lat="43.2697526" lon="10.7568294"><ele>440.0</ele><time>2026-04-18T10:48:19.549Z</time></trkpt><trkpt lat="43.2698481" lon="10.7568392"><ele>440.0</ele><time>2026-04-18T10:48:20.524Z</time></trkpt><trkpt lat="43.2699419" lon="10.7568455"><ele>440.0</ele><time>2026-04-18T10:48:21.512Z</time></trkpt><trkpt lat="43.270035" lon="10.7568551"><ele>440.16666666666663</ele><time>2026-04-18T10:48:22.517Z</time></trkpt><trkpt lat="43.270124" lon="10.7568659"><ele>440.3333333333333</ele><time>2026-04-18T10:48:23.509Z</time></trkpt><trkpt lat="43.2702112" lon="10.7568774"><ele>440.5</ele><time>2026-04-18T10:48:24.509Z</time></trkpt><trkpt lat="43.2702968" lon="10.7568951"><ele>440.66666666666663</ele><time>2026-04-18T10:48:25.512Z</time></trkpt><trkpt lat="43.2703766" lon="10.7569165"><ele>440.8333333333333</ele><time>2026-04-18T10:48:26.518Z</time></trkpt><trkpt lat="43.2704573" lon="10.7569521"><ele>441.0</ele><time>2026-04-18T10:48:27.509Z</time></trkpt><trkpt lat="43.2705353" lon="10.7570081"><ele>443.0</ele><time>2026-04-18T10:48:28.521Z</time></trkpt><trkpt lat="43.2706089" lon="10.7570475"><ele>445.0</ele><time>2026-04-18T10:48:29.517Z</time></trkpt><trkpt lat="43.2706814" lon="10.7570863"><ele>447.0</ele><time>2026-04-18T10:48:30.515Z</time></trkpt><trkpt lat="43.2707383" lon="10.7571538"><ele>449.0</ele><time>2026-04-18T10:48:31.526Z</time></trkpt><trkpt lat="43.2707778" lon="10.757235"><ele>451.0</ele><time>2026-04-18T10:48:32.513Z</time></trkpt><trkpt lat="43.2707956" lon="10.7573334"><ele>453.0</ele><time>2026-04-18T10:48:33.557Z</time></trkpt><trkpt lat="43.2707977" lon="10.7574357"><ele>453.0</ele><time>2026-04-18T10:48:34.512Z</time></trkpt><trkpt lat="43.2707844" lon="10.7575383"><ele>453.0</ele><time>2026-04-18T10:48:35.518Z</time></trkpt><trkpt lat="43.2707736" lon="10.7576351"><ele>453.0</ele><time>2026-04-18T10:48:36.532Z</time></trkpt><trkpt lat="43.2707713" lon="10.7577428"><ele>453.0</ele><time>2026-04-18T10:48:37.512Z</time></trkpt><trkpt lat="43.2707803" lon="10.7578536"><ele>453.0</ele><time>2026-04-18T10:48:38.51Z</time></trkpt><trkpt lat="43.2708093" lon="10.7579483"><ele>453.0</ele><time>2026-04-18T10:48:39.519Z</time></trkpt><trkpt lat="43.2708444" lon="10.7580462"><ele>453.5</ele><time>2026-04-18T10:48:40.519Z</time></trkpt><trkpt lat="43.2708899" lon="10.7581413"><ele>454.0</ele><time>2026-04-18T10:48:41.521Z</time></trkpt><trkpt lat="43.2709332" lon="10.7582373"><ele>454.5</ele><time>2026-04-18T10:48:42.518Z</time></trkpt><trkpt lat="43.270964" lon="10.75833"><ele>455.0</ele><time>2026-04-18T10:48:43.523Z</time></trkpt><trkpt lat="43.2709641" lon="10.7584316"><ele>455.5</ele><time>2026-04-18T10:48:44.517Z</time></trkpt><trkpt lat="43.2709473" lon="10.7585375"><ele>456.0</ele><time>2026-04-18T10:48:45.514Z</time></trkpt><trkpt lat="43.2709306" lon="10.758645"><ele>456.6666666666667</ele><time>2026-04-18T10:48:46.512Z</time></trkpt><trkpt lat="43.270915" lon="10.7587512"><ele>457.33333333333337</ele><time>2026-04-18T10:48:47.518Z</time></trkpt><trkpt lat="43.2708974" lon="10.7588592"><ele>458.0</ele><time>2026-04-18T10:48:48.532Z</time></trkpt><trkpt lat="43.2708736" lon="10.7589743"><ele>458.6666666666667</ele><time>2026-04-18T10:48:49.507Z</time></trkpt><trkpt lat="43.2708474" lon="10.7590778"><ele>459.33333333333337</ele><time>2026-04-18T10:48:50.521Z</time></trkpt><trkpt lat="43.2708131" lon="10.7591691"><ele>460.0</ele><time>2026-04-18T10:48:51.504Z</time></trkpt><trkpt lat="43.2707795" lon="10.7592552"><ele>459.99999999999994</ele><time>2026-04-18T10:48:52.503Z</time></trkpt><trkpt lat="43.2707594" lon="10.7593413"><ele>460.0</ele><time>2026-04-18T10:48:53.516Z</time></trkpt><trkpt lat="43.2707588" lon="10.7594324"><ele>459.99999999999994</ele><time>2026-04-18T10:48:54.515Z</time></trkpt><trkpt lat="43.2707904" lon="10.7595314"><ele>459.99999999999994</ele><time>2026-04-18T10:48:55.507Z</time></trkpt><trkpt lat="43.2708191" lon="10.7596195"><ele>460.0</ele><time>2026-04-18T10:48:56.518Z</time></trkpt><trkpt lat="43.2708375" lon="10.7597253"><ele>459.99999999999994</ele><time>2026-04-18T10:48:57.497Z</time></trkpt><trkpt lat="43.270853" lon="10.7598214"><ele>459.99999999999994</ele><time>2026-04-18T10:48:58.509Z</time></trkpt><trkpt lat="43.2708529" lon="10.7599265"><ele>460.1666666666667</ele><time>2026-04-18T10:48:59.508Z</time></trkpt><trkpt lat="43.2708492" lon="10.7600276"><ele>460.33333333333337</ele><time>2026-04-18T10:49:00.516Z</time></trkpt><trkpt lat="43.2708373" lon="10.760134"><ele>460.5</ele><time>2026-04-18T10:49:01.503Z</time></trkpt><trkpt lat="43.2708314" lon="10.7602398"><ele>460.66666666666663</ele><time>2026-04-18T10:49:02.512Z</time></trkpt><trkpt lat="43.2708206" lon="10.7603496"><ele>460.8333333333333</ele><time>2026-04-18T10:49:03.506Z</time></trkpt><trkpt lat="43.2708106" lon="10.7604583"><ele>461.0</ele><time>2026-04-18T10:49:04.515Z</time></trkpt><trkpt lat="43.2708065" lon="10.7605669"><ele>460.99999999999994</ele><time>2026-04-18T10:49:05.514Z</time></trkpt><trkpt lat="43.2708112" lon="10.7606823"><ele>461.0</ele><time>2026-04-18T10:49:06.524Z</time></trkpt><trkpt lat="43.2708083" lon="10.7607939"><ele>461.0</ele><time>2026-04-18T10:49:07.525Z</time></trkpt><trkpt lat="43.2708046" lon="10.760892"><ele>461.0</ele><time>2026-04-18T10:49:08.514Z</time></trkpt><trkpt lat="43.270798" lon="10.7609802"><ele>460.99999999999994</ele><time>2026-04-18T10:49:09.517Z</time></trkpt><trkpt lat="43.2707899" lon="10.76107"><ele>461.0</ele><time>2026-04-18T10:49:10.527Z</time></trkpt><trkpt lat="43.2708267" lon="10.7612013"><ele>461.0</ele><time>2026-04-18T10:49:12.526Z</time></trkpt><trkpt lat="43.2709181" lon="10.7612774"><ele>461.0</ele><time>2026-04-18T10:49:14.524Z</time></trkpt><trkpt lat="43.2710335" lon="10.7613008"><ele>461.0</ele><time>2026-04-18T10:49:16.514Z</time></trkpt><trkpt lat="43.2711542" lon="10.7612981"><ele>461.0</ele><time>2026-04-18T10:49:18.514Z</time></trkpt><trkpt lat="43.2712186" lon="10.7612978"><ele>461.0</ele><time>2026-04-18T10:49:19.529Z</time></trkpt><trkpt lat="43.2712835" lon="10.7612978"><ele>461.0</ele><time>2026-04-18T10:49:20.513Z</time></trkpt><trkpt lat="43.2714088" lon="10.7612889"><ele>461.0</ele><time>2026-04-18T10:49:22.525Z</time></trkpt><trkpt lat="43.2715284" lon="10.7612388"><ele>461.0</ele><time>2026-04-18T10:49:24.527Z</time></trkpt><trkpt lat="43.2715814" lon="10.761192"><ele>461.0</ele><time>2026-04-18T10:49:25.53Z</time></trkpt><trkpt lat="43.271626" lon="10.7611283"><ele>461.0</ele><time>2026-04-18T10:49:26.53Z</time></trkpt><trkpt lat="43.2716753" lon="10.7609703"><ele>463.8</ele><time>2026-04-18T10:49:28.519Z</time></trkpt><trkpt lat="43.2717129" lon="10.7608252"><ele>466.6</ele><time>2026-04-18T10:49:30.517Z</time></trkpt><trkpt lat="43.2717441" lon="10.7606817"><ele>469.4</ele><time>2026-04-18T10:49:32.52Z</time></trkpt><trkpt lat="43.2717813" lon="10.7605419"><ele>472.2</ele><time>2026-04-18T10:49:34.521Z</time></trkpt><trkpt lat="43.2718208" lon="10.7604041"><ele>475.0</ele><time>2026-04-18T10:49:36.525Z</time></trkpt><trkpt lat="43.2718471" lon="10.7603218"><ele>475.00000000000006</ele><time>2026-04-18T10:49:37.528Z</time></trkpt><trkpt lat="43.271884" lon="10.7602478"><ele>475.0</ele><time>2026-04-18T10:49:38.523Z</time></trkpt><trkpt lat="43.2719674" lon="10.7601303"><ele>475.0</ele><time>2026-04-18T10:49:40.52Z</time></trkpt><trkpt lat="43.2720754" lon="10.7600553"><ele>475.0</ele><time>2026-04-18T10:49:42.536Z</time></trkpt><trkpt lat="43.2721414" lon="10.7600345"><ele>475.00000000000006</ele><time>2026-04-18T10:49:43.533Z</time></trkpt><trkpt lat="43.2722143" lon="10.7600244"><ele>475.0</ele><time>2026-04-18T10:49:44.541Z</time></trkpt><trkpt lat="43.2723528" lon="10.7600451"><ele>476.14285714285717</ele><time>2026-04-18T10:49:46.529Z</time></trkpt><trkpt lat="43.272425" lon="10.7600646"><ele>477.28571428571433</ele><time>2026-04-18T10:49:47.524Z</time></trkpt><trkpt lat="43.2724842" lon="10.7601003"><ele>478.42857142857144</ele><time>2026-04-18T10:49:48.521Z</time></trkpt><trkpt lat="43.2725561" lon="10.7601253"><ele>479.57142857142856</ele><time>2026-04-18T10:49:49.521Z</time></trkpt><trkpt lat="43.2726256" lon="10.76014"><ele>480.7142857142857</ele><time>2026-04-18T10:49:50.52Z</time></trkpt><trkpt lat="43.2726932" lon="10.7601499"><ele>481.8571428571429</ele><time>2026-04-18T10:49:51.512Z</time></trkpt><trkpt lat="43.2727632" lon="10.7601485"><ele>483.0</ele><time>2026-04-18T10:49:52.527Z</time></trkpt><trkpt lat="43.2728315" lon="10.7601264"><ele>483.0</ele><time>2026-04-18T10:49:53.515Z</time></trkpt><trkpt lat="43.2729045" lon="10.7600866"><ele>483.0</ele><time>2026-04-18T10:49:54.524Z</time></trkpt><trkpt lat="43.2729666" lon="10.7600212"><ele>483.0</ele><time>2026-04-18T10:49:55.511Z</time></trkpt><trkpt lat="43.2730221" lon="10.7599414"><ele>483.0</ele><time>2026-04-18T10:49:56.517Z</time></trkpt><trkpt lat="43.2730774" lon="10.7598626"><ele>483.0</ele><time>2026-04-18T10:49:57.515Z</time></trkpt><trkpt lat="43.2731348" lon="10.7597838"><ele>483.0</ele><time>2026-04-18T10:49:58.522Z</time></trkpt><trkpt lat="43.2731916" lon="10.7596988"><ele>483.1666666666667</ele><time>2026-04-18T10:49:59.519Z</time></trkpt><trkpt lat="43.2732484" lon="10.7596234"><ele>483.33333333333337</ele><time>2026-04-18T10:50:00.527Z</time></trkpt><trkpt lat="43.2733022" lon="10.7595491"><ele>483.5</ele><time>2026-04-18T10:50:01.522Z</time></trkpt><trkpt lat="43.2733545" lon="10.7594566"><ele>483.6666666666667</ele><time>2026-04-18T10:50:02.511Z</time></trkpt><trkpt lat="43.2734013" lon="10.7593888"><ele>483.83333333333337</ele><time>2026-04-18T10:50:03.516Z</time></trkpt><trkpt lat="43.2734632" lon="10.75933"><ele>484.0</ele><time>2026-04-18T10:50:04.535Z</time></trkpt><trkpt lat="43.2735244" lon="10.759292"><ele>484.0</ele><time>2026-04-18T10:50:05.519Z</time></trkpt><trkpt lat="43.2736509" lon="10.7592154"><ele>484.0</ele><time>2026-04-18T10:50:07.515Z</time></trkpt><trkpt lat="43.2737427" lon="10.7591815"><ele>484.0</ele><time>2026-04-18T10:50:08.516Z</time></trkpt><trkpt lat="43.2738299" lon="10.7591555"><ele>484.0</ele><time>2026-04-18T10:50:09.526Z</time></trkpt><trkpt lat="43.2739195" lon="10.7591275"><ele>484.0</ele><time>2026-04-18T10:50:10.514Z</time></trkpt><trkpt lat="43.2740138" lon="10.7590972"><ele>486.2</ele><time>2026-04-18T10:50:11.52Z</time></trkpt><trkpt lat="43.2741112" lon="10.7590635"><ele>488.4</ele><time>2026-04-18T10:50:12.525Z</time></trkpt><trkpt lat="43.2742114" lon="10.7590176"><ele>490.6</ele><time>2026-04-18T10:50:13.519Z</time></trkpt><trkpt lat="43.2743077" lon="10.7589721"><ele>492.8</ele><time>2026-04-18T10:50:14.518Z</time></trkpt><trkpt lat="43.2743932" lon="10.7589341"><ele>495.0</ele><time>2026-04-18T10:50:15.515Z</time></trkpt><trkpt lat="43.2744644" lon="10.7589185"><ele>495.0</ele><time>2026-04-18T10:50:16.51Z</time></trkpt><trkpt lat="43.2745389" lon="10.7589207"><ele>495.0</ele><time>2026-04-18T10:50:17.512Z</time></trkpt><trkpt lat="43.2746144" lon="10.7589444"><ele>495.0</ele><time>2026-04-18T10:50:18.504Z</time></trkpt><trkpt lat="43.2746937" lon="10.7589833"><ele>495.0</ele><time>2026-04-18T10:50:19.517Z</time></trkpt><trkpt lat="43.2747703" lon="10.7590001"><ele>495.0</ele><time>2026-04-18T10:50:20.513Z</time></trkpt><trkpt lat="43.2748755" lon="10.7589517"><ele>495.0</ele><time>2026-04-18T10:50:22.512Z</time></trkpt><trkpt lat="43.2749607" lon="10.7588626"><ele>494.71428571428567</ele><time>2026-04-18T10:50:24.515Z</time></trkpt><trkpt lat="43.2750031" lon="10.7587854"><ele>494.42857142857144</ele><time>2026-04-18T10:50:25.513Z</time></trkpt><trkpt lat="43.275053" lon="10.7587057"><ele>494.1428571428571</ele><time>2026-04-18T10:50:26.517Z</time></trkpt><trkpt lat="43.2751102" lon="10.7586357"><ele>493.85714285714283</ele><time>2026-04-18T10:50:27.52Z</time></trkpt><trkpt lat="43.2751768" lon="10.7585977"><ele>493.57142857142856</ele><time>2026-04-18T10:50:28.524Z</time></trkpt><trkpt lat="43.2752479" lon="10.7585932"><ele>493.2857142857143</ele><time>2026-04-18T10:50:29.524Z</time></trkpt><trkpt lat="43.2753201" lon="10.758619"><ele>493.0</ele><time>2026-04-18T10:50:30.528Z</time></trkpt><trkpt lat="43.2753873" lon="10.7586705"><ele>493.00000000000006</ele><time>2026-04-18T10:50:31.515Z</time></trkpt><trkpt lat="43.2754593" lon="10.7587288"><ele>493.0</ele><time>2026-04-18T10:50:32.525Z</time></trkpt><trkpt lat="43.2755411" lon="10.7587809"><ele>493.0</ele><time>2026-04-18T10:50:33.515Z</time></trkpt><trkpt lat="43.2756224" lon="10.7588334"><ele>493.0</ele><time>2026-04-18T10:50:34.514Z</time></trkpt><trkpt lat="43.2757033" lon="10.7588725"><ele>493.00000000000006</ele><time>2026-04-18T10:50:35.527Z</time></trkpt><trkpt lat="43.2757791" lon="10.7588672"><ele>493.0</ele><time>2026-04-18T10:50:36.523Z</time></trkpt><trkpt lat="43.2758441" lon="10.7588507"><ele>492.33333333333337</ele><time>2026-04-18T10:50:37.527Z</time></trkpt><trkpt lat="43.2759038" lon="10.7588176"><ele>491.6666666666667</ele><time>2026-04-18T10:50:38.506Z</time></trkpt><trkpt lat="43.275953" lon="10.7587576"><ele>491.0</ele><time>2026-04-18T10:50:39.517Z</time></trkpt><trkpt lat="43.2759845" lon="10.7586771"><ele>490.33333333333337</ele><time>2026-04-18T10:50:40.501Z</time></trkpt><trkpt lat="43.2760005" lon="10.7585732"><ele>489.6666666666667</ele><time>2026-04-18T10:50:41.506Z</time></trkpt><trkpt lat="43.2760041" lon="10.7584585"><ele>489.0</ele><time>2026-04-18T10:50:42.521Z</time></trkpt><trkpt lat="43.2760009" lon="10.7583305"><ele>489.0</ele><time>2026-04-18T10:50:43.512Z</time></trkpt><trkpt lat="43.2760103" lon="10.7581911"><ele>489.0</ele><time>2026-04-18T10:50:44.535Z</time></trkpt><trkpt lat="43.2760229" lon="10.7580522"><ele>489.0</ele><time>2026-04-18T10:50:45.51Z</time></trkpt><trkpt lat="43.2760391" lon="10.7579272"><ele>489.0</ele><time>2026-04-18T10:50:46.514Z</time></trkpt><trkpt lat="43.276051" lon="10.757811"><ele>489.0</ele><time>2026-04-18T10:50:47.49Z</time></trkpt><trkpt lat="43.2760692" lon="10.7576943"><ele>489.0</ele><time>2026-04-18T10:50:48.514Z</time></trkpt><trkpt lat="43.2760896" lon="10.7575844"><ele>489.0</ele><time>2026-04-18T10:50:49.52Z</time></trkpt><trkpt lat="43.2761283" lon="10.7574815"><ele>489.0</ele><time>2026-04-18T10:50:50.516Z</time></trkpt><trkpt lat="43.2761795" lon="10.7573926"><ele>489.0</ele><time>2026-04-18T10:50:51.516Z</time></trkpt><trkpt lat="43.2762301" lon="10.7572987"><ele>489.0</ele><time>2026-04-18T10:50:52.505Z</time></trkpt><trkpt lat="43.276273" lon="10.7572109"><ele>489.0</ele><time>2026-04-18T10:50:53.507Z</time></trkpt><trkpt lat="43.2763263" lon="10.7571164"><ele>489.0</ele><time>2026-04-18T10:50:54.504Z</time></trkpt><trkpt lat="43.2763867" lon="10.7570438"><ele>489.0</ele><time>2026-04-18T10:50:55.516Z</time></trkpt><trkpt lat="43.2764586" lon="10.7569889"><ele>489.0</ele><time>2026-04-18T10:50:56.519Z</time></trkpt><trkpt lat="43.2765487" lon="10.7569708"><ele>489.0</ele><time>2026-04-18T10:50:57.516Z</time></trkpt><trkpt lat="43.2766474" lon="10.7569696"><ele>489.0</ele><time>2026-04-18T10:50:58.514Z</time></trkpt><trkpt lat="43.2767468" lon="10.7569723"><ele>488.0</ele><time>2026-04-18T10:50:59.508Z</time></trkpt><trkpt lat="43.2768363" lon="10.7569613"><ele>487.0</ele><time>2026-04-18T10:51:00.517Z</time></trkpt><trkpt lat="43.2769317" lon="10.7569236"><ele>486.0</ele><time>2026-04-18T10:51:01.517Z</time></trkpt><trkpt lat="43.2770345" lon="10.7568838"><ele>485.0</ele><time>2026-04-18T10:51:02.51Z</time></trkpt><trkpt lat="43.2771392" lon="10.7568468"><ele>484.0</ele><time>2026-04-18T10:51:03.503Z</time></trkpt><trkpt lat="43.277242" lon="10.7568103"><ele>482.50000000000006</ele><time>2026-04-18T10:51:04.516Z</time></trkpt><trkpt lat="43.2773426" lon="10.7567768"><ele>481.0</ele><time>2026-04-18T10:51:05.511Z</time></trkpt><trkpt lat="43.2774235" lon="10.7567415"><ele>479.5</ele><time>2026-04-18T10:51:06.52Z</time></trkpt><trkpt lat="43.2775017" lon="10.7566924"><ele>478.0</ele><time>2026-04-18T10:51:07.509Z</time></trkpt><trkpt lat="43.2775724" lon="10.7566326"><ele>476.50000000000006</ele><time>2026-04-18T10:51:08.508Z</time></trkpt><trkpt lat="43.2776404" lon="10.7565527"><ele>475.0</ele><time>2026-04-18T10:51:09.504Z</time></trkpt><trkpt lat="43.2777007" lon="10.756451"><ele>475.0</ele><time>2026-04-18T10:51:10.51Z</time></trkpt><trkpt lat="43.2777551" lon="10.7563396"><ele>475.0</ele><time>2026-04-18T10:51:11.51Z</time></trkpt><trkpt lat="43.2778108" lon="10.7562284"><ele>475.0</ele><time>2026-04-18T10:51:12.505Z</time></trkpt><trkpt lat="43.2778559" lon="10.7561207"><ele>475.0</ele><time>2026-04-18T10:51:13.513Z</time></trkpt><trkpt lat="43.2779043" lon="10.756017"><ele>475.0</ele><time>2026-04-18T10:51:14.512Z</time></trkpt><trkpt lat="43.277937" lon="10.7559202"><ele>475.33333333333337</ele><time>2026-04-18T10:51:15.505Z</time></trkpt><trkpt lat="43.2779673" lon="10.7558136"><ele>475.6666666666667</ele><time>2026-04-18T10:51:16.515Z</time></trkpt><trkpt lat="43.2780113" lon="10.7557334"><ele>476.0</ele><time>2026-04-18T10:51:17.508Z</time></trkpt><trkpt lat="43.2780726" lon="10.7556716"><ele>476.33333333333337</ele><time>2026-04-18T10:51:18.514Z</time></trkpt><trkpt lat="43.2781464" lon="10.7556289"><ele>476.6666666666667</ele><time>2026-04-18T10:51:19.514Z</time></trkpt><trkpt lat="43.2782238" lon="10.7556209"><ele>477.0</ele><time>2026-04-18T10:51:20.519Z</time></trkpt><trkpt lat="43.2783023" lon="10.7556413"><ele>475.3333333333333</ele><time>2026-04-18T10:51:21.522Z</time></trkpt><trkpt lat="43.2783721" lon="10.755697"><ele>473.66666666666663</ele><time>2026-04-18T10:51:22.529Z</time></trkpt><trkpt lat="43.2784288" lon="10.7557757"><ele>472.0</ele><time>2026-04-18T10:51:23.51Z</time></trkpt><trkpt lat="43.2784805" lon="10.7558724"><ele>470.3333333333333</ele><time>2026-04-18T10:51:24.518Z</time></trkpt><trkpt lat="43.2785194" lon="10.7559849"><ele>468.66666666666663</ele><time>2026-04-18T10:51:25.525Z</time></trkpt><trkpt lat="43.2785662" lon="10.7560996"><ele>467.0</ele><time>2026-04-18T10:51:26.515Z</time></trkpt><trkpt lat="43.2786129" lon="10.7562149"><ele>466.66666666666663</ele><time>2026-04-18T10:51:27.515Z</time></trkpt><trkpt lat="43.2786583" lon="10.7563236"><ele>466.3333333333333</ele><time>2026-04-18T10:51:28.521Z</time></trkpt><trkpt lat="43.2787073" lon="10.7564161"><ele>466.0</ele><time>2026-04-18T10:51:29.509Z</time></trkpt><trkpt lat="43.2787541" lon="10.7564807"><ele>465.66666666666663</ele><time>2026-04-18T10:51:30.51Z</time></trkpt><trkpt lat="43.2788616" lon="10.7565201"><ele>465.3333333333333</ele><time>2026-04-18T10:51:32.508Z</time></trkpt><trkpt lat="43.2789245" lon="10.7564928"><ele>465.0</ele><time>2026-04-18T10:51:33.518Z</time></trkpt><trkpt lat="43.2789674" lon="10.7564144"><ele>464.3333333333333</ele><time>2026-04-18T10:51:34.513Z</time></trkpt><trkpt lat="43.2790023" lon="10.7563089"><ele>463.66666666666663</ele><time>2026-04-18T10:51:35.531Z</time></trkpt><trkpt lat="43.2790385" lon="10.7561941"><ele>463.0</ele><time>2026-04-18T10:51:36.51Z</time></trkpt><trkpt lat="43.2790737" lon="10.7560891"><ele>462.3333333333333</ele><time>2026-04-18T10:51:37.511Z</time></trkpt><trkpt lat="43.279111" lon="10.7559959"><ele>461.66666666666663</ele><time>2026-04-18T10:51:38.525Z</time></trkpt><trkpt lat="43.2791473" lon="10.7559018"><ele>461.0</ele><time>2026-04-18T10:51:39.507Z</time></trkpt><trkpt lat="43.2791721" lon="10.755799"><ele>461.0</ele><time>2026-04-18T10:51:40.505Z</time></trkpt><trkpt lat="43.2791843" lon="10.7556907"><ele>461.00000000000006</ele><time>2026-04-18T10:51:41.518Z</time></trkpt><trkpt lat="43.2791726" lon="10.7555818"><ele>461.0</ele><time>2026-04-18T10:51:42.508Z</time></trkpt><trkpt lat="43.2791534" lon="10.7554815"><ele>461.0</ele><time>2026-04-18T10:51:43.526Z</time></trkpt><trkpt lat="43.2791351" lon="10.7553895"><ele>461.00000000000006</ele><time>2026-04-18T10:51:44.521Z</time></trkpt><trkpt lat="43.2791239" lon="10.7552981"><ele>461.0</ele><time>2026-04-18T10:51:45.512Z</time></trkpt><trkpt lat="43.2791216" lon="10.7552096"><ele>461.0</ele><time>2026-04-18T10:51:46.536Z</time></trkpt><trkpt lat="43.2791363" lon="10.755038"><ele>460.4</ele><time>2026-04-18T10:51:48.505Z</time></trkpt><trkpt lat="43.2791634" lon="10.7549549"><ele>459.8</ele><time>2026-04-18T10:51:49.515Z</time></trkpt><trkpt lat="43.2792244" lon="10.754841"><ele>459.19999999999993</ele><time>2026-04-18T10:51:51.512Z</time></trkpt><trkpt lat="43.2792902" lon="10.7547389"><ele>458.59999999999997</ele><time>2026-04-18T10:51:53.507Z</time></trkpt><trkpt lat="43.2793938" lon="10.7546352"><ele>458.0</ele><time>2026-04-18T10:51:55.546Z</time></trkpt><trkpt lat="43.2794436" lon="10.7545724"><ele>458.0</ele><time>2026-04-18T10:51:56.512Z</time></trkpt><trkpt lat="43.2794939" lon="10.7545051"><ele>458.0</ele><time>2026-04-18T10:51:57.52Z</time></trkpt><trkpt lat="43.2795318" lon="10.7544346"><ele>458.0</ele><time>2026-04-18T10:51:58.513Z</time></trkpt><trkpt lat="43.2795576" lon="10.7543434"><ele>458.0</ele><time>2026-04-18T10:51:59.512Z</time></trkpt><trkpt lat="43.2795774" lon="10.7542448"><ele>458.0</ele><time>2026-04-18T10:52:00.518Z</time></trkpt><trkpt lat="43.279579" lon="10.754145"><ele>458.0</ele><time>2026-04-18T10:52:01.524Z</time></trkpt><trkpt lat="43.2795869" lon="10.7540425"><ele>458.0</ele><time>2026-04-18T10:52:02.523Z</time></trkpt><trkpt lat="43.2796066" lon="10.753931"><ele>458.16666666666663</ele><time>2026-04-18T10:52:03.515Z</time></trkpt><trkpt lat="43.2796244" lon="10.7538307"><ele>458.3333333333333</ele><time>2026-04-18T10:52:04.521Z</time></trkpt><trkpt lat="43.2796414" lon="10.7537379"><ele>458.5</ele><time>2026-04-18T10:52:05.519Z</time></trkpt><trkpt lat="43.2796668" lon="10.7536379"><ele>458.66666666666663</ele><time>2026-04-18T10:52:06.516Z</time></trkpt><trkpt lat="43.2797008" lon="10.7535287"><ele>458.8333333333333</ele><time>2026-04-18T10:52:07.51Z</time></trkpt><trkpt lat="43.2797345" lon="10.7534239"><ele>459.0</ele><time>2026-04-18T10:52:08.513Z</time></trkpt><trkpt lat="43.27977" lon="10.7533213"><ele>459.0</ele><time>2026-04-18T10:52:09.517Z</time></trkpt><trkpt lat="43.2797909" lon="10.7532231"><ele>459.0</ele><time>2026-04-18T10:52:10.51Z</time></trkpt><trkpt lat="43.2798115" lon="10.7531152"><ele>459.0</ele><time>2026-04-18T10:52:11.508Z</time></trkpt><trkpt lat="43.2798268" lon="10.7530072"><ele>459.0</ele><time>2026-04-18T10:52:12.519Z</time></trkpt><trkpt lat="43.279843" lon="10.7528892"><ele>459.0</ele><time>2026-04-18T10:52:13.499Z</time></trkpt><trkpt lat="43.2798499" lon="10.752785"><ele>459.0</ele><time>2026-04-18T10:52:14.534Z</time></trkpt><trkpt lat="43.2798601" lon="10.7526941"><ele>457.6</ele><time>2026-04-18T10:52:15.496Z</time></trkpt><trkpt lat="43.2799049" lon="10.7525566"><ele>456.2</ele><time>2026-04-18T10:52:17.508Z</time></trkpt><trkpt lat="43.2800188" lon="10.7524777"><ele>454.80000000000007</ele><time>2026-04-18T10:52:19.541Z</time></trkpt><trkpt lat="43.2800855" lon="10.7524382"><ele>453.40000000000003</ele><time>2026-04-18T10:52:20.509Z</time></trkpt><trkpt lat="43.2801811" lon="10.7523984"><ele>452.0</ele><time>2026-04-18T10:52:21.508Z</time></trkpt><trkpt lat="43.2802806" lon="10.7523775"><ele>451.99999999999994</ele><time>2026-04-18T10:52:22.504Z</time></trkpt><trkpt lat="43.2803709" lon="10.7523355"><ele>452.0</ele><time>2026-04-18T10:52:23.496Z</time></trkpt><trkpt lat="43.2804562" lon="10.7523028"><ele>452.0</ele><time>2026-04-18T10:52:24.513Z</time></trkpt><trkpt lat="43.2805365" lon="10.7522543"><ele>452.0</ele><time>2026-04-18T10:52:25.503Z</time></trkpt><trkpt lat="43.2806087" lon="10.7522249"><ele>451.99999999999994</ele><time>2026-04-18T10:52:26.498Z</time></trkpt><trkpt lat="43.2806943" lon="10.7522087"><ele>452.0</ele><time>2026-04-18T10:52:27.501Z</time></trkpt><trkpt lat="43.2807818" lon="10.752191"><ele>451.8</ele><time>2026-04-18T10:52:28.502Z</time></trkpt><trkpt lat="43.2808795" lon="10.7521794"><ele>451.6</ele><time>2026-04-18T10:52:29.524Z</time></trkpt><trkpt lat="43.2809758" lon="10.7521676"><ele>451.40000000000003</ele><time>2026-04-18T10:52:30.502Z</time></trkpt><trkpt lat="43.2810575" lon="10.7521587"><ele>451.20000000000005</ele><time>2026-04-18T10:52:31.509Z</time></trkpt><trkpt lat="43.2811492" lon="10.7521489"><ele>451.0</ele><time>2026-04-18T10:52:32.491Z</time></trkpt><trkpt lat="43.281242" lon="10.7521303"><ele>451.00000000000006</ele><time>2026-04-18T10:52:33.489Z</time></trkpt><trkpt lat="43.2813143" lon="10.7521258"><ele>451.0</ele><time>2026-04-18T10:52:34.491Z</time></trkpt><trkpt lat="43.2814343" lon="10.7520969"><ele>451.0</ele><time>2026-04-18T10:52:36.494Z</time></trkpt><trkpt lat="43.2814908" lon="10.7520539"><ele>451.0</ele><time>2026-04-18T10:52:37.495Z</time></trkpt><trkpt lat="43.2815406" lon="10.7519989"><ele>451.00000000000006</ele><time>2026-04-18T10:52:38.495Z</time></trkpt><trkpt lat="43.2816167" lon="10.7518611"><ele>451.0</ele><time>2026-04-18T10:52:40.512Z</time></trkpt><trkpt lat="43.2816463" lon="10.751772"><ele>449.50000000000006</ele><time>2026-04-18T10:52:41.502Z</time></trkpt><trkpt lat="43.2816598" lon="10.7516752"><ele>448.0</ele><time>2026-04-18T10:52:42.548Z</time></trkpt><trkpt lat="43.2816869" lon="10.7515739"><ele>446.5</ele><time>2026-04-18T10:52:43.525Z</time></trkpt><trkpt lat="43.2817046" lon="10.751464"><ele>445.0</ele><time>2026-04-18T10:52:44.522Z</time></trkpt><trkpt lat="43.2817152" lon="10.7513597"><ele>443.50000000000006</ele><time>2026-04-18T10:52:45.508Z</time></trkpt><trkpt lat="43.2817235" lon="10.7512604"><ele>442.0</ele><time>2026-04-18T10:52:46.5Z</time></trkpt><trkpt lat="43.2817292" lon="10.7511665"><ele>441.0</ele><time>2026-04-18T10:52:47.549Z</time></trkpt><trkpt lat="43.2817287" lon="10.7510121"><ele>440.00000000000006</ele><time>2026-04-18T10:52:49.502Z</time></trkpt><trkpt lat="43.2817575" lon="10.7508799"><ele>439.00000000000006</ele><time>2026-04-18T10:52:51.488Z</time></trkpt><trkpt lat="43.2817696" lon="10.7507536"><ele>438.0</ele><time>2026-04-18T10:52:53.514Z</time></trkpt><trkpt lat="43.2817241" lon="10.7506377"><ele>437.0</ele><time>2026-04-18T10:52:55.507Z</time></trkpt><trkpt lat="43.2816612" lon="10.7505115"><ele>437.0</ele><time>2026-04-18T10:52:57.528Z</time></trkpt><trkpt lat="43.2816094" lon="10.7504003"><ele>437.00000000000006</ele><time>2026-04-18T10:52:59.516Z</time></trkpt><trkpt lat="43.2815918" lon="10.750278"><ele>437.00000000000006</ele><time>2026-04-18T10:53:01.51Z</time></trkpt><trkpt lat="43.2815935" lon="10.7501533"><ele>437.0</ele><time>2026-04-18T10:53:03.521Z</time></trkpt><trkpt lat="43.281622" lon="10.7499823"><ele>437.0</ele><time>2026-04-18T10:53:05.515Z</time></trkpt><trkpt lat="43.2816417" lon="10.7498918"><ele>436.2857142857143</ele><time>2026-04-18T10:53:06.501Z</time></trkpt><trkpt lat="43.281664" lon="10.7497956"><ele>435.5714285714286</ele><time>2026-04-18T10:53:07.512Z</time></trkpt><trkpt lat="43.2816947" lon="10.7497032"><ele>434.8571428571429</ele><time>2026-04-18T10:53:08.52Z</time></trkpt><trkpt lat="43.2817326" lon="10.7496211"><ele>434.1428571428571</ele><time>2026-04-18T10:53:09.502Z</time></trkpt><trkpt lat="43.2817661" lon="10.7495441"><ele>433.42857142857144</ele><time>2026-04-18T10:53:10.503Z</time></trkpt><trkpt lat="43.2818018" lon="10.7494616"><ele>432.7142857142857</ele><time>2026-04-18T10:53:11.502Z</time></trkpt><trkpt lat="43.2818315" lon="10.7493838"><ele>432.0</ele><time>2026-04-18T10:53:12.493Z</time></trkpt><trkpt lat="43.2818905" lon="10.7492546"><ele>431.8</ele><time>2026-04-18T10:53:14.517Z</time></trkpt><trkpt lat="43.2819506" lon="10.7491644"><ele>431.6</ele><time>2026-04-18T10:53:16.517Z</time></trkpt><trkpt lat="43.2820293" lon="10.7491293"><ele>431.40000000000003</ele><time>2026-04-18T10:53:18.507Z</time></trkpt><trkpt lat="43.2821283" lon="10.7491243"><ele>431.20000000000005</ele><time>2026-04-18T10:53:20.51Z</time></trkpt><trkpt lat="43.2822215" lon="10.7491071"><ele>431.0</ele><time>2026-04-18T10:53:22.492Z</time></trkpt><trkpt lat="43.2823157" lon="10.749041"><ele>430.99999999999994</ele><time>2026-04-18T10:53:24.487Z</time></trkpt><trkpt lat="43.2823692" lon="10.7488906"><ele>431.0</ele><time>2026-04-18T10:53:26.498Z</time></trkpt><trkpt lat="43.2823656" lon="10.7488014"><ele>431.0</ele><time>2026-04-18T10:53:27.503Z</time></trkpt><trkpt lat="43.2823534" lon="10.7487154"><ele>431.0</ele><time>2026-04-18T10:53:28.504Z</time></trkpt><trkpt lat="43.2823168" lon="10.7485775"><ele>430.99999999999994</ele><time>2026-04-18T10:53:30.511Z</time></trkpt><trkpt lat="43.2823043" lon="10.7484709"><ele>431.0</ele><time>2026-04-18T10:53:32.501Z</time></trkpt><trkpt lat="43.2823316" lon="10.7483666"><ele>428.20000000000005</ele><time>2026-04-18T10:53:34.521Z</time></trkpt><trkpt lat="43.2823901" lon="10.7482725"><ele>425.40000000000003</ele><time>2026-04-18T10:53:36.49Z</time></trkpt><trkpt lat="43.2824356" lon="10.7481296"><ele>422.6</ele><time>2026-04-18T10:53:38.507Z</time></trkpt><trkpt lat="43.2825208" lon="10.7480077"><ele>419.8</ele><time>2026-04-18T10:53:40.517Z</time></trkpt><trkpt lat="43.2825785" lon="10.7479617"><ele>417.0</ele><time>2026-04-18T10:53:41.511Z</time></trkpt><trkpt lat="43.2826669" lon="10.7478804"><ele>417.0</ele><time>2026-04-18T10:53:43.507Z</time></trkpt><trkpt lat="43.2827395" lon="10.7477774"><ele>417.0</ele><time>2026-04-18T10:53:45.505Z</time></trkpt><trkpt lat="43.2828145" lon="10.7476869"><ele>417.0</ele><time>2026-04-18T10:53:47.508Z</time></trkpt><trkpt lat="43.2828944" lon="10.7476704"><ele>417.0</ele><time>2026-04-18T10:53:49.501Z</time></trkpt><trkpt lat="43.2829838" lon="10.7476636"><ele>417.0</ele><time>2026-04-18T10:53:51.511Z</time></trkpt><trkpt lat="43.2830436" lon="10.7475834"><ele>416.40000000000003</ele><time>2026-04-18T10:53:53.506Z</time></trkpt><trkpt lat="43.2830673" lon="10.7474463"><ele>415.8</ele><time>2026-04-18T10:53:55.498Z</time></trkpt><trkpt lat="43.2830685" lon="10.7473016"><ele>415.2</ele><time>2026-04-18T10:53:57.505Z</time></trkpt><trkpt lat="43.2831256" lon="10.7471775"><ele>414.6</ele><time>2026-04-18T10:53:59.497Z</time></trkpt><trkpt lat="43.2832202" lon="10.7471125"><ele>414.0</ele><time>2026-04-18T10:54:01.513Z</time></trkpt><trkpt lat="43.2833637" lon="10.7470853"><ele>414.00000000000006</ele><time>2026-04-18T10:54:03.508Z</time></trkpt><trkpt lat="43.2834273" lon="10.7470927"><ele>414.0</ele><time>2026-04-18T10:54:04.516Z</time></trkpt><trkpt lat="43.2834951" lon="10.7471064"><ele>414.0</ele><time>2026-04-18T10:54:05.503Z</time></trkpt><trkpt lat="43.2835625" lon="10.7471152"><ele>414.0</ele><time>2026-04-18T10:54:06.494Z</time></trkpt><trkpt lat="43.2836296" lon="10.7471011"><ele>414.0</ele><time>2026-04-18T10:54:07.494Z</time></trkpt><trkpt lat="43.2837053" lon="10.747004"><ele>414.00000000000006</ele><time>2026-04-18T10:54:09.509Z</time></trkpt><trkpt lat="43.2837222" lon="10.7469187"><ele>414.0</ele><time>2026-04-18T10:54:11.504Z</time></trkpt><trkpt lat="43.2837137" lon="10.7468299"><ele>411.6</ele><time>2026-04-18T10:54:13.509Z</time></trkpt><trkpt lat="43.2836498" lon="10.7467323"><ele>409.2</ele><time>2026-04-18T10:54:16.5Z</time></trkpt><trkpt lat="43.2835424" lon="10.7466837"><ele>406.8</ele><time>2026-04-18T10:54:18.496Z</time></trkpt><trkpt lat="43.2834461" lon="10.746607"><ele>404.40000000000003</ele><time>2026-04-18T10:54:20.496Z</time></trkpt><trkpt lat="43.2833779" lon="10.7464965"><ele>402.0</ele><time>2026-04-18T10:54:22.5Z</time></trkpt><trkpt lat="43.2833727" lon="10.7463635"><ele>402.0</ele><time>2026-04-18T10:54:24.498Z</time></trkpt><trkpt lat="43.2834168" lon="10.746184"><ele>402.0</ele><time>2026-04-18T10:54:26.502Z</time></trkpt><trkpt lat="43.2834459" lon="10.7460889"><ele>402.0</ele><time>2026-04-18T10:54:27.5Z</time></trkpt><trkpt lat="43.2834823" lon="10.7459958"><ele>402.0</ele><time>2026-04-18T10:54:28.536Z</time></trkpt><trkpt lat="43.2835207" lon="10.7459045"><ele>402.0</ele><time>2026-04-18T10:54:29.51Z</time></trkpt><trkpt lat="43.2835643" lon="10.7458174"><ele>402.0</ele><time>2026-04-18T10:54:30.52Z</time></trkpt><trkpt lat="43.2836243" lon="10.7456636"><ele>400.20000000000005</ele><time>2026-04-18T10:54:32.511Z</time></trkpt><trkpt lat="43.2836641" lon="10.7455867"><ele>398.4</ele><time>2026-04-18T10:54:33.504Z</time></trkpt><trkpt lat="43.2837036" lon="10.7454366"><ele>396.6</ele><time>2026-04-18T10:54:35.501Z</time></trkpt><trkpt lat="43.2837286" lon="10.7452829"><ele>394.79999999999995</ele><time>2026-04-18T10:54:37.504Z</time></trkpt><trkpt lat="43.2837147" lon="10.7451219"><ele>393.0</ele><time>2026-04-18T10:54:39.506Z</time></trkpt><trkpt lat="43.283681" lon="10.7449666"><ele>392.2</ele><time>2026-04-18T10:54:41.508Z</time></trkpt><trkpt lat="43.2836218" lon="10.7448188"><ele>391.4</ele><time>2026-04-18T10:54:43.504Z</time></trkpt><trkpt lat="43.2835888" lon="10.7447421"><ele>390.59999999999997</ele><time>2026-04-18T10:54:44.502Z</time></trkpt><trkpt lat="43.2835287" lon="10.7445848"><ele>389.79999999999995</ele><time>2026-04-18T10:54:46.512Z</time></trkpt><trkpt lat="43.2834853" lon="10.744436"><ele>389.0</ele><time>2026-04-18T10:54:48.512Z</time></trkpt><trkpt lat="43.2834452" lon="10.744365"><ele>388.4</ele><time>2026-04-18T10:54:49.509Z</time></trkpt><trkpt lat="43.2833599" lon="10.7442431"><ele>387.79999999999995</ele><time>2026-04-18T10:54:51.519Z</time></trkpt><trkpt lat="43.2833158" lon="10.7441661"><ele>387.20000000000005</ele><time>2026-04-18T10:54:52.51Z</time></trkpt><trkpt lat="43.2832395" lon="10.7440341"><ele>386.6</ele><time>2026-04-18T10:54:54.513Z</time></trkpt><trkpt lat="43.2831681" lon="10.7439008"><ele>386.0</ele><time>2026-04-18T10:54:56.572Z</time></trkpt><trkpt lat="43.2831204" lon="10.7438252"><ele>384.3333333333333</ele><time>2026-04-18T10:54:57.518Z</time></trkpt><trkpt lat="43.283086" lon="10.7437522"><ele>382.66666666666663</ele><time>2026-04-18T10:54:58.504Z</time></trkpt><trkpt lat="43.283051" lon="10.7436767"><ele>381.0</ele><time>2026-04-18T10:54:59.506Z</time></trkpt><trkpt lat="43.2830179" lon="10.743602"><ele>379.3333333333333</ele><time>2026-04-18T10:55:00.506Z</time></trkpt><trkpt lat="43.2829766" lon="10.743464"><ele>377.66666666666663</ele><time>2026-04-18T10:55:02.508Z</time></trkpt><trkpt lat="43.2829611" lon="10.7433193"><ele>376.0</ele><time>2026-04-18T10:55:04.53Z</time></trkpt><trkpt lat="43.2829486" lon="10.7432339"><ele>376.8</ele><time>2026-04-18T10:55:05.51Z</time></trkpt><trkpt lat="43.2829309" lon="10.7430694"><ele>377.6</ele><time>2026-04-18T10:55:07.514Z</time></trkpt><trkpt lat="43.2829399" lon="10.7429153"><ele>378.4</ele><time>2026-04-18T10:55:09.517Z</time></trkpt><trkpt lat="43.2830099" lon="10.7428538"><ele>379.2</ele><time>2026-04-18T10:55:11.506Z</time></trkpt><trkpt lat="43.2831" lon="10.7428446"><ele>380.0</ele><time>2026-04-18T10:55:13.505Z</time></trkpt><trkpt lat="43.2831934" lon="10.7427877"><ele>377.5</ele><time>2026-04-18T10:55:15.507Z</time></trkpt><trkpt lat="43.283267" lon="10.7426804"><ele>375.0</ele><time>2026-04-18T10:55:17.51Z</time></trkpt><trkpt lat="43.2833671" lon="10.7425959"><ele>372.5</ele><time>2026-04-18T10:55:19.51Z</time></trkpt><trkpt lat="43.2834891" lon="10.7425709"><ele>370.0</ele><time>2026-04-18T10:55:21.515Z</time></trkpt><trkpt lat="43.2836017" lon="10.7426255"><ele>370.0</ele><time>2026-04-18T10:55:23.504Z</time></trkpt><trkpt lat="43.2836629" lon="10.7426742"><ele>370.0</ele><time>2026-04-18T10:55:24.508Z</time></trkpt><trkpt lat="43.2837144" lon="10.7427273"><ele>370.0</ele><time>2026-04-18T10:55:25.516Z</time></trkpt><trkpt lat="43.2837656" lon="10.7427856"><ele>370.0</ele><time>2026-04-18T10:55:26.515Z</time></trkpt><trkpt lat="43.2838196" lon="10.7428432"><ele>370.0</ele><time>2026-04-18T10:55:27.514Z</time></trkpt><trkpt lat="43.2839348" lon="10.7429041"><ele>370.0</ele><time>2026-04-18T10:55:29.516Z</time></trkpt><trkpt lat="43.2840658" lon="10.7429112"><ele>370.66666666666663</ele><time>2026-04-18T10:55:31.524Z</time></trkpt><trkpt lat="43.2841381" lon="10.7429201"><ele>371.3333333333333</ele><time>2026-04-18T10:55:32.513Z</time></trkpt><trkpt lat="43.2842062" lon="10.7429437"><ele>372.0</ele><time>2026-04-18T10:55:33.52Z</time></trkpt><trkpt lat="43.2842634" lon="10.7429814"><ele>372.6666666666667</ele><time>2026-04-18T10:55:34.538Z</time></trkpt><trkpt lat="43.2843166" lon="10.7430281"><ele>373.33333333333337</ele><time>2026-04-18T10:55:35.513Z</time></trkpt><trkpt lat="43.2844336" lon="10.7430615"><ele>374.0</ele><time>2026-04-18T10:55:37.511Z</time></trkpt><trkpt lat="43.2844968" lon="10.7430503"><ele>374.0</ele><time>2026-04-18T10:55:38.523Z</time></trkpt><trkpt lat="43.2845577" lon="10.7430282"><ele>374.0</ele><time>2026-04-18T10:55:39.509Z</time></trkpt><trkpt lat="43.2846638" lon="10.7429789"><ele>374.0</ele><time>2026-04-18T10:55:41.502Z</time></trkpt><trkpt lat="43.2847549" lon="10.7429705"><ele>374.0</ele><time>2026-04-18T10:55:43.499Z</time></trkpt><trkpt lat="43.284871" lon="10.7429804"><ele>374.0</ele><time>2026-04-18T10:55:45.49Z</time></trkpt><trkpt lat="43.2849798" lon="10.7430542"><ele>372.6666666666667</ele><time>2026-04-18T10:55:47.527Z</time></trkpt><trkpt lat="43.2850408" lon="10.7431096"><ele>371.33333333333337</ele><time>2026-04-18T10:55:48.499Z</time></trkpt><trkpt lat="43.2850935" lon="10.7431725"><ele>370.0</ele><time>2026-04-18T10:55:49.507Z</time></trkpt><trkpt lat="43.285141" lon="10.7432346"><ele>368.6666666666667</ele><time>2026-04-18T10:55:50.505Z</time></trkpt><trkpt lat="43.2852301" lon="10.7433171"><ele>367.3333333333333</ele><time>2026-04-18T10:55:52.51Z</time></trkpt><trkpt lat="43.2853422" lon="10.743362"><ele>366.0</ele><time>2026-04-18T10:55:54.504Z</time></trkpt><trkpt lat="43.2854551" lon="10.7433546"><ele>366.0</ele><time>2026-04-18T10:55:56.504Z</time></trkpt><trkpt lat="43.2855648" lon="10.74342"><ele>366.0</ele><time>2026-04-18T10:55:58.506Z</time></trkpt><trkpt lat="43.2856159" lon="10.7434813"><ele>366.0</ele><time>2026-04-18T10:55:59.506Z</time></trkpt><trkpt lat="43.2856681" lon="10.7436268"><ele>366.0</ele><time>2026-04-18T10:56:01.494Z</time></trkpt><trkpt lat="43.2857095" lon="10.7437688"><ele>366.0</ele><time>2026-04-18T10:56:03.504Z</time></trkpt><trkpt lat="43.2857659" lon="10.74388"><ele>366.20000000000005</ele><time>2026-04-18T10:56:05.505Z</time></trkpt><trkpt lat="43.2858495" lon="10.7439242"><ele>366.40000000000003</ele><time>2026-04-18T10:56:07.498Z</time></trkpt><trkpt lat="43.2858895" lon="10.7438256"><ele>366.6</ele><time>2026-04-18T10:56:09.508Z</time></trkpt><trkpt lat="43.28586" lon="10.7436906"><ele>366.8</ele><time>2026-04-18T10:56:11.492Z</time></trkpt><trkpt lat="43.2858386" lon="10.74356"><ele>367.0</ele><time>2026-04-18T10:56:13.497Z</time></trkpt><trkpt lat="43.2858339" lon="10.7434222"><ele>365.40000000000003</ele><time>2026-04-18T10:56:15.485Z</time></trkpt><trkpt lat="43.2858371" lon="10.743296"><ele>363.8</ele><time>2026-04-18T10:56:17.5Z</time></trkpt><trkpt lat="43.2859093" lon="10.7431627"><ele>362.2</ele><time>2026-04-18T10:56:19.499Z</time></trkpt><trkpt lat="43.2859601" lon="10.743092"><ele>360.6</ele><time>2026-04-18T10:56:20.493Z</time></trkpt><trkpt lat="43.2860523" lon="10.7429594"><ele>359.0</ele><time>2026-04-18T10:56:22.502Z</time></trkpt><trkpt lat="43.2860892" lon="10.7428833"><ele>359.0</ele><time>2026-04-18T10:56:23.537Z</time></trkpt><trkpt lat="43.2861109" lon="10.7427888"><ele>359.0</ele><time>2026-04-18T10:56:24.502Z</time></trkpt><trkpt lat="43.2861323" lon="10.7426817"><ele>359.0</ele><time>2026-04-18T10:56:25.488Z</time></trkpt><trkpt lat="43.2861636" lon="10.7425727"><ele>359.0</ele><time>2026-04-18T10:56:26.49Z</time></trkpt><trkpt lat="43.2861901" lon="10.7424838"><ele>359.0</ele><time>2026-04-18T10:56:27.493Z</time></trkpt><trkpt lat="43.2862124" lon="10.7423977"><ele>359.0</ele><time>2026-04-18T10:56:28.493Z</time></trkpt><trkpt lat="43.2862277" lon="10.7423078"><ele>359.0</ele><time>2026-04-18T10:56:29.496Z</time></trkpt><trkpt lat="43.2862385" lon="10.7422015"><ele>357.33333333333337</ele><time>2026-04-18T10:56:30.503Z</time></trkpt><trkpt lat="43.2862642" lon="10.7421101"><ele>355.6666666666667</ele><time>2026-04-18T10:56:31.506Z</time></trkpt><trkpt lat="43.2863318" lon="10.7419679"><ele>354.0</ele><time>2026-04-18T10:56:33.498Z</time></trkpt><trkpt lat="43.2863687" lon="10.7418952"><ele>352.3333333333333</ele><time>2026-04-18T10:56:34.51Z</time></trkpt><trkpt lat="43.2864059" lon="10.7418088"><ele>350.66666666666663</ele><time>2026-04-18T10:56:35.495Z</time></trkpt><trkpt lat="43.2864465" lon="10.741704"><ele>349.0</ele><time>2026-04-18T10:56:36.5Z</time></trkpt><trkpt lat="43.2864769" lon="10.7415751"><ele>349.0</ele><time>2026-04-18T10:56:37.49Z</time></trkpt><trkpt lat="43.2865227" lon="10.7414652"><ele>349.0</ele><time>2026-04-18T10:56:38.5Z</time></trkpt><trkpt lat="43.2865604" lon="10.7413757"><ele>349.0</ele><time>2026-04-18T10:56:39.5Z</time></trkpt><trkpt lat="43.2866266" lon="10.7412742"><ele>349.0</ele><time>2026-04-18T10:56:41.498Z</time></trkpt><trkpt lat="43.2866755" lon="10.7411767"><ele>349.0</ele><time>2026-04-18T10:56:43.52Z</time></trkpt><trkpt lat="43.286691" lon="10.741082"><ele>349.0</ele><time>2026-04-18T10:56:44.501Z</time></trkpt><trkpt lat="43.2867156" lon="10.7409802"><ele>345.8333333333333</ele><time>2026-04-18T10:56:45.498Z</time></trkpt><trkpt lat="43.2867467" lon="10.7408836"><ele>342.66666666666663</ele><time>2026-04-18T10:56:46.503Z</time></trkpt><trkpt lat="43.2867825" lon="10.7407768"><ele>339.5</ele><time>2026-04-18T10:56:47.511Z</time></trkpt><trkpt lat="43.286832" lon="10.740612"><ele>336.3333333333333</ele><time>2026-04-18T10:56:49.487Z</time></trkpt><trkpt lat="43.286863" lon="10.7405103"><ele>333.1666666666667</ele><time>2026-04-18T10:56:50.494Z</time></trkpt><trkpt lat="43.2868993" lon="10.7404219"><ele>330.0</ele><time>2026-04-18T10:56:51.504Z</time></trkpt><trkpt lat="43.2869366" lon="10.7403328"><ele>330.0</ele><time>2026-04-18T10:56:52.494Z</time></trkpt><trkpt lat="43.2869793" lon="10.7402437"><ele>330.0</ele><time>2026-04-18T10:56:53.51Z</time></trkpt><trkpt lat="43.2870249" lon="10.7401621"><ele>330.0</ele><time>2026-04-18T10:56:54.504Z</time></trkpt><trkpt lat="43.2870698" lon="10.7400984"><ele>330.0</ele><time>2026-04-18T10:56:55.492Z</time></trkpt><trkpt lat="43.2871619" lon="10.7399881"><ele>330.0</ele><time>2026-04-18T10:56:57.498Z</time></trkpt><trkpt lat="43.2872413" lon="10.7398921"><ele>330.0</ele><time>2026-04-18T10:56:59.493Z</time></trkpt><trkpt lat="43.2872878" lon="10.7397593"><ele>331.3333333333333</ele><time>2026-04-18T10:57:01.52Z</time></trkpt><trkpt lat="43.2873366" lon="10.7396311"><ele>332.6666666666667</ele><time>2026-04-18T10:57:03.493Z</time></trkpt><trkpt lat="43.287376" lon="10.7395335"><ele>334.0</ele><time>2026-04-18T10:57:05.493Z</time></trkpt><trkpt lat="43.2874227" lon="10.7394651"><ele>335.33333333333337</ele><time>2026-04-18T10:57:07.502Z</time></trkpt><trkpt lat="43.2874987" lon="10.7393897"><ele>336.6666666666667</ele><time>2026-04-18T10:57:10.509Z</time></trkpt><trkpt lat="43.2875587" lon="10.739347"><ele>338.0</ele><time>2026-04-18T10:57:12.505Z</time></trkpt><trkpt lat="43.2876457" lon="10.7393396"><ele>338.0</ele><time>2026-04-18T10:57:14.497Z</time></trkpt><trkpt lat="43.2877193" lon="10.7393551"><ele>338.0</ele><time>2026-04-18T10:57:16.507Z</time></trkpt><trkpt lat="43.2877925" lon="10.7394071"><ele>338.0</ele><time>2026-04-18T10:57:18.508Z</time></trkpt><trkpt lat="43.2878497" lon="10.7394874"><ele>338.0</ele><time>2026-04-18T10:57:20.497Z</time></trkpt><trkpt lat="43.2879152" lon="10.7395786"><ele>338.0</ele><time>2026-04-18T10:57:22.503Z</time></trkpt><trkpt lat="43.2879827" lon="10.7396525"><ele>338.0</ele><time>2026-04-18T10:57:24.486Z</time></trkpt><trkpt lat="43.2880744" lon="10.7396423"><ele>338.0</ele><time>2026-04-18T10:57:26.48Z</time></trkpt><trkpt lat="43.2880779" lon="10.7394942"><ele>338.0</ele><time>2026-04-18T10:57:28.492Z</time></trkpt><trkpt lat="43.2881053" lon="10.7393478"><ele>338.0</ele><time>2026-04-18T10:57:30.486Z</time></trkpt><trkpt lat="43.2881692" lon="10.7391999"><ele>338.0</ele><time>2026-04-18T10:57:32.49Z</time></trkpt><trkpt lat="43.2882052" lon="10.7391191"><ele>338.0</ele><time>2026-04-18T10:57:33.491Z</time></trkpt><trkpt lat="43.288292" lon="10.7389849"><ele>336.6666666666667</ele><time>2026-04-18T10:57:35.498Z</time></trkpt><trkpt lat="43.2883387" lon="10.738915"><ele>335.33333333333337</ele><time>2026-04-18T10:57:36.495Z</time></trkpt><trkpt lat="43.2883896" lon="10.7388376"><ele>334.0</ele><time>2026-04-18T10:57:37.501Z</time></trkpt><trkpt lat="43.2884509" lon="10.738776"><ele>332.6666666666667</ele><time>2026-04-18T10:57:38.494Z</time></trkpt><trkpt lat="43.2885018" lon="10.7387012"><ele>331.3333333333333</ele><time>2026-04-18T10:57:39.503Z</time></trkpt><trkpt lat="43.2885573" lon="10.7386295"><ele>330.0</ele><time>2026-04-18T10:57:40.493Z</time></trkpt><trkpt lat="43.2886223" lon="10.7385681"><ele>329.4</ele><time>2026-04-18T10:57:41.489Z</time></trkpt><trkpt lat="43.2886891" lon="10.7385008"><ele>328.8</ele><time>2026-04-18T10:57:42.488Z</time></trkpt><trkpt lat="43.2887797" lon="10.7384432"><ele>328.20000000000005</ele><time>2026-04-18T10:57:43.498Z</time></trkpt><trkpt lat="43.288874" lon="10.7383715"><ele>327.6</ele><time>2026-04-18T10:57:44.485Z</time></trkpt><trkpt lat="43.2889638" lon="10.7383071"><ele>327.0</ele><time>2026-04-18T10:57:45.489Z</time></trkpt><trkpt lat="43.2890209" lon="10.7382658"><ele>327.0</ele><time>2026-04-18T10:57:46.492Z</time></trkpt><trkpt lat="43.2890798" lon="10.738213"><ele>327.0</ele><time>2026-04-18T10:57:47.488Z</time></trkpt><trkpt lat="43.2891344" lon="10.7381633"><ele>327.0</ele><time>2026-04-18T10:57:48.503Z</time></trkpt><trkpt lat="43.2892008" lon="10.7381097"><ele>327.0</ele><time>2026-04-18T10:57:49.488Z</time></trkpt><trkpt lat="43.2893062" lon="10.7380304"><ele>327.0</ele><time>2026-04-18T10:57:51.493Z</time></trkpt><trkpt lat="43.289377" lon="10.7379938"><ele>327.0</ele><time>2026-04-18T10:57:52.5Z</time></trkpt><trkpt lat="43.2894526" lon="10.7379687"><ele>327.0</ele><time>2026-04-18T10:57:53.508Z</time></trkpt><trkpt lat="43.2895153" lon="10.7379251"><ele>327.0</ele><time>2026-04-18T10:57:54.492Z</time></trkpt><trkpt lat="43.2895625" lon="10.7378661"><ele>327.0</ele><time>2026-04-18T10:57:55.506Z</time></trkpt><trkpt lat="43.2896159" lon="10.737793"><ele>327.0</ele><time>2026-04-18T10:57:56.493Z</time></trkpt><trkpt lat="43.2896717" lon="10.73771"><ele>327.0</ele><time>2026-04-18T10:57:57.49Z</time></trkpt><trkpt lat="43.2897361" lon="10.7376296"><ele>327.0</ele><time>2026-04-18T10:57:58.501Z</time></trkpt><trkpt lat="43.2897942" lon="10.7375699"><ele>325.3333333333333</ele><time>2026-04-18T10:57:59.499Z</time></trkpt><trkpt lat="43.2898549" lon="10.737511"><ele>323.6666666666667</ele><time>2026-04-18T10:58:00.511Z</time></trkpt><trkpt lat="43.2899172" lon="10.7374517"><ele>322.0</ele><time>2026-04-18T10:58:01.492Z</time></trkpt><trkpt lat="43.2899684" lon="10.7373944"><ele>320.33333333333337</ele><time>2026-04-18T10:58:02.478Z</time></trkpt><trkpt lat="43.290015" lon="10.7373342"><ele>318.6666666666667</ele><time>2026-04-18T10:58:03.495Z</time></trkpt><trkpt lat="43.2900963" lon="10.7372439"><ele>317.0</ele><time>2026-04-18T10:58:05.499Z</time></trkpt><trkpt lat="43.2901667" lon="10.7371469"><ele>317.0</ele><time>2026-04-18T10:58:07.49Z</time></trkpt><trkpt lat="43.2902155" lon="10.7370507"><ele>317.0</ele><time>2026-04-18T10:58:09.499Z</time></trkpt><trkpt lat="43.2902697" lon="10.7369239"><ele>317.0</ele><time>2026-04-18T10:58:11.485Z</time></trkpt><trkpt lat="43.2903035" lon="10.73678"><ele>317.0</ele><time>2026-04-18T10:58:13.497Z</time></trkpt><trkpt lat="43.2903207" lon="10.7366792"><ele>317.0</ele><time>2026-04-18T10:58:14.496Z</time></trkpt><trkpt lat="43.2903416" lon="10.7365901"><ele>317.0</ele><time>2026-04-18T10:58:15.493Z</time></trkpt><trkpt lat="43.2903391" lon="10.7364826"><ele>315.0</ele><time>2026-04-18T10:58:16.483Z</time></trkpt><trkpt lat="43.2903273" lon="10.7363908"><ele>313.0</ele><time>2026-04-18T10:58:17.487Z</time></trkpt><trkpt lat="43.2903027" lon="10.7363009"><ele>311.0</ele><time>2026-04-18T10:58:18.489Z</time></trkpt><trkpt lat="43.2902757" lon="10.7362136"><ele>309.0</ele><time>2026-04-18T10:58:19.486Z</time></trkpt><trkpt lat="43.2902313" lon="10.736124"><ele>307.0</ele><time>2026-04-18T10:58:20.483Z</time></trkpt><trkpt lat="43.290189" lon="10.7360564"><ele>305.0</ele><time>2026-04-18T10:58:21.5Z</time></trkpt><trkpt lat="43.2901341" lon="10.7360078"><ele>303.0</ele><time>2026-04-18T10:58:22.507Z</time></trkpt><trkpt lat="43.2900053" lon="10.735982"><ele>303.0</ele><time>2026-04-18T10:58:24.507Z</time></trkpt><trkpt lat="43.289939" lon="10.7359404"><ele>303.0</ele><time>2026-04-18T10:58:25.497Z</time></trkpt><trkpt lat="43.2898682" lon="10.7359041"><ele>303.0</ele><time>2026-04-18T10:58:26.492Z</time></trkpt><trkpt lat="43.28978" lon="10.7358725"><ele>303.0</ele><time>2026-04-18T10:58:27.492Z</time></trkpt><trkpt lat="43.2896838" lon="10.735835"><ele>303.0</ele><time>2026-04-18T10:58:28.498Z</time></trkpt><trkpt lat="43.2895964" lon="10.7358007"><ele>303.0</ele><time>2026-04-18T10:58:29.523Z</time></trkpt><trkpt lat="43.2895084" lon="10.7357565"><ele>300.3333333333333</ele><time>2026-04-18T10:58:30.513Z</time></trkpt><trkpt lat="43.2894264" lon="10.7357225"><ele>297.6666666666667</ele><time>2026-04-18T10:58:31.509Z</time></trkpt><trkpt lat="43.289357" lon="10.7356789"><ele>295.0</ele><time>2026-04-18T10:58:32.521Z</time></trkpt><trkpt lat="43.2892845" lon="10.7356151"><ele>292.33333333333337</ele><time>2026-04-18T10:58:33.504Z</time></trkpt><trkpt lat="43.28923" lon="10.7355316"><ele>289.6666666666667</ele><time>2026-04-18T10:58:34.507Z</time></trkpt><trkpt lat="43.2891964" lon="10.7354305"><ele>287.0</ele><time>2026-04-18T10:58:35.507Z</time></trkpt><trkpt lat="43.2891878" lon="10.7353124"><ele>287.8</ele><time>2026-04-18T10:58:36.501Z</time></trkpt><trkpt lat="43.2891961" lon="10.7351838"><ele>288.6</ele><time>2026-04-18T10:58:37.505Z</time></trkpt><trkpt lat="43.2892149" lon="10.7350532"><ele>289.40000000000003</ele><time>2026-04-18T10:58:38.508Z</time></trkpt><trkpt lat="43.2892173" lon="10.7349327"><ele>290.2</ele><time>2026-04-18T10:58:39.501Z</time></trkpt><trkpt lat="43.2892155" lon="10.7347989"><ele>291.0</ele><time>2026-04-18T10:58:40.493Z</time></trkpt><trkpt lat="43.2891939" lon="10.7346886"><ele>291.0</ele><time>2026-04-18T10:58:41.512Z</time></trkpt><trkpt lat="43.2891585" lon="10.7345845"><ele>291.0</ele><time>2026-04-18T10:58:42.505Z</time></trkpt><trkpt lat="43.2891214" lon="10.7344951"><ele>291.0</ele><time>2026-04-18T10:58:43.52Z</time></trkpt><trkpt lat="43.2890912" lon="10.7343437"><ele>291.0</ele><time>2026-04-18T10:58:45.505Z</time></trkpt><trkpt lat="43.2891645" lon="10.7342143"><ele>291.0</ele><time>2026-04-18T10:58:47.516Z</time></trkpt><trkpt lat="43.2892226" lon="10.7341509"><ele>289.0</ele><time>2026-04-18T10:58:48.503Z</time></trkpt><trkpt lat="43.2892884" lon="10.7340765"><ele>287.0</ele><time>2026-04-18T10:58:49.504Z</time></trkpt><trkpt lat="43.2893598" lon="10.7339907"><ele>285.0</ele><time>2026-04-18T10:58:50.506Z</time></trkpt><trkpt lat="43.289434" lon="10.7339184"><ele>283.0</ele><time>2026-04-18T10:58:51.511Z</time></trkpt><trkpt lat="43.28951" lon="10.7338343"><ele>281.0</ele><time>2026-04-18T10:58:52.505Z</time></trkpt><trkpt lat="43.2895708" lon="10.733755"><ele>281.0</ele><time>2026-04-18T10:58:53.513Z</time></trkpt><trkpt lat="43.2896264" lon="10.7336628"><ele>281.0</ele><time>2026-04-18T10:58:54.494Z</time></trkpt><trkpt lat="43.2896805" lon="10.7335625"><ele>281.0</ele><time>2026-04-18T10:58:55.499Z</time></trkpt><trkpt lat="43.2897229" lon="10.733463"><ele>281.0</ele><time>2026-04-18T10:58:56.526Z</time></trkpt><trkpt lat="43.2897757" lon="10.7333847"><ele>281.0</ele><time>2026-04-18T10:58:57.515Z</time></trkpt><trkpt lat="43.2898325" lon="10.7333335"><ele>281.0</ele><time>2026-04-18T10:58:58.504Z</time></trkpt><trkpt lat="43.2899154" lon="10.7333018"><ele>281.1666666666667</ele><time>2026-04-18T10:58:59.512Z</time></trkpt><trkpt lat="43.2900089" lon="10.7332951"><ele>281.33333333333337</ele><time>2026-04-18T10:59:00.512Z</time></trkpt><trkpt lat="43.2900915" lon="10.7332967"><ele>281.5</ele><time>2026-04-18T10:59:01.493Z</time></trkpt><trkpt lat="43.2901699" lon="10.7333055"><ele>281.6666666666667</ele><time>2026-04-18T10:59:02.499Z</time></trkpt><trkpt lat="43.2902504" lon="10.7333301"><ele>281.8333333333333</ele><time>2026-04-18T10:59:03.483Z</time></trkpt><trkpt lat="43.2903272" lon="10.7333739"><ele>282.0</ele><time>2026-04-18T10:59:04.51Z</time></trkpt><trkpt lat="43.2903979" lon="10.7334174"><ele>282.0</ele><time>2026-04-18T10:59:05.512Z</time></trkpt><trkpt lat="43.2904645" lon="10.7334687"><ele>282.0</ele><time>2026-04-18T10:59:06.499Z</time></trkpt><trkpt lat="43.2905205" lon="10.7335176"><ele>282.0</ele><time>2026-04-18T10:59:07.5Z</time></trkpt><trkpt lat="43.2906028" lon="10.7336448"><ele>282.0</ele><time>2026-04-18T10:59:09.503Z</time></trkpt><trkpt lat="43.2906286" lon="10.7337368"><ele>282.0</ele><time>2026-04-18T10:59:10.499Z</time></trkpt><trkpt lat="43.2906426" lon="10.7338661"><ele>282.0</ele><time>2026-04-18T10:59:12.493Z</time></trkpt><trkpt lat="43.290705" lon="10.7339722"><ele>283.2</ele><time>2026-04-18T10:59:14.503Z</time></trkpt><trkpt lat="43.2908068" lon="10.7340215"><ele>284.4</ele><time>2026-04-18T10:59:16.511Z</time></trkpt><trkpt lat="43.2908698" lon="10.7340385"><ele>285.6</ele><time>2026-04-18T10:59:17.499Z</time></trkpt><trkpt lat="43.2909902" lon="10.7340442"><ele>286.8</ele><time>2026-04-18T10:59:19.506Z</time></trkpt><trkpt lat="43.2911236" lon="10.7340725"><ele>288.0</ele><time>2026-04-18T10:59:21.5Z</time></trkpt><trkpt lat="43.2911933" lon="10.7341043"><ele>288.0</ele><time>2026-04-18T10:59:22.506Z</time></trkpt><trkpt lat="43.2912565" lon="10.7341472"><ele>288.0</ele><time>2026-04-18T10:59:23.512Z</time></trkpt><trkpt lat="43.2913171" lon="10.7342071"><ele>288.0</ele><time>2026-04-18T10:59:24.512Z</time></trkpt><trkpt lat="43.2913882" lon="10.7342695"><ele>288.0</ele><time>2026-04-18T10:59:25.511Z</time></trkpt><trkpt lat="43.2914383" lon="10.7343591"><ele>288.0</ele><time>2026-04-18T10:59:26.488Z</time></trkpt><trkpt lat="43.2914894" lon="10.7344434"><ele>288.0</ele><time>2026-04-18T10:59:27.511Z</time></trkpt><trkpt lat="43.2915223" lon="10.7345359"><ele>287.6666666666667</ele><time>2026-04-18T10:59:28.502Z</time></trkpt><trkpt lat="43.2915462" lon="10.7346405"><ele>287.3333333333333</ele><time>2026-04-18T10:59:29.499Z</time></trkpt><trkpt lat="43.2915617" lon="10.7347431"><ele>287.0</ele><time>2026-04-18T10:59:30.501Z</time></trkpt><trkpt lat="43.2915654" lon="10.7348728"><ele>286.66666666666663</ele><time>2026-04-18T10:59:32.504Z</time></trkpt><trkpt lat="43.2916139" lon="10.7349706"><ele>286.3333333333333</ele><time>2026-04-18T10:59:34.502Z</time></trkpt><trkpt lat="43.2916988" lon="10.7349416"><ele>286.0</ele><time>2026-04-18T10:59:36.496Z</time></trkpt><trkpt lat="43.2917934" lon="10.7348478"><ele>285.99999999999994</ele><time>2026-04-18T10:59:38.5Z</time></trkpt><trkpt lat="43.2918575" lon="10.7347874"><ele>286.0</ele><time>2026-04-18T10:59:39.49Z</time></trkpt><trkpt lat="43.2919037" lon="10.7347238"><ele>286.0</ele><time>2026-04-18T10:59:40.484Z</time></trkpt><trkpt lat="43.2919585" lon="10.7346526"><ele>286.0</ele><time>2026-04-18T10:59:41.501Z</time></trkpt><trkpt lat="43.2919992" lon="10.7345639"><ele>286.0</ele><time>2026-04-18T10:59:42.502Z</time></trkpt><trkpt lat="43.2920263" lon="10.7344803"><ele>285.99999999999994</ele><time>2026-04-18T10:59:43.493Z</time></trkpt><trkpt lat="43.2920743" lon="10.734388"><ele>286.0</ele><time>2026-04-18T10:59:44.498Z</time></trkpt><trkpt lat="43.2921188" lon="10.7342315"><ele>286.0</ele><time>2026-04-18T10:59:46.492Z</time></trkpt><trkpt lat="43.2921479" lon="10.734141"><ele>286.0</ele><time>2026-04-18T10:59:47.488Z</time></trkpt><trkpt lat="43.2921822" lon="10.7340628"><ele>286.0</ele><time>2026-04-18T10:59:48.492Z</time></trkpt><trkpt lat="43.2922343" lon="10.7339127"><ele>286.0</ele><time>2026-04-18T10:59:50.491Z</time></trkpt><trkpt lat="43.2922525" lon="10.7337516"><ele>286.0</ele><time>2026-04-18T10:59:52.495Z</time></trkpt><trkpt lat="43.2922761" lon="10.7336018"><ele>283.3333333333333</ele><time>2026-04-18T10:59:54.496Z</time></trkpt><trkpt lat="43.2923106" lon="10.7334775"><ele>280.66666666666663</ele><time>2026-04-18T10:59:56.498Z</time></trkpt><trkpt lat="43.2923386" lon="10.7333355"><ele>278.0</ele><time>2026-04-18T10:59:58.484Z</time></trkpt><trkpt lat="43.2923542" lon="10.7332231"><ele>275.3333333333333</ele><time>2026-04-18T10:59:59.487Z</time></trkpt><trkpt lat="43.2923875" lon="10.7331327"><ele>272.6666666666667</ele><time>2026-04-18T11:00:00.491Z</time></trkpt><trkpt lat="43.2924288" lon="10.7330391"><ele>270.0</ele><time>2026-04-18T11:00:01.499Z</time></trkpt><trkpt lat="43.2925183" lon="10.7329572"><ele>270.0</ele><time>2026-04-18T11:00:02.487Z</time></trkpt><trkpt lat="43.2926175" lon="10.732949"><ele>270.0</ele><time>2026-04-18T11:00:03.481Z</time></trkpt><trkpt lat="43.2927157" lon="10.7329176"><ele>270.0</ele><time>2026-04-18T11:00:04.49Z</time></trkpt><trkpt lat="43.2927948" lon="10.732905"><ele>270.0</ele><time>2026-04-18T11:00:05.485Z</time></trkpt><trkpt lat="43.292909" lon="10.7328649"><ele>270.0</ele><time>2026-04-18T11:00:07.488Z</time></trkpt><trkpt lat="43.2930133" lon="10.7329127"><ele>269.4</ele><time>2026-04-18T11:00:09.496Z</time></trkpt><trkpt lat="43.2931011" lon="10.7328793"><ele>268.8</ele><time>2026-04-18T11:00:11.489Z</time></trkpt><trkpt lat="43.2931325" lon="10.7327488"><ele>268.2</ele><time>2026-04-18T11:00:13.481Z</time></trkpt><trkpt lat="43.293085" lon="10.7326192"><ele>267.6</ele><time>2026-04-18T11:00:15.495Z</time></trkpt><trkpt lat="43.2930817" lon="10.7324958"><ele>267.0</ele><time>2026-04-18T11:00:17.49Z</time></trkpt><trkpt lat="43.2931293" lon="10.7323434"><ele>267.0</ele><time>2026-04-18T11:00:19.5Z</time></trkpt><trkpt lat="43.2931514" lon="10.7322552"><ele>267.0</ele><time>2026-04-18T11:00:20.492Z</time></trkpt><trkpt lat="43.2931659" lon="10.7321685"><ele>267.0</ele><time>2026-04-18T11:00:21.505Z</time></trkpt><trkpt lat="43.2931695" lon="10.7320792"><ele>267.0</ele><time>2026-04-18T11:00:22.501Z</time></trkpt><trkpt lat="43.2931373" lon="10.7319739"><ele>267.0</ele><time>2026-04-18T11:00:24.496Z</time></trkpt><trkpt lat="43.2930677" lon="10.7318347"><ele>267.0</ele><time>2026-04-18T11:00:26.505Z</time></trkpt><trkpt lat="43.2930298" lon="10.731752"><ele>262.8333333333333</ele><time>2026-04-18T11:00:27.503Z</time></trkpt><trkpt lat="43.2929945" lon="10.7316527"><ele>258.6666666666667</ele><time>2026-04-18T11:00:28.501Z</time></trkpt><trkpt lat="43.292967" lon="10.7315554"><ele>254.5</ele><time>2026-04-18T11:00:29.508Z</time></trkpt><trkpt lat="43.2929526" lon="10.7314578"><ele>250.33333333333334</ele><time>2026-04-18T11:00:30.493Z</time></trkpt><trkpt lat="43.2929907" lon="10.731296"><ele>246.16666666666669</ele><time>2026-04-18T11:00:32.493Z</time></trkpt><trkpt lat="43.2930256" lon="10.731222"><ele>242.0</ele><time>2026-04-18T11:00:33.511Z</time></trkpt><trkpt lat="43.2930623" lon="10.7311488"><ele>244.50000000000003</ele><time>2026-04-18T11:00:34.517Z</time></trkpt><trkpt lat="43.2931159" lon="10.7310088"><ele>247.0</ele><time>2026-04-18T11:00:36.509Z</time></trkpt><trkpt lat="43.2931335" lon="10.7309201"><ele>249.5</ele><time>2026-04-18T11:00:37.501Z</time></trkpt><trkpt lat="43.2931522" lon="10.7308117"><ele>252.0</ele><time>2026-04-18T11:00:38.501Z</time></trkpt><trkpt lat="43.293183" lon="10.7307222"><ele>254.50000000000003</ele><time>2026-04-18T11:00:39.497Z</time></trkpt><trkpt lat="43.2932051" lon="10.7306358"><ele>257.0</ele><time>2026-04-18T11:00:40.513Z</time></trkpt><trkpt lat="43.2932278" lon="10.7305483"><ele>257.0</ele><time>2026-04-18T11:00:41.5Z</time></trkpt><trkpt lat="43.2932749" lon="10.7303878"><ele>257.0</ele><time>2026-04-18T11:00:43.488Z</time></trkpt><trkpt lat="43.2933018" lon="10.7303083"><ele>257.0</ele><time>2026-04-18T11:00:44.499Z</time></trkpt><trkpt lat="43.2933721" lon="10.7301658"><ele>257.0</ele><time>2026-04-18T11:00:46.506Z</time></trkpt><trkpt lat="43.2934568" lon="10.7300445"><ele>257.0</ele><time>2026-04-18T11:00:48.49Z</time></trkpt><trkpt lat="43.2935116" lon="10.7299928"><ele>256.5</ele><time>2026-04-18T11:00:49.49Z</time></trkpt><trkpt lat="43.2935679" lon="10.7299481"><ele>256.0</ele><time>2026-04-18T11:00:50.494Z</time></trkpt><trkpt lat="43.2936805" lon="10.7299131"><ele>255.5</ele><time>2026-04-18T11:00:52.483Z</time></trkpt><trkpt lat="43.2937492" lon="10.7299105"><ele>255.0</ele><time>2026-04-18T11:00:53.486Z</time></trkpt><trkpt lat="43.2938209" lon="10.7298991"><ele>254.50000000000003</ele><time>2026-04-18T11:00:54.489Z</time></trkpt><trkpt lat="43.2938922" lon="10.7298825"><ele>254.0</ele><time>2026-04-18T11:00:55.485Z</time></trkpt><trkpt lat="43.2939587" lon="10.7298648"><ele>254.0</ele><time>2026-04-18T11:00:56.485Z</time></trkpt><trkpt lat="43.2940239" lon="10.7298395"><ele>253.99999999999997</ele><time>2026-04-18T11:00:57.494Z</time></trkpt><trkpt lat="43.2941258" lon="10.7297835"><ele>253.99999999999997</ele><time>2026-04-18T11:00:59.49Z</time></trkpt><trkpt lat="43.2942338" lon="10.7297232"><ele>254.0</ele><time>2026-04-18T11:01:01.486Z</time></trkpt><trkpt lat="43.2943353" lon="10.7296756"><ele>254.0</ele><time>2026-04-18T11:01:03.489Z</time></trkpt><trkpt lat="43.2944132" lon="10.7296289"><ele>254.00000000000003</ele><time>2026-04-18T11:01:05.486Z</time></trkpt><trkpt lat="43.2944735" lon="10.7295796"><ele>254.0</ele><time>2026-04-18T11:01:09.498Z</time></trkpt><trkpt lat="43.29454" lon="10.7296805"><ele>254.0</ele><time>2026-04-18T11:01:16.499Z</time></trkpt><trkpt lat="43.2945903" lon="10.7297754"><ele>254.0</ele><time>2026-04-18T11:01:18.496Z</time></trkpt><trkpt lat="43.2946966" lon="10.7297932"><ele>254.00000000000003</ele><time>2026-04-18T11:01:20.511Z</time></trkpt><trkpt lat="43.2947586" lon="10.7297126"><ele>254.0</ele><time>2026-04-18T11:01:22.501Z</time></trkpt><trkpt lat="43.2947492" lon="10.7295947"><ele>252.0</ele><time>2026-04-18T11:01:24.495Z</time></trkpt><trkpt lat="43.2947656" lon="10.7294419"><ele>249.99999999999997</ele><time>2026-04-18T11:01:26.484Z</time></trkpt><trkpt lat="43.2948684" lon="10.7293028"><ele>247.99999999999997</ele><time>2026-04-18T11:01:28.507Z</time></trkpt><trkpt lat="43.2949381" lon="10.7292236"><ele>246.0</ele><time>2026-04-18T11:01:29.494Z</time></trkpt><trkpt lat="43.2950034" lon="10.7291694"><ele>244.0</ele><time>2026-04-18T11:01:30.496Z</time></trkpt><trkpt lat="43.2950856" lon="10.7291049"><ele>243.99999999999997</ele><time>2026-04-18T11:01:31.491Z</time></trkpt><trkpt lat="43.2951473" lon="10.7290341"><ele>244.0</ele><time>2026-04-18T11:01:32.49Z</time></trkpt><trkpt lat="43.2952297" lon="10.7289609"><ele>244.0</ele><time>2026-04-18T11:01:33.49Z</time></trkpt><trkpt lat="43.2952982" lon="10.728877"><ele>244.0</ele><time>2026-04-18T11:01:34.502Z</time></trkpt><trkpt lat="43.295357" lon="10.7288085"><ele>243.99999999999997</ele><time>2026-04-18T11:01:35.504Z</time></trkpt><trkpt lat="43.2954134" lon="10.7287105"><ele>244.0</ele><time>2026-04-18T11:01:36.485Z</time></trkpt><trkpt lat="43.2954591" lon="10.7285844"><ele>245.66666666666666</ele><time>2026-04-18T11:01:37.501Z</time></trkpt><trkpt lat="43.2954933" lon="10.7284692"><ele>247.33333333333331</ele><time>2026-04-18T11:01:38.499Z</time></trkpt><trkpt lat="43.2955366" lon="10.7283666"><ele>249.0</ele><time>2026-04-18T11:01:39.486Z</time></trkpt><trkpt lat="43.2955923" lon="10.7282699"><ele>250.66666666666669</ele><time>2026-04-18T11:01:40.491Z</time></trkpt><trkpt lat="43.2956417" lon="10.7281686"><ele>252.33333333333334</ele><time>2026-04-18T11:01:41.497Z</time></trkpt><trkpt lat="43.2956839" lon="10.7280754"><ele>254.0</ele><time>2026-04-18T11:01:42.503Z</time></trkpt><trkpt lat="43.2957287" lon="10.7279803"><ele>248.50000000000003</ele><time>2026-04-18T11:01:43.504Z</time></trkpt><trkpt lat="43.2957611" lon="10.727899"><ele>243.0</ele><time>2026-04-18T11:01:44.514Z</time></trkpt><trkpt lat="43.2957784" lon="10.7278121"><ele>237.5</ele><time>2026-04-18T11:01:45.496Z</time></trkpt><trkpt lat="43.2957741" lon="10.7277217"><ele>232.0</ele><time>2026-04-18T11:01:46.489Z</time></trkpt><trkpt lat="43.2957052" lon="10.7275758"><ele>226.50000000000003</ele><time>2026-04-18T11:01:48.51Z</time></trkpt><trkpt lat="43.2956462" lon="10.7274919"><ele>221.0</ele><time>2026-04-18T11:01:49.497Z</time></trkpt><trkpt lat="43.2955891" lon="10.7274238"><ele>224.4</ele><time>2026-04-18T11:01:50.495Z</time></trkpt><trkpt lat="43.2955226" lon="10.7273454"><ele>227.8</ele><time>2026-04-18T11:01:51.496Z</time></trkpt><trkpt lat="43.2954565" lon="10.7272653"><ele>231.20000000000002</ele><time>2026-04-18T11:01:52.492Z</time></trkpt><trkpt lat="43.2953993" lon="10.7271895"><ele>234.60000000000002</ele><time>2026-04-18T11:01:53.5Z</time></trkpt><trkpt lat="43.2953224" lon="10.7270772"><ele>238.0</ele><time>2026-04-18T11:01:55.5Z</time></trkpt><trkpt lat="43.2953479" lon="10.7269106"><ele>233.83333333333331</ele><time>2026-04-18T11:01:57.498Z</time></trkpt><trkpt lat="43.2954113" lon="10.7268344"><ele>229.66666666666666</ele><time>2026-04-18T11:01:58.509Z</time></trkpt><trkpt lat="43.2954908" lon="10.7267657"><ele>225.5</ele><time>2026-04-18T11:01:59.494Z</time></trkpt><trkpt lat="43.2955732" lon="10.7267078"><ele>221.33333333333331</ele><time>2026-04-18T11:02:00.503Z</time></trkpt><trkpt lat="43.2956501" lon="10.7266851"><ele>217.16666666666666</ele><time>2026-04-18T11:02:01.511Z</time></trkpt><trkpt lat="43.2957253" lon="10.7267128"><ele>213.0</ele><time>2026-04-18T11:02:02.502Z</time></trkpt><trkpt lat="43.2957887" lon="10.7267599"><ele>213.5</ele><time>2026-04-18T11:02:03.502Z</time></trkpt><trkpt lat="43.2958549" lon="10.7268198"><ele>214.0</ele><time>2026-04-18T11:02:04.497Z</time></trkpt><trkpt lat="43.2959382" lon="10.7268791"><ele>214.5</ele><time>2026-04-18T11:02:05.509Z</time></trkpt><trkpt lat="43.2960081" lon="10.7269531"><ele>215.0</ele><time>2026-04-18T11:02:06.497Z</time></trkpt><trkpt lat="43.2960835" lon="10.7270238"><ele>215.5</ele><time>2026-04-18T11:02:07.496Z</time></trkpt><trkpt lat="43.2961535" lon="10.7270921"><ele>216.0</ele><time>2026-04-18T11:02:08.511Z</time></trkpt><trkpt lat="43.2962185" lon="10.7271485"><ele>216.0</ele><time>2026-04-18T11:02:09.496Z</time></trkpt><trkpt lat="43.2963331" lon="10.7271583"><ele>216.00000000000003</ele><time>2026-04-18T11:02:11.503Z</time></trkpt><trkpt lat="43.2963745" lon="10.7270013"><ele>216.00000000000003</ele><time>2026-04-18T11:02:13.508Z</time></trkpt><trkpt lat="43.2963581" lon="10.7268993"><ele>216.0</ele><time>2026-04-18T11:02:14.5Z</time></trkpt><trkpt lat="43.2963586" lon="10.7267772"><ele>216.0</ele><time>2026-04-18T11:02:15.502Z</time></trkpt><trkpt lat="43.2963753" lon="10.726647"><ele>214.16666666666666</ele><time>2026-04-18T11:02:16.501Z</time></trkpt><trkpt lat="43.2964099" lon="10.726536"><ele>212.33333333333331</ele><time>2026-04-18T11:02:17.498Z</time></trkpt><trkpt lat="43.2964659" lon="10.7264447"><ele>210.5</ele><time>2026-04-18T11:02:18.503Z</time></trkpt><trkpt lat="43.296512" lon="10.7263248"><ele>208.66666666666666</ele><time>2026-04-18T11:02:19.501Z</time></trkpt><trkpt lat="43.2965422" lon="10.7262252"><ele>206.83333333333331</ele><time>2026-04-18T11:02:20.515Z</time></trkpt><trkpt lat="43.296536" lon="10.7261326"><ele>205.0</ele><time>2026-04-18T11:02:21.501Z</time></trkpt><trkpt lat="43.2964996" lon="10.7260446"><ele>203.66666666666666</ele><time>2026-04-18T11:02:22.501Z</time></trkpt><trkpt lat="43.2964536" lon="10.7259602"><ele>202.33333333333331</ele><time>2026-04-18T11:02:23.501Z</time></trkpt><trkpt lat="43.2964054" lon="10.7258601"><ele>201.0</ele><time>2026-04-18T11:02:24.502Z</time></trkpt><trkpt lat="43.2963726" lon="10.7257409"><ele>199.66666666666669</ele><time>2026-04-18T11:02:25.494Z</time></trkpt><trkpt lat="43.2963659" lon="10.7256056"><ele>198.33333333333334</ele><time>2026-04-18T11:02:26.504Z</time></trkpt><trkpt lat="43.2963904" lon="10.7254856"><ele>197.0</ele><time>2026-04-18T11:02:27.506Z</time></trkpt><trkpt lat="43.2964445" lon="10.7253788"><ele>195.39999999999998</ele><time>2026-04-18T11:02:28.504Z</time></trkpt><trkpt lat="43.2964989" lon="10.7252645"><ele>193.79999999999998</ele><time>2026-04-18T11:02:29.503Z</time></trkpt><trkpt lat="43.2965706" lon="10.7251546"><ele>192.2</ele><time>2026-04-18T11:02:30.517Z</time></trkpt><trkpt lat="43.2966599" lon="10.7250602"><ele>190.6</ele><time>2026-04-18T11:02:31.5Z</time></trkpt><trkpt lat="43.296767" lon="10.7249921"><ele>189.0</ele><time>2026-04-18T11:02:32.506Z</time></trkpt><trkpt lat="43.2968781" lon="10.7249361"><ele>188.2</ele><time>2026-04-18T11:02:33.494Z</time></trkpt><trkpt lat="43.2969948" lon="10.7248853"><ele>187.39999999999998</ele><time>2026-04-18T11:02:34.502Z</time></trkpt><trkpt lat="43.2971079" lon="10.7248387"><ele>186.6</ele><time>2026-04-18T11:02:35.499Z</time></trkpt><trkpt lat="43.2972066" lon="10.7248025"><ele>185.8</ele><time>2026-04-18T11:02:36.497Z</time></trkpt><trkpt lat="43.2973005" lon="10.7247747"><ele>185.0</ele><time>2026-04-18T11:02:37.503Z</time></trkpt><trkpt lat="43.2973833" lon="10.7247435"><ele>185.0</ele><time>2026-04-18T11:02:38.507Z</time></trkpt><trkpt lat="43.2974623" lon="10.7247152"><ele>185.0</ele><time>2026-04-18T11:02:39.484Z</time></trkpt><trkpt lat="43.2975351" lon="10.7246878"><ele>185.0</ele><time>2026-04-18T11:02:40.494Z</time></trkpt><trkpt lat="43.297653" lon="10.7246466"><ele>185.0</ele><time>2026-04-18T11:02:42.5Z</time></trkpt><trkpt lat="43.2976928" lon="10.7245661"><ele>185.0</ele><time>2026-04-18T11:02:44.497Z</time></trkpt><trkpt lat="43.2976765" lon="10.7244483"><ele>185.0</ele><time>2026-04-18T11:02:46.492Z</time></trkpt><trkpt lat="43.2976172" lon="10.7243158"><ele>185.33333333333331</ele><time>2026-04-18T11:02:48.545Z</time></trkpt><trkpt lat="43.2975781" lon="10.7242341"><ele>185.66666666666666</ele><time>2026-04-18T11:02:49.504Z</time></trkpt><trkpt lat="43.2975423" lon="10.724136"><ele>186.0</ele><time>2026-04-18T11:02:50.496Z</time></trkpt><trkpt lat="43.2974965" lon="10.7240386"><ele>186.33333333333334</ele><time>2026-04-18T11:02:51.485Z</time></trkpt><trkpt lat="43.2974567" lon="10.7239311"><ele>186.66666666666669</ele><time>2026-04-18T11:02:52.506Z</time></trkpt><trkpt lat="43.2974074" lon="10.7238271"><ele>187.0</ele><time>2026-04-18T11:02:53.49Z</time></trkpt><trkpt lat="43.2973567" lon="10.7237189"><ele>187.0</ele><time>2026-04-18T11:02:54.509Z</time></trkpt><trkpt lat="43.2973211" lon="10.7235996"><ele>187.0</ele><time>2026-04-18T11:02:55.506Z</time></trkpt><trkpt lat="43.297301" lon="10.7234826"><ele>187.0</ele><time>2026-04-18T11:02:56.505Z</time></trkpt><trkpt lat="43.2972987" lon="10.7233581"><ele>187.0</ele><time>2026-04-18T11:02:57.509Z</time></trkpt><trkpt lat="43.2972865" lon="10.7232235"><ele>187.0</ele><time>2026-04-18T11:02:58.494Z</time></trkpt><trkpt lat="43.2972549" lon="10.7230996"><ele>187.75</ele><time>2026-04-18T11:02:59.495Z</time></trkpt><trkpt lat="43.2972072" lon="10.7229764"><ele>188.5</ele><time>2026-04-18T11:03:00.497Z</time></trkpt><trkpt lat="43.2971395" lon="10.7228543"><ele>189.25</ele><time>2026-04-18T11:03:01.5Z</time></trkpt><trkpt lat="43.2970571" lon="10.7227413"><ele>190.0</ele><time>2026-04-18T11:03:02.504Z</time></trkpt><trkpt lat="43.2969593" lon="10.7226386"><ele>188.2</ele><time>2026-04-18T11:03:03.51Z</time></trkpt><trkpt lat="43.2968885" lon="10.7225761"><ele>186.4</ele><time>2026-04-18T11:03:04.499Z</time></trkpt><trkpt lat="43.2967866" lon="10.7225678"><ele>184.60000000000002</ele><time>2026-04-18T11:03:05.489Z</time></trkpt><trkpt lat="43.2967349" lon="10.7224734"><ele>182.8</ele><time>2026-04-18T11:03:06.502Z</time></trkpt><trkpt lat="43.2967089" lon="10.7223238"><ele>181.0</ele><time>2026-04-18T11:03:07.503Z</time></trkpt><trkpt lat="43.2966812" lon="10.7221781"><ele>181.0</ele><time>2026-04-18T11:03:08.496Z</time></trkpt><trkpt lat="43.2966538" lon="10.7220312"><ele>181.0</ele><time>2026-04-18T11:03:09.497Z</time></trkpt><trkpt lat="43.2966279" lon="10.7218776"><ele>181.0</ele><time>2026-04-18T11:03:10.503Z</time></trkpt><trkpt lat="43.2965988" lon="10.7217348"><ele>181.0</ele><time>2026-04-18T11:03:11.496Z</time></trkpt><trkpt lat="43.2965842" lon="10.7216096"><ele>181.0</ele><time>2026-04-18T11:03:12.5Z</time></trkpt><trkpt lat="43.2965884" lon="10.7214822"><ele>180.60000000000002</ele><time>2026-04-18T11:03:13.506Z</time></trkpt><trkpt lat="43.2966192" lon="10.721375"><ele>180.2</ele><time>2026-04-18T11:03:14.5Z</time></trkpt><trkpt lat="43.29667" lon="10.7212791"><ele>179.8</ele><time>2026-04-18T11:03:15.496Z</time></trkpt><trkpt lat="43.2967181" lon="10.7211804"><ele>179.39999999999998</ele><time>2026-04-18T11:03:16.501Z</time></trkpt><trkpt lat="43.2967894" lon="10.7210526"><ele>179.0</ele><time>2026-04-18T11:03:17.496Z</time></trkpt><trkpt lat="43.2968897" lon="10.7209172"><ele>179.0</ele><time>2026-04-18T11:03:18.496Z</time></trkpt><trkpt lat="43.2969872" lon="10.7207711"><ele>179.0</ele><time>2026-04-18T11:03:19.5Z</time></trkpt><trkpt lat="43.2970916" lon="10.720627"><ele>179.0</ele><time>2026-04-18T11:03:20.499Z</time></trkpt><trkpt lat="43.2972092" lon="10.7204816"><ele>178.0</ele><time>2026-04-18T11:03:21.5Z</time></trkpt><trkpt lat="43.2973485" lon="10.7203348"><ele>177.0</ele><time>2026-04-18T11:03:22.503Z</time></trkpt><trkpt lat="43.2974665" lon="10.7201983"><ele>176.0</ele><time>2026-04-18T11:03:23.504Z</time></trkpt><trkpt lat="43.2975515" lon="10.7200829"><ele>175.0</ele><time>2026-04-18T11:03:24.495Z</time></trkpt><trkpt lat="43.2976376" lon="10.7199786"><ele>175.0</ele><time>2026-04-18T11:03:25.499Z</time></trkpt><trkpt lat="43.2977094" lon="10.719888"><ele>175.0</ele><time>2026-04-18T11:03:26.499Z</time></trkpt><trkpt lat="43.2977833" lon="10.7197943"><ele>175.0</ele><time>2026-04-18T11:03:27.489Z</time></trkpt><trkpt lat="43.2978514" lon="10.7197219"><ele>175.0</ele><time>2026-04-18T11:03:28.494Z</time></trkpt><trkpt lat="43.297892" lon="10.719649"><ele>175.0</ele><time>2026-04-18T11:03:29.505Z</time></trkpt><trkpt lat="43.2979115" lon="10.7195636"><ele>175.0</ele><time>2026-04-18T11:03:30.536Z</time></trkpt><trkpt lat="43.2979066" lon="10.7194713"><ele>174.0</ele><time>2026-04-18T11:03:31.516Z</time></trkpt><trkpt lat="43.297867" lon="10.7193885"><ele>173.0</ele><time>2026-04-18T11:03:32.508Z</time></trkpt><trkpt lat="43.2978118" lon="10.7193107"><ele>172.0</ele><time>2026-04-18T11:03:33.514Z</time></trkpt><trkpt lat="43.2977539" lon="10.7192268"><ele>171.0</ele><time>2026-04-18T11:03:34.511Z</time></trkpt><trkpt lat="43.297676" lon="10.7191257"><ele>170.0</ele><time>2026-04-18T11:03:35.5Z</time></trkpt><trkpt lat="43.2975768" lon="10.7190159"><ele>170.0</ele><time>2026-04-18T11:03:36.511Z</time></trkpt><trkpt lat="43.2975063" lon="10.7189052"><ele>170.0</ele><time>2026-04-18T11:03:37.504Z</time></trkpt><trkpt lat="43.2974423" lon="10.7187974"><ele>170.0</ele><time>2026-04-18T11:03:38.51Z</time></trkpt><trkpt lat="43.2973764" lon="10.7186815"><ele>170.0</ele><time>2026-04-18T11:03:39.511Z</time></trkpt><trkpt lat="43.2973059" lon="10.7185735"><ele>170.0</ele><time>2026-04-18T11:03:40.506Z</time></trkpt><trkpt lat="43.2972325" lon="10.7184662"><ele>170.2</ele><time>2026-04-18T11:03:41.517Z</time></trkpt><trkpt lat="43.2971618" lon="10.7183606"><ele>170.4</ele><time>2026-04-18T11:03:42.513Z</time></trkpt><trkpt lat="43.2970882" lon="10.7182633"><ele>170.60000000000002</ele><time>2026-04-18T11:03:43.559Z</time></trkpt><trkpt lat="43.2970188" lon="10.7181608"><ele>170.8</ele><time>2026-04-18T11:03:44.498Z</time></trkpt><trkpt lat="43.2969585" lon="10.7180524"><ele>171.0</ele><time>2026-04-18T11:03:45.51Z</time></trkpt><trkpt lat="43.2968975" lon="10.7179295"><ele>171.0</ele><time>2026-04-18T11:03:46.506Z</time></trkpt><trkpt lat="43.2968459" lon="10.7178007"><ele>171.0</ele><time>2026-04-18T11:03:47.498Z</time></trkpt><trkpt lat="43.296809" lon="10.7176915"><ele>171.0</ele><time>2026-04-18T11:03:48.511Z</time></trkpt><trkpt lat="43.2967868" lon="10.7175531"><ele>171.0</ele><time>2026-04-18T11:03:49.511Z</time></trkpt><trkpt lat="43.2967958" lon="10.717398"><ele>171.0</ele><time>2026-04-18T11:03:50.526Z</time></trkpt><trkpt lat="43.2968113" lon="10.7172438"><ele>170.25</ele><time>2026-04-18T11:03:51.508Z</time></trkpt><trkpt lat="43.2968249" lon="10.71707"><ele>169.5</ele><time>2026-04-18T11:03:52.505Z</time></trkpt><trkpt lat="43.296836" lon="10.7169089"><ele>168.75</ele><time>2026-04-18T11:03:53.502Z</time></trkpt><trkpt lat="43.2968423" lon="10.7167407"><ele>168.0</ele><time>2026-04-18T11:03:54.513Z</time></trkpt><trkpt lat="43.2968526" lon="10.7165675"><ele>166.75</ele><time>2026-04-18T11:03:55.509Z</time></trkpt><trkpt lat="43.2968681" lon="10.7163988"><ele>165.5</ele><time>2026-04-18T11:03:56.504Z</time></trkpt><trkpt lat="43.2968866" lon="10.7162342"><ele>164.25</ele><time>2026-04-18T11:03:57.515Z</time></trkpt><trkpt lat="43.2969077" lon="10.7160721"><ele>163.0</ele><time>2026-04-18T11:03:58.502Z</time></trkpt><trkpt lat="43.2969272" lon="10.7159068"><ele>162.5</ele><time>2026-04-18T11:03:59.518Z</time></trkpt><trkpt lat="43.2969476" lon="10.7157384"><ele>162.0</ele><time>2026-04-18T11:04:00.508Z</time></trkpt><trkpt lat="43.296975" lon="10.7155763"><ele>161.5</ele><time>2026-04-18T11:04:01.518Z</time></trkpt><trkpt lat="43.2969948" lon="10.7154261"><ele>161.0</ele><time>2026-04-18T11:04:02.506Z</time></trkpt><trkpt lat="43.2970063" lon="10.7152839"><ele>160.0</ele><time>2026-04-18T11:04:03.499Z</time></trkpt><trkpt lat="43.2969946" lon="10.7151431"><ele>159.0</ele><time>2026-04-18T11:04:04.509Z</time></trkpt><trkpt lat="43.2969529" lon="10.7150043"><ele>158.0</ele><time>2026-04-18T11:04:05.507Z</time></trkpt><trkpt lat="43.2968872" lon="10.7148734"><ele>157.0</ele><time>2026-04-18T11:04:06.553Z</time></trkpt><trkpt lat="43.2968216" lon="10.7147386"><ele>156.0</ele><time>2026-04-18T11:04:07.502Z</time></trkpt><trkpt lat="43.2967645" lon="10.7145744"><ele>156.0</ele><time>2026-04-18T11:04:08.506Z</time></trkpt><trkpt lat="43.2967184" lon="10.714409"><ele>156.0</ele><time>2026-04-18T11:04:09.504Z</time></trkpt><trkpt lat="43.2966776" lon="10.7142358"><ele>156.0</ele><time>2026-04-18T11:04:10.516Z</time></trkpt><trkpt lat="43.2966381" lon="10.7140468"><ele>156.0</ele><time>2026-04-18T11:04:11.503Z</time></trkpt><trkpt lat="43.296605" lon="10.7138589"><ele>155.0</ele><time>2026-04-18T11:04:12.547Z</time></trkpt><trkpt lat="43.2965744" lon="10.7136636"><ele>154.0</ele><time>2026-04-18T11:04:13.514Z</time></trkpt><trkpt lat="43.296533" lon="10.7134298"><ele>153.0</ele><time>2026-04-18T11:04:14.505Z</time></trkpt><trkpt lat="43.2964967" lon="10.7132259"><ele>151.75</ele><time>2026-04-18T11:04:15.506Z</time></trkpt><trkpt lat="43.2964701" lon="10.7130464"><ele>150.5</ele><time>2026-04-18T11:04:16.507Z</time></trkpt><trkpt lat="43.296461" lon="10.7128633"><ele>149.25</ele><time>2026-04-18T11:04:17.506Z</time></trkpt><trkpt lat="43.296462" lon="10.7126955"><ele>148.0</ele><time>2026-04-18T11:04:18.509Z</time></trkpt><trkpt lat="43.2964799" lon="10.7125528"><ele>146.83333333333334</ele><time>2026-04-18T11:04:19.513Z</time></trkpt><trkpt lat="43.2964873" lon="10.7124079"><ele>145.66666666666669</ele><time>2026-04-18T11:04:20.509Z</time></trkpt><trkpt lat="43.2964726" lon="10.7122992"><ele>144.5</ele><time>2026-04-18T11:04:21.507Z</time></trkpt><trkpt lat="43.2964583" lon="10.7122065"><ele>143.33333333333334</ele><time>2026-04-18T11:04:22.502Z</time></trkpt><trkpt lat="43.2963834" lon="10.7120875"><ele>142.16666666666666</ele><time>2026-04-18T11:04:24.5Z</time></trkpt><trkpt lat="43.2963205" lon="10.7120698"><ele>141.0</ele><time>2026-04-18T11:04:25.503Z</time></trkpt><trkpt lat="43.2962394" lon="10.7120814"><ele>138.2</ele><time>2026-04-18T11:04:26.493Z</time></trkpt><trkpt lat="43.2961561" lon="10.712093"><ele>135.39999999999998</ele><time>2026-04-18T11:04:27.497Z</time></trkpt><trkpt lat="43.2960507" lon="10.7121265"><ele>132.6</ele><time>2026-04-18T11:04:28.501Z</time></trkpt><trkpt lat="43.2959405" lon="10.7121599"><ele>129.79999999999998</ele><time>2026-04-18T11:04:29.494Z</time></trkpt><trkpt lat="43.2958248" lon="10.7121922"><ele>127.0</ele><time>2026-04-18T11:04:30.499Z</time></trkpt><trkpt lat="43.2957177" lon="10.7122194"><ele>127.0</ele><time>2026-04-18T11:04:31.49Z</time></trkpt><trkpt lat="43.2956099" lon="10.7122268"><ele>126.99999999999999</ele><time>2026-04-18T11:04:32.506Z</time></trkpt><trkpt lat="43.2955005" lon="10.7122097"><ele>126.99999999999999</ele><time>2026-04-18T11:04:33.505Z</time></trkpt><trkpt lat="43.2953911" lon="10.7121717"><ele>127.0</ele><time>2026-04-18T11:04:34.556Z</time></trkpt><trkpt lat="43.2952873" lon="10.7121225"><ele>127.0</ele><time>2026-04-18T11:04:35.515Z</time></trkpt><trkpt lat="43.295188" lon="10.712049"><ele>123.6</ele><time>2026-04-18T11:04:36.502Z</time></trkpt><trkpt lat="43.295103" lon="10.711949"><ele>120.19999999999999</ele><time>2026-04-18T11:04:37.511Z</time></trkpt><trkpt lat="43.2950477" lon="10.7118428"><ele>116.8</ele><time>2026-04-18T11:04:38.519Z</time></trkpt><trkpt lat="43.295022" lon="10.7117082"><ele>113.4</ele><time>2026-04-18T11:04:39.509Z</time></trkpt><trkpt lat="43.2950336" lon="10.7115831"><ele>110.0</ele><time>2026-04-18T11:04:40.522Z</time></trkpt><trkpt lat="43.2950545" lon="10.7114625"><ele>109.83333333333333</ele><time>2026-04-18T11:04:41.51Z</time></trkpt><trkpt lat="43.2950269" lon="10.7113282"><ele>109.66666666666666</ele><time>2026-04-18T11:04:42.521Z</time></trkpt><trkpt lat="43.2950004" lon="10.7111989"><ele>109.5</ele><time>2026-04-18T11:04:43.506Z</time></trkpt><trkpt lat="43.2949502" lon="10.7111114"><ele>109.33333333333334</ele><time>2026-04-18T11:04:44.504Z</time></trkpt><trkpt lat="43.2948943" lon="10.7110335"><ele>109.16666666666667</ele><time>2026-04-18T11:04:45.512Z</time></trkpt><trkpt lat="43.294829" lon="10.7109619"><ele>109.0</ele><time>2026-04-18T11:04:46.522Z</time></trkpt><trkpt lat="43.2947509" lon="10.7108983"><ele>107.6</ele><time>2026-04-18T11:04:47.515Z</time></trkpt><trkpt lat="43.2946641" lon="10.7108501"><ele>106.2</ele><time>2026-04-18T11:04:48.514Z</time></trkpt><trkpt lat="43.2945811" lon="10.7107732"><ele>104.8</ele><time>2026-04-18T11:04:49.526Z</time></trkpt><trkpt lat="43.2945001" lon="10.7106791"><ele>103.39999999999999</ele><time>2026-04-18T11:04:50.504Z</time></trkpt><trkpt lat="43.2944215" lon="10.7105773"><ele>102.0</ele><time>2026-04-18T11:04:51.531Z</time></trkpt><trkpt lat="43.2943358" lon="10.7104667"><ele>102.0</ele><time>2026-04-18T11:04:52.53Z</time></trkpt><trkpt lat="43.2942542" lon="10.7103648"><ele>102.0</ele><time>2026-04-18T11:04:53.513Z</time></trkpt><trkpt lat="43.2941667" lon="10.7102613"><ele>102.0</ele><time>2026-04-18T11:04:54.519Z</time></trkpt><trkpt lat="43.2940742" lon="10.710152"><ele>102.0</ele><time>2026-04-18T11:04:55.517Z</time></trkpt><trkpt lat="43.2939939" lon="10.7100436"><ele>101.0</ele><time>2026-04-18T11:04:56.523Z</time></trkpt><trkpt lat="43.2939408" lon="10.7099265"><ele>100.0</ele><time>2026-04-18T11:04:57.514Z</time></trkpt><trkpt lat="43.2939192" lon="10.7098062"><ele>99.0</ele><time>2026-04-18T11:04:58.508Z</time></trkpt><trkpt lat="43.2939288" lon="10.7096927"><ele>98.0</ele><time>2026-04-18T11:04:59.512Z</time></trkpt><trkpt lat="43.2939533" lon="10.7095899"><ele>97.0</ele><time>2026-04-18T11:05:00.519Z</time></trkpt><trkpt lat="43.2939646" lon="10.7094931"><ele>96.0</ele><time>2026-04-18T11:05:01.514Z</time></trkpt><trkpt lat="43.2939669" lon="10.7093965"><ele>94.14285714285714</ele><time>2026-04-18T11:05:02.519Z</time></trkpt><trkpt lat="43.2939608" lon="10.7093019"><ele>92.28571428571428</ele><time>2026-04-18T11:05:03.509Z</time></trkpt><trkpt lat="43.2939559" lon="10.709213"><ele>90.42857142857142</ele><time>2026-04-18T11:05:04.52Z</time></trkpt><trkpt lat="43.2939491" lon="10.7091255"><ele>88.57142857142857</ele><time>2026-04-18T11:05:05.514Z</time></trkpt><trkpt lat="43.293934" lon="10.7090271"><ele>86.71428571428572</ele><time>2026-04-18T11:05:06.517Z</time></trkpt><trkpt lat="43.2939166" lon="10.7089181"><ele>84.85714285714285</ele><time>2026-04-18T11:05:07.514Z</time></trkpt><trkpt lat="43.2939046" lon="10.7088176"><ele>83.0</ele><time>2026-04-18T11:05:08.517Z</time></trkpt><trkpt lat="43.2938802" lon="10.7086933"><ele>80.80000000000001</ele><time>2026-04-18T11:05:09.511Z</time></trkpt><trkpt lat="43.293854" lon="10.7085703"><ele>78.60000000000001</ele><time>2026-04-18T11:05:10.556Z</time></trkpt><trkpt lat="43.2938293" lon="10.7084366"><ele>76.4</ele><time>2026-04-18T11:05:11.525Z</time></trkpt><trkpt lat="43.2938019" lon="10.7083202"><ele>74.2</ele><time>2026-04-18T11:05:12.526Z</time></trkpt><trkpt lat="43.2937772" lon="10.708124"><ele>72.0</ele><time>2026-04-18T11:05:13.518Z</time></trkpt><trkpt lat="43.2937436" lon="10.7080001"><ele>72.0</ele><time>2026-04-18T11:05:14.52Z</time></trkpt><trkpt lat="43.2937009" lon="10.707918"><ele>72.0</ele><time>2026-04-18T11:05:15.513Z</time></trkpt><trkpt lat="43.293644" lon="10.7078208"><ele>72.0</ele><time>2026-04-18T11:05:16.513Z</time></trkpt><trkpt lat="43.293572" lon="10.7077375"><ele>72.0</ele><time>2026-04-18T11:05:17.502Z</time></trkpt><trkpt lat="43.2934863" lon="10.7076709"><ele>72.0</ele><time>2026-04-18T11:05:18.52Z</time></trkpt><trkpt lat="43.2933864" lon="10.7076135"><ele>70.75</ele><time>2026-04-18T11:05:19.512Z</time></trkpt><trkpt lat="43.2932812" lon="10.7075473"><ele>69.5</ele><time>2026-04-18T11:05:20.513Z</time></trkpt><trkpt lat="43.2931701" lon="10.7074834"><ele>68.25</ele><time>2026-04-18T11:05:21.514Z</time></trkpt><trkpt lat="43.293058" lon="10.7074292"><ele>67.0</ele><time>2026-04-18T11:05:22.511Z</time></trkpt><trkpt lat="43.2929428" lon="10.7073672"><ele>67.0</ele><time>2026-04-18T11:05:23.506Z</time></trkpt><trkpt lat="43.2928259" lon="10.7073077"><ele>67.0</ele><time>2026-04-18T11:05:24.506Z</time></trkpt><trkpt lat="43.2927068" lon="10.7072439"><ele>67.0</ele><time>2026-04-18T11:05:25.529Z</time></trkpt><trkpt lat="43.2925954" lon="10.7071892"><ele>67.0</ele><time>2026-04-18T11:05:26.503Z</time></trkpt><trkpt lat="43.2924868" lon="10.7071324"><ele>67.0</ele><time>2026-04-18T11:05:27.513Z</time></trkpt><trkpt lat="43.2923887" lon="10.7070769"><ele>67.0</ele><time>2026-04-18T11:05:28.521Z</time></trkpt><trkpt lat="43.2923052" lon="10.7070036"><ele>67.0</ele><time>2026-04-18T11:05:29.515Z</time></trkpt><trkpt lat="43.2922399" lon="10.7068999"><ele>67.0</ele><time>2026-04-18T11:05:30.525Z</time></trkpt><trkpt lat="43.2921939" lon="10.7067828"><ele>67.0</ele><time>2026-04-18T11:05:31.516Z</time></trkpt><trkpt lat="43.2921841" lon="10.7066542"><ele>66.75</ele><time>2026-04-18T11:05:32.508Z</time></trkpt><trkpt lat="43.2922117" lon="10.7065202"><ele>66.5</ele><time>2026-04-18T11:05:33.512Z</time></trkpt><trkpt lat="43.2922709" lon="10.7063969"><ele>66.25</ele><time>2026-04-18T11:05:34.516Z</time></trkpt><trkpt lat="43.2923466" lon="10.7062674"><ele>66.0</ele><time>2026-04-18T11:05:35.523Z</time></trkpt><trkpt lat="43.2924247" lon="10.7061229"><ele>66.5</ele><time>2026-04-18T11:05:36.512Z</time></trkpt><trkpt lat="43.2925083" lon="10.705986"><ele>67.0</ele><time>2026-04-18T11:05:37.527Z</time></trkpt><trkpt lat="43.2925922" lon="10.7058363"><ele>67.5</ele><time>2026-04-18T11:05:38.512Z</time></trkpt><trkpt lat="43.2926809" lon="10.7056873"><ele>68.0</ele><time>2026-04-18T11:05:39.522Z</time></trkpt><trkpt lat="43.292766" lon="10.7055344"><ele>68.0</ele><time>2026-04-18T11:05:40.51Z</time></trkpt><trkpt lat="43.2928518" lon="10.7053805"><ele>68.0</ele><time>2026-04-18T11:05:41.522Z</time></trkpt><trkpt lat="43.2929372" lon="10.7052339"><ele>68.0</ele><time>2026-04-18T11:05:42.533Z</time></trkpt><trkpt lat="43.2930129" lon="10.7050954"><ele>68.0</ele><time>2026-04-18T11:05:43.519Z</time></trkpt><trkpt lat="43.2930754" lon="10.7049462"><ele>67.0</ele><time>2026-04-18T11:05:44.517Z</time></trkpt><trkpt lat="43.2931222" lon="10.704778"><ele>66.0</ele><time>2026-04-18T11:05:45.519Z</time></trkpt><trkpt lat="43.2931666" lon="10.7045978"><ele>65.0</ele><time>2026-04-18T11:05:46.553Z</time></trkpt><trkpt lat="43.293216" lon="10.7044006"><ele>64.0</ele><time>2026-04-18T11:05:47.513Z</time></trkpt><trkpt lat="43.293266" lon="10.7041907"><ele>64.0</ele><time>2026-04-18T11:05:48.513Z</time></trkpt><trkpt lat="43.2933152" lon="10.703974"><ele>64.0</ele><time>2026-04-18T11:05:49.514Z</time></trkpt><trkpt lat="43.2933643" lon="10.7037613"><ele>64.0</ele><time>2026-04-18T11:05:50.516Z</time></trkpt><trkpt lat="43.2934143" lon="10.7035437"><ele>63.33333333333333</ele><time>2026-04-18T11:05:51.506Z</time></trkpt><trkpt lat="43.2934688" lon="10.7033288"><ele>62.66666666666667</ele><time>2026-04-18T11:05:52.508Z</time></trkpt><trkpt lat="43.2935169" lon="10.7031174"><ele>62.0</ele><time>2026-04-18T11:05:53.506Z</time></trkpt><trkpt lat="43.2935654" lon="10.70291"><ele>61.66666666666667</ele><time>2026-04-18T11:05:54.515Z</time></trkpt><trkpt lat="43.2936199" lon="10.7027065"><ele>61.33333333333333</ele><time>2026-04-18T11:05:55.507Z</time></trkpt><trkpt lat="43.2936751" lon="10.7025049"><ele>61.0</ele><time>2026-04-18T11:05:56.498Z</time></trkpt><trkpt lat="43.293726" lon="10.7023112"><ele>61.0</ele><time>2026-04-18T11:05:57.516Z</time></trkpt><trkpt lat="43.29378" lon="10.7021218"><ele>61.0</ele><time>2026-04-18T11:05:58.503Z</time></trkpt><trkpt lat="43.2938296" lon="10.7019484"><ele>61.0</ele><time>2026-04-18T11:05:59.505Z</time></trkpt><trkpt lat="43.2938492" lon="10.7017691"><ele>61.0</ele><time>2026-04-18T11:06:00.504Z</time></trkpt><trkpt lat="43.2938466" lon="10.7015858"><ele>61.5</ele><time>2026-04-18T11:06:01.514Z</time></trkpt><trkpt lat="43.293828" lon="10.7013934"><ele>62.0</ele><time>2026-04-18T11:06:02.509Z</time></trkpt><trkpt lat="43.2937956" lon="10.7011998"><ele>62.5</ele><time>2026-04-18T11:06:03.503Z</time></trkpt><trkpt lat="43.2937646" lon="10.7009977"><ele>63.0</ele><time>2026-04-18T11:06:04.511Z</time></trkpt><trkpt lat="43.2937323" lon="10.7007908"><ele>62.66666666666667</ele><time>2026-04-18T11:06:05.507Z</time></trkpt><trkpt lat="43.2937023" lon="10.7005648"><ele>62.333333333333336</ele><time>2026-04-18T11:06:06.509Z</time></trkpt><trkpt lat="43.2936726" lon="10.7003445"><ele>62.0</ele><time>2026-04-18T11:06:07.513Z</time></trkpt><trkpt lat="43.2936452" lon="10.7001429"><ele>62.0</ele><time>2026-04-18T11:06:08.506Z</time></trkpt><trkpt lat="43.2936188" lon="10.6999622"><ele>62.0</ele><time>2026-04-18T11:06:09.5Z</time></trkpt><trkpt lat="43.2935885" lon="10.6997915"><ele>62.0</ele><time>2026-04-18T11:06:10.511Z</time></trkpt><trkpt lat="43.2935523" lon="10.6996277"><ele>62.0</ele><time>2026-04-18T11:06:11.503Z</time></trkpt><trkpt lat="43.2935223" lon="10.6994784"><ele>61.0</ele><time>2026-04-18T11:06:12.512Z</time></trkpt><trkpt lat="43.2935125" lon="10.6993444"><ele>60.0</ele><time>2026-04-18T11:06:13.51Z</time></trkpt><trkpt lat="43.2935153" lon="10.6992008"><ele>59.0</ele><time>2026-04-18T11:06:14.489Z</time></trkpt><trkpt lat="43.2935187" lon="10.6990652"><ele>58.0</ele><time>2026-04-18T11:06:15.502Z</time></trkpt><trkpt lat="43.2935136" lon="10.6989173"><ele>57.0</ele><time>2026-04-18T11:06:16.502Z</time></trkpt><trkpt lat="43.2935077" lon="10.698805"><ele>57.0</ele><time>2026-04-18T11:06:17.498Z</time></trkpt><trkpt lat="43.2935065" lon="10.6986998"><ele>57.0</ele><time>2026-04-18T11:06:18.506Z</time></trkpt><trkpt lat="43.293522" lon="10.6985923"><ele>57.0</ele><time>2026-04-18T11:06:20.513Z</time></trkpt><trkpt lat="43.2935841" lon="10.6985024"><ele>57.0</ele><time>2026-04-18T11:06:22.51Z</time></trkpt><trkpt lat="43.2937147" lon="10.6984186"><ele>57.0</ele><time>2026-04-18T11:06:24.516Z</time></trkpt><trkpt lat="43.2938031" lon="10.6983616"><ele>55.8</ele><time>2026-04-18T11:06:25.505Z</time></trkpt><trkpt lat="43.2938925" lon="10.6982979"><ele>54.6</ele><time>2026-04-18T11:06:26.5Z</time></trkpt><trkpt lat="43.293981" lon="10.6982312"><ele>53.4</ele><time>2026-04-18T11:06:27.501Z</time></trkpt><trkpt lat="43.294078" lon="10.6981529"><ele>52.199999999999996</ele><time>2026-04-18T11:06:28.514Z</time></trkpt><trkpt lat="43.2941851" lon="10.6980641"><ele>51.0</ele><time>2026-04-18T11:06:29.511Z</time></trkpt><trkpt lat="43.2942972" lon="10.697957"><ele>51.0</ele><time>2026-04-18T11:06:30.503Z</time></trkpt><trkpt lat="43.2944181" lon="10.6978487"><ele>51.0</ele><time>2026-04-18T11:06:31.507Z</time></trkpt><trkpt lat="43.2945382" lon="10.697737"><ele>51.0</ele><time>2026-04-18T11:06:32.513Z</time></trkpt><trkpt lat="43.2946677" lon="10.6976227"><ele>51.0</ele><time>2026-04-18T11:06:33.52Z</time></trkpt><trkpt lat="43.2947954" lon="10.6975032"><ele>51.0</ele><time>2026-04-18T11:06:34.521Z</time></trkpt><trkpt lat="43.2949267" lon="10.6973853"><ele>51.0</ele><time>2026-04-18T11:06:35.502Z</time></trkpt><trkpt lat="43.2950586" lon="10.6972601"><ele>51.0</ele><time>2026-04-18T11:06:36.508Z</time></trkpt><trkpt lat="43.2952008" lon="10.6971386"><ele>51.0</ele><time>2026-04-18T11:06:37.527Z</time></trkpt><trkpt lat="43.2953428" lon="10.697009"><ele>51.0</ele><time>2026-04-18T11:06:38.519Z</time></trkpt><trkpt lat="43.2954826" lon="10.6968803"><ele>51.0</ele><time>2026-04-18T11:06:39.51Z</time></trkpt><trkpt lat="43.2956273" lon="10.6967455"><ele>51.33333333333333</ele><time>2026-04-18T11:06:40.513Z</time></trkpt><trkpt lat="43.295778" lon="10.6966086"><ele>51.666666666666664</ele><time>2026-04-18T11:06:41.512Z</time></trkpt><trkpt lat="43.2959298" lon="10.6964737"><ele>52.0</ele><time>2026-04-18T11:06:42.508Z</time></trkpt><trkpt lat="43.2960858" lon="10.6963317"><ele>52.0</ele><time>2026-04-18T11:06:43.527Z</time></trkpt><trkpt lat="43.2962425" lon="10.696189"><ele>52.0</ele><time>2026-04-18T11:06:44.513Z</time></trkpt><trkpt lat="43.2964022" lon="10.6960431"><ele>52.0</ele><time>2026-04-18T11:06:45.509Z</time></trkpt><trkpt lat="43.296561" lon="10.695895"><ele>51.33333333333333</ele><time>2026-04-18T11:06:46.508Z</time></trkpt><trkpt lat="43.2967265" lon="10.6957474"><ele>50.66666666666667</ele><time>2026-04-18T11:06:47.514Z</time></trkpt><trkpt lat="43.2968912" lon="10.6956058"><ele>50.0</ele><time>2026-04-18T11:06:48.53Z</time></trkpt><trkpt lat="43.2970446" lon="10.6954564"><ele>50.0</ele><time>2026-04-18T11:06:49.515Z</time></trkpt><trkpt lat="43.2971996" lon="10.6953089"><ele>50.0</ele><time>2026-04-18T11:06:50.515Z</time></trkpt><trkpt lat="43.2973613" lon="10.6951654"><ele>50.0</ele><time>2026-04-18T11:06:51.504Z</time></trkpt><trkpt lat="43.2975244" lon="10.6950202"><ele>50.0</ele><time>2026-04-18T11:06:52.513Z</time></trkpt><trkpt lat="43.2976925" lon="10.6948764"><ele>50.0</ele><time>2026-04-18T11:06:53.505Z</time></trkpt><trkpt lat="43.2978549" lon="10.694731"><ele>50.0</ele><time>2026-04-18T11:06:54.518Z</time></trkpt><trkpt lat="43.2980233" lon="10.6945822"><ele>50.0</ele><time>2026-04-18T11:06:55.512Z</time></trkpt><trkpt lat="43.2981935" lon="10.6944265"><ele>50.0</ele><time>2026-04-18T11:06:56.512Z</time></trkpt><trkpt lat="43.298361" lon="10.6942778"><ele>50.0</ele><time>2026-04-18T11:06:57.515Z</time></trkpt><trkpt lat="43.2985283" lon="10.694124"><ele>49.0</ele><time>2026-04-18T11:06:58.508Z</time></trkpt><trkpt lat="43.2986942" lon="10.6939675"><ele>48.0</ele><time>2026-04-18T11:06:59.561Z</time></trkpt><trkpt lat="43.2988616" lon="10.6938149"><ele>47.0</ele><time>2026-04-18T11:07:00.518Z</time></trkpt><trkpt lat="43.2990318" lon="10.6936682"><ele>46.666666666666664</ele><time>2026-04-18T11:07:01.514Z</time></trkpt><trkpt lat="43.2991982" lon="10.6935151"><ele>46.333333333333336</ele><time>2026-04-18T11:07:02.51Z</time></trkpt><trkpt lat="43.299366" lon="10.6933585"><ele>46.0</ele><time>2026-04-18T11:07:03.513Z</time></trkpt><trkpt lat="43.299539" lon="10.6932064"><ele>46.0</ele><time>2026-04-18T11:07:04.502Z</time></trkpt><trkpt lat="43.2997111" lon="10.6930529"><ele>46.0</ele><time>2026-04-18T11:07:05.52Z</time></trkpt><trkpt lat="43.2998814" lon="10.6928957"><ele>46.0</ele><time>2026-04-18T11:07:06.507Z</time></trkpt><trkpt lat="43.3000553" lon="10.6927393"><ele>46.333333333333336</ele><time>2026-04-18T11:07:07.517Z</time></trkpt><trkpt lat="43.3002195" lon="10.6925895"><ele>46.666666666666664</ele><time>2026-04-18T11:07:08.517Z</time></trkpt><trkpt lat="43.300391" lon="10.6924311"><ele>47.0</ele><time>2026-04-18T11:07:09.513Z</time></trkpt><trkpt lat="43.3005506" lon="10.6922668"><ele>47.666666666666664</ele><time>2026-04-18T11:07:10.524Z</time></trkpt><trkpt lat="43.3007054" lon="10.6920901"><ele>48.33333333333333</ele><time>2026-04-18T11:07:11.515Z</time></trkpt><trkpt lat="43.3008529" lon="10.6919003"><ele>49.0</ele><time>2026-04-18T11:07:12.52Z</time></trkpt><trkpt lat="43.3009924" lon="10.6916969"><ele>49.0</ele><time>2026-04-18T11:07:13.514Z</time></trkpt><trkpt lat="43.3011279" lon="10.6914864"><ele>49.0</ele><time>2026-04-18T11:07:14.519Z</time></trkpt><trkpt lat="43.3012595" lon="10.6912658"><ele>49.0</ele><time>2026-04-18T11:07:15.508Z</time></trkpt><trkpt lat="43.3013903" lon="10.6910442"><ele>48.666666666666664</ele><time>2026-04-18T11:07:16.519Z</time></trkpt><trkpt lat="43.3015224" lon="10.6908225"><ele>48.33333333333333</ele><time>2026-04-18T11:07:17.5Z</time></trkpt><trkpt lat="43.3016519" lon="10.6906015"><ele>48.0</ele><time>2026-04-18T11:07:18.502Z</time></trkpt><trkpt lat="43.3017814" lon="10.6903765"><ele>46.666666666666664</ele><time>2026-04-18T11:07:19.503Z</time></trkpt><trkpt lat="43.301918" lon="10.6901547"><ele>45.33333333333333</ele><time>2026-04-18T11:07:20.508Z</time></trkpt><trkpt lat="43.3020546" lon="10.689937"><ele>44.0</ele><time>2026-04-18T11:07:21.497Z</time></trkpt><trkpt lat="43.3021976" lon="10.6897202"><ele>44.666666666666664</ele><time>2026-04-18T11:07:22.501Z</time></trkpt><trkpt lat="43.3023373" lon="10.6895146"><ele>45.333333333333336</ele><time>2026-04-18T11:07:23.497Z</time></trkpt><trkpt lat="43.3024848" lon="10.6893119"><ele>46.0</ele><time>2026-04-18T11:07:24.508Z</time></trkpt><trkpt lat="43.3026445" lon="10.6891229"><ele>46.0</ele><time>2026-04-18T11:07:25.54Z</time></trkpt><trkpt lat="43.3028055" lon="10.6889417"><ele>46.0</ele><time>2026-04-18T11:07:26.509Z</time></trkpt><trkpt lat="43.3029766" lon="10.6887644"><ele>46.0</ele><time>2026-04-18T11:07:27.505Z</time></trkpt><trkpt lat="43.3031396" lon="10.68859"><ele>46.0</ele><time>2026-04-18T11:07:28.512Z</time></trkpt><trkpt lat="43.3033053" lon="10.6884096"><ele>46.0</ele><time>2026-04-18T11:07:29.508Z</time></trkpt><trkpt lat="43.3034726" lon="10.6882368"><ele>46.0</ele><time>2026-04-18T11:07:30.521Z</time></trkpt><trkpt lat="43.3036391" lon="10.6880599"><ele>46.0</ele><time>2026-04-18T11:07:31.504Z</time></trkpt><trkpt lat="43.3038079" lon="10.6878814"><ele>46.0</ele><time>2026-04-18T11:07:32.509Z</time></trkpt><trkpt lat="43.3039725" lon="10.6877034"><ele>46.0</ele><time>2026-04-18T11:07:33.502Z</time></trkpt><trkpt lat="43.30414" lon="10.6875273"><ele>46.66666666666667</ele><time>2026-04-18T11:07:34.518Z</time></trkpt><trkpt lat="43.3043037" lon="10.6873466"><ele>47.333333333333336</ele><time>2026-04-18T11:07:35.515Z</time></trkpt><trkpt lat="43.3044671" lon="10.6871689"><ele>48.0</ele><time>2026-04-18T11:07:36.518Z</time></trkpt><trkpt lat="43.3046286" lon="10.6869923"><ele>47.333333333333336</ele><time>2026-04-18T11:07:37.507Z</time></trkpt><trkpt lat="43.3047917" lon="10.6868234"><ele>46.66666666666667</ele><time>2026-04-18T11:07:38.544Z</time></trkpt><trkpt lat="43.3049585" lon="10.6866602"><ele>46.0</ele><time>2026-04-18T11:07:39.504Z</time></trkpt><trkpt lat="43.3051252" lon="10.686492"><ele>46.0</ele><time>2026-04-18T11:07:40.525Z</time></trkpt><trkpt lat="43.3052892" lon="10.6863226"><ele>46.0</ele><time>2026-04-18T11:07:41.508Z</time></trkpt><trkpt lat="43.3054489" lon="10.6861444"><ele>46.0</ele><time>2026-04-18T11:07:42.507Z</time></trkpt><trkpt lat="43.3055995" lon="10.6859509"><ele>45.66666666666667</ele><time>2026-04-18T11:07:43.504Z</time></trkpt><trkpt lat="43.3057414" lon="10.6857457"><ele>45.333333333333336</ele><time>2026-04-18T11:07:44.513Z</time></trkpt><trkpt lat="43.3058753" lon="10.6855263"><ele>45.0</ele><time>2026-04-18T11:07:45.505Z</time></trkpt><trkpt lat="43.3059901" lon="10.6853051"><ele>44.333333333333336</ele><time>2026-04-18T11:07:46.454Z</time></trkpt><trkpt lat="43.3061177" lon="10.6850724"><ele>43.66666666666667</ele><time>2026-04-18T11:07:47.455Z</time></trkpt><trkpt lat="43.3062444" lon="10.6848365"><ele>43.0</ele><time>2026-04-18T11:07:48.452Z</time></trkpt><trkpt lat="43.3063704" lon="10.6846045"><ele>43.333333333333336</ele><time>2026-04-18T11:07:49.466Z</time></trkpt><trkpt lat="43.3064941" lon="10.6843709"><ele>43.666666666666664</ele><time>2026-04-18T11:07:50.44Z</time></trkpt><trkpt lat="43.3066219" lon="10.6841446"><ele>44.0</ele><time>2026-04-18T11:07:51.456Z</time></trkpt><trkpt lat="43.3067425" lon="10.6839158"><ele>44.0</ele><time>2026-04-18T11:07:52.449Z</time></trkpt><trkpt lat="43.306868" lon="10.6836849"><ele>44.0</ele><time>2026-04-18T11:07:53.448Z</time></trkpt><trkpt lat="43.3069916" lon="10.683454"><ele>44.0</ele><time>2026-04-18T11:07:54.47Z</time></trkpt><trkpt lat="43.3071167" lon="10.6832258"><ele>43.666666666666664</ele><time>2026-04-18T11:07:55.457Z</time></trkpt><trkpt lat="43.3072385" lon="10.6830012"><ele>43.333333333333336</ele><time>2026-04-18T11:07:56.465Z</time></trkpt><trkpt lat="43.3073583" lon="10.6827804"><ele>43.0</ele><time>2026-04-18T11:07:57.466Z</time></trkpt><trkpt lat="43.3074767" lon="10.6825546"><ele>42.66666666666667</ele><time>2026-04-18T11:07:58.453Z</time></trkpt><trkpt lat="43.3075933" lon="10.6823311"><ele>42.333333333333336</ele><time>2026-04-18T11:07:59.451Z</time></trkpt><trkpt lat="43.3077122" lon="10.6821178"><ele>42.0</ele><time>2026-04-18T11:08:00.459Z</time></trkpt><trkpt lat="43.3078323" lon="10.6819112"><ele>42.0</ele><time>2026-04-18T11:08:01.462Z</time></trkpt><trkpt lat="43.3079595" lon="10.6816992"><ele>42.0</ele><time>2026-04-18T11:08:02.455Z</time></trkpt><trkpt lat="43.3080879" lon="10.6814873"><ele>42.0</ele><time>2026-04-18T11:08:03.452Z</time></trkpt><trkpt lat="43.308219" lon="10.6812786"><ele>42.333333333333336</ele><time>2026-04-18T11:08:04.449Z</time></trkpt><trkpt lat="43.3083653" lon="10.681078"><ele>42.66666666666667</ele><time>2026-04-18T11:08:05.46Z</time></trkpt><trkpt lat="43.3085198" lon="10.6808863"><ele>43.0</ele><time>2026-04-18T11:08:06.449Z</time></trkpt><trkpt lat="43.3086782" lon="10.6807021"><ele>43.0</ele><time>2026-04-18T11:08:07.466Z</time></trkpt><trkpt lat="43.3088419" lon="10.6805132"><ele>43.0</ele><time>2026-04-18T11:08:08.449Z</time></trkpt><trkpt lat="43.3090031" lon="10.680324"><ele>43.0</ele><time>2026-04-18T11:08:09.45Z</time></trkpt><trkpt lat="43.3091619" lon="10.6801297"><ele>42.0</ele><time>2026-04-18T11:08:10.463Z</time></trkpt><trkpt lat="43.3093268" lon="10.6799394"><ele>41.0</ele><time>2026-04-18T11:08:11.453Z</time></trkpt><trkpt lat="43.3094923" lon="10.6797505"><ele>40.0</ele><time>2026-04-18T11:08:12.489Z</time></trkpt><trkpt lat="43.3096533" lon="10.6795531"><ele>39.66666666666667</ele><time>2026-04-18T11:08:13.463Z</time></trkpt><trkpt lat="43.3098157" lon="10.6793632"><ele>39.333333333333336</ele><time>2026-04-18T11:08:14.447Z</time></trkpt><trkpt lat="43.3099783" lon="10.6791729"><ele>39.0</ele><time>2026-04-18T11:08:15.458Z</time></trkpt><trkpt lat="43.310139" lon="10.6789821"><ele>39.0</ele><time>2026-04-18T11:08:16.454Z</time></trkpt><trkpt lat="43.3103034" lon="10.6787953"><ele>39.0</ele><time>2026-04-18T11:08:17.47Z</time></trkpt><trkpt lat="43.3104622" lon="10.6786064"><ele>39.0</ele><time>2026-04-18T11:08:18.443Z</time></trkpt><trkpt lat="43.3106244" lon="10.6784131"><ele>39.0</ele><time>2026-04-18T11:08:19.441Z</time></trkpt><trkpt lat="43.3107896" lon="10.6782186"><ele>39.0</ele><time>2026-04-18T11:08:20.461Z</time></trkpt><trkpt lat="43.3109518" lon="10.6780212"><ele>39.0</ele><time>2026-04-18T11:08:21.457Z</time></trkpt><trkpt lat="43.3111098" lon="10.6778255"><ele>38.666666666666664</ele><time>2026-04-18T11:08:22.488Z</time></trkpt><trkpt lat="43.3112721" lon="10.677633"><ele>38.33333333333333</ele><time>2026-04-18T11:08:23.47Z</time></trkpt><trkpt lat="43.3114351" lon="10.6774385"><ele>38.0</ele><time>2026-04-18T11:08:24.457Z</time></trkpt><trkpt lat="43.311599" lon="10.6772459"><ele>37.666666666666664</ele><time>2026-04-18T11:08:25.459Z</time></trkpt><trkpt lat="43.3117604" lon="10.6770535"><ele>37.333333333333336</ele><time>2026-04-18T11:08:26.446Z</time></trkpt><trkpt lat="43.3119212" lon="10.6768528"><ele>37.0</ele><time>2026-04-18T11:08:27.456Z</time></trkpt><trkpt lat="43.312081" lon="10.6766582"><ele>37.333333333333336</ele><time>2026-04-18T11:08:28.453Z</time></trkpt><trkpt lat="43.3122477" lon="10.6764683"><ele>37.666666666666664</ele><time>2026-04-18T11:08:29.45Z</time></trkpt><trkpt lat="43.3124151" lon="10.6762776"><ele>38.0</ele><time>2026-04-18T11:08:30.458Z</time></trkpt><trkpt lat="43.3125809" lon="10.67609"><ele>38.33333333333333</ele><time>2026-04-18T11:08:31.457Z</time></trkpt><trkpt lat="43.3127452" lon="10.6759002"><ele>38.666666666666664</ele><time>2026-04-18T11:08:32.476Z</time></trkpt><trkpt lat="43.3129063" lon="10.675711"><ele>39.0</ele><time>2026-04-18T11:08:33.462Z</time></trkpt><trkpt lat="43.3130671" lon="10.6755205"><ele>39.333333333333336</ele><time>2026-04-18T11:08:34.459Z</time></trkpt><trkpt lat="43.3132316" lon="10.6753269"><ele>39.66666666666667</ele><time>2026-04-18T11:08:35.45Z</time></trkpt><trkpt lat="43.3133986" lon="10.6751358"><ele>40.0</ele><time>2026-04-18T11:08:36.46Z</time></trkpt><trkpt lat="43.3135588" lon="10.6749465"><ele>40.333333333333336</ele><time>2026-04-18T11:08:37.473Z</time></trkpt><trkpt lat="43.3137215" lon="10.6747602"><ele>40.666666666666664</ele><time>2026-04-18T11:08:38.456Z</time></trkpt><trkpt lat="43.3138877" lon="10.6745704"><ele>41.0</ele><time>2026-04-18T11:08:39.457Z</time></trkpt><trkpt lat="43.3140496" lon="10.6743793"><ele>40.0</ele><time>2026-04-18T11:08:40.468Z</time></trkpt><trkpt lat="43.3142142" lon="10.6741954"><ele>39.0</ele><time>2026-04-18T11:08:41.46Z</time></trkpt><trkpt lat="43.3143766" lon="10.6740125"><ele>38.0</ele><time>2026-04-18T11:08:42.464Z</time></trkpt><trkpt lat="43.3145392" lon="10.6738336"><ele>38.0</ele><time>2026-04-18T11:08:43.452Z</time></trkpt><trkpt lat="43.3147128" lon="10.6736634"><ele>38.0</ele><time>2026-04-18T11:08:44.454Z</time></trkpt><trkpt lat="43.3148867" lon="10.6735048"><ele>38.0</ele><time>2026-04-18T11:08:45.46Z</time></trkpt><trkpt lat="43.3150649" lon="10.6733448"><ele>39.0</ele><time>2026-04-18T11:08:46.46Z</time></trkpt><trkpt lat="43.3152487" lon="10.6731961"><ele>40.0</ele><time>2026-04-18T11:08:47.453Z</time></trkpt><trkpt lat="43.315425" lon="10.6730342"><ele>41.0</ele><time>2026-04-18T11:08:48.487Z</time></trkpt><trkpt lat="43.3156043" lon="10.6728749"><ele>40.33333333333333</ele><time>2026-04-18T11:08:49.453Z</time></trkpt><trkpt lat="43.3157855" lon="10.6727228"><ele>39.666666666666664</ele><time>2026-04-18T11:08:50.449Z</time></trkpt><trkpt lat="43.3159663" lon="10.6725633"><ele>39.0</ele><time>2026-04-18T11:08:51.452Z</time></trkpt><trkpt lat="43.3161436" lon="10.6724053"><ele>39.0</ele><time>2026-04-18T11:08:52.461Z</time></trkpt><trkpt lat="43.3163244" lon="10.6722397"><ele>39.0</ele><time>2026-04-18T11:08:53.478Z</time></trkpt><trkpt lat="43.31651" lon="10.6720788"><ele>39.0</ele><time>2026-04-18T11:08:54.46Z</time></trkpt><trkpt lat="43.3166965" lon="10.6719151"><ele>39.0</ele><time>2026-04-18T11:08:55.46Z</time></trkpt><trkpt lat="43.3168828" lon="10.6717587"><ele>39.0</ele><time>2026-04-18T11:08:56.464Z</time></trkpt><trkpt lat="43.3170678" lon="10.6715976"><ele>39.0</ele><time>2026-04-18T11:08:57.461Z</time></trkpt><trkpt lat="43.3172551" lon="10.6714401"><ele>38.666666666666664</ele><time>2026-04-18T11:08:58.463Z</time></trkpt><trkpt lat="43.3174436" lon="10.6712873"><ele>38.33333333333333</ele><time>2026-04-18T11:08:59.449Z</time></trkpt><trkpt lat="43.3176312" lon="10.671137"><ele>38.0</ele><time>2026-04-18T11:09:00.446Z</time></trkpt><trkpt lat="43.3178203" lon="10.671"><ele>37.666666666666664</ele><time>2026-04-18T11:09:01.456Z</time></trkpt><trkpt lat="43.3180127" lon="10.670856"><ele>37.333333333333336</ele><time>2026-04-18T11:09:02.456Z</time></trkpt><trkpt lat="43.3182071" lon="10.6707366"><ele>37.0</ele><time>2026-04-18T11:09:03.489Z</time></trkpt><trkpt lat="43.3184091" lon="10.6706352"><ele>36.66666666666667</ele><time>2026-04-18T11:09:04.453Z</time></trkpt><trkpt lat="43.3186104" lon="10.6705341"><ele>36.333333333333336</ele><time>2026-04-18T11:09:05.454Z</time></trkpt><trkpt lat="43.3188156" lon="10.6704339"><ele>36.0</ele><time>2026-04-18T11:09:06.452Z</time></trkpt><trkpt lat="43.3190224" lon="10.6703442"><ele>35.666666666666664</ele><time>2026-04-18T11:09:07.454Z</time></trkpt><trkpt lat="43.3192336" lon="10.670258"><ele>35.33333333333333</ele><time>2026-04-18T11:09:08.49Z</time></trkpt><trkpt lat="43.3194406" lon="10.6701838"><ele>35.0</ele><time>2026-04-18T11:09:09.451Z</time></trkpt><trkpt lat="43.3196531" lon="10.6701203"><ele>35.666666666666664</ele><time>2026-04-18T11:09:10.451Z</time></trkpt><trkpt lat="43.3198688" lon="10.6700668"><ele>36.333333333333336</ele><time>2026-04-18T11:09:11.454Z</time></trkpt><trkpt lat="43.3200801" lon="10.6700233"><ele>37.0</ele><time>2026-04-18T11:09:12.448Z</time></trkpt><trkpt lat="43.3202937" lon="10.66998"><ele>37.0</ele><time>2026-04-18T11:09:13.454Z</time></trkpt><trkpt lat="43.3205056" lon="10.669947"><ele>37.0</ele><time>2026-04-18T11:09:14.445Z</time></trkpt><trkpt lat="43.3207267" lon="10.6699114"><ele>37.0</ele><time>2026-04-18T11:09:15.451Z</time></trkpt><trkpt lat="43.320943" lon="10.6698878"><ele>37.0</ele><time>2026-04-18T11:09:16.451Z</time></trkpt><trkpt lat="43.3211618" lon="10.6698745"><ele>37.0</ele><time>2026-04-18T11:09:17.45Z</time></trkpt><trkpt lat="43.3213788" lon="10.6698746"><ele>37.0</ele><time>2026-04-18T11:09:18.445Z</time></trkpt><trkpt lat="43.3215902" lon="10.669873"><ele>37.0</ele><time>2026-04-18T11:09:19.449Z</time></trkpt><trkpt lat="43.321808" lon="10.6698697"><ele>37.0</ele><time>2026-04-18T11:09:20.452Z</time></trkpt><trkpt lat="43.3220215" lon="10.6698607"><ele>37.0</ele><time>2026-04-18T11:09:21.449Z</time></trkpt><trkpt lat="43.3222331" lon="10.6698573"><ele>37.333333333333336</ele><time>2026-04-18T11:09:22.454Z</time></trkpt><trkpt lat="43.3224376" lon="10.6698522"><ele>37.666666666666664</ele><time>2026-04-18T11:09:23.47Z</time></trkpt><trkpt lat="43.3226331" lon="10.6698496"><ele>38.0</ele><time>2026-04-18T11:09:24.445Z</time></trkpt><trkpt lat="43.3228303" lon="10.6698452"><ele>38.0</ele><time>2026-04-18T11:09:25.463Z</time></trkpt><trkpt lat="43.3230272" lon="10.669842"><ele>38.0</ele><time>2026-04-18T11:09:26.458Z</time></trkpt><trkpt lat="43.3232221" lon="10.6698372"><ele>38.0</ele><time>2026-04-18T11:09:27.457Z</time></trkpt><trkpt lat="43.323421" lon="10.6698346"><ele>37.33333333333333</ele><time>2026-04-18T11:09:28.445Z</time></trkpt><trkpt lat="43.3236189" lon="10.6698332"><ele>36.666666666666664</ele><time>2026-04-18T11:09:29.456Z</time></trkpt><trkpt lat="43.3238199" lon="10.6698264"><ele>36.0</ele><time>2026-04-18T11:09:30.447Z</time></trkpt><trkpt lat="43.3240239" lon="10.6698191"><ele>36.0</ele><time>2026-04-18T11:09:31.45Z</time></trkpt><trkpt lat="43.3242228" lon="10.6698162"><ele>36.0</ele><time>2026-04-18T11:09:32.448Z</time></trkpt><trkpt lat="43.3244283" lon="10.6698239"><ele>36.0</ele><time>2026-04-18T11:09:33.454Z</time></trkpt><trkpt lat="43.3246356" lon="10.6698521"><ele>36.0</ele><time>2026-04-18T11:09:34.45Z</time></trkpt><trkpt lat="43.3248376" lon="10.6698879"><ele>36.0</ele><time>2026-04-18T11:09:35.453Z</time></trkpt><trkpt lat="43.3250495" lon="10.6699256"><ele>36.0</ele><time>2026-04-18T11:09:36.451Z</time></trkpt><trkpt lat="43.3252598" lon="10.6699684"><ele>36.0</ele><time>2026-04-18T11:09:37.456Z</time></trkpt><trkpt lat="43.3254705" lon="10.6700159"><ele>36.0</ele><time>2026-04-18T11:09:38.455Z</time></trkpt><trkpt lat="43.3256849" lon="10.6700601"><ele>36.0</ele><time>2026-04-18T11:09:39.449Z</time></trkpt><trkpt lat="43.325899" lon="10.6700984"><ele>36.0</ele><time>2026-04-18T11:09:40.461Z</time></trkpt><trkpt lat="43.3261147" lon="10.6701426"><ele>36.0</ele><time>2026-04-18T11:09:41.456Z</time></trkpt><trkpt lat="43.3263254" lon="10.6701859"><ele>36.0</ele><time>2026-04-18T11:09:42.467Z</time></trkpt><trkpt lat="43.3265367" lon="10.6702282"><ele>35.666666666666664</ele><time>2026-04-18T11:09:43.449Z</time></trkpt><trkpt lat="43.3267453" lon="10.6702733"><ele>35.33333333333333</ele><time>2026-04-18T11:09:44.453Z</time></trkpt><trkpt lat="43.3269504" lon="10.6703148"><ele>35.0</ele><time>2026-04-18T11:09:45.457Z</time></trkpt><trkpt lat="43.3271447" lon="10.6703536"><ele>35.666666666666664</ele><time>2026-04-18T11:09:46.452Z</time></trkpt><trkpt lat="43.3273389" lon="10.6703947"><ele>36.333333333333336</ele><time>2026-04-18T11:09:47.445Z</time></trkpt><trkpt lat="43.3275278" lon="10.6704274"><ele>37.0</ele><time>2026-04-18T11:09:48.45Z</time></trkpt><trkpt lat="43.3277079" lon="10.6704702"><ele>37.0</ele><time>2026-04-18T11:09:49.461Z</time></trkpt><trkpt lat="43.3278806" lon="10.6705055"><ele>37.0</ele><time>2026-04-18T11:09:50.447Z</time></trkpt><trkpt lat="43.3280451" lon="10.6705412"><ele>37.0</ele><time>2026-04-18T11:09:51.458Z</time></trkpt><trkpt lat="43.3282012" lon="10.6705779"><ele>36.75</ele><time>2026-04-18T11:09:52.459Z</time></trkpt><trkpt lat="43.328351" lon="10.6706096"><ele>36.5</ele><time>2026-04-18T11:09:53.46Z</time></trkpt><trkpt lat="43.328486" lon="10.6706245"><ele>36.25</ele><time>2026-04-18T11:09:54.442Z</time></trkpt><trkpt lat="43.3286073" lon="10.6705994"><ele>36.0</ele><time>2026-04-18T11:09:55.451Z</time></trkpt><trkpt lat="43.3287169" lon="10.6705562"><ele>36.0</ele><time>2026-04-18T11:09:56.452Z</time></trkpt><trkpt lat="43.328812" lon="10.670517"><ele>36.0</ele><time>2026-04-18T11:09:57.454Z</time></trkpt><trkpt lat="43.328887" lon="10.6704935"><ele>36.0</ele><time>2026-04-18T11:09:58.447Z</time></trkpt><trkpt lat="43.3289759" lon="10.6704937"><ele>36.0</ele><time>2026-04-18T11:09:59.449Z</time></trkpt><trkpt lat="43.3290479" lon="10.6705197"><ele>36.0</ele><time>2026-04-18T11:10:00.465Z</time></trkpt><trkpt lat="43.3291264" lon="10.6705589"><ele>36.0</ele><time>2026-04-18T11:10:01.455Z</time></trkpt><trkpt lat="43.3292029" lon="10.6705697"><ele>36.2</ele><time>2026-04-18T11:10:02.457Z</time></trkpt><trkpt lat="43.3293032" lon="10.670465"><ele>36.400000000000006</ele><time>2026-04-18T11:10:04.458Z</time></trkpt><trkpt lat="43.3293116" lon="10.6703097"><ele>36.6</ele><time>2026-04-18T11:10:06.452Z</time></trkpt><trkpt lat="43.3292787" lon="10.6702049"><ele>36.800000000000004</ele><time>2026-04-18T11:10:07.458Z</time></trkpt><trkpt lat="43.329236" lon="10.6700927"><ele>37.0</ele><time>2026-04-18T11:10:08.455Z</time></trkpt><trkpt lat="43.3292082" lon="10.6699549"><ele>36.5</ele><time>2026-04-18T11:10:09.458Z</time></trkpt><trkpt lat="43.3291785" lon="10.6697945"><ele>36.0</ele><time>2026-04-18T11:10:10.468Z</time></trkpt><trkpt lat="43.3291556" lon="10.669616"><ele>35.5</ele><time>2026-04-18T11:10:11.477Z</time></trkpt><trkpt lat="43.3291273" lon="10.6694416"><ele>35.0</ele><time>2026-04-18T11:10:12.448Z</time></trkpt><trkpt lat="43.3291037" lon="10.6692707"><ele>34.75</ele><time>2026-04-18T11:10:13.453Z</time></trkpt><trkpt lat="43.3290823" lon="10.6691061"><ele>34.5</ele><time>2026-04-18T11:10:14.452Z</time></trkpt><trkpt lat="43.3290579" lon="10.6689425"><ele>34.25</ele><time>2026-04-18T11:10:15.454Z</time></trkpt><trkpt lat="43.329028" lon="10.6687709"><ele>34.0</ele><time>2026-04-18T11:10:16.451Z</time></trkpt><trkpt lat="43.3290046" lon="10.6685936"><ele>34.5</ele><time>2026-04-18T11:10:17.458Z</time></trkpt><trkpt lat="43.3289759" lon="10.6684262"><ele>35.0</ele><time>2026-04-18T11:10:18.474Z</time></trkpt><trkpt lat="43.3289535" lon="10.6682676"><ele>35.5</ele><time>2026-04-18T11:10:19.447Z</time></trkpt><trkpt lat="43.3289333" lon="10.6681056"><ele>36.0</ele><time>2026-04-18T11:10:20.449Z</time></trkpt><trkpt lat="43.328909" lon="10.6679469"><ele>36.25</ele><time>2026-04-18T11:10:21.446Z</time></trkpt><trkpt lat="43.3288817" lon="10.6677759"><ele>36.5</ele><time>2026-04-18T11:10:22.454Z</time></trkpt><trkpt lat="43.3288526" lon="10.6676089"><ele>36.75</ele><time>2026-04-18T11:10:23.445Z</time></trkpt><trkpt lat="43.3288299" lon="10.6674395"><ele>37.0</ele><time>2026-04-18T11:10:24.458Z</time></trkpt><trkpt lat="43.3288022" lon="10.6672611"><ele>37.0</ele><time>2026-04-18T11:10:25.477Z</time></trkpt><trkpt lat="43.3287729" lon="10.6670794"><ele>37.0</ele><time>2026-04-18T11:10:26.452Z</time></trkpt><trkpt lat="43.3287465" lon="10.6669"><ele>37.0</ele><time>2026-04-18T11:10:27.454Z</time></trkpt><trkpt lat="43.3287216" lon="10.6667208"><ele>37.0</ele><time>2026-04-18T11:10:28.453Z</time></trkpt><trkpt lat="43.3286902" lon="10.6665334"><ele>37.0</ele><time>2026-04-18T11:10:29.455Z</time></trkpt><trkpt lat="43.3286605" lon="10.6663364"><ele>37.0</ele><time>2026-04-18T11:10:30.484Z</time></trkpt><trkpt lat="43.3286405" lon="10.6661481"><ele>37.0</ele><time>2026-04-18T11:10:31.449Z</time></trkpt><trkpt lat="43.3286185" lon="10.6659562"><ele>37.0</ele><time>2026-04-18T11:10:32.453Z</time></trkpt><trkpt lat="43.3286022" lon="10.6657712"><ele>37.25</ele><time>2026-04-18T11:10:33.458Z</time></trkpt><trkpt lat="43.3285878" lon="10.6655732"><ele>37.5</ele><time>2026-04-18T11:10:34.455Z</time></trkpt><trkpt lat="43.3285746" lon="10.6653801"><ele>37.75</ele><time>2026-04-18T11:10:35.46Z</time></trkpt><trkpt lat="43.3285593" lon="10.6651762"><ele>38.0</ele><time>2026-04-18T11:10:36.456Z</time></trkpt><trkpt lat="43.3285453" lon="10.664966"><ele>38.0</ele><time>2026-04-18T11:10:37.449Z</time></trkpt><trkpt lat="43.3285299" lon="10.664752"><ele>38.0</ele><time>2026-04-18T11:10:38.456Z</time></trkpt><trkpt lat="43.3285169" lon="10.6645272"><ele>38.0</ele><time>2026-04-18T11:10:39.468Z</time></trkpt><trkpt lat="43.328509" lon="10.6642899"><ele>37.0</ele><time>2026-04-18T11:10:40.464Z</time></trkpt><trkpt lat="43.3285118" lon="10.664047"><ele>36.0</ele><time>2026-04-18T11:10:41.465Z</time></trkpt><trkpt lat="43.3285422" lon="10.6638047"><ele>35.0</ele><time>2026-04-18T11:10:42.441Z</time></trkpt><trkpt lat="43.3285859" lon="10.6635669"><ele>35.0</ele><time>2026-04-18T11:10:43.451Z</time></trkpt><trkpt lat="43.3286487" lon="10.6633281"><ele>35.0</ele><time>2026-04-18T11:10:44.448Z</time></trkpt><trkpt lat="43.3287426" lon="10.6631108"><ele>35.0</ele><time>2026-04-18T11:10:45.451Z</time></trkpt><trkpt lat="43.3288577" lon="10.6628924"><ele>35.0</ele><time>2026-04-18T11:10:46.461Z</time></trkpt><trkpt lat="43.3289951" lon="10.6627117"><ele>35.0</ele><time>2026-04-18T11:10:47.458Z</time></trkpt><trkpt lat="43.3291482" lon="10.6625615"><ele>35.0</ele><time>2026-04-18T11:10:48.457Z</time></trkpt><trkpt lat="43.3293282" lon="10.6624451"><ele>35.0</ele><time>2026-04-18T11:10:49.458Z</time></trkpt><trkpt lat="43.3295142" lon="10.6623496"><ele>35.0</ele><time>2026-04-18T11:10:50.456Z</time></trkpt><trkpt lat="43.3297046" lon="10.6622658"><ele>35.0</ele><time>2026-04-18T11:10:51.456Z</time></trkpt><trkpt lat="43.3299002" lon="10.6621756"><ele>35.33333333333333</ele><time>2026-04-18T11:10:52.455Z</time></trkpt><trkpt lat="43.3301083" lon="10.6620791"><ele>35.666666666666664</ele><time>2026-04-18T11:10:53.463Z</time></trkpt><trkpt lat="43.3303139" lon="10.6619851"><ele>36.0</ele><time>2026-04-18T11:10:54.469Z</time></trkpt><trkpt lat="43.3305118" lon="10.6618836"><ele>37.333333333333336</ele><time>2026-04-18T11:10:55.454Z</time></trkpt><trkpt lat="43.3307115" lon="10.6617649"><ele>38.66666666666667</ele><time>2026-04-18T11:10:56.452Z</time></trkpt><trkpt lat="43.3309107" lon="10.661632"><ele>40.0</ele><time>2026-04-18T11:10:57.475Z</time></trkpt><trkpt lat="43.3311041" lon="10.6614741"><ele>40.0</ele><time>2026-04-18T11:10:58.455Z</time></trkpt><trkpt lat="43.3312989" lon="10.6613038"><ele>40.0</ele><time>2026-04-18T11:10:59.456Z</time></trkpt><trkpt lat="43.3314992" lon="10.6611178"><ele>38.0</ele><time>2026-04-18T11:11:00.459Z</time></trkpt><trkpt lat="43.3316795" lon="10.6609103"><ele>36.0</ele><time>2026-04-18T11:11:01.455Z</time></trkpt><trkpt lat="43.331855" lon="10.6607073"><ele>36.0</ele><time>2026-04-18T11:11:02.454Z</time></trkpt><trkpt lat="43.3320255" lon="10.6604914"><ele>36.0</ele><time>2026-04-18T11:11:03.457Z</time></trkpt><trkpt lat="43.3321824" lon="10.6602616"><ele>37.5</ele><time>2026-04-18T11:11:04.45Z</time></trkpt><trkpt lat="43.3323317" lon="10.6600262"><ele>39.0</ele><time>2026-04-18T11:11:05.454Z</time></trkpt><trkpt lat="43.332486" lon="10.6597746"><ele>39.0</ele><time>2026-04-18T11:11:06.46Z</time></trkpt><trkpt lat="43.3326328" lon="10.6595135"><ele>39.0</ele><time>2026-04-18T11:11:07.449Z</time></trkpt><trkpt lat="43.3327797" lon="10.6592514"><ele>37.5</ele><time>2026-04-18T11:11:08.46Z</time></trkpt><trkpt lat="43.3329254" lon="10.6589897"><ele>36.0</ele><time>2026-04-18T11:11:09.454Z</time></trkpt><trkpt lat="43.3330646" lon="10.6587418"><ele>34.0</ele><time>2026-04-18T11:11:10.458Z</time></trkpt><trkpt lat="43.3332015" lon="10.658481"><ele>32.0</ele><time>2026-04-18T11:11:11.455Z</time></trkpt><trkpt lat="43.3333407" lon="10.6582158"><ele>32.0</ele><time>2026-04-18T11:11:12.456Z</time></trkpt><trkpt lat="43.3334842" lon="10.6579524"><ele>32.0</ele><time>2026-04-18T11:11:13.444Z</time></trkpt><trkpt lat="43.333631" lon="10.6576854"><ele>32.0</ele><time>2026-04-18T11:11:14.456Z</time></trkpt><trkpt lat="43.3337748" lon="10.6574228"><ele>32.0</ele><time>2026-04-18T11:11:15.466Z</time></trkpt><trkpt lat="43.3339241" lon="10.6571534"><ele>32.5</ele><time>2026-04-18T11:11:16.447Z</time></trkpt><trkpt lat="43.3340751" lon="10.6568883"><ele>33.0</ele><time>2026-04-18T11:11:17.461Z</time></trkpt><trkpt lat="43.3342242" lon="10.6566209"><ele>33.0</ele><time>2026-04-18T11:11:18.456Z</time></trkpt><trkpt lat="43.3343748" lon="10.6563455"><ele>33.0</ele><time>2026-04-18T11:11:19.454Z</time></trkpt><trkpt lat="43.3345233" lon="10.6560722"><ele>32.0</ele><time>2026-04-18T11:11:20.448Z</time></trkpt><trkpt lat="43.3346702" lon="10.6557975"><ele>31.0</ele><time>2026-04-18T11:11:21.449Z</time></trkpt><trkpt lat="43.334815" lon="10.6555227"><ele>32.0</ele><time>2026-04-18T11:11:22.452Z</time></trkpt><trkpt lat="43.3349632" lon="10.6552553"><ele>33.0</ele><time>2026-04-18T11:11:23.454Z</time></trkpt><trkpt lat="43.3351079" lon="10.6549848"><ele>33.0</ele><time>2026-04-18T11:11:24.462Z</time></trkpt><trkpt lat="43.33525" lon="10.6547215"><ele>33.0</ele><time>2026-04-18T11:11:25.467Z</time></trkpt><trkpt lat="43.3353916" lon="10.6544658"><ele>32.0</ele><time>2026-04-18T11:11:26.453Z</time></trkpt><trkpt lat="43.3355249" lon="10.6542313"><ele>31.0</ele><time>2026-04-18T11:11:27.46Z</time></trkpt><trkpt lat="43.3356539" lon="10.6540166"><ele>30.0</ele><time>2026-04-18T11:11:28.452Z</time></trkpt><trkpt lat="43.3357737" lon="10.6538273"><ele>30.75</ele><time>2026-04-18T11:11:29.446Z</time></trkpt><trkpt lat="43.3358764" lon="10.6536546"><ele>31.5</ele><time>2026-04-18T11:11:30.459Z</time></trkpt><trkpt lat="43.335974" lon="10.6535035"><ele>32.25</ele><time>2026-04-18T11:11:31.447Z</time></trkpt><trkpt lat="43.3360589" lon="10.6533545"><ele>33.0</ele><time>2026-04-18T11:11:32.448Z</time></trkpt><trkpt lat="43.3361321" lon="10.6532357"><ele>33.0</ele><time>2026-04-18T11:11:33.458Z</time></trkpt><trkpt lat="43.3362013" lon="10.653133"><ele>33.0</ele><time>2026-04-18T11:11:34.446Z</time></trkpt><trkpt lat="43.3362694" lon="10.653049"><ele>33.0</ele><time>2026-04-18T11:11:35.448Z</time></trkpt><trkpt lat="43.3363519" lon="10.6530102"><ele>33.0</ele><time>2026-04-18T11:11:36.449Z</time></trkpt><trkpt lat="43.336428" lon="10.6529829"><ele>33.0</ele><time>2026-04-18T11:11:37.448Z</time></trkpt><trkpt lat="43.3364935" lon="10.6529647"><ele>33.0</ele><time>2026-04-18T11:11:38.454Z</time></trkpt><trkpt lat="43.3365441" lon="10.6529064"><ele>33.0</ele><time>2026-04-18T11:11:39.447Z</time></trkpt><trkpt lat="43.3365887" lon="10.6528097"><ele>33.0</ele><time>2026-04-18T11:11:40.458Z</time></trkpt><trkpt lat="43.336614" lon="10.6527171"><ele>33.0</ele><time>2026-04-18T11:11:41.458Z</time></trkpt><trkpt lat="43.3366282" lon="10.6526019"><ele>33.0</ele><time>2026-04-18T11:11:42.453Z</time></trkpt><trkpt lat="43.3366486" lon="10.6524801"><ele>33.0</ele><time>2026-04-18T11:11:43.493Z</time></trkpt><trkpt lat="43.3366961" lon="10.6523504"><ele>33.0</ele><time>2026-04-18T11:11:44.47Z</time></trkpt><trkpt lat="43.336769" lon="10.6522313"><ele>33.0</ele><time>2026-04-18T11:11:45.458Z</time></trkpt><trkpt lat="43.3368473" lon="10.6521216"><ele>33.0</ele><time>2026-04-18T11:11:46.466Z</time></trkpt><trkpt lat="43.3369313" lon="10.6520032"><ele>33.0</ele><time>2026-04-18T11:11:47.462Z</time></trkpt><trkpt lat="43.3370222" lon="10.6518722"><ele>33.0</ele><time>2026-04-18T11:11:48.477Z</time></trkpt><trkpt lat="43.3371167" lon="10.6517352"><ele>32.75</ele><time>2026-04-18T11:11:49.46Z</time></trkpt><trkpt lat="43.3372146" lon="10.6515994"><ele>32.5</ele><time>2026-04-18T11:11:50.457Z</time></trkpt><trkpt lat="43.3373085" lon="10.6514532"><ele>32.25</ele><time>2026-04-18T11:11:51.459Z</time></trkpt><trkpt lat="43.3374009" lon="10.6513169"><ele>32.0</ele><time>2026-04-18T11:11:52.451Z</time></trkpt><trkpt lat="43.3374894" lon="10.6511828"><ele>31.75</ele><time>2026-04-18T11:11:53.454Z</time></trkpt><trkpt lat="43.3375775" lon="10.6510511"><ele>31.5</ele><time>2026-04-18T11:11:54.466Z</time></trkpt><trkpt lat="43.3376732" lon="10.6509096"><ele>31.25</ele><time>2026-04-18T11:11:55.484Z</time></trkpt><trkpt lat="43.3377667" lon="10.6507682"><ele>31.0</ele><time>2026-04-18T11:11:56.452Z</time></trkpt><trkpt lat="43.3378678" lon="10.6506213"><ele>31.0</ele><time>2026-04-18T11:11:57.452Z</time></trkpt><trkpt lat="43.3379659" lon="10.6504667"><ele>31.0</ele><time>2026-04-18T11:11:58.453Z</time></trkpt><trkpt lat="43.3380701" lon="10.6503083"><ele>31.0</ele><time>2026-04-18T11:11:59.443Z</time></trkpt><trkpt lat="43.3381706" lon="10.6501507"><ele>31.25</ele><time>2026-04-18T11:12:00.456Z</time></trkpt><trkpt lat="43.3382628" lon="10.6499908"><ele>31.5</ele><time>2026-04-18T11:12:01.445Z</time></trkpt><trkpt lat="43.3383543" lon="10.6498312"><ele>31.75</ele><time>2026-04-18T11:12:02.443Z</time></trkpt><trkpt lat="43.3384351" lon="10.6496763"><ele>32.0</ele><time>2026-04-18T11:12:03.454Z</time></trkpt><trkpt lat="43.338514" lon="10.6495121"><ele>32.0</ele><time>2026-04-18T11:12:04.446Z</time></trkpt><trkpt lat="43.338586" lon="10.6493282"><ele>32.0</ele><time>2026-04-18T11:12:05.458Z</time></trkpt><trkpt lat="43.3386555" lon="10.649151"><ele>32.0</ele><time>2026-04-18T11:12:06.45Z</time></trkpt><trkpt lat="43.3387188" lon="10.6489828"><ele>32.0</ele><time>2026-04-18T11:12:07.443Z</time></trkpt><trkpt lat="43.3387848" lon="10.6488013"><ele>32.0</ele><time>2026-04-18T11:12:08.449Z</time></trkpt><trkpt lat="43.3388437" lon="10.6486141"><ele>32.0</ele><time>2026-04-18T11:12:09.454Z</time></trkpt><trkpt lat="43.3389007" lon="10.6484229"><ele>32.0</ele><time>2026-04-18T11:12:10.447Z</time></trkpt><trkpt lat="43.3389554" lon="10.6482282"><ele>32.0</ele><time>2026-04-18T11:12:11.461Z</time></trkpt><trkpt lat="43.3390082" lon="10.6480291"><ele>32.0</ele><time>2026-04-18T11:12:12.453Z</time></trkpt><trkpt lat="43.3390637" lon="10.6478256"><ele>32.0</ele><time>2026-04-18T11:12:13.448Z</time></trkpt><trkpt lat="43.3391111" lon="10.6476247"><ele>32.0</ele><time>2026-04-18T11:12:14.462Z</time></trkpt><trkpt lat="43.3391598" lon="10.647417"><ele>32.0</ele><time>2026-04-18T11:12:15.456Z</time></trkpt><trkpt lat="43.3392082" lon="10.6472102"><ele>32.0</ele><time>2026-04-18T11:12:16.456Z</time></trkpt><trkpt lat="43.3392551" lon="10.647004"><ele>32.0</ele><time>2026-04-18T11:12:17.449Z</time></trkpt><trkpt lat="43.3393055" lon="10.6468097"><ele>32.0</ele><time>2026-04-18T11:12:18.464Z</time></trkpt><trkpt lat="43.3393515" lon="10.6466207"><ele>32.0</ele><time>2026-04-18T11:12:19.453Z</time></trkpt><trkpt lat="43.3393966" lon="10.6464326"><ele>32.0</ele><time>2026-04-18T11:12:20.447Z</time></trkpt><trkpt lat="43.3394445" lon="10.646256"><ele>31.75</ele><time>2026-04-18T11:12:21.451Z</time></trkpt><trkpt lat="43.3394898" lon="10.6460794"><ele>31.5</ele><time>2026-04-18T11:12:22.445Z</time></trkpt><trkpt lat="43.3395291" lon="10.6459075"><ele>31.25</ele><time>2026-04-18T11:12:23.447Z</time></trkpt><trkpt lat="43.3395685" lon="10.6457398"><ele>31.0</ele><time>2026-04-18T11:12:24.45Z</time></trkpt><trkpt lat="43.3396097" lon="10.6455733"><ele>31.0</ele><time>2026-04-18T11:12:25.449Z</time></trkpt><trkpt lat="43.3396483" lon="10.6454075"><ele>31.0</ele><time>2026-04-18T11:12:26.444Z</time></trkpt><trkpt lat="43.3396889" lon="10.6452417"><ele>31.0</ele><time>2026-04-18T11:12:27.459Z</time></trkpt><trkpt lat="43.3397283" lon="10.6450696"><ele>31.0</ele><time>2026-04-18T11:12:28.455Z</time></trkpt><trkpt lat="43.3397676" lon="10.6448993"><ele>31.0</ele><time>2026-04-18T11:12:29.45Z</time></trkpt><trkpt lat="43.3398071" lon="10.6447497"><ele>31.0</ele><time>2026-04-18T11:12:30.445Z</time></trkpt><trkpt lat="43.339848" lon="10.644604"><ele>31.0</ele><time>2026-04-18T11:12:31.448Z</time></trkpt><trkpt lat="43.3398868" lon="10.6444797"><ele>31.0</ele><time>2026-04-18T11:12:32.452Z</time></trkpt><trkpt lat="43.3399205" lon="10.6443721"><ele>31.0</ele><time>2026-04-18T11:12:33.451Z</time></trkpt><trkpt lat="43.3399686" lon="10.644301"><ele>31.000000000000004</ele><time>2026-04-18T11:12:34.45Z</time></trkpt><trkpt lat="43.3400858" lon="10.6443214"><ele>31.0</ele><time>2026-04-18T11:12:36.45Z</time></trkpt><trkpt lat="43.3401355" lon="10.6443746"><ele>31.0</ele><time>2026-04-18T11:12:37.457Z</time></trkpt><trkpt lat="43.3401562" lon="10.6444697"><ele>31.0</ele><time>2026-04-18T11:12:38.457Z</time></trkpt><trkpt lat="43.3401615" lon="10.6445745"><ele>31.000000000000004</ele><time>2026-04-18T11:12:39.457Z</time></trkpt><trkpt lat="43.3401594" lon="10.6446686"><ele>31.0</ele><time>2026-04-18T11:12:40.458Z</time></trkpt><trkpt lat="43.3401842" lon="10.6447877"><ele>31.0</ele><time>2026-04-18T11:12:42.458Z</time></trkpt><trkpt lat="43.3402672" lon="10.6448252"><ele>31.0</ele><time>2026-04-18T11:12:45.458Z</time></trkpt><trkpt lat="43.3403727" lon="10.6448579"><ele>31.0</ele><time>2026-04-18T11:12:47.456Z</time></trkpt><trkpt lat="43.3404458" lon="10.6449026"><ele>31.0</ele><time>2026-04-18T11:12:48.453Z</time></trkpt><trkpt lat="43.3405213" lon="10.6449698"><ele>31.0</ele><time>2026-04-18T11:12:49.469Z</time></trkpt><trkpt lat="43.3405959" lon="10.6450289"><ele>31.4</ele><time>2026-04-18T11:12:50.461Z</time></trkpt><trkpt lat="43.3406738" lon="10.6451014"><ele>31.8</ele><time>2026-04-18T11:12:51.454Z</time></trkpt><trkpt lat="43.3407612" lon="10.6451833"><ele>32.199999999999996</ele><time>2026-04-18T11:12:52.463Z</time></trkpt><trkpt lat="43.3408507" lon="10.645269"><ele>32.6</ele><time>2026-04-18T11:12:53.443Z</time></trkpt><trkpt lat="43.3409358" lon="10.6453636"><ele>33.0</ele><time>2026-04-18T11:12:54.476Z</time></trkpt><trkpt lat="43.3410268" lon="10.6454534"><ele>33.0</ele><time>2026-04-18T11:12:55.449Z</time></trkpt><trkpt lat="43.3411196" lon="10.6455468"><ele>33.0</ele><time>2026-04-18T11:12:56.453Z</time></trkpt><trkpt lat="43.3412162" lon="10.6456398"><ele>33.0</ele><time>2026-04-18T11:12:57.46Z</time></trkpt><trkpt lat="43.3413226" lon="10.6457359"><ele>33.0</ele><time>2026-04-18T11:12:58.462Z</time></trkpt><trkpt lat="43.3414224" lon="10.6458349"><ele>32.75</ele><time>2026-04-18T11:12:59.451Z</time></trkpt><trkpt lat="43.3415255" lon="10.6459334"><ele>32.5</ele><time>2026-04-18T11:13:00.442Z</time></trkpt><trkpt lat="43.3416243" lon="10.6460383"><ele>32.25</ele><time>2026-04-18T11:13:01.446Z</time></trkpt><trkpt lat="43.3417205" lon="10.6461333"><ele>32.0</ele><time>2026-04-18T11:13:02.448Z</time></trkpt><trkpt lat="43.3418176" lon="10.6462161"><ele>32.0</ele><time>2026-04-18T11:13:03.46Z</time></trkpt><trkpt lat="43.3419333" lon="10.6462907"><ele>32.0</ele><time>2026-04-18T11:13:04.452Z</time></trkpt><trkpt lat="43.3420557" lon="10.6463557"><ele>32.0</ele><time>2026-04-18T11:13:05.484Z</time></trkpt><trkpt lat="43.3421896" lon="10.6464068"><ele>32.0</ele><time>2026-04-18T11:13:06.452Z</time></trkpt><trkpt lat="43.3423276" lon="10.6464502"><ele>33.0</ele><time>2026-04-18T11:13:07.455Z</time></trkpt><trkpt lat="43.3424631" lon="10.6464895"><ele>34.0</ele><time>2026-04-18T11:13:08.454Z</time></trkpt><trkpt lat="43.3425977" lon="10.6465419"><ele>35.0</ele><time>2026-04-18T11:13:09.461Z</time></trkpt><trkpt lat="43.3427265" lon="10.6465952"><ele>36.0</ele><time>2026-04-18T11:13:10.467Z</time></trkpt><trkpt lat="43.3428543" lon="10.6466481"><ele>36.0</ele><time>2026-04-18T11:13:11.45Z</time></trkpt><trkpt lat="43.3429823" lon="10.6466935"><ele>36.0</ele><time>2026-04-18T11:13:12.452Z</time></trkpt><trkpt lat="43.3431056" lon="10.6467142"><ele>36.0</ele><time>2026-04-18T11:13:13.456Z</time></trkpt><trkpt lat="43.3432319" lon="10.6467135"><ele>36.0</ele><time>2026-04-18T11:13:14.453Z</time></trkpt><trkpt lat="43.34336" lon="10.6467079"><ele>36.75</ele><time>2026-04-18T11:13:15.454Z</time></trkpt><trkpt lat="43.3434904" lon="10.64671"><ele>37.5</ele><time>2026-04-18T11:13:16.463Z</time></trkpt><trkpt lat="43.3436242" lon="10.6467083"><ele>38.25</ele><time>2026-04-18T11:13:17.486Z</time></trkpt><trkpt lat="43.3437651" lon="10.6467191"><ele>39.0</ele><time>2026-04-18T11:13:18.454Z</time></trkpt><trkpt lat="43.3439043" lon="10.646733"><ele>39.0</ele><time>2026-04-18T11:13:19.457Z</time></trkpt><trkpt lat="43.3440518" lon="10.6467785"><ele>39.0</ele><time>2026-04-18T11:13:20.458Z</time></trkpt><trkpt lat="43.3441971" lon="10.6468115"><ele>39.0</ele><time>2026-04-18T11:13:21.457Z</time></trkpt><trkpt lat="43.3443371" lon="10.6468449"><ele>39.0</ele><time>2026-04-18T11:13:22.454Z</time></trkpt><trkpt lat="43.3444799" lon="10.6468861"><ele>39.0</ele><time>2026-04-18T11:13:23.463Z</time></trkpt><trkpt lat="43.3446324" lon="10.6469225"><ele>39.0</ele><time>2026-04-18T11:13:24.457Z</time></trkpt><trkpt lat="43.344775" lon="10.6469602"><ele>39.0</ele><time>2026-04-18T11:13:25.45Z</time></trkpt><trkpt lat="43.3449063" lon="10.6470066"><ele>39.0</ele><time>2026-04-18T11:13:26.459Z</time></trkpt><trkpt lat="43.3450322" lon="10.6470532"><ele>39.0</ele><time>2026-04-18T11:13:27.451Z</time></trkpt><trkpt lat="43.3451555" lon="10.6471107"><ele>39.0</ele><time>2026-04-18T11:13:28.453Z</time></trkpt><trkpt lat="43.3452699" lon="10.6471709"><ele>39.0</ele><time>2026-04-18T11:13:29.451Z</time></trkpt><trkpt lat="43.3453827" lon="10.6472206"><ele>39.0</ele><time>2026-04-18T11:13:30.451Z</time></trkpt><trkpt lat="43.3454979" lon="10.6472609"><ele>40.0</ele><time>2026-04-18T11:13:31.45Z</time></trkpt><trkpt lat="43.3456186" lon="10.647275"><ele>41.0</ele><time>2026-04-18T11:13:32.45Z</time></trkpt><trkpt lat="43.3457366" lon="10.6472922"><ele>42.0</ele><time>2026-04-18T11:13:33.445Z</time></trkpt><trkpt lat="43.3458629" lon="10.6473142"><ele>43.0</ele><time>2026-04-18T11:13:34.458Z</time></trkpt><trkpt lat="43.3459895" lon="10.6473469"><ele>43.0</ele><time>2026-04-18T11:13:35.458Z</time></trkpt><trkpt lat="43.3461127" lon="10.6473754"><ele>43.0</ele><time>2026-04-18T11:13:36.46Z</time></trkpt><trkpt lat="43.3462365" lon="10.6474102"><ele>43.0</ele><time>2026-04-18T11:13:37.446Z</time></trkpt><trkpt lat="43.3463791" lon="10.6474575"><ele>43.0</ele><time>2026-04-18T11:13:38.45Z</time></trkpt><trkpt lat="43.3465334" lon="10.6475118"><ele>42.66666666666667</ele><time>2026-04-18T11:13:39.476Z</time></trkpt><trkpt lat="43.3467007" lon="10.647578"><ele>42.333333333333336</ele><time>2026-04-18T11:13:40.443Z</time></trkpt><trkpt lat="43.3468574" lon="10.6476653"><ele>42.0</ele><time>2026-04-18T11:13:41.452Z</time></trkpt><trkpt lat="43.3470173" lon="10.6477386"><ele>41.0</ele><time>2026-04-18T11:13:42.448Z</time></trkpt><trkpt lat="43.3471676" lon="10.6478129"><ele>40.0</ele><time>2026-04-18T11:13:43.459Z</time></trkpt><trkpt lat="43.3473175" lon="10.6478841"><ele>39.0</ele><time>2026-04-18T11:13:44.453Z</time></trkpt><trkpt lat="43.3474725" lon="10.6479526"><ele>39.0</ele><time>2026-04-18T11:13:45.46Z</time></trkpt><trkpt lat="43.3476305" lon="10.648028"><ele>39.0</ele><time>2026-04-18T11:13:46.447Z</time></trkpt><trkpt lat="43.3477914" lon="10.6480878"><ele>39.0</ele><time>2026-04-18T11:13:47.439Z</time></trkpt><trkpt lat="43.3479596" lon="10.6481552"><ele>39.333333333333336</ele><time>2026-04-18T11:13:48.449Z</time></trkpt><trkpt lat="43.3481308" lon="10.6482193"><ele>39.66666666666667</ele><time>2026-04-18T11:13:49.447Z</time></trkpt><trkpt lat="43.3482925" lon="10.6482978"><ele>40.0</ele><time>2026-04-18T11:13:50.466Z</time></trkpt><trkpt lat="43.3484541" lon="10.6483709"><ele>40.0</ele><time>2026-04-18T11:13:51.459Z</time></trkpt><trkpt lat="43.3486176" lon="10.6484346"><ele>40.0</ele><time>2026-04-18T11:13:52.462Z</time></trkpt><trkpt lat="43.3487743" lon="10.6485038"><ele>40.0</ele><time>2026-04-18T11:13:53.459Z</time></trkpt><trkpt lat="43.3489351" lon="10.6485642"><ele>40.0</ele><time>2026-04-18T11:13:54.457Z</time></trkpt><trkpt lat="43.3490849" lon="10.6486353"><ele>40.0</ele><time>2026-04-18T11:13:55.454Z</time></trkpt><trkpt lat="43.3492388" lon="10.6487025"><ele>40.0</ele><time>2026-04-18T11:13:56.447Z</time></trkpt><trkpt lat="43.3493906" lon="10.6487488"><ele>40.0</ele><time>2026-04-18T11:13:57.457Z</time></trkpt><trkpt lat="43.349542" lon="10.64881"><ele>40.0</ele><time>2026-04-18T11:13:58.446Z</time></trkpt><trkpt lat="43.3496877" lon="10.6488717"><ele>40.0</ele><time>2026-04-18T11:13:59.488Z</time></trkpt><trkpt lat="43.3498411" lon="10.6489564"><ele>41.333333333333336</ele><time>2026-04-18T11:14:00.454Z</time></trkpt><trkpt lat="43.3499969" lon="10.6490328"><ele>42.666666666666664</ele><time>2026-04-18T11:14:01.447Z</time></trkpt><trkpt lat="43.3501498" lon="10.6491129"><ele>44.0</ele><time>2026-04-18T11:14:02.451Z</time></trkpt><trkpt lat="43.3503163" lon="10.6491976"><ele>44.0</ele><time>2026-04-18T11:14:03.449Z</time></trkpt><trkpt lat="43.3504811" lon="10.6492832"><ele>44.0</ele><time>2026-04-18T11:14:04.485Z</time></trkpt><trkpt lat="43.3506444" lon="10.6493711"><ele>44.0</ele><time>2026-04-18T11:14:05.459Z</time></trkpt><trkpt lat="43.3508124" lon="10.6494526"><ele>43.0</ele><time>2026-04-18T11:14:06.451Z</time></trkpt><trkpt lat="43.3509806" lon="10.6495375"><ele>42.0</ele><time>2026-04-18T11:14:07.446Z</time></trkpt><trkpt lat="43.3511483" lon="10.6496198"><ele>41.0</ele><time>2026-04-18T11:14:08.448Z</time></trkpt><trkpt lat="43.3513208" lon="10.6497059"><ele>42.33333333333333</ele><time>2026-04-18T11:14:09.46Z</time></trkpt><trkpt lat="43.3514918" lon="10.6497906"><ele>43.666666666666664</ele><time>2026-04-18T11:14:10.461Z</time></trkpt><trkpt lat="43.3516704" lon="10.6498833"><ele>45.0</ele><time>2026-04-18T11:14:11.464Z</time></trkpt><trkpt lat="43.3518421" lon="10.6499649"><ele>45.0</ele><time>2026-04-18T11:14:12.462Z</time></trkpt><trkpt lat="43.3520142" lon="10.6500441"><ele>45.0</ele><time>2026-04-18T11:14:13.454Z</time></trkpt><trkpt lat="43.3521768" lon="10.6501336"><ele>45.0</ele><time>2026-04-18T11:14:14.447Z</time></trkpt><trkpt lat="43.3523376" lon="10.6502056"><ele>45.333333333333336</ele><time>2026-04-18T11:14:15.46Z</time></trkpt><trkpt lat="43.3524987" lon="10.6502777"><ele>45.66666666666667</ele><time>2026-04-18T11:14:16.458Z</time></trkpt><trkpt lat="43.3526661" lon="10.6503607"><ele>46.0</ele><time>2026-04-18T11:14:17.467Z</time></trkpt><trkpt lat="43.3528337" lon="10.6504482"><ele>46.0</ele><time>2026-04-18T11:14:18.459Z</time></trkpt><trkpt lat="43.3530025" lon="10.6505324"><ele>46.0</ele><time>2026-04-18T11:14:19.468Z</time></trkpt><trkpt lat="43.3531627" lon="10.6506111"><ele>46.0</ele><time>2026-04-18T11:14:20.457Z</time></trkpt><trkpt lat="43.3533205" lon="10.6506912"><ele>46.66666666666667</ele><time>2026-04-18T11:14:21.453Z</time></trkpt><trkpt lat="43.3534791" lon="10.6507676"><ele>47.333333333333336</ele><time>2026-04-18T11:14:22.457Z</time></trkpt><trkpt lat="43.3536271" lon="10.6508367"><ele>48.0</ele><time>2026-04-18T11:14:23.453Z</time></trkpt><trkpt lat="43.3537504" lon="10.6509013"><ele>48.0</ele><time>2026-04-18T11:14:24.456Z</time></trkpt><trkpt lat="43.3538544" lon="10.6509423"><ele>48.0</ele><time>2026-04-18T11:14:25.47Z</time></trkpt><trkpt lat="43.3539514" lon="10.6509801"><ele>48.0</ele><time>2026-04-18T11:14:26.464Z</time></trkpt><trkpt lat="43.3540413" lon="10.6510137"><ele>48.0</ele><time>2026-04-18T11:14:27.478Z</time></trkpt><trkpt lat="43.3541426" lon="10.6510329"><ele>48.0</ele><time>2026-04-18T11:14:28.45Z</time></trkpt><trkpt lat="43.3542506" lon="10.6510584"><ele>48.2</ele><time>2026-04-18T11:14:29.454Z</time></trkpt><trkpt lat="43.3543543" lon="10.6510942"><ele>48.4</ele><time>2026-04-18T11:14:30.457Z</time></trkpt><trkpt lat="43.3544583" lon="10.651127"><ele>48.6</ele><time>2026-04-18T11:14:31.444Z</time></trkpt><trkpt lat="43.3545611" lon="10.6511657"><ele>48.800000000000004</ele><time>2026-04-18T11:14:32.455Z</time></trkpt><trkpt lat="43.3546741" lon="10.6512045"><ele>49.0</ele><time>2026-04-18T11:14:33.454Z</time></trkpt><trkpt lat="43.3547857" lon="10.6512418"><ele>49.5</ele><time>2026-04-18T11:14:34.457Z</time></trkpt><trkpt lat="43.3549016" lon="10.6512813"><ele>50.0</ele><time>2026-04-18T11:14:35.489Z</time></trkpt><trkpt lat="43.3550181" lon="10.6513249"><ele>50.5</ele><time>2026-04-18T11:14:36.458Z</time></trkpt><trkpt lat="43.3551331" lon="10.6513653"><ele>51.0</ele><time>2026-04-18T11:14:37.456Z</time></trkpt><trkpt lat="43.3552475" lon="10.6514112"><ele>51.0</ele><time>2026-04-18T11:14:38.455Z</time></trkpt><trkpt lat="43.3553594" lon="10.651459"><ele>51.0</ele><time>2026-04-18T11:14:39.458Z</time></trkpt><trkpt lat="43.3554656" lon="10.6514979"><ele>51.0</ele><time>2026-04-18T11:14:40.468Z</time></trkpt><trkpt lat="43.3555705" lon="10.6515331"><ele>51.0</ele><time>2026-04-18T11:14:41.455Z</time></trkpt><trkpt lat="43.3556775" lon="10.6515526"><ele>51.0</ele><time>2026-04-18T11:14:42.468Z</time></trkpt><trkpt lat="43.3557843" lon="10.6515743"><ele>52.0</ele><time>2026-04-18T11:14:43.451Z</time></trkpt><trkpt lat="43.3558866" lon="10.6516004"><ele>53.0</ele><time>2026-04-18T11:14:44.452Z</time></trkpt><trkpt lat="43.355989" lon="10.6516349"><ele>53.99999999999999</ele><time>2026-04-18T11:14:45.453Z</time></trkpt><trkpt lat="43.3560922" lon="10.6516626"><ele>55.0</ele><time>2026-04-18T11:14:46.462Z</time></trkpt><trkpt lat="43.356195" lon="10.6516946"><ele>56.0</ele><time>2026-04-18T11:14:47.445Z</time></trkpt><trkpt lat="43.3562958" lon="10.6517438"><ele>55.75</ele><time>2026-04-18T11:14:48.442Z</time></trkpt><trkpt lat="43.3563991" lon="10.6518145"><ele>55.5</ele><time>2026-04-18T11:14:49.452Z</time></trkpt><trkpt lat="43.3565005" lon="10.6518891"><ele>55.25</ele><time>2026-04-18T11:14:50.452Z</time></trkpt><trkpt lat="43.3566134" lon="10.6519549"><ele>55.0</ele><time>2026-04-18T11:14:51.46Z</time></trkpt><trkpt lat="43.3567202" lon="10.6520235"><ele>55.0</ele><time>2026-04-18T11:14:52.442Z</time></trkpt><trkpt lat="43.356826" lon="10.6520761"><ele>55.0</ele><time>2026-04-18T11:14:53.446Z</time></trkpt><trkpt lat="43.356934" lon="10.6521359"><ele>55.0</ele><time>2026-04-18T11:14:54.442Z</time></trkpt><trkpt lat="43.3570402" lon="10.6522084"><ele>55.0</ele><time>2026-04-18T11:14:55.447Z</time></trkpt><trkpt lat="43.3571461" lon="10.6522815"><ele>56.25</ele><time>2026-04-18T11:14:56.447Z</time></trkpt><trkpt lat="43.357254" lon="10.6523516"><ele>57.5</ele><time>2026-04-18T11:14:57.445Z</time></trkpt><trkpt lat="43.3573577" lon="10.6524296"><ele>58.75</ele><time>2026-04-18T11:14:58.459Z</time></trkpt><trkpt lat="43.3574561" lon="10.6525011"><ele>60.0</ele><time>2026-04-18T11:14:59.437Z</time></trkpt><trkpt lat="43.3575585" lon="10.6525669"><ele>60.0</ele><time>2026-04-18T11:15:00.459Z</time></trkpt><trkpt lat="43.3576654" lon="10.6526307"><ele>60.0</ele><time>2026-04-18T11:15:01.451Z</time></trkpt><trkpt lat="43.3577693" lon="10.6526917"><ele>60.0</ele><time>2026-04-18T11:15:02.444Z</time></trkpt><trkpt lat="43.3578784" lon="10.6527498"><ele>60.0</ele><time>2026-04-18T11:15:03.442Z</time></trkpt><trkpt lat="43.3579907" lon="10.6527955"><ele>59.0</ele><time>2026-04-18T11:15:04.45Z</time></trkpt><trkpt lat="43.3581097" lon="10.6528264"><ele>58.0</ele><time>2026-04-18T11:15:05.44Z</time></trkpt><trkpt lat="43.3582242" lon="10.6528628"><ele>57.0</ele><time>2026-04-18T11:15:06.45Z</time></trkpt><trkpt lat="43.3583413" lon="10.6528852"><ele>56.0</ele><time>2026-04-18T11:15:07.449Z</time></trkpt><trkpt lat="43.3584587" lon="10.6529063"><ele>56.00000000000001</ele><time>2026-04-18T11:15:08.452Z</time></trkpt><trkpt lat="43.3585708" lon="10.652922"><ele>56.0</ele><time>2026-04-18T11:15:09.458Z</time></trkpt><trkpt lat="43.3586682" lon="10.6529329"><ele>56.0</ele><time>2026-04-18T11:15:10.446Z</time></trkpt><trkpt lat="43.3587509" lon="10.6529557"><ele>56.0</ele><time>2026-04-18T11:15:11.444Z</time></trkpt><trkpt lat="43.3588229" lon="10.6529645"><ele>56.00000000000001</ele><time>2026-04-18T11:15:12.436Z</time></trkpt><trkpt lat="43.3588948" lon="10.6529832"><ele>56.0</ele><time>2026-04-18T11:15:13.444Z</time></trkpt><trkpt lat="43.3589627" lon="10.6530021"><ele>56.833333333333336</ele><time>2026-04-18T11:15:14.453Z</time></trkpt><trkpt lat="43.3590803" lon="10.6530512"><ele>57.66666666666667</ele><time>2026-04-18T11:15:16.453Z</time></trkpt><trkpt lat="43.3591394" lon="10.6530822"><ele>58.5</ele><time>2026-04-18T11:15:17.467Z</time></trkpt><trkpt lat="43.359201" lon="10.6531186"><ele>59.33333333333333</ele><time>2026-04-18T11:15:18.442Z</time></trkpt><trkpt lat="43.3592779" lon="10.6531585"><ele>60.166666666666664</ele><time>2026-04-18T11:15:19.436Z</time></trkpt><trkpt lat="43.3593406" lon="10.6531991"><ele>61.0</ele><time>2026-04-18T11:15:20.453Z</time></trkpt><trkpt lat="43.3594118" lon="10.6532311"><ele>60.99999999999999</ele><time>2026-04-18T11:15:21.457Z</time></trkpt><trkpt lat="43.3594911" lon="10.6532546"><ele>61.0</ele><time>2026-04-18T11:15:22.448Z</time></trkpt><trkpt lat="43.3595762" lon="10.6532757"><ele>61.0</ele><time>2026-04-18T11:15:23.453Z</time></trkpt><trkpt lat="43.3596657" lon="10.6532921"><ele>61.0</ele><time>2026-04-18T11:15:24.457Z</time></trkpt><trkpt lat="43.3597546" lon="10.6533073"><ele>60.99999999999999</ele><time>2026-04-18T11:15:25.45Z</time></trkpt><trkpt lat="43.3598432" lon="10.6533141"><ele>61.0</ele><time>2026-04-18T11:15:26.453Z</time></trkpt><trkpt lat="43.35994" lon="10.6533228"><ele>61.4</ele><time>2026-04-18T11:15:27.452Z</time></trkpt><trkpt lat="43.3600357" lon="10.653339"><ele>61.8</ele><time>2026-04-18T11:15:28.465Z</time></trkpt><trkpt lat="43.3601259" lon="10.6533567"><ele>62.199999999999996</ele><time>2026-04-18T11:15:29.453Z</time></trkpt><trkpt lat="43.3602127" lon="10.6533891"><ele>62.599999999999994</ele><time>2026-04-18T11:15:30.457Z</time></trkpt><trkpt lat="43.3603004" lon="10.6534358"><ele>63.0</ele><time>2026-04-18T11:15:31.444Z</time></trkpt><trkpt lat="43.3603889" lon="10.6534845"><ele>63.0</ele><time>2026-04-18T11:15:32.459Z</time></trkpt><trkpt lat="43.3604728" lon="10.6535352"><ele>63.0</ele><time>2026-04-18T11:15:33.45Z</time></trkpt><trkpt lat="43.3605566" lon="10.6535796"><ele>63.0</ele><time>2026-04-18T11:15:34.458Z</time></trkpt><trkpt lat="43.3606404" lon="10.6536245"><ele>63.0</ele><time>2026-04-18T11:15:35.454Z</time></trkpt><trkpt lat="43.3607244" lon="10.6536586"><ele>63.0</ele><time>2026-04-18T11:15:36.459Z</time></trkpt><trkpt lat="43.3608087" lon="10.6536926"><ele>63.0</ele><time>2026-04-18T11:15:37.459Z</time></trkpt><trkpt lat="43.3608946" lon="10.6537273"><ele>63.2</ele><time>2026-04-18T11:15:38.463Z</time></trkpt><trkpt lat="43.360979" lon="10.6537687"><ele>63.4</ele><time>2026-04-18T11:15:39.46Z</time></trkpt><trkpt lat="43.3610558" lon="10.6538232"><ele>63.60000000000001</ele><time>2026-04-18T11:15:40.476Z</time></trkpt><trkpt lat="43.3611248" lon="10.65389"><ele>63.800000000000004</ele><time>2026-04-18T11:15:41.477Z</time></trkpt><trkpt lat="43.3612033" lon="10.6539577"><ele>64.0</ele><time>2026-04-18T11:15:42.459Z</time></trkpt><trkpt lat="43.3612863" lon="10.6540286"><ele>64.0</ele><time>2026-04-18T11:15:43.458Z</time></trkpt><trkpt lat="43.3613561" lon="10.6540972"><ele>64.0</ele><time>2026-04-18T11:15:44.444Z</time></trkpt><trkpt lat="43.3614238" lon="10.65418"><ele>64.0</ele><time>2026-04-18T11:15:45.455Z</time></trkpt><trkpt lat="43.361489" lon="10.6542883"><ele>64.0</ele><time>2026-04-18T11:15:46.456Z</time></trkpt><trkpt lat="43.3615485" lon="10.654388"><ele>64.0</ele><time>2026-04-18T11:15:47.467Z</time></trkpt><trkpt lat="43.3616057" lon="10.6544864"><ele>64.8</ele><time>2026-04-18T11:15:48.446Z</time></trkpt><trkpt lat="43.3616708" lon="10.6545625"><ele>65.60000000000001</ele><time>2026-04-18T11:15:49.451Z</time></trkpt><trkpt lat="43.3617605" lon="10.6546339"><ele>66.4</ele><time>2026-04-18T11:15:50.446Z</time></trkpt><trkpt lat="43.3618591" lon="10.6546928"><ele>67.2</ele><time>2026-04-18T11:15:51.448Z</time></trkpt><trkpt lat="43.3619655" lon="10.6547145"><ele>68.0</ele><time>2026-04-18T11:15:52.492Z</time></trkpt><trkpt lat="43.3620611" lon="10.6547477"><ele>68.0</ele><time>2026-04-18T11:15:53.454Z</time></trkpt><trkpt lat="43.3621543" lon="10.654789"><ele>68.0</ele><time>2026-04-18T11:15:54.455Z</time></trkpt><trkpt lat="43.3622396" lon="10.6548428"><ele>68.0</ele><time>2026-04-18T11:15:55.449Z</time></trkpt><trkpt lat="43.3623224" lon="10.6548996"><ele>68.0</ele><time>2026-04-18T11:15:56.446Z</time></trkpt><trkpt lat="43.3624076" lon="10.6549277"><ele>68.0</ele><time>2026-04-18T11:15:57.462Z</time></trkpt><trkpt lat="43.3624926" lon="10.6549332"><ele>70.6</ele><time>2026-04-18T11:15:58.453Z</time></trkpt><trkpt lat="43.3625843" lon="10.6549072"><ele>73.19999999999999</ele><time>2026-04-18T11:15:59.489Z</time></trkpt><trkpt lat="43.3626821" lon="10.6548601"><ele>75.8</ele><time>2026-04-18T11:16:00.457Z</time></trkpt><trkpt lat="43.3627749" lon="10.6548228"><ele>78.39999999999999</ele><time>2026-04-18T11:16:01.457Z</time></trkpt><trkpt lat="43.3628587" lon="10.6548223"><ele>81.0</ele><time>2026-04-18T11:16:02.448Z</time></trkpt><trkpt lat="43.3629255" lon="10.6548679"><ele>81.0</ele><time>2026-04-18T11:16:03.448Z</time></trkpt><trkpt lat="43.3629836" lon="10.6549394"><ele>81.0</ele><time>2026-04-18T11:16:04.479Z</time></trkpt><trkpt lat="43.3630357" lon="10.6550194"><ele>81.0</ele><time>2026-04-18T11:16:05.452Z</time></trkpt><trkpt lat="43.3630776" lon="10.6550844"><ele>81.0</ele><time>2026-04-18T11:16:06.449Z</time></trkpt><trkpt lat="43.3631828" lon="10.6551425"><ele>81.0</ele><time>2026-04-18T11:16:08.459Z</time></trkpt><trkpt lat="43.3632467" lon="10.6551372"><ele>81.0</ele><time>2026-04-18T11:16:09.453Z</time></trkpt><trkpt lat="43.3633153" lon="10.655128"><ele>82.33333333333333</ele><time>2026-04-18T11:16:10.444Z</time></trkpt><trkpt lat="43.3633794" lon="10.6551578"><ele>83.66666666666667</ele><time>2026-04-18T11:16:11.45Z</time></trkpt><trkpt lat="43.363453" lon="10.6551941"><ele>85.0</ele><time>2026-04-18T11:16:12.458Z</time></trkpt><trkpt lat="43.3635203" lon="10.6552383"><ele>86.33333333333334</ele><time>2026-04-18T11:16:13.453Z</time></trkpt><trkpt lat="43.3635957" lon="10.6552518"><ele>87.66666666666667</ele><time>2026-04-18T11:16:14.453Z</time></trkpt><trkpt lat="43.3636854" lon="10.6552272"><ele>89.0</ele><time>2026-04-18T11:16:15.454Z</time></trkpt><trkpt lat="43.3637398" lon="10.6551727"><ele>89.0</ele><time>2026-04-18T11:16:16.46Z</time></trkpt><trkpt lat="43.3637817" lon="10.6551002"><ele>89.0</ele><time>2026-04-18T11:16:17.45Z</time></trkpt><trkpt lat="43.3638013" lon="10.65495"><ele>89.0</ele><time>2026-04-18T11:16:19.442Z</time></trkpt><trkpt lat="43.3637784" lon="10.6548594"><ele>89.0</ele><time>2026-04-18T11:16:20.461Z</time></trkpt><trkpt lat="43.3637357" lon="10.6547565"><ele>89.0</ele><time>2026-04-18T11:16:21.458Z</time></trkpt><trkpt lat="43.363703" lon="10.6546514"><ele>89.0</ele><time>2026-04-18T11:16:22.466Z</time></trkpt><trkpt lat="43.3636667" lon="10.6545575"><ele>89.0</ele><time>2026-04-18T11:16:23.459Z</time></trkpt><trkpt lat="43.3636234" lon="10.6544649"><ele>89.0</ele><time>2026-04-18T11:16:24.453Z</time></trkpt><trkpt lat="43.363568" lon="10.6544072"><ele>89.0</ele><time>2026-04-18T11:16:25.462Z</time></trkpt><trkpt lat="43.3634902" lon="10.6543607"><ele>89.0</ele><time>2026-04-18T11:16:26.456Z</time></trkpt><trkpt lat="43.3634207" lon="10.6543322"><ele>89.0</ele><time>2026-04-18T11:16:27.46Z</time></trkpt><trkpt lat="43.3633423" lon="10.6542715"><ele>89.0</ele><time>2026-04-18T11:16:29.456Z</time></trkpt><trkpt lat="43.3633597" lon="10.6541711"><ele>91.0</ele><time>2026-04-18T11:16:31.451Z</time></trkpt><trkpt lat="43.3634457" lon="10.6541443"><ele>93.0</ele><time>2026-04-18T11:16:33.449Z</time></trkpt><trkpt lat="43.3635446" lon="10.6541986"><ele>95.0</ele><time>2026-04-18T11:16:35.45Z</time></trkpt><trkpt lat="43.3636691" lon="10.6542257"><ele>97.0</ele><time>2026-04-18T11:16:37.457Z</time></trkpt><trkpt lat="43.3637331" lon="10.6542365"><ele>99.0</ele><time>2026-04-18T11:16:38.459Z</time></trkpt><trkpt lat="43.3637972" lon="10.6542592"><ele>99.5</ele><time>2026-04-18T11:16:39.448Z</time></trkpt><trkpt lat="43.3639167" lon="10.6543159"><ele>100.0</ele><time>2026-04-18T11:16:41.478Z</time></trkpt><trkpt lat="43.3639881" lon="10.6543617"><ele>100.5</ele><time>2026-04-18T11:16:42.451Z</time></trkpt><trkpt lat="43.3640505" lon="10.6544271"><ele>101.0</ele><time>2026-04-18T11:16:43.463Z</time></trkpt><trkpt lat="43.3641106" lon="10.6544846"><ele>101.5</ele><time>2026-04-18T11:16:44.456Z</time></trkpt><trkpt lat="43.3641704" lon="10.6545576"><ele>102.0</ele><time>2026-04-18T11:16:45.475Z</time></trkpt><trkpt lat="43.3642224" lon="10.6546332"><ele>102.0</ele><time>2026-04-18T11:16:46.464Z</time></trkpt><trkpt lat="43.3642778" lon="10.6547045"><ele>102.0</ele><time>2026-04-18T11:16:47.462Z</time></trkpt><trkpt lat="43.3643348" lon="10.6547596"><ele>102.0</ele><time>2026-04-18T11:16:48.44Z</time></trkpt><trkpt lat="43.3644089" lon="10.6548061"><ele>102.0</ele><time>2026-04-18T11:16:49.461Z</time></trkpt><trkpt lat="43.3644793" lon="10.6548379"><ele>102.0</ele><time>2026-04-18T11:16:50.449Z</time></trkpt><trkpt lat="43.3645529" lon="10.654859"><ele>102.0</ele><time>2026-04-18T11:16:51.457Z</time></trkpt><trkpt lat="43.3646231" lon="10.6548586"><ele>102.0</ele><time>2026-04-18T11:16:52.456Z</time></trkpt><trkpt lat="43.3646944" lon="10.6548678"><ele>103.57142857142857</ele><time>2026-04-18T11:16:53.453Z</time></trkpt><trkpt lat="43.364759" lon="10.6548943"><ele>105.14285714285714</ele><time>2026-04-18T11:16:54.451Z</time></trkpt><trkpt lat="43.3648241" lon="10.654943"><ele>106.71428571428572</ele><time>2026-04-18T11:16:55.469Z</time></trkpt><trkpt lat="43.3648879" lon="10.6549755"><ele>108.28571428571428</ele><time>2026-04-18T11:16:56.455Z</time></trkpt><trkpt lat="43.3649548" lon="10.6550053"><ele>109.85714285714285</ele><time>2026-04-18T11:16:57.464Z</time></trkpt><trkpt lat="43.3650201" lon="10.6550098"><ele>111.42857142857143</ele><time>2026-04-18T11:16:58.455Z</time></trkpt><trkpt lat="43.3650854" lon="10.6549912"><ele>113.0</ele><time>2026-04-18T11:16:59.452Z</time></trkpt><trkpt lat="43.3651503" lon="10.6549639"><ele>112.99999999999999</ele><time>2026-04-18T11:17:00.453Z</time></trkpt><trkpt lat="43.3652216" lon="10.6549259"><ele>113.0</ele><time>2026-04-18T11:17:01.469Z</time></trkpt><trkpt lat="43.3652959" lon="10.6548856"><ele>113.0</ele><time>2026-04-18T11:17:02.449Z</time></trkpt><trkpt lat="43.3653656" lon="10.6548429"><ele>113.0</ele><time>2026-04-18T11:17:03.448Z</time></trkpt><trkpt lat="43.3654389" lon="10.6548119"><ele>112.99999999999999</ele><time>2026-04-18T11:17:04.461Z</time></trkpt><trkpt lat="43.3655171" lon="10.6547789"><ele>113.0</ele><time>2026-04-18T11:17:05.449Z</time></trkpt><trkpt lat="43.3655951" lon="10.6547494"><ele>113.0</ele><time>2026-04-18T11:17:06.446Z</time></trkpt><trkpt lat="43.3656736" lon="10.6547245"><ele>113.0</ele><time>2026-04-18T11:17:07.455Z</time></trkpt><trkpt lat="43.3657498" lon="10.6547153"><ele>113.0</ele><time>2026-04-18T11:17:08.456Z</time></trkpt><trkpt lat="43.3658196" lon="10.6547302"><ele>113.0</ele><time>2026-04-18T11:17:09.455Z</time></trkpt><trkpt lat="43.3658937" lon="10.6547568"><ele>113.0</ele><time>2026-04-18T11:17:10.451Z</time></trkpt><trkpt lat="43.3659688" lon="10.6547779"><ele>113.0</ele><time>2026-04-18T11:17:11.457Z</time></trkpt><trkpt lat="43.3660355" lon="10.6547741"><ele>113.0</ele><time>2026-04-18T11:17:12.454Z</time></trkpt><trkpt lat="43.3661185" lon="10.6546842"><ele>113.0</ele><time>2026-04-18T11:17:14.449Z</time></trkpt><trkpt lat="43.366148" lon="10.6545146"><ele>113.00000000000001</ele><time>2026-04-18T11:17:16.454Z</time></trkpt><trkpt lat="43.3661626" lon="10.6543389"><ele>113.00000000000001</ele><time>2026-04-18T11:17:18.45Z</time></trkpt><trkpt lat="43.3662094" lon="10.6541807"><ele>113.0</ele><time>2026-04-18T11:17:20.451Z</time></trkpt><trkpt lat="43.3662383" lon="10.6541001"><ele>113.0</ele><time>2026-04-18T11:17:21.447Z</time></trkpt><trkpt lat="43.3662685" lon="10.6540197"><ele>115.33333333333333</ele><time>2026-04-18T11:17:22.455Z</time></trkpt><trkpt lat="43.3663013" lon="10.653923"><ele>117.66666666666666</ele><time>2026-04-18T11:17:23.44Z</time></trkpt><trkpt lat="43.3663328" lon="10.6538195"><ele>120.0</ele><time>2026-04-18T11:17:24.461Z</time></trkpt><trkpt lat="43.3663501" lon="10.6537162"><ele>122.33333333333334</ele><time>2026-04-18T11:17:25.453Z</time></trkpt><trkpt lat="43.3663584" lon="10.6536117"><ele>124.66666666666667</ele><time>2026-04-18T11:17:26.458Z</time></trkpt><trkpt lat="43.366364" lon="10.6535179"><ele>127.0</ele><time>2026-04-18T11:17:27.466Z</time></trkpt><trkpt lat="43.3664318" lon="10.6533687"><ele>127.50000000000001</ele><time>2026-04-18T11:17:29.468Z</time></trkpt><trkpt lat="43.3664807" lon="10.6533098"><ele>128.0</ele><time>2026-04-18T11:17:30.447Z</time></trkpt><trkpt lat="43.3665993" lon="10.6532703"><ele>128.5</ele><time>2026-04-18T11:17:32.462Z</time></trkpt><trkpt lat="43.3666744" lon="10.6532626"><ele>129.0</ele><time>2026-04-18T11:17:33.456Z</time></trkpt><trkpt lat="43.366753" lon="10.6532607"><ele>129.5</ele><time>2026-04-18T11:17:34.461Z</time></trkpt><trkpt lat="43.3668292" lon="10.6532454"><ele>130.0</ele><time>2026-04-18T11:17:35.449Z</time></trkpt><trkpt lat="43.3668971" lon="10.653236"><ele>130.0</ele><time>2026-04-18T11:17:36.455Z</time></trkpt><trkpt lat="43.366971" lon="10.6532281"><ele>130.0</ele><time>2026-04-18T11:17:37.454Z</time></trkpt><trkpt lat="43.3670521" lon="10.6532182"><ele>130.0</ele><time>2026-04-18T11:17:38.448Z</time></trkpt><trkpt lat="43.367132" lon="10.6531937"><ele>130.0</ele><time>2026-04-18T11:17:39.461Z</time></trkpt><trkpt lat="43.3672108" lon="10.6531767"><ele>130.0</ele><time>2026-04-18T11:17:40.457Z</time></trkpt><trkpt lat="43.3672871" lon="10.6531591"><ele>130.0</ele><time>2026-04-18T11:17:41.454Z</time></trkpt><trkpt lat="43.3673665" lon="10.6531365"><ele>129.66666666666669</ele><time>2026-04-18T11:17:42.457Z</time></trkpt><trkpt lat="43.367447" lon="10.6531042"><ele>129.33333333333334</ele><time>2026-04-18T11:17:43.462Z</time></trkpt><trkpt lat="43.3675246" lon="10.6530792"><ele>129.0</ele><time>2026-04-18T11:17:44.445Z</time></trkpt><trkpt lat="43.3676006" lon="10.653045"><ele>128.66666666666666</ele><time>2026-04-18T11:17:45.447Z</time></trkpt><trkpt lat="43.3676798" lon="10.6530098"><ele>128.33333333333331</ele><time>2026-04-18T11:17:46.462Z</time></trkpt><trkpt lat="43.3677631" lon="10.6529906"><ele>128.0</ele><time>2026-04-18T11:17:47.456Z</time></trkpt><trkpt lat="43.3678357" lon="10.6529869"><ele>128.0</ele><time>2026-04-18T11:17:48.479Z</time></trkpt><trkpt lat="43.3679036" lon="10.6530029"><ele>128.0</ele><time>2026-04-18T11:17:49.453Z</time></trkpt><trkpt lat="43.3679677" lon="10.6530241"><ele>128.0</ele><time>2026-04-18T11:17:50.459Z</time></trkpt><trkpt lat="43.3680903" lon="10.6529968"><ele>128.0</ele><time>2026-04-18T11:17:52.451Z</time></trkpt><trkpt lat="43.3681337" lon="10.6529337"><ele>128.0</ele><time>2026-04-18T11:17:53.449Z</time></trkpt><trkpt lat="43.3682037" lon="10.6527853"><ele>131.16666666666666</ele><time>2026-04-18T11:17:55.456Z</time></trkpt><trkpt lat="43.3682928" lon="10.6526674"><ele>134.33333333333331</ele><time>2026-04-18T11:17:57.444Z</time></trkpt><trkpt lat="43.3683486" lon="10.652617"><ele>137.5</ele><time>2026-04-18T11:17:58.464Z</time></trkpt><trkpt lat="43.3684083" lon="10.6525664"><ele>140.66666666666666</ele><time>2026-04-18T11:17:59.464Z</time></trkpt><trkpt lat="43.368468" lon="10.6525235"><ele>143.83333333333334</ele><time>2026-04-18T11:18:00.461Z</time></trkpt><trkpt lat="43.3685397" lon="10.6524968"><ele>147.0</ele><time>2026-04-18T11:18:01.452Z</time></trkpt><trkpt lat="43.3686137" lon="10.6524776"><ele>147.0</ele><time>2026-04-18T11:18:02.453Z</time></trkpt><trkpt lat="43.36869" lon="10.6524884"><ele>147.0</ele><time>2026-04-18T11:18:03.444Z</time></trkpt><trkpt lat="43.3687556" lon="10.6525182"><ele>147.0</ele><time>2026-04-18T11:18:04.439Z</time></trkpt><trkpt lat="43.3688183" lon="10.6525744"><ele>147.0</ele><time>2026-04-18T11:18:05.457Z</time></trkpt><trkpt lat="43.3688644" lon="10.6526395"><ele>147.0</ele><time>2026-04-18T11:18:06.445Z</time></trkpt><trkpt lat="43.3689096" lon="10.6527131"><ele>147.0</ele><time>2026-04-18T11:18:07.479Z</time></trkpt><trkpt lat="43.3689642" lon="10.6527789"><ele>147.0</ele><time>2026-04-18T11:18:08.461Z</time></trkpt><trkpt lat="43.3690303" lon="10.6528264"><ele>145.71428571428572</ele><time>2026-04-18T11:18:09.465Z</time></trkpt><trkpt lat="43.3690964" lon="10.6528553"><ele>144.42857142857144</ele><time>2026-04-18T11:18:10.45Z</time></trkpt><trkpt lat="43.3691625" lon="10.652888"><ele>143.14285714285714</ele><time>2026-04-18T11:18:11.449Z</time></trkpt><trkpt lat="43.3692293" lon="10.6528828"><ele>141.85714285714286</ele><time>2026-04-18T11:18:12.446Z</time></trkpt><trkpt lat="43.3693044" lon="10.6528668"><ele>140.57142857142858</ele><time>2026-04-18T11:18:13.452Z</time></trkpt><trkpt lat="43.3693812" lon="10.652848"><ele>139.28571428571428</ele><time>2026-04-18T11:18:14.444Z</time></trkpt><trkpt lat="43.3694571" lon="10.6528283"><ele>138.0</ele><time>2026-04-18T11:18:15.455Z</time></trkpt><trkpt lat="43.3695324" lon="10.6528145"><ele>138.0</ele><time>2026-04-18T11:18:16.46Z</time></trkpt><trkpt lat="43.369607" lon="10.6528"><ele>138.0</ele><time>2026-04-18T11:18:17.449Z</time></trkpt><trkpt lat="43.3696845" lon="10.6527773"><ele>138.0</ele><time>2026-04-18T11:18:18.455Z</time></trkpt><trkpt lat="43.3697599" lon="10.6527458"><ele>138.0</ele><time>2026-04-18T11:18:19.453Z</time></trkpt><trkpt lat="43.3698289" lon="10.6527104"><ele>138.0</ele><time>2026-04-18T11:18:20.477Z</time></trkpt><trkpt lat="43.3699453" lon="10.6526187"><ele>138.0</ele><time>2026-04-18T11:18:22.451Z</time></trkpt><trkpt lat="43.3700646" lon="10.6525469"><ele>140.57142857142858</ele><time>2026-04-18T11:18:24.444Z</time></trkpt><trkpt lat="43.3701347" lon="10.6525265"><ele>143.14285714285717</ele><time>2026-04-18T11:18:25.467Z</time></trkpt><trkpt lat="43.3702065" lon="10.6525256"><ele>145.71428571428572</ele><time>2026-04-18T11:18:26.449Z</time></trkpt><trkpt lat="43.3702731" lon="10.6525515"><ele>148.28571428571428</ele><time>2026-04-18T11:18:27.454Z</time></trkpt><trkpt lat="43.3703459" lon="10.6525757"><ele>150.85714285714283</ele><time>2026-04-18T11:18:28.442Z</time></trkpt><trkpt lat="43.3704191" lon="10.6525789"><ele>153.42857142857144</ele><time>2026-04-18T11:18:29.447Z</time></trkpt><trkpt lat="43.3704895" lon="10.6525893"><ele>156.0</ele><time>2026-04-18T11:18:30.46Z</time></trkpt><trkpt lat="43.370561" lon="10.6525941"><ele>156.0</ele><time>2026-04-18T11:18:31.447Z</time></trkpt><trkpt lat="43.3706245" lon="10.6525734"><ele>156.0</ele><time>2026-04-18T11:18:32.457Z</time></trkpt><trkpt lat="43.3707373" lon="10.6524915"><ele>156.0</ele><time>2026-04-18T11:18:34.475Z</time></trkpt><trkpt lat="43.3708314" lon="10.6523917"><ele>156.0</ele><time>2026-04-18T11:18:36.45Z</time></trkpt><trkpt lat="43.3708819" lon="10.6522719"><ele>156.0</ele><time>2026-04-18T11:18:38.445Z</time></trkpt><trkpt lat="43.3708177" lon="10.6522091"><ele>156.0</ele><time>2026-04-18T11:18:40.452Z</time></trkpt><trkpt lat="43.3707095" lon="10.6522678"><ele>156.0</ele><time>2026-04-18T11:18:42.453Z</time></trkpt><trkpt lat="43.3706318" lon="10.6523245"><ele>156.0</ele><time>2026-04-18T11:18:44.45Z</time></trkpt><trkpt lat="43.3705613" lon="10.6522559"><ele>156.0</ele><time>2026-04-18T11:18:46.454Z</time></trkpt><trkpt lat="43.3705136" lon="10.6521776"><ele>156.0</ele><time>2026-04-18T11:18:47.454Z</time></trkpt><trkpt lat="43.3704248" lon="10.6520609"><ele>156.83333333333334</ele><time>2026-04-18T11:18:49.454Z</time></trkpt><trkpt lat="43.3703072" lon="10.6520214"><ele>157.66666666666666</ele><time>2026-04-18T11:18:51.448Z</time></trkpt><trkpt lat="43.3701979" lon="10.6520661"><ele>158.5</ele><time>2026-04-18T11:18:53.452Z</time></trkpt><trkpt lat="43.3701357" lon="10.6521041"><ele>159.33333333333331</ele><time>2026-04-18T11:18:54.438Z</time></trkpt><trkpt lat="43.370069" lon="10.6521329"><ele>160.16666666666666</ele><time>2026-04-18T11:18:55.444Z</time></trkpt><trkpt lat="43.3700057" lon="10.6521455"><ele>161.0</ele><time>2026-04-18T11:18:56.455Z</time></trkpt><trkpt lat="43.369935" lon="10.6521494"><ele>161.0</ele><time>2026-04-18T11:18:57.449Z</time></trkpt><trkpt lat="43.3698599" lon="10.6521409"><ele>161.0</ele><time>2026-04-18T11:18:58.443Z</time></trkpt><trkpt lat="43.3697884" lon="10.6521235"><ele>161.0</ele><time>2026-04-18T11:18:59.465Z</time></trkpt><trkpt lat="43.3697206" lon="10.6520913"><ele>161.0</ele><time>2026-04-18T11:19:00.449Z</time></trkpt><trkpt lat="43.3696587" lon="10.6520371"><ele>161.0</ele><time>2026-04-18T11:19:01.441Z</time></trkpt><trkpt lat="43.3695632" lon="10.6519422"><ele>161.0</ele><time>2026-04-18T11:19:03.45Z</time></trkpt><trkpt lat="43.3694772" lon="10.6518353"><ele>161.83333333333331</ele><time>2026-04-18T11:19:05.448Z</time></trkpt><trkpt lat="43.3694432" lon="10.6517349"><ele>162.66666666666666</ele><time>2026-04-18T11:19:07.454Z</time></trkpt><trkpt lat="43.3694781" lon="10.6516065"><ele>163.5</ele><time>2026-04-18T11:19:09.46Z</time></trkpt><trkpt lat="43.3695272" lon="10.6514572"><ele>164.33333333333334</ele><time>2026-04-18T11:19:11.445Z</time></trkpt><trkpt lat="43.3695569" lon="10.6513728"><ele>165.16666666666669</ele><time>2026-04-18T11:19:12.45Z</time></trkpt><trkpt lat="43.3695804" lon="10.6512897"><ele>166.0</ele><time>2026-04-18T11:19:13.454Z</time></trkpt><trkpt lat="43.3696411" lon="10.6511659"><ele>169.0</ele><time>2026-04-18T11:19:15.454Z</time></trkpt><trkpt lat="43.3697097" lon="10.6510738"><ele>172.0</ele><time>2026-04-18T11:19:17.472Z</time></trkpt><trkpt lat="43.3698212" lon="10.6510012"><ele>175.0</ele><time>2026-04-18T11:19:19.457Z</time></trkpt><trkpt lat="43.3699221" lon="10.6509327"><ele>178.0</ele><time>2026-04-18T11:19:21.452Z</time></trkpt><trkpt lat="43.3700515" lon="10.6509119"><ele>178.0</ele><time>2026-04-18T11:19:23.461Z</time></trkpt><trkpt lat="43.3701417" lon="10.6509321"><ele>178.0</ele><time>2026-04-18T11:19:24.455Z</time></trkpt><trkpt lat="43.3702224" lon="10.6509472"><ele>178.0</ele><time>2026-04-18T11:19:25.449Z</time></trkpt><trkpt lat="43.3702976" lon="10.6509786"><ele>178.0</ele><time>2026-04-18T11:19:26.453Z</time></trkpt><trkpt lat="43.3703679" lon="10.6509964"><ele>178.0</ele><time>2026-04-18T11:19:27.448Z</time></trkpt><trkpt lat="43.3704374" lon="10.6510179"><ele>178.0</ele><time>2026-04-18T11:19:28.449Z</time></trkpt><trkpt lat="43.370504" lon="10.6510395"><ele>178.0</ele><time>2026-04-18T11:19:29.448Z</time></trkpt><trkpt lat="43.3705986" lon="10.6509833"><ele>178.0</ele><time>2026-04-18T11:19:31.452Z</time></trkpt><trkpt lat="43.3706654" lon="10.6509302"><ele>178.0</ele><time>2026-04-18T11:19:32.449Z</time></trkpt><trkpt lat="43.3707222" lon="10.6508585"><ele>178.0</ele><time>2026-04-18T11:19:33.454Z</time></trkpt><trkpt lat="43.3707856" lon="10.6507595"><ele>178.0</ele><time>2026-04-18T11:19:34.45Z</time></trkpt><trkpt lat="43.3708405" lon="10.6506583"><ele>178.0</ele><time>2026-04-18T11:19:35.453Z</time></trkpt><trkpt lat="43.3708973" lon="10.6505619"><ele>178.0</ele><time>2026-04-18T11:19:36.456Z</time></trkpt><trkpt lat="43.3709587" lon="10.650464"><ele>178.0</ele><time>2026-04-18T11:19:37.455Z</time></trkpt><trkpt lat="43.3710133" lon="10.6503758"><ele>178.0</ele><time>2026-04-18T11:19:38.436Z</time></trkpt><trkpt lat="43.3710609" lon="10.6502798"><ele>178.0</ele><time>2026-04-18T11:19:39.452Z</time></trkpt><trkpt lat="43.3711122" lon="10.6502028"><ele>178.0</ele><time>2026-04-18T11:19:40.455Z</time></trkpt><trkpt lat="43.3711699" lon="10.6501093"><ele>178.0</ele><time>2026-04-18T11:19:41.459Z</time></trkpt><trkpt lat="43.371229" lon="10.6500256"><ele>177.83333333333334</ele><time>2026-04-18T11:19:42.447Z</time></trkpt><trkpt lat="43.3712924" lon="10.6499399"><ele>177.66666666666669</ele><time>2026-04-18T11:19:43.449Z</time></trkpt><trkpt lat="43.3713561" lon="10.6498531"><ele>177.5</ele><time>2026-04-18T11:19:44.447Z</time></trkpt><trkpt lat="43.3714169" lon="10.6497634"><ele>177.33333333333334</ele><time>2026-04-18T11:19:45.457Z</time></trkpt><trkpt lat="43.3714629" lon="10.6496599"><ele>177.16666666666666</ele><time>2026-04-18T11:19:46.461Z</time></trkpt><trkpt lat="43.371502" lon="10.6495484"><ele>177.0</ele><time>2026-04-18T11:19:47.445Z</time></trkpt><trkpt lat="43.3715264" lon="10.6494344"><ele>177.0</ele><time>2026-04-18T11:19:48.46Z</time></trkpt><trkpt lat="43.3715457" lon="10.6493234"><ele>177.0</ele><time>2026-04-18T11:19:49.445Z</time></trkpt><trkpt lat="43.3715628" lon="10.6492079"><ele>177.0</ele><time>2026-04-18T11:19:50.458Z</time></trkpt><trkpt lat="43.3715929" lon="10.649107"><ele>177.0</ele><time>2026-04-18T11:19:51.454Z</time></trkpt><trkpt lat="43.3716909" lon="10.6490371"><ele>177.0</ele><time>2026-04-18T11:19:53.454Z</time></trkpt><trkpt lat="43.3718159" lon="10.6490352"><ele>177.0</ele><time>2026-04-18T11:19:55.458Z</time></trkpt><trkpt lat="43.3719056" lon="10.6490281"><ele>177.0</ele><time>2026-04-18T11:19:56.459Z</time></trkpt><trkpt lat="43.3719931" lon="10.6490315"><ele>177.0</ele><time>2026-04-18T11:19:57.449Z</time></trkpt><trkpt lat="43.3720876" lon="10.6490263"><ele>177.0</ele><time>2026-04-18T11:19:58.45Z</time></trkpt><trkpt lat="43.3721782" lon="10.6490263"><ele>177.0</ele><time>2026-04-18T11:19:59.449Z</time></trkpt><trkpt lat="43.3722655" lon="10.649019"><ele>177.16666666666666</ele><time>2026-04-18T11:20:00.439Z</time></trkpt><trkpt lat="43.3723553" lon="10.6490092"><ele>177.33333333333334</ele><time>2026-04-18T11:20:01.453Z</time></trkpt><trkpt lat="43.3724424" lon="10.6489997"><ele>177.5</ele><time>2026-04-18T11:20:02.438Z</time></trkpt><trkpt lat="43.3725293" lon="10.6489973"><ele>177.66666666666669</ele><time>2026-04-18T11:20:03.471Z</time></trkpt><trkpt lat="43.3726133" lon="10.6489911"><ele>177.83333333333334</ele><time>2026-04-18T11:20:04.457Z</time></trkpt><trkpt lat="43.3726936" lon="10.6489938"><ele>178.0</ele><time>2026-04-18T11:20:05.448Z</time></trkpt><trkpt lat="43.3727725" lon="10.6489911"><ele>178.0</ele><time>2026-04-18T11:20:06.452Z</time></trkpt><trkpt lat="43.3728535" lon="10.6489813"><ele>178.0</ele><time>2026-04-18T11:20:07.445Z</time></trkpt><trkpt lat="43.3729354" lon="10.6489778"><ele>178.0</ele><time>2026-04-18T11:20:08.492Z</time></trkpt><trkpt lat="43.3730192" lon="10.6489749"><ele>178.0</ele><time>2026-04-18T11:20:09.452Z</time></trkpt><trkpt lat="43.3730956" lon="10.6489645"><ele>178.0</ele><time>2026-04-18T11:20:10.452Z</time></trkpt><trkpt lat="43.3731714" lon="10.6489626"><ele>178.0</ele><time>2026-04-18T11:20:11.45Z</time></trkpt><trkpt lat="43.3732417" lon="10.6489635"><ele>178.33333333333334</ele><time>2026-04-18T11:20:12.451Z</time></trkpt><trkpt lat="43.3733644" lon="10.6489513"><ele>178.66666666666669</ele><time>2026-04-18T11:20:14.449Z</time></trkpt><trkpt lat="43.373428" lon="10.6489396"><ele>179.0</ele><time>2026-04-18T11:20:15.443Z</time></trkpt><trkpt lat="43.3734966" lon="10.6489283"><ele>179.33333333333334</ele><time>2026-04-18T11:20:16.475Z</time></trkpt><trkpt lat="43.3735686" lon="10.6489228"><ele>179.66666666666666</ele><time>2026-04-18T11:20:17.454Z</time></trkpt><trkpt lat="43.3736391" lon="10.648924"><ele>180.0</ele><time>2026-04-18T11:20:18.445Z</time></trkpt><trkpt lat="43.3737116" lon="10.6489313"><ele>180.0</ele><time>2026-04-18T11:20:19.466Z</time></trkpt><trkpt lat="43.3737834" lon="10.6489264"><ele>180.0</ele><time>2026-04-18T11:20:20.453Z</time></trkpt><trkpt lat="43.3739017" lon="10.6489219"><ele>180.0</ele><time>2026-04-18T11:20:22.465Z</time></trkpt><trkpt lat="43.3740098" lon="10.648873"><ele>180.0</ele><time>2026-04-18T11:20:24.455Z</time></trkpt><trkpt lat="43.3741094" lon="10.6487963"><ele>180.0</ele><time>2026-04-18T11:20:26.455Z</time></trkpt><trkpt lat="43.3741683" lon="10.6487481"><ele>180.28571428571428</ele><time>2026-04-18T11:20:27.462Z</time></trkpt><trkpt lat="43.3742238" lon="10.6487"><ele>180.57142857142858</ele><time>2026-04-18T11:20:28.447Z</time></trkpt><trkpt lat="43.3742748" lon="10.6486466"><ele>180.85714285714286</ele><time>2026-04-18T11:20:29.455Z</time></trkpt><trkpt lat="43.3743375" lon="10.6485914"><ele>181.14285714285714</ele><time>2026-04-18T11:20:30.458Z</time></trkpt><trkpt lat="43.3744034" lon="10.648541"><ele>181.42857142857144</ele><time>2026-04-18T11:20:31.456Z</time></trkpt><trkpt lat="43.3744648" lon="10.6484926"><ele>181.71428571428572</ele><time>2026-04-18T11:20:32.445Z</time></trkpt><trkpt lat="43.3745237" lon="10.6484373"><ele>182.0</ele><time>2026-04-18T11:20:33.446Z</time></trkpt><trkpt lat="43.3745863" lon="10.6483819"><ele>182.0</ele><time>2026-04-18T11:20:34.452Z</time></trkpt><trkpt lat="43.3746475" lon="10.6483254"><ele>182.0</ele><time>2026-04-18T11:20:35.446Z</time></trkpt><trkpt lat="43.374709" lon="10.6482643"><ele>182.0</ele><time>2026-04-18T11:20:36.456Z</time></trkpt><trkpt lat="43.3747704" lon="10.6482082"><ele>182.0</ele><time>2026-04-18T11:20:37.455Z</time></trkpt><trkpt lat="43.3748352" lon="10.6481451"><ele>182.0</ele><time>2026-04-18T11:20:38.464Z</time></trkpt><trkpt lat="43.3748979" lon="10.6480869"><ele>182.0</ele><time>2026-04-18T11:20:39.452Z</time></trkpt><trkpt lat="43.3749657" lon="10.6480292"><ele>181.16666666666666</ele><time>2026-04-18T11:20:40.459Z</time></trkpt><trkpt lat="43.3750319" lon="10.6479683"><ele>180.33333333333331</ele><time>2026-04-18T11:20:41.452Z</time></trkpt><trkpt lat="43.3750955" lon="10.647905"><ele>179.5</ele><time>2026-04-18T11:20:42.457Z</time></trkpt><trkpt lat="43.3751603" lon="10.6478468"><ele>178.66666666666666</ele><time>2026-04-18T11:20:43.453Z</time></trkpt><trkpt lat="43.3752269" lon="10.6477946"><ele>177.83333333333334</ele><time>2026-04-18T11:20:44.447Z</time></trkpt><trkpt lat="43.3753059" lon="10.6477521"><ele>177.0</ele><time>2026-04-18T11:20:45.445Z</time></trkpt><trkpt lat="43.3753851" lon="10.6477322"><ele>179.83333333333334</ele><time>2026-04-18T11:20:46.46Z</time></trkpt><trkpt lat="43.3754523" lon="10.647725"><ele>182.66666666666669</ele><time>2026-04-18T11:20:47.458Z</time></trkpt><trkpt lat="43.3755241" lon="10.6477289"><ele>185.5</ele><time>2026-04-18T11:20:48.446Z</time></trkpt><trkpt lat="43.3756056" lon="10.6477331"><ele>188.33333333333334</ele><time>2026-04-18T11:20:49.451Z</time></trkpt><trkpt lat="43.3756981" lon="10.6477375"><ele>191.16666666666669</ele><time>2026-04-18T11:20:50.431Z</time></trkpt><trkpt lat="43.3758004" lon="10.6477362"><ele>194.0</ele><time>2026-04-18T11:20:51.445Z</time></trkpt><trkpt lat="43.3758882" lon="10.6477341"><ele>194.2</ele><time>2026-04-18T11:20:52.441Z</time></trkpt><trkpt lat="43.3759721" lon="10.6477467"><ele>194.39999999999998</ele><time>2026-04-18T11:20:53.441Z</time></trkpt><trkpt lat="43.3760504" lon="10.6477598"><ele>194.6</ele><time>2026-04-18T11:20:54.439Z</time></trkpt><trkpt lat="43.3761268" lon="10.647775"><ele>194.8</ele><time>2026-04-18T11:20:55.461Z</time></trkpt><trkpt lat="43.3762469" lon="10.6477128"><ele>195.0</ele><time>2026-04-18T11:20:57.451Z</time></trkpt><trkpt lat="43.376321" lon="10.6476464"><ele>194.8</ele><time>2026-04-18T11:20:58.455Z</time></trkpt><trkpt lat="43.3764041" lon="10.6475993"><ele>194.6</ele><time>2026-04-18T11:20:59.441Z</time></trkpt><trkpt lat="43.3764964" lon="10.6475839"><ele>194.39999999999998</ele><time>2026-04-18T11:21:00.446Z</time></trkpt><trkpt lat="43.37658" lon="10.6475935"><ele>194.2</ele><time>2026-04-18T11:21:01.453Z</time></trkpt><trkpt lat="43.3766764" lon="10.6476105"><ele>194.0</ele><time>2026-04-18T11:21:02.471Z</time></trkpt><trkpt lat="43.3767627" lon="10.6476351"><ele>194.0</ele><time>2026-04-18T11:21:03.444Z</time></trkpt><trkpt lat="43.3768475" lon="10.6476348"><ele>194.0</ele><time>2026-04-18T11:21:04.436Z</time></trkpt><trkpt lat="43.3769447" lon="10.6476166"><ele>194.0</ele><time>2026-04-18T11:21:05.47Z</time></trkpt><trkpt lat="43.3770368" lon="10.6475903"><ele>194.0</ele><time>2026-04-18T11:21:06.447Z</time></trkpt><trkpt lat="43.3771348" lon="10.6475707"><ele>194.0</ele><time>2026-04-18T11:21:07.451Z</time></trkpt><trkpt lat="43.3772391" lon="10.6475443"><ele>193.33333333333334</ele><time>2026-04-18T11:21:08.45Z</time></trkpt><trkpt lat="43.3773341" lon="10.6475158"><ele>192.66666666666669</ele><time>2026-04-18T11:21:09.476Z</time></trkpt><trkpt lat="43.3774228" lon="10.6474906"><ele>192.0</ele><time>2026-04-18T11:21:10.46Z</time></trkpt><trkpt lat="43.3774998" lon="10.6474705"><ele>191.33333333333334</ele><time>2026-04-18T11:21:11.457Z</time></trkpt><trkpt lat="43.3775824" lon="10.6474676"><ele>190.66666666666669</ele><time>2026-04-18T11:21:12.448Z</time></trkpt><trkpt lat="43.3776522" lon="10.6474505"><ele>190.0</ele><time>2026-04-18T11:21:13.483Z</time></trkpt><trkpt lat="43.3777345" lon="10.6473997"><ele>190.0</ele><time>2026-04-18T11:21:14.455Z</time></trkpt><trkpt lat="43.3778071" lon="10.6473402"><ele>190.0</ele><time>2026-04-18T11:21:15.463Z</time></trkpt><trkpt lat="43.3778789" lon="10.6472677"><ele>190.0</ele><time>2026-04-18T11:21:16.437Z</time></trkpt><trkpt lat="43.3779578" lon="10.6471832"><ele>190.0</ele><time>2026-04-18T11:21:17.453Z</time></trkpt><trkpt lat="43.3780292" lon="10.6470979"><ele>190.0</ele><time>2026-04-18T11:21:18.446Z</time></trkpt><trkpt lat="43.3781088" lon="10.6470385"><ele>188.4</ele><time>2026-04-18T11:21:19.467Z</time></trkpt><trkpt lat="43.3781866" lon="10.6469747"><ele>186.8</ele><time>2026-04-18T11:21:20.446Z</time></trkpt><trkpt lat="43.3782742" lon="10.6468991"><ele>185.2</ele><time>2026-04-18T11:21:21.444Z</time></trkpt><trkpt lat="43.3783565" lon="10.6468227"><ele>183.6</ele><time>2026-04-18T11:21:22.443Z</time></trkpt><trkpt lat="43.3784374" lon="10.6467388"><ele>182.0</ele><time>2026-04-18T11:21:23.492Z</time></trkpt><trkpt lat="43.3785091" lon="10.6466631"><ele>182.8</ele><time>2026-04-18T11:21:24.454Z</time></trkpt><trkpt lat="43.3785847" lon="10.6465865"><ele>183.6</ele><time>2026-04-18T11:21:25.448Z</time></trkpt><trkpt lat="43.3786679" lon="10.6465229"><ele>184.4</ele><time>2026-04-18T11:21:26.45Z</time></trkpt><trkpt lat="43.3787501" lon="10.6464755"><ele>185.20000000000002</ele><time>2026-04-18T11:21:27.483Z</time></trkpt><trkpt lat="43.3788356" lon="10.64643"><ele>186.0</ele><time>2026-04-18T11:21:28.459Z</time></trkpt><trkpt lat="43.3789158" lon="10.6463858"><ele>186.0</ele><time>2026-04-18T11:21:29.462Z</time></trkpt><trkpt lat="43.3790012" lon="10.6463461"><ele>186.0</ele><time>2026-04-18T11:21:30.473Z</time></trkpt><trkpt lat="43.3790811" lon="10.6463109"><ele>186.0</ele><time>2026-04-18T11:21:31.469Z</time></trkpt><trkpt lat="43.3791602" lon="10.6462915"><ele>186.0</ele><time>2026-04-18T11:21:32.465Z</time></trkpt><trkpt lat="43.3792303" lon="10.646301"><ele>186.0</ele><time>2026-04-18T11:21:33.462Z</time></trkpt><trkpt lat="43.3793582" lon="10.6462878"><ele>186.0</ele><time>2026-04-18T11:21:35.458Z</time></trkpt><trkpt lat="43.3794834" lon="10.6461997"><ele>186.0</ele><time>2026-04-18T11:21:37.445Z</time></trkpt><trkpt lat="43.3795646" lon="10.6461616"><ele>186.0</ele><time>2026-04-18T11:21:38.447Z</time></trkpt><trkpt lat="43.3796512" lon="10.6461229"><ele>186.0</ele><time>2026-04-18T11:21:39.452Z</time></trkpt><trkpt lat="43.3797536" lon="10.6460666"><ele>186.0</ele><time>2026-04-18T11:21:40.458Z</time></trkpt><trkpt lat="43.37986" lon="10.6460247"><ele>189.0</ele><time>2026-04-18T11:21:41.452Z</time></trkpt><trkpt lat="43.3799608" lon="10.6459998"><ele>192.0</ele><time>2026-04-18T11:21:42.443Z</time></trkpt><trkpt lat="43.380068" lon="10.6459864"><ele>195.0</ele><time>2026-04-18T11:21:43.455Z</time></trkpt><trkpt lat="43.3801803" lon="10.6459747"><ele>198.0</ele><time>2026-04-18T11:21:44.451Z</time></trkpt><trkpt lat="43.3802781" lon="10.6459644"><ele>201.0</ele><time>2026-04-18T11:21:45.45Z</time></trkpt><trkpt lat="43.3803711" lon="10.6459659"><ele>201.0</ele><time>2026-04-18T11:21:46.448Z</time></trkpt><trkpt lat="43.3804558" lon="10.6459665"><ele>201.0</ele><time>2026-04-18T11:21:47.444Z</time></trkpt><trkpt lat="43.3805407" lon="10.6459535"><ele>201.0</ele><time>2026-04-18T11:21:48.453Z</time></trkpt><trkpt lat="43.3806146" lon="10.6459274"><ele>201.0</ele><time>2026-04-18T11:21:49.452Z</time></trkpt><trkpt lat="43.380683" lon="10.6458789"><ele>201.0</ele><time>2026-04-18T11:21:50.441Z</time></trkpt><trkpt lat="43.380752" lon="10.645813"><ele>201.0</ele><time>2026-04-18T11:21:51.451Z</time></trkpt><trkpt lat="43.3808225" lon="10.6457492"><ele>199.83333333333334</ele><time>2026-04-18T11:21:52.448Z</time></trkpt><trkpt lat="43.3808974" lon="10.6456886"><ele>198.66666666666669</ele><time>2026-04-18T11:21:53.471Z</time></trkpt><trkpt lat="43.3809395" lon="10.6455929"><ele>197.5</ele><time>2026-04-18T11:21:54.454Z</time></trkpt><trkpt lat="43.3809639" lon="10.6455095"><ele>196.33333333333334</ele><time>2026-04-18T11:21:55.455Z</time></trkpt><trkpt lat="43.3809924" lon="10.645426"><ele>195.16666666666669</ele><time>2026-04-18T11:21:56.454Z</time></trkpt><trkpt lat="43.3810842" lon="10.6453355"><ele>194.0</ele><time>2026-04-18T11:21:58.449Z</time></trkpt><trkpt lat="43.381153" lon="10.6453743"><ele>194.0</ele><time>2026-04-18T11:21:59.45Z</time></trkpt><trkpt lat="43.3812283" lon="10.6454436"><ele>194.0</ele><time>2026-04-18T11:22:00.448Z</time></trkpt><trkpt lat="43.3813029" lon="10.6454914"><ele>194.0</ele><time>2026-04-18T11:22:01.468Z</time></trkpt><trkpt lat="43.3813877" lon="10.6455283"><ele>194.0</ele><time>2026-04-18T11:22:02.449Z</time></trkpt><trkpt lat="43.3814861" lon="10.6455606"><ele>194.0</ele><time>2026-04-18T11:22:03.459Z</time></trkpt><trkpt lat="43.3815737" lon="10.6455495"><ele>193.83333333333334</ele><time>2026-04-18T11:22:04.461Z</time></trkpt><trkpt lat="43.3816524" lon="10.6455401"><ele>193.66666666666669</ele><time>2026-04-18T11:22:05.443Z</time></trkpt><trkpt lat="43.3817196" lon="10.6454992"><ele>193.5</ele><time>2026-04-18T11:22:06.445Z</time></trkpt><trkpt lat="43.3817864" lon="10.6454443"><ele>193.33333333333331</ele><time>2026-04-18T11:22:07.45Z</time></trkpt><trkpt lat="43.3818376" lon="10.6453572"><ele>193.16666666666666</ele><time>2026-04-18T11:22:08.457Z</time></trkpt><trkpt lat="43.3818861" lon="10.6452636"><ele>193.0</ele><time>2026-04-18T11:22:09.463Z</time></trkpt><trkpt lat="43.381924" lon="10.6451746"><ele>195.16666666666666</ele><time>2026-04-18T11:22:10.46Z</time></trkpt><trkpt lat="43.3819557" lon="10.645096"><ele>197.33333333333331</ele><time>2026-04-18T11:22:11.469Z</time></trkpt><trkpt lat="43.3820085" lon="10.6449814"><ele>199.5</ele><time>2026-04-18T11:22:13.445Z</time></trkpt><trkpt lat="43.3820416" lon="10.6449064"><ele>201.66666666666669</ele><time>2026-04-18T11:22:22.441Z</time></trkpt><trkpt lat="43.3820983" lon="10.6448577"><ele>203.83333333333334</ele><time>2026-04-18T11:22:24.446Z</time></trkpt><trkpt lat="43.3821568" lon="10.6448145"><ele>206.0</ele><time>2026-04-18T11:22:26.452Z</time></trkpt><trkpt lat="43.382241" lon="10.6447747"><ele>206.4</ele><time>2026-04-18T11:22:28.459Z</time></trkpt><trkpt lat="43.3823054" lon="10.6447541"><ele>206.8</ele><time>2026-04-18T11:22:29.454Z</time></trkpt><trkpt lat="43.3824229" lon="10.644674"><ele>207.20000000000002</ele><time>2026-04-18T11:22:31.444Z</time></trkpt><trkpt lat="43.3825217" lon="10.6445538"><ele>207.60000000000002</ele><time>2026-04-18T11:22:33.444Z</time></trkpt><trkpt lat="43.3825665" lon="10.6444719"><ele>208.0</ele><time>2026-04-18T11:22:34.459Z</time></trkpt><trkpt lat="43.3825934" lon="10.6443712"><ele>210.16666666666666</ele><time>2026-04-18T11:22:35.447Z</time></trkpt><trkpt lat="43.3826285" lon="10.6442021"><ele>212.33333333333331</ele><time>2026-04-18T11:22:37.451Z</time></trkpt><trkpt lat="43.3826544" lon="10.6441175"><ele>214.5</ele><time>2026-04-18T11:22:38.444Z</time></trkpt><trkpt lat="43.3826857" lon="10.6440301"><ele>216.66666666666669</ele><time>2026-04-18T11:22:39.468Z</time></trkpt><trkpt lat="43.382718" lon="10.6439388"><ele>218.83333333333334</ele><time>2026-04-18T11:22:40.449Z</time></trkpt><trkpt lat="43.3827459" lon="10.6438519"><ele>221.0</ele><time>2026-04-18T11:22:41.45Z</time></trkpt><trkpt lat="43.3828259" lon="10.6437354"><ele>221.00000000000003</ele><time>2026-04-18T11:22:43.453Z</time></trkpt><trkpt lat="43.3828946" lon="10.6437197"><ele>221.0</ele><time>2026-04-18T11:22:44.453Z</time></trkpt><trkpt lat="43.3829615" lon="10.6437021"><ele>221.0</ele><time>2026-04-18T11:22:45.443Z</time></trkpt><trkpt lat="43.3830428" lon="10.6436893"><ele>221.0</ele><time>2026-04-18T11:22:46.451Z</time></trkpt><trkpt lat="43.3831168" lon="10.6436716"><ele>221.00000000000003</ele><time>2026-04-18T11:22:47.45Z</time></trkpt><trkpt lat="43.3831994" lon="10.6436292"><ele>221.0</ele><time>2026-04-18T11:22:48.46Z</time></trkpt><trkpt lat="43.3832694" lon="10.6435831"><ele>222.60000000000002</ele><time>2026-04-18T11:22:49.455Z</time></trkpt><trkpt lat="43.3833535" lon="10.6434629"><ele>224.20000000000002</ele><time>2026-04-18T11:22:51.453Z</time></trkpt><trkpt lat="43.3834537" lon="10.6433639"><ele>225.79999999999998</ele><time>2026-04-18T11:22:53.453Z</time></trkpt><trkpt lat="43.3835426" lon="10.6432645"><ele>227.39999999999998</ele><time>2026-04-18T11:22:55.449Z</time></trkpt><trkpt lat="43.3835722" lon="10.6431857"><ele>229.0</ele><time>2026-04-18T11:22:56.449Z</time></trkpt><trkpt lat="43.3835943" lon="10.6430989"><ele>228.99999999999997</ele><time>2026-04-18T11:22:57.447Z</time></trkpt><trkpt lat="43.3836154" lon="10.6429982"><ele>229.0</ele><time>2026-04-18T11:22:58.451Z</time></trkpt><trkpt lat="43.3836353" lon="10.6429123"><ele>229.0</ele><time>2026-04-18T11:22:59.457Z</time></trkpt><trkpt lat="43.3836538" lon="10.6428226"><ele>229.0</ele><time>2026-04-18T11:23:00.452Z</time></trkpt><trkpt lat="43.3837158" lon="10.6426867"><ele>228.99999999999997</ele><time>2026-04-18T11:23:02.446Z</time></trkpt><trkpt lat="43.3838076" lon="10.6426018"><ele>229.0</ele><time>2026-04-18T11:23:04.447Z</time></trkpt><trkpt lat="43.3839246" lon="10.6425146"><ele>230.33333333333331</ele><time>2026-04-18T11:23:06.449Z</time></trkpt><trkpt lat="43.3839785" lon="10.6424673"><ele>231.66666666666666</ele><time>2026-04-18T11:23:07.452Z</time></trkpt><trkpt lat="43.3840357" lon="10.6424165"><ele>233.0</ele><time>2026-04-18T11:23:08.452Z</time></trkpt><trkpt lat="43.3841196" lon="10.6423013"><ele>234.33333333333331</ele><time>2026-04-18T11:23:10.459Z</time></trkpt><trkpt lat="43.3841894" lon="10.6421984"><ele>235.66666666666666</ele><time>2026-04-18T11:23:12.461Z</time></trkpt><trkpt lat="43.3842419" lon="10.6421497"><ele>237.0</ele><time>2026-04-18T11:23:13.45Z</time></trkpt><trkpt lat="43.3843026" lon="10.6421124"><ele>237.0</ele><time>2026-04-18T11:23:14.446Z</time></trkpt><trkpt lat="43.3843636" lon="10.6420751"><ele>237.0</ele><time>2026-04-18T11:23:15.451Z</time></trkpt><trkpt lat="43.3844262" lon="10.6420404"><ele>237.0</ele><time>2026-04-18T11:23:16.448Z</time></trkpt><trkpt lat="43.3844867" lon="10.6419972"><ele>237.0</ele><time>2026-04-18T11:23:17.478Z</time></trkpt><trkpt lat="43.3845385" lon="10.6419436"><ele>237.0</ele><time>2026-04-18T11:23:18.44Z</time></trkpt><trkpt lat="43.3845943" lon="10.6418853"><ele>237.0</ele><time>2026-04-18T11:23:19.451Z</time></trkpt><trkpt lat="43.3846977" lon="10.6417731"><ele>238.33333333333334</ele><time>2026-04-18T11:23:21.445Z</time></trkpt><trkpt lat="43.3847512" lon="10.6417255"><ele>239.66666666666669</ele><time>2026-04-18T11:23:22.458Z</time></trkpt><trkpt lat="43.3848027" lon="10.6416701"><ele>241.0</ele><time>2026-04-18T11:23:23.453Z</time></trkpt><trkpt lat="43.3849069" lon="10.6415647"><ele>242.33333333333334</ele><time>2026-04-18T11:23:25.447Z</time></trkpt><trkpt lat="43.3849634" lon="10.6415034"><ele>243.66666666666669</ele><time>2026-04-18T11:23:26.445Z</time></trkpt><trkpt lat="43.3850229" lon="10.641444"><ele>245.0</ele><time>2026-04-18T11:23:27.452Z</time></trkpt><trkpt lat="43.3851227" lon="10.6413509"><ele>245.00000000000003</ele><time>2026-04-18T11:23:29.453Z</time></trkpt><trkpt lat="43.3852196" lon="10.6412816"><ele>245.0</ele><time>2026-04-18T11:23:31.468Z</time></trkpt><trkpt lat="43.3853302" lon="10.6413028"><ele>245.0</ele><time>2026-04-18T11:23:33.446Z</time></trkpt><trkpt lat="43.3853872" lon="10.6413515"><ele>245.0</ele><time>2026-04-18T11:23:34.442Z</time></trkpt><trkpt lat="43.3854462" lon="10.6414036"><ele>245.00000000000003</ele><time>2026-04-18T11:23:35.451Z</time></trkpt><trkpt lat="43.3855095" lon="10.6414562"><ele>245.0</ele><time>2026-04-18T11:23:36.449Z</time></trkpt><trkpt lat="43.3855714" lon="10.641519"><ele>246.16666666666669</ele><time>2026-04-18T11:23:37.448Z</time></trkpt><trkpt lat="43.3856169" lon="10.6416046"><ele>247.33333333333334</ele><time>2026-04-18T11:23:38.45Z</time></trkpt><trkpt lat="43.3856652" lon="10.6416986"><ele>248.5</ele><time>2026-04-18T11:23:39.454Z</time></trkpt><trkpt lat="43.3857036" lon="10.6417895"><ele>249.66666666666669</ele><time>2026-04-18T11:23:40.459Z</time></trkpt><trkpt lat="43.3857233" lon="10.6419015"><ele>250.83333333333334</ele><time>2026-04-18T11:23:41.449Z</time></trkpt><trkpt lat="43.3857275" lon="10.6420197"><ele>252.0</ele><time>2026-04-18T11:23:42.454Z</time></trkpt><trkpt lat="43.3857313" lon="10.6421161"><ele>252.0</ele><time>2026-04-18T11:23:43.44Z</time></trkpt><trkpt lat="43.38572" lon="10.6423025"><ele>252.0</ele><time>2026-04-18T11:23:45.442Z</time></trkpt><trkpt lat="43.3857038" lon="10.6424015"><ele>252.0</ele><time>2026-04-18T11:23:46.476Z</time></trkpt><trkpt lat="43.3856961" lon="10.6424927"><ele>252.0</ele><time>2026-04-18T11:23:47.447Z</time></trkpt><trkpt lat="43.3857113" lon="10.6425904"><ele>252.0</ele><time>2026-04-18T11:23:48.448Z</time></trkpt><trkpt lat="43.3857268" lon="10.6426843"><ele>252.0</ele><time>2026-04-18T11:23:49.441Z</time></trkpt><trkpt lat="43.3857517" lon="10.6427863"><ele>252.0</ele><time>2026-04-18T11:23:50.445Z</time></trkpt><trkpt lat="43.3857696" lon="10.6428864"><ele>252.0</ele><time>2026-04-18T11:23:51.452Z</time></trkpt><trkpt lat="43.3857983" lon="10.6429838"><ele>252.0</ele><time>2026-04-18T11:23:52.45Z</time></trkpt><trkpt lat="43.3858322" lon="10.6430613"><ele>252.0</ele><time>2026-04-18T11:23:53.455Z</time></trkpt><trkpt lat="43.3858729" lon="10.6431959"><ele>252.0</ele><time>2026-04-18T11:23:55.443Z</time></trkpt><trkpt lat="43.3859518" lon="10.6432702"><ele>252.0</ele><time>2026-04-18T11:23:57.45Z</time></trkpt><trkpt lat="43.3860581" lon="10.6433113"><ele>252.0</ele><time>2026-04-18T11:23:59.447Z</time></trkpt><trkpt lat="43.3861498" lon="10.6433603"><ele>252.0</ele><time>2026-04-18T11:24:01.442Z</time></trkpt><trkpt lat="43.3862191" lon="10.6433824"><ele>252.0</ele><time>2026-04-18T11:24:03.454Z</time></trkpt><trkpt lat="43.3863029" lon="10.6434023"><ele>252.0</ele><time>2026-04-18T11:24:05.456Z</time></trkpt><trkpt lat="43.3864118" lon="10.6434319"><ele>252.0</ele><time>2026-04-18T11:24:07.445Z</time></trkpt><trkpt lat="43.3864773" lon="10.6434438"><ele>252.0</ele><time>2026-04-18T11:24:08.455Z</time></trkpt><trkpt lat="43.3865427" lon="10.6434545"><ele>253.33333333333334</ele><time>2026-04-18T11:24:09.442Z</time></trkpt><trkpt lat="43.3866127" lon="10.6434736"><ele>254.66666666666669</ele><time>2026-04-18T11:24:10.456Z</time></trkpt><trkpt lat="43.386685" lon="10.6434872"><ele>256.0</ele><time>2026-04-18T11:24:11.446Z</time></trkpt><trkpt lat="43.3867582" lon="10.6435002"><ele>257.33333333333337</ele><time>2026-04-18T11:24:12.448Z</time></trkpt><trkpt lat="43.3868353" lon="10.6435074"><ele>258.6666666666667</ele><time>2026-04-18T11:24:13.45Z</time></trkpt><trkpt lat="43.3869109" lon="10.6435212"><ele>260.0</ele><time>2026-04-18T11:24:14.446Z</time></trkpt><trkpt lat="43.3869923" lon="10.6435272"><ele>260.0</ele><time>2026-04-18T11:24:15.441Z</time></trkpt><trkpt lat="43.3870745" lon="10.6435377"><ele>260.0</ele><time>2026-04-18T11:24:16.444Z</time></trkpt><trkpt lat="43.3871524" lon="10.6435531"><ele>260.0</ele><time>2026-04-18T11:24:17.455Z</time></trkpt><trkpt lat="43.3872318" lon="10.6435749"><ele>260.0</ele><time>2026-04-18T11:24:18.452Z</time></trkpt><trkpt lat="43.3873112" lon="10.643592"><ele>260.0</ele><time>2026-04-18T11:24:19.442Z</time></trkpt><trkpt lat="43.387383" lon="10.6436168"><ele>260.0</ele><time>2026-04-18T11:24:20.483Z</time></trkpt><trkpt lat="43.3874916" lon="10.6436691"><ele>260.2</ele><time>2026-04-18T11:24:22.453Z</time></trkpt><trkpt lat="43.387586" lon="10.6436727"><ele>260.4</ele><time>2026-04-18T11:24:24.451Z</time></trkpt><trkpt lat="43.3876393" lon="10.6435416"><ele>260.6</ele><time>2026-04-18T11:24:26.454Z</time></trkpt><trkpt lat="43.3876559" lon="10.6433751"><ele>260.8</ele><time>2026-04-18T11:24:28.446Z</time></trkpt><trkpt lat="43.3876752" lon="10.643225"><ele>261.0</ele><time>2026-04-18T11:24:30.447Z</time></trkpt><trkpt lat="43.3876834" lon="10.6430639"><ele>262.3333333333333</ele><time>2026-04-18T11:24:32.446Z</time></trkpt><trkpt lat="43.3877017" lon="10.6429147"><ele>263.6666666666667</ele><time>2026-04-18T11:24:34.447Z</time></trkpt><trkpt lat="43.3877107" lon="10.6428288"><ele>265.0</ele><time>2026-04-18T11:24:35.445Z</time></trkpt><trkpt lat="43.3877192" lon="10.6426642"><ele>266.33333333333337</ele><time>2026-04-18T11:24:37.448Z</time></trkpt><trkpt lat="43.387723" lon="10.6425742"><ele>267.6666666666667</ele><time>2026-04-18T11:24:38.456Z</time></trkpt><trkpt lat="43.3877253" lon="10.6424777"><ele>269.0</ele><time>2026-04-18T11:24:39.448Z</time></trkpt><trkpt lat="43.387725" lon="10.6423863"><ele>270.2</ele><time>2026-04-18T11:24:40.447Z</time></trkpt><trkpt lat="43.3877326" lon="10.6422885"><ele>271.4</ele><time>2026-04-18T11:24:41.452Z</time></trkpt><trkpt lat="43.3877534" lon="10.6421321"><ele>272.6</ele><time>2026-04-18T11:24:43.455Z</time></trkpt><trkpt lat="43.3878082" lon="10.6419778"><ele>273.8</ele><time>2026-04-18T11:24:45.458Z</time></trkpt><trkpt lat="43.3879009" lon="10.6418956"><ele>275.0</ele><time>2026-04-18T11:24:47.456Z</time></trkpt><trkpt lat="43.3879986" lon="10.6419106"><ele>277.0</ele><time>2026-04-18T11:24:49.456Z</time></trkpt><trkpt lat="43.3881072" lon="10.6419371"><ele>279.0</ele><time>2026-04-18T11:24:51.461Z</time></trkpt><trkpt lat="43.3881738" lon="10.6419446"><ele>281.0</ele><time>2026-04-18T11:24:52.438Z</time></trkpt><trkpt lat="43.3882406" lon="10.6419679"><ele>283.0</ele><time>2026-04-18T11:24:53.454Z</time></trkpt><trkpt lat="43.3883091" lon="10.6419876"><ele>285.0</ele><time>2026-04-18T11:24:54.456Z</time></trkpt><trkpt lat="43.3884321" lon="10.6420395"><ele>287.0</ele><time>2026-04-18T11:24:56.448Z</time></trkpt><trkpt lat="43.3884953" lon="10.6420492"><ele>287.0</ele><time>2026-04-18T11:24:57.449Z</time></trkpt><trkpt lat="43.388562" lon="10.6420547"><ele>287.0</ele><time>2026-04-18T11:24:58.458Z</time></trkpt><trkpt lat="43.3886286" lon="10.642057"><ele>287.0</ele><time>2026-04-18T11:24:59.433Z</time></trkpt><trkpt lat="43.3886906" lon="10.6420755"><ele>287.0</ele><time>2026-04-18T11:25:00.453Z</time></trkpt><trkpt lat="43.3887984" lon="10.6420719"><ele>287.0</ele><time>2026-04-18T11:25:02.447Z</time></trkpt><trkpt lat="43.388915" lon="10.6420394"><ele>287.0</ele><time>2026-04-18T11:25:04.452Z</time></trkpt><trkpt lat="43.389029" lon="10.641977"><ele>290.6666666666667</ele><time>2026-04-18T11:25:06.442Z</time></trkpt><trkpt lat="43.3891154" lon="10.6419384"><ele>294.33333333333337</ele><time>2026-04-18T11:25:08.452Z</time></trkpt><trkpt lat="43.3892142" lon="10.6418991"><ele>298.0</ele><time>2026-04-18T11:25:10.448Z</time></trkpt><trkpt lat="43.3892853" lon="10.6418736"><ele>301.6666666666667</ele><time>2026-04-18T11:25:11.452Z</time></trkpt><trkpt lat="43.3893497" lon="10.641858"><ele>305.3333333333333</ele><time>2026-04-18T11:25:12.467Z</time></trkpt><trkpt lat="43.3894218" lon="10.6418415"><ele>309.0</ele><time>2026-04-18T11:25:13.45Z</time></trkpt><trkpt lat="43.3894941" lon="10.6418393"><ele>309.0</ele><time>2026-04-18T11:25:14.461Z</time></trkpt><trkpt lat="43.3895587" lon="10.6418415"><ele>309.0</ele><time>2026-04-18T11:25:15.439Z</time></trkpt><trkpt lat="43.3896322" lon="10.6418261"><ele>309.0</ele><time>2026-04-18T11:25:16.438Z</time></trkpt><trkpt lat="43.3897582" lon="10.641809"><ele>309.0</ele><time>2026-04-18T11:25:18.449Z</time></trkpt><trkpt lat="43.3898442" lon="10.6418125"><ele>309.0</ele><time>2026-04-18T11:25:19.445Z</time></trkpt><trkpt lat="43.3899389" lon="10.6418423"><ele>309.0</ele><time>2026-04-18T11:25:20.457Z</time></trkpt><trkpt lat="43.3900428" lon="10.6418622"><ele>310.0</ele><time>2026-04-18T11:25:21.451Z</time></trkpt><trkpt lat="43.3901566" lon="10.6418752"><ele>311.0</ele><time>2026-04-18T11:25:22.454Z</time></trkpt><trkpt lat="43.3902554" lon="10.641897"><ele>312.0</ele><time>2026-04-18T11:25:23.452Z</time></trkpt><trkpt lat="43.3903481" lon="10.6419196"><ele>313.0</ele><time>2026-04-18T11:25:24.458Z</time></trkpt><trkpt lat="43.3904276" lon="10.641947"><ele>314.0</ele><time>2026-04-18T11:25:25.456Z</time></trkpt><trkpt lat="43.3905122" lon="10.6419527"><ele>314.5</ele><time>2026-04-18T11:25:26.438Z</time></trkpt><trkpt lat="43.3905806" lon="10.641956"><ele>315.0</ele><time>2026-04-18T11:25:27.447Z</time></trkpt><trkpt lat="43.3906594" lon="10.6419529"><ele>315.5</ele><time>2026-04-18T11:25:28.446Z</time></trkpt><trkpt lat="43.3907218" lon="10.6419309"><ele>316.0</ele><time>2026-04-18T11:25:29.441Z</time></trkpt><trkpt lat="43.3907962" lon="10.6418855"><ele>316.5</ele><time>2026-04-18T11:25:30.451Z</time></trkpt><trkpt lat="43.3908668" lon="10.6418115"><ele>317.0</ele><time>2026-04-18T11:25:31.439Z</time></trkpt><trkpt lat="43.3909287" lon="10.6417606"><ele>317.0</ele><time>2026-04-18T11:25:32.46Z</time></trkpt><trkpt lat="43.3909952" lon="10.6417178"><ele>317.0</ele><time>2026-04-18T11:25:33.455Z</time></trkpt><trkpt lat="43.391133" lon="10.6417376"><ele>317.0</ele><time>2026-04-18T11:25:35.442Z</time></trkpt><trkpt lat="43.3912049" lon="10.6417985"><ele>317.0</ele><time>2026-04-18T11:25:36.445Z</time></trkpt><trkpt lat="43.3912744" lon="10.6418493"><ele>317.0</ele><time>2026-04-18T11:25:37.444Z</time></trkpt><trkpt lat="43.3913572" lon="10.6418643"><ele>317.5</ele><time>2026-04-18T11:25:38.433Z</time></trkpt><trkpt lat="43.3914371" lon="10.641878"><ele>318.0</ele><time>2026-04-18T11:25:39.443Z</time></trkpt><trkpt lat="43.3915149" lon="10.6418802"><ele>318.5</ele><time>2026-04-18T11:25:40.465Z</time></trkpt><trkpt lat="43.3915796" lon="10.6418664"><ele>319.0</ele><time>2026-04-18T11:25:41.459Z</time></trkpt><trkpt lat="43.3917109" lon="10.641856"><ele>319.5</ele><time>2026-04-18T11:25:43.441Z</time></trkpt><trkpt lat="43.3917782" lon="10.6418542"><ele>320.0</ele><time>2026-04-18T11:25:44.463Z</time></trkpt><trkpt lat="43.3919091" lon="10.6418625"><ele>320.0</ele><time>2026-04-18T11:25:46.447Z</time></trkpt><trkpt lat="43.3919898" lon="10.6418595"><ele>320.0</ele><time>2026-04-18T11:25:47.444Z</time></trkpt><trkpt lat="43.3920552" lon="10.6418688"><ele>320.0</ele><time>2026-04-18T11:25:48.45Z</time></trkpt><trkpt lat="43.3921243" lon="10.6418729"><ele>320.0</ele><time>2026-04-18T11:25:49.452Z</time></trkpt><trkpt lat="43.3921874" lon="10.6418819"><ele>320.0</ele><time>2026-04-18T11:25:50.442Z</time></trkpt><trkpt lat="43.3923154" lon="10.641845"><ele>320.0</ele><time>2026-04-18T11:25:52.449Z</time></trkpt><trkpt lat="43.3924257" lon="10.6417735"><ele>322.0</ele><time>2026-04-18T11:25:54.457Z</time></trkpt><trkpt lat="43.3925121" lon="10.6416646"><ele>324.0</ele><time>2026-04-18T11:25:56.454Z</time></trkpt><trkpt lat="43.3925661" lon="10.6415314"><ele>326.0</ele><time>2026-04-18T11:25:58.456Z</time></trkpt><trkpt lat="43.3925907" lon="10.6414479"><ele>328.0</ele><time>2026-04-18T11:25:59.441Z</time></trkpt><trkpt lat="43.3926309" lon="10.6413075"><ele>330.0</ele><time>2026-04-18T11:26:01.449Z</time></trkpt><trkpt lat="43.3926624" lon="10.6411617"><ele>332.25</ele><time>2026-04-18T11:26:03.466Z</time></trkpt><trkpt lat="43.3927227" lon="10.6410154"><ele>334.5</ele><time>2026-04-18T11:26:05.462Z</time></trkpt><trkpt lat="43.3927819" lon="10.6408742"><ele>336.75</ele><time>2026-04-18T11:26:07.455Z</time></trkpt><trkpt lat="43.3928377" lon="10.6407247"><ele>339.0</ele><time>2026-04-18T11:26:09.449Z</time></trkpt><trkpt lat="43.3928928" lon="10.6405832"><ele>339.0</ele><time>2026-04-18T11:26:11.456Z</time></trkpt><trkpt lat="43.3929688" lon="10.6404555"><ele>339.0</ele><time>2026-04-18T11:26:13.457Z</time></trkpt><trkpt lat="43.3930184" lon="10.6403963"><ele>339.0</ele><time>2026-04-18T11:26:14.44Z</time></trkpt><trkpt lat="43.3931278" lon="10.6403406"><ele>339.0</ele><time>2026-04-18T11:26:16.444Z</time></trkpt><trkpt lat="43.3932395" lon="10.6404066"><ele>339.0</ele><time>2026-04-18T11:26:18.446Z</time></trkpt><trkpt lat="43.3932963" lon="10.6404563"><ele>340.57142857142856</ele><time>2026-04-18T11:26:19.438Z</time></trkpt><trkpt lat="43.3933516" lon="10.6405116"><ele>342.14285714285717</ele><time>2026-04-18T11:26:20.453Z</time></trkpt><trkpt lat="43.3934088" lon="10.6405768"><ele>343.7142857142857</ele><time>2026-04-18T11:26:21.456Z</time></trkpt><trkpt lat="43.393462" lon="10.6406511"><ele>345.2857142857143</ele><time>2026-04-18T11:26:22.449Z</time></trkpt><trkpt lat="43.3935206" lon="10.6407007"><ele>346.8571428571429</ele><time>2026-04-18T11:26:23.446Z</time></trkpt><trkpt lat="43.3935836" lon="10.640751"><ele>348.42857142857144</ele><time>2026-04-18T11:26:24.449Z</time></trkpt><trkpt lat="43.3936368" lon="10.6408206"><ele>350.0</ele><time>2026-04-18T11:26:25.458Z</time></trkpt><trkpt lat="43.39369" lon="10.6408862"><ele>350.0</ele><time>2026-04-18T11:26:26.449Z</time></trkpt><trkpt lat="43.3937329" lon="10.6409582"><ele>350.0</ele><time>2026-04-18T11:26:27.446Z</time></trkpt><trkpt lat="43.3937651" lon="10.6410416"><ele>350.0</ele><time>2026-04-18T11:26:28.45Z</time></trkpt><trkpt lat="43.393804" lon="10.6411159"><ele>350.0</ele><time>2026-04-18T11:26:29.444Z</time></trkpt><trkpt lat="43.3938834" lon="10.6412264"><ele>350.0</ele><time>2026-04-18T11:26:31.441Z</time></trkpt><trkpt lat="43.3939838" lon="10.6412421"><ele>350.0</ele><time>2026-04-18T11:26:33.443Z</time></trkpt><trkpt lat="43.3940911" lon="10.6412305"><ele>350.6666666666667</ele><time>2026-04-18T11:26:35.452Z</time></trkpt><trkpt lat="43.3941631" lon="10.6412062"><ele>351.33333333333337</ele><time>2026-04-18T11:26:36.443Z</time></trkpt><trkpt lat="43.3942309" lon="10.6411855"><ele>352.0</ele><time>2026-04-18T11:26:37.463Z</time></trkpt><trkpt lat="43.3942952" lon="10.6411469"><ele>352.6666666666667</ele><time>2026-04-18T11:26:38.443Z</time></trkpt><trkpt lat="43.3943603" lon="10.641121"><ele>353.3333333333333</ele><time>2026-04-18T11:26:39.444Z</time></trkpt><trkpt lat="43.3944658" lon="10.6410877"><ele>354.0</ele><time>2026-04-18T11:26:41.45Z</time></trkpt><trkpt lat="43.3945783" lon="10.6410381"><ele>358.6</ele><time>2026-04-18T11:26:43.451Z</time></trkpt><trkpt lat="43.394689" lon="10.6410084"><ele>363.2</ele><time>2026-04-18T11:26:45.445Z</time></trkpt><trkpt lat="43.3947835" lon="10.6409831"><ele>367.8</ele><time>2026-04-18T11:26:47.445Z</time></trkpt><trkpt lat="43.3948706" lon="10.640964"><ele>372.40000000000003</ele><time>2026-04-18T11:26:49.452Z</time></trkpt><trkpt lat="43.3949661" lon="10.640933"><ele>377.0</ele><time>2026-04-18T11:26:51.448Z</time></trkpt><trkpt lat="43.3950716" lon="10.6409145"><ele>377.0</ele><time>2026-04-18T11:26:53.438Z</time></trkpt><trkpt lat="43.3951394" lon="10.6409144"><ele>377.0</ele><time>2026-04-18T11:26:54.451Z</time></trkpt><trkpt lat="43.3952196" lon="10.6409013"><ele>377.0</ele><time>2026-04-18T11:26:55.446Z</time></trkpt><trkpt lat="43.3953044" lon="10.6408819"><ele>377.0</ele><time>2026-04-18T11:26:56.457Z</time></trkpt><trkpt lat="43.3953884" lon="10.6408666"><ele>377.0</ele><time>2026-04-18T11:26:57.44Z</time></trkpt><trkpt lat="43.3954641" lon="10.6408481"><ele>377.0</ele><time>2026-04-18T11:26:58.457Z</time></trkpt><trkpt lat="43.3955419" lon="10.6408365"><ele>377.1666666666667</ele><time>2026-04-18T11:26:59.451Z</time></trkpt><trkpt lat="43.395615" lon="10.6408258"><ele>377.33333333333337</ele><time>2026-04-18T11:27:00.453Z</time></trkpt><trkpt lat="43.3956932" lon="10.6408169"><ele>377.5</ele><time>2026-04-18T11:27:01.453Z</time></trkpt><trkpt lat="43.3957709" lon="10.6408134"><ele>377.6666666666667</ele><time>2026-04-18T11:27:02.443Z</time></trkpt><trkpt lat="43.3958506" lon="10.6407991"><ele>377.8333333333333</ele><time>2026-04-18T11:27:03.443Z</time></trkpt><trkpt lat="43.3959204" lon="10.6407784"><ele>378.0</ele><time>2026-04-18T11:27:04.44Z</time></trkpt><trkpt lat="43.3960152" lon="10.6407475"><ele>378.0</ele><time>2026-04-18T11:27:05.451Z</time></trkpt><trkpt lat="43.3961111" lon="10.6407165"><ele>378.0</ele><time>2026-04-18T11:27:06.456Z</time></trkpt><trkpt lat="43.3961922" lon="10.640704"><ele>378.0</ele><time>2026-04-18T11:27:07.461Z</time></trkpt><trkpt lat="43.3962639" lon="10.6406703"><ele>378.0</ele><time>2026-04-18T11:27:08.444Z</time></trkpt><trkpt lat="43.3963468" lon="10.6406119"><ele>378.0</ele><time>2026-04-18T11:27:09.45Z</time></trkpt><trkpt lat="43.396433" lon="10.6405727"><ele>378.0</ele><time>2026-04-18T11:27:10.445Z</time></trkpt><trkpt lat="43.3965107" lon="10.6405537"><ele>377.5</ele><time>2026-04-18T11:27:11.444Z</time></trkpt><trkpt lat="43.3965995" lon="10.6405379"><ele>377.0</ele><time>2026-04-18T11:27:12.444Z</time></trkpt><trkpt lat="43.3966846" lon="10.6405529"><ele>376.5</ele><time>2026-04-18T11:27:13.449Z</time></trkpt><trkpt lat="43.3967689" lon="10.6405891"><ele>376.0</ele><time>2026-04-18T11:27:14.442Z</time></trkpt><trkpt lat="43.3968462" lon="10.6406276"><ele>375.5</ele><time>2026-04-18T11:27:15.439Z</time></trkpt><trkpt lat="43.3969332" lon="10.6406596"><ele>375.0</ele><time>2026-04-18T11:27:16.442Z</time></trkpt><trkpt lat="43.3970039" lon="10.6406895"><ele>375.0</ele><time>2026-04-18T11:27:17.445Z</time></trkpt><trkpt lat="43.3970652" lon="10.6407185"><ele>375.0</ele><time>2026-04-18T11:27:18.453Z</time></trkpt><trkpt lat="43.3971665" lon="10.640785"><ele>375.0</ele><time>2026-04-18T11:27:20.448Z</time></trkpt><trkpt lat="43.3973017" lon="10.6408054"><ele>375.0</ele><time>2026-04-18T11:27:22.454Z</time></trkpt><trkpt lat="43.3973685" lon="10.6407951"><ele>375.0</ele><time>2026-04-18T11:27:23.448Z</time></trkpt><trkpt lat="43.3974415" lon="10.6407759"><ele>375.14285714285717</ele><time>2026-04-18T11:27:24.452Z</time></trkpt><trkpt lat="43.3975062" lon="10.640748"><ele>375.2857142857143</ele><time>2026-04-18T11:27:25.449Z</time></trkpt><trkpt lat="43.3975821" lon="10.640721"><ele>375.42857142857144</ele><time>2026-04-18T11:27:26.445Z</time></trkpt><trkpt lat="43.3976462" lon="10.6406926"><ele>375.57142857142856</ele><time>2026-04-18T11:27:27.446Z</time></trkpt><trkpt lat="43.3977147" lon="10.6406527"><ele>375.71428571428567</ele><time>2026-04-18T11:27:28.455Z</time></trkpt><trkpt lat="43.3977794" lon="10.6406264"><ele>375.85714285714283</ele><time>2026-04-18T11:27:29.457Z</time></trkpt><trkpt lat="43.3978676" lon="10.640591"><ele>376.0</ele><time>2026-04-18T11:27:30.446Z</time></trkpt><trkpt lat="43.3979446" lon="10.6405544"><ele>376.4</ele><time>2026-04-18T11:27:31.458Z</time></trkpt><trkpt lat="43.3980389" lon="10.6405421"><ele>376.8</ele><time>2026-04-18T11:27:32.449Z</time></trkpt><trkpt lat="43.3981314" lon="10.6405299"><ele>377.2</ele><time>2026-04-18T11:27:33.449Z</time></trkpt><trkpt lat="43.3982469" lon="10.6405243"><ele>377.59999999999997</ele><time>2026-04-18T11:27:34.44Z</time></trkpt><trkpt lat="43.3983631" lon="10.6405064"><ele>378.0</ele><time>2026-04-18T11:27:35.445Z</time></trkpt><trkpt lat="43.3984597" lon="10.6404956"><ele>378.0</ele><time>2026-04-18T11:27:36.439Z</time></trkpt><trkpt lat="43.3985493" lon="10.6404912"><ele>378.0</ele><time>2026-04-18T11:27:37.446Z</time></trkpt><trkpt lat="43.3986459" lon="10.6404881"><ele>378.0</ele><time>2026-04-18T11:27:38.453Z</time></trkpt><trkpt lat="43.3987439" lon="10.6405008"><ele>378.0</ele><time>2026-04-18T11:27:39.455Z</time></trkpt><trkpt lat="43.3988454" lon="10.6405253"><ele>378.0</ele><time>2026-04-18T11:27:40.452Z</time></trkpt><trkpt lat="43.3989439" lon="10.6405589"><ele>379.3333333333333</ele><time>2026-04-18T11:27:41.447Z</time></trkpt><trkpt lat="43.3990315" lon="10.6405991"><ele>380.66666666666663</ele><time>2026-04-18T11:27:42.459Z</time></trkpt><trkpt lat="43.399107" lon="10.6406325"><ele>382.0</ele><time>2026-04-18T11:27:43.446Z</time></trkpt><trkpt lat="43.3991815" lon="10.6406718"><ele>383.3333333333333</ele><time>2026-04-18T11:27:44.452Z</time></trkpt><trkpt lat="43.399258" lon="10.6407302"><ele>384.66666666666663</ele><time>2026-04-18T11:27:45.458Z</time></trkpt><trkpt lat="43.3993445" lon="10.6408019"><ele>386.0</ele><time>2026-04-18T11:27:46.441Z</time></trkpt><trkpt lat="43.3994302" lon="10.6408665"><ele>385.99999999999994</ele><time>2026-04-18T11:27:47.45Z</time></trkpt><trkpt lat="43.3995118" lon="10.6409199"><ele>386.0</ele><time>2026-04-18T11:27:48.45Z</time></trkpt><trkpt lat="43.399581" lon="10.6409609"><ele>386.0</ele><time>2026-04-18T11:27:49.442Z</time></trkpt><trkpt lat="43.3996563" lon="10.6410226"><ele>386.0</ele><time>2026-04-18T11:27:50.459Z</time></trkpt><trkpt lat="43.3997351" lon="10.6410457"><ele>385.99999999999994</ele><time>2026-04-18T11:27:51.452Z</time></trkpt><trkpt lat="43.3998093" lon="10.6409941"><ele>386.0</ele><time>2026-04-18T11:27:53.45Z</time></trkpt><trkpt lat="43.3997771" lon="10.640907"><ele>386.0</ele><time>2026-04-18T11:28:00.442Z</time></trkpt><trkpt lat="43.3997176" lon="10.6408609"><ele>386.0</ele><time>2026-04-18T11:28:02.445Z</time></trkpt><trkpt lat="43.3996348" lon="10.6407748"><ele>386.0</ele><time>2026-04-18T11:28:05.444Z</time></trkpt><trkpt lat="43.3995911" lon="10.6407101"><ele>386.0</ele><time>2026-04-18T11:28:06.448Z</time></trkpt><trkpt lat="43.3995658" lon="10.6405804"><ele>386.0</ele><time>2026-04-18T11:28:08.446Z</time></trkpt><trkpt lat="43.3996024" lon="10.6404141"><ele>385.99999999999994</ele><time>2026-04-18T11:28:10.458Z</time></trkpt><trkpt lat="43.3996235" lon="10.6403176"><ele>386.0</ele><time>2026-04-18T11:28:11.473Z</time></trkpt><trkpt lat="43.3996203" lon="10.6401707"><ele>386.0</ele><time>2026-04-18T11:28:13.455Z</time></trkpt><trkpt lat="43.3996017" lon="10.6400157"><ele>386.0</ele><time>2026-04-18T11:28:15.445Z</time></trkpt><trkpt lat="43.3995889" lon="10.6399177"><ele>385.99999999999994</ele><time>2026-04-18T11:28:16.464Z</time></trkpt><trkpt lat="43.3995723" lon="10.6398333"><ele>386.0</ele><time>2026-04-18T11:28:17.446Z</time></trkpt><trkpt lat="43.3995424" lon="10.6396706"><ele>388.20000000000005</ele><time>2026-04-18T11:28:19.449Z</time></trkpt><trkpt lat="43.3995144" lon="10.6395089"><ele>390.40000000000003</ele><time>2026-04-18T11:28:21.438Z</time></trkpt><trkpt lat="43.3994618" lon="10.6393486"><ele>392.6</ele><time>2026-04-18T11:28:23.448Z</time></trkpt><trkpt lat="43.3994284" lon="10.6392741"><ele>394.8</ele><time>2026-04-18T11:28:24.471Z</time></trkpt><trkpt lat="43.3993605" lon="10.6391348"><ele>397.0</ele><time>2026-04-18T11:28:26.448Z</time></trkpt><trkpt lat="43.3992731" lon="10.6390152"><ele>399.50000000000006</ele><time>2026-04-18T11:28:28.452Z</time></trkpt><trkpt lat="43.3992331" lon="10.6389394"><ele>402.0</ele><time>2026-04-18T11:28:29.447Z</time></trkpt><trkpt lat="43.3991836" lon="10.6388729"><ele>404.5</ele><time>2026-04-18T11:28:30.445Z</time></trkpt><trkpt lat="43.3991362" lon="10.6388034"><ele>407.0</ele><time>2026-04-18T11:28:31.447Z</time></trkpt><trkpt lat="43.3990898" lon="10.6387425"><ele>409.50000000000006</ele><time>2026-04-18T11:28:32.457Z</time></trkpt><trkpt lat="43.3990116" lon="10.6386271"><ele>412.0</ele><time>2026-04-18T11:28:34.462Z</time></trkpt><trkpt lat="43.3989767" lon="10.638529"><ele>414.40000000000003</ele><time>2026-04-18T11:28:36.448Z</time></trkpt><trkpt lat="43.3989559" lon="10.6384414"><ele>416.8</ele><time>2026-04-18T11:28:37.45Z</time></trkpt><trkpt lat="43.398958" lon="10.6382767"><ele>419.2</ele><time>2026-04-18T11:28:39.445Z</time></trkpt><trkpt lat="43.398974" lon="10.6381257"><ele>421.6</ele><time>2026-04-18T11:28:41.439Z</time></trkpt><trkpt lat="43.3989459" lon="10.6379466"><ele>424.0</ele><time>2026-04-18T11:28:43.452Z</time></trkpt><trkpt lat="43.3989047" lon="10.6378542"><ele>424.50000000000006</ele><time>2026-04-18T11:28:44.446Z</time></trkpt><trkpt lat="43.398881" lon="10.6377644"><ele>425.0</ele><time>2026-04-18T11:28:45.446Z</time></trkpt><trkpt lat="43.398852" lon="10.637666"><ele>425.5</ele><time>2026-04-18T11:28:46.444Z</time></trkpt><trkpt lat="43.3988124" lon="10.6375133"><ele>426.0</ele><time>2026-04-18T11:28:48.446Z</time></trkpt><trkpt lat="43.3987811" lon="10.6374257"><ele>426.50000000000006</ele><time>2026-04-18T11:28:49.447Z</time></trkpt><trkpt lat="43.3987541" lon="10.6373435"><ele>427.0</ele><time>2026-04-18T11:28:50.485Z</time></trkpt><trkpt lat="43.3987237" lon="10.6372628"><ele>427.83333333333337</ele><time>2026-04-18T11:28:51.455Z</time></trkpt><trkpt lat="43.3986368" lon="10.6371626"><ele>428.6666666666667</ele><time>2026-04-18T11:28:53.462Z</time></trkpt><trkpt lat="43.3985805" lon="10.6371186"><ele>429.5</ele><time>2026-04-18T11:28:54.444Z</time></trkpt><trkpt lat="43.398513" lon="10.6370678"><ele>430.33333333333337</ele><time>2026-04-18T11:28:55.444Z</time></trkpt><trkpt lat="43.3984514" lon="10.6370178"><ele>431.1666666666667</ele><time>2026-04-18T11:28:56.452Z</time></trkpt><trkpt lat="43.3983966" lon="10.6369619"><ele>432.0</ele><time>2026-04-18T11:28:57.456Z</time></trkpt><trkpt lat="43.3982924" lon="10.6368482"><ele>433.57142857142856</ele><time>2026-04-18T11:28:59.442Z</time></trkpt><trkpt lat="43.3982375" lon="10.6367925"><ele>435.1428571428571</ele><time>2026-04-18T11:29:00.463Z</time></trkpt><trkpt lat="43.3981718" lon="10.6367265"><ele>436.7142857142857</ele><time>2026-04-18T11:29:01.45Z</time></trkpt><trkpt lat="43.3981091" lon="10.6366771"><ele>438.2857142857143</ele><time>2026-04-18T11:29:02.442Z</time></trkpt><trkpt lat="43.3980537" lon="10.6366257"><ele>439.8571428571429</ele><time>2026-04-18T11:29:03.439Z</time></trkpt><trkpt lat="43.397989" lon="10.6365683"><ele>441.42857142857144</ele><time>2026-04-18T11:29:04.441Z</time></trkpt><trkpt lat="43.3979302" lon="10.6365144"><ele>443.0</ele><time>2026-04-18T11:29:05.445Z</time></trkpt><trkpt lat="43.3978714" lon="10.6364565"><ele>444.0</ele><time>2026-04-18T11:29:06.442Z</time></trkpt><trkpt lat="43.3978198" lon="10.6364026"><ele>444.99999999999994</ele><time>2026-04-18T11:29:07.447Z</time></trkpt><trkpt lat="43.3977415" lon="10.6362815"><ele>445.99999999999994</ele><time>2026-04-18T11:29:09.454Z</time></trkpt><trkpt lat="43.3976646" lon="10.6361584"><ele>447.0</ele><time>2026-04-18T11:29:11.457Z</time></trkpt><trkpt lat="43.3976027" lon="10.6360214"><ele>448.0</ele><time>2026-04-18T11:29:13.447Z</time></trkpt><trkpt lat="43.3975337" lon="10.6358954"><ele>450.5</ele><time>2026-04-18T11:29:15.447Z</time></trkpt><trkpt lat="43.3974546" lon="10.6357596"><ele>453.0</ele><time>2026-04-18T11:29:17.456Z</time></trkpt><trkpt lat="43.3974125" lon="10.6356159"><ele>455.5</ele><time>2026-04-18T11:29:19.476Z</time></trkpt><trkpt lat="43.3973886" lon="10.6354576"><ele>458.0</ele><time>2026-04-18T11:29:21.45Z</time></trkpt><trkpt lat="43.3973907" lon="10.6352695"><ele>459.66666666666663</ele><time>2026-04-18T11:29:23.447Z</time></trkpt><trkpt lat="43.3973945" lon="10.6351824"><ele>461.3333333333333</ele><time>2026-04-18T11:29:24.454Z</time></trkpt><trkpt lat="43.3973954" lon="10.6350924"><ele>463.0</ele><time>2026-04-18T11:29:25.454Z</time></trkpt><trkpt lat="43.397405" lon="10.6349258"><ele>464.66666666666663</ele><time>2026-04-18T11:29:27.449Z</time></trkpt><trkpt lat="43.3974081" lon="10.6347707"><ele>466.3333333333333</ele><time>2026-04-18T11:29:29.457Z</time></trkpt><trkpt lat="43.3974278" lon="10.6346739"><ele>468.0</ele><time>2026-04-18T11:29:30.443Z</time></trkpt><trkpt lat="43.3974506" lon="10.634573"><ele>468.1666666666667</ele><time>2026-04-18T11:29:31.454Z</time></trkpt><trkpt lat="43.3974731" lon="10.6344648"><ele>468.33333333333337</ele><time>2026-04-18T11:29:32.451Z</time></trkpt><trkpt lat="43.3974943" lon="10.6343501"><ele>468.5</ele><time>2026-04-18T11:29:33.45Z</time></trkpt><trkpt lat="43.3975131" lon="10.6342382"><ele>468.6666666666667</ele><time>2026-04-18T11:29:34.45Z</time></trkpt><trkpt lat="43.3975304" lon="10.6341299"><ele>468.83333333333337</ele><time>2026-04-18T11:29:35.471Z</time></trkpt><trkpt lat="43.3975478" lon="10.6340206"><ele>469.0</ele><time>2026-04-18T11:29:36.463Z</time></trkpt><trkpt lat="43.3975655" lon="10.6339059"><ele>469.00000000000006</ele><time>2026-04-18T11:29:37.451Z</time></trkpt><trkpt lat="43.3975826" lon="10.6337963"><ele>469.0</ele><time>2026-04-18T11:29:38.451Z</time></trkpt><trkpt lat="43.3976037" lon="10.6336797"><ele>469.0</ele><time>2026-04-18T11:29:39.459Z</time></trkpt><trkpt lat="43.3976254" lon="10.6335565"><ele>469.0</ele><time>2026-04-18T11:29:40.46Z</time></trkpt><trkpt lat="43.3976454" lon="10.6334352"><ele>469.00000000000006</ele><time>2026-04-18T11:29:41.453Z</time></trkpt><trkpt lat="43.3976655" lon="10.633309"><ele>469.0</ele><time>2026-04-18T11:29:42.457Z</time></trkpt><trkpt lat="43.3976818" lon="10.6331895"><ele>468.83333333333337</ele><time>2026-04-18T11:29:43.454Z</time></trkpt><trkpt lat="43.3976995" lon="10.6330913"><ele>468.6666666666667</ele><time>2026-04-18T11:29:44.438Z</time></trkpt><trkpt lat="43.3977185" lon="10.6329841"><ele>468.5</ele><time>2026-04-18T11:29:45.447Z</time></trkpt><trkpt lat="43.3977427" lon="10.6328729"><ele>468.33333333333337</ele><time>2026-04-18T11:29:46.442Z</time></trkpt><trkpt lat="43.3977647" lon="10.6327515"><ele>468.1666666666667</ele><time>2026-04-18T11:29:47.454Z</time></trkpt><trkpt lat="43.3977797" lon="10.6326293"><ele>468.0</ele><time>2026-04-18T11:29:48.455Z</time></trkpt><trkpt lat="43.3978006" lon="10.6324965"><ele>468.0</ele><time>2026-04-18T11:29:49.448Z</time></trkpt><trkpt lat="43.3978215" lon="10.6323842"><ele>468.0</ele><time>2026-04-18T11:29:50.455Z</time></trkpt><trkpt lat="43.3978405" lon="10.632262"><ele>468.0</ele><time>2026-04-18T11:29:51.449Z</time></trkpt><trkpt lat="43.3978762" lon="10.6321655"><ele>468.0</ele><time>2026-04-18T11:29:52.454Z</time></trkpt><trkpt lat="43.3979216" lon="10.632066"><ele>468.0</ele><time>2026-04-18T11:29:53.457Z</time></trkpt><trkpt lat="43.3979652" lon="10.6319763"><ele>468.0</ele><time>2026-04-18T11:29:54.453Z</time></trkpt><trkpt lat="43.3980171" lon="10.6318798"><ele>469.0</ele><time>2026-04-18T11:29:55.458Z</time></trkpt><trkpt lat="43.3980704" lon="10.6317817"><ele>469.99999999999994</ele><time>2026-04-18T11:29:56.456Z</time></trkpt><trkpt lat="43.398114" lon="10.6316823"><ele>470.99999999999994</ele><time>2026-04-18T11:29:57.451Z</time></trkpt><trkpt lat="43.3981551" lon="10.6315812"><ele>472.0</ele><time>2026-04-18T11:29:58.459Z</time></trkpt><trkpt lat="43.3981972" lon="10.6314693"><ele>473.0</ele><time>2026-04-18T11:29:59.456Z</time></trkpt><trkpt lat="43.3982325" lon="10.6313205"><ele>473.0</ele><time>2026-04-18T11:30:00.442Z</time></trkpt><trkpt lat="43.3982624" lon="10.6312047"><ele>472.99999999999994</ele><time>2026-04-18T11:30:01.466Z</time></trkpt><trkpt lat="43.3982722" lon="10.6310635"><ele>472.99999999999994</ele><time>2026-04-18T11:30:02.458Z</time></trkpt><trkpt lat="43.3982676" lon="10.630939"><ele>473.0</ele><time>2026-04-18T11:30:03.461Z</time></trkpt><trkpt lat="43.3982424" lon="10.630806"><ele>473.0</ele><time>2026-04-18T11:30:04.457Z</time></trkpt><trkpt lat="43.3982026" lon="10.6306872"><ele>473.99999999999994</ele><time>2026-04-18T11:30:05.435Z</time></trkpt><trkpt lat="43.3981694" lon="10.6305792"><ele>475.0</ele><time>2026-04-18T11:30:06.446Z</time></trkpt><trkpt lat="43.3981469" lon="10.63047"><ele>476.0</ele><time>2026-04-18T11:30:07.451Z</time></trkpt><trkpt lat="43.3981362" lon="10.6303642"><ele>477.0</ele><time>2026-04-18T11:30:08.444Z</time></trkpt><trkpt lat="43.398133" lon="10.6302487"><ele>477.99999999999994</ele><time>2026-04-18T11:30:09.47Z</time></trkpt><trkpt lat="43.3981349" lon="10.6301217"><ele>479.0</ele><time>2026-04-18T11:30:10.453Z</time></trkpt><trkpt lat="43.3981392" lon="10.6300058"><ele>480.99999999999994</ele><time>2026-04-18T11:30:11.445Z</time></trkpt><trkpt lat="43.3981373" lon="10.6298929"><ele>483.0</ele><time>2026-04-18T11:30:12.454Z</time></trkpt><trkpt lat="43.398129" lon="10.6297806"><ele>485.0</ele><time>2026-04-18T11:30:13.442Z</time></trkpt><trkpt lat="43.3981303" lon="10.6296817"><ele>487.0</ele><time>2026-04-18T11:30:14.447Z</time></trkpt><trkpt lat="43.3981295" lon="10.6295705"><ele>488.99999999999994</ele><time>2026-04-18T11:30:15.446Z</time></trkpt><trkpt lat="43.3981268" lon="10.6294486"><ele>491.0</ele><time>2026-04-18T11:30:16.447Z</time></trkpt><trkpt lat="43.3981253" lon="10.6293389"><ele>491.66666666666663</ele><time>2026-04-18T11:30:17.448Z</time></trkpt><trkpt lat="43.3981258" lon="10.6292155"><ele>492.3333333333333</ele><time>2026-04-18T11:30:18.445Z</time></trkpt><trkpt lat="43.3981201" lon="10.629079"><ele>493.0</ele><time>2026-04-18T11:30:19.447Z</time></trkpt><trkpt lat="43.3981278" lon="10.6289692"><ele>493.66666666666663</ele><time>2026-04-18T11:30:20.475Z</time></trkpt><trkpt lat="43.3981393" lon="10.6288444"><ele>494.3333333333333</ele><time>2026-04-18T11:30:21.453Z</time></trkpt><trkpt lat="43.3981476" lon="10.6287473"><ele>495.0</ele><time>2026-04-18T11:30:22.45Z</time></trkpt><trkpt lat="43.3981476" lon="10.6286476"><ele>495.4</ele><time>2026-04-18T11:30:23.449Z</time></trkpt><trkpt lat="43.398146" lon="10.6285461"><ele>495.8</ele><time>2026-04-18T11:30:24.454Z</time></trkpt><trkpt lat="43.3981595" lon="10.6283718"><ele>496.20000000000005</ele><time>2026-04-18T11:30:26.453Z</time></trkpt><trkpt lat="43.3981821" lon="10.6282284"><ele>496.6</ele><time>2026-04-18T11:30:28.462Z</time></trkpt><trkpt lat="43.3982095" lon="10.6280911"><ele>497.0</ele><time>2026-04-18T11:30:30.452Z</time></trkpt><trkpt lat="43.3982074" lon="10.6279471"><ele>497.66666666666663</ele><time>2026-04-18T11:30:32.45Z</time></trkpt><trkpt lat="43.3981686" lon="10.6277739"><ele>498.3333333333333</ele><time>2026-04-18T11:30:34.435Z</time></trkpt><trkpt lat="43.3981295" lon="10.6276782"><ele>499.0</ele><time>2026-04-18T11:30:35.447Z</time></trkpt><trkpt lat="43.3981105" lon="10.6275799"><ele>499.66666666666663</ele><time>2026-04-18T11:30:36.447Z</time></trkpt><trkpt lat="43.3980899" lon="10.6274818"><ele>500.3333333333333</ele><time>2026-04-18T11:30:37.445Z</time></trkpt><trkpt lat="43.3980634" lon="10.6273947"><ele>501.0</ele><time>2026-04-18T11:30:38.439Z</time></trkpt><trkpt lat="43.3980449" lon="10.6273112"><ele>501.0</ele><time>2026-04-18T11:30:39.447Z</time></trkpt><trkpt lat="43.3980383" lon="10.6272211"><ele>501.0</ele><time>2026-04-18T11:30:40.444Z</time></trkpt><trkpt lat="43.3980739" lon="10.6270513"><ele>501.0</ele><time>2026-04-18T11:30:42.449Z</time></trkpt><trkpt lat="43.3981032" lon="10.6269644"><ele>501.0</ele><time>2026-04-18T11:30:43.453Z</time></trkpt><trkpt lat="43.3981305" lon="10.6268582"><ele>501.0</ele><time>2026-04-18T11:30:44.451Z</time></trkpt><trkpt lat="43.3981637" lon="10.6267697"><ele>501.0</ele><time>2026-04-18T11:30:45.45Z</time></trkpt><trkpt lat="43.3981957" lon="10.6266754"><ele>502.6666666666667</ele><time>2026-04-18T11:30:46.453Z</time></trkpt><trkpt lat="43.3982383" lon="10.6265881"><ele>504.33333333333337</ele><time>2026-04-18T11:30:47.456Z</time></trkpt><trkpt lat="43.3983016" lon="10.6265017"><ele>506.0</ele><time>2026-04-18T11:30:48.451Z</time></trkpt><trkpt lat="43.3983725" lon="10.6264221"><ele>507.6666666666667</ele><time>2026-04-18T11:30:49.461Z</time></trkpt><trkpt lat="43.3984384" lon="10.6263361"><ele>509.33333333333337</ele><time>2026-04-18T11:30:50.452Z</time></trkpt><trkpt lat="43.3984888" lon="10.6262507"><ele>511.0</ele><time>2026-04-18T11:30:51.461Z</time></trkpt><trkpt lat="43.3985245" lon="10.6261532"><ele>512.8333333333334</ele><time>2026-04-18T11:30:52.447Z</time></trkpt><trkpt lat="43.3985397" lon="10.626056"><ele>514.6666666666667</ele><time>2026-04-18T11:30:53.452Z</time></trkpt><trkpt lat="43.3985036" lon="10.6259337"><ele>516.5</ele><time>2026-04-18T11:30:55.455Z</time></trkpt><trkpt lat="43.3984279" lon="10.6259162"><ele>518.3333333333334</ele><time>2026-04-18T11:30:57.455Z</time></trkpt><trkpt lat="43.3983623" lon="10.6259398"><ele>520.1666666666666</ele><time>2026-04-18T11:30:58.474Z</time></trkpt><trkpt lat="43.3982534" lon="10.6259236"><ele>522.0</ele><time>2026-04-18T11:31:00.456Z</time></trkpt><trkpt lat="43.3981537" lon="10.6258221"><ele>522.0</ele><time>2026-04-18T11:31:02.454Z</time></trkpt><trkpt lat="43.39812" lon="10.6257278"><ele>522.0</ele><time>2026-04-18T11:31:03.459Z</time></trkpt><trkpt lat="43.3981103" lon="10.6256388"><ele>522.0</ele><time>2026-04-18T11:31:04.463Z</time></trkpt><trkpt lat="43.3981079" lon="10.6255484"><ele>522.0</ele><time>2026-04-18T11:31:05.454Z</time></trkpt><trkpt lat="43.398106" lon="10.6254455"><ele>522.0</ele><time>2026-04-18T11:31:06.454Z</time></trkpt><trkpt lat="43.3980969" lon="10.6253538"><ele>522.0</ele><time>2026-04-18T11:31:07.458Z</time></trkpt><trkpt lat="43.3980935" lon="10.6252586"><ele>522.0</ele><time>2026-04-18T11:31:08.453Z</time></trkpt><trkpt lat="43.3980962" lon="10.6251679"><ele>523.2</ele><time>2026-04-18T11:31:09.457Z</time></trkpt><trkpt lat="43.398088" lon="10.6250708"><ele>524.4000000000001</ele><time>2026-04-18T11:31:10.451Z</time></trkpt><trkpt lat="43.3980979" lon="10.6249083"><ele>525.5999999999999</ele><time>2026-04-18T11:31:12.454Z</time></trkpt><trkpt lat="43.3981081" lon="10.624742"><ele>526.8</ele><time>2026-04-18T11:31:14.456Z</time></trkpt><trkpt lat="43.3981162" lon="10.6245862"><ele>528.0</ele><time>2026-04-18T11:31:16.454Z</time></trkpt><trkpt lat="43.3981129" lon="10.6244194"><ele>528.8</ele><time>2026-04-18T11:31:18.458Z</time></trkpt><trkpt lat="43.398096" lon="10.6242512"><ele>529.5999999999999</ele><time>2026-04-18T11:31:20.459Z</time></trkpt><trkpt lat="43.3980607" lon="10.6240993"><ele>530.4000000000001</ele><time>2026-04-18T11:31:22.467Z</time></trkpt><trkpt lat="43.3980453" lon="10.6239764"><ele>531.2</ele><time>2026-04-18T11:31:24.455Z</time></trkpt><trkpt lat="43.3980462" lon="10.6238351"><ele>532.0</ele><time>2026-04-18T11:31:26.451Z</time></trkpt><trkpt lat="43.3980859" lon="10.6237117"><ele>532.3333333333334</ele><time>2026-04-18T11:31:28.457Z</time></trkpt><trkpt lat="43.3981437" lon="10.6235991"><ele>532.6666666666667</ele><time>2026-04-18T11:31:30.457Z</time></trkpt><trkpt lat="43.3982274" lon="10.6234678"><ele>533.0</ele><time>2026-04-18T11:31:32.437Z</time></trkpt><trkpt lat="43.3982733" lon="10.623387"><ele>533.3333333333334</ele><time>2026-04-18T11:31:33.449Z</time></trkpt><trkpt lat="43.3983114" lon="10.6233071"><ele>533.6666666666666</ele><time>2026-04-18T11:31:34.449Z</time></trkpt><trkpt lat="43.3983499" lon="10.623229"><ele>534.0</ele><time>2026-04-18T11:31:35.449Z</time></trkpt><trkpt lat="43.398391" lon="10.6231578"><ele>534.0</ele><time>2026-04-18T11:31:36.486Z</time></trkpt><trkpt lat="43.3984331" lon="10.6230331"><ele>534.0</ele><time>2026-04-18T11:31:38.454Z</time></trkpt><trkpt lat="43.3984582" lon="10.6228961"><ele>534.0</ele><time>2026-04-18T11:31:40.454Z</time></trkpt><trkpt lat="43.398481" lon="10.6227551"><ele>534.0</ele><time>2026-04-18T11:31:42.442Z</time></trkpt><trkpt lat="43.3984622" lon="10.6226156"><ele>534.0</ele><time>2026-04-18T11:31:44.453Z</time></trkpt><trkpt lat="43.3984481" lon="10.6224531"><ele>534.2857142857143</ele><time>2026-04-18T11:31:46.456Z</time></trkpt><trkpt lat="43.3984493" lon="10.6223632"><ele>534.5714285714286</ele><time>2026-04-18T11:31:47.446Z</time></trkpt><trkpt lat="43.3984847" lon="10.6222173"><ele>534.8571428571429</ele><time>2026-04-18T11:31:49.458Z</time></trkpt><trkpt lat="43.3985159" lon="10.6221411"><ele>535.1428571428571</ele><time>2026-04-18T11:31:50.461Z</time></trkpt><trkpt lat="43.3985522" lon="10.6220639"><ele>535.4285714285714</ele><time>2026-04-18T11:31:51.468Z</time></trkpt><trkpt lat="43.3985965" lon="10.6219802"><ele>535.7142857142858</ele><time>2026-04-18T11:31:52.465Z</time></trkpt><trkpt lat="43.3986378" lon="10.6219098"><ele>536.0</ele><time>2026-04-18T11:31:53.449Z</time></trkpt><trkpt lat="43.3986881" lon="10.6218422"><ele>536.0</ele><time>2026-04-18T11:31:54.464Z</time></trkpt><trkpt lat="43.3987318" lon="10.6217783"><ele>536.0</ele><time>2026-04-18T11:31:55.461Z</time></trkpt><trkpt lat="43.3987671" lon="10.6217007"><ele>536.0</ele><time>2026-04-18T11:31:56.471Z</time></trkpt><trkpt lat="43.3987932" lon="10.6215311"><ele>536.0</ele><time>2026-04-18T11:31:58.456Z</time></trkpt><trkpt lat="43.3987821" lon="10.6214342"><ele>536.0</ele><time>2026-04-18T11:31:59.441Z</time></trkpt><trkpt lat="43.3987717" lon="10.6213351"><ele>536.0</ele><time>2026-04-18T11:32:00.456Z</time></trkpt><trkpt lat="43.3987613" lon="10.6212381"><ele>536.1428571428571</ele><time>2026-04-18T11:32:01.45Z</time></trkpt><trkpt lat="43.3987545" lon="10.6211351"><ele>536.2857142857142</ele><time>2026-04-18T11:32:02.456Z</time></trkpt><trkpt lat="43.3987746" lon="10.6210413"><ele>536.4285714285713</ele><time>2026-04-18T11:32:03.455Z</time></trkpt><trkpt lat="43.3987954" lon="10.6209515"><ele>536.5714285714286</ele><time>2026-04-18T11:32:04.451Z</time></trkpt><trkpt lat="43.3988249" lon="10.6208725"><ele>536.7142857142857</ele><time>2026-04-18T11:32:05.456Z</time></trkpt><trkpt lat="43.3988702" lon="10.6208067"><ele>536.8571428571428</ele><time>2026-04-18T11:32:06.451Z</time></trkpt><trkpt lat="43.3989122" lon="10.6207315"><ele>537.0</ele><time>2026-04-18T11:32:07.463Z</time></trkpt><trkpt lat="43.3989561" lon="10.6206418"><ele>537.0</ele><time>2026-04-18T11:32:08.454Z</time></trkpt><trkpt lat="43.3990007" lon="10.6205451"><ele>537.0</ele><time>2026-04-18T11:32:09.452Z</time></trkpt><trkpt lat="43.3990525" lon="10.6204494"><ele>537.0</ele><time>2026-04-18T11:32:10.463Z</time></trkpt><trkpt lat="43.3991053" lon="10.6203418"><ele>537.0</ele><time>2026-04-18T11:32:11.462Z</time></trkpt><trkpt lat="43.3991606" lon="10.6202322"><ele>537.0</ele><time>2026-04-18T11:32:12.471Z</time></trkpt><trkpt lat="43.3992077" lon="10.6201172"><ele>536.3333333333334</ele><time>2026-04-18T11:32:13.478Z</time></trkpt><trkpt lat="43.3992503" lon="10.6200091"><ele>535.6666666666666</ele><time>2026-04-18T11:32:14.451Z</time></trkpt><trkpt lat="43.3992938" lon="10.6199053"><ele>535.0</ele><time>2026-04-18T11:32:15.454Z</time></trkpt><trkpt lat="43.399347" lon="10.6198027"><ele>534.3333333333333</ele><time>2026-04-18T11:32:16.451Z</time></trkpt><trkpt lat="43.3993887" lon="10.6196952"><ele>533.6666666666666</ele><time>2026-04-18T11:32:17.46Z</time></trkpt><trkpt lat="43.3994237" lon="10.6195809"><ele>533.0</ele><time>2026-04-18T11:32:18.456Z</time></trkpt><trkpt lat="43.3994474" lon="10.6194699"><ele>532.8333333333333</ele><time>2026-04-18T11:32:19.459Z</time></trkpt><trkpt lat="43.3994565" lon="10.6193617"><ele>532.6666666666666</ele><time>2026-04-18T11:32:20.451Z</time></trkpt><trkpt lat="43.3994669" lon="10.6192464"><ele>532.5</ele><time>2026-04-18T11:32:21.451Z</time></trkpt><trkpt lat="43.3994784" lon="10.6191328"><ele>532.3333333333334</ele><time>2026-04-18T11:32:22.451Z</time></trkpt><trkpt lat="43.3994832" lon="10.6190209"><ele>532.1666666666667</ele><time>2026-04-18T11:32:23.452Z</time></trkpt><trkpt lat="43.3994869" lon="10.6189115"><ele>532.0</ele><time>2026-04-18T11:32:24.436Z</time></trkpt><trkpt lat="43.399489" lon="10.6188098"><ele>532.0</ele><time>2026-04-18T11:32:25.457Z</time></trkpt><trkpt lat="43.3994962" lon="10.6186504"><ele>532.0</ele><time>2026-04-18T11:32:27.442Z</time></trkpt><trkpt lat="43.3995312" lon="10.6185689"><ele>532.0</ele><time>2026-04-18T11:32:29.445Z</time></trkpt><trkpt lat="43.3996244" lon="10.6185752"><ele>532.0</ele><time>2026-04-18T11:32:32.446Z</time></trkpt><trkpt lat="43.3997372" lon="10.6186602"><ele>532.0</ele><time>2026-04-18T11:32:34.454Z</time></trkpt><trkpt lat="43.3998084" lon="10.6187312"><ele>533.0</ele><time>2026-04-18T11:32:35.493Z</time></trkpt><trkpt lat="43.3998905" lon="10.6187972"><ele>534.0</ele><time>2026-04-18T11:32:36.456Z</time></trkpt><trkpt lat="43.3999743" lon="10.6188626"><ele>535.0</ele><time>2026-04-18T11:32:37.445Z</time></trkpt><trkpt lat="43.4000656" lon="10.6189261"><ele>536.0</ele><time>2026-04-18T11:32:38.456Z</time></trkpt><trkpt lat="43.4001562" lon="10.6190004"><ele>537.0</ele><time>2026-04-18T11:32:39.448Z</time></trkpt><trkpt lat="43.4002474" lon="10.6190801"><ele>537.0</ele><time>2026-04-18T11:32:40.487Z</time></trkpt><trkpt lat="43.4003398" lon="10.6191551"><ele>537.0</ele><time>2026-04-18T11:32:41.447Z</time></trkpt><trkpt lat="43.4004311" lon="10.6192097"><ele>537.0</ele><time>2026-04-18T11:32:42.454Z</time></trkpt><trkpt lat="43.4005223" lon="10.619262"><ele>537.0</ele><time>2026-04-18T11:32:43.449Z</time></trkpt><trkpt lat="43.4006257" lon="10.6192791"><ele>537.0</ele><time>2026-04-18T11:32:44.467Z</time></trkpt><trkpt lat="43.4007456" lon="10.6192889"><ele>535.4</ele><time>2026-04-18T11:32:45.446Z</time></trkpt><trkpt lat="43.400849" lon="10.6192979"><ele>533.8000000000001</ele><time>2026-04-18T11:32:46.455Z</time></trkpt><trkpt lat="43.4009463" lon="10.6192981"><ele>532.2</ele><time>2026-04-18T11:32:47.453Z</time></trkpt><trkpt lat="43.4010299" lon="10.6192807"><ele>530.6</ele><time>2026-04-18T11:32:48.458Z</time></trkpt><trkpt lat="43.4011139" lon="10.6192505"><ele>529.0</ele><time>2026-04-18T11:32:49.442Z</time></trkpt><trkpt lat="43.4011821" lon="10.6191992"><ele>529.0</ele><time>2026-04-18T11:32:50.455Z</time></trkpt><trkpt lat="43.401274" lon="10.6191786"><ele>529.0</ele><time>2026-04-18T11:32:51.45Z</time></trkpt><trkpt lat="43.4013391" lon="10.6191752"><ele>529.0</ele><time>2026-04-18T11:32:52.448Z</time></trkpt><trkpt lat="43.40142" lon="10.6192098"><ele>529.0</ele><time>2026-04-18T11:32:53.452Z</time></trkpt><trkpt lat="43.4014971" lon="10.6192527"><ele>529.0</ele><time>2026-04-18T11:32:54.451Z</time></trkpt><trkpt lat="43.4016002" lon="10.6193294"><ele>529.0</ele><time>2026-04-18T11:32:55.478Z</time></trkpt><trkpt lat="43.401701" lon="10.6194037"><ele>527.5</ele><time>2026-04-18T11:32:56.448Z</time></trkpt><trkpt lat="43.4018237" lon="10.6194988"><ele>526.0</ele><time>2026-04-18T11:32:57.457Z</time></trkpt><trkpt lat="43.4019357" lon="10.6195862"><ele>524.5</ele><time>2026-04-18T11:32:58.448Z</time></trkpt><trkpt lat="43.4020466" lon="10.6196613"><ele>523.0</ele><time>2026-04-18T11:32:59.451Z</time></trkpt><trkpt lat="43.402167" lon="10.619738"><ele>517.25</ele><time>2026-04-18T11:33:00.461Z</time></trkpt><trkpt lat="43.4022796" lon="10.6198219"><ele>511.5</ele><time>2026-04-18T11:33:01.45Z</time></trkpt><trkpt lat="43.4023819" lon="10.6199122"><ele>505.75</ele><time>2026-04-18T11:33:02.458Z</time></trkpt><trkpt lat="43.4024822" lon="10.6200181"><ele>500.0</ele><time>2026-04-18T11:33:03.457Z</time></trkpt><trkpt lat="43.402578" lon="10.6201303"><ele>500.0</ele><time>2026-04-18T11:33:04.454Z</time></trkpt><trkpt lat="43.4026556" lon="10.6202617"><ele>500.0</ele><time>2026-04-18T11:33:05.476Z</time></trkpt><trkpt lat="43.4027312" lon="10.6204084"><ele>500.0</ele><time>2026-04-18T11:33:06.461Z</time></trkpt><trkpt lat="43.4027917" lon="10.6205523"><ele>500.0</ele><time>2026-04-18T11:33:07.462Z</time></trkpt><trkpt lat="43.402848" lon="10.6206829"><ele>499.6</ele><time>2026-04-18T11:33:08.438Z</time></trkpt><trkpt lat="43.4028929" lon="10.6208098"><ele>499.2</ele><time>2026-04-18T11:33:09.443Z</time></trkpt><trkpt lat="43.4029263" lon="10.620942"><ele>498.79999999999995</ele><time>2026-04-18T11:33:10.46Z</time></trkpt><trkpt lat="43.4029381" lon="10.6210827"><ele>498.4</ele><time>2026-04-18T11:33:11.451Z</time></trkpt><trkpt lat="43.4029403" lon="10.6212491"><ele>498.0</ele><time>2026-04-18T11:33:12.479Z</time></trkpt><trkpt lat="43.4029545" lon="10.6214227"><ele>496.75</ele><time>2026-04-18T11:33:13.456Z</time></trkpt><trkpt lat="43.4029672" lon="10.6215998"><ele>495.5</ele><time>2026-04-18T11:33:14.452Z</time></trkpt><trkpt lat="43.40298" lon="10.6217712"><ele>494.25</ele><time>2026-04-18T11:33:15.456Z</time></trkpt><trkpt lat="43.4029931" lon="10.6219563"><ele>493.0</ele><time>2026-04-18T11:33:16.458Z</time></trkpt><trkpt lat="43.4030034" lon="10.6221309"><ele>492.5</ele><time>2026-04-18T11:33:17.453Z</time></trkpt><trkpt lat="43.4030033" lon="10.6222902"><ele>492.0</ele><time>2026-04-18T11:33:18.446Z</time></trkpt><trkpt lat="43.40299" lon="10.6224477"><ele>491.5</ele><time>2026-04-18T11:33:19.445Z</time></trkpt><trkpt lat="43.4029671" lon="10.6225989"><ele>491.0</ele><time>2026-04-18T11:33:20.441Z</time></trkpt><trkpt lat="43.4029222" lon="10.6227416"><ele>490.8</ele><time>2026-04-18T11:33:21.461Z</time></trkpt><trkpt lat="43.4028713" lon="10.622871"><ele>490.6</ele><time>2026-04-18T11:33:22.468Z</time></trkpt><trkpt lat="43.4028178" lon="10.6230056"><ele>490.4</ele><time>2026-04-18T11:33:23.449Z</time></trkpt><trkpt lat="43.4027727" lon="10.6231411"><ele>490.2</ele><time>2026-04-18T11:33:24.448Z</time></trkpt><trkpt lat="43.40275" lon="10.6232745"><ele>490.0</ele><time>2026-04-18T11:33:25.445Z</time></trkpt><trkpt lat="43.402742" lon="10.6234106"><ele>490.0</ele><time>2026-04-18T11:33:26.463Z</time></trkpt><trkpt lat="43.4027517" lon="10.6235408"><ele>490.0</ele><time>2026-04-18T11:33:27.476Z</time></trkpt><trkpt lat="43.4027739" lon="10.623667"><ele>490.0</ele><time>2026-04-18T11:33:28.448Z</time></trkpt><trkpt lat="43.4028005" lon="10.6237905"><ele>490.0</ele><time>2026-04-18T11:33:29.457Z</time></trkpt><trkpt lat="43.4028346" lon="10.623908"><ele>490.0</ele><time>2026-04-18T11:33:30.458Z</time></trkpt><trkpt lat="43.402861" lon="10.6240313"><ele>490.0</ele><time>2026-04-18T11:33:31.459Z</time></trkpt><trkpt lat="43.4028887" lon="10.6241507"><ele>490.0</ele><time>2026-04-18T11:33:32.447Z</time></trkpt><trkpt lat="43.4029141" lon="10.6242737"><ele>490.0</ele><time>2026-04-18T11:33:33.453Z</time></trkpt><trkpt lat="43.4029329" lon="10.624401"><ele>490.0</ele><time>2026-04-18T11:33:34.455Z</time></trkpt><trkpt lat="43.4029649" lon="10.6245214"><ele>490.0</ele><time>2026-04-18T11:33:35.448Z</time></trkpt><trkpt lat="43.402999" lon="10.6246384"><ele>490.50000000000006</ele><time>2026-04-18T11:33:36.443Z</time></trkpt><trkpt lat="43.4030429" lon="10.6247543"><ele>491.0</ele><time>2026-04-18T11:33:37.447Z</time></trkpt><trkpt lat="43.4030846" lon="10.6248575"><ele>491.5</ele><time>2026-04-18T11:33:38.461Z</time></trkpt><trkpt lat="43.4031299" lon="10.6249653"><ele>492.0</ele><time>2026-04-18T11:33:39.441Z</time></trkpt><trkpt lat="43.4031611" lon="10.6250786"><ele>492.50000000000006</ele><time>2026-04-18T11:33:40.446Z</time></trkpt><trkpt lat="43.4031917" lon="10.6251899"><ele>493.0</ele><time>2026-04-18T11:33:41.451Z</time></trkpt><trkpt lat="43.4032324" lon="10.625283"><ele>489.2</ele><time>2026-04-18T11:33:42.463Z</time></trkpt><trkpt lat="43.403269" lon="10.6253868"><ele>485.4</ele><time>2026-04-18T11:33:43.457Z</time></trkpt><trkpt lat="43.4033176" lon="10.6255112"><ele>481.59999999999997</ele><time>2026-04-18T11:33:44.443Z</time></trkpt><trkpt lat="43.4033854" lon="10.6256416"><ele>477.79999999999995</ele><time>2026-04-18T11:33:45.438Z</time></trkpt><trkpt lat="43.4034625" lon="10.6257792"><ele>474.0</ele><time>2026-04-18T11:33:46.441Z</time></trkpt><trkpt lat="43.4035392" lon="10.625921"><ele>474.0</ele><time>2026-04-18T11:33:47.443Z</time></trkpt><trkpt lat="43.4036117" lon="10.6260636"><ele>474.0</ele><time>2026-04-18T11:33:48.443Z</time></trkpt><trkpt lat="43.4036918" lon="10.6262084"><ele>474.0</ele><time>2026-04-18T11:33:49.449Z</time></trkpt><trkpt lat="43.4037732" lon="10.6263542"><ele>474.0</ele><time>2026-04-18T11:33:50.434Z</time></trkpt><trkpt lat="43.4038604" lon="10.626494"><ele>475.79999999999995</ele><time>2026-04-18T11:33:51.44Z</time></trkpt><trkpt lat="43.4039291" lon="10.6266316"><ele>477.59999999999997</ele><time>2026-04-18T11:33:52.439Z</time></trkpt><trkpt lat="43.4039916" lon="10.626743"><ele>479.4</ele><time>2026-04-18T11:33:53.446Z</time></trkpt><trkpt lat="43.4040541" lon="10.6268265"><ele>481.2</ele><time>2026-04-18T11:33:54.456Z</time></trkpt><trkpt lat="43.4041239" lon="10.6268938"><ele>483.0</ele><time>2026-04-18T11:33:55.43Z</time></trkpt><trkpt lat="43.4041971" lon="10.6269819"><ele>479.0</ele><time>2026-04-18T11:33:56.446Z</time></trkpt><trkpt lat="43.404272" lon="10.6270761"><ele>474.99999999999994</ele><time>2026-04-18T11:33:57.45Z</time></trkpt><trkpt lat="43.4043429" lon="10.6271697"><ele>470.99999999999994</ele><time>2026-04-18T11:33:58.447Z</time></trkpt><trkpt lat="43.4044158" lon="10.6272357"><ele>467.0</ele><time>2026-04-18T11:33:59.455Z</time></trkpt><trkpt lat="43.4044931" lon="10.6272812"><ele>463.0</ele><time>2026-04-18T11:34:00.458Z</time></trkpt><trkpt lat="43.4045832" lon="10.6273141"><ele>464.2</ele><time>2026-04-18T11:34:01.446Z</time></trkpt><trkpt lat="43.4046785" lon="10.627333"><ele>465.4</ele><time>2026-04-18T11:34:02.448Z</time></trkpt><trkpt lat="43.404777" lon="10.6273517"><ele>466.59999999999997</ele><time>2026-04-18T11:34:03.451Z</time></trkpt><trkpt lat="43.4048812" lon="10.6273652"><ele>467.79999999999995</ele><time>2026-04-18T11:34:04.461Z</time></trkpt><trkpt lat="43.4049768" lon="10.6273959"><ele>469.0</ele><time>2026-04-18T11:34:05.443Z</time></trkpt><trkpt lat="43.4050746" lon="10.6274268"><ele>469.0</ele><time>2026-04-18T11:34:06.449Z</time></trkpt><trkpt lat="43.4051635" lon="10.627468"><ele>469.0</ele><time>2026-04-18T11:34:07.445Z</time></trkpt><trkpt lat="43.4052469" lon="10.6275377"><ele>469.0</ele><time>2026-04-18T11:34:08.451Z</time></trkpt><trkpt lat="43.4053249" lon="10.6276344"><ele>469.0</ele><time>2026-04-18T11:34:09.445Z</time></trkpt><trkpt lat="43.4053874" lon="10.627782"><ele>469.0</ele><time>2026-04-18T11:34:10.454Z</time></trkpt><trkpt lat="43.4054264" lon="10.6279195"><ele>465.79999999999995</ele><time>2026-04-18T11:34:11.447Z</time></trkpt><trkpt lat="43.4054675" lon="10.6280521"><ele>462.59999999999997</ele><time>2026-04-18T11:34:12.456Z</time></trkpt><trkpt lat="43.405511" lon="10.6281792"><ele>459.4</ele><time>2026-04-18T11:34:13.457Z</time></trkpt><trkpt lat="43.4055472" lon="10.6282966"><ele>456.2</ele><time>2026-04-18T11:34:14.448Z</time></trkpt><trkpt lat="43.4055849" lon="10.628381"><ele>453.0</ele><time>2026-04-18T11:34:15.446Z</time></trkpt><trkpt lat="43.4056568" lon="10.6284561"><ele>453.0</ele><time>2026-04-18T11:34:17.443Z</time></trkpt><trkpt lat="43.4057386" lon="10.6284649"><ele>453.0</ele><time>2026-04-18T11:34:21.451Z</time></trkpt><trkpt lat="43.405802" lon="10.6284812"><ele>453.0</ele><time>2026-04-18T11:34:23.456Z</time></trkpt><trkpt lat="43.4058681" lon="10.6285055"><ele>453.0</ele><time>2026-04-18T11:34:25.477Z</time></trkpt><trkpt lat="43.4059456" lon="10.6285276"><ele>453.0</ele><time>2026-04-18T11:34:27.469Z</time></trkpt><trkpt lat="43.4060455" lon="10.6285745"><ele>453.0</ele><time>2026-04-18T11:34:30.488Z</time></trkpt><trkpt lat="43.4061774" lon="10.6286111"><ele>453.0</ele><time>2026-04-18T11:34:32.453Z</time></trkpt><trkpt lat="43.4062636" lon="10.6286269"><ele>453.0</ele><time>2026-04-18T11:34:33.455Z</time></trkpt><trkpt lat="43.406348" lon="10.6286631"><ele>453.0</ele><time>2026-04-18T11:34:34.449Z</time></trkpt><trkpt lat="43.4064388" lon="10.6286824"><ele>453.0</ele><time>2026-04-18T11:34:35.454Z</time></trkpt><trkpt lat="43.4065153" lon="10.6287274"><ele>453.0</ele><time>2026-04-18T11:34:36.441Z</time></trkpt><trkpt lat="43.4065896" lon="10.6287967"><ele>453.0</ele><time>2026-04-18T11:34:37.465Z</time></trkpt><trkpt lat="43.4066645" lon="10.6288927"><ele>449.75</ele><time>2026-04-18T11:34:38.448Z</time></trkpt><trkpt lat="43.4067245" lon="10.6290071"><ele>446.5</ele><time>2026-04-18T11:34:39.44Z</time></trkpt><trkpt lat="43.4067975" lon="10.6291384"><ele>443.25</ele><time>2026-04-18T11:34:40.449Z</time></trkpt><trkpt lat="43.4068865" lon="10.6292686"><ele>440.0</ele><time>2026-04-18T11:34:41.452Z</time></trkpt><trkpt lat="43.4069711" lon="10.6293945"><ele>440.75</ele><time>2026-04-18T11:34:42.445Z</time></trkpt><trkpt lat="43.4070576" lon="10.6295244"><ele>441.5</ele><time>2026-04-18T11:34:43.451Z</time></trkpt><trkpt lat="43.4071381" lon="10.629658"><ele>442.25</ele><time>2026-04-18T11:34:44.452Z</time></trkpt><trkpt lat="43.4072216" lon="10.6297943"><ele>443.0</ele><time>2026-04-18T11:34:45.461Z</time></trkpt><trkpt lat="43.4073064" lon="10.6299343"><ele>439.75</ele><time>2026-04-18T11:34:46.458Z</time></trkpt><trkpt lat="43.4073929" lon="10.6300767"><ele>436.5</ele><time>2026-04-18T11:34:47.459Z</time></trkpt><trkpt lat="43.407475" lon="10.630208"><ele>433.25</ele><time>2026-04-18T11:34:48.462Z</time></trkpt><trkpt lat="43.4075595" lon="10.6303484"><ele>430.0</ele><time>2026-04-18T11:34:49.453Z</time></trkpt><trkpt lat="43.407642" lon="10.6304824"><ele>430.0</ele><time>2026-04-18T11:34:50.45Z</time></trkpt><trkpt lat="43.4077222" lon="10.6306048"><ele>430.0</ele><time>2026-04-18T11:34:51.448Z</time></trkpt><trkpt lat="43.4077958" lon="10.6307257"><ele>430.0</ele><time>2026-04-18T11:34:52.447Z</time></trkpt><trkpt lat="43.4078595" lon="10.6308405"><ele>430.0</ele><time>2026-04-18T11:34:53.456Z</time></trkpt><trkpt lat="43.4079127" lon="10.6309555"><ele>430.0</ele><time>2026-04-18T11:34:54.45Z</time></trkpt><trkpt lat="43.407967" lon="10.6310648"><ele>428.0</ele><time>2026-04-18T11:34:55.454Z</time></trkpt><trkpt lat="43.4080294" lon="10.6311702"><ele>426.0</ele><time>2026-04-18T11:34:56.454Z</time></trkpt><trkpt lat="43.4080851" lon="10.6312612"><ele>424.0</ele><time>2026-04-18T11:34:57.457Z</time></trkpt><trkpt lat="43.4081509" lon="10.6313329"><ele>422.0</ele><time>2026-04-18T11:34:58.462Z</time></trkpt><trkpt lat="43.4082356" lon="10.6313984"><ele>420.0</ele><time>2026-04-18T11:34:59.457Z</time></trkpt><trkpt lat="43.4083404" lon="10.6314701"><ele>420.0</ele><time>2026-04-18T11:35:00.451Z</time></trkpt><trkpt lat="43.4084407" lon="10.6315523"><ele>420.0</ele><time>2026-04-18T11:35:01.449Z</time></trkpt><trkpt lat="43.4085355" lon="10.6316258"><ele>420.0</ele><time>2026-04-18T11:35:02.45Z</time></trkpt><trkpt lat="43.4086318" lon="10.6316935"><ele>420.0</ele><time>2026-04-18T11:35:03.44Z</time></trkpt><trkpt lat="43.408717" lon="10.6317415"><ele>420.0</ele><time>2026-04-18T11:35:04.438Z</time></trkpt><trkpt lat="43.4087932" lon="10.6317779"><ele>417.4</ele><time>2026-04-18T11:35:05.446Z</time></trkpt><trkpt lat="43.4088772" lon="10.631777"><ele>414.8</ele><time>2026-04-18T11:35:06.45Z</time></trkpt><trkpt lat="43.4089591" lon="10.6317666"><ele>412.20000000000005</ele><time>2026-04-18T11:35:07.462Z</time></trkpt><trkpt lat="43.409053" lon="10.6317336"><ele>409.6</ele><time>2026-04-18T11:35:08.448Z</time></trkpt><trkpt lat="43.4091527" lon="10.6316917"><ele>407.0</ele><time>2026-04-18T11:35:09.445Z</time></trkpt><trkpt lat="43.4092631" lon="10.6316526"><ele>407.0</ele><time>2026-04-18T11:35:10.449Z</time></trkpt><trkpt lat="43.4093682" lon="10.6316252"><ele>407.0</ele><time>2026-04-18T11:35:11.448Z</time></trkpt><trkpt lat="43.4094672" lon="10.6315927"><ele>407.0</ele><time>2026-04-18T11:35:12.446Z</time></trkpt><trkpt lat="43.4095591" lon="10.6315594"><ele>407.0</ele><time>2026-04-18T11:35:13.451Z</time></trkpt><trkpt lat="43.4096415" lon="10.6315375"><ele>407.0</ele><time>2026-04-18T11:35:14.456Z</time></trkpt><trkpt lat="43.4097277" lon="10.6315374"><ele>406.20000000000005</ele><time>2026-04-18T11:35:15.452Z</time></trkpt><trkpt lat="43.4098132" lon="10.6315803"><ele>405.4</ele><time>2026-04-18T11:35:16.452Z</time></trkpt><trkpt lat="43.4098973" lon="10.6316418"><ele>404.6</ele><time>2026-04-18T11:35:17.445Z</time></trkpt><trkpt lat="43.4099712" lon="10.6317315"><ele>403.79999999999995</ele><time>2026-04-18T11:35:18.457Z</time></trkpt><trkpt lat="43.4100317" lon="10.6318593"><ele>403.0</ele><time>2026-04-18T11:35:19.451Z</time></trkpt><trkpt lat="43.4100952" lon="10.631991"><ele>403.0</ele><time>2026-04-18T11:35:20.451Z</time></trkpt><trkpt lat="43.4101454" lon="10.6321262"><ele>403.0</ele><time>2026-04-18T11:35:21.451Z</time></trkpt><trkpt lat="43.4101856" lon="10.6322597"><ele>403.0</ele><time>2026-04-18T11:35:22.45Z</time></trkpt><trkpt lat="43.4102251" lon="10.6323787"><ele>403.0</ele><time>2026-04-18T11:35:23.451Z</time></trkpt><trkpt lat="43.4102835" lon="10.6324933"><ele>403.0</ele><time>2026-04-18T11:35:24.45Z</time></trkpt><trkpt lat="43.4103643" lon="10.6325703"><ele>403.0</ele><time>2026-04-18T11:35:25.456Z</time></trkpt><trkpt lat="43.4104552" lon="10.6326358"><ele>403.0</ele><time>2026-04-18T11:35:26.454Z</time></trkpt><trkpt lat="43.4105497" lon="10.6326845"><ele>403.0</ele><time>2026-04-18T11:35:27.457Z</time></trkpt><trkpt lat="43.4106561" lon="10.632718"><ele>403.0</ele><time>2026-04-18T11:35:28.462Z</time></trkpt><trkpt lat="43.410757" lon="10.6327573"><ele>403.0</ele><time>2026-04-18T11:35:29.456Z</time></trkpt><trkpt lat="43.41085" lon="10.6328048"><ele>399.59999999999997</ele><time>2026-04-18T11:35:30.46Z</time></trkpt><trkpt lat="43.4109346" lon="10.6328525"><ele>396.2</ele><time>2026-04-18T11:35:31.464Z</time></trkpt><trkpt lat="43.4110056" lon="10.6329323"><ele>392.8</ele><time>2026-04-18T11:35:32.467Z</time></trkpt><trkpt lat="43.4110657" lon="10.6330329"><ele>389.4</ele><time>2026-04-18T11:35:33.462Z</time></trkpt><trkpt lat="43.411118" lon="10.6331689"><ele>386.0</ele><time>2026-04-18T11:35:34.483Z</time></trkpt><trkpt lat="43.4111606" lon="10.6333107"><ele>386.0</ele><time>2026-04-18T11:35:35.458Z</time></trkpt><trkpt lat="43.4112015" lon="10.6334523"><ele>386.0</ele><time>2026-04-18T11:35:36.447Z</time></trkpt><trkpt lat="43.4112496" lon="10.633593"><ele>386.0</ele><time>2026-04-18T11:35:37.46Z</time></trkpt><trkpt lat="43.4112955" lon="10.6337212"><ele>386.0</ele><time>2026-04-18T11:35:38.456Z</time></trkpt><trkpt lat="43.411332" lon="10.6338249"><ele>386.0</ele><time>2026-04-18T11:35:39.478Z</time></trkpt><trkpt lat="43.4113659" lon="10.6339321"><ele>385.0</ele><time>2026-04-18T11:35:40.463Z</time></trkpt><trkpt lat="43.4113949" lon="10.6340455"><ele>384.0</ele><time>2026-04-18T11:35:41.451Z</time></trkpt><trkpt lat="43.4114179" lon="10.6341702"><ele>383.0</ele><time>2026-04-18T11:35:42.455Z</time></trkpt><trkpt lat="43.4114423" lon="10.634306"><ele>382.0</ele><time>2026-04-18T11:35:43.449Z</time></trkpt><trkpt lat="43.4114807" lon="10.6344521"><ele>381.0</ele><time>2026-04-18T11:35:44.454Z</time></trkpt><trkpt lat="43.4115311" lon="10.6345917"><ele>381.0</ele><time>2026-04-18T11:35:45.451Z</time></trkpt><trkpt lat="43.4115853" lon="10.6347384"><ele>381.0</ele><time>2026-04-18T11:35:46.459Z</time></trkpt><trkpt lat="43.4116372" lon="10.6348607"><ele>381.0</ele><time>2026-04-18T11:35:47.454Z</time></trkpt><trkpt lat="43.4116924" lon="10.6349824"><ele>381.0</ele><time>2026-04-18T11:35:48.451Z</time></trkpt><trkpt lat="43.4117389" lon="10.6350887"><ele>381.0</ele><time>2026-04-18T11:35:49.462Z</time></trkpt><trkpt lat="43.4117859" lon="10.6351747"><ele>381.0</ele><time>2026-04-18T11:35:50.45Z</time></trkpt><trkpt lat="43.4118262" lon="10.6352637"><ele>381.0</ele><time>2026-04-18T11:35:51.457Z</time></trkpt><trkpt lat="43.4118663" lon="10.6353606"><ele>381.0</ele><time>2026-04-18T11:35:52.461Z</time></trkpt><trkpt lat="43.4118839" lon="10.6354685"><ele>381.0</ele><time>2026-04-18T11:35:53.446Z</time></trkpt><trkpt lat="43.4118854" lon="10.6355902"><ele>381.0</ele><time>2026-04-18T11:35:54.446Z</time></trkpt><trkpt lat="43.4118927" lon="10.6356917"><ele>381.0</ele><time>2026-04-18T11:35:55.446Z</time></trkpt><trkpt lat="43.4119031" lon="10.6358"><ele>381.6</ele><time>2026-04-18T11:35:56.459Z</time></trkpt><trkpt lat="43.4119265" lon="10.6359052"><ele>382.20000000000005</ele><time>2026-04-18T11:35:57.452Z</time></trkpt><trkpt lat="43.4119542" lon="10.6359961"><ele>382.79999999999995</ele><time>2026-04-18T11:35:58.448Z</time></trkpt><trkpt lat="43.411991" lon="10.6361746"><ele>383.4</ele><time>2026-04-18T11:36:00.457Z</time></trkpt><trkpt lat="43.4120288" lon="10.636278"><ele>384.0</ele><time>2026-04-18T11:36:01.454Z</time></trkpt><trkpt lat="43.4120763" lon="10.6363859"><ele>384.0</ele><time>2026-04-18T11:36:02.446Z</time></trkpt><trkpt lat="43.412135" lon="10.6364884"><ele>384.0</ele><time>2026-04-18T11:36:03.443Z</time></trkpt><trkpt lat="43.4121992" lon="10.6365801"><ele>384.0</ele><time>2026-04-18T11:36:04.451Z</time></trkpt><trkpt lat="43.4122716" lon="10.6366874"><ele>384.0</ele><time>2026-04-18T11:36:05.459Z</time></trkpt><trkpt lat="43.4123529" lon="10.6368012"><ele>384.0</ele><time>2026-04-18T11:36:06.457Z</time></trkpt><trkpt lat="43.4124422" lon="10.6369289"><ele>380.5</ele><time>2026-04-18T11:36:07.458Z</time></trkpt><trkpt lat="43.4125272" lon="10.6370608"><ele>377.0</ele><time>2026-04-18T11:36:08.473Z</time></trkpt><trkpt lat="43.4126198" lon="10.6371922"><ele>373.5</ele><time>2026-04-18T11:36:09.454Z</time></trkpt><trkpt lat="43.4127059" lon="10.6373205"><ele>370.0</ele><time>2026-04-18T11:36:10.459Z</time></trkpt><trkpt lat="43.412785" lon="10.6374452"><ele>370.0</ele><time>2026-04-18T11:36:11.453Z</time></trkpt><trkpt lat="43.4128509" lon="10.6375745"><ele>370.0</ele><time>2026-04-18T11:36:12.46Z</time></trkpt><trkpt lat="43.4129107" lon="10.6376708"><ele>370.0</ele><time>2026-04-18T11:36:13.453Z</time></trkpt><trkpt lat="43.4129787" lon="10.6377332"><ele>370.0</ele><time>2026-04-18T11:36:14.444Z</time></trkpt><trkpt lat="43.4130811" lon="10.6377572"><ele>370.0</ele><time>2026-04-18T11:36:16.456Z</time></trkpt><trkpt lat="43.4131632" lon="10.6377432"><ele>369.0</ele><time>2026-04-18T11:36:18.456Z</time></trkpt><trkpt lat="43.4132639" lon="10.6377568"><ele>368.0</ele><time>2026-04-18T11:36:20.467Z</time></trkpt><trkpt lat="43.4133547" lon="10.6378238"><ele>367.0</ele><time>2026-04-18T11:36:22.462Z</time></trkpt><trkpt lat="43.4134194" lon="10.6378552"><ele>366.0</ele><time>2026-04-18T11:36:23.453Z</time></trkpt><trkpt lat="43.4134933" lon="10.637872"><ele>365.0</ele><time>2026-04-18T11:36:24.449Z</time></trkpt><trkpt lat="43.4135671" lon="10.637896"><ele>364.0</ele><time>2026-04-18T11:36:25.443Z</time></trkpt><trkpt lat="43.4136454" lon="10.637937"><ele>364.2</ele><time>2026-04-18T11:36:26.449Z</time></trkpt><trkpt lat="43.4137095" lon="10.6379968"><ele>364.4</ele><time>2026-04-18T11:36:27.461Z</time></trkpt><trkpt lat="43.4137813" lon="10.6380699"><ele>364.6</ele><time>2026-04-18T11:36:28.463Z</time></trkpt><trkpt lat="43.4138526" lon="10.6381487"><ele>364.8</ele><time>2026-04-18T11:36:29.452Z</time></trkpt><trkpt lat="43.4139375" lon="10.6382227"><ele>365.0</ele><time>2026-04-18T11:36:30.461Z</time></trkpt><trkpt lat="43.4140238" lon="10.6382701"><ele>365.0</ele><time>2026-04-18T11:36:31.452Z</time></trkpt><trkpt lat="43.4141134" lon="10.6383083"><ele>365.0</ele><time>2026-04-18T11:36:32.452Z</time></trkpt><trkpt lat="43.414204" lon="10.6383614"><ele>365.0</ele><time>2026-04-18T11:36:33.457Z</time></trkpt><trkpt lat="43.4142802" lon="10.6384349"><ele>365.0</ele><time>2026-04-18T11:36:34.45Z</time></trkpt><trkpt lat="43.4143415" lon="10.6385364"><ele>365.0</ele><time>2026-04-18T11:36:35.462Z</time></trkpt><trkpt lat="43.4143915" lon="10.6386501"><ele>363.8</ele><time>2026-04-18T11:36:36.446Z</time></trkpt><trkpt lat="43.4144457" lon="10.6387506"><ele>362.6</ele><time>2026-04-18T11:36:37.446Z</time></trkpt><trkpt lat="43.4145041" lon="10.6388384"><ele>361.4</ele><time>2026-04-18T11:36:38.459Z</time></trkpt><trkpt lat="43.4145873" lon="10.6389217"><ele>360.2</ele><time>2026-04-18T11:36:39.454Z</time></trkpt><trkpt lat="43.4146821" lon="10.6389822"><ele>359.0</ele><time>2026-04-18T11:36:40.451Z</time></trkpt><trkpt lat="43.4147751" lon="10.6390427"><ele>359.0</ele><time>2026-04-18T11:36:41.456Z</time></trkpt><trkpt lat="43.4148599" lon="10.6390943"><ele>359.0</ele><time>2026-04-18T11:36:42.443Z</time></trkpt><trkpt lat="43.4149345" lon="10.6391475"><ele>359.0</ele><time>2026-04-18T11:36:43.452Z</time></trkpt><trkpt lat="43.4150122" lon="10.6392111"><ele>359.0</ele><time>2026-04-18T11:36:44.485Z</time></trkpt><trkpt lat="43.4150904" lon="10.6392753"><ele>359.0</ele><time>2026-04-18T11:36:45.447Z</time></trkpt><trkpt lat="43.4151733" lon="10.6393447"><ele>359.0</ele><time>2026-04-18T11:36:46.447Z</time></trkpt><trkpt lat="43.4152455" lon="10.6394245"><ele>359.0</ele><time>2026-04-18T11:36:47.451Z</time></trkpt><trkpt lat="43.4153098" lon="10.6395137"><ele>359.0</ele><time>2026-04-18T11:36:48.449Z</time></trkpt><trkpt lat="43.4153745" lon="10.6396032"><ele>359.0</ele><time>2026-04-18T11:36:49.45Z</time></trkpt><trkpt lat="43.415442" lon="10.6396931"><ele>359.0</ele><time>2026-04-18T11:36:50.452Z</time></trkpt><trkpt lat="43.4155167" lon="10.6397735"><ele>360.2</ele><time>2026-04-18T11:36:51.456Z</time></trkpt><trkpt lat="43.4155965" lon="10.6398439"><ele>361.4</ele><time>2026-04-18T11:36:52.451Z</time></trkpt><trkpt lat="43.4156861" lon="10.6398929"><ele>362.6</ele><time>2026-04-18T11:36:53.464Z</time></trkpt><trkpt lat="43.4157781" lon="10.6399449"><ele>363.8</ele><time>2026-04-18T11:36:54.449Z</time></trkpt><trkpt lat="43.4158634" lon="10.6399968"><ele>365.0</ele><time>2026-04-18T11:36:55.452Z</time></trkpt><trkpt lat="43.415939" lon="10.6400448"><ele>365.0</ele><time>2026-04-18T11:36:56.449Z</time></trkpt><trkpt lat="43.4160121" lon="10.640083"><ele>365.0</ele><time>2026-04-18T11:36:57.447Z</time></trkpt><trkpt lat="43.4160942" lon="10.6401108"><ele>365.0</ele><time>2026-04-18T11:36:58.451Z</time></trkpt><trkpt lat="43.4161762" lon="10.6401207"><ele>365.0</ele><time>2026-04-18T11:36:59.441Z</time></trkpt><trkpt lat="43.4162461" lon="10.6401317"><ele>365.0</ele><time>2026-04-18T11:37:00.451Z</time></trkpt><trkpt lat="43.4163202" lon="10.6401367"><ele>365.0</ele><time>2026-04-18T11:37:01.453Z</time></trkpt><trkpt lat="43.4163904" lon="10.6401302"><ele>365.6</ele><time>2026-04-18T11:37:02.438Z</time></trkpt><trkpt lat="43.4165087" lon="10.6401772"><ele>366.2</ele><time>2026-04-18T11:37:04.453Z</time></trkpt><trkpt lat="43.4165583" lon="10.6402365"><ele>366.79999999999995</ele><time>2026-04-18T11:37:05.455Z</time></trkpt><trkpt lat="43.4166098" lon="10.6403316"><ele>367.4</ele><time>2026-04-18T11:37:06.443Z</time></trkpt><trkpt lat="43.4166761" lon="10.640429"><ele>368.0</ele><time>2026-04-18T11:37:07.445Z</time></trkpt><trkpt lat="43.4167456" lon="10.6405364"><ele>370.25</ele><time>2026-04-18T11:37:08.455Z</time></trkpt><trkpt lat="43.4168274" lon="10.6406302"><ele>372.5</ele><time>2026-04-18T11:37:09.447Z</time></trkpt><trkpt lat="43.4169083" lon="10.6407342"><ele>374.75</ele><time>2026-04-18T11:37:10.447Z</time></trkpt><trkpt lat="43.417" lon="10.6408512"><ele>377.0</ele><time>2026-04-18T11:37:11.45Z</time></trkpt><trkpt lat="43.4170941" lon="10.6409564"><ele>374.25</ele><time>2026-04-18T11:37:12.478Z</time></trkpt><trkpt lat="43.4171923" lon="10.641058"><ele>371.5</ele><time>2026-04-18T11:37:13.445Z</time></trkpt><trkpt lat="43.4172803" lon="10.6411622"><ele>368.75</ele><time>2026-04-18T11:37:14.45Z</time></trkpt><trkpt lat="43.4173805" lon="10.641284"><ele>366.0</ele><time>2026-04-18T11:37:15.463Z</time></trkpt><trkpt lat="43.4174744" lon="10.6413742"><ele>365.8</ele><time>2026-04-18T11:37:16.448Z</time></trkpt><trkpt lat="43.4175623" lon="10.6414704"><ele>365.6</ele><time>2026-04-18T11:37:17.464Z</time></trkpt><trkpt lat="43.4176445" lon="10.6415781"><ele>365.4</ele><time>2026-04-18T11:37:18.447Z</time></trkpt><trkpt lat="43.4177191" lon="10.6416725"><ele>365.2</ele><time>2026-04-18T11:37:19.445Z</time></trkpt><trkpt lat="43.4177882" lon="10.6417809"><ele>365.0</ele><time>2026-04-18T11:37:20.447Z</time></trkpt><trkpt lat="43.4178521" lon="10.6418914"><ele>365.6</ele><time>2026-04-18T11:37:21.46Z</time></trkpt><trkpt lat="43.4179155" lon="10.6419779"><ele>366.2</ele><time>2026-04-18T11:37:22.466Z</time></trkpt><trkpt lat="43.417986" lon="10.6420558"><ele>366.79999999999995</ele><time>2026-04-18T11:37:23.443Z</time></trkpt><trkpt lat="43.4180613" lon="10.6421094"><ele>367.4</ele><time>2026-04-18T11:37:24.456Z</time></trkpt><trkpt lat="43.4181452" lon="10.6421741"><ele>368.0</ele><time>2026-04-18T11:37:25.451Z</time></trkpt><trkpt lat="43.4182289" lon="10.6422418"><ele>368.0</ele><time>2026-04-18T11:37:26.451Z</time></trkpt><trkpt lat="43.4182991" lon="10.642313"><ele>368.0</ele><time>2026-04-18T11:37:27.438Z</time></trkpt><trkpt lat="43.4183879" lon="10.6423966"><ele>368.0</ele><time>2026-04-18T11:37:28.446Z</time></trkpt><trkpt lat="43.4184802" lon="10.6424685"><ele>368.0</ele><time>2026-04-18T11:37:29.448Z</time></trkpt><trkpt lat="43.4185664" lon="10.642531"><ele>368.0</ele><time>2026-04-18T11:37:30.441Z</time></trkpt><trkpt lat="43.4186603" lon="10.6425827"><ele>368.0</ele><time>2026-04-18T11:37:31.471Z</time></trkpt><trkpt lat="43.4187588" lon="10.6426272"><ele>368.0</ele><time>2026-04-18T11:37:32.445Z</time></trkpt><trkpt lat="43.418857" lon="10.6426772"><ele>368.0</ele><time>2026-04-18T11:37:33.46Z</time></trkpt><trkpt lat="43.4189483" lon="10.6427444"><ele>368.0</ele><time>2026-04-18T11:37:34.451Z</time></trkpt><trkpt lat="43.4190255" lon="10.6428138"><ele>368.0</ele><time>2026-04-18T11:37:35.45Z</time></trkpt><trkpt lat="43.4191073" lon="10.6428929"><ele>369.59999999999997</ele><time>2026-04-18T11:37:36.449Z</time></trkpt><trkpt lat="43.4191886" lon="10.642972"><ele>371.2</ele><time>2026-04-18T11:37:37.441Z</time></trkpt><trkpt lat="43.4192798" lon="10.6430354"><ele>372.8</ele><time>2026-04-18T11:37:38.45Z</time></trkpt><trkpt lat="43.4193758" lon="10.6430824"><ele>374.4</ele><time>2026-04-18T11:37:39.447Z</time></trkpt><trkpt lat="43.4194701" lon="10.6431153"><ele>376.0</ele><time>2026-04-18T11:37:40.446Z</time></trkpt><trkpt lat="43.4195531" lon="10.6431413"><ele>376.0</ele><time>2026-04-18T11:37:41.459Z</time></trkpt><trkpt lat="43.4196273" lon="10.6431897"><ele>376.0</ele><time>2026-04-18T11:37:42.453Z</time></trkpt><trkpt lat="43.4196935" lon="10.6432433"><ele>376.0</ele><time>2026-04-18T11:37:43.449Z</time></trkpt><trkpt lat="43.41976" lon="10.6433323"><ele>376.0</ele><time>2026-04-18T11:37:44.461Z</time></trkpt><trkpt lat="43.4198232" lon="10.6434352"><ele>376.0</ele><time>2026-04-18T11:37:45.45Z</time></trkpt><trkpt lat="43.4198757" lon="10.6435215"><ele>376.0</ele><time>2026-04-18T11:37:46.446Z</time></trkpt><trkpt lat="43.419932" lon="10.643602"><ele>376.8</ele><time>2026-04-18T11:37:47.442Z</time></trkpt><trkpt lat="43.4200067" lon="10.6437092"><ele>377.6</ele><time>2026-04-18T11:37:48.452Z</time></trkpt><trkpt lat="43.4200791" lon="10.6437996"><ele>378.4</ele><time>2026-04-18T11:37:49.441Z</time></trkpt><trkpt lat="43.4201449" lon="10.6439113"><ele>379.2</ele><time>2026-04-18T11:37:50.488Z</time></trkpt><trkpt lat="43.4202201" lon="10.6440233"><ele>380.0</ele><time>2026-04-18T11:37:51.452Z</time></trkpt><trkpt lat="43.4202954" lon="10.644123"><ele>380.0</ele><time>2026-04-18T11:37:52.442Z</time></trkpt><trkpt lat="43.4203731" lon="10.6442218"><ele>380.0</ele><time>2026-04-18T11:37:53.441Z</time></trkpt><trkpt lat="43.4204572" lon="10.6443078"><ele>380.0</ele><time>2026-04-18T11:37:54.447Z</time></trkpt><trkpt lat="43.4205499" lon="10.6443932"><ele>380.0</ele><time>2026-04-18T11:37:55.456Z</time></trkpt><trkpt lat="43.4206535" lon="10.6444903"><ele>380.0</ele><time>2026-04-18T11:37:56.458Z</time></trkpt><trkpt lat="43.4207579" lon="10.6445745"><ele>378.25</ele><time>2026-04-18T11:37:57.448Z</time></trkpt><trkpt lat="43.42086" lon="10.6446507"><ele>376.5</ele><time>2026-04-18T11:37:58.453Z</time></trkpt><trkpt lat="43.4209598" lon="10.6447558"><ele>374.75</ele><time>2026-04-18T11:37:59.445Z</time></trkpt><trkpt lat="43.4210576" lon="10.6448643"><ele>373.0</ele><time>2026-04-18T11:38:00.484Z</time></trkpt><trkpt lat="43.4211585" lon="10.6449832"><ele>373.0</ele><time>2026-04-18T11:38:01.451Z</time></trkpt><trkpt lat="43.4212681" lon="10.6451049"><ele>373.0</ele><time>2026-04-18T11:38:02.449Z</time></trkpt><trkpt lat="43.421376" lon="10.64522"><ele>373.0</ele><time>2026-04-18T11:38:03.449Z</time></trkpt><trkpt lat="43.4214832" lon="10.6453247"><ele>373.0</ele><time>2026-04-18T11:38:04.453Z</time></trkpt><trkpt lat="43.4215816" lon="10.645421"><ele>371.79999999999995</ele><time>2026-04-18T11:38:05.486Z</time></trkpt><trkpt lat="43.4216737" lon="10.6454981"><ele>370.6</ele><time>2026-04-18T11:38:06.451Z</time></trkpt><trkpt lat="43.4217654" lon="10.6455686"><ele>369.4</ele><time>2026-04-18T11:38:07.454Z</time></trkpt><trkpt lat="43.4218589" lon="10.645629"><ele>368.20000000000005</ele><time>2026-04-18T11:38:08.453Z</time></trkpt><trkpt lat="43.4219538" lon="10.6456962"><ele>367.0</ele><time>2026-04-18T11:38:09.453Z</time></trkpt><trkpt lat="43.4220519" lon="10.6457539"><ele>365.6</ele><time>2026-04-18T11:38:10.489Z</time></trkpt><trkpt lat="43.4221485" lon="10.6458095"><ele>364.20000000000005</ele><time>2026-04-18T11:38:11.457Z</time></trkpt><trkpt lat="43.4222477" lon="10.6458633"><ele>362.8</ele><time>2026-04-18T11:38:12.451Z</time></trkpt><trkpt lat="43.4223466" lon="10.6459088"><ele>361.4</ele><time>2026-04-18T11:38:13.449Z</time></trkpt><trkpt lat="43.4224465" lon="10.6459439"><ele>360.0</ele><time>2026-04-18T11:38:14.438Z</time></trkpt><trkpt lat="43.422546" lon="10.6459929"><ele>360.0</ele><time>2026-04-18T11:38:15.445Z</time></trkpt><trkpt lat="43.4226469" lon="10.6460562"><ele>360.0</ele><time>2026-04-18T11:38:16.451Z</time></trkpt><trkpt lat="43.4227444" lon="10.6461526"><ele>360.0</ele><time>2026-04-18T11:38:17.449Z</time></trkpt><trkpt lat="43.422849" lon="10.64624"><ele>360.0</ele><time>2026-04-18T11:38:18.446Z</time></trkpt><trkpt lat="43.4229495" lon="10.6463296"><ele>357.2</ele><time>2026-04-18T11:38:19.474Z</time></trkpt><trkpt lat="43.4230558" lon="10.6463913"><ele>354.4</ele><time>2026-04-18T11:38:20.459Z</time></trkpt><trkpt lat="43.4231514" lon="10.6464567"><ele>351.6</ele><time>2026-04-18T11:38:21.446Z</time></trkpt><trkpt lat="43.4232477" lon="10.6465161"><ele>348.8</ele><time>2026-04-18T11:38:22.46Z</time></trkpt><trkpt lat="43.42334" lon="10.6465792"><ele>346.0</ele><time>2026-04-18T11:38:23.444Z</time></trkpt><trkpt lat="43.4234344" lon="10.6466398"><ele>346.0</ele><time>2026-04-18T11:38:24.443Z</time></trkpt><trkpt lat="43.4235352" lon="10.6466844"><ele>346.0</ele><time>2026-04-18T11:38:25.45Z</time></trkpt><trkpt lat="43.4236353" lon="10.6467434"><ele>346.0</ele><time>2026-04-18T11:38:26.459Z</time></trkpt><trkpt lat="43.4237258" lon="10.6467875"><ele>346.0</ele><time>2026-04-18T11:38:27.448Z</time></trkpt><trkpt lat="43.4238134" lon="10.646824"><ele>346.0</ele><time>2026-04-18T11:38:28.458Z</time></trkpt><trkpt lat="43.4238844" lon="10.6468693"><ele>345.66666666666663</ele><time>2026-04-18T11:38:29.444Z</time></trkpt><trkpt lat="43.4239512" lon="10.6469083"><ele>345.3333333333333</ele><time>2026-04-18T11:38:30.46Z</time></trkpt><trkpt lat="43.4240213" lon="10.6469517"><ele>345.0</ele><time>2026-04-18T11:38:31.45Z</time></trkpt><trkpt lat="43.4240888" lon="10.6470065"><ele>344.6666666666667</ele><time>2026-04-18T11:38:32.448Z</time></trkpt><trkpt lat="43.4241564" lon="10.6470873"><ele>344.33333333333337</ele><time>2026-04-18T11:38:33.473Z</time></trkpt><trkpt lat="43.4242267" lon="10.6471666"><ele>344.0</ele><time>2026-04-18T11:38:34.454Z</time></trkpt><trkpt lat="43.4243018" lon="10.6472518"><ele>339.2</ele><time>2026-04-18T11:38:35.447Z</time></trkpt><trkpt lat="43.4243731" lon="10.6473474"><ele>334.4</ele><time>2026-04-18T11:38:36.452Z</time></trkpt><trkpt lat="43.4244553" lon="10.6474358"><ele>329.6</ele><time>2026-04-18T11:38:37.452Z</time></trkpt><trkpt lat="43.4245367" lon="10.6475157"><ele>324.8</ele><time>2026-04-18T11:38:38.447Z</time></trkpt><trkpt lat="43.4246223" lon="10.6476045"><ele>320.0</ele><time>2026-04-18T11:38:39.447Z</time></trkpt><trkpt lat="43.4247055" lon="10.647696"><ele>316.5</ele><time>2026-04-18T11:38:40.445Z</time></trkpt><trkpt lat="43.4247942" lon="10.6478178"><ele>313.0</ele><time>2026-04-18T11:38:41.449Z</time></trkpt><trkpt lat="43.4248614" lon="10.6479512"><ele>309.5</ele><time>2026-04-18T11:38:42.44Z</time></trkpt><trkpt lat="43.4249225" lon="10.6481202"><ele>306.0</ele><time>2026-04-18T11:38:43.441Z</time></trkpt><trkpt lat="43.4249526" lon="10.6482965"><ele>306.0</ele><time>2026-04-18T11:38:44.44Z</time></trkpt><trkpt lat="43.4249409" lon="10.6484435"><ele>306.0</ele><time>2026-04-18T11:38:45.441Z</time></trkpt><trkpt lat="43.4249424" lon="10.6485934"><ele>306.0</ele><time>2026-04-18T11:38:46.444Z</time></trkpt><trkpt lat="43.4249478" lon="10.6487261"><ele>306.0</ele><time>2026-04-18T11:38:47.451Z</time></trkpt><trkpt lat="43.4249569" lon="10.6488658"><ele>306.0</ele><time>2026-04-18T11:38:48.449Z</time></trkpt><trkpt lat="43.4249771" lon="10.6489931"><ele>305.6</ele><time>2026-04-18T11:38:49.445Z</time></trkpt><trkpt lat="43.4250078" lon="10.6491097"><ele>305.20000000000005</ele><time>2026-04-18T11:38:50.441Z</time></trkpt><trkpt lat="43.4250514" lon="10.6492309"><ele>304.79999999999995</ele><time>2026-04-18T11:38:51.45Z</time></trkpt><trkpt lat="43.4251121" lon="10.6493389"><ele>304.4</ele><time>2026-04-18T11:38:52.45Z</time></trkpt><trkpt lat="43.425188" lon="10.6494275"><ele>304.0</ele><time>2026-04-18T11:38:53.441Z</time></trkpt><trkpt lat="43.4252542" lon="10.6494958"><ele>303.5</ele><time>2026-04-18T11:38:54.441Z</time></trkpt><trkpt lat="43.4253183" lon="10.6495707"><ele>303.0</ele><time>2026-04-18T11:38:55.441Z</time></trkpt><trkpt lat="43.4253568" lon="10.6496613"><ele>302.5</ele><time>2026-04-18T11:38:56.448Z</time></trkpt><trkpt lat="43.4253986" lon="10.6497467"><ele>302.0</ele><time>2026-04-18T11:38:57.437Z</time></trkpt><trkpt lat="43.4254101" lon="10.6498604"><ele>301.5</ele><time>2026-04-18T11:38:58.466Z</time></trkpt><trkpt lat="43.425406" lon="10.6499805"><ele>301.0</ele><time>2026-04-18T11:38:59.45Z</time></trkpt><trkpt lat="43.4253892" lon="10.6500998"><ele>301.0</ele><time>2026-04-18T11:39:00.448Z</time></trkpt><trkpt lat="43.4253686" lon="10.6502086"><ele>301.0</ele><time>2026-04-18T11:39:01.451Z</time></trkpt><trkpt lat="43.4253401" lon="10.6503317"><ele>301.0</ele><time>2026-04-18T11:39:02.451Z</time></trkpt><trkpt lat="43.425313" lon="10.6504575"><ele>301.0</ele><time>2026-04-18T11:39:03.452Z</time></trkpt><trkpt lat="43.4252937" lon="10.6505721"><ele>301.0</ele><time>2026-04-18T11:39:04.444Z</time></trkpt><trkpt lat="43.4252952" lon="10.6506939"><ele>301.0</ele><time>2026-04-18T11:39:05.443Z</time></trkpt><trkpt lat="43.4253154" lon="10.6508145"><ele>298.2</ele><time>2026-04-18T11:39:06.439Z</time></trkpt><trkpt lat="43.4253358" lon="10.6509623"><ele>295.40000000000003</ele><time>2026-04-18T11:39:07.442Z</time></trkpt><trkpt lat="43.4253664" lon="10.6511013"><ele>292.6</ele><time>2026-04-18T11:39:08.437Z</time></trkpt><trkpt lat="43.4253898" lon="10.6512316"><ele>289.8</ele><time>2026-04-18T11:39:09.453Z</time></trkpt><trkpt lat="43.4254146" lon="10.6513245"><ele>287.0</ele><time>2026-04-18T11:39:10.446Z</time></trkpt><trkpt lat="43.4254723" lon="10.6514095"><ele>284.0</ele><time>2026-04-18T11:39:11.447Z</time></trkpt><trkpt lat="43.425549" lon="10.6514863"><ele>281.0</ele><time>2026-04-18T11:39:12.436Z</time></trkpt><trkpt lat="43.4256335" lon="10.6515418"><ele>278.0</ele><time>2026-04-18T11:39:13.449Z</time></trkpt><trkpt lat="43.4257188" lon="10.6515937"><ele>275.0</ele><time>2026-04-18T11:39:14.446Z</time></trkpt><trkpt lat="43.4257958" lon="10.6516263"><ele>272.0</ele><time>2026-04-18T11:39:15.443Z</time></trkpt><trkpt lat="43.4258575" lon="10.6516552"><ele>269.0</ele><time>2026-04-18T11:39:16.446Z</time></trkpt><trkpt lat="43.4259195" lon="10.6516796"><ele>269.0</ele><time>2026-04-18T11:39:17.444Z</time></trkpt><trkpt lat="43.4259871" lon="10.6517159"><ele>269.0</ele><time>2026-04-18T11:39:18.448Z</time></trkpt><trkpt lat="43.4260555" lon="10.6517614"><ele>269.0</ele><time>2026-04-18T11:39:19.444Z</time></trkpt><trkpt lat="43.4261257" lon="10.6518106"><ele>269.0</ele><time>2026-04-18T11:39:20.439Z</time></trkpt><trkpt lat="43.4261887" lon="10.6518726"><ele>269.0</ele><time>2026-04-18T11:39:21.444Z</time></trkpt><trkpt lat="43.4262427" lon="10.6519547"><ele>269.0</ele><time>2026-04-18T11:39:22.446Z</time></trkpt><trkpt lat="43.4262921" lon="10.6520426"><ele>265.59999999999997</ele><time>2026-04-18T11:39:23.448Z</time></trkpt><trkpt lat="43.4263585" lon="10.6521284"><ele>262.2</ele><time>2026-04-18T11:39:24.451Z</time></trkpt><trkpt lat="43.4264292" lon="10.6522064"><ele>258.79999999999995</ele><time>2026-04-18T11:39:25.45Z</time></trkpt><trkpt lat="43.4265055" lon="10.6522843"><ele>255.39999999999998</ele><time>2026-04-18T11:39:26.445Z</time></trkpt><trkpt lat="43.4265808" lon="10.6523399"><ele>252.0</ele><time>2026-04-18T11:39:27.429Z</time></trkpt><trkpt lat="43.4266707" lon="10.6523775"><ele>252.0</ele><time>2026-04-18T11:39:28.442Z</time></trkpt><trkpt lat="43.4267642" lon="10.6524053"><ele>252.0</ele><time>2026-04-18T11:39:29.445Z</time></trkpt><trkpt lat="43.4268669" lon="10.652425"><ele>252.0</ele><time>2026-04-18T11:39:30.445Z</time></trkpt><trkpt lat="43.4269655" lon="10.6524373"><ele>252.0</ele><time>2026-04-18T11:39:31.434Z</time></trkpt><trkpt lat="43.4270553" lon="10.6524692"><ele>252.0</ele><time>2026-04-18T11:39:32.447Z</time></trkpt><trkpt lat="43.4271444" lon="10.6525026"><ele>250.0</ele><time>2026-04-18T11:39:33.455Z</time></trkpt><trkpt lat="43.4272378" lon="10.6525466"><ele>248.0</ele><time>2026-04-18T11:39:34.444Z</time></trkpt><trkpt lat="43.4273256" lon="10.6525944"><ele>246.0</ele><time>2026-04-18T11:39:35.438Z</time></trkpt><trkpt lat="43.427399" lon="10.6526412"><ele>244.0</ele><time>2026-04-18T11:39:36.439Z</time></trkpt><trkpt lat="43.4274821" lon="10.6527015"><ele>242.0</ele><time>2026-04-18T11:39:37.449Z</time></trkpt><trkpt lat="43.4275501" lon="10.6527764"><ele>240.66666666666669</ele><time>2026-04-18T11:39:38.457Z</time></trkpt><trkpt lat="43.4276023" lon="10.6528705"><ele>239.33333333333334</ele><time>2026-04-18T11:39:39.446Z</time></trkpt><trkpt lat="43.4276327" lon="10.6529788"><ele>238.0</ele><time>2026-04-18T11:39:40.441Z</time></trkpt><trkpt lat="43.4276532" lon="10.6530922"><ele>236.66666666666669</ele><time>2026-04-18T11:39:41.449Z</time></trkpt><trkpt lat="43.4276597" lon="10.6532147"><ele>235.33333333333334</ele><time>2026-04-18T11:39:42.44Z</time></trkpt><trkpt lat="43.4276451" lon="10.6533355"><ele>234.0</ele><time>2026-04-18T11:39:43.443Z</time></trkpt><trkpt lat="43.4276175" lon="10.653447"><ele>234.0</ele><time>2026-04-18T11:39:44.439Z</time></trkpt><trkpt lat="43.4275728" lon="10.6535585"><ele>233.99999999999997</ele><time>2026-04-18T11:39:45.456Z</time></trkpt><trkpt lat="43.4275199" lon="10.6536782"><ele>233.99999999999997</ele><time>2026-04-18T11:39:46.449Z</time></trkpt><trkpt lat="43.427455" lon="10.6537765"><ele>234.0</ele><time>2026-04-18T11:39:47.443Z</time></trkpt><trkpt lat="43.4273965" lon="10.6538728"><ele>234.0</ele><time>2026-04-18T11:39:48.453Z</time></trkpt><trkpt lat="43.4273398" lon="10.6539514"><ele>232.0</ele><time>2026-04-18T11:39:49.452Z</time></trkpt><trkpt lat="43.4272893" lon="10.6540106"><ele>230.0</ele><time>2026-04-18T11:39:50.441Z</time></trkpt><trkpt lat="43.4272109" lon="10.6541354"><ele>228.0</ele><time>2026-04-18T11:39:52.45Z</time></trkpt><trkpt lat="43.4271879" lon="10.6542194"><ele>226.0</ele><time>2026-04-18T11:39:53.451Z</time></trkpt><trkpt lat="43.4271841" lon="10.6543216"><ele>224.0</ele><time>2026-04-18T11:39:54.451Z</time></trkpt><trkpt lat="43.4271982" lon="10.6544348"><ele>222.0</ele><time>2026-04-18T11:39:55.454Z</time></trkpt><trkpt lat="43.4272207" lon="10.6545327"><ele>220.0</ele><time>2026-04-18T11:39:56.447Z</time></trkpt><trkpt lat="43.4272572" lon="10.6546414"><ele>218.0</ele><time>2026-04-18T11:39:57.452Z</time></trkpt><trkpt lat="43.4273115" lon="10.6547378"><ele>216.0</ele><time>2026-04-18T11:39:58.457Z</time></trkpt><trkpt lat="43.4273721" lon="10.6548032"><ele>214.0</ele><time>2026-04-18T11:39:59.46Z</time></trkpt><trkpt lat="43.427441" lon="10.6548406"><ele>212.0</ele><time>2026-04-18T11:40:00.439Z</time></trkpt><trkpt lat="43.4275064" lon="10.6548811"><ele>210.0</ele><time>2026-04-18T11:40:01.443Z</time></trkpt><trkpt lat="43.4275734" lon="10.6549204"><ele>210.0</ele><time>2026-04-18T11:40:02.444Z</time></trkpt><trkpt lat="43.427635" lon="10.6549431"><ele>210.0</ele><time>2026-04-18T11:40:03.436Z</time></trkpt><trkpt lat="43.4277046" lon="10.6549847"><ele>210.0</ele><time>2026-04-18T11:40:04.457Z</time></trkpt><trkpt lat="43.4277822" lon="10.6550216"><ele>210.0</ele><time>2026-04-18T11:40:05.453Z</time></trkpt><trkpt lat="43.4278549" lon="10.6550554"><ele>210.0</ele><time>2026-04-18T11:40:06.446Z</time></trkpt><trkpt lat="43.4279243" lon="10.6551035"><ele>210.0</ele><time>2026-04-18T11:40:07.446Z</time></trkpt><trkpt lat="43.4279994" lon="10.655146"><ele>209.33333333333334</ele><time>2026-04-18T11:40:08.441Z</time></trkpt><trkpt lat="43.4280745" lon="10.655188"><ele>208.66666666666669</ele><time>2026-04-18T11:40:09.442Z</time></trkpt><trkpt lat="43.4281482" lon="10.655244"><ele>208.0</ele><time>2026-04-18T11:40:10.444Z</time></trkpt><trkpt lat="43.4282256" lon="10.6553093"><ele>207.33333333333334</ele><time>2026-04-18T11:40:11.454Z</time></trkpt><trkpt lat="43.4282986" lon="10.65538"><ele>206.66666666666669</ele><time>2026-04-18T11:40:12.46Z</time></trkpt><trkpt lat="43.4283758" lon="10.6554488"><ele>206.0</ele><time>2026-04-18T11:40:13.459Z</time></trkpt><trkpt lat="43.4284486" lon="10.6555351"><ele>204.00000000000003</ele><time>2026-04-18T11:40:14.453Z</time></trkpt><trkpt lat="43.4285136" lon="10.6556354"><ele>202.0</ele><time>2026-04-18T11:40:15.447Z</time></trkpt><trkpt lat="43.4285641" lon="10.655733"><ele>200.0</ele><time>2026-04-18T11:40:16.455Z</time></trkpt><trkpt lat="43.4286167" lon="10.6558241"><ele>198.0</ele><time>2026-04-18T11:40:17.46Z</time></trkpt><trkpt lat="43.4286596" lon="10.6559199"><ele>196.00000000000003</ele><time>2026-04-18T11:40:18.452Z</time></trkpt><trkpt lat="43.4287088" lon="10.656003"><ele>194.0</ele><time>2026-04-18T11:40:19.445Z</time></trkpt><trkpt lat="43.4287746" lon="10.6560833"><ele>192.33333333333334</ele><time>2026-04-18T11:40:20.452Z</time></trkpt><trkpt lat="43.4288388" lon="10.6561395"><ele>190.66666666666669</ele><time>2026-04-18T11:40:21.441Z</time></trkpt><trkpt lat="43.4289028" lon="10.6561822"><ele>189.0</ele><time>2026-04-18T11:40:22.443Z</time></trkpt><trkpt lat="43.4289759" lon="10.6562105"><ele>187.33333333333334</ele><time>2026-04-18T11:40:23.446Z</time></trkpt><trkpt lat="43.4290657" lon="10.6562236"><ele>185.66666666666669</ele><time>2026-04-18T11:40:24.449Z</time></trkpt><trkpt lat="43.4291479" lon="10.6562523"><ele>184.0</ele><time>2026-04-18T11:40:25.447Z</time></trkpt><trkpt lat="43.4292226" lon="10.6562904"><ele>184.0</ele><time>2026-04-18T11:40:26.44Z</time></trkpt><trkpt lat="43.4292885" lon="10.6563413"><ele>184.0</ele><time>2026-04-18T11:40:27.444Z</time></trkpt><trkpt lat="43.4293329" lon="10.65641"><ele>184.0</ele><time>2026-04-18T11:40:28.455Z</time></trkpt><trkpt lat="43.4293774" lon="10.6564836"><ele>184.0</ele><time>2026-04-18T11:40:29.443Z</time></trkpt><trkpt lat="43.4294254" lon="10.6565485"><ele>184.0</ele><time>2026-04-18T11:40:30.454Z</time></trkpt><trkpt lat="43.4295468" lon="10.6566646"><ele>184.0</ele><time>2026-04-18T11:40:32.447Z</time></trkpt><trkpt lat="43.4296313" lon="10.6567154"><ele>184.0</ele><time>2026-04-18T11:40:33.45Z</time></trkpt><trkpt lat="43.4297274" lon="10.656779"><ele>184.0</ele><time>2026-04-18T11:40:34.454Z</time></trkpt><trkpt lat="43.4298313" lon="10.6568399"><ele>184.0</ele><time>2026-04-18T11:40:35.439Z</time></trkpt><trkpt lat="43.4299389" lon="10.6569142"><ele>184.0</ele><time>2026-04-18T11:40:36.459Z</time></trkpt><trkpt lat="43.4300677" lon="10.6569928"><ele>183.66666666666669</ele><time>2026-04-18T11:40:37.469Z</time></trkpt><trkpt lat="43.4302034" lon="10.6570823"><ele>183.33333333333334</ele><time>2026-04-18T11:40:38.451Z</time></trkpt><trkpt lat="43.4303562" lon="10.6571824"><ele>183.0</ele><time>2026-04-18T11:40:39.448Z</time></trkpt><trkpt lat="43.4305095" lon="10.6572792"><ele>182.66666666666666</ele><time>2026-04-18T11:40:40.456Z</time></trkpt><trkpt lat="43.4306686" lon="10.6573856"><ele>182.33333333333331</ele><time>2026-04-18T11:40:41.451Z</time></trkpt><trkpt lat="43.4308405" lon="10.657492"><ele>182.0</ele><time>2026-04-18T11:40:42.467Z</time></trkpt><trkpt lat="43.4310101" lon="10.6576092"><ele>182.0</ele><time>2026-04-18T11:40:43.438Z</time></trkpt><trkpt lat="43.4311834" lon="10.657729"><ele>182.0</ele><time>2026-04-18T11:40:44.447Z</time></trkpt><trkpt lat="43.4313568" lon="10.657845"><ele>182.0</ele><time>2026-04-18T11:40:45.45Z</time></trkpt><trkpt lat="43.43153" lon="10.6579609"><ele>181.66666666666666</ele><time>2026-04-18T11:40:46.46Z</time></trkpt><trkpt lat="43.4317004" lon="10.6580666"><ele>181.33333333333334</ele><time>2026-04-18T11:40:47.442Z</time></trkpt><trkpt lat="43.4318682" lon="10.6581813"><ele>181.0</ele><time>2026-04-18T11:40:48.464Z</time></trkpt><trkpt lat="43.4320355" lon="10.6583025"><ele>180.66666666666669</ele><time>2026-04-18T11:40:49.436Z</time></trkpt><trkpt lat="43.4321954" lon="10.6584138"><ele>180.33333333333334</ele><time>2026-04-18T11:40:50.47Z</time></trkpt><trkpt lat="43.4323507" lon="10.6585145"><ele>180.0</ele><time>2026-04-18T11:40:51.448Z</time></trkpt><trkpt lat="43.4325019" lon="10.658616"><ele>179.33333333333334</ele><time>2026-04-18T11:40:52.443Z</time></trkpt><trkpt lat="43.4326534" lon="10.6587163"><ele>178.66666666666669</ele><time>2026-04-18T11:40:53.445Z</time></trkpt><trkpt lat="43.4327931" lon="10.6588086"><ele>178.0</ele><time>2026-04-18T11:40:54.448Z</time></trkpt><trkpt lat="43.432913" lon="10.6589054"><ele>177.75</ele><time>2026-04-18T11:40:55.451Z</time></trkpt><trkpt lat="43.4330137" lon="10.6590241"><ele>177.5</ele><time>2026-04-18T11:40:56.451Z</time></trkpt><trkpt lat="43.4331006" lon="10.6591944"><ele>177.25</ele><time>2026-04-18T11:40:57.466Z</time></trkpt><trkpt lat="43.4331806" lon="10.659351"><ele>177.0</ele><time>2026-04-18T11:40:58.463Z</time></trkpt><trkpt lat="43.4332635" lon="10.6594868"><ele>177.0</ele><time>2026-04-18T11:40:59.46Z</time></trkpt><trkpt lat="43.4333474" lon="10.6596113"><ele>177.0</ele><time>2026-04-18T11:41:00.474Z</time></trkpt><trkpt lat="43.4334589" lon="10.6596954"><ele>177.0</ele><time>2026-04-18T11:41:01.448Z</time></trkpt><trkpt lat="43.4335901" lon="10.6597435"><ele>177.0</ele><time>2026-04-18T11:41:02.448Z</time></trkpt><trkpt lat="43.4337461" lon="10.6597874"><ele>178.0</ele><time>2026-04-18T11:41:03.444Z</time></trkpt><trkpt lat="43.4339021" lon="10.6598262"><ele>179.0</ele><time>2026-04-18T11:41:04.453Z</time></trkpt><trkpt lat="43.4340584" lon="10.6598622"><ele>180.0</ele><time>2026-04-18T11:41:05.443Z</time></trkpt><trkpt lat="43.4342074" lon="10.65992"><ele>180.0</ele><time>2026-04-18T11:41:06.449Z</time></trkpt><trkpt lat="43.4343612" lon="10.6599853"><ele>180.0</ele><time>2026-04-18T11:41:07.457Z</time></trkpt><trkpt lat="43.4345241" lon="10.660043"><ele>180.0</ele><time>2026-04-18T11:41:08.455Z</time></trkpt><trkpt lat="43.4346857" lon="10.6601154"><ele>180.33333333333334</ele><time>2026-04-18T11:41:09.446Z</time></trkpt><trkpt lat="43.4348498" lon="10.6602113"><ele>180.66666666666669</ele><time>2026-04-18T11:41:10.471Z</time></trkpt><trkpt lat="43.4350118" lon="10.6603115"><ele>181.0</ele><time>2026-04-18T11:41:11.449Z</time></trkpt><trkpt lat="43.4351799" lon="10.6604274"><ele>179.66666666666669</ele><time>2026-04-18T11:41:12.456Z</time></trkpt><trkpt lat="43.4353455" lon="10.6605588"><ele>178.33333333333334</ele><time>2026-04-18T11:41:13.442Z</time></trkpt><trkpt lat="43.4355142" lon="10.6606794"><ele>177.0</ele><time>2026-04-18T11:41:14.45Z</time></trkpt><trkpt lat="43.435679" lon="10.6607989"><ele>177.0</ele><time>2026-04-18T11:41:15.441Z</time></trkpt><trkpt lat="43.4358473" lon="10.6609135"><ele>177.0</ele><time>2026-04-18T11:41:16.449Z</time></trkpt><trkpt lat="43.4360148" lon="10.6610428"><ele>177.0</ele><time>2026-04-18T11:41:17.448Z</time></trkpt><trkpt lat="43.4361763" lon="10.6611798"><ele>175.33333333333334</ele><time>2026-04-18T11:41:18.451Z</time></trkpt><trkpt lat="43.4363366" lon="10.6613199"><ele>173.66666666666669</ele><time>2026-04-18T11:41:19.441Z</time></trkpt><trkpt lat="43.436501" lon="10.6614557"><ele>172.0</ele><time>2026-04-18T11:41:20.442Z</time></trkpt><trkpt lat="43.4366619" lon="10.6615861"><ele>172.0</ele><time>2026-04-18T11:41:21.45Z</time></trkpt><trkpt lat="43.4368314" lon="10.6617194"><ele>172.0</ele><time>2026-04-18T11:41:22.437Z</time></trkpt><trkpt lat="43.4369914" lon="10.6618583"><ele>172.0</ele><time>2026-04-18T11:41:23.456Z</time></trkpt><trkpt lat="43.4371636" lon="10.6619694"><ele>170.33333333333334</ele><time>2026-04-18T11:41:24.442Z</time></trkpt><trkpt lat="43.4373426" lon="10.6620432"><ele>168.66666666666666</ele><time>2026-04-18T11:41:25.452Z</time></trkpt><trkpt lat="43.4375303" lon="10.6621035"><ele>167.0</ele><time>2026-04-18T11:41:26.458Z</time></trkpt><trkpt lat="43.4377134" lon="10.6621734"><ele>167.0</ele><time>2026-04-18T11:41:27.445Z</time></trkpt><trkpt lat="43.4379053" lon="10.6622291"><ele>167.0</ele><time>2026-04-18T11:41:28.443Z</time></trkpt><trkpt lat="43.438096" lon="10.6622808"><ele>167.0</ele><time>2026-04-18T11:41:29.477Z</time></trkpt><trkpt lat="43.438289" lon="10.6623314"><ele>168.0</ele><time>2026-04-18T11:41:30.442Z</time></trkpt><trkpt lat="43.4384774" lon="10.6624011"><ele>169.0</ele><time>2026-04-18T11:41:31.455Z</time></trkpt><trkpt lat="43.4386602" lon="10.6624676"><ele>170.0</ele><time>2026-04-18T11:41:32.44Z</time></trkpt><trkpt lat="43.4388283" lon="10.6625544"><ele>169.66666666666666</ele><time>2026-04-18T11:41:33.45Z</time></trkpt><trkpt lat="43.4389917" lon="10.6626544"><ele>169.33333333333334</ele><time>2026-04-18T11:41:34.443Z</time></trkpt><trkpt lat="43.4391454" lon="10.6627844"><ele>169.0</ele><time>2026-04-18T11:41:35.448Z</time></trkpt><trkpt lat="43.4392783" lon="10.6629398"><ele>169.0</ele><time>2026-04-18T11:41:36.452Z</time></trkpt><trkpt lat="43.4394001" lon="10.6631123"><ele>169.0</ele><time>2026-04-18T11:41:37.46Z</time></trkpt><trkpt lat="43.4395253" lon="10.6632723"><ele>169.0</ele><time>2026-04-18T11:41:38.445Z</time></trkpt><trkpt lat="43.4396494" lon="10.6634583"><ele>167.66666666666669</ele><time>2026-04-18T11:41:39.456Z</time></trkpt><trkpt lat="43.4397858" lon="10.6636434"><ele>166.33333333333334</ele><time>2026-04-18T11:41:40.454Z</time></trkpt><trkpt lat="43.4399135" lon="10.6638216"><ele>165.0</ele><time>2026-04-18T11:41:41.454Z</time></trkpt><trkpt lat="43.4400314" lon="10.6640059"><ele>165.0</ele><time>2026-04-18T11:41:42.445Z</time></trkpt><trkpt lat="43.4401572" lon="10.6641681"><ele>165.0</ele><time>2026-04-18T11:41:43.45Z</time></trkpt><trkpt lat="43.4402958" lon="10.6643222"><ele>165.0</ele><time>2026-04-18T11:41:44.457Z</time></trkpt><trkpt lat="43.4404472" lon="10.6644453"><ele>164.0</ele><time>2026-04-18T11:41:45.455Z</time></trkpt><trkpt lat="43.4406143" lon="10.6645677"><ele>163.0</ele><time>2026-04-18T11:41:46.445Z</time></trkpt><trkpt lat="43.4408011" lon="10.6646686"><ele>162.0</ele><time>2026-04-18T11:41:47.442Z</time></trkpt><trkpt lat="43.4409912" lon="10.6647472"><ele>162.0</ele><time>2026-04-18T11:41:48.446Z</time></trkpt><trkpt lat="43.4411937" lon="10.6648093"><ele>162.0</ele><time>2026-04-18T11:41:49.44Z</time></trkpt><trkpt lat="43.4413978" lon="10.6648754"><ele>162.0</ele><time>2026-04-18T11:41:50.448Z</time></trkpt><trkpt lat="43.441595" lon="10.6649399"><ele>161.66666666666666</ele><time>2026-04-18T11:41:51.44Z</time></trkpt><trkpt lat="43.4417988" lon="10.6650154"><ele>161.33333333333331</ele><time>2026-04-18T11:41:52.446Z</time></trkpt><trkpt lat="43.4420021" lon="10.6650841"><ele>161.0</ele><time>2026-04-18T11:41:53.447Z</time></trkpt><trkpt lat="43.4422101" lon="10.6651575"><ele>160.33333333333331</ele><time>2026-04-18T11:41:54.456Z</time></trkpt><trkpt lat="43.4424164" lon="10.665226"><ele>159.66666666666666</ele><time>2026-04-18T11:41:55.45Z</time></trkpt><trkpt lat="43.4426299" lon="10.665283"><ele>159.0</ele><time>2026-04-18T11:41:56.444Z</time></trkpt><trkpt lat="43.4428528" lon="10.6653486"><ele>158.33333333333334</ele><time>2026-04-18T11:41:57.447Z</time></trkpt><trkpt lat="43.4430723" lon="10.6654091"><ele>157.66666666666669</ele><time>2026-04-18T11:41:58.443Z</time></trkpt><trkpt lat="43.4432814" lon="10.6654764"><ele>157.0</ele><time>2026-04-18T11:41:59.443Z</time></trkpt><trkpt lat="43.4434982" lon="10.6655485"><ele>157.0</ele><time>2026-04-18T11:42:00.443Z</time></trkpt><trkpt lat="43.4437098" lon="10.6656287"><ele>157.0</ele><time>2026-04-18T11:42:01.453Z</time></trkpt><trkpt lat="43.4439218" lon="10.6657107"><ele>157.0</ele><time>2026-04-18T11:42:02.457Z</time></trkpt><trkpt lat="43.4441362" lon="10.6657925"><ele>157.0</ele><time>2026-04-18T11:42:03.442Z</time></trkpt><trkpt lat="43.4443533" lon="10.6658828"><ele>157.0</ele><time>2026-04-18T11:42:04.442Z</time></trkpt><trkpt lat="43.4445645" lon="10.6659637"><ele>157.0</ele><time>2026-04-18T11:42:05.438Z</time></trkpt><trkpt lat="43.4447828" lon="10.6660497"><ele>155.66666666666669</ele><time>2026-04-18T11:42:06.45Z</time></trkpt><trkpt lat="43.4449981" lon="10.6661325"><ele>154.33333333333334</ele><time>2026-04-18T11:42:07.446Z</time></trkpt><trkpt lat="43.4452097" lon="10.6662166"><ele>153.0</ele><time>2026-04-18T11:42:08.466Z</time></trkpt><trkpt lat="43.4454221" lon="10.6663042"><ele>153.0</ele><time>2026-04-18T11:42:09.438Z</time></trkpt><trkpt lat="43.4456408" lon="10.6663914"><ele>153.0</ele><time>2026-04-18T11:42:10.439Z</time></trkpt><trkpt lat="43.4458591" lon="10.6664779"><ele>153.0</ele><time>2026-04-18T11:42:11.453Z</time></trkpt><trkpt lat="43.4460773" lon="10.6665676"><ele>153.0</ele><time>2026-04-18T11:42:12.441Z</time></trkpt><trkpt lat="43.4462865" lon="10.666652"><ele>153.0</ele><time>2026-04-18T11:42:13.482Z</time></trkpt><trkpt lat="43.4464956" lon="10.6667364"><ele>152.33333333333334</ele><time>2026-04-18T11:42:14.442Z</time></trkpt><trkpt lat="43.4467111" lon="10.6668221"><ele>151.66666666666669</ele><time>2026-04-18T11:42:15.446Z</time></trkpt><trkpt lat="43.4469198" lon="10.6669014"><ele>151.0</ele><time>2026-04-18T11:42:16.445Z</time></trkpt><trkpt lat="43.4471303" lon="10.6669865"><ele>150.66666666666669</ele><time>2026-04-18T11:42:17.447Z</time></trkpt><trkpt lat="43.4473389" lon="10.6670672"><ele>150.33333333333334</ele><time>2026-04-18T11:42:18.455Z</time></trkpt><trkpt lat="43.4475474" lon="10.6671532"><ele>150.0</ele><time>2026-04-18T11:42:19.445Z</time></trkpt><trkpt lat="43.4477552" lon="10.6672323"><ele>150.0</ele><time>2026-04-18T11:42:20.446Z</time></trkpt><trkpt lat="43.4479625" lon="10.6673174"><ele>150.0</ele><time>2026-04-18T11:42:21.447Z</time></trkpt><trkpt lat="43.4481669" lon="10.6673995"><ele>150.0</ele><time>2026-04-18T11:42:22.459Z</time></trkpt><trkpt lat="43.4483752" lon="10.6674794"><ele>150.0</ele><time>2026-04-18T11:42:23.45Z</time></trkpt><trkpt lat="43.448584" lon="10.6675498"><ele>150.0</ele><time>2026-04-18T11:42:24.45Z</time></trkpt><trkpt lat="43.4487993" lon="10.6676043"><ele>150.0</ele><time>2026-04-18T11:42:25.453Z</time></trkpt><trkpt lat="43.4490125" lon="10.6676269"><ele>150.33333333333334</ele><time>2026-04-18T11:42:26.441Z</time></trkpt><trkpt lat="43.4492151" lon="10.6676339"><ele>150.66666666666669</ele><time>2026-04-18T11:42:27.455Z</time></trkpt><trkpt lat="43.4494056" lon="10.6676127"><ele>151.0</ele><time>2026-04-18T11:42:28.446Z</time></trkpt><trkpt lat="43.4495922" lon="10.6675426"><ele>150.33333333333334</ele><time>2026-04-18T11:42:29.438Z</time></trkpt><trkpt lat="43.4497749" lon="10.6674569"><ele>149.66666666666666</ele><time>2026-04-18T11:42:30.447Z</time></trkpt><trkpt lat="43.449947" lon="10.667368"><ele>149.0</ele><time>2026-04-18T11:42:31.439Z</time></trkpt><trkpt lat="43.450113" lon="10.6672994"><ele>149.0</ele><time>2026-04-18T11:42:32.449Z</time></trkpt><trkpt lat="43.4502763" lon="10.6672586"><ele>149.0</ele><time>2026-04-18T11:42:33.453Z</time></trkpt><trkpt lat="43.4504506" lon="10.6672326"><ele>149.0</ele><time>2026-04-18T11:42:34.448Z</time></trkpt><trkpt lat="43.450618" lon="10.6672396"><ele>149.0</ele><time>2026-04-18T11:42:35.459Z</time></trkpt><trkpt lat="43.4507916" lon="10.6672726"><ele>149.0</ele><time>2026-04-18T11:42:36.438Z</time></trkpt><trkpt lat="43.4509683" lon="10.6673203"><ele>149.0</ele><time>2026-04-18T11:42:37.45Z</time></trkpt><trkpt lat="43.4511591" lon="10.6673541"><ele>149.66666666666666</ele><time>2026-04-18T11:42:38.477Z</time></trkpt><trkpt lat="43.4513423" lon="10.6673896"><ele>150.33333333333334</ele><time>2026-04-18T11:42:39.448Z</time></trkpt><trkpt lat="43.4515209" lon="10.6674234"><ele>151.0</ele><time>2026-04-18T11:42:40.45Z</time></trkpt><trkpt lat="43.4517085" lon="10.6674614"><ele>151.0</ele><time>2026-04-18T11:42:41.447Z</time></trkpt><trkpt lat="43.4518878" lon="10.6675067"><ele>151.0</ele><time>2026-04-18T11:42:42.457Z</time></trkpt><trkpt lat="43.4520626" lon="10.6675456"><ele>151.0</ele><time>2026-04-18T11:42:43.46Z</time></trkpt><trkpt lat="43.4522399" lon="10.6675778"><ele>150.33333333333334</ele><time>2026-04-18T11:42:44.442Z</time></trkpt><trkpt lat="43.4524263" lon="10.6675913"><ele>149.66666666666666</ele><time>2026-04-18T11:42:45.456Z</time></trkpt><trkpt lat="43.4526158" lon="10.6675977"><ele>149.0</ele><time>2026-04-18T11:42:46.438Z</time></trkpt><trkpt lat="43.4528048" lon="10.6675907"><ele>148.66666666666666</ele><time>2026-04-18T11:42:47.449Z</time></trkpt><trkpt lat="43.4529852" lon="10.6675751"><ele>148.33333333333334</ele><time>2026-04-18T11:42:48.454Z</time></trkpt><trkpt lat="43.453172" lon="10.6675711"><ele>148.0</ele><time>2026-04-18T11:42:49.444Z</time></trkpt><trkpt lat="43.4533538" lon="10.6675779"><ele>148.0</ele><time>2026-04-18T11:42:50.455Z</time></trkpt><trkpt lat="43.4535325" lon="10.6676007"><ele>148.0</ele><time>2026-04-18T11:42:51.455Z</time></trkpt><trkpt lat="43.4537203" lon="10.6676274"><ele>148.0</ele><time>2026-04-18T11:42:52.46Z</time></trkpt><trkpt lat="43.453892" lon="10.6676521"><ele>147.0</ele><time>2026-04-18T11:42:53.486Z</time></trkpt><trkpt lat="43.45406" lon="10.667681"><ele>146.0</ele><time>2026-04-18T11:42:54.442Z</time></trkpt><trkpt lat="43.4542282" lon="10.6677155"><ele>145.0</ele><time>2026-04-18T11:42:55.454Z</time></trkpt><trkpt lat="43.454399" lon="10.6677444"><ele>145.0</ele><time>2026-04-18T11:42:56.447Z</time></trkpt><trkpt lat="43.4545639" lon="10.6677741"><ele>145.0</ele><time>2026-04-18T11:42:57.447Z</time></trkpt><trkpt lat="43.4547268" lon="10.6678027"><ele>145.0</ele><time>2026-04-18T11:42:58.453Z</time></trkpt><trkpt lat="43.4548917" lon="10.6678444"><ele>144.66666666666669</ele><time>2026-04-18T11:42:59.455Z</time></trkpt><trkpt lat="43.455056" lon="10.6678819"><ele>144.33333333333334</ele><time>2026-04-18T11:43:00.473Z</time></trkpt><trkpt lat="43.4552104" lon="10.6679062"><ele>144.0</ele><time>2026-04-18T11:43:01.449Z</time></trkpt><trkpt lat="43.4553676" lon="10.667934"><ele>143.66666666666666</ele><time>2026-04-18T11:43:02.448Z</time></trkpt><trkpt lat="43.455525" lon="10.667966"><ele>143.33333333333331</ele><time>2026-04-18T11:43:03.445Z</time></trkpt><trkpt lat="43.4556755" lon="10.6680122"><ele>143.0</ele><time>2026-04-18T11:43:04.448Z</time></trkpt><trkpt lat="43.4558332" lon="10.6680846"><ele>143.0</ele><time>2026-04-18T11:43:05.463Z</time></trkpt><trkpt lat="43.4559906" lon="10.6681799"><ele>143.0</ele><time>2026-04-18T11:43:06.458Z</time></trkpt><trkpt lat="43.4561456" lon="10.6682853"><ele>143.0</ele><time>2026-04-18T11:43:07.445Z</time></trkpt><trkpt lat="43.4563039" lon="10.668395"><ele>142.66666666666666</ele><time>2026-04-18T11:43:08.44Z</time></trkpt><trkpt lat="43.456466" lon="10.6685027"><ele>142.33333333333334</ele><time>2026-04-18T11:43:09.444Z</time></trkpt><trkpt lat="43.4566327" lon="10.6686132"><ele>142.0</ele><time>2026-04-18T11:43:10.462Z</time></trkpt><trkpt lat="43.4568063" lon="10.6687333"><ele>141.66666666666669</ele><time>2026-04-18T11:43:11.443Z</time></trkpt><trkpt lat="43.4569849" lon="10.6688602"><ele>141.33333333333334</ele><time>2026-04-18T11:43:12.455Z</time></trkpt><trkpt lat="43.4571736" lon="10.6689948"><ele>141.0</ele><time>2026-04-18T11:43:13.452Z</time></trkpt><trkpt lat="43.4573618" lon="10.6691395"><ele>140.66666666666666</ele><time>2026-04-18T11:43:14.459Z</time></trkpt><trkpt lat="43.4575489" lon="10.6692773"><ele>140.33333333333331</ele><time>2026-04-18T11:43:15.455Z</time></trkpt><trkpt lat="43.4577369" lon="10.6694164"><ele>140.0</ele><time>2026-04-18T11:43:16.449Z</time></trkpt><trkpt lat="43.4579304" lon="10.6695574"><ele>139.5</ele><time>2026-04-18T11:43:17.455Z</time></trkpt><trkpt lat="43.4581311" lon="10.669697"><ele>139.0</ele><time>2026-04-18T11:43:18.446Z</time></trkpt><trkpt lat="43.4583338" lon="10.6698448"><ele>139.0</ele><time>2026-04-18T11:43:19.469Z</time></trkpt><trkpt lat="43.4585298" lon="10.6699887"><ele>139.0</ele><time>2026-04-18T11:43:20.457Z</time></trkpt><trkpt lat="43.4587248" lon="10.6701329"><ele>139.0</ele><time>2026-04-18T11:43:21.441Z</time></trkpt><trkpt lat="43.4589246" lon="10.6702797"><ele>137.0</ele><time>2026-04-18T11:43:22.445Z</time></trkpt><trkpt lat="43.4591226" lon="10.6704232"><ele>135.0</ele><time>2026-04-18T11:43:23.454Z</time></trkpt><trkpt lat="43.4593236" lon="10.6705713"><ele>135.0</ele><time>2026-04-18T11:43:24.449Z</time></trkpt><trkpt lat="43.459523" lon="10.670707"><ele>135.0</ele><time>2026-04-18T11:43:25.473Z</time></trkpt><trkpt lat="43.4597142" lon="10.6708436"><ele>135.0</ele><time>2026-04-18T11:43:26.444Z</time></trkpt><trkpt lat="43.4599067" lon="10.6709857"><ele>134.33333333333334</ele><time>2026-04-18T11:43:27.44Z</time></trkpt><trkpt lat="43.4600972" lon="10.6711194"><ele>133.66666666666669</ele><time>2026-04-18T11:43:28.441Z</time></trkpt><trkpt lat="43.460292" lon="10.6712555"><ele>133.0</ele><time>2026-04-18T11:43:29.452Z</time></trkpt><trkpt lat="43.4604873" lon="10.671394"><ele>132.66666666666669</ele><time>2026-04-18T11:43:30.467Z</time></trkpt><trkpt lat="43.4606858" lon="10.6715333"><ele>132.33333333333334</ele><time>2026-04-18T11:43:31.449Z</time></trkpt><trkpt lat="43.4608833" lon="10.6716804"><ele>132.0</ele><time>2026-04-18T11:43:32.436Z</time></trkpt><trkpt lat="43.4610805" lon="10.671825"><ele>131.66666666666666</ele><time>2026-04-18T11:43:33.438Z</time></trkpt><trkpt lat="43.4612769" lon="10.6719692"><ele>131.33333333333331</ele><time>2026-04-18T11:43:34.446Z</time></trkpt><trkpt lat="43.4614736" lon="10.6721134"><ele>131.0</ele><time>2026-04-18T11:43:35.473Z</time></trkpt><trkpt lat="43.4616645" lon="10.6722515"><ele>131.0</ele><time>2026-04-18T11:43:36.449Z</time></trkpt><trkpt lat="43.4618464" lon="10.6723776"><ele>131.0</ele><time>2026-04-18T11:43:37.444Z</time></trkpt><trkpt lat="43.4620224" lon="10.6725043"><ele>131.0</ele><time>2026-04-18T11:43:38.445Z</time></trkpt><trkpt lat="43.4621964" lon="10.6726309"><ele>130.66666666666666</ele><time>2026-04-18T11:43:39.453Z</time></trkpt><trkpt lat="43.4623718" lon="10.672759"><ele>130.33333333333334</ele><time>2026-04-18T11:43:40.44Z</time></trkpt><trkpt lat="43.4625462" lon="10.672883"><ele>130.0</ele><time>2026-04-18T11:43:41.446Z</time></trkpt><trkpt lat="43.4627235" lon="10.6730102"><ele>130.0</ele><time>2026-04-18T11:43:42.452Z</time></trkpt><trkpt lat="43.4628975" lon="10.6731394"><ele>130.0</ele><time>2026-04-18T11:43:43.445Z</time></trkpt><trkpt lat="43.4630824" lon="10.6732666"><ele>130.0</ele><time>2026-04-18T11:43:44.447Z</time></trkpt><trkpt lat="43.4632648" lon="10.6734009"><ele>130.66666666666669</ele><time>2026-04-18T11:43:45.438Z</time></trkpt><trkpt lat="43.4634576" lon="10.6735315"><ele>131.33333333333334</ele><time>2026-04-18T11:43:46.44Z</time></trkpt><trkpt lat="43.4636465" lon="10.6736668"><ele>132.0</ele><time>2026-04-18T11:43:47.442Z</time></trkpt><trkpt lat="43.4638385" lon="10.6738024"><ele>130.66666666666666</ele><time>2026-04-18T11:43:48.447Z</time></trkpt><trkpt lat="43.4640352" lon="10.6739422"><ele>129.33333333333331</ele><time>2026-04-18T11:43:49.455Z</time></trkpt><trkpt lat="43.4642301" lon="10.6740844"><ele>128.0</ele><time>2026-04-18T11:43:50.486Z</time></trkpt><trkpt lat="43.4644189" lon="10.6742316"><ele>128.0</ele><time>2026-04-18T11:43:51.454Z</time></trkpt><trkpt lat="43.464593" lon="10.674397"><ele>128.0</ele><time>2026-04-18T11:43:52.451Z</time></trkpt><trkpt lat="43.4647615" lon="10.6745757"><ele>128.0</ele><time>2026-04-18T11:43:53.451Z</time></trkpt><trkpt lat="43.4649252" lon="10.6747721"><ele>127.33333333333333</ele><time>2026-04-18T11:43:54.452Z</time></trkpt><trkpt lat="43.4650816" lon="10.6749811"><ele>126.66666666666666</ele><time>2026-04-18T11:43:55.443Z</time></trkpt><trkpt lat="43.4652241" lon="10.6752044"><ele>126.0</ele><time>2026-04-18T11:43:56.441Z</time></trkpt><trkpt lat="43.4653393" lon="10.6754537"><ele>126.66666666666666</ele><time>2026-04-18T11:43:57.452Z</time></trkpt><trkpt lat="43.4654525" lon="10.6757159"><ele>127.33333333333333</ele><time>2026-04-18T11:43:58.449Z</time></trkpt><trkpt lat="43.4655563" lon="10.6759931"><ele>128.0</ele><time>2026-04-18T11:43:59.441Z</time></trkpt><trkpt lat="43.4656629" lon="10.6762649"><ele>128.0</ele><time>2026-04-18T11:44:00.453Z</time></trkpt><trkpt lat="43.4657552" lon="10.6765476"><ele>128.0</ele><time>2026-04-18T11:44:01.482Z</time></trkpt><trkpt lat="43.4658527" lon="10.6768329"><ele>126.5</ele><time>2026-04-18T11:44:02.44Z</time></trkpt><trkpt lat="43.4659604" lon="10.677113"><ele>125.0</ele><time>2026-04-18T11:44:03.44Z</time></trkpt><trkpt lat="43.4660669" lon="10.6773919"><ele>125.0</ele><time>2026-04-18T11:44:04.449Z</time></trkpt><trkpt lat="43.4661668" lon="10.6776593"><ele>125.0</ele><time>2026-04-18T11:44:05.441Z</time></trkpt><trkpt lat="43.4662715" lon="10.6779246"><ele>125.0</ele><time>2026-04-18T11:44:06.461Z</time></trkpt><trkpt lat="43.466367" lon="10.6781847"><ele>126.33333333333333</ele><time>2026-04-18T11:44:07.451Z</time></trkpt><trkpt lat="43.4664694" lon="10.6784513"><ele>127.66666666666666</ele><time>2026-04-18T11:44:08.442Z</time></trkpt><trkpt lat="43.4665734" lon="10.6786972"><ele>129.0</ele><time>2026-04-18T11:44:09.443Z</time></trkpt><trkpt lat="43.4666841" lon="10.6789355"><ele>126.33333333333334</ele><time>2026-04-18T11:44:10.448Z</time></trkpt><trkpt lat="43.4668049" lon="10.6791534"><ele>123.66666666666667</ele><time>2026-04-18T11:44:11.455Z</time></trkpt><trkpt lat="43.4669424" lon="10.6793757"><ele>121.0</ele><time>2026-04-18T11:44:12.452Z</time></trkpt><trkpt lat="43.467078" lon="10.6796055"><ele>121.0</ele><time>2026-04-18T11:44:13.472Z</time></trkpt><trkpt lat="43.4672138" lon="10.6798375"><ele>121.0</ele><time>2026-04-18T11:44:14.453Z</time></trkpt><trkpt lat="43.4673468" lon="10.6800704"><ele>121.0</ele><time>2026-04-18T11:44:15.448Z</time></trkpt><trkpt lat="43.467486" lon="10.6803008"><ele>120.33333333333334</ele><time>2026-04-18T11:44:16.442Z</time></trkpt><trkpt lat="43.4676158" lon="10.6805288"><ele>119.66666666666666</ele><time>2026-04-18T11:44:17.445Z</time></trkpt><trkpt lat="43.4677504" lon="10.6807596"><ele>119.0</ele><time>2026-04-18T11:44:18.445Z</time></trkpt><trkpt lat="43.4678859" lon="10.6809906"><ele>121.33333333333333</ele><time>2026-04-18T11:44:19.453Z</time></trkpt><trkpt lat="43.4680164" lon="10.681217"><ele>123.66666666666666</ele><time>2026-04-18T11:44:20.449Z</time></trkpt><trkpt lat="43.4681442" lon="10.68145"><ele>126.0</ele><time>2026-04-18T11:44:21.442Z</time></trkpt><trkpt lat="43.4682787" lon="10.6816682"><ele>126.0</ele><time>2026-04-18T11:44:22.454Z</time></trkpt><trkpt lat="43.4684118" lon="10.681893"><ele>126.0</ele><time>2026-04-18T11:44:23.444Z</time></trkpt><trkpt lat="43.4685406" lon="10.6820988"><ele>126.0</ele><time>2026-04-18T11:44:24.448Z</time></trkpt><trkpt lat="43.4686511" lon="10.6823045"><ele>124.66666666666666</ele><time>2026-04-18T11:44:25.451Z</time></trkpt><trkpt lat="43.4687294" lon="10.682506"><ele>123.33333333333333</ele><time>2026-04-18T11:44:26.445Z</time></trkpt><trkpt lat="43.4687861" lon="10.6827268"><ele>122.0</ele><time>2026-04-18T11:44:27.451Z</time></trkpt><trkpt lat="43.4688111" lon="10.6829599"><ele>121.33333333333333</ele><time>2026-04-18T11:44:28.445Z</time></trkpt><trkpt lat="43.4688004" lon="10.6832029"><ele>120.66666666666666</ele><time>2026-04-18T11:44:29.435Z</time></trkpt><trkpt lat="43.4687583" lon="10.6834225"><ele>120.0</ele><time>2026-04-18T11:44:30.442Z</time></trkpt><trkpt lat="43.4687151" lon="10.6835991"><ele>119.25</ele><time>2026-04-18T11:44:31.45Z</time></trkpt><trkpt lat="43.4686955" lon="10.683779"><ele>118.5</ele><time>2026-04-18T11:44:32.441Z</time></trkpt><trkpt lat="43.4687202" lon="10.6839373"><ele>117.75</ele><time>2026-04-18T11:44:33.444Z</time></trkpt><trkpt lat="43.4687744" lon="10.6841264"><ele>117.0</ele><time>2026-04-18T11:44:34.445Z</time></trkpt><trkpt lat="43.4688718" lon="10.6842715"><ele>117.0</ele><time>2026-04-18T11:44:35.45Z</time></trkpt><trkpt lat="43.4689842" lon="10.6843859"><ele>117.0</ele><time>2026-04-18T11:44:36.433Z</time></trkpt><trkpt lat="43.4691143" lon="10.6844972"><ele>117.0</ele><time>2026-04-18T11:44:37.46Z</time></trkpt><trkpt lat="43.4692427" lon="10.6846286"><ele>117.0</ele><time>2026-04-18T11:44:38.441Z</time></trkpt><trkpt lat="43.4693805" lon="10.6847689"><ele>117.0</ele><time>2026-04-18T11:44:39.448Z</time></trkpt><trkpt lat="43.4695212" lon="10.6849175"><ele>117.0</ele><time>2026-04-18T11:44:40.451Z</time></trkpt><trkpt lat="43.4696694" lon="10.6850582"><ele>115.66666666666666</ele><time>2026-04-18T11:44:41.446Z</time></trkpt><trkpt lat="43.4698177" lon="10.6852025"><ele>114.33333333333333</ele><time>2026-04-18T11:44:42.434Z</time></trkpt><trkpt lat="43.4699822" lon="10.6853313"><ele>113.0</ele><time>2026-04-18T11:44:43.451Z</time></trkpt><trkpt lat="43.4701539" lon="10.6854448"><ele>113.0</ele><time>2026-04-18T11:44:44.454Z</time></trkpt><trkpt lat="43.4703348" lon="10.6855634"><ele>113.0</ele><time>2026-04-18T11:44:45.448Z</time></trkpt><trkpt lat="43.4705147" lon="10.685675"><ele>113.0</ele><time>2026-04-18T11:44:46.494Z</time></trkpt><trkpt lat="43.4707001" lon="10.68579"><ele>113.33333333333333</ele><time>2026-04-18T11:44:47.44Z</time></trkpt><trkpt lat="43.4708861" lon="10.6858942"><ele>113.66666666666666</ele><time>2026-04-18T11:44:48.461Z</time></trkpt><trkpt lat="43.4710579" lon="10.6860215"><ele>114.0</ele><time>2026-04-18T11:44:49.442Z</time></trkpt><trkpt lat="43.4712188" lon="10.6861671"><ele>113.66666666666666</ele><time>2026-04-18T11:44:50.437Z</time></trkpt><trkpt lat="43.47138" lon="10.6863255"><ele>113.33333333333333</ele><time>2026-04-18T11:44:51.444Z</time></trkpt><trkpt lat="43.4715224" lon="10.686499"><ele>113.0</ele><time>2026-04-18T11:44:52.446Z</time></trkpt><trkpt lat="43.4716641" lon="10.6866895"><ele>113.0</ele><time>2026-04-18T11:44:53.447Z</time></trkpt><trkpt lat="43.4717962" lon="10.6868923"><ele>113.0</ele><time>2026-04-18T11:44:54.446Z</time></trkpt><trkpt lat="43.471913" lon="10.6871122"><ele>113.0</ele><time>2026-04-18T11:44:55.451Z</time></trkpt><trkpt lat="43.4720281" lon="10.6873414"><ele>113.0</ele><time>2026-04-18T11:44:56.455Z</time></trkpt><trkpt lat="43.4721432" lon="10.6875692"><ele>113.0</ele><time>2026-04-18T11:44:57.451Z</time></trkpt><trkpt lat="43.4722582" lon="10.6877945"><ele>113.0</ele><time>2026-04-18T11:44:58.479Z</time></trkpt><trkpt lat="43.4723723" lon="10.6880298"><ele>112.0</ele><time>2026-04-18T11:44:59.45Z</time></trkpt><trkpt lat="43.4724775" lon="10.6882638"><ele>111.0</ele><time>2026-04-18T11:45:00.443Z</time></trkpt><trkpt lat="43.4725758" lon="10.6885131"><ele>110.0</ele><time>2026-04-18T11:45:01.445Z</time></trkpt><trkpt lat="43.4726791" lon="10.6887624"><ele>109.33333333333333</ele><time>2026-04-18T11:45:02.439Z</time></trkpt><trkpt lat="43.4727824" lon="10.6890204"><ele>108.66666666666666</ele><time>2026-04-18T11:45:03.464Z</time></trkpt><trkpt lat="43.4728886" lon="10.6892892"><ele>108.0</ele><time>2026-04-18T11:45:04.442Z</time></trkpt><trkpt lat="43.4729893" lon="10.6895537"><ele>110.0</ele><time>2026-04-18T11:45:05.45Z</time></trkpt><trkpt lat="43.4731003" lon="10.6898271"><ele>112.0</ele><time>2026-04-18T11:45:06.445Z</time></trkpt><trkpt lat="43.4732036" lon="10.6900996"><ele>110.0</ele><time>2026-04-18T11:45:07.45Z</time></trkpt><trkpt lat="43.4733146" lon="10.6903732"><ele>108.0</ele><time>2026-04-18T11:45:08.452Z</time></trkpt><trkpt lat="43.4734139" lon="10.6906548"><ele>108.0</ele><time>2026-04-18T11:45:09.454Z</time></trkpt><trkpt lat="43.4735198" lon="10.6909375"><ele>108.0</ele><time>2026-04-18T11:45:10.461Z</time></trkpt><trkpt lat="43.473625" lon="10.6912239"><ele>108.0</ele><time>2026-04-18T11:45:11.45Z</time></trkpt><trkpt lat="43.4737376" lon="10.6915104"><ele>108.0</ele><time>2026-04-18T11:45:12.444Z</time></trkpt><trkpt lat="43.4738407" lon="10.6917902"><ele>108.33333333333334</ele><time>2026-04-18T11:45:13.447Z</time></trkpt><trkpt lat="43.4739486" lon="10.6920664"><ele>108.66666666666667</ele><time>2026-04-18T11:45:14.461Z</time></trkpt><trkpt lat="43.4740511" lon="10.6923336"><ele>109.0</ele><time>2026-04-18T11:45:15.452Z</time></trkpt><trkpt lat="43.4741568" lon="10.6925974"><ele>108.0</ele><time>2026-04-18T11:45:16.444Z</time></trkpt><trkpt lat="43.4742559" lon="10.6928535"><ele>107.0</ele><time>2026-04-18T11:45:17.443Z</time></trkpt><trkpt lat="43.4743523" lon="10.6931127"><ele>106.0</ele><time>2026-04-18T11:45:18.445Z</time></trkpt><trkpt lat="43.4744451" lon="10.6933635"><ele>105.33333333333334</ele><time>2026-04-18T11:45:19.439Z</time></trkpt><trkpt lat="43.474543" lon="10.6936188"><ele>104.66666666666666</ele><time>2026-04-18T11:45:20.447Z</time></trkpt><trkpt lat="43.4746341" lon="10.693857"><ele>104.0</ele><time>2026-04-18T11:45:21.445Z</time></trkpt><trkpt lat="43.4747272" lon="10.6940906"><ele>104.0</ele><time>2026-04-18T11:45:22.446Z</time></trkpt><trkpt lat="43.4748245" lon="10.6943102"><ele>104.0</ele><time>2026-04-18T11:45:23.448Z</time></trkpt><trkpt lat="43.4749176" lon="10.6945313"><ele>104.0</ele><time>2026-04-18T11:45:24.444Z</time></trkpt><trkpt lat="43.4750203" lon="10.6947432"><ele>104.0</ele><time>2026-04-18T11:45:25.445Z</time></trkpt><trkpt lat="43.4751309" lon="10.6949435"><ele>104.0</ele><time>2026-04-18T11:45:26.448Z</time></trkpt><trkpt lat="43.4752423" lon="10.6951467"><ele>104.0</ele><time>2026-04-18T11:45:27.438Z</time></trkpt><trkpt lat="43.4753568" lon="10.6953473"><ele>104.66666666666666</ele><time>2026-04-18T11:45:28.444Z</time></trkpt><trkpt lat="43.4754739" lon="10.6955511"><ele>105.33333333333334</ele><time>2026-04-18T11:45:29.443Z</time></trkpt><trkpt lat="43.4755903" lon="10.6957636"><ele>106.0</ele><time>2026-04-18T11:45:30.452Z</time></trkpt><trkpt lat="43.4757062" lon="10.6959692"><ele>104.66666666666667</ele><time>2026-04-18T11:45:31.447Z</time></trkpt><trkpt lat="43.4758225" lon="10.6961774"><ele>103.33333333333334</ele><time>2026-04-18T11:45:32.441Z</time></trkpt><trkpt lat="43.4759348" lon="10.6963872"><ele>102.0</ele><time>2026-04-18T11:45:33.438Z</time></trkpt><trkpt lat="43.4760471" lon="10.6965818"><ele>102.0</ele><time>2026-04-18T11:45:34.445Z</time></trkpt><trkpt lat="43.4761536" lon="10.6967733"><ele>102.0</ele><time>2026-04-18T11:45:35.438Z</time></trkpt><trkpt lat="43.4762669" lon="10.6969653"><ele>102.0</ele><time>2026-04-18T11:45:36.454Z</time></trkpt><trkpt lat="43.4763857" lon="10.6971482"><ele>101.33333333333334</ele><time>2026-04-18T11:45:37.442Z</time></trkpt><trkpt lat="43.476511" lon="10.6973154"><ele>100.66666666666667</ele><time>2026-04-18T11:45:38.443Z</time></trkpt><trkpt lat="43.4766433" lon="10.6974771"><ele>100.0</ele><time>2026-04-18T11:45:39.443Z</time></trkpt><trkpt lat="43.4767702" lon="10.6976366"><ele>99.0</ele><time>2026-04-18T11:45:40.454Z</time></trkpt><trkpt lat="43.4768979" lon="10.6977954"><ele>98.0</ele><time>2026-04-18T11:45:41.446Z</time></trkpt><trkpt lat="43.4770243" lon="10.6979492"><ele>97.0</ele><time>2026-04-18T11:45:42.434Z</time></trkpt><trkpt lat="43.4771416" lon="10.6980882"><ele>96.8</ele><time>2026-04-18T11:45:43.436Z</time></trkpt><trkpt lat="43.4772379" lon="10.6982124"><ele>96.6</ele><time>2026-04-18T11:45:44.455Z</time></trkpt><trkpt lat="43.4773265" lon="10.6983288"><ele>96.39999999999999</ele><time>2026-04-18T11:45:45.444Z</time></trkpt><trkpt lat="43.4773911" lon="10.6984221"><ele>96.19999999999999</ele><time>2026-04-18T11:45:46.44Z</time></trkpt><trkpt lat="43.477443" lon="10.6984783"><ele>96.0</ele><time>2026-04-18T11:45:47.443Z</time></trkpt><trkpt lat="43.4775324" lon="10.6985051"><ele>96.0</ele><time>2026-04-18T11:45:49.454Z</time></trkpt><trkpt lat="43.4776163" lon="10.6983997"><ele>96.0</ele><time>2026-04-18T11:45:51.464Z</time></trkpt><trkpt lat="43.4776708" lon="10.6982934"><ele>96.0</ele><time>2026-04-18T11:45:52.444Z</time></trkpt><trkpt lat="43.4777454" lon="10.6982051"><ele>96.0</ele><time>2026-04-18T11:45:53.449Z</time></trkpt><trkpt lat="43.4778384" lon="10.6981384"><ele>96.0</ele><time>2026-04-18T11:45:54.474Z</time></trkpt><trkpt lat="43.4779222" lon="10.6980477"><ele>96.0</ele><time>2026-04-18T11:45:55.438Z</time></trkpt><trkpt lat="43.4780203" lon="10.6979727"><ele>96.0</ele><time>2026-04-18T11:45:56.451Z</time></trkpt><trkpt lat="43.4781333" lon="10.6978923"><ele>96.0</ele><time>2026-04-18T11:45:57.454Z</time></trkpt><trkpt lat="43.4782547" lon="10.6977972"><ele>96.0</ele><time>2026-04-18T11:45:58.452Z</time></trkpt><trkpt lat="43.4783734" lon="10.6977057"><ele>96.5</ele><time>2026-04-18T11:45:59.455Z</time></trkpt><trkpt lat="43.4784851" lon="10.6976136"><ele>97.0</ele><time>2026-04-18T11:46:00.491Z</time></trkpt><trkpt lat="43.4786009" lon="10.6975342"><ele>97.5</ele><time>2026-04-18T11:46:01.449Z</time></trkpt><trkpt lat="43.4787088" lon="10.697442"><ele>98.0</ele><time>2026-04-18T11:46:02.443Z</time></trkpt><trkpt lat="43.4787992" lon="10.6973256"><ele>99.5</ele><time>2026-04-18T11:46:03.457Z</time></trkpt><trkpt lat="43.4788555" lon="10.6971779"><ele>101.0</ele><time>2026-04-18T11:46:04.454Z</time></trkpt><trkpt lat="43.4788905" lon="10.6970016"><ele>102.5</ele><time>2026-04-18T11:46:05.475Z</time></trkpt><trkpt lat="43.4789194" lon="10.6968014"><ele>104.0</ele><time>2026-04-18T11:46:06.455Z</time></trkpt><trkpt lat="43.4789504" lon="10.6965965"><ele>104.0</ele><time>2026-04-18T11:46:07.449Z</time></trkpt><trkpt lat="43.478988" lon="10.6963954"><ele>104.0</ele><time>2026-04-18T11:46:08.443Z</time></trkpt><trkpt lat="43.4790241" lon="10.696189"><ele>104.0</ele><time>2026-04-18T11:46:09.446Z</time></trkpt><trkpt lat="43.4790693" lon="10.6959865"><ele>104.33333333333333</ele><time>2026-04-18T11:46:10.466Z</time></trkpt><trkpt lat="43.4791177" lon="10.695776"><ele>104.66666666666666</ele><time>2026-04-18T11:46:11.45Z</time></trkpt><trkpt lat="43.4791809" lon="10.6955552"><ele>105.0</ele><time>2026-04-18T11:46:12.452Z</time></trkpt><trkpt lat="43.479253" lon="10.6953394"><ele>104.33333333333334</ele><time>2026-04-18T11:46:13.449Z</time></trkpt><trkpt lat="43.4793336" lon="10.6951395"><ele>103.66666666666667</ele><time>2026-04-18T11:46:14.449Z</time></trkpt><trkpt lat="43.4794263" lon="10.6949383"><ele>103.0</ele><time>2026-04-18T11:46:15.458Z</time></trkpt><trkpt lat="43.4795283" lon="10.694741"><ele>104.33333333333334</ele><time>2026-04-18T11:46:16.449Z</time></trkpt><trkpt lat="43.4796499" lon="10.6945481"><ele>105.66666666666666</ele><time>2026-04-18T11:46:17.462Z</time></trkpt><trkpt lat="43.479785" lon="10.69437"><ele>107.0</ele><time>2026-04-18T11:46:18.462Z</time></trkpt><trkpt lat="43.4799109" lon="10.6942034"><ele>107.0</ele><time>2026-04-18T11:46:19.464Z</time></trkpt><trkpt lat="43.4800284" lon="10.6940524"><ele>107.0</ele><time>2026-04-18T11:46:20.444Z</time></trkpt><trkpt lat="43.4801497" lon="10.6939429"><ele>107.0</ele><time>2026-04-18T11:46:21.454Z</time></trkpt><trkpt lat="43.4802846" lon="10.693848"><ele>107.0</ele><time>2026-04-18T11:46:22.461Z</time></trkpt><trkpt lat="43.4804091" lon="10.6937873"><ele>107.0</ele><time>2026-04-18T11:46:23.468Z</time></trkpt><trkpt lat="43.4805386" lon="10.6936817"><ele>107.0</ele><time>2026-04-18T11:46:24.454Z</time></trkpt><trkpt lat="43.4806494" lon="10.6935461"><ele>107.0</ele><time>2026-04-18T11:46:25.467Z</time></trkpt><trkpt lat="43.4807539" lon="10.693391"><ele>106.66666666666666</ele><time>2026-04-18T11:46:26.457Z</time></trkpt><trkpt lat="43.4808432" lon="10.6932292"><ele>106.33333333333334</ele><time>2026-04-18T11:46:27.459Z</time></trkpt><trkpt lat="43.4809195" lon="10.6930384"><ele>106.0</ele><time>2026-04-18T11:46:28.446Z</time></trkpt><trkpt lat="43.4809821" lon="10.6928356"><ele>106.33333333333334</ele><time>2026-04-18T11:46:29.449Z</time></trkpt><trkpt lat="43.4810222" lon="10.6926186"><ele>106.66666666666666</ele><time>2026-04-18T11:46:30.457Z</time></trkpt><trkpt lat="43.4810531" lon="10.6923894"><ele>107.0</ele><time>2026-04-18T11:46:31.448Z</time></trkpt><trkpt lat="43.4810774" lon="10.6921584"><ele>107.66666666666666</ele><time>2026-04-18T11:46:32.459Z</time></trkpt><trkpt lat="43.4811118" lon="10.6919223"><ele>108.33333333333334</ele><time>2026-04-18T11:46:33.454Z</time></trkpt><trkpt lat="43.481156" lon="10.6916885"><ele>109.0</ele><time>2026-04-18T11:46:34.452Z</time></trkpt><trkpt lat="43.4811971" lon="10.6914476"><ele>109.0</ele><time>2026-04-18T11:46:35.457Z</time></trkpt><trkpt lat="43.4812401" lon="10.6912009"><ele>109.0</ele><time>2026-04-18T11:46:36.455Z</time></trkpt><trkpt lat="43.4812867" lon="10.690953"><ele>109.0</ele><time>2026-04-18T11:46:37.457Z</time></trkpt><trkpt lat="43.4813309" lon="10.6907147"><ele>109.66666666666667</ele><time>2026-04-18T11:46:38.466Z</time></trkpt><trkpt lat="43.481374" lon="10.6904786"><ele>110.33333333333334</ele><time>2026-04-18T11:46:39.457Z</time></trkpt><trkpt lat="43.4814097" lon="10.6902427"><ele>111.0</ele><time>2026-04-18T11:46:40.471Z</time></trkpt><trkpt lat="43.4814318" lon="10.6900063"><ele>111.0</ele><time>2026-04-18T11:46:41.443Z</time></trkpt><trkpt lat="43.481433" lon="10.6897622"><ele>111.0</ele><time>2026-04-18T11:46:42.453Z</time></trkpt><trkpt lat="43.4814211" lon="10.6895144"><ele>111.0</ele><time>2026-04-18T11:46:43.447Z</time></trkpt><trkpt lat="43.4813912" lon="10.6892612"><ele>112.0</ele><time>2026-04-18T11:46:44.46Z</time></trkpt><trkpt lat="43.4813733" lon="10.6890195"><ele>113.0</ele><time>2026-04-18T11:46:45.447Z</time></trkpt><trkpt lat="43.4813482" lon="10.6887721"><ele>114.0</ele><time>2026-04-18T11:46:46.454Z</time></trkpt><trkpt lat="43.4813332" lon="10.6885334"><ele>115.33333333333334</ele><time>2026-04-18T11:46:47.457Z</time></trkpt><trkpt lat="43.4813224" lon="10.6882951"><ele>116.66666666666667</ele><time>2026-04-18T11:46:48.46Z</time></trkpt><trkpt lat="43.4813322" lon="10.6880571"><ele>118.0</ele><time>2026-04-18T11:46:49.453Z</time></trkpt><trkpt lat="43.4813399" lon="10.6878239"><ele>117.66666666666667</ele><time>2026-04-18T11:46:50.462Z</time></trkpt><trkpt lat="43.4813601" lon="10.6875882"><ele>117.33333333333334</ele><time>2026-04-18T11:46:51.455Z</time></trkpt><trkpt lat="43.4813971" lon="10.6873439"><ele>117.0</ele><time>2026-04-18T11:46:52.485Z</time></trkpt><trkpt lat="43.4814447" lon="10.687101"><ele>116.0</ele><time>2026-04-18T11:46:53.458Z</time></trkpt><trkpt lat="43.4814895" lon="10.6868415"><ele>115.0</ele><time>2026-04-18T11:46:54.452Z</time></trkpt><trkpt lat="43.4815286" lon="10.6865938"><ele>114.0</ele><time>2026-04-18T11:46:55.46Z</time></trkpt><trkpt lat="43.4815778" lon="10.6863521"><ele>114.0</ele><time>2026-04-18T11:46:56.479Z</time></trkpt><trkpt lat="43.4816353" lon="10.6861322"><ele>114.0</ele><time>2026-04-18T11:46:57.468Z</time></trkpt><trkpt lat="43.4816887" lon="10.6859243"><ele>114.0</ele><time>2026-04-18T11:46:58.465Z</time></trkpt><trkpt lat="43.4817247" lon="10.6857335"><ele>113.75</ele><time>2026-04-18T11:46:59.456Z</time></trkpt><trkpt lat="43.4817331" lon="10.685531"><ele>113.5</ele><time>2026-04-18T11:47:00.455Z</time></trkpt><trkpt lat="43.4817003" lon="10.6853328"><ele>113.25</ele><time>2026-04-18T11:47:01.46Z</time></trkpt><trkpt lat="43.4816708" lon="10.6851254"><ele>113.0</ele><time>2026-04-18T11:47:02.455Z</time></trkpt><trkpt lat="43.4816368" lon="10.6848991"><ele>113.66666666666666</ele><time>2026-04-18T11:47:03.466Z</time></trkpt><trkpt lat="43.4816064" lon="10.6846664"><ele>114.33333333333334</ele><time>2026-04-18T11:47:04.458Z</time></trkpt><trkpt lat="43.481561" lon="10.6844547"><ele>115.0</ele><time>2026-04-18T11:47:05.476Z</time></trkpt><trkpt lat="43.4815111" lon="10.6842498"><ele>115.33333333333334</ele><time>2026-04-18T11:47:06.464Z</time></trkpt><trkpt lat="43.4814589" lon="10.6840464"><ele>115.66666666666666</ele><time>2026-04-18T11:47:07.446Z</time></trkpt><trkpt lat="43.4813965" lon="10.6838597"><ele>116.0</ele><time>2026-04-18T11:47:08.458Z</time></trkpt><trkpt lat="43.481309" lon="10.6836755"><ele>116.0</ele><time>2026-04-18T11:47:09.464Z</time></trkpt><trkpt lat="43.4812274" lon="10.6834793"><ele>116.0</ele><time>2026-04-18T11:47:10.459Z</time></trkpt><trkpt lat="43.4811602" lon="10.6832783"><ele>116.0</ele><time>2026-04-18T11:47:11.457Z</time></trkpt><trkpt lat="43.4811118" lon="10.6830804"><ele>116.0</ele><time>2026-04-18T11:47:12.47Z</time></trkpt><trkpt lat="43.4811077" lon="10.6828634"><ele>116.0</ele><time>2026-04-18T11:47:13.47Z</time></trkpt><trkpt lat="43.4811421" lon="10.6826251"><ele>116.0</ele><time>2026-04-18T11:47:14.468Z</time></trkpt><trkpt lat="43.4811673" lon="10.6823779"><ele>116.66666666666666</ele><time>2026-04-18T11:47:15.448Z</time></trkpt><trkpt lat="43.481196" lon="10.6821292"><ele>117.33333333333334</ele><time>2026-04-18T11:47:16.462Z</time></trkpt><trkpt lat="43.4812163" lon="10.6818877"><ele>118.0</ele><time>2026-04-18T11:47:17.467Z</time></trkpt><trkpt lat="43.4812331" lon="10.6816434"><ele>118.33333333333334</ele><time>2026-04-18T11:47:18.469Z</time></trkpt><trkpt lat="43.4812473" lon="10.6813897"><ele>118.66666666666666</ele><time>2026-04-18T11:47:19.466Z</time></trkpt><trkpt lat="43.4812608" lon="10.6811335"><ele>119.0</ele><time>2026-04-18T11:47:20.468Z</time></trkpt><trkpt lat="43.4812701" lon="10.6808787"><ele>119.0</ele><time>2026-04-18T11:47:21.472Z</time></trkpt><trkpt lat="43.481287" lon="10.6806316"><ele>119.0</ele><time>2026-04-18T11:47:22.457Z</time></trkpt><trkpt lat="43.4812977" lon="10.6803811"><ele>119.0</ele><time>2026-04-18T11:47:23.478Z</time></trkpt><trkpt lat="43.4813139" lon="10.6801276"><ele>119.66666666666666</ele><time>2026-04-18T11:47:24.462Z</time></trkpt><trkpt lat="43.4813272" lon="10.6798768"><ele>120.33333333333334</ele><time>2026-04-18T11:47:25.479Z</time></trkpt><trkpt lat="43.4813374" lon="10.6796329"><ele>121.0</ele><time>2026-04-18T11:47:26.453Z</time></trkpt><trkpt lat="43.4813486" lon="10.6793875"><ele>121.66666666666667</ele><time>2026-04-18T11:47:27.45Z</time></trkpt><trkpt lat="43.4813632" lon="10.6791468"><ele>122.33333333333334</ele><time>2026-04-18T11:47:28.458Z</time></trkpt><trkpt lat="43.4813756" lon="10.6789207"><ele>123.0</ele><time>2026-04-18T11:47:29.459Z</time></trkpt><trkpt lat="43.4813899" lon="10.6786992"><ele>123.66666666666666</ele><time>2026-04-18T11:47:30.459Z</time></trkpt><trkpt lat="43.4814058" lon="10.6784773"><ele>124.33333333333333</ele><time>2026-04-18T11:47:31.449Z</time></trkpt><trkpt lat="43.4814283" lon="10.6782612"><ele>125.0</ele><time>2026-04-18T11:47:32.445Z</time></trkpt><trkpt lat="43.4814641" lon="10.6780429"><ele>125.0</ele><time>2026-04-18T11:47:33.455Z</time></trkpt><trkpt lat="43.4815203" lon="10.6778358"><ele>125.0</ele><time>2026-04-18T11:47:34.456Z</time></trkpt><trkpt lat="43.4815844" lon="10.6776285"><ele>125.0</ele><time>2026-04-18T11:47:35.453Z</time></trkpt><trkpt lat="43.4816521" lon="10.6774092"><ele>125.66666666666666</ele><time>2026-04-18T11:47:36.447Z</time></trkpt><trkpt lat="43.4817251" lon="10.6771894"><ele>126.33333333333334</ele><time>2026-04-18T11:47:37.456Z</time></trkpt><trkpt lat="43.4817964" lon="10.6769565"><ele>127.0</ele><time>2026-04-18T11:47:38.437Z</time></trkpt><trkpt lat="43.4818694" lon="10.6767237"><ele>128.0</ele><time>2026-04-18T11:47:39.451Z</time></trkpt><trkpt lat="43.4819437" lon="10.6764827"><ele>129.0</ele><time>2026-04-18T11:47:40.444Z</time></trkpt><trkpt lat="43.482015" lon="10.6762322"><ele>130.0</ele><time>2026-04-18T11:47:41.448Z</time></trkpt><trkpt lat="43.4820906" lon="10.675987"><ele>131.33333333333334</ele><time>2026-04-18T11:47:42.442Z</time></trkpt><trkpt lat="43.4821585" lon="10.6757594"><ele>132.66666666666666</ele><time>2026-04-18T11:47:43.454Z</time></trkpt><trkpt lat="43.4822224" lon="10.6755428"><ele>134.0</ele><time>2026-04-18T11:47:44.452Z</time></trkpt><trkpt lat="43.4822866" lon="10.6753299"><ele>135.66666666666666</ele><time>2026-04-18T11:47:45.445Z</time></trkpt><trkpt lat="43.4823423" lon="10.6751154"><ele>137.33333333333334</ele><time>2026-04-18T11:47:46.449Z</time></trkpt><trkpt lat="43.4823877" lon="10.6749006"><ele>139.0</ele><time>2026-04-18T11:47:47.444Z</time></trkpt><trkpt lat="43.4824006" lon="10.674694"><ele>139.0</ele><time>2026-04-18T11:47:48.435Z</time></trkpt><trkpt lat="43.4823848" lon="10.6744927"><ele>139.0</ele><time>2026-04-18T11:47:49.45Z</time></trkpt><trkpt lat="43.4823532" lon="10.6743062"><ele>139.0</ele><time>2026-04-18T11:47:50.443Z</time></trkpt><trkpt lat="43.4822994" lon="10.6741198"><ele>139.0</ele><time>2026-04-18T11:47:51.449Z</time></trkpt><trkpt lat="43.482235" lon="10.6739467"><ele>138.6</ele><time>2026-04-18T11:47:52.442Z</time></trkpt><trkpt lat="43.4821926" lon="10.6737908"><ele>138.2</ele><time>2026-04-18T11:47:53.445Z</time></trkpt><trkpt lat="43.4821722" lon="10.6736601"><ele>137.79999999999998</ele><time>2026-04-18T11:47:54.446Z</time></trkpt><trkpt lat="43.4821704" lon="10.6735336"><ele>137.4</ele><time>2026-04-18T11:47:55.446Z</time></trkpt><trkpt lat="43.4822115" lon="10.6734001"><ele>137.0</ele><time>2026-04-18T11:47:56.447Z</time></trkpt><trkpt lat="43.4822875" lon="10.6732783"><ele>135.75</ele><time>2026-04-18T11:47:57.445Z</time></trkpt><trkpt lat="43.482389" lon="10.6731775"><ele>134.5</ele><time>2026-04-18T11:47:58.477Z</time></trkpt><trkpt lat="43.4825094" lon="10.6730731"><ele>133.25</ele><time>2026-04-18T11:47:59.449Z</time></trkpt><trkpt lat="43.4826331" lon="10.6729825"><ele>132.0</ele><time>2026-04-18T11:48:00.443Z</time></trkpt><trkpt lat="43.4827536" lon="10.6729004"><ele>132.0</ele><time>2026-04-18T11:48:01.445Z</time></trkpt><trkpt lat="43.4828786" lon="10.6728391"><ele>132.0</ele><time>2026-04-18T11:48:02.436Z</time></trkpt><trkpt lat="43.4830108" lon="10.6727951"><ele>132.0</ele><time>2026-04-18T11:48:03.435Z</time></trkpt><trkpt lat="43.4831533" lon="10.6727626"><ele>132.0</ele><time>2026-04-18T11:48:04.438Z</time></trkpt><trkpt lat="43.4833038" lon="10.672732"><ele>130.75</ele><time>2026-04-18T11:48:05.436Z</time></trkpt><trkpt lat="43.4834502" lon="10.6726907"><ele>129.5</ele><time>2026-04-18T11:48:06.446Z</time></trkpt><trkpt lat="43.4835767" lon="10.6726499"><ele>128.25</ele><time>2026-04-18T11:48:07.443Z</time></trkpt><trkpt lat="43.4836816" lon="10.6726094"><ele>127.0</ele><time>2026-04-18T11:48:08.442Z</time></trkpt><trkpt lat="43.4837669" lon="10.672541"><ele>126.19999999999999</ele><time>2026-04-18T11:48:09.438Z</time></trkpt><trkpt lat="43.4838428" lon="10.6724578"><ele>125.39999999999999</ele><time>2026-04-18T11:48:10.449Z</time></trkpt><trkpt lat="43.4839101" lon="10.67237"><ele>124.60000000000001</ele><time>2026-04-18T11:48:11.439Z</time></trkpt><trkpt lat="43.4839852" lon="10.6722875"><ele>123.80000000000001</ele><time>2026-04-18T11:48:12.437Z</time></trkpt><trkpt lat="43.4840656" lon="10.6722005"><ele>123.0</ele><time>2026-04-18T11:48:13.436Z</time></trkpt><trkpt lat="43.4841395" lon="10.6721142"><ele>123.0</ele><time>2026-04-18T11:48:14.451Z</time></trkpt><trkpt lat="43.4842228" lon="10.6720234"><ele>123.00000000000001</ele><time>2026-04-18T11:48:15.44Z</time></trkpt><trkpt lat="43.484303" lon="10.671932"><ele>123.00000000000001</ele><time>2026-04-18T11:48:16.443Z</time></trkpt><trkpt lat="43.4843817" lon="10.6718244"><ele>123.0</ele><time>2026-04-18T11:48:17.45Z</time></trkpt><trkpt lat="43.4844511" lon="10.6717229"><ele>123.0</ele><time>2026-04-18T11:48:18.453Z</time></trkpt><trkpt lat="43.4845192" lon="10.6716155"><ele>122.2</ele><time>2026-04-18T11:48:19.448Z</time></trkpt><trkpt lat="43.4845677" lon="10.6714971"><ele>121.4</ele><time>2026-04-18T11:48:20.44Z</time></trkpt><trkpt lat="43.4845982" lon="10.6713782"><ele>120.60000000000001</ele><time>2026-04-18T11:48:21.444Z</time></trkpt><trkpt lat="43.4846197" lon="10.6712582"><ele>119.80000000000001</ele><time>2026-04-18T11:48:22.438Z</time></trkpt><trkpt lat="43.4846173" lon="10.6711236"><ele>119.0</ele><time>2026-04-18T11:48:23.443Z</time></trkpt><trkpt lat="43.4846181" lon="10.670986"><ele>118.99999999999999</ele><time>2026-04-18T11:48:24.444Z</time></trkpt><trkpt lat="43.4846115" lon="10.6708508"><ele>119.0</ele><time>2026-04-18T11:48:25.471Z</time></trkpt><trkpt lat="43.4846072" lon="10.6707526"><ele>119.0</ele><time>2026-04-18T11:48:26.435Z</time></trkpt><trkpt lat="43.4846027" lon="10.6706159"><ele>119.0</ele><time>2026-04-18T11:48:28.433Z</time></trkpt><trkpt lat="43.4845847" lon="10.6707184"><ele>118.99999999999999</ele><time>2026-04-18T11:48:35.451Z</time></trkpt><trkpt lat="43.4846012" lon="10.6708356"><ele>119.0</ele><time>2026-04-18T11:48:43.463Z</time></trkpt><trkpt lat="43.4846047" lon="10.6709282"><ele>119.0</ele><time>2026-04-18T11:48:44.44Z</time></trkpt><trkpt lat="43.4845977" lon="10.6710303"><ele>119.0</ele><time>2026-04-18T11:48:45.449Z</time></trkpt><trkpt lat="43.4845972" lon="10.6711507"><ele>119.0</ele><time>2026-04-18T11:48:46.439Z</time></trkpt><trkpt lat="43.4845716" lon="10.6713054"><ele>119.0</ele><time>2026-04-18T11:48:47.446Z</time></trkpt><trkpt lat="43.4845433" lon="10.6714586"><ele>119.0</ele><time>2026-04-18T11:48:48.443Z</time></trkpt><trkpt lat="43.4845" lon="10.671618"><ele>119.0</ele><time>2026-04-18T11:48:49.465Z</time></trkpt><trkpt lat="43.4844227" lon="10.6717682"><ele>119.0</ele><time>2026-04-18T11:48:50.457Z</time></trkpt><trkpt lat="43.4843139" lon="10.6719018"><ele>119.0</ele><time>2026-04-18T11:48:51.442Z</time></trkpt><trkpt lat="43.4841974" lon="10.672041"><ele>119.0</ele><time>2026-04-18T11:48:52.437Z</time></trkpt><trkpt lat="43.4840725" lon="10.6721788"><ele>120.33333333333333</ele><time>2026-04-18T11:48:53.46Z</time></trkpt><trkpt lat="43.4839474" lon="10.6723231"><ele>121.66666666666666</ele><time>2026-04-18T11:48:54.467Z</time></trkpt><trkpt lat="43.4838221" lon="10.6724585"><ele>123.0</ele><time>2026-04-18T11:48:55.446Z</time></trkpt><trkpt lat="43.4837021" lon="10.6725676"><ele>124.0</ele><time>2026-04-18T11:48:56.441Z</time></trkpt><trkpt lat="43.4835683" lon="10.6726538"><ele>125.0</ele><time>2026-04-18T11:48:57.438Z</time></trkpt><trkpt lat="43.4834301" lon="10.6727143"><ele>126.0</ele><time>2026-04-18T11:48:58.435Z</time></trkpt><trkpt lat="43.4832851" lon="10.6727387"><ele>127.0</ele><time>2026-04-18T11:48:59.438Z</time></trkpt><trkpt lat="43.4831214" lon="10.6727607"><ele>128.33333333333334</ele><time>2026-04-18T11:49:00.449Z</time></trkpt><trkpt lat="43.4829659" lon="10.6728004"><ele>129.66666666666666</ele><time>2026-04-18T11:49:01.451Z</time></trkpt><trkpt lat="43.4828089" lon="10.6728516"><ele>131.0</ele><time>2026-04-18T11:49:02.439Z</time></trkpt><trkpt lat="43.4826722" lon="10.6729332"><ele>131.25</ele><time>2026-04-18T11:49:03.447Z</time></trkpt><trkpt lat="43.4825446" lon="10.6730183"><ele>131.5</ele><time>2026-04-18T11:49:04.44Z</time></trkpt><trkpt lat="43.4824307" lon="10.6731073"><ele>131.75</ele><time>2026-04-18T11:49:05.444Z</time></trkpt><trkpt lat="43.4823335" lon="10.6732049"><ele>132.0</ele><time>2026-04-18T11:49:06.449Z</time></trkpt><trkpt lat="43.482248" lon="10.6733195"><ele>132.0</ele><time>2026-04-18T11:49:07.447Z</time></trkpt><trkpt lat="43.4821857" lon="10.6734382"><ele>132.0</ele><time>2026-04-18T11:49:08.44Z</time></trkpt><trkpt lat="43.4821536" lon="10.6735584"><ele>132.0</ele><time>2026-04-18T11:49:09.446Z</time></trkpt><trkpt lat="43.4821564" lon="10.6736685"><ele>132.0</ele><time>2026-04-18T11:49:10.442Z</time></trkpt><trkpt lat="43.4821556" lon="10.6737586"><ele>132.0</ele><time>2026-04-18T11:49:11.442Z</time></trkpt><trkpt lat="43.4821216" lon="10.6738911"><ele>132.0</ele><time>2026-04-18T11:49:13.441Z</time></trkpt><trkpt lat="43.482058" lon="10.6738689"><ele>132.6</ele><time>2026-04-18T11:49:14.454Z</time></trkpt><trkpt lat="43.4819948" lon="10.6738441"><ele>133.2</ele><time>2026-04-18T11:49:15.454Z</time></trkpt><trkpt lat="43.481913" lon="10.6738079"><ele>133.8</ele><time>2026-04-18T11:49:16.456Z</time></trkpt><trkpt lat="43.4818168" lon="10.6737763"><ele>134.4</ele><time>2026-04-18T11:49:17.447Z</time></trkpt><trkpt lat="43.4817169" lon="10.6737261"><ele>135.0</ele><time>2026-04-18T11:49:18.469Z</time></trkpt><trkpt lat="43.4816265" lon="10.6736501"><ele>135.4</ele><time>2026-04-18T11:49:19.447Z</time></trkpt><trkpt lat="43.4815445" lon="10.6735504"><ele>135.8</ele><time>2026-04-18T11:49:20.442Z</time></trkpt><trkpt lat="43.4814739" lon="10.6734357"><ele>136.2</ele><time>2026-04-18T11:49:21.447Z</time></trkpt><trkpt lat="43.4814183" lon="10.6733111"><ele>136.6</ele><time>2026-04-18T11:49:22.446Z</time></trkpt><trkpt lat="43.4813706" lon="10.6731917"><ele>137.0</ele><time>2026-04-18T11:49:23.47Z</time></trkpt><trkpt lat="43.4813263" lon="10.6730479"><ele>137.0</ele><time>2026-04-18T11:49:24.451Z</time></trkpt><trkpt lat="43.481276" lon="10.6729061"><ele>137.0</ele><time>2026-04-18T11:49:25.444Z</time></trkpt><trkpt lat="43.4812308" lon="10.6727608"><ele>137.0</ele><time>2026-04-18T11:49:26.449Z</time></trkpt><trkpt lat="43.481189" lon="10.6726022"><ele>137.0</ele><time>2026-04-18T11:49:27.44Z</time></trkpt><trkpt lat="43.4811439" lon="10.6724417"><ele>138.75</ele><time>2026-04-18T11:49:28.438Z</time></trkpt><trkpt lat="43.4811064" lon="10.6722638"><ele>140.5</ele><time>2026-04-18T11:49:29.442Z</time></trkpt><trkpt lat="43.4810673" lon="10.6720854"><ele>142.25</ele><time>2026-04-18T11:49:30.476Z</time></trkpt><trkpt lat="43.4810305" lon="10.6718996"><ele>144.0</ele><time>2026-04-18T11:49:31.446Z</time></trkpt><trkpt lat="43.4809855" lon="10.6717358"><ele>145.6</ele><time>2026-04-18T11:49:32.451Z</time></trkpt><trkpt lat="43.4809435" lon="10.6715719"><ele>147.2</ele><time>2026-04-18T11:49:33.449Z</time></trkpt><trkpt lat="43.4809079" lon="10.6714316"><ele>148.79999999999998</ele><time>2026-04-18T11:49:34.45Z</time></trkpt><trkpt lat="43.4808757" lon="10.6712971"><ele>150.4</ele><time>2026-04-18T11:49:35.475Z</time></trkpt><trkpt lat="43.4808614" lon="10.6711658"><ele>152.0</ele><time>2026-04-18T11:49:36.445Z</time></trkpt><trkpt lat="43.4808714" lon="10.6710367"><ele>153.33333333333331</ele><time>2026-04-18T11:49:37.46Z</time></trkpt><trkpt lat="43.4808987" lon="10.6709147"><ele>154.66666666666666</ele><time>2026-04-18T11:49:38.451Z</time></trkpt><trkpt lat="43.4809313" lon="10.6708024"><ele>156.0</ele><time>2026-04-18T11:49:39.453Z</time></trkpt><trkpt lat="43.4809471" lon="10.6706741"><ele>157.33333333333334</ele><time>2026-04-18T11:49:40.454Z</time></trkpt><trkpt lat="43.4809594" lon="10.6705489"><ele>158.66666666666669</ele><time>2026-04-18T11:49:41.453Z</time></trkpt><trkpt lat="43.4809538" lon="10.6704388"><ele>160.0</ele><time>2026-04-18T11:49:42.441Z</time></trkpt><trkpt lat="43.4809272" lon="10.6703425"><ele>159.6</ele><time>2026-04-18T11:49:43.444Z</time></trkpt><trkpt lat="43.4808808" lon="10.6702376"><ele>159.2</ele><time>2026-04-18T11:49:44.458Z</time></trkpt><trkpt lat="43.4808209" lon="10.6701444"><ele>158.8</ele><time>2026-04-18T11:49:45.445Z</time></trkpt><trkpt lat="43.4807465" lon="10.6700475"><ele>158.4</ele><time>2026-04-18T11:49:46.448Z</time></trkpt><trkpt lat="43.4806773" lon="10.6699418"><ele>158.0</ele><time>2026-04-18T11:49:47.451Z</time></trkpt><trkpt lat="43.4806052" lon="10.6698141"><ele>158.0</ele><time>2026-04-18T11:49:48.449Z</time></trkpt><trkpt lat="43.4805185" lon="10.669674"><ele>158.0</ele><time>2026-04-18T11:49:49.454Z</time></trkpt><trkpt lat="43.4804275" lon="10.6695232"><ele>158.0</ele><time>2026-04-18T11:49:50.443Z</time></trkpt><trkpt lat="43.4803311" lon="10.6693667"><ele>158.0</ele><time>2026-04-18T11:49:51.449Z</time></trkpt><trkpt lat="43.4802442" lon="10.6692064"><ele>157.25</ele><time>2026-04-18T11:49:52.434Z</time></trkpt><trkpt lat="43.4801597" lon="10.6690588"><ele>156.5</ele><time>2026-04-18T11:49:53.442Z</time></trkpt><trkpt lat="43.4800793" lon="10.6689188"><ele>155.75</ele><time>2026-04-18T11:49:54.453Z</time></trkpt><trkpt lat="43.4800054" lon="10.668771"><ele>155.0</ele><time>2026-04-18T11:49:55.444Z</time></trkpt><trkpt lat="43.4799434" lon="10.6686312"><ele>155.2</ele><time>2026-04-18T11:49:56.461Z</time></trkpt><trkpt lat="43.4798848" lon="10.6685207"><ele>155.4</ele><time>2026-04-18T11:49:57.451Z</time></trkpt><trkpt lat="43.4798155" lon="10.6684207"><ele>155.6</ele><time>2026-04-18T11:49:58.446Z</time></trkpt><trkpt lat="43.4797282" lon="10.668355"><ele>155.8</ele><time>2026-04-18T11:49:59.445Z</time></trkpt><trkpt lat="43.4796339" lon="10.6683149"><ele>156.0</ele><time>2026-04-18T11:50:00.443Z</time></trkpt><trkpt lat="43.4795423" lon="10.6683085"><ele>156.0</ele><time>2026-04-18T11:50:01.453Z</time></trkpt><trkpt lat="43.4794616" lon="10.6683552"><ele>156.0</ele><time>2026-04-18T11:50:02.448Z</time></trkpt><trkpt lat="43.479387" lon="10.6684078"><ele>156.0</ele><time>2026-04-18T11:50:03.449Z</time></trkpt><trkpt lat="43.479318" lon="10.6684724"><ele>156.0</ele><time>2026-04-18T11:50:04.456Z</time></trkpt><trkpt lat="43.4792421" lon="10.6685186"><ele>156.0</ele><time>2026-04-18T11:50:05.453Z</time></trkpt><trkpt lat="43.4791678" lon="10.6685663"><ele>156.0</ele><time>2026-04-18T11:50:06.459Z</time></trkpt><trkpt lat="43.4790907" lon="10.6685799"><ele>156.0</ele><time>2026-04-18T11:50:07.454Z</time></trkpt><trkpt lat="43.4790073" lon="10.6685678"><ele>156.0</ele><time>2026-04-18T11:50:08.462Z</time></trkpt><trkpt lat="43.4789317" lon="10.6685517"><ele>156.0</ele><time>2026-04-18T11:50:09.448Z</time></trkpt><trkpt lat="43.4788406" lon="10.6685422"><ele>156.0</ele><time>2026-04-18T11:50:10.451Z</time></trkpt><trkpt lat="43.4787439" lon="10.6685251"><ele>156.0</ele><time>2026-04-18T11:50:11.449Z</time></trkpt><trkpt lat="43.4786242" lon="10.6684944"><ele>156.0</ele><time>2026-04-18T11:50:12.445Z</time></trkpt><trkpt lat="43.4784944" lon="10.6684696"><ele>156.0</ele><time>2026-04-18T11:50:13.443Z</time></trkpt><trkpt lat="43.4783655" lon="10.6684376"><ele>156.0</ele><time>2026-04-18T11:50:14.455Z</time></trkpt><trkpt lat="43.4782371" lon="10.6683963"><ele>156.0</ele><time>2026-04-18T11:50:15.45Z</time></trkpt><trkpt lat="43.4781224" lon="10.66836"><ele>156.0</ele><time>2026-04-18T11:50:16.452Z</time></trkpt><trkpt lat="43.4780088" lon="10.6683398"><ele>156.0</ele><time>2026-04-18T11:50:17.456Z</time></trkpt><trkpt lat="43.4778939" lon="10.6683417"><ele>156.0</ele><time>2026-04-18T11:50:18.442Z</time></trkpt><trkpt lat="43.4777904" lon="10.6683631"><ele>156.0</ele><time>2026-04-18T11:50:19.461Z</time></trkpt><trkpt lat="43.4776883" lon="10.6683859"><ele>156.0</ele><time>2026-04-18T11:50:20.442Z</time></trkpt><trkpt lat="43.4775841" lon="10.6684095"><ele>156.75</ele><time>2026-04-18T11:50:21.463Z</time></trkpt><trkpt lat="43.4774724" lon="10.668443"><ele>157.5</ele><time>2026-04-18T11:50:22.45Z</time></trkpt><trkpt lat="43.4773512" lon="10.6684708"><ele>158.25</ele><time>2026-04-18T11:50:23.448Z</time></trkpt><trkpt lat="43.4772285" lon="10.6685004"><ele>159.0</ele><time>2026-04-18T11:50:24.442Z</time></trkpt><trkpt lat="43.4771035" lon="10.6685351"><ele>158.25</ele><time>2026-04-18T11:50:25.442Z</time></trkpt><trkpt lat="43.4769664" lon="10.6685671"><ele>157.5</ele><time>2026-04-18T11:50:26.445Z</time></trkpt><trkpt lat="43.4768227" lon="10.6686033"><ele>156.75</ele><time>2026-04-18T11:50:27.454Z</time></trkpt><trkpt lat="43.4766811" lon="10.6686506"><ele>156.0</ele><time>2026-04-18T11:50:28.451Z</time></trkpt><trkpt lat="43.4765401" lon="10.6686931"><ele>156.0</ele><time>2026-04-18T11:50:29.439Z</time></trkpt><trkpt lat="43.476402" lon="10.6687267"><ele>156.0</ele><time>2026-04-18T11:50:30.451Z</time></trkpt><trkpt lat="43.476266" lon="10.6687661"><ele>156.0</ele><time>2026-04-18T11:50:31.449Z</time></trkpt><trkpt lat="43.4761301" lon="10.6688101"><ele>156.0</ele><time>2026-04-18T11:50:32.443Z</time></trkpt><trkpt lat="43.4759988" lon="10.6688598"><ele>156.0</ele><time>2026-04-18T11:50:33.441Z</time></trkpt><trkpt lat="43.4758658" lon="10.6689027"><ele>156.0</ele><time>2026-04-18T11:50:34.455Z</time></trkpt><trkpt lat="43.4757327" lon="10.6689416"><ele>156.0</ele><time>2026-04-18T11:50:35.438Z</time></trkpt><trkpt lat="43.4755984" lon="10.6689717"><ele>156.0</ele><time>2026-04-18T11:50:36.439Z</time></trkpt><trkpt lat="43.4754642" lon="10.6689827"><ele>158.2</ele><time>2026-04-18T11:50:37.436Z</time></trkpt><trkpt lat="43.4753374" lon="10.6689544"><ele>160.39999999999998</ele><time>2026-04-18T11:50:38.452Z</time></trkpt><trkpt lat="43.4752417" lon="10.6688903"><ele>162.6</ele><time>2026-04-18T11:50:39.451Z</time></trkpt><trkpt lat="43.4751477" lon="10.6688061"><ele>164.79999999999998</ele><time>2026-04-18T11:50:40.442Z</time></trkpt><trkpt lat="43.4750774" lon="10.6687307"><ele>167.0</ele><time>2026-04-18T11:50:41.441Z</time></trkpt><trkpt lat="43.4750212" lon="10.6686652"><ele>167.0</ele><time>2026-04-18T11:50:42.453Z</time></trkpt><trkpt lat="43.4749606" lon="10.6686102"><ele>167.0</ele><time>2026-04-18T11:50:43.442Z</time></trkpt><trkpt lat="43.474896" lon="10.6685568"><ele>167.0</ele><time>2026-04-18T11:50:44.446Z</time></trkpt><trkpt lat="43.474831" lon="10.6685066"><ele>167.0</ele><time>2026-04-18T11:50:45.449Z</time></trkpt><trkpt lat="43.474759" lon="10.668462"><ele>167.0</ele><time>2026-04-18T11:50:46.449Z</time></trkpt><trkpt lat="43.4746782" lon="10.6684299"><ele>167.0</ele><time>2026-04-18T11:50:47.45Z</time></trkpt><trkpt lat="43.4745894" lon="10.6683931"><ele>167.8</ele><time>2026-04-18T11:50:48.442Z</time></trkpt><trkpt lat="43.4744967" lon="10.6683546"><ele>168.6</ele><time>2026-04-18T11:50:49.447Z</time></trkpt><trkpt lat="43.4743984" lon="10.6683075"><ele>169.4</ele><time>2026-04-18T11:50:50.448Z</time></trkpt><trkpt lat="43.4742936" lon="10.6682538"><ele>170.20000000000002</ele><time>2026-04-18T11:50:51.441Z</time></trkpt><trkpt lat="43.4741895" lon="10.6681977"><ele>171.0</ele><time>2026-04-18T11:50:52.444Z</time></trkpt><trkpt lat="43.474106" lon="10.6681708"><ele>171.0</ele><time>2026-04-18T11:50:53.451Z</time></trkpt><trkpt lat="43.4740289" lon="10.668137"><ele>171.0</ele><time>2026-04-18T11:50:54.454Z</time></trkpt><trkpt lat="43.4739678" lon="10.6681052"><ele>171.0</ele><time>2026-04-18T11:50:55.447Z</time></trkpt><trkpt lat="43.4738579" lon="10.6680295"><ele>171.0</ele><time>2026-04-18T11:50:57.45Z</time></trkpt><trkpt lat="43.473736" lon="10.667963"><ele>171.0</ele><time>2026-04-18T11:50:59.446Z</time></trkpt><trkpt lat="43.4736669" lon="10.6679282"><ele>171.66666666666666</ele><time>2026-04-18T11:51:00.438Z</time></trkpt><trkpt lat="43.4735875" lon="10.6678985"><ele>172.33333333333334</ele><time>2026-04-18T11:51:01.437Z</time></trkpt><trkpt lat="43.4735082" lon="10.6678596"><ele>173.0</ele><time>2026-04-18T11:51:02.441Z</time></trkpt><trkpt lat="43.4734309" lon="10.6678119"><ele>173.66666666666669</ele><time>2026-04-18T11:51:03.452Z</time></trkpt><trkpt lat="43.4733524" lon="10.667772"><ele>174.33333333333334</ele><time>2026-04-18T11:51:04.45Z</time></trkpt><trkpt lat="43.4732808" lon="10.6677142"><ele>175.0</ele><time>2026-04-18T11:51:05.457Z</time></trkpt><trkpt lat="43.4732207" lon="10.6676608"><ele>175.83333333333334</ele><time>2026-04-18T11:51:06.456Z</time></trkpt><trkpt lat="43.4731678" lon="10.6675795"><ele>176.66666666666669</ele><time>2026-04-18T11:51:07.441Z</time></trkpt><trkpt lat="43.4731166" lon="10.6674723"><ele>177.5</ele><time>2026-04-18T11:51:08.447Z</time></trkpt><trkpt lat="43.4730741" lon="10.6673761"><ele>178.33333333333334</ele><time>2026-04-18T11:51:09.44Z</time></trkpt><trkpt lat="43.4730331" lon="10.6672803"><ele>179.16666666666666</ele><time>2026-04-18T11:51:10.45Z</time></trkpt><trkpt lat="43.4730033" lon="10.6671972"><ele>180.0</ele><time>2026-04-18T11:51:11.449Z</time></trkpt><trkpt lat="43.4729617" lon="10.6671012"><ele>180.8</ele><time>2026-04-18T11:51:12.438Z</time></trkpt><trkpt lat="43.4729084" lon="10.6670317"><ele>181.6</ele><time>2026-04-18T11:51:13.446Z</time></trkpt><trkpt lat="43.4728358" lon="10.6669598"><ele>182.39999999999998</ele><time>2026-04-18T11:51:14.443Z</time></trkpt><trkpt lat="43.4727488" lon="10.6668821"><ele>183.2</ele><time>2026-04-18T11:51:15.475Z</time></trkpt><trkpt lat="43.4726489" lon="10.6668147"><ele>184.0</ele><time>2026-04-18T11:51:16.454Z</time></trkpt><trkpt lat="43.4725495" lon="10.6667379"><ele>184.75</ele><time>2026-04-18T11:51:17.447Z</time></trkpt><trkpt lat="43.4724442" lon="10.666659"><ele>185.5</ele><time>2026-04-18T11:51:18.441Z</time></trkpt><trkpt lat="43.4723338" lon="10.6665763"><ele>186.25</ele><time>2026-04-18T11:51:19.455Z</time></trkpt><trkpt lat="43.4722217" lon="10.6664839"><ele>187.0</ele><time>2026-04-18T11:51:20.436Z</time></trkpt><trkpt lat="43.4721097" lon="10.6663942"><ele>186.75</ele><time>2026-04-18T11:51:21.453Z</time></trkpt><trkpt lat="43.4719924" lon="10.6663041"><ele>186.5</ele><time>2026-04-18T11:51:22.439Z</time></trkpt><trkpt lat="43.4718849" lon="10.6662249"><ele>186.25</ele><time>2026-04-18T11:51:23.447Z</time></trkpt><trkpt lat="43.47178" lon="10.6661417"><ele>186.0</ele><time>2026-04-18T11:51:24.445Z</time></trkpt><trkpt lat="43.4716855" lon="10.6660609"><ele>187.5</ele><time>2026-04-18T11:51:25.45Z</time></trkpt><trkpt lat="43.4715852" lon="10.665978"><ele>189.0</ele><time>2026-04-18T11:51:26.435Z</time></trkpt><trkpt lat="43.4714863" lon="10.6658869"><ele>190.5</ele><time>2026-04-18T11:51:27.445Z</time></trkpt><trkpt lat="43.4713816" lon="10.6658013"><ele>192.0</ele><time>2026-04-18T11:51:28.448Z</time></trkpt><trkpt lat="43.4712772" lon="10.6657184"><ele>192.39999999999998</ele><time>2026-04-18T11:51:29.45Z</time></trkpt><trkpt lat="43.4711669" lon="10.6656375"><ele>192.79999999999998</ele><time>2026-04-18T11:51:30.445Z</time></trkpt><trkpt lat="43.4710604" lon="10.6655608"><ele>193.2</ele><time>2026-04-18T11:51:31.46Z</time></trkpt><trkpt lat="43.4709672" lon="10.6654902"><ele>193.6</ele><time>2026-04-18T11:51:32.441Z</time></trkpt><trkpt lat="43.4708822" lon="10.6654269"><ele>194.0</ele><time>2026-04-18T11:51:33.441Z</time></trkpt><trkpt lat="43.4708146" lon="10.6653845"><ele>194.0</ele><time>2026-04-18T11:51:34.445Z</time></trkpt><trkpt lat="43.4707179" lon="10.6652867"><ele>194.0</ele><time>2026-04-18T11:51:36.452Z</time></trkpt><trkpt lat="43.4706457" lon="10.6651672"><ele>194.0</ele><time>2026-04-18T11:51:38.454Z</time></trkpt><trkpt lat="43.4705811" lon="10.6650473"><ele>194.0</ele><time>2026-04-18T11:51:40.454Z</time></trkpt><trkpt lat="43.4705443" lon="10.6649722"><ele>194.0</ele><time>2026-04-18T11:51:41.458Z</time></trkpt><trkpt lat="43.4705017" lon="10.6648958"><ele>195.16666666666669</ele><time>2026-04-18T11:51:42.437Z</time></trkpt><trkpt lat="43.4704594" lon="10.6648141"><ele>196.33333333333334</ele><time>2026-04-18T11:51:43.449Z</time></trkpt><trkpt lat="43.4704167" lon="10.6647318"><ele>197.5</ele><time>2026-04-18T11:51:44.449Z</time></trkpt><trkpt lat="43.470371" lon="10.6646403"><ele>198.66666666666669</ele><time>2026-04-18T11:51:45.453Z</time></trkpt><trkpt lat="43.4703307" lon="10.6645431"><ele>199.83333333333334</ele><time>2026-04-18T11:51:46.454Z</time></trkpt><trkpt lat="43.4703003" lon="10.6644502"><ele>201.0</ele><time>2026-04-18T11:51:47.444Z</time></trkpt><trkpt lat="43.4702805" lon="10.6643538"><ele>204.0</ele><time>2026-04-18T11:51:48.454Z</time></trkpt><trkpt lat="43.4702733" lon="10.6642504"><ele>207.0</ele><time>2026-04-18T11:51:49.462Z</time></trkpt><trkpt lat="43.4702758" lon="10.6641315"><ele>210.0</ele><time>2026-04-18T11:51:50.453Z</time></trkpt><trkpt lat="43.4702857" lon="10.6640058"><ele>213.0</ele><time>2026-04-18T11:51:51.449Z</time></trkpt><trkpt lat="43.4702937" lon="10.663879"><ele>216.0</ele><time>2026-04-18T11:51:52.444Z</time></trkpt><trkpt lat="43.4703004" lon="10.6637383"><ele>219.0</ele><time>2026-04-18T11:51:53.458Z</time></trkpt><trkpt lat="43.4703006" lon="10.6635934"><ele>220.0</ele><time>2026-04-18T11:51:54.448Z</time></trkpt><trkpt lat="43.4703035" lon="10.663461"><ele>220.99999999999997</ele><time>2026-04-18T11:51:55.438Z</time></trkpt><trkpt lat="43.4702865" lon="10.6633366"><ele>221.99999999999997</ele><time>2026-04-18T11:51:56.443Z</time></trkpt><trkpt lat="43.4702525" lon="10.6632154"><ele>223.0</ele><time>2026-04-18T11:51:57.443Z</time></trkpt><trkpt lat="43.4702034" lon="10.6631215"><ele>224.0</ele><time>2026-04-18T11:51:58.447Z</time></trkpt><trkpt lat="43.4701351" lon="10.6630449"><ele>224.0</ele><time>2026-04-18T11:51:59.453Z</time></trkpt><trkpt lat="43.4700751" lon="10.6629755"><ele>224.0</ele><time>2026-04-18T11:52:00.453Z</time></trkpt><trkpt lat="43.4700341" lon="10.6629036"><ele>224.0</ele><time>2026-04-18T11:52:01.445Z</time></trkpt><trkpt lat="43.4699849" lon="10.6628322"><ele>224.0</ele><time>2026-04-18T11:52:02.455Z</time></trkpt><trkpt lat="43.4699352" lon="10.6627553"><ele>224.0</ele><time>2026-04-18T11:52:03.446Z</time></trkpt><trkpt lat="43.4698835" lon="10.6626893"><ele>224.0</ele><time>2026-04-18T11:52:04.457Z</time></trkpt><trkpt lat="43.4698267" lon="10.6626252"><ele>224.0</ele><time>2026-04-18T11:52:05.452Z</time></trkpt><trkpt lat="43.4697719" lon="10.6625499"><ele>224.66666666666669</ele><time>2026-04-18T11:52:06.452Z</time></trkpt><trkpt lat="43.4697151" lon="10.6624816"><ele>225.33333333333334</ele><time>2026-04-18T11:52:07.453Z</time></trkpt><trkpt lat="43.4696571" lon="10.6624038"><ele>226.0</ele><time>2026-04-18T11:52:08.456Z</time></trkpt><trkpt lat="43.4695989" lon="10.6623389"><ele>226.66666666666669</ele><time>2026-04-18T11:52:09.464Z</time></trkpt><trkpt lat="43.4695374" lon="10.6622711"><ele>227.33333333333334</ele><time>2026-04-18T11:52:10.448Z</time></trkpt><trkpt lat="43.4694805" lon="10.6622026"><ele>228.0</ele><time>2026-04-18T11:52:11.454Z</time></trkpt><trkpt lat="43.4694299" lon="10.6621348"><ele>229.0</ele><time>2026-04-18T11:52:12.446Z</time></trkpt><trkpt lat="43.4693791" lon="10.6620566"><ele>230.0</ele><time>2026-04-18T11:52:13.45Z</time></trkpt><trkpt lat="43.4693321" lon="10.6619812"><ele>231.0</ele><time>2026-04-18T11:52:14.442Z</time></trkpt><trkpt lat="43.46928" lon="10.6618864"><ele>232.0</ele><time>2026-04-18T11:52:15.461Z</time></trkpt><trkpt lat="43.4692327" lon="10.6617893"><ele>233.0</ele><time>2026-04-18T11:52:16.444Z</time></trkpt><trkpt lat="43.4691863" lon="10.6616767"><ele>234.0</ele><time>2026-04-18T11:52:17.445Z</time></trkpt><trkpt lat="43.4691356" lon="10.6615635"><ele>234.0</ele><time>2026-04-18T11:52:18.446Z</time></trkpt><trkpt lat="43.4690847" lon="10.661442"><ele>233.99999999999997</ele><time>2026-04-18T11:52:19.448Z</time></trkpt><trkpt lat="43.469034" lon="10.6613147"><ele>233.99999999999997</ele><time>2026-04-18T11:52:20.441Z</time></trkpt><trkpt lat="43.4689855" lon="10.6611926"><ele>234.0</ele><time>2026-04-18T11:52:21.448Z</time></trkpt><trkpt lat="43.4689305" lon="10.6610661"><ele>234.0</ele><time>2026-04-18T11:52:22.446Z</time></trkpt><trkpt lat="43.4688732" lon="10.6609536"><ele>233.79999999999998</ele><time>2026-04-18T11:52:23.442Z</time></trkpt><trkpt lat="43.4688109" lon="10.6608434"><ele>233.59999999999997</ele><time>2026-04-18T11:52:24.441Z</time></trkpt><trkpt lat="43.4687452" lon="10.6607305"><ele>233.4</ele><time>2026-04-18T11:52:25.449Z</time></trkpt><trkpt lat="43.4686747" lon="10.6606142"><ele>233.2</ele><time>2026-04-18T11:52:26.444Z</time></trkpt><trkpt lat="43.4686019" lon="10.6605005"><ele>233.0</ele><time>2026-04-18T11:52:27.446Z</time></trkpt><trkpt lat="43.4685178" lon="10.6603914"><ele>235.75</ele><time>2026-04-18T11:52:28.444Z</time></trkpt><trkpt lat="43.4684375" lon="10.6602766"><ele>238.5</ele><time>2026-04-18T11:52:29.451Z</time></trkpt><trkpt lat="43.4683618" lon="10.6601639"><ele>241.25</ele><time>2026-04-18T11:52:30.448Z</time></trkpt><trkpt lat="43.4682766" lon="10.6600446"><ele>244.0</ele><time>2026-04-18T11:52:31.45Z</time></trkpt><trkpt lat="43.468193" lon="10.6599283"><ele>244.0</ele><time>2026-04-18T11:52:32.431Z</time></trkpt><trkpt lat="43.4681123" lon="10.6598128"><ele>244.0</ele><time>2026-04-18T11:52:33.452Z</time></trkpt><trkpt lat="43.468038" lon="10.6596931"><ele>244.0</ele><time>2026-04-18T11:52:34.444Z</time></trkpt><trkpt lat="43.4679642" lon="10.6595718"><ele>244.0</ele><time>2026-04-18T11:52:35.462Z</time></trkpt><trkpt lat="43.4678889" lon="10.6594546"><ele>246.6</ele><time>2026-04-18T11:52:36.442Z</time></trkpt><trkpt lat="43.4678117" lon="10.6593447"><ele>249.2</ele><time>2026-04-18T11:52:37.45Z</time></trkpt><trkpt lat="43.4677425" lon="10.6592537"><ele>251.79999999999998</ele><time>2026-04-18T11:52:38.452Z</time></trkpt><trkpt lat="43.46768" lon="10.6591702"><ele>254.39999999999998</ele><time>2026-04-18T11:52:39.449Z</time></trkpt><trkpt lat="43.467625" lon="10.6590892"><ele>257.0</ele><time>2026-04-18T11:52:40.453Z</time></trkpt><trkpt lat="43.4675643" lon="10.6590155"><ele>257.0</ele><time>2026-04-18T11:52:41.459Z</time></trkpt><trkpt lat="43.4674998" lon="10.6589372"><ele>257.0</ele><time>2026-04-18T11:52:42.459Z</time></trkpt><trkpt lat="43.4674345" lon="10.6588549"><ele>257.0</ele><time>2026-04-18T11:52:43.45Z</time></trkpt><trkpt lat="43.4673661" lon="10.6587774"><ele>257.0</ele><time>2026-04-18T11:52:44.446Z</time></trkpt><trkpt lat="43.4672965" lon="10.658702"><ele>257.0</ele><time>2026-04-18T11:52:45.45Z</time></trkpt><trkpt lat="43.4672229" lon="10.6586211"><ele>257.0</ele><time>2026-04-18T11:52:46.443Z</time></trkpt><trkpt lat="43.4671387" lon="10.6585318"><ele>260.25</ele><time>2026-04-18T11:52:47.454Z</time></trkpt><trkpt lat="43.4670541" lon="10.6584325"><ele>263.5</ele><time>2026-04-18T11:52:48.449Z</time></trkpt><trkpt lat="43.4669668" lon="10.6583396"><ele>266.75</ele><time>2026-04-18T11:52:49.449Z</time></trkpt><trkpt lat="43.4668725" lon="10.6582387"><ele>270.0</ele><time>2026-04-18T11:52:50.472Z</time></trkpt><trkpt lat="43.4667792" lon="10.6581478"><ele>270.0</ele><time>2026-04-18T11:52:51.453Z</time></trkpt><trkpt lat="43.4666973" lon="10.6580569"><ele>270.0</ele><time>2026-04-18T11:52:52.45Z</time></trkpt><trkpt lat="43.4666231" lon="10.6579806"><ele>270.0</ele><time>2026-04-18T11:52:53.482Z</time></trkpt><trkpt lat="43.4665536" lon="10.6578999"><ele>270.0</ele><time>2026-04-18T11:52:54.452Z</time></trkpt><trkpt lat="43.4664782" lon="10.6578222"><ele>270.0</ele><time>2026-04-18T11:52:55.446Z</time></trkpt><trkpt lat="43.4664042" lon="10.6577437"><ele>270.8</ele><time>2026-04-18T11:52:56.458Z</time></trkpt><trkpt lat="43.4663367" lon="10.657663"><ele>271.6</ele><time>2026-04-18T11:52:57.445Z</time></trkpt><trkpt lat="43.4662882" lon="10.657562"><ele>272.4</ele><time>2026-04-18T11:52:58.465Z</time></trkpt><trkpt lat="43.4662574" lon="10.6574399"><ele>273.2</ele><time>2026-04-18T11:52:59.45Z</time></trkpt><trkpt lat="43.4662224" lon="10.6573181"><ele>274.0</ele><time>2026-04-18T11:53:00.45Z</time></trkpt><trkpt lat="43.466196" lon="10.6572057"><ele>274.3333333333333</ele><time>2026-04-18T11:53:01.451Z</time></trkpt><trkpt lat="43.4661655" lon="10.6571011"><ele>274.66666666666663</ele><time>2026-04-18T11:53:02.439Z</time></trkpt><trkpt lat="43.4661412" lon="10.6569974"><ele>275.0</ele><time>2026-04-18T11:53:03.449Z</time></trkpt><trkpt lat="43.4661201" lon="10.6569012"><ele>275.3333333333333</ele><time>2026-04-18T11:53:04.444Z</time></trkpt><trkpt lat="43.4661002" lon="10.6568149"><ele>275.6666666666667</ele><time>2026-04-18T11:53:05.438Z</time></trkpt><trkpt lat="43.4660629" lon="10.6566686"><ele>276.0</ele><time>2026-04-18T11:53:07.446Z</time></trkpt><trkpt lat="43.4660335" lon="10.6565142"><ele>276.8333333333333</ele><time>2026-04-18T11:53:09.459Z</time></trkpt><trkpt lat="43.4660096" lon="10.6563586"><ele>277.6666666666667</ele><time>2026-04-18T11:53:11.449Z</time></trkpt><trkpt lat="43.4659877" lon="10.6562729"><ele>278.5</ele><time>2026-04-18T11:53:12.449Z</time></trkpt><trkpt lat="43.465964" lon="10.6561776"><ele>279.33333333333337</ele><time>2026-04-18T11:53:13.452Z</time></trkpt><trkpt lat="43.4659414" lon="10.6560792"><ele>280.1666666666667</ele><time>2026-04-18T11:53:14.458Z</time></trkpt><trkpt lat="43.4659135" lon="10.6559795"><ele>281.0</ele><time>2026-04-18T11:53:15.458Z</time></trkpt><trkpt lat="43.4658916" lon="10.6558816"><ele>282.0</ele><time>2026-04-18T11:53:16.456Z</time></trkpt><trkpt lat="43.4658673" lon="10.6557757"><ele>283.0</ele><time>2026-04-18T11:53:17.442Z</time></trkpt><trkpt lat="43.4658429" lon="10.6556767"><ele>284.0</ele><time>2026-04-18T11:53:18.441Z</time></trkpt><trkpt lat="43.4658243" lon="10.6555752"><ele>285.0</ele><time>2026-04-18T11:53:19.447Z</time></trkpt><trkpt lat="43.4657968" lon="10.6554677"><ele>286.0</ele><time>2026-04-18T11:53:20.441Z</time></trkpt><trkpt lat="43.4657701" lon="10.6553631"><ele>287.0</ele><time>2026-04-18T11:53:21.476Z</time></trkpt><trkpt lat="43.4657454" lon="10.6552635"><ele>287.6666666666667</ele><time>2026-04-18T11:53:22.459Z</time></trkpt><trkpt lat="43.4657251" lon="10.6551557"><ele>288.33333333333337</ele><time>2026-04-18T11:53:23.456Z</time></trkpt><trkpt lat="43.4657048" lon="10.6550497"><ele>289.0</ele><time>2026-04-18T11:53:24.449Z</time></trkpt><trkpt lat="43.4656782" lon="10.6549495"><ele>289.6666666666667</ele><time>2026-04-18T11:53:25.448Z</time></trkpt><trkpt lat="43.4656573" lon="10.6548482"><ele>290.3333333333333</ele><time>2026-04-18T11:53:26.461Z</time></trkpt><trkpt lat="43.4656298" lon="10.654742"><ele>291.0</ele><time>2026-04-18T11:53:27.455Z</time></trkpt><trkpt lat="43.465602" lon="10.654636"><ele>291.0</ele><time>2026-04-18T11:53:28.453Z</time></trkpt><trkpt lat="43.4655735" lon="10.6545234"><ele>291.0</ele><time>2026-04-18T11:53:29.45Z</time></trkpt><trkpt lat="43.4655412" lon="10.654413"><ele>291.0</ele><time>2026-04-18T11:53:30.445Z</time></trkpt><trkpt lat="43.4655164" lon="10.6542925"><ele>291.0</ele><time>2026-04-18T11:53:31.441Z</time></trkpt><trkpt lat="43.4654909" lon="10.6541909"><ele>291.0</ele><time>2026-04-18T11:53:32.475Z</time></trkpt><trkpt lat="43.465466" lon="10.654096"><ele>291.0</ele><time>2026-04-18T11:53:33.457Z</time></trkpt><trkpt lat="43.465449" lon="10.6539817"><ele>292.1666666666667</ele><time>2026-04-18T11:53:34.442Z</time></trkpt><trkpt lat="43.4654313" lon="10.6538681"><ele>293.3333333333333</ele><time>2026-04-18T11:53:35.452Z</time></trkpt><trkpt lat="43.4654102" lon="10.6537506"><ele>294.5</ele><time>2026-04-18T11:53:36.465Z</time></trkpt><trkpt lat="43.4653846" lon="10.6536428"><ele>295.66666666666663</ele><time>2026-04-18T11:53:37.45Z</time></trkpt><trkpt lat="43.4653557" lon="10.6535387"><ele>296.8333333333333</ele><time>2026-04-18T11:53:38.457Z</time></trkpt><trkpt lat="43.4653267" lon="10.6534224"><ele>298.0</ele><time>2026-04-18T11:53:39.445Z</time></trkpt><trkpt lat="43.4652973" lon="10.6533128"><ele>298.5</ele><time>2026-04-18T11:53:40.462Z</time></trkpt><trkpt lat="43.4652728" lon="10.653203"><ele>299.0</ele><time>2026-04-18T11:53:41.462Z</time></trkpt><trkpt lat="43.4652535" lon="10.6530984"><ele>299.5</ele><time>2026-04-18T11:53:42.439Z</time></trkpt><trkpt lat="43.4652286" lon="10.6529937"><ele>300.0</ele><time>2026-04-18T11:53:43.441Z</time></trkpt><trkpt lat="43.4652008" lon="10.6528902"><ele>300.5</ele><time>2026-04-18T11:53:44.448Z</time></trkpt><trkpt lat="43.4651763" lon="10.6527812"><ele>301.0</ele><time>2026-04-18T11:53:45.448Z</time></trkpt><trkpt lat="43.4651536" lon="10.652669"><ele>301.5</ele><time>2026-04-18T11:53:46.463Z</time></trkpt><trkpt lat="43.4651414" lon="10.6525593"><ele>302.0</ele><time>2026-04-18T11:53:47.442Z</time></trkpt><trkpt lat="43.4651358" lon="10.6524529"><ele>302.5</ele><time>2026-04-18T11:53:48.446Z</time></trkpt><trkpt lat="43.4651432" lon="10.6523395"><ele>303.0</ele><time>2026-04-18T11:53:49.456Z</time></trkpt><trkpt lat="43.4651568" lon="10.6522271"><ele>303.5</ele><time>2026-04-18T11:53:50.456Z</time></trkpt><trkpt lat="43.465176" lon="10.6521204"><ele>304.0</ele><time>2026-04-18T11:53:51.45Z</time></trkpt><trkpt lat="43.465193" lon="10.6520153"><ele>304.4</ele><time>2026-04-18T11:53:52.446Z</time></trkpt><trkpt lat="43.4652035" lon="10.6519268"><ele>304.79999999999995</ele><time>2026-04-18T11:53:53.451Z</time></trkpt><trkpt lat="43.4652228" lon="10.6517736"><ele>305.20000000000005</ele><time>2026-04-18T11:53:55.444Z</time></trkpt><trkpt lat="43.4652419" lon="10.6516198"><ele>305.6</ele><time>2026-04-18T11:53:57.466Z</time></trkpt><trkpt lat="43.4652587" lon="10.6514692"><ele>306.0</ele><time>2026-04-18T11:53:59.454Z</time></trkpt><trkpt lat="43.4652729" lon="10.6513274"><ele>306.0</ele><time>2026-04-18T11:54:01.442Z</time></trkpt><trkpt lat="43.4652817" lon="10.6512164"><ele>306.0</ele><time>2026-04-18T11:54:03.442Z</time></trkpt><trkpt lat="43.4653011" lon="10.6510911"><ele>306.0</ele><time>2026-04-18T11:54:05.44Z</time></trkpt><trkpt lat="43.4653194" lon="10.6509544"><ele>306.0</ele><time>2026-04-18T11:54:07.441Z</time></trkpt><trkpt lat="43.4653392" lon="10.6508185"><ele>306.0</ele><time>2026-04-18T11:54:09.457Z</time></trkpt><trkpt lat="43.4653621" lon="10.6506772"><ele>306.2</ele><time>2026-04-18T11:54:11.449Z</time></trkpt><trkpt lat="43.4653812" lon="10.6505238"><ele>306.40000000000003</ele><time>2026-04-18T11:54:13.468Z</time></trkpt><trkpt lat="43.4653926" lon="10.6503648"><ele>306.6</ele><time>2026-04-18T11:54:15.44Z</time></trkpt><trkpt lat="43.4653996" lon="10.650203"><ele>306.8</ele><time>2026-04-18T11:54:17.442Z</time></trkpt><trkpt lat="43.4654091" lon="10.6501163"><ele>307.0</ele><time>2026-04-18T11:54:18.449Z</time></trkpt><trkpt lat="43.4654252" lon="10.6500307"><ele>307.0</ele><time>2026-04-18T11:54:19.444Z</time></trkpt><trkpt lat="43.4654629" lon="10.6498634"><ele>307.0</ele><time>2026-04-18T11:54:21.452Z</time></trkpt><trkpt lat="43.4654888" lon="10.6497766"><ele>307.0</ele><time>2026-04-18T11:54:22.443Z</time></trkpt><trkpt lat="43.4655093" lon="10.6496712"><ele>307.0</ele><time>2026-04-18T11:54:23.441Z</time></trkpt><trkpt lat="43.4655294" lon="10.6495671"><ele>307.0</ele><time>2026-04-18T11:54:24.444Z</time></trkpt><trkpt lat="43.4655503" lon="10.6494667"><ele>307.0</ele><time>2026-04-18T11:54:25.476Z</time></trkpt><trkpt lat="43.4655718" lon="10.6493525"><ele>307.0</ele><time>2026-04-18T11:54:26.444Z</time></trkpt><trkpt lat="43.4656005" lon="10.649218"><ele>307.0</ele><time>2026-04-18T11:54:27.444Z</time></trkpt><trkpt lat="43.4656218" lon="10.6490947"><ele>307.0</ele><time>2026-04-18T11:54:28.444Z</time></trkpt><trkpt lat="43.4656451" lon="10.6489662"><ele>307.0</ele><time>2026-04-18T11:54:29.447Z</time></trkpt><trkpt lat="43.4656706" lon="10.648838"><ele>307.0</ele><time>2026-04-18T11:54:30.436Z</time></trkpt><trkpt lat="43.4656941" lon="10.648701"><ele>304.6</ele><time>2026-04-18T11:54:31.452Z</time></trkpt><trkpt lat="43.4657203" lon="10.6485723"><ele>302.2</ele><time>2026-04-18T11:54:32.442Z</time></trkpt><trkpt lat="43.4657426" lon="10.6484394"><ele>299.8</ele><time>2026-04-18T11:54:33.446Z</time></trkpt><trkpt lat="43.4657632" lon="10.6483073"><ele>297.4</ele><time>2026-04-18T11:54:34.447Z</time></trkpt><trkpt lat="43.4657774" lon="10.6481752"><ele>295.0</ele><time>2026-04-18T11:54:35.449Z</time></trkpt><trkpt lat="43.4657941" lon="10.6480357"><ele>295.0</ele><time>2026-04-18T11:54:36.451Z</time></trkpt><trkpt lat="43.4658116" lon="10.6479059"><ele>295.0</ele><time>2026-04-18T11:54:37.474Z</time></trkpt><trkpt lat="43.4658321" lon="10.6477598"><ele>295.0</ele><time>2026-04-18T11:54:38.45Z</time></trkpt><trkpt lat="43.4658518" lon="10.6476166"><ele>295.0</ele><time>2026-04-18T11:54:39.446Z</time></trkpt><trkpt lat="43.4658674" lon="10.6474735"><ele>295.0</ele><time>2026-04-18T11:54:40.447Z</time></trkpt><trkpt lat="43.4658891" lon="10.6473397"><ele>293.6</ele><time>2026-04-18T11:54:41.444Z</time></trkpt><trkpt lat="43.4658989" lon="10.6471974"><ele>292.2</ele><time>2026-04-18T11:54:42.443Z</time></trkpt><trkpt lat="43.4659094" lon="10.6470632"><ele>290.8</ele><time>2026-04-18T11:54:43.447Z</time></trkpt><trkpt lat="43.4659202" lon="10.6469344"><ele>289.4</ele><time>2026-04-18T11:54:44.451Z</time></trkpt><trkpt lat="43.4659327" lon="10.6468115"><ele>288.0</ele><time>2026-04-18T11:54:45.45Z</time></trkpt><trkpt lat="43.4659456" lon="10.6467008"><ele>288.0</ele><time>2026-04-18T11:54:46.454Z</time></trkpt><trkpt lat="43.46595" lon="10.6466"><ele>288.0</ele><time>2026-04-18T11:54:47.447Z</time></trkpt><trkpt lat="43.4659629" lon="10.6464993"><ele>288.0</ele><time>2026-04-18T11:54:48.445Z</time></trkpt><trkpt lat="43.4659779" lon="10.6463952"><ele>288.0</ele><time>2026-04-18T11:54:49.445Z</time></trkpt><trkpt lat="43.4659862" lon="10.6462785"><ele>288.0</ele><time>2026-04-18T11:54:50.442Z</time></trkpt><trkpt lat="43.4659944" lon="10.6461814"><ele>288.0</ele><time>2026-04-18T11:54:51.48Z</time></trkpt><trkpt lat="43.4660123" lon="10.6460788"><ele>288.0</ele><time>2026-04-18T11:54:52.443Z</time></trkpt><trkpt lat="43.4660364" lon="10.6459768"><ele>288.0</ele><time>2026-04-18T11:54:53.474Z</time></trkpt><trkpt lat="43.4660605" lon="10.6458668"><ele>288.0</ele><time>2026-04-18T11:54:54.447Z</time></trkpt><trkpt lat="43.4660849" lon="10.6457548"><ele>288.0</ele><time>2026-04-18T11:54:55.44Z</time></trkpt><trkpt lat="43.4661103" lon="10.6456454"><ele>288.0</ele><time>2026-04-18T11:54:56.44Z</time></trkpt><trkpt lat="43.4661331" lon="10.6455355"><ele>288.0</ele><time>2026-04-18T11:54:57.443Z</time></trkpt><trkpt lat="43.4661573" lon="10.645428"><ele>288.0</ele><time>2026-04-18T11:54:58.445Z</time></trkpt><trkpt lat="43.4661812" lon="10.6453066"><ele>288.0</ele><time>2026-04-18T11:54:59.447Z</time></trkpt><trkpt lat="43.466211" lon="10.6451912"><ele>288.0</ele><time>2026-04-18T11:55:00.479Z</time></trkpt><trkpt lat="43.4662426" lon="10.6450748"><ele>288.0</ele><time>2026-04-18T11:55:01.474Z</time></trkpt><trkpt lat="43.4662713" lon="10.6449622"><ele>288.0</ele><time>2026-04-18T11:55:02.469Z</time></trkpt><trkpt lat="43.4662907" lon="10.6448501"><ele>288.0</ele><time>2026-04-18T11:55:03.444Z</time></trkpt><trkpt lat="43.4663203" lon="10.6447349"><ele>288.8333333333333</ele><time>2026-04-18T11:55:04.443Z</time></trkpt><trkpt lat="43.4663555" lon="10.6446273"><ele>289.6666666666667</ele><time>2026-04-18T11:55:05.473Z</time></trkpt><trkpt lat="43.46639" lon="10.6445222"><ele>290.5</ele><time>2026-04-18T11:55:06.447Z</time></trkpt><trkpt lat="43.4664322" lon="10.6444171"><ele>291.33333333333337</ele><time>2026-04-18T11:55:07.442Z</time></trkpt><trkpt lat="43.4664796" lon="10.6443066"><ele>292.1666666666667</ele><time>2026-04-18T11:55:08.439Z</time></trkpt><trkpt lat="43.4665251" lon="10.6441881"><ele>293.0</ele><time>2026-04-18T11:55:09.447Z</time></trkpt><trkpt lat="43.4665689" lon="10.6440744"><ele>294.0</ele><time>2026-04-18T11:55:10.437Z</time></trkpt><trkpt lat="43.4666563" lon="10.6438379"><ele>295.0</ele><time>2026-04-18T11:55:12.443Z</time></trkpt><trkpt lat="43.4666998" lon="10.6437204"><ele>296.0</ele><time>2026-04-18T11:55:13.442Z</time></trkpt><trkpt lat="43.4667445" lon="10.6435967"><ele>297.0</ele><time>2026-04-18T11:55:14.449Z</time></trkpt><trkpt lat="43.4667911" lon="10.6434778"><ele>297.8333333333333</ele><time>2026-04-18T11:55:15.434Z</time></trkpt><trkpt lat="43.4668392" lon="10.6433611"><ele>298.6666666666667</ele><time>2026-04-18T11:55:16.451Z</time></trkpt><trkpt lat="43.4668804" lon="10.6432529"><ele>299.5</ele><time>2026-04-18T11:55:17.437Z</time></trkpt><trkpt lat="43.4669132" lon="10.6431569"><ele>300.33333333333337</ele><time>2026-04-18T11:55:18.459Z</time></trkpt><trkpt lat="43.4669391" lon="10.6430664"><ele>301.1666666666667</ele><time>2026-04-18T11:55:19.456Z</time></trkpt><trkpt lat="43.4669315" lon="10.6429117"><ele>302.0</ele><time>2026-04-18T11:55:21.452Z</time></trkpt><trkpt lat="43.4669097" lon="10.6427903"><ele>303.5</ele><time>2026-04-18T11:55:23.436Z</time></trkpt><trkpt lat="43.4669568" lon="10.6426673"><ele>305.0</ele><time>2026-04-18T11:55:25.442Z</time></trkpt><trkpt lat="43.4670345" lon="10.6425745"><ele>306.5</ele><time>2026-04-18T11:55:27.439Z</time></trkpt><trkpt lat="43.4671187" lon="10.6424457"><ele>308.0</ele><time>2026-04-18T11:55:29.443Z</time></trkpt><trkpt lat="43.4672005" lon="10.6423161"><ele>308.8</ele><time>2026-04-18T11:55:31.455Z</time></trkpt><trkpt lat="43.4672468" lon="10.6422492"><ele>309.6</ele><time>2026-04-18T11:55:32.446Z</time></trkpt><trkpt lat="43.4672849" lon="10.6421751"><ele>310.4</ele><time>2026-04-18T11:55:33.449Z</time></trkpt><trkpt lat="43.4673615" lon="10.6420316"><ele>311.2</ele><time>2026-04-18T11:55:35.436Z</time></trkpt><trkpt lat="43.467444" lon="10.6419063"><ele>312.0</ele><time>2026-04-18T11:55:37.437Z</time></trkpt><trkpt lat="43.4675122" lon="10.6417798"><ele>313.4</ele><time>2026-04-18T11:55:39.442Z</time></trkpt><trkpt lat="43.4675654" lon="10.6416345"><ele>314.79999999999995</ele><time>2026-04-18T11:55:41.446Z</time></trkpt><trkpt lat="43.4676033" lon="10.6414977"><ele>316.2</ele><time>2026-04-18T11:55:43.446Z</time></trkpt><trkpt lat="43.4676474" lon="10.6413556"><ele>317.59999999999997</ele><time>2026-04-18T11:55:45.451Z</time></trkpt><trkpt lat="43.4676944" lon="10.6412349"><ele>319.0</ele><time>2026-04-18T11:55:47.453Z</time></trkpt><trkpt lat="43.4677452" lon="10.6410995"><ele>319.8333333333333</ele><time>2026-04-18T11:55:49.44Z</time></trkpt><trkpt lat="43.4677952" lon="10.6409507"><ele>320.66666666666663</ele><time>2026-04-18T11:55:51.445Z</time></trkpt><trkpt lat="43.4678459" lon="10.6408148"><ele>321.5</ele><time>2026-04-18T11:55:53.444Z</time></trkpt><trkpt lat="43.4678752" lon="10.6407354"><ele>322.3333333333333</ele><time>2026-04-18T11:55:54.435Z</time></trkpt><trkpt lat="43.4678995" lon="10.640653"><ele>323.1666666666667</ele><time>2026-04-18T11:55:55.45Z</time></trkpt><trkpt lat="43.4679226" lon="10.640572"><ele>324.0</ele><time>2026-04-18T11:55:56.44Z</time></trkpt><trkpt lat="43.4679465" lon="10.640491"><ele>324.2</ele><time>2026-04-18T11:55:57.465Z</time></trkpt><trkpt lat="43.4680014" lon="10.6403413"><ele>324.4</ele><time>2026-04-18T11:55:59.459Z</time></trkpt><trkpt lat="43.4680704" lon="10.6402174"><ele>324.6</ele><time>2026-04-18T11:56:01.441Z</time></trkpt><trkpt lat="43.4681628" lon="10.6401212"><ele>324.8</ele><time>2026-04-18T11:56:03.44Z</time></trkpt><trkpt lat="43.4682429" lon="10.6400447"><ele>325.0</ele><time>2026-04-18T11:56:05.457Z</time></trkpt><trkpt lat="43.4683384" lon="10.6399754"><ele>326.4</ele><time>2026-04-18T11:56:07.439Z</time></trkpt><trkpt lat="43.4684467" lon="10.6399081"><ele>327.8</ele><time>2026-04-18T11:56:09.44Z</time></trkpt><trkpt lat="43.4685006" lon="10.6398557"><ele>329.20000000000005</ele><time>2026-04-18T11:56:10.439Z</time></trkpt><trkpt lat="43.468614" lon="10.6397704"><ele>330.6</ele><time>2026-04-18T11:56:12.437Z</time></trkpt><trkpt lat="43.4686785" lon="10.6397312"><ele>332.0</ele><time>2026-04-18T11:56:13.439Z</time></trkpt><trkpt lat="43.468737" lon="10.6396907"><ele>332.20000000000005</ele><time>2026-04-18T11:56:14.439Z</time></trkpt><trkpt lat="43.4688337" lon="10.6396229"><ele>332.4</ele><time>2026-04-18T11:56:16.436Z</time></trkpt><trkpt lat="43.4689494" lon="10.6395436"><ele>332.6</ele><time>2026-04-18T11:56:18.442Z</time></trkpt><trkpt lat="43.4690061" lon="10.639496"><ele>332.79999999999995</ele><time>2026-04-18T11:56:19.453Z</time></trkpt><trkpt lat="43.4690582" lon="10.6394462"><ele>333.0</ele><time>2026-04-18T11:56:20.443Z</time></trkpt><trkpt lat="43.4691438" lon="10.6393644"><ele>333.0</ele><time>2026-04-18T11:56:22.447Z</time></trkpt><trkpt lat="43.4692208" lon="10.6392705"><ele>333.0</ele><time>2026-04-18T11:56:24.46Z</time></trkpt><trkpt lat="43.4692841" lon="10.6391831"><ele>333.0</ele><time>2026-04-18T11:56:26.452Z</time></trkpt><trkpt lat="43.4693552" lon="10.6391007"><ele>333.0</ele><time>2026-04-18T11:56:28.444Z</time></trkpt><trkpt lat="43.4694411" lon="10.6390081"><ele>333.0</ele><time>2026-04-18T11:56:30.447Z</time></trkpt><trkpt lat="43.4694742" lon="10.6388818"><ele>333.0</ele><time>2026-04-18T11:56:32.44Z</time></trkpt><trkpt lat="43.4695043" lon="10.6387268"><ele>333.0</ele><time>2026-04-18T11:56:34.441Z</time></trkpt><trkpt lat="43.4695416" lon="10.6385793"><ele>333.0</ele><time>2026-04-18T11:56:36.447Z</time></trkpt><trkpt lat="43.4695885" lon="10.6384491"><ele>333.0</ele><time>2026-04-18T11:56:38.435Z</time></trkpt><trkpt lat="43.4696625" lon="10.6383439"><ele>333.0</ele><time>2026-04-18T11:56:40.431Z</time></trkpt><trkpt lat="43.4697499" lon="10.638258"><ele>335.4</ele><time>2026-04-18T11:56:42.455Z</time></trkpt><trkpt lat="43.4698329" lon="10.6381872"><ele>337.79999999999995</ele><time>2026-04-18T11:56:44.436Z</time></trkpt><trkpt lat="43.4699086" lon="10.6381065"><ele>340.2</ele><time>2026-04-18T11:56:46.436Z</time></trkpt><trkpt lat="43.4699807" lon="10.6380383"><ele>342.6</ele><time>2026-04-18T11:56:48.445Z</time></trkpt><trkpt lat="43.4700816" lon="10.6379583"><ele>345.0</ele><time>2026-04-18T11:56:50.444Z</time></trkpt><trkpt lat="43.4701995" lon="10.6378953"><ele>345.0</ele><time>2026-04-18T11:56:52.436Z</time></trkpt><trkpt lat="43.4702601" lon="10.6378712"><ele>345.0</ele><time>2026-04-18T11:56:53.438Z</time></trkpt><trkpt lat="43.4703618" lon="10.6378105"><ele>345.0</ele><time>2026-04-18T11:56:55.452Z</time></trkpt><trkpt lat="43.4704711" lon="10.6377418"><ele>345.0</ele><time>2026-04-18T11:56:57.433Z</time></trkpt><trkpt lat="43.4705346" lon="10.6377188"><ele>345.0</ele><time>2026-04-18T11:56:58.442Z</time></trkpt><trkpt lat="43.4706418" lon="10.637686"><ele>345.8333333333333</ele><time>2026-04-18T11:57:00.449Z</time></trkpt><trkpt lat="43.4707085" lon="10.6376621"><ele>346.6666666666667</ele><time>2026-04-18T11:57:01.437Z</time></trkpt><trkpt lat="43.4707813" lon="10.6376255"><ele>347.5</ele><time>2026-04-18T11:57:02.443Z</time></trkpt><trkpt lat="43.4708543" lon="10.6375738"><ele>348.33333333333337</ele><time>2026-04-18T11:57:03.439Z</time></trkpt><trkpt lat="43.4709187" lon="10.6375199"><ele>349.1666666666667</ele><time>2026-04-18T11:57:04.435Z</time></trkpt><trkpt lat="43.4710085" lon="10.6374364"><ele>350.0</ele><time>2026-04-18T11:57:06.44Z</time></trkpt><trkpt lat="43.4711177" lon="10.6373489"><ele>350.0</ele><time>2026-04-18T11:57:08.422Z</time></trkpt><trkpt lat="43.4711768" lon="10.637285"><ele>350.0</ele><time>2026-04-18T11:57:09.44Z</time></trkpt><trkpt lat="43.4712427" lon="10.6372232"><ele>350.0</ele><time>2026-04-18T11:57:10.447Z</time></trkpt><trkpt lat="43.4713133" lon="10.63716"><ele>350.0</ele><time>2026-04-18T11:57:11.441Z</time></trkpt><trkpt lat="43.4713857" lon="10.6370973"><ele>350.0</ele><time>2026-04-18T11:57:12.441Z</time></trkpt><trkpt lat="43.4714608" lon="10.6370451"><ele>350.0</ele><time>2026-04-18T11:57:13.453Z</time></trkpt><trkpt lat="43.4715254" lon="10.6369935"><ele>351.0</ele><time>2026-04-18T11:57:14.442Z</time></trkpt><trkpt lat="43.4716017" lon="10.6369427"><ele>352.0</ele><time>2026-04-18T11:57:15.44Z</time></trkpt><trkpt lat="43.4716773" lon="10.6368888"><ele>353.0</ele><time>2026-04-18T11:57:16.462Z</time></trkpt><trkpt lat="43.4717483" lon="10.6368329"><ele>354.0</ele><time>2026-04-18T11:57:17.441Z</time></trkpt><trkpt lat="43.4718249" lon="10.636781"><ele>355.0</ele><time>2026-04-18T11:57:18.449Z</time></trkpt><trkpt lat="43.4718925" lon="10.6367324"><ele>356.0</ele><time>2026-04-18T11:57:19.439Z</time></trkpt><trkpt lat="43.4719477" lon="10.6366827"><ele>356.0</ele><time>2026-04-18T11:57:20.444Z</time></trkpt><trkpt lat="43.4720576" lon="10.6366034"><ele>356.0</ele><time>2026-04-18T11:57:22.442Z</time></trkpt><trkpt lat="43.4721164" lon="10.6365494"><ele>356.0</ele><time>2026-04-18T11:57:23.442Z</time></trkpt><trkpt lat="43.4721776" lon="10.6364962"><ele>356.0</ele><time>2026-04-18T11:57:24.437Z</time></trkpt><trkpt lat="43.4722359" lon="10.6364434"><ele>356.0</ele><time>2026-04-18T11:57:25.447Z</time></trkpt><trkpt lat="43.4722963" lon="10.6363857"><ele>356.0</ele><time>2026-04-18T11:57:26.442Z</time></trkpt><trkpt lat="43.4723662" lon="10.6363314"><ele>355.33333333333337</ele><time>2026-04-18T11:57:27.441Z</time></trkpt><trkpt lat="43.4724277" lon="10.6362725"><ele>354.6666666666667</ele><time>2026-04-18T11:57:28.437Z</time></trkpt><trkpt lat="43.472481" lon="10.636218"><ele>354.0</ele><time>2026-04-18T11:57:29.445Z</time></trkpt><trkpt lat="43.4725427" lon="10.6361408"><ele>353.3333333333333</ele><time>2026-04-18T11:57:31.445Z</time></trkpt><trkpt lat="43.4724922" lon="10.6360666"><ele>352.66666666666663</ele><time>2026-04-18T11:57:35.443Z</time></trkpt><trkpt lat="43.4724098" lon="10.6361039"><ele>352.0</ele><time>2026-04-18T11:57:37.444Z</time></trkpt><trkpt lat="43.4723481" lon="10.6361336"><ele>352.0</ele><time>2026-04-18T11:57:38.447Z</time></trkpt><trkpt lat="43.4722707" lon="10.6361621"><ele>352.0</ele><time>2026-04-18T11:57:39.444Z</time></trkpt><trkpt lat="43.4721866" lon="10.6361591"><ele>352.0</ele><time>2026-04-18T11:57:40.446Z</time></trkpt><trkpt lat="43.4721006" lon="10.6361263"><ele>352.0</ele><time>2026-04-18T11:57:41.451Z</time></trkpt><trkpt lat="43.472018" lon="10.6360864"><ele>352.0</ele><time>2026-04-18T11:57:42.432Z</time></trkpt><trkpt lat="43.471926" lon="10.6360179"><ele>352.0</ele><time>2026-04-18T11:57:43.451Z</time></trkpt><trkpt lat="43.4718515" lon="10.6359238"><ele>354.0</ele><time>2026-04-18T11:57:44.44Z</time></trkpt><trkpt lat="43.471784" lon="10.635798"><ele>356.0</ele><time>2026-04-18T11:57:45.441Z</time></trkpt><trkpt lat="43.4717154" lon="10.6356627"><ele>358.0</ele><time>2026-04-18T11:57:46.45Z</time></trkpt><trkpt lat="43.4716546" lon="10.6355089"><ele>360.0</ele><time>2026-04-18T11:57:47.455Z</time></trkpt><trkpt lat="43.4715948" lon="10.6353467"><ele>360.75</ele><time>2026-04-18T11:57:48.444Z</time></trkpt><trkpt lat="43.4715314" lon="10.635184"><ele>361.5</ele><time>2026-04-18T11:57:49.453Z</time></trkpt><trkpt lat="43.4714717" lon="10.6350153"><ele>362.25</ele><time>2026-04-18T11:57:50.435Z</time></trkpt><trkpt lat="43.4714113" lon="10.6348343"><ele>363.0</ele><time>2026-04-18T11:57:51.445Z</time></trkpt><trkpt lat="43.4713497" lon="10.6346453"><ele>359.3333333333333</ele><time>2026-04-18T11:57:52.438Z</time></trkpt><trkpt lat="43.4712725" lon="10.6344563"><ele>355.66666666666663</ele><time>2026-04-18T11:57:53.441Z</time></trkpt><trkpt lat="43.4711942" lon="10.6342597"><ele>352.0</ele><time>2026-04-18T11:57:54.448Z</time></trkpt><trkpt lat="43.4711149" lon="10.6340704"><ele>352.0</ele><time>2026-04-18T11:57:55.441Z</time></trkpt><trkpt lat="43.4710324" lon="10.63387"><ele>352.0</ele><time>2026-04-18T11:57:56.439Z</time></trkpt><trkpt lat="43.4709555" lon="10.6336777"><ele>352.0</ele><time>2026-04-18T11:57:57.448Z</time></trkpt><trkpt lat="43.4708831" lon="10.6334838"><ele>354.3333333333333</ele><time>2026-04-18T11:57:58.442Z</time></trkpt><trkpt lat="43.4708138" lon="10.6332929"><ele>356.6666666666667</ele><time>2026-04-18T11:57:59.456Z</time></trkpt><trkpt lat="43.4707325" lon="10.6331192"><ele>359.0</ele><time>2026-04-18T11:58:00.449Z</time></trkpt><trkpt lat="43.4706414" lon="10.6329554"><ele>359.0</ele><time>2026-04-18T11:58:01.462Z</time></trkpt><trkpt lat="43.4705294" lon="10.6328085"><ele>359.0</ele><time>2026-04-18T11:58:02.486Z</time></trkpt><trkpt lat="43.470411" lon="10.6326655"><ele>359.0</ele><time>2026-04-18T11:58:03.454Z</time></trkpt><trkpt lat="43.4702935" lon="10.63252"><ele>357.0</ele><time>2026-04-18T11:58:04.458Z</time></trkpt><trkpt lat="43.4701795" lon="10.6323713"><ele>355.0</ele><time>2026-04-18T11:58:05.451Z</time></trkpt><trkpt lat="43.4700844" lon="10.632234"><ele>353.0</ele><time>2026-04-18T11:58:06.453Z</time></trkpt><trkpt lat="43.4699793" lon="10.6321081"><ele>351.0</ele><time>2026-04-18T11:58:07.461Z</time></trkpt><trkpt lat="43.46987" lon="10.632014"><ele>348.0</ele><time>2026-04-18T11:58:08.469Z</time></trkpt><trkpt lat="43.4697512" lon="10.6319462"><ele>345.0</ele><time>2026-04-18T11:58:09.447Z</time></trkpt><trkpt lat="43.4696291" lon="10.6318768"><ele>342.0</ele><time>2026-04-18T11:58:10.461Z</time></trkpt><trkpt lat="43.4695192" lon="10.6318306"><ele>339.0</ele><time>2026-04-18T11:58:11.469Z</time></trkpt><trkpt lat="43.4694434" lon="10.6317869"><ele>339.0</ele><time>2026-04-18T11:58:12.467Z</time></trkpt><trkpt lat="43.4693873" lon="10.6317172"><ele>339.0</ele><time>2026-04-18T11:58:13.455Z</time></trkpt><trkpt lat="43.4693809" lon="10.6316187"><ele>339.0</ele><time>2026-04-18T11:58:14.475Z</time></trkpt><trkpt lat="43.4693758" lon="10.631482"><ele>339.0</ele><time>2026-04-18T11:58:15.448Z</time></trkpt><trkpt lat="43.4693788" lon="10.6313371"><ele>339.0</ele><time>2026-04-18T11:58:16.446Z</time></trkpt><trkpt lat="43.4693586" lon="10.6311733"><ele>341.5</ele><time>2026-04-18T11:58:17.449Z</time></trkpt><trkpt lat="43.4693188" lon="10.6310184"><ele>344.0</ele><time>2026-04-18T11:58:18.453Z</time></trkpt><trkpt lat="43.4692726" lon="10.6308658"><ele>346.5</ele><time>2026-04-18T11:58:19.443Z</time></trkpt><trkpt lat="43.4692251" lon="10.6307183"><ele>349.0</ele><time>2026-04-18T11:58:20.444Z</time></trkpt><trkpt lat="43.4691911" lon="10.6305711"><ele>349.0</ele><time>2026-04-18T11:58:21.445Z</time></trkpt><trkpt lat="43.4691994" lon="10.6304149"><ele>349.0</ele><time>2026-04-18T11:58:22.461Z</time></trkpt><trkpt lat="43.4692395" lon="10.6302758"><ele>349.0</ele><time>2026-04-18T11:58:23.447Z</time></trkpt><trkpt lat="43.4693093" lon="10.6301701"><ele>349.0</ele><time>2026-04-18T11:58:24.448Z</time></trkpt><trkpt lat="43.4693768" lon="10.6300639"><ele>349.0</ele><time>2026-04-18T11:58:25.439Z</time></trkpt><trkpt lat="43.469426" lon="10.6299449"><ele>350.66666666666663</ele><time>2026-04-18T11:58:26.434Z</time></trkpt><trkpt lat="43.4694382" lon="10.6298017"><ele>352.3333333333333</ele><time>2026-04-18T11:58:27.44Z</time></trkpt><trkpt lat="43.4694348" lon="10.629684"><ele>354.0</ele><time>2026-04-18T11:58:28.436Z</time></trkpt><trkpt lat="43.469421" lon="10.6295972"><ele>355.6666666666667</ele><time>2026-04-18T11:58:29.434Z</time></trkpt><trkpt lat="43.4693258" lon="10.629525"><ele>357.33333333333337</ele><time>2026-04-18T11:58:31.432Z</time></trkpt><trkpt lat="43.4692516" lon="10.6295348"><ele>359.0</ele><time>2026-04-18T11:58:32.436Z</time></trkpt><trkpt lat="43.4691834" lon="10.6295783"><ele>359.0</ele><time>2026-04-18T11:58:33.439Z</time></trkpt><trkpt lat="43.4691217" lon="10.6296561"><ele>359.0</ele><time>2026-04-18T11:58:34.441Z</time></trkpt><trkpt lat="43.4690524" lon="10.629732"><ele>359.0</ele><time>2026-04-18T11:58:35.444Z</time></trkpt><trkpt lat="43.4689771" lon="10.6298102"><ele>359.0</ele><time>2026-04-18T11:58:36.433Z</time></trkpt><trkpt lat="43.4688775" lon="10.6298851"><ele>359.0</ele><time>2026-04-18T11:58:37.427Z</time></trkpt><trkpt lat="43.4687803" lon="10.6299817"><ele>360.25</ele><time>2026-04-18T11:58:38.429Z</time></trkpt><trkpt lat="43.4686906" lon="10.6300898"><ele>361.5</ele><time>2026-04-18T11:58:39.439Z</time></trkpt><trkpt lat="43.4686188" lon="10.6302133"><ele>362.75</ele><time>2026-04-18T11:58:40.43Z</time></trkpt><trkpt lat="43.468561" lon="10.6303619"><ele>364.0</ele><time>2026-04-18T11:58:41.427Z</time></trkpt><trkpt lat="43.4685152" lon="10.6305249"><ele>364.0</ele><time>2026-04-18T11:58:42.436Z</time></trkpt><trkpt lat="43.4684751" lon="10.6306925"><ele>364.0</ele><time>2026-04-18T11:58:43.426Z</time></trkpt><trkpt lat="43.4684357" lon="10.6308517"><ele>364.0</ele><time>2026-04-18T11:58:44.424Z</time></trkpt><trkpt lat="43.4683941" lon="10.6309871"><ele>364.0</ele><time>2026-04-18T11:58:45.427Z</time></trkpt><trkpt lat="43.4683438" lon="10.6311156"><ele>364.0</ele><time>2026-04-18T11:58:46.434Z</time></trkpt><trkpt lat="43.4682958" lon="10.6312157"><ele>364.0</ele><time>2026-04-18T11:58:47.438Z</time></trkpt><trkpt lat="43.4682308" lon="10.6312568"><ele>364.0</ele><time>2026-04-18T11:58:48.422Z</time></trkpt><trkpt lat="43.4681385" lon="10.6312221"><ele>364.0</ele><time>2026-04-18T11:58:49.426Z</time></trkpt><trkpt lat="43.468044" lon="10.6311661"><ele>364.0</ele><time>2026-04-18T11:58:50.435Z</time></trkpt><trkpt lat="43.4679436" lon="10.6311043"><ele>364.2</ele><time>2026-04-18T11:58:51.442Z</time></trkpt><trkpt lat="43.4678656" lon="10.6310547"><ele>364.4</ele><time>2026-04-18T11:58:52.448Z</time></trkpt><trkpt lat="43.4677597" lon="10.6310264"><ele>364.6</ele><time>2026-04-18T11:58:53.455Z</time></trkpt><trkpt lat="43.46766" lon="10.6309819"><ele>364.8</ele><time>2026-04-18T11:58:54.44Z</time></trkpt><trkpt lat="43.4675629" lon="10.6309425"><ele>365.0</ele><time>2026-04-18T11:58:55.44Z</time></trkpt><trkpt lat="43.4674634" lon="10.6309032"><ele>365.0</ele><time>2026-04-18T11:58:56.442Z</time></trkpt><trkpt lat="43.4673592" lon="10.630851"><ele>365.0</ele><time>2026-04-18T11:58:57.466Z</time></trkpt><trkpt lat="43.4672545" lon="10.6307995"><ele>365.0</ele><time>2026-04-18T11:58:58.44Z</time></trkpt><trkpt lat="43.4671529" lon="10.6307545"><ele>365.0</ele><time>2026-04-18T11:58:59.44Z</time></trkpt><trkpt lat="43.4670481" lon="10.6307368"><ele>365.0</ele><time>2026-04-18T11:59:00.451Z</time></trkpt><trkpt lat="43.4669428" lon="10.6307468"><ele>364.83333333333337</ele><time>2026-04-18T11:59:01.449Z</time></trkpt><trkpt lat="43.4668402" lon="10.6307724"><ele>364.6666666666667</ele><time>2026-04-18T11:59:02.455Z</time></trkpt><trkpt lat="43.4667549" lon="10.6308234"><ele>364.5</ele><time>2026-04-18T11:59:03.448Z</time></trkpt><trkpt lat="43.466686" lon="10.6308694"><ele>364.3333333333333</ele><time>2026-04-18T11:59:04.442Z</time></trkpt><trkpt lat="43.4666297" lon="10.630912"><ele>364.16666666666663</ele><time>2026-04-18T11:59:05.441Z</time></trkpt><trkpt lat="43.4665431" lon="10.6309607"><ele>364.0</ele><time>2026-04-18T11:59:07.441Z</time></trkpt><trkpt lat="43.4664579" lon="10.6309965"><ele>364.0</ele><time>2026-04-18T11:59:09.451Z</time></trkpt><trkpt lat="43.4663585" lon="10.6309612"><ele>364.0</ele><time>2026-04-18T11:59:11.45Z</time></trkpt><trkpt lat="43.4662528" lon="10.6309044"><ele>364.0</ele><time>2026-04-18T11:59:13.445Z</time></trkpt><trkpt lat="43.4661588" lon="10.6308388"><ele>364.0</ele><time>2026-04-18T11:59:15.439Z</time></trkpt><trkpt lat="43.4661048" lon="10.6307364"><ele>364.0</ele><time>2026-04-18T11:59:17.447Z</time></trkpt><trkpt lat="43.4660729" lon="10.630607"><ele>363.79999999999995</ele><time>2026-04-18T11:59:19.439Z</time></trkpt><trkpt lat="43.4660385" lon="10.6304648"><ele>363.59999999999997</ele><time>2026-04-18T11:59:21.443Z</time></trkpt><trkpt lat="43.4660546" lon="10.6302936"><ele>363.4</ele><time>2026-04-18T11:59:23.46Z</time></trkpt><trkpt lat="43.4660665" lon="10.6302018"><ele>363.2</ele><time>2026-04-18T11:59:24.452Z</time></trkpt><trkpt lat="43.4660744" lon="10.6300389"><ele>363.0</ele><time>2026-04-18T11:59:26.455Z</time></trkpt><trkpt lat="43.466032" lon="10.6298621"><ele>363.2857142857143</ele><time>2026-04-18T11:59:28.465Z</time></trkpt><trkpt lat="43.4659862" lon="10.6297891"><ele>363.57142857142856</ele><time>2026-04-18T11:59:29.456Z</time></trkpt><trkpt lat="43.4659396" lon="10.6297154"><ele>363.8571428571429</ele><time>2026-04-18T11:59:30.446Z</time></trkpt><trkpt lat="43.465888" lon="10.6296456"><ele>364.1428571428571</ele><time>2026-04-18T11:59:31.442Z</time></trkpt><trkpt lat="43.4658389" lon="10.6295675"><ele>364.42857142857144</ele><time>2026-04-18T11:59:32.447Z</time></trkpt><trkpt lat="43.4657855" lon="10.6294812"><ele>364.7142857142857</ele><time>2026-04-18T11:59:33.44Z</time></trkpt><trkpt lat="43.4657364" lon="10.6293961"><ele>365.0</ele><time>2026-04-18T11:59:34.484Z</time></trkpt><trkpt lat="43.4656858" lon="10.6293147"><ele>364.0</ele><time>2026-04-18T11:59:35.457Z</time></trkpt><trkpt lat="43.4656257" lon="10.6292328"><ele>363.0</ele><time>2026-04-18T11:59:36.455Z</time></trkpt><trkpt lat="43.4655616" lon="10.629167"><ele>362.0</ele><time>2026-04-18T11:59:37.445Z</time></trkpt><trkpt lat="43.4654934" lon="10.629106"><ele>361.0</ele><time>2026-04-18T11:59:38.452Z</time></trkpt><trkpt lat="43.4654248" lon="10.6290404"><ele>360.0</ele><time>2026-04-18T11:59:39.447Z</time></trkpt><trkpt lat="43.4653613" lon="10.6289612"><ele>359.0</ele><time>2026-04-18T11:59:40.433Z</time></trkpt><trkpt lat="43.4652977" lon="10.6288782"><ele>359.0</ele><time>2026-04-18T11:59:41.448Z</time></trkpt><trkpt lat="43.4652444" lon="10.6287881"><ele>359.0</ele><time>2026-04-18T11:59:42.446Z</time></trkpt><trkpt lat="43.4651933" lon="10.6286983"><ele>359.0</ele><time>2026-04-18T11:59:43.456Z</time></trkpt><trkpt lat="43.4651366" lon="10.628623"><ele>359.0</ele><time>2026-04-18T11:59:44.45Z</time></trkpt><trkpt lat="43.4650904" lon="10.628542"><ele>359.0</ele><time>2026-04-18T11:59:45.437Z</time></trkpt><trkpt lat="43.4650548" lon="10.6284689"><ele>359.0</ele><time>2026-04-18T11:59:46.454Z</time></trkpt><trkpt lat="43.4650356" lon="10.6283052"><ele>360.14285714285717</ele><time>2026-04-18T11:59:48.443Z</time></trkpt><trkpt lat="43.4650541" lon="10.6282178"><ele>361.28571428571433</ele><time>2026-04-18T11:59:49.456Z</time></trkpt><trkpt lat="43.4650906" lon="10.6281268"><ele>362.42857142857144</ele><time>2026-04-18T11:59:50.446Z</time></trkpt><trkpt lat="43.4651295" lon="10.6280424"><ele>363.57142857142856</ele><time>2026-04-18T11:59:51.438Z</time></trkpt><trkpt lat="43.465169" lon="10.6279649"><ele>364.7142857142857</ele><time>2026-04-18T11:59:52.444Z</time></trkpt><trkpt lat="43.4652108" lon="10.6278896"><ele>365.85714285714283</ele><time>2026-04-18T11:59:53.434Z</time></trkpt><trkpt lat="43.4652501" lon="10.6278104"><ele>367.0</ele><time>2026-04-18T11:59:54.453Z</time></trkpt><trkpt lat="43.4652887" lon="10.6277343"><ele>367.8</ele><time>2026-04-18T11:59:55.455Z</time></trkpt><trkpt lat="43.4653346" lon="10.6276625"><ele>368.6</ele><time>2026-04-18T11:59:56.45Z</time></trkpt><trkpt lat="43.4654177" lon="10.6275316"><ele>369.40000000000003</ele><time>2026-04-18T11:59:58.433Z</time></trkpt><trkpt lat="43.465484" lon="10.6274219"><ele>370.20000000000005</ele><time>2026-04-18T12:00:00.446Z</time></trkpt><trkpt lat="43.4654802" lon="10.6273027"><ele>371.0</ele><time>2026-04-18T12:00:02.446Z</time></trkpt><trkpt lat="43.4654177" lon="10.6271999"><ele>371.0</ele><time>2026-04-18T12:00:04.439Z</time></trkpt><trkpt lat="43.4653533" lon="10.6271647"><ele>371.0</ele><time>2026-04-18T12:00:06.448Z</time></trkpt><trkpt lat="43.4652831" lon="10.6271744"><ele>371.0</ele><time>2026-04-18T12:00:13.432Z</time></trkpt><trkpt lat="43.4652132" lon="10.62714"><ele>371.0</ele><time>2026-04-18T12:01:12.43Z</time></trkpt><trkpt lat="43.4651445" lon="10.627128"><ele>371.0</ele><time>2026-04-18T12:01:14.437Z</time></trkpt><trkpt lat="43.4650754" lon="10.6271192"><ele>371.0</ele><time>2026-04-18T12:01:16.433Z</time></trkpt><trkpt lat="43.4649733" lon="10.6270932"><ele>371.0</ele><time>2026-04-18T12:01:18.428Z</time></trkpt><trkpt lat="43.4648489" lon="10.627075"><ele>371.0</ele><time>2026-04-18T12:01:20.44Z</time></trkpt><trkpt lat="43.4647861" lon="10.6270477"><ele>371.0</ele><time>2026-04-18T12:01:21.43Z</time></trkpt><trkpt lat="43.46473" lon="10.6270052"><ele>371.0</ele><time>2026-04-18T12:01:22.441Z</time></trkpt><trkpt lat="43.4646355" lon="10.6269278"><ele>371.0</ele><time>2026-04-18T12:01:24.439Z</time></trkpt><trkpt lat="43.4645451" lon="10.6268136"><ele>369.20000000000005</ele><time>2026-04-18T12:01:26.441Z</time></trkpt><trkpt lat="43.4644821" lon="10.6266488"><ele>367.40000000000003</ele><time>2026-04-18T12:01:28.44Z</time></trkpt><trkpt lat="43.4644581" lon="10.6264743"><ele>365.6</ele><time>2026-04-18T12:01:30.446Z</time></trkpt><trkpt lat="43.4644506" lon="10.6263733"><ele>363.8</ele><time>2026-04-18T12:01:31.452Z</time></trkpt><trkpt lat="43.4644576" lon="10.6262819"><ele>362.0</ele><time>2026-04-18T12:01:32.442Z</time></trkpt><trkpt lat="43.4644626" lon="10.6261787"><ele>362.57142857142856</ele><time>2026-04-18T12:01:33.454Z</time></trkpt><trkpt lat="43.4644749" lon="10.626086"><ele>363.1428571428571</ele><time>2026-04-18T12:01:34.443Z</time></trkpt><trkpt lat="43.4645013" lon="10.6260039"><ele>363.7142857142857</ele><time>2026-04-18T12:01:35.448Z</time></trkpt><trkpt lat="43.4645399" lon="10.6259251"><ele>364.2857142857143</ele><time>2026-04-18T12:01:36.447Z</time></trkpt><trkpt lat="43.4645839" lon="10.6258548"><ele>364.8571428571429</ele><time>2026-04-18T12:01:37.436Z</time></trkpt><trkpt lat="43.4646316" lon="10.625784"><ele>365.42857142857144</ele><time>2026-04-18T12:01:38.437Z</time></trkpt><trkpt lat="43.464679" lon="10.6257203"><ele>366.0</ele><time>2026-04-18T12:01:39.451Z</time></trkpt><trkpt lat="43.4647197" lon="10.6256517"><ele>371.1666666666667</ele><time>2026-04-18T12:01:40.444Z</time></trkpt><trkpt lat="43.4647599" lon="10.6255812"><ele>376.33333333333337</ele><time>2026-04-18T12:01:41.449Z</time></trkpt><trkpt lat="43.464804" lon="10.6254176"><ele>381.5</ele><time>2026-04-18T12:01:43.437Z</time></trkpt><trkpt lat="43.4647955" lon="10.6253209"><ele>386.6666666666667</ele><time>2026-04-18T12:01:44.442Z</time></trkpt><trkpt lat="43.4647774" lon="10.6252189"><ele>391.83333333333337</ele><time>2026-04-18T12:01:45.465Z</time></trkpt><trkpt lat="43.4647629" lon="10.6251279"><ele>397.0</ele><time>2026-04-18T12:01:46.435Z</time></trkpt><trkpt lat="43.4647935" lon="10.6249744"><ele>397.0</ele><time>2026-04-18T12:01:48.439Z</time></trkpt><trkpt lat="43.4648345" lon="10.624895"><ele>397.0</ele><time>2026-04-18T12:01:49.446Z</time></trkpt><trkpt lat="43.4648816" lon="10.6248177"><ele>397.0</ele><time>2026-04-18T12:01:50.438Z</time></trkpt><trkpt lat="43.4649255" lon="10.6247484"><ele>397.0</ele><time>2026-04-18T12:01:51.436Z</time></trkpt><trkpt lat="43.4649753" lon="10.6246762"><ele>397.0</ele><time>2026-04-18T12:01:52.434Z</time></trkpt><trkpt lat="43.4650206" lon="10.6245987"><ele>397.0</ele><time>2026-04-18T12:01:53.429Z</time></trkpt><trkpt lat="43.4650698" lon="10.6245253"><ele>397.0</ele><time>2026-04-18T12:01:54.438Z</time></trkpt><trkpt lat="43.4651265" lon="10.6244566"><ele>394.83333333333337</ele><time>2026-04-18T12:01:55.441Z</time></trkpt><trkpt lat="43.4651816" lon="10.6243813"><ele>392.6666666666667</ele><time>2026-04-18T12:01:56.444Z</time></trkpt><trkpt lat="43.4652173" lon="10.6242889"><ele>390.5</ele><time>2026-04-18T12:01:57.429Z</time></trkpt><trkpt lat="43.4652418" lon="10.6241942"><ele>388.33333333333337</ele><time>2026-04-18T12:01:58.442Z</time></trkpt><trkpt lat="43.4652736" lon="10.6241049"><ele>386.1666666666667</ele><time>2026-04-18T12:01:59.44Z</time></trkpt><trkpt lat="43.465313" lon="10.6240233"><ele>384.0</ele><time>2026-04-18T12:02:00.447Z</time></trkpt><trkpt lat="43.4653655" lon="10.623937"><ele>384.0</ele><time>2026-04-18T12:02:01.436Z</time></trkpt><trkpt lat="43.4654231" lon="10.6238536"><ele>384.0</ele><time>2026-04-18T12:02:02.441Z</time></trkpt><trkpt lat="43.4654845" lon="10.6237628"><ele>384.0</ele><time>2026-04-18T12:02:03.443Z</time></trkpt><trkpt lat="43.4655313" lon="10.6236641"><ele>384.0</ele><time>2026-04-18T12:02:04.437Z</time></trkpt><trkpt lat="43.4655782" lon="10.623558"><ele>384.0</ele><time>2026-04-18T12:02:05.452Z</time></trkpt><trkpt lat="43.4656224" lon="10.6234491"><ele>384.0</ele><time>2026-04-18T12:02:06.442Z</time></trkpt><trkpt lat="43.4656735" lon="10.6233601"><ele>386.2857142857143</ele><time>2026-04-18T12:02:07.446Z</time></trkpt><trkpt lat="43.4657143" lon="10.6232834"><ele>388.57142857142856</ele><time>2026-04-18T12:02:08.453Z</time></trkpt><trkpt lat="43.465766" lon="10.6232253"><ele>390.8571428571429</ele><time>2026-04-18T12:02:09.453Z</time></trkpt><trkpt lat="43.465836" lon="10.6231833"><ele>393.1428571428571</ele><time>2026-04-18T12:02:10.436Z</time></trkpt><trkpt lat="43.4659128" lon="10.6231609"><ele>395.42857142857144</ele><time>2026-04-18T12:02:11.45Z</time></trkpt><trkpt lat="43.4659893" lon="10.6231536"><ele>397.7142857142857</ele><time>2026-04-18T12:02:12.458Z</time></trkpt><trkpt lat="43.4660675" lon="10.6231414"><ele>400.0</ele><time>2026-04-18T12:02:13.436Z</time></trkpt><trkpt lat="43.4661457" lon="10.6231155"><ele>400.00000000000006</ele><time>2026-04-18T12:02:14.439Z</time></trkpt><trkpt lat="43.4662183" lon="10.6230921"><ele>400.0</ele><time>2026-04-18T12:02:15.431Z</time></trkpt><trkpt lat="43.4662872" lon="10.6230663"><ele>400.0</ele><time>2026-04-18T12:02:16.45Z</time></trkpt><trkpt lat="43.4663423" lon="10.6230212"><ele>400.0</ele><time>2026-04-18T12:02:17.448Z</time></trkpt><trkpt lat="43.4664475" lon="10.6229202"><ele>400.00000000000006</ele><time>2026-04-18T12:02:19.447Z</time></trkpt><trkpt lat="43.4664963" lon="10.6228544"><ele>400.0</ele><time>2026-04-18T12:02:20.438Z</time></trkpt><trkpt lat="43.466526" lon="10.6227564"><ele>402.1666666666667</ele><time>2026-04-18T12:02:21.451Z</time></trkpt><trkpt lat="43.4665356" lon="10.6226512"><ele>404.33333333333337</ele><time>2026-04-18T12:02:22.459Z</time></trkpt><trkpt lat="43.4665342" lon="10.6225382"><ele>406.5</ele><time>2026-04-18T12:02:23.435Z</time></trkpt><trkpt lat="43.4665286" lon="10.6224272"><ele>408.66666666666663</ele><time>2026-04-18T12:02:24.445Z</time></trkpt><trkpt lat="43.4665431" lon="10.6223219"><ele>410.8333333333333</ele><time>2026-04-18T12:02:25.449Z</time></trkpt><trkpt lat="43.4665579" lon="10.6222081"><ele>413.0</ele><time>2026-04-18T12:02:26.439Z</time></trkpt><trkpt lat="43.4665676" lon="10.6220734"><ele>411.3333333333333</ele><time>2026-04-18T12:02:27.459Z</time></trkpt><trkpt lat="43.4665981" lon="10.6219489"><ele>409.66666666666663</ele><time>2026-04-18T12:02:28.453Z</time></trkpt><trkpt lat="43.4666322" lon="10.6218516"><ele>408.0</ele><time>2026-04-18T12:02:29.441Z</time></trkpt><trkpt lat="43.4666653" lon="10.6217743"><ele>406.33333333333337</ele><time>2026-04-18T12:02:30.439Z</time></trkpt><trkpt lat="43.466713" lon="10.6217065"><ele>404.6666666666667</ele><time>2026-04-18T12:02:31.443Z</time></trkpt><trkpt lat="43.4667632" lon="10.6216485"><ele>403.0</ele><time>2026-04-18T12:02:32.438Z</time></trkpt><trkpt lat="43.4668508" lon="10.6215406"><ele>403.0</ele><time>2026-04-18T12:02:34.443Z</time></trkpt><trkpt lat="43.466885" lon="10.6213808"><ele>403.0</ele><time>2026-04-18T12:02:36.448Z</time></trkpt><trkpt lat="43.466897" lon="10.6212776"><ele>403.0</ele><time>2026-04-18T12:02:37.446Z</time></trkpt><trkpt lat="43.4669036" lon="10.621111"><ele>403.0</ele><time>2026-04-18T12:02:39.446Z</time></trkpt><trkpt lat="43.4668873" lon="10.6210214"><ele>403.0</ele><time>2026-04-18T12:02:40.437Z</time></trkpt><trkpt lat="43.4668539" lon="10.620942"><ele>402.00000000000006</ele><time>2026-04-18T12:02:41.446Z</time></trkpt><trkpt lat="43.466812" lon="10.6208429"><ele>401.0</ele><time>2026-04-18T12:02:42.445Z</time></trkpt><trkpt lat="43.4667847" lon="10.62073"><ele>400.0</ele><time>2026-04-18T12:02:43.437Z</time></trkpt><trkpt lat="43.4667484" lon="10.6206435"><ele>399.0</ele><time>2026-04-18T12:02:44.45Z</time></trkpt><trkpt lat="43.466723" lon="10.6205565"><ele>398.00000000000006</ele><time>2026-04-18T12:02:45.429Z</time></trkpt><trkpt lat="43.4667091" lon="10.6204568"><ele>397.0</ele><time>2026-04-18T12:02:46.446Z</time></trkpt><trkpt lat="43.4667204" lon="10.6203642"><ele>398.50000000000006</ele><time>2026-04-18T12:02:47.451Z</time></trkpt><trkpt lat="43.4667293" lon="10.6202564"><ele>400.0</ele><time>2026-04-18T12:02:48.454Z</time></trkpt><trkpt lat="43.4667345" lon="10.6201409"><ele>401.5</ele><time>2026-04-18T12:02:49.446Z</time></trkpt><trkpt lat="43.4667485" lon="10.6200105"><ele>403.0</ele><time>2026-04-18T12:02:50.451Z</time></trkpt><trkpt lat="43.4667655" lon="10.6198836"><ele>404.50000000000006</ele><time>2026-04-18T12:02:51.444Z</time></trkpt><trkpt lat="43.4667764" lon="10.6197701"><ele>406.0</ele><time>2026-04-18T12:02:52.438Z</time></trkpt><trkpt lat="43.4667785" lon="10.6196655"><ele>406.00000000000006</ele><time>2026-04-18T12:02:53.445Z</time></trkpt><trkpt lat="43.4667745" lon="10.6195591"><ele>406.0</ele><time>2026-04-18T12:02:54.429Z</time></trkpt><trkpt lat="43.4667586" lon="10.6194476"><ele>406.0</ele><time>2026-04-18T12:02:55.46Z</time></trkpt><trkpt lat="43.4667341" lon="10.6193365"><ele>406.0</ele><time>2026-04-18T12:02:56.432Z</time></trkpt><trkpt lat="43.4667155" lon="10.6192293"><ele>406.00000000000006</ele><time>2026-04-18T12:02:57.442Z</time></trkpt><trkpt lat="43.4667071" lon="10.6191263"><ele>406.0</ele><time>2026-04-18T12:02:58.44Z</time></trkpt><trkpt lat="43.4667018" lon="10.6190343"><ele>407.00000000000006</ele><time>2026-04-18T12:02:59.434Z</time></trkpt><trkpt lat="43.4667071" lon="10.6189363"><ele>408.0</ele><time>2026-04-18T12:03:00.434Z</time></trkpt><trkpt lat="43.4667036" lon="10.6188412"><ele>409.0</ele><time>2026-04-18T12:03:01.439Z</time></trkpt><trkpt lat="43.4666803" lon="10.6187368"><ele>410.0</ele><time>2026-04-18T12:03:02.444Z</time></trkpt><trkpt lat="43.4666393" lon="10.6186419"><ele>411.00000000000006</ele><time>2026-04-18T12:03:03.446Z</time></trkpt><trkpt lat="43.4665884" lon="10.6185501"><ele>412.0</ele><time>2026-04-18T12:03:04.434Z</time></trkpt><trkpt lat="43.4665469" lon="10.6184612"><ele>410.57142857142856</ele><time>2026-04-18T12:03:05.447Z</time></trkpt><trkpt lat="43.4665047" lon="10.6183881"><ele>409.1428571428571</ele><time>2026-04-18T12:03:06.429Z</time></trkpt><trkpt lat="43.466464" lon="10.6183073"><ele>407.71428571428567</ele><time>2026-04-18T12:03:07.436Z</time></trkpt><trkpt lat="43.4664288" lon="10.6182234"><ele>406.2857142857143</ele><time>2026-04-18T12:03:08.435Z</time></trkpt><trkpt lat="43.4663963" lon="10.6181348"><ele>404.8571428571429</ele><time>2026-04-18T12:03:09.429Z</time></trkpt><trkpt lat="43.4663521" lon="10.6180479"><ele>403.4285714285714</ele><time>2026-04-18T12:03:10.447Z</time></trkpt><trkpt lat="43.4662962" lon="10.6179607"><ele>402.0</ele><time>2026-04-18T12:03:11.433Z</time></trkpt><trkpt lat="43.4662459" lon="10.6178913"><ele>404.0</ele><time>2026-04-18T12:03:12.438Z</time></trkpt><trkpt lat="43.4662039" lon="10.6178102"><ele>406.0</ele><time>2026-04-18T12:03:13.436Z</time></trkpt><trkpt lat="43.4661608" lon="10.6177395"><ele>408.0</ele><time>2026-04-18T12:03:14.439Z</time></trkpt><trkpt lat="43.4661346" lon="10.6176429"><ele>410.0</ele><time>2026-04-18T12:03:15.438Z</time></trkpt><trkpt lat="43.4661122" lon="10.617539"><ele>412.0</ele><time>2026-04-18T12:03:16.433Z</time></trkpt><trkpt lat="43.4660771" lon="10.6174424"><ele>414.0</ele><time>2026-04-18T12:03:17.431Z</time></trkpt><trkpt lat="43.466042" lon="10.6173422"><ele>414.00000000000006</ele><time>2026-04-18T12:03:18.435Z</time></trkpt><trkpt lat="43.4660015" lon="10.6172495"><ele>414.0</ele><time>2026-04-18T12:03:19.452Z</time></trkpt><trkpt lat="43.4659677" lon="10.6171599"><ele>414.0</ele><time>2026-04-18T12:03:20.436Z</time></trkpt><trkpt lat="43.4659331" lon="10.617067"><ele>414.0</ele><time>2026-04-18T12:03:21.446Z</time></trkpt><trkpt lat="43.4659023" lon="10.6169774"><ele>414.0</ele><time>2026-04-18T12:03:22.432Z</time></trkpt><trkpt lat="43.4658701" lon="10.6168821"><ele>414.00000000000006</ele><time>2026-04-18T12:03:23.442Z</time></trkpt><trkpt lat="43.4658476" lon="10.6167887"><ele>414.0</ele><time>2026-04-18T12:03:24.432Z</time></trkpt><trkpt lat="43.4658199" lon="10.6166884"><ele>416.5714285714286</ele><time>2026-04-18T12:03:25.438Z</time></trkpt><trkpt lat="43.4657996" lon="10.6165885"><ele>419.14285714285717</ele><time>2026-04-18T12:03:26.44Z</time></trkpt><trkpt lat="43.465785" lon="10.6164891"><ele>421.7142857142857</ele><time>2026-04-18T12:03:27.426Z</time></trkpt><trkpt lat="43.4657663" lon="10.6163891"><ele>424.28571428571433</ele><time>2026-04-18T12:03:28.447Z</time></trkpt><trkpt lat="43.4657396" lon="10.6162958"><ele>426.85714285714283</ele><time>2026-04-18T12:03:29.442Z</time></trkpt><trkpt lat="43.4657149" lon="10.6161966"><ele>429.42857142857144</ele><time>2026-04-18T12:03:30.431Z</time></trkpt><trkpt lat="43.4656875" lon="10.6160993"><ele>432.0</ele><time>2026-04-18T12:03:31.429Z</time></trkpt><trkpt lat="43.4656624" lon="10.6160052"><ele>433.5</ele><time>2026-04-18T12:03:32.451Z</time></trkpt><trkpt lat="43.4656371" lon="10.615916"><ele>435.0</ele><time>2026-04-18T12:03:33.45Z</time></trkpt><trkpt lat="43.4656274" lon="10.6157518"><ele>436.5</ele><time>2026-04-18T12:03:35.438Z</time></trkpt><trkpt lat="43.4656711" lon="10.6156041"><ele>438.0</ele><time>2026-04-18T12:03:37.436Z</time></trkpt><trkpt lat="43.4657209" lon="10.6155404"><ele>439.5</ele><time>2026-04-18T12:03:38.444Z</time></trkpt><trkpt lat="43.4657673" lon="10.6154738"><ele>441.0</ele><time>2026-04-18T12:03:39.435Z</time></trkpt><trkpt lat="43.4658087" lon="10.6153945"><ele>441.14285714285717</ele><time>2026-04-18T12:03:40.435Z</time></trkpt><trkpt lat="43.4658303" lon="10.6153022"><ele>441.2857142857143</ele><time>2026-04-18T12:03:41.436Z</time></trkpt><trkpt lat="43.4658379" lon="10.6151989"><ele>441.42857142857144</ele><time>2026-04-18T12:03:42.435Z</time></trkpt><trkpt lat="43.4658384" lon="10.6151015"><ele>441.57142857142856</ele><time>2026-04-18T12:03:43.455Z</time></trkpt><trkpt lat="43.4658412" lon="10.6149977"><ele>441.7142857142857</ele><time>2026-04-18T12:03:44.432Z</time></trkpt><trkpt lat="43.4658515" lon="10.6148884"><ele>441.8571428571429</ele><time>2026-04-18T12:03:45.424Z</time></trkpt><trkpt lat="43.4658604" lon="10.6147967"><ele>442.0</ele><time>2026-04-18T12:03:46.441Z</time></trkpt><trkpt lat="43.4658924" lon="10.6147076"><ele>442.00000000000006</ele><time>2026-04-18T12:03:47.425Z</time></trkpt><trkpt lat="43.4659325" lon="10.6146268"><ele>442.0</ele><time>2026-04-18T12:03:48.425Z</time></trkpt><trkpt lat="43.4659765" lon="10.6145465"><ele>442.0</ele><time>2026-04-18T12:03:49.436Z</time></trkpt><trkpt lat="43.4660313" lon="10.6144585"><ele>442.0</ele><time>2026-04-18T12:03:50.424Z</time></trkpt><trkpt lat="43.4660853" lon="10.6143689"><ele>442.00000000000006</ele><time>2026-04-18T12:03:51.446Z</time></trkpt><trkpt lat="43.4661361" lon="10.6142748"><ele>442.0</ele><time>2026-04-18T12:03:52.427Z</time></trkpt><trkpt lat="43.4661846" lon="10.6141855"><ele>443.50000000000006</ele><time>2026-04-18T12:03:53.428Z</time></trkpt><trkpt lat="43.4662299" lon="10.6140945"><ele>445.0</ele><time>2026-04-18T12:03:54.453Z</time></trkpt><trkpt lat="43.4662773" lon="10.6140094"><ele>446.5</ele><time>2026-04-18T12:03:55.447Z</time></trkpt><trkpt lat="43.4662949" lon="10.6139066"><ele>448.0</ele><time>2026-04-18T12:03:56.447Z</time></trkpt><trkpt lat="43.466304" lon="10.6138055"><ele>449.50000000000006</ele><time>2026-04-18T12:03:57.454Z</time></trkpt><trkpt lat="43.4663031" lon="10.613709"><ele>451.0</ele><time>2026-04-18T12:03:58.466Z</time></trkpt><trkpt lat="43.4662688" lon="10.6136198"><ele>451.0</ele><time>2026-04-18T12:03:59.444Z</time></trkpt><trkpt lat="43.4662038" lon="10.6135525"><ele>451.0</ele><time>2026-04-18T12:04:00.448Z</time></trkpt><trkpt lat="43.4661027" lon="10.6135069"><ele>451.0</ele><time>2026-04-18T12:04:02.447Z</time></trkpt><trkpt lat="43.4660067" lon="10.6135447"><ele>451.0</ele><time>2026-04-18T12:04:04.437Z</time></trkpt><trkpt lat="43.4659144" lon="10.6135986"><ele>451.0</ele><time>2026-04-18T12:04:06.454Z</time></trkpt><trkpt lat="43.465826" lon="10.6136857"><ele>451.00000000000006</ele><time>2026-04-18T12:04:08.444Z</time></trkpt><trkpt lat="43.4657752" lon="10.6137399"><ele>451.0</ele><time>2026-04-18T12:04:09.441Z</time></trkpt><trkpt lat="43.4656778" lon="10.6138441"><ele>451.0</ele><time>2026-04-18T12:04:11.445Z</time></trkpt><trkpt lat="43.4656218" lon="10.6138851"><ele>451.0</ele><time>2026-04-18T12:04:12.426Z</time></trkpt><trkpt lat="43.4655696" lon="10.61395"><ele>451.00000000000006</ele><time>2026-04-18T12:04:13.444Z</time></trkpt><trkpt lat="43.4655254" lon="10.6140125"><ele>451.0</ele><time>2026-04-18T12:04:14.429Z</time></trkpt><trkpt lat="43.4654774" lon="10.6140757"><ele>454.20000000000005</ele><time>2026-04-18T12:04:15.427Z</time></trkpt><trkpt lat="43.465435" lon="10.6141399"><ele>457.40000000000003</ele><time>2026-04-18T12:04:16.443Z</time></trkpt><trkpt lat="43.4653652" lon="10.6142575"><ele>460.6</ele><time>2026-04-18T12:04:18.45Z</time></trkpt><trkpt lat="43.4653163" lon="10.614384"><ele>463.8</ele><time>2026-04-18T12:04:20.452Z</time></trkpt><trkpt lat="43.4652601" lon="10.6144813"><ele>467.0</ele><time>2026-04-18T12:04:22.437Z</time></trkpt><trkpt lat="43.465191" lon="10.6145846"><ele>467.0</ele><time>2026-04-18T12:04:24.451Z</time></trkpt><trkpt lat="43.4651135" lon="10.6146701"><ele>467.00000000000006</ele><time>2026-04-18T12:04:26.458Z</time></trkpt><trkpt lat="43.4650338" lon="10.6147669"><ele>467.00000000000006</ele><time>2026-04-18T12:04:28.426Z</time></trkpt><trkpt lat="43.464951" lon="10.6148653"><ele>467.0</ele><time>2026-04-18T12:04:30.433Z</time></trkpt><trkpt lat="43.4648865" lon="10.6149796"><ele>467.0</ele><time>2026-04-18T12:04:32.45Z</time></trkpt><trkpt lat="43.4648226" lon="10.6151054"><ele>467.0</ele><time>2026-04-18T12:04:34.443Z</time></trkpt><trkpt lat="43.4647805" lon="10.6152349"><ele>467.00000000000006</ele><time>2026-04-18T12:04:36.454Z</time></trkpt><trkpt lat="43.4647145" lon="10.6153341"><ele>467.00000000000006</ele><time>2026-04-18T12:04:38.444Z</time></trkpt><trkpt lat="43.4646387" lon="10.615457"><ele>467.0</ele><time>2026-04-18T12:04:40.451Z</time></trkpt><trkpt lat="43.464566" lon="10.6155869"><ele>467.0</ele><time>2026-04-18T12:04:42.448Z</time></trkpt><trkpt lat="43.4644908" lon="10.6157074"><ele>468.16666666666663</ele><time>2026-04-18T12:04:44.434Z</time></trkpt><trkpt lat="43.4644172" lon="10.6157952"><ele>469.3333333333333</ele><time>2026-04-18T12:04:46.454Z</time></trkpt><trkpt lat="43.4643651" lon="10.6158931"><ele>470.5</ele><time>2026-04-18T12:04:48.473Z</time></trkpt><trkpt lat="43.4643532" lon="10.6159799"><ele>471.66666666666663</ele><time>2026-04-18T12:04:50.484Z</time></trkpt><trkpt lat="43.4643368" lon="10.6160697"><ele>472.8333333333333</ele><time>2026-04-18T12:04:52.459Z</time></trkpt><trkpt lat="43.464318" lon="10.6161669"><ele>474.0</ele><time>2026-04-18T12:04:54.439Z</time></trkpt><trkpt lat="43.4642942" lon="10.6162664"><ele>471.5714285714285</ele><time>2026-04-18T12:04:56.446Z</time></trkpt><trkpt lat="43.4642661" lon="10.6163694"><ele>469.1428571428571</ele><time>2026-04-18T12:04:58.452Z</time></trkpt><trkpt lat="43.4642278" lon="10.6164761"><ele>466.7142857142857</ele><time>2026-04-18T12:05:00.46Z</time></trkpt><trkpt lat="43.4641996" lon="10.6165557"><ele>464.2857142857143</ele><time>2026-04-18T12:05:02.48Z</time></trkpt><trkpt lat="43.464164" lon="10.6166415"><ele>461.8571428571429</ele><time>2026-04-18T12:05:04.454Z</time></trkpt><trkpt lat="43.4641076" lon="10.6166962"><ele>459.4285714285715</ele><time>2026-04-18T12:05:08.464Z</time></trkpt><trkpt lat="43.4640654" lon="10.6166217"><ele>457.00000000000006</ele><time>2026-04-18T12:05:27.45Z</time></trkpt><trkpt lat="43.4640285" lon="10.6165279"><ele>457.00000000000006</ele><time>2026-04-18T12:05:30.482Z</time></trkpt><trkpt lat="43.4640147" lon="10.616432"><ele>457.0</ele><time>2026-04-18T12:05:32.457Z</time></trkpt><trkpt lat="43.464005" lon="10.6163454"><ele>457.0</ele><time>2026-04-18T12:05:34.458Z</time></trkpt><trkpt lat="43.4639742" lon="10.6162551"><ele>457.0</ele><time>2026-04-18T12:05:36.475Z</time></trkpt><trkpt lat="43.4639345" lon="10.616165"><ele>457.00000000000006</ele><time>2026-04-18T12:05:38.46Z</time></trkpt><trkpt lat="43.4638833" lon="10.6160556"><ele>457.0</ele><time>2026-04-18T12:05:40.46Z</time></trkpt><trkpt lat="43.4638407" lon="10.6159504"><ele>459.28571428571433</ele><time>2026-04-18T12:05:42.462Z</time></trkpt><trkpt lat="43.4638023" lon="10.6158602"><ele>461.57142857142856</ele><time>2026-04-18T12:05:44.462Z</time></trkpt><trkpt lat="43.4637531" lon="10.6157643"><ele>463.8571428571429</ele><time>2026-04-18T12:05:46.445Z</time></trkpt><trkpt lat="43.4637088" lon="10.6156913"><ele>466.14285714285717</ele><time>2026-04-18T12:05:48.452Z</time></trkpt><trkpt lat="43.4636849" lon="10.6156076"><ele>468.42857142857144</ele><time>2026-04-18T12:05:50.474Z</time></trkpt><trkpt lat="43.4636483" lon="10.6155204"><ele>470.7142857142857</ele><time>2026-04-18T12:05:52.463Z</time></trkpt><trkpt lat="43.4636095" lon="10.615451"><ele>473.0</ele><time>2026-04-18T12:05:54.442Z</time></trkpt><trkpt lat="43.463564" lon="10.6153436"><ele>472.99999999999994</ele><time>2026-04-18T12:05:57.436Z</time></trkpt><trkpt lat="43.4635342" lon="10.615263"><ele>473.0</ele><time>2026-04-18T12:05:59.445Z</time></trkpt><trkpt lat="43.4634943" lon="10.6151937"><ele>473.0</ele><time>2026-04-18T12:06:01.44Z</time></trkpt><trkpt lat="43.4634073" lon="10.6152044"><ele>473.0</ele><time>2026-04-18T12:06:04.437Z</time></trkpt><trkpt lat="43.4633363" lon="10.6152785"><ele>472.99999999999994</ele><time>2026-04-18T12:06:06.446Z</time></trkpt><trkpt lat="43.4632983" lon="10.6153693"><ele>473.0</ele><time>2026-04-18T12:06:08.443Z</time></trkpt><trkpt lat="43.4632648" lon="10.6154955"><ele>473.0</ele><time>2026-04-18T12:06:10.435Z</time></trkpt><trkpt lat="43.4632687" lon="10.6155956"><ele>473.0</ele><time>2026-04-18T12:06:11.437Z</time></trkpt><trkpt lat="43.4632584" lon="10.6156858"><ele>473.0</ele><time>2026-04-18T12:06:12.451Z</time></trkpt><trkpt lat="43.4632483" lon="10.6157721"><ele>473.0</ele><time>2026-04-18T12:06:13.441Z</time></trkpt><trkpt lat="43.4632437" lon="10.6158606"><ele>473.0</ele><time>2026-04-18T12:06:14.431Z</time></trkpt><trkpt lat="43.4632426" lon="10.6159519"><ele>473.0</ele><time>2026-04-18T12:06:15.449Z</time></trkpt><trkpt lat="43.4632503" lon="10.6161116"><ele>473.0</ele><time>2026-04-18T12:06:17.445Z</time></trkpt><trkpt lat="43.4632432" lon="10.6161984"><ele>470.79999999999995</ele><time>2026-04-18T12:06:18.435Z</time></trkpt><trkpt lat="43.463208" lon="10.6163591"><ele>468.59999999999997</ele><time>2026-04-18T12:06:20.435Z</time></trkpt><trkpt lat="43.4631525" lon="10.6165049"><ele>466.40000000000003</ele><time>2026-04-18T12:06:22.441Z</time></trkpt><trkpt lat="43.4630904" lon="10.6165953"><ele>464.20000000000005</ele><time>2026-04-18T12:06:24.454Z</time></trkpt><trkpt lat="43.4630236" lon="10.6167029"><ele>462.0</ele><time>2026-04-18T12:06:26.444Z</time></trkpt><trkpt lat="43.4629634" lon="10.6167813"><ele>462.1666666666667</ele><time>2026-04-18T12:06:28.454Z</time></trkpt><trkpt lat="43.4629007" lon="10.6168422"><ele>462.33333333333337</ele><time>2026-04-18T12:06:30.445Z</time></trkpt><trkpt lat="43.4628302" lon="10.6168718"><ele>462.5</ele><time>2026-04-18T12:06:32.446Z</time></trkpt><trkpt lat="43.462761" lon="10.6168698"><ele>462.6666666666667</ele><time>2026-04-18T12:06:34.456Z</time></trkpt><trkpt lat="43.4626896" lon="10.6168594"><ele>462.83333333333337</ele><time>2026-04-18T12:06:36.439Z</time></trkpt><trkpt lat="43.46261" lon="10.6168216"><ele>463.0</ele><time>2026-04-18T12:06:38.443Z</time></trkpt><trkpt lat="43.4625424" lon="10.6167414"><ele>463.00000000000006</ele><time>2026-04-18T12:06:40.457Z</time></trkpt><trkpt lat="43.462494" lon="10.6166429"><ele>463.0</ele><time>2026-04-18T12:06:42.452Z</time></trkpt><trkpt lat="43.4624443" lon="10.6165397"><ele>463.0</ele><time>2026-04-18T12:06:44.446Z</time></trkpt><trkpt lat="43.4624075" lon="10.6164351"><ele>463.0</ele><time>2026-04-18T12:06:46.437Z</time></trkpt><trkpt lat="43.4623572" lon="10.6163589"><ele>463.00000000000006</ele><time>2026-04-18T12:06:48.441Z</time></trkpt><trkpt lat="43.4623039" lon="10.6162784"><ele>463.0</ele><time>2026-04-18T12:06:50.433Z</time></trkpt><trkpt lat="43.4622573" lon="10.6162117"><ele>463.00000000000006</ele><time>2026-04-18T12:06:52.436Z</time></trkpt><trkpt lat="43.4622037" lon="10.6161587"><ele>463.0</ele><time>2026-04-18T12:06:54.44Z</time></trkpt><trkpt lat="43.4621472" lon="10.6161166"><ele>463.0</ele><time>2026-04-18T12:06:56.449Z</time></trkpt><trkpt lat="43.4620782" lon="10.6161415"><ele>463.0</ele><time>2026-04-18T12:06:59.443Z</time></trkpt><trkpt lat="43.4620119" lon="10.6161904"><ele>463.00000000000006</ele><time>2026-04-18T12:07:01.432Z</time></trkpt><trkpt lat="43.4619512" lon="10.6162775"><ele>463.0</ele><time>2026-04-18T12:07:04.438Z</time></trkpt><trkpt lat="43.4618706" lon="10.6163603"><ele>464.1666666666667</ele><time>2026-04-18T12:07:06.438Z</time></trkpt><trkpt lat="43.4617764" lon="10.6164366"><ele>465.33333333333337</ele><time>2026-04-18T12:07:08.444Z</time></trkpt><trkpt lat="43.4617262" lon="10.616505"><ele>466.5</ele><time>2026-04-18T12:07:10.439Z</time></trkpt><trkpt lat="43.4616813" lon="10.6165948"><ele>467.66666666666663</ele><time>2026-04-18T12:07:12.441Z</time></trkpt><trkpt lat="43.4616264" lon="10.6166941"><ele>468.8333333333333</ele><time>2026-04-18T12:07:14.458Z</time></trkpt><trkpt lat="43.461577" lon="10.6168106"><ele>470.0</ele><time>2026-04-18T12:07:16.434Z</time></trkpt><trkpt lat="43.4615332" lon="10.6169031"><ele>466.8333333333333</ele><time>2026-04-18T12:07:18.439Z</time></trkpt><trkpt lat="43.4614987" lon="10.6169903"><ele>463.66666666666663</ele><time>2026-04-18T12:07:20.436Z</time></trkpt><trkpt lat="43.4614452" lon="10.6170552"><ele>460.5</ele><time>2026-04-18T12:07:22.439Z</time></trkpt><trkpt lat="43.4613935" lon="10.6171354"><ele>457.33333333333337</ele><time>2026-04-18T12:07:24.438Z</time></trkpt><trkpt lat="43.4613348" lon="10.6172124"><ele>454.1666666666667</ele><time>2026-04-18T12:07:26.436Z</time></trkpt><trkpt lat="43.4612594" lon="10.6172904"><ele>451.0</ele><time>2026-04-18T12:07:29.43Z</time></trkpt><trkpt lat="43.4612094" lon="10.6173731"><ele>456.1666666666667</ele><time>2026-04-18T12:07:31.442Z</time></trkpt><trkpt lat="43.4611696" lon="10.6174674"><ele>461.33333333333337</ele><time>2026-04-18T12:07:33.443Z</time></trkpt><trkpt lat="43.4611255" lon="10.6175354"><ele>466.5</ele><time>2026-04-18T12:07:35.441Z</time></trkpt><trkpt lat="43.46108" lon="10.6176145"><ele>471.66666666666663</ele><time>2026-04-18T12:07:37.435Z</time></trkpt><trkpt lat="43.4610594" lon="10.6177099"><ele>476.8333333333333</ele><time>2026-04-18T12:07:39.434Z</time></trkpt><trkpt lat="43.4610832" lon="10.6178453"><ele>482.0</ele><time>2026-04-18T12:07:41.433Z</time></trkpt><trkpt lat="43.4611127" lon="10.6179283"><ele>482.0</ele><time>2026-04-18T12:07:42.434Z</time></trkpt><trkpt lat="43.4611394" lon="10.6180103"><ele>482.00000000000006</ele><time>2026-04-18T12:07:43.448Z</time></trkpt><trkpt lat="43.4611578" lon="10.6180947"><ele>482.00000000000006</ele><time>2026-04-18T12:07:44.44Z</time></trkpt><trkpt lat="43.4611524" lon="10.6182613"><ele>482.0</ele><time>2026-04-18T12:07:46.441Z</time></trkpt><trkpt lat="43.4611154" lon="10.6184148"><ele>482.0</ele><time>2026-04-18T12:07:48.444Z</time></trkpt><trkpt lat="43.4610548" lon="10.6185513"><ele>478.0</ele><time>2026-04-18T12:07:50.442Z</time></trkpt><trkpt lat="43.4609869" lon="10.6186839"><ele>474.0</ele><time>2026-04-18T12:07:52.448Z</time></trkpt><trkpt lat="43.4609094" lon="10.6187889"><ele>470.0</ele><time>2026-04-18T12:07:54.442Z</time></trkpt><trkpt lat="43.4608274" lon="10.618901"><ele>466.0</ele><time>2026-04-18T12:07:56.448Z</time></trkpt><trkpt lat="43.4607523" lon="10.6190175"><ele>466.0</ele><time>2026-04-18T12:07:58.438Z</time></trkpt><trkpt lat="43.4606867" lon="10.619133"><ele>466.0</ele><time>2026-04-18T12:08:00.448Z</time></trkpt><trkpt lat="43.4606279" lon="10.6192396"><ele>466.0</ele><time>2026-04-18T12:08:02.43Z</time></trkpt><trkpt lat="43.4605722" lon="10.6193562"><ele>466.0</ele><time>2026-04-18T12:08:04.427Z</time></trkpt><trkpt lat="43.4605189" lon="10.6194508"><ele>466.0</ele><time>2026-04-18T12:08:06.438Z</time></trkpt><trkpt lat="43.4604958" lon="10.6195816"><ele>462.33333333333337</ele><time>2026-04-18T12:08:08.429Z</time></trkpt><trkpt lat="43.4604827" lon="10.619712"><ele>458.6666666666667</ele><time>2026-04-18T12:08:10.428Z</time></trkpt><trkpt lat="43.4604422" lon="10.6198702"><ele>455.0</ele><time>2026-04-18T12:08:12.448Z</time></trkpt><trkpt lat="43.4604167" lon="10.6199525"><ele>451.33333333333337</ele><time>2026-04-18T12:08:13.432Z</time></trkpt><trkpt lat="43.4603912" lon="10.6200369"><ele>447.6666666666667</ele><time>2026-04-18T12:08:14.434Z</time></trkpt><trkpt lat="43.4603702" lon="10.6201289"><ele>444.0</ele><time>2026-04-18T12:08:15.438Z</time></trkpt><trkpt lat="43.4603385" lon="10.6202923"><ele>449.0</ele><time>2026-04-18T12:08:17.439Z</time></trkpt><trkpt lat="43.4603176" lon="10.6204016"><ele>454.0</ele><time>2026-04-18T12:08:19.433Z</time></trkpt><trkpt lat="43.4602837" lon="10.6204943"><ele>459.0</ele><time>2026-04-18T12:08:21.43Z</time></trkpt><trkpt lat="43.4602438" lon="10.6205653"><ele>464.0</ele><time>2026-04-18T12:08:23.432Z</time></trkpt><trkpt lat="43.4602011" lon="10.6206746"><ele>469.0</ele><time>2026-04-18T12:08:26.45Z</time></trkpt><trkpt lat="43.4601666" lon="10.620784"><ele>474.0</ele><time>2026-04-18T12:08:28.437Z</time></trkpt><trkpt lat="43.4601307" lon="10.6208841"><ele>474.0</ele><time>2026-04-18T12:08:30.435Z</time></trkpt><trkpt lat="43.460104" lon="10.6209738"><ele>474.0</ele><time>2026-04-18T12:08:32.441Z</time></trkpt><trkpt lat="43.4600669" lon="10.6210588"><ele>474.0</ele><time>2026-04-18T12:08:34.439Z</time></trkpt><trkpt lat="43.4600231" lon="10.6211426"><ele>474.0</ele><time>2026-04-18T12:08:36.442Z</time></trkpt><trkpt lat="43.4599811" lon="10.6212245"><ele>474.0</ele><time>2026-04-18T12:08:38.448Z</time></trkpt><trkpt lat="43.4599434" lon="10.6213151"><ele>474.0</ele><time>2026-04-18T12:08:40.451Z</time></trkpt><trkpt lat="43.4599018" lon="10.6214228"><ele>471.1666666666667</ele><time>2026-04-18T12:08:42.444Z</time></trkpt><trkpt lat="43.4598531" lon="10.6215413"><ele>468.33333333333337</ele><time>2026-04-18T12:08:44.445Z</time></trkpt><trkpt lat="43.4598099" lon="10.6216653"><ele>465.5</ele><time>2026-04-18T12:08:46.446Z</time></trkpt><trkpt lat="43.4597733" lon="10.6217831"><ele>462.6666666666667</ele><time>2026-04-18T12:08:48.439Z</time></trkpt><trkpt lat="43.4597434" lon="10.621883"><ele>459.83333333333337</ele><time>2026-04-18T12:08:50.45Z</time></trkpt><trkpt lat="43.4597184" lon="10.621969"><ele>457.0</ele><time>2026-04-18T12:08:52.446Z</time></trkpt><trkpt lat="43.4596655" lon="10.6220671"><ele>454.6666666666667</ele><time>2026-04-18T12:08:55.428Z</time></trkpt><trkpt lat="43.4596007" lon="10.6221514"><ele>452.33333333333337</ele><time>2026-04-18T12:08:58.453Z</time></trkpt><trkpt lat="43.4595454" lon="10.6222345"><ele>450.0</ele><time>2026-04-18T12:09:01.443Z</time></trkpt><trkpt lat="43.4594824" lon="10.6222829"><ele>447.66666666666663</ele><time>2026-04-18T12:09:04.446Z</time></trkpt><trkpt lat="43.4594103" lon="10.6222885"><ele>445.3333333333333</ele><time>2026-04-18T12:09:09.457Z</time></trkpt><trkpt lat="43.4593181" lon="10.6222878"><ele>443.0</ele><time>2026-04-18T12:09:12.441Z</time></trkpt><trkpt lat="43.4592423" lon="10.6222655"><ele>442.99999999999994</ele><time>2026-04-18T12:09:14.438Z</time></trkpt><trkpt lat="43.4591675" lon="10.6222644"><ele>443.0</ele><time>2026-04-18T12:09:16.442Z</time></trkpt><trkpt lat="43.4591021" lon="10.6222326"><ele>443.0</ele><time>2026-04-18T12:09:18.432Z</time></trkpt><trkpt lat="43.4590432" lon="10.6221851"><ele>443.0</ele><time>2026-04-18T12:09:20.453Z</time></trkpt><trkpt lat="43.4589531" lon="10.6221276"><ele>442.99999999999994</ele><time>2026-04-18T12:09:23.444Z</time></trkpt><trkpt lat="43.4588999" lon="10.6220601"><ele>443.0</ele><time>2026-04-18T12:09:26.45Z</time></trkpt><trkpt lat="43.4588494" lon="10.6219787"><ele>441.3333333333333</ele><time>2026-04-18T12:09:29.443Z</time></trkpt><trkpt lat="43.4587709" lon="10.6219039"><ele>439.66666666666663</ele><time>2026-04-18T12:09:32.441Z</time></trkpt><trkpt lat="43.4587001" lon="10.621828"><ele>438.0</ele><time>2026-04-18T12:09:35.438Z</time></trkpt><trkpt lat="43.4586525" lon="10.6217577"><ele>436.33333333333337</ele><time>2026-04-18T12:09:37.441Z</time></trkpt><trkpt lat="43.4586066" lon="10.6216782"><ele>434.6666666666667</ele><time>2026-04-18T12:09:40.458Z</time></trkpt><trkpt lat="43.4585515" lon="10.6216008"><ele>433.0</ele><time>2026-04-18T12:09:43.436Z</time></trkpt><trkpt lat="43.4585122" lon="10.6215004"><ele>433.00000000000006</ele><time>2026-04-18T12:09:46.448Z</time></trkpt><trkpt lat="43.4584717" lon="10.6214039"><ele>433.0</ele><time>2026-04-18T12:09:49.446Z</time></trkpt><trkpt lat="43.458415" lon="10.6213207"><ele>433.0</ele><time>2026-04-18T12:09:52.442Z</time></trkpt><trkpt lat="43.4583726" lon="10.6212559"><ele>433.0</ele><time>2026-04-18T12:09:54.449Z</time></trkpt><trkpt lat="43.458321" lon="10.6211635"><ele>433.00000000000006</ele><time>2026-04-18T12:09:57.461Z</time></trkpt><trkpt lat="43.4582949" lon="10.6210719"><ele>433.0</ele><time>2026-04-18T12:10:00.449Z</time></trkpt><trkpt lat="43.4582766" lon="10.6209636"><ele>435.1666666666667</ele><time>2026-04-18T12:10:03.442Z</time></trkpt><trkpt lat="43.4582744" lon="10.6208649"><ele>437.33333333333337</ele><time>2026-04-18T12:10:06.43Z</time></trkpt><trkpt lat="43.4582577" lon="10.6207491"><ele>439.5</ele><time>2026-04-18T12:10:09.445Z</time></trkpt><trkpt lat="43.4582306" lon="10.6206349"><ele>441.66666666666663</ele><time>2026-04-18T12:10:11.444Z</time></trkpt><trkpt lat="43.4581975" lon="10.6205516"><ele>443.8333333333333</ele><time>2026-04-18T12:10:12.424Z</time></trkpt><trkpt lat="43.4581749" lon="10.6204071"><ele>446.0</ele><time>2026-04-18T12:10:14.434Z</time></trkpt><trkpt lat="43.458207" lon="10.6202727"><ele>446.4</ele><time>2026-04-18T12:10:16.461Z</time></trkpt><trkpt lat="43.4582473" lon="10.6201379"><ele>446.8</ele><time>2026-04-18T12:10:18.445Z</time></trkpt><trkpt lat="43.4582837" lon="10.6200058"><ele>447.19999999999993</ele><time>2026-04-18T12:10:20.434Z</time></trkpt><trkpt lat="43.4582988" lon="10.6198809"><ele>447.59999999999997</ele><time>2026-04-18T12:10:22.432Z</time></trkpt><trkpt lat="43.4583181" lon="10.6197604"><ele>448.0</ele><time>2026-04-18T12:10:24.429Z</time></trkpt><trkpt lat="43.4583248" lon="10.619639"><ele>448.00000000000006</ele><time>2026-04-18T12:10:26.436Z</time></trkpt><trkpt lat="43.4583311" lon="10.6195406"><ele>448.0</ele><time>2026-04-18T12:10:28.433Z</time></trkpt><trkpt lat="43.4583344" lon="10.6194251"><ele>448.0</ele><time>2026-04-18T12:10:30.433Z</time></trkpt><trkpt lat="43.4583425" lon="10.6192926"><ele>448.0</ele><time>2026-04-18T12:10:32.437Z</time></trkpt><trkpt lat="43.4583479" lon="10.6191629"><ele>448.00000000000006</ele><time>2026-04-18T12:10:34.434Z</time></trkpt><trkpt lat="43.4583492" lon="10.6190569"><ele>448.0</ele><time>2026-04-18T12:10:36.443Z</time></trkpt><trkpt lat="43.4583542" lon="10.6189407"><ele>447.59999999999997</ele><time>2026-04-18T12:10:38.437Z</time></trkpt><trkpt lat="43.4583087" lon="10.6187875"><ele>447.19999999999993</ele><time>2026-04-18T12:10:40.426Z</time></trkpt><trkpt lat="43.4582448" lon="10.6186724"><ele>446.8</ele><time>2026-04-18T12:10:42.432Z</time></trkpt><trkpt lat="43.4581926" lon="10.6185713"><ele>446.4</ele><time>2026-04-18T12:10:44.441Z</time></trkpt><trkpt lat="43.4581363" lon="10.6184378"><ele>446.0</ele><time>2026-04-18T12:10:46.448Z</time></trkpt><trkpt lat="43.4580889" lon="10.618314"><ele>447.16666666666663</ele><time>2026-04-18T12:10:48.456Z</time></trkpt><trkpt lat="43.4580409" lon="10.6181881"><ele>448.3333333333333</ele><time>2026-04-18T12:10:50.447Z</time></trkpt><trkpt lat="43.458006" lon="10.6180794"><ele>449.5</ele><time>2026-04-18T12:10:52.458Z</time></trkpt><trkpt lat="43.4579771" lon="10.6179819"><ele>450.66666666666663</ele><time>2026-04-18T12:10:54.431Z</time></trkpt><trkpt lat="43.4579385" lon="10.6178929"><ele>451.8333333333333</ele><time>2026-04-18T12:10:56.44Z</time></trkpt><trkpt lat="43.4579027" lon="10.6177946"><ele>453.0</ele><time>2026-04-18T12:10:58.445Z</time></trkpt><trkpt lat="43.4578749" lon="10.6176815"><ele>448.6666666666667</ele><time>2026-04-18T12:11:00.44Z</time></trkpt><trkpt lat="43.4578582" lon="10.6175397"><ele>444.33333333333337</ele><time>2026-04-18T12:11:02.442Z</time></trkpt><trkpt lat="43.4578525" lon="10.6174264"><ele>440.0</ele><time>2026-04-18T12:11:04.431Z</time></trkpt><trkpt lat="43.4578461" lon="10.6173344"><ele>435.6666666666667</ele><time>2026-04-18T12:11:05.441Z</time></trkpt><trkpt lat="43.4578445" lon="10.617209"><ele>431.33333333333337</ele><time>2026-04-18T12:11:07.436Z</time></trkpt><trkpt lat="43.4578213" lon="10.6170885"><ele>427.0</ele><time>2026-04-18T12:11:09.438Z</time></trkpt><trkpt lat="43.4578157" lon="10.6169412"><ele>426.8</ele><time>2026-04-18T12:11:11.433Z</time></trkpt><trkpt lat="43.4578284" lon="10.6168097"><ele>426.6</ele><time>2026-04-18T12:11:13.434Z</time></trkpt><trkpt lat="43.4578591" lon="10.6166743"><ele>426.40000000000003</ele><time>2026-04-18T12:11:15.436Z</time></trkpt><trkpt lat="43.4578854" lon="10.6165321"><ele>426.20000000000005</ele><time>2026-04-18T12:11:17.43Z</time></trkpt><trkpt lat="43.4579108" lon="10.6163989"><ele>426.0</ele><time>2026-04-18T12:11:19.428Z</time></trkpt><trkpt lat="43.4579019" lon="10.6162804"><ele>427.0</ele><time>2026-04-18T12:11:21.44Z</time></trkpt><trkpt lat="43.4578486" lon="10.6161415"><ele>428.0</ele><time>2026-04-18T12:11:23.435Z</time></trkpt><trkpt lat="43.4578029" lon="10.6160044"><ele>429.0</ele><time>2026-04-18T12:11:25.441Z</time></trkpt><trkpt lat="43.4577457" lon="10.6158705"><ele>430.0</ele><time>2026-04-18T12:11:27.447Z</time></trkpt><trkpt lat="43.457715" lon="10.6157469"><ele>431.0</ele><time>2026-04-18T12:11:29.432Z</time></trkpt><trkpt lat="43.4576605" lon="10.6156282"><ele>431.0</ele><time>2026-04-18T12:11:31.449Z</time></trkpt><trkpt lat="43.4576151" lon="10.6154997"><ele>431.0</ele><time>2026-04-18T12:11:33.452Z</time></trkpt><trkpt lat="43.457589" lon="10.6154081"><ele>431.0</ele><time>2026-04-18T12:11:35.44Z</time></trkpt><trkpt lat="43.4575927" lon="10.6152804"><ele>431.0</ele><time>2026-04-18T12:11:37.457Z</time></trkpt><trkpt lat="43.4575998" lon="10.6151244"><ele>431.0</ele><time>2026-04-18T12:11:39.441Z</time></trkpt><trkpt lat="43.4575926" lon="10.6149881"><ele>431.8333333333333</ele><time>2026-04-18T12:11:41.459Z</time></trkpt><trkpt lat="43.4575481" lon="10.6148626"><ele>432.66666666666663</ele><time>2026-04-18T12:11:43.446Z</time></trkpt><trkpt lat="43.4574937" lon="10.6147456"><ele>433.5</ele><time>2026-04-18T12:11:45.458Z</time></trkpt><trkpt lat="43.4574703" lon="10.6146556"><ele>434.33333333333337</ele><time>2026-04-18T12:11:47.45Z</time></trkpt><trkpt lat="43.4574691" lon="10.6145246"><ele>435.1666666666667</ele><time>2026-04-18T12:11:50.461Z</time></trkpt><trkpt lat="43.4574711" lon="10.6144336"><ele>436.0</ele><time>2026-04-18T12:11:52.456Z</time></trkpt><trkpt lat="43.457487" lon="10.6143303"><ele>436.1666666666667</ele><time>2026-04-18T12:11:55.466Z</time></trkpt><trkpt lat="43.4575307" lon="10.6142581"><ele>436.33333333333337</ele><time>2026-04-18T12:11:59.442Z</time></trkpt><trkpt lat="43.4575061" lon="10.6141729"><ele>436.5</ele><time>2026-04-18T12:12:03.446Z</time></trkpt><trkpt lat="43.4574997" lon="10.6140839"><ele>436.66666666666663</ele><time>2026-04-18T12:12:05.439Z</time></trkpt><trkpt lat="43.4575095" lon="10.6139802"><ele>436.8333333333333</ele><time>2026-04-18T12:12:07.453Z</time></trkpt><trkpt lat="43.4575221" lon="10.6138557"><ele>437.0</ele><time>2026-04-18T12:12:09.443Z</time></trkpt><trkpt lat="43.4575564" lon="10.6137359"><ele>435.85714285714283</ele><time>2026-04-18T12:12:11.451Z</time></trkpt><trkpt lat="43.4575864" lon="10.6136403"><ele>434.7142857142857</ele><time>2026-04-18T12:12:13.447Z</time></trkpt><trkpt lat="43.4576144" lon="10.6135369"><ele>433.57142857142856</ele><time>2026-04-18T12:12:15.442Z</time></trkpt><trkpt lat="43.4576417" lon="10.6134318"><ele>432.42857142857144</ele><time>2026-04-18T12:12:17.441Z</time></trkpt><trkpt lat="43.4576647" lon="10.6133304"><ele>431.28571428571433</ele><time>2026-04-18T12:12:19.426Z</time></trkpt><trkpt lat="43.4577011" lon="10.6132506"><ele>430.14285714285717</ele><time>2026-04-18T12:12:21.44Z</time></trkpt><trkpt lat="43.4577382" lon="10.6131783"><ele>429.0</ele><time>2026-04-18T12:12:23.428Z</time></trkpt><trkpt lat="43.4578086" lon="10.6131199"><ele>429.0</ele><time>2026-04-18T12:12:26.45Z</time></trkpt><trkpt lat="43.457873" lon="10.6130946"><ele>429.0</ele><time>2026-04-18T12:12:29.452Z</time></trkpt><trkpt lat="43.4579249" lon="10.6130347"><ele>429.0</ele><time>2026-04-18T12:12:31.441Z</time></trkpt><trkpt lat="43.4579819" lon="10.6129574"><ele>429.0</ele><time>2026-04-18T12:12:33.429Z</time></trkpt><trkpt lat="43.4580275" lon="10.6128518"><ele>429.0</ele><time>2026-04-18T12:12:35.451Z</time></trkpt><trkpt lat="43.4580557" lon="10.6127464"><ele>429.0</ele><time>2026-04-18T12:12:37.45Z</time></trkpt><trkpt lat="43.4580853" lon="10.6126302"><ele>430.6</ele><time>2026-04-18T12:12:39.446Z</time></trkpt><trkpt lat="43.4581238" lon="10.6124985"><ele>432.2</ele><time>2026-04-18T12:12:41.441Z</time></trkpt><trkpt lat="43.4581648" lon="10.6123571"><ele>433.80000000000007</ele><time>2026-04-18T12:12:43.458Z</time></trkpt><trkpt lat="43.4581896" lon="10.6122033"><ele>435.40000000000003</ele><time>2026-04-18T12:12:45.435Z</time></trkpt><trkpt lat="43.4582077" lon="10.6120564"><ele>437.0</ele><time>2026-04-18T12:12:47.454Z</time></trkpt><trkpt lat="43.4582292" lon="10.6119361"><ele>436.99999999999994</ele><time>2026-04-18T12:12:49.461Z</time></trkpt><trkpt lat="43.458264" lon="10.6118385"><ele>437.0</ele><time>2026-04-18T12:12:51.455Z</time></trkpt><trkpt lat="43.4583274" lon="10.6117821"><ele>437.0</ele><time>2026-04-18T12:12:53.436Z</time></trkpt><trkpt lat="43.4583854" lon="10.6117211"><ele>437.0</ele><time>2026-04-18T12:12:55.443Z</time></trkpt><trkpt lat="43.458446" lon="10.6116518"><ele>436.99999999999994</ele><time>2026-04-18T12:12:57.455Z</time></trkpt><trkpt lat="43.4584999" lon="10.611565"><ele>437.0</ele><time>2026-04-18T12:12:59.449Z</time></trkpt><trkpt lat="43.4585494" lon="10.6114514"><ele>436.99999999999994</ele><time>2026-04-18T12:13:01.46Z</time></trkpt><trkpt lat="43.4586038" lon="10.6113825"><ele>437.0</ele><time>2026-04-18T12:13:03.449Z</time></trkpt><trkpt lat="43.4586642" lon="10.6113021"><ele>437.0</ele><time>2026-04-18T12:13:05.462Z</time></trkpt><trkpt lat="43.4587155" lon="10.6112445"><ele>437.0</ele><time>2026-04-18T12:13:06.445Z</time></trkpt><trkpt lat="43.4587991" lon="10.6111432"><ele>436.99999999999994</ele><time>2026-04-18T12:13:08.444Z</time></trkpt><trkpt lat="43.4588697" lon="10.6110588"><ele>437.0</ele><time>2026-04-18T12:13:10.442Z</time></trkpt><trkpt lat="43.4589463" lon="10.6109797"><ele>438.3333333333333</ele><time>2026-04-18T12:13:12.45Z</time></trkpt><trkpt lat="43.4590116" lon="10.6109205"><ele>439.66666666666663</ele><time>2026-04-18T12:13:14.461Z</time></trkpt><trkpt lat="43.459077" lon="10.6108421"><ele>441.0</ele><time>2026-04-18T12:13:16.458Z</time></trkpt><trkpt lat="43.4591387" lon="10.6107615"><ele>442.33333333333337</ele><time>2026-04-18T12:13:18.465Z</time></trkpt><trkpt lat="43.4592" lon="10.6106521"><ele>443.6666666666667</ele><time>2026-04-18T12:13:20.428Z</time></trkpt><trkpt lat="43.4592582" lon="10.610551"><ele>445.0</ele><time>2026-04-18T12:13:22.441Z</time></trkpt><trkpt lat="43.4593035" lon="10.6104568"><ele>445.0</ele><time>2026-04-18T12:13:24.45Z</time></trkpt><trkpt lat="43.4593601" lon="10.6103822"><ele>445.0</ele><time>2026-04-18T12:13:26.445Z</time></trkpt><trkpt lat="43.4594232" lon="10.6102902"><ele>445.0</ele><time>2026-04-18T12:13:28.436Z</time></trkpt><trkpt lat="43.4594798" lon="10.6101616"><ele>445.0</ele><time>2026-04-18T12:13:30.444Z</time></trkpt><trkpt lat="43.459546" lon="10.6100315"><ele>445.0</ele><time>2026-04-18T12:13:32.455Z</time></trkpt><trkpt lat="43.4596143" lon="10.6098826"><ele>444.83333333333337</ele><time>2026-04-18T12:13:34.449Z</time></trkpt><trkpt lat="43.4596526" lon="10.6098096"><ele>444.6666666666667</ele><time>2026-04-18T12:13:35.435Z</time></trkpt><trkpt lat="43.4596933" lon="10.6097416"><ele>444.5</ele><time>2026-04-18T12:13:36.438Z</time></trkpt><trkpt lat="43.4597656" lon="10.6096032"><ele>444.33333333333337</ele><time>2026-04-18T12:13:38.43Z</time></trkpt><trkpt lat="43.4598058" lon="10.6095221"><ele>444.1666666666667</ele><time>2026-04-18T12:13:39.454Z</time></trkpt><trkpt lat="43.4598416" lon="10.609439"><ele>444.0</ele><time>2026-04-18T12:13:40.427Z</time></trkpt><trkpt lat="43.4598816" lon="10.6093422"><ele>444.0</ele><time>2026-04-18T12:13:41.463Z</time></trkpt><trkpt lat="43.459913" lon="10.6092602"><ele>444.0</ele><time>2026-04-18T12:13:42.443Z</time></trkpt><trkpt lat="43.4599361" lon="10.6091717"><ele>444.0</ele><time>2026-04-18T12:13:43.455Z</time></trkpt><trkpt lat="43.459957" lon="10.6090892"><ele>444.0</ele><time>2026-04-18T12:13:44.454Z</time></trkpt><trkpt lat="43.4599691" lon="10.6089931"><ele>444.0</ele><time>2026-04-18T12:13:45.441Z</time></trkpt><trkpt lat="43.4599731" lon="10.6088946"><ele>444.0</ele><time>2026-04-18T12:13:46.431Z</time></trkpt><trkpt lat="43.4599809" lon="10.6087952"><ele>444.0</ele><time>2026-04-18T12:13:47.442Z</time></trkpt><trkpt lat="43.4600113" lon="10.6087172"><ele>441.6</ele><time>2026-04-18T12:13:48.429Z</time></trkpt><trkpt lat="43.4600824" lon="10.6085978"><ele>439.2</ele><time>2026-04-18T12:13:50.434Z</time></trkpt><trkpt lat="43.460141" lon="10.6084879"><ele>436.80000000000007</ele><time>2026-04-18T12:13:52.465Z</time></trkpt><trkpt lat="43.4602067" lon="10.608401"><ele>434.40000000000003</ele><time>2026-04-18T12:13:54.449Z</time></trkpt><trkpt lat="43.4602974" lon="10.6083776"><ele>432.0</ele><time>2026-04-18T12:13:56.44Z</time></trkpt><trkpt lat="43.4603625" lon="10.6083921"><ele>432.0</ele><time>2026-04-18T12:13:58.447Z</time></trkpt><trkpt lat="43.4604217" lon="10.6084219"><ele>432.0</ele><time>2026-04-18T12:14:01.445Z</time></trkpt><trkpt lat="43.4604866" lon="10.6084872"><ele>432.0</ele><time>2026-04-18T12:14:04.457Z</time></trkpt><trkpt lat="43.4605512" lon="10.6085079"><ele>432.0</ele><time>2026-04-18T12:14:06.456Z</time></trkpt><trkpt lat="43.4606552" lon="10.6084696"><ele>432.0</ele><time>2026-04-18T12:14:08.459Z</time></trkpt><trkpt lat="43.4607239" lon="10.6084296"><ele>432.0</ele><time>2026-04-18T12:14:09.439Z</time></trkpt><trkpt lat="43.4608128" lon="10.6083103"><ele>432.8</ele><time>2026-04-18T12:14:11.473Z</time></trkpt><trkpt lat="43.460853" lon="10.6082206"><ele>433.6</ele><time>2026-04-18T12:14:12.442Z</time></trkpt><trkpt lat="43.4609068" lon="10.6080879"><ele>434.40000000000003</ele><time>2026-04-18T12:14:14.436Z</time></trkpt><trkpt lat="43.4609593" lon="10.6079708"><ele>435.20000000000005</ele><time>2026-04-18T12:14:16.444Z</time></trkpt><trkpt lat="43.4610049" lon="10.6078207"><ele>436.0</ele><time>2026-04-18T12:14:18.433Z</time></trkpt><trkpt lat="43.4610497" lon="10.6076739"><ele>436.00000000000006</ele><time>2026-04-18T12:14:20.439Z</time></trkpt><trkpt lat="43.4611006" lon="10.6075225"><ele>436.0</ele><time>2026-04-18T12:14:22.442Z</time></trkpt><trkpt lat="43.4611479" lon="10.6073726"><ele>436.0</ele><time>2026-04-18T12:14:24.455Z</time></trkpt><trkpt lat="43.4611674" lon="10.6072823"><ele>436.0</ele><time>2026-04-18T12:14:25.439Z</time></trkpt><trkpt lat="43.4611783" lon="10.6071964"><ele>436.00000000000006</ele><time>2026-04-18T12:14:26.448Z</time></trkpt><trkpt lat="43.4611881" lon="10.6071054"><ele>436.0</ele><time>2026-04-18T12:14:27.438Z</time></trkpt><trkpt lat="43.4611925" lon="10.6069475"><ele>433.0</ele><time>2026-04-18T12:14:29.444Z</time></trkpt><trkpt lat="43.4611842" lon="10.6067873"><ele>430.0</ele><time>2026-04-18T12:14:31.439Z</time></trkpt><trkpt lat="43.4611949" lon="10.6066278"><ele>427.0</ele><time>2026-04-18T12:14:33.441Z</time></trkpt><trkpt lat="43.4612371" lon="10.6064735"><ele>424.0</ele><time>2026-04-18T12:14:35.454Z</time></trkpt><trkpt lat="43.4613078" lon="10.6063461"><ele>427.2</ele><time>2026-04-18T12:14:37.461Z</time></trkpt><trkpt lat="43.4613819" lon="10.6062201"><ele>430.4</ele><time>2026-04-18T12:14:39.434Z</time></trkpt><trkpt lat="43.4614331" lon="10.6060869"><ele>433.6</ele><time>2026-04-18T12:14:41.447Z</time></trkpt><trkpt lat="43.4615024" lon="10.6059684"><ele>436.8</ele><time>2026-04-18T12:14:43.436Z</time></trkpt><trkpt lat="43.4615746" lon="10.6058641"><ele>440.0</ele><time>2026-04-18T12:14:45.44Z</time></trkpt><trkpt lat="43.46164" lon="10.6057602"><ele>440.0</ele><time>2026-04-18T12:14:47.469Z</time></trkpt><trkpt lat="43.4616887" lon="10.6056436"><ele>440.0</ele><time>2026-04-18T12:14:49.449Z</time></trkpt><trkpt lat="43.46175" lon="10.6054858"><ele>440.0</ele><time>2026-04-18T12:14:51.432Z</time></trkpt><trkpt lat="43.4617858" lon="10.6053933"><ele>440.0</ele><time>2026-04-18T12:14:52.441Z</time></trkpt><trkpt lat="43.4618322" lon="10.6053063"><ele>440.0</ele><time>2026-04-18T12:14:53.461Z</time></trkpt><trkpt lat="43.4618771" lon="10.6052148"><ele>437.49999999999994</ele><time>2026-04-18T12:14:54.429Z</time></trkpt><trkpt lat="43.4619216" lon="10.6051266"><ele>435.0</ele><time>2026-04-18T12:14:55.459Z</time></trkpt><trkpt lat="43.4619666" lon="10.6050393"><ele>432.5</ele><time>2026-04-18T12:14:56.435Z</time></trkpt><trkpt lat="43.4620151" lon="10.6049453"><ele>430.0</ele><time>2026-04-18T12:14:57.449Z</time></trkpt><trkpt lat="43.4620646" lon="10.6048463"><ele>427.49999999999994</ele><time>2026-04-18T12:14:58.445Z</time></trkpt><trkpt lat="43.4621175" lon="10.6047484"><ele>425.0</ele><time>2026-04-18T12:14:59.44Z</time></trkpt><trkpt lat="43.4621676" lon="10.6046534"><ele>428.49999999999994</ele><time>2026-04-18T12:15:00.447Z</time></trkpt><trkpt lat="43.4622122" lon="10.6045614"><ele>432.0</ele><time>2026-04-18T12:15:01.444Z</time></trkpt><trkpt lat="43.4622604" lon="10.6044609"><ele>435.5</ele><time>2026-04-18T12:15:02.421Z</time></trkpt><trkpt lat="43.4623133" lon="10.6043679"><ele>439.0</ele><time>2026-04-18T12:15:03.465Z</time></trkpt><trkpt lat="43.4623624" lon="10.604268"><ele>442.49999999999994</ele><time>2026-04-18T12:15:04.447Z</time></trkpt><trkpt lat="43.4624114" lon="10.6041706"><ele>446.0</ele><time>2026-04-18T12:15:05.46Z</time></trkpt><trkpt lat="43.4624595" lon="10.6040786"><ele>446.0</ele><time>2026-04-18T12:15:06.443Z</time></trkpt><trkpt lat="43.4625054" lon="10.6039898"><ele>446.0</ele><time>2026-04-18T12:15:07.428Z</time></trkpt><trkpt lat="43.4625564" lon="10.6039204"><ele>446.0</ele><time>2026-04-18T12:15:08.454Z</time></trkpt><trkpt lat="43.4626153" lon="10.6038709"><ele>446.0</ele><time>2026-04-18T12:15:09.414Z</time></trkpt><trkpt lat="43.4627356" lon="10.60384"><ele>446.0</ele><time>2026-04-18T12:15:11.419Z</time></trkpt><trkpt lat="43.4628552" lon="10.6038843"><ele>446.0</ele><time>2026-04-18T12:15:13.444Z</time></trkpt><trkpt lat="43.462916" lon="10.6039148"><ele>446.0</ele><time>2026-04-18T12:15:14.432Z</time></trkpt><trkpt lat="43.4629823" lon="10.6039475"><ele>446.0</ele><time>2026-04-18T12:15:15.44Z</time></trkpt><trkpt lat="43.4630437" lon="10.6039776"><ele>446.0</ele><time>2026-04-18T12:15:16.447Z</time></trkpt><trkpt lat="43.4631039" lon="10.6040041"><ele>446.0</ele><time>2026-04-18T12:15:17.447Z</time></trkpt><trkpt lat="43.4631657" lon="10.6040333"><ele>446.0</ele><time>2026-04-18T12:15:18.452Z</time></trkpt><trkpt lat="43.4632731" lon="10.6041044"><ele>446.0</ele><time>2026-04-18T12:15:20.442Z</time></trkpt><trkpt lat="43.4633302" lon="10.6041458"><ele>448.3333333333333</ele><time>2026-04-18T12:15:21.431Z</time></trkpt><trkpt lat="43.4633807" lon="10.6041989"><ele>450.66666666666663</ele><time>2026-04-18T12:15:22.43Z</time></trkpt><trkpt lat="43.4634278" lon="10.6042619"><ele>453.0</ele><time>2026-04-18T12:15:23.426Z</time></trkpt><trkpt lat="43.4635222" lon="10.6043591"><ele>455.33333333333337</ele><time>2026-04-18T12:15:25.442Z</time></trkpt><trkpt lat="43.4636147" lon="10.604413"><ele>457.6666666666667</ele><time>2026-04-18T12:15:27.431Z</time></trkpt><trkpt lat="43.4637086" lon="10.6044574"><ele>460.0</ele><time>2026-04-18T12:15:29.442Z</time></trkpt><trkpt lat="43.46383" lon="10.6045105"><ele>461.8571428571428</ele><time>2026-04-18T12:15:31.444Z</time></trkpt><trkpt lat="43.4638973" lon="10.6045217"><ele>463.71428571428567</ele><time>2026-04-18T12:15:32.421Z</time></trkpt><trkpt lat="43.4639665" lon="10.604505"><ele>465.57142857142856</ele><time>2026-04-18T12:15:33.427Z</time></trkpt><trkpt lat="43.464031" lon="10.6044743"><ele>467.4285714285714</ele><time>2026-04-18T12:15:34.436Z</time></trkpt><trkpt lat="43.4640898" lon="10.6044227"><ele>469.2857142857142</ele><time>2026-04-18T12:15:35.449Z</time></trkpt><trkpt lat="43.4641518" lon="10.6043466"><ele>471.14285714285717</ele><time>2026-04-18T12:15:36.426Z</time></trkpt><trkpt lat="43.4641888" lon="10.6042685"><ele>473.0</ele><time>2026-04-18T12:15:37.448Z</time></trkpt><trkpt lat="43.4641972" lon="10.6041344"><ele>473.0</ele><time>2026-04-18T12:15:39.444Z</time></trkpt><trkpt lat="43.4641816" lon="10.6040501"><ele>473.0</ele><time>2026-04-18T12:15:40.433Z</time></trkpt><trkpt lat="43.464139" lon="10.6039637"><ele>473.0</ele><time>2026-04-18T12:15:41.448Z</time></trkpt><trkpt lat="43.4640868" lon="10.6038714"><ele>473.0</ele><time>2026-04-18T12:15:42.453Z</time></trkpt><trkpt lat="43.4640569" lon="10.6037837"><ele>473.0</ele><time>2026-04-18T12:15:43.433Z</time></trkpt><trkpt lat="43.4640084" lon="10.6037003"><ele>473.0</ele><time>2026-04-18T12:15:44.44Z</time></trkpt><trkpt lat="43.4639605" lon="10.6036195"><ele>473.0</ele><time>2026-04-18T12:15:45.444Z</time></trkpt><trkpt lat="43.4639215" lon="10.6035196"><ele>475.16666666666663</ele><time>2026-04-18T12:15:46.442Z</time></trkpt><trkpt lat="43.4638688" lon="10.6034247"><ele>477.3333333333333</ele><time>2026-04-18T12:15:47.446Z</time></trkpt><trkpt lat="43.4638106" lon="10.6033472"><ele>479.5</ele><time>2026-04-18T12:15:48.456Z</time></trkpt><trkpt lat="43.4637604" lon="10.6032591"><ele>481.66666666666663</ele><time>2026-04-18T12:15:49.439Z</time></trkpt><trkpt lat="43.4637165" lon="10.6031714"><ele>483.8333333333333</ele><time>2026-04-18T12:15:50.443Z</time></trkpt><trkpt lat="43.4636888" lon="10.6030734"><ele>486.0</ele><time>2026-04-18T12:15:51.451Z</time></trkpt><trkpt lat="43.4636791" lon="10.6029837"><ele>485.8333333333333</ele><time>2026-04-18T12:15:52.453Z</time></trkpt><trkpt lat="43.4637014" lon="10.6028805"><ele>485.66666666666663</ele><time>2026-04-18T12:15:53.437Z</time></trkpt><trkpt lat="43.4637181" lon="10.6027815"><ele>485.5</ele><time>2026-04-18T12:15:54.438Z</time></trkpt><trkpt lat="43.4637496" lon="10.6026808"><ele>485.3333333333333</ele><time>2026-04-18T12:15:55.441Z</time></trkpt><trkpt lat="43.4637887" lon="10.6025986"><ele>485.16666666666663</ele><time>2026-04-18T12:15:56.443Z</time></trkpt><trkpt lat="43.4638448" lon="10.6025161"><ele>485.0</ele><time>2026-04-18T12:15:57.448Z</time></trkpt><trkpt lat="43.4639015" lon="10.6024348"><ele>484.99999999999994</ele><time>2026-04-18T12:15:58.439Z</time></trkpt><trkpt lat="43.4639535" lon="10.6023618"><ele>485.0</ele><time>2026-04-18T12:15:59.479Z</time></trkpt><trkpt lat="43.4639901" lon="10.6022883"><ele>485.0</ele><time>2026-04-18T12:16:00.45Z</time></trkpt><trkpt lat="43.4640426" lon="10.6022213"><ele>485.0</ele><time>2026-04-18T12:16:01.449Z</time></trkpt><trkpt lat="43.4640929" lon="10.6021633"><ele>484.99999999999994</ele><time>2026-04-18T12:16:02.462Z</time></trkpt><trkpt lat="43.4641518" lon="10.6020895"><ele>485.0</ele><time>2026-04-18T12:16:03.452Z</time></trkpt><trkpt lat="43.4642354" lon="10.6019463"><ele>483.8333333333333</ele><time>2026-04-18T12:16:05.45Z</time></trkpt><trkpt lat="43.4642755" lon="10.6018762"><ele>482.66666666666663</ele><time>2026-04-18T12:16:06.455Z</time></trkpt><trkpt lat="43.4643153" lon="10.6017108"><ele>481.5</ele><time>2026-04-18T12:16:08.45Z</time></trkpt><trkpt lat="43.4643386" lon="10.6015608"><ele>480.33333333333337</ele><time>2026-04-18T12:16:10.447Z</time></trkpt><trkpt lat="43.4643615" lon="10.6014773"><ele>479.1666666666667</ele><time>2026-04-18T12:16:11.451Z</time></trkpt><trkpt lat="43.464332" lon="10.6013755"><ele>478.0</ele><time>2026-04-18T12:16:13.445Z</time></trkpt><trkpt lat="43.4642741" lon="10.6013404"><ele>478.00000000000006</ele><time>2026-04-18T12:16:14.45Z</time></trkpt><trkpt lat="43.4641687" lon="10.6013072"><ele>478.0</ele><time>2026-04-18T12:16:16.45Z</time></trkpt><trkpt lat="43.4641017" lon="10.6013089"><ele>478.0</ele><time>2026-04-18T12:16:17.445Z</time></trkpt><trkpt lat="43.4640357" lon="10.6013012"><ele>478.0</ele><time>2026-04-18T12:16:18.439Z</time></trkpt><trkpt lat="43.4639708" lon="10.6012947"><ele>478.00000000000006</ele><time>2026-04-18T12:16:19.447Z</time></trkpt><trkpt lat="43.4638732" lon="10.6012595"><ele>478.0</ele><time>2026-04-18T12:16:21.449Z</time></trkpt><trkpt lat="43.4638103" lon="10.6010852"><ele>477.1666666666667</ele><time>2026-04-18T12:16:23.459Z</time></trkpt><trkpt lat="43.4637916" lon="10.6009866"><ele>476.33333333333337</ele><time>2026-04-18T12:16:24.464Z</time></trkpt><trkpt lat="43.4637904" lon="10.600877"><ele>475.5</ele><time>2026-04-18T12:16:25.458Z</time></trkpt><trkpt lat="43.4637842" lon="10.6007695"><ele>474.66666666666663</ele><time>2026-04-18T12:16:26.466Z</time></trkpt><trkpt lat="43.4637714" lon="10.6006495"><ele>473.8333333333333</ele><time>2026-04-18T12:16:27.491Z</time></trkpt><trkpt lat="43.4637704" lon="10.6005325"><ele>473.0</ele><time>2026-04-18T12:16:28.471Z</time></trkpt><trkpt lat="43.4637593" lon="10.6004116"><ele>473.4</ele><time>2026-04-18T12:16:29.451Z</time></trkpt><trkpt lat="43.4637405" lon="10.6002849"><ele>473.79999999999995</ele><time>2026-04-18T12:16:30.455Z</time></trkpt><trkpt lat="43.4637243" lon="10.6001505"><ele>474.2</ele><time>2026-04-18T12:16:31.45Z</time></trkpt><trkpt lat="43.4637103" lon="10.6000333"><ele>474.6</ele><time>2026-04-18T12:16:32.463Z</time></trkpt><trkpt lat="43.4637027" lon="10.5999062"><ele>475.0</ele><time>2026-04-18T12:16:33.431Z</time></trkpt><trkpt lat="43.4636866" lon="10.5997811"><ele>475.0</ele><time>2026-04-18T12:16:34.467Z</time></trkpt><trkpt lat="43.4636741" lon="10.5996439"><ele>475.0</ele><time>2026-04-18T12:16:35.431Z</time></trkpt><trkpt lat="43.463668" lon="10.5995078"><ele>475.0</ele><time>2026-04-18T12:16:36.447Z</time></trkpt><trkpt lat="43.4636703" lon="10.5993864"><ele>475.0</ele><time>2026-04-18T12:16:37.446Z</time></trkpt><trkpt lat="43.46367" lon="10.5992529"><ele>475.0</ele><time>2026-04-18T12:16:38.449Z</time></trkpt><trkpt lat="43.4636753" lon="10.5991166"><ele>475.50000000000006</ele><time>2026-04-18T12:16:39.451Z</time></trkpt><trkpt lat="43.4636799" lon="10.5989908"><ele>476.0</ele><time>2026-04-18T12:16:40.454Z</time></trkpt><trkpt lat="43.4636866" lon="10.5988672"><ele>476.5</ele><time>2026-04-18T12:16:41.444Z</time></trkpt><trkpt lat="43.463699" lon="10.5987573"><ele>477.0</ele><time>2026-04-18T12:16:42.458Z</time></trkpt><trkpt lat="43.4637107" lon="10.5986501"><ele>477.50000000000006</ele><time>2026-04-18T12:16:43.442Z</time></trkpt><trkpt lat="43.4637361" lon="10.5985576"><ele>478.0</ele><time>2026-04-18T12:16:44.447Z</time></trkpt><trkpt lat="43.4637649" lon="10.5984543"><ele>482.1666666666667</ele><time>2026-04-18T12:16:45.449Z</time></trkpt><trkpt lat="43.4637944" lon="10.5983577"><ele>486.33333333333337</ele><time>2026-04-18T12:16:46.446Z</time></trkpt><trkpt lat="43.463833" lon="10.5982816"><ele>490.5</ele><time>2026-04-18T12:16:47.469Z</time></trkpt><trkpt lat="43.4639339" lon="10.5981702"><ele>494.66666666666663</ele><time>2026-04-18T12:16:49.458Z</time></trkpt><trkpt lat="43.4639955" lon="10.5981435"><ele>498.8333333333333</ele><time>2026-04-18T12:16:50.445Z</time></trkpt><trkpt lat="43.4640593" lon="10.5981199"><ele>503.0</ele><time>2026-04-18T12:16:51.449Z</time></trkpt><trkpt lat="43.4641239" lon="10.5980819"><ele>502.99999999999994</ele><time>2026-04-18T12:16:52.458Z</time></trkpt><trkpt lat="43.4641982" lon="10.5980764"><ele>503.0</ele><time>2026-04-18T12:16:53.457Z</time></trkpt><trkpt lat="43.4643266" lon="10.5980268"><ele>503.0</ele><time>2026-04-18T12:16:55.449Z</time></trkpt><trkpt lat="43.4644047" lon="10.5979842"><ele>503.0</ele><time>2026-04-18T12:16:56.437Z</time></trkpt><trkpt lat="43.4644533" lon="10.5979016"><ele>502.99999999999994</ele><time>2026-04-18T12:16:57.446Z</time></trkpt><trkpt lat="43.4644708" lon="10.5978088"><ele>503.0</ele><time>2026-04-18T12:16:58.452Z</time></trkpt><trkpt lat="43.4645024" lon="10.597712"><ele>501.16666666666663</ele><time>2026-04-18T12:16:59.461Z</time></trkpt><trkpt lat="43.464535" lon="10.5976147"><ele>499.3333333333333</ele><time>2026-04-18T12:17:00.443Z</time></trkpt><trkpt lat="43.4645719" lon="10.5975238"><ele>497.5</ele><time>2026-04-18T12:17:01.454Z</time></trkpt><trkpt lat="43.4645885" lon="10.597418"><ele>495.66666666666663</ele><time>2026-04-18T12:17:02.447Z</time></trkpt><trkpt lat="43.464629" lon="10.597329"><ele>493.8333333333333</ele><time>2026-04-18T12:17:03.454Z</time></trkpt><trkpt lat="43.4646701" lon="10.5972361"><ele>492.0</ele><time>2026-04-18T12:17:04.441Z</time></trkpt><trkpt lat="43.4646967" lon="10.5971369"><ele>494.1666666666667</ele><time>2026-04-18T12:17:05.438Z</time></trkpt><trkpt lat="43.4647326" lon="10.59703"><ele>496.33333333333337</ele><time>2026-04-18T12:17:06.448Z</time></trkpt><trkpt lat="43.4647678" lon="10.5969237"><ele>498.5</ele><time>2026-04-18T12:17:07.445Z</time></trkpt><trkpt lat="43.4647885" lon="10.5968194"><ele>500.6666666666667</ele><time>2026-04-18T12:17:08.438Z</time></trkpt><trkpt lat="43.4648146" lon="10.5967151"><ele>502.83333333333337</ele><time>2026-04-18T12:17:09.441Z</time></trkpt><trkpt lat="43.4648434" lon="10.5966154"><ele>505.0</ele><time>2026-04-18T12:17:10.446Z</time></trkpt><trkpt lat="43.4648772" lon="10.596525"><ele>505.00000000000006</ele><time>2026-04-18T12:17:11.445Z</time></trkpt><trkpt lat="43.4649235" lon="10.5964315"><ele>505.0</ele><time>2026-04-18T12:17:12.447Z</time></trkpt><trkpt lat="43.4649551" lon="10.5963549"><ele>505.0</ele><time>2026-04-18T12:17:13.454Z</time></trkpt><trkpt lat="43.4650179" lon="10.5962628"><ele>505.0</ele><time>2026-04-18T12:17:15.437Z</time></trkpt><trkpt lat="43.4651258" lon="10.5962516"><ele>505.00000000000006</ele><time>2026-04-18T12:17:17.444Z</time></trkpt><trkpt lat="43.4652151" lon="10.5962685"><ele>505.0</ele><time>2026-04-18T12:17:19.455Z</time></trkpt><trkpt lat="43.4653033" lon="10.5962177"><ele>504.4</ele><time>2026-04-18T12:17:21.436Z</time></trkpt><trkpt lat="43.4653435" lon="10.5961489"><ele>503.8</ele><time>2026-04-18T12:17:22.44Z</time></trkpt><trkpt lat="43.465392" lon="10.5960031"><ele>503.20000000000005</ele><time>2026-04-18T12:17:24.476Z</time></trkpt><trkpt lat="43.4654019" lon="10.5958588"><ele>502.6</ele><time>2026-04-18T12:17:26.437Z</time></trkpt><trkpt lat="43.4653858" lon="10.5957129"><ele>502.0</ele><time>2026-04-18T12:17:28.444Z</time></trkpt><trkpt lat="43.4653162" lon="10.5955688"><ele>502.00000000000006</ele><time>2026-04-18T12:17:30.422Z</time></trkpt><trkpt lat="43.4652849" lon="10.5954732"><ele>502.0</ele><time>2026-04-18T12:17:31.463Z</time></trkpt><trkpt lat="43.4652596" lon="10.5953682"><ele>502.0</ele><time>2026-04-18T12:17:32.431Z</time></trkpt><trkpt lat="43.4652436" lon="10.5952639"><ele>502.0</ele><time>2026-04-18T12:17:33.436Z</time></trkpt><trkpt lat="43.4652265" lon="10.5951426"><ele>502.00000000000006</ele><time>2026-04-18T12:17:34.452Z</time></trkpt><trkpt lat="43.4652104" lon="10.5950206"><ele>502.0</ele><time>2026-04-18T12:17:35.451Z</time></trkpt><trkpt lat="43.4651957" lon="10.5949118"><ele>502.50000000000006</ele><time>2026-04-18T12:17:36.427Z</time></trkpt><trkpt lat="43.4651945" lon="10.5948076"><ele>503.0</ele><time>2026-04-18T12:17:37.445Z</time></trkpt><trkpt lat="43.4651723" lon="10.5946848"><ele>503.5</ele><time>2026-04-18T12:17:38.444Z</time></trkpt><trkpt lat="43.4651817" lon="10.5945951"><ele>504.0</ele><time>2026-04-18T12:17:39.438Z</time></trkpt><trkpt lat="43.4652195" lon="10.5944835"><ele>504.50000000000006</ele><time>2026-04-18T12:17:41.44Z</time></trkpt><trkpt lat="43.4652407" lon="10.5943167"><ele>505.0</ele><time>2026-04-18T12:17:43.442Z</time></trkpt><trkpt lat="43.4652022" lon="10.5942426"><ele>505.0</ele><time>2026-04-18T12:17:44.458Z</time></trkpt><trkpt lat="43.4652445" lon="10.5940985"><ele>505.0</ele><time>2026-04-18T12:17:46.45Z</time></trkpt><trkpt lat="43.4653402" lon="10.5940268"><ele>505.0</ele><time>2026-04-18T12:17:48.438Z</time></trkpt><trkpt lat="43.4654623" lon="10.5939977"><ele>505.0</ele><time>2026-04-18T12:17:50.445Z</time></trkpt><trkpt lat="43.4655373" lon="10.5939969"><ele>505.0</ele><time>2026-04-18T12:17:51.441Z</time></trkpt><trkpt lat="43.4656251" lon="10.5940034"><ele>506.4</ele><time>2026-04-18T12:17:52.445Z</time></trkpt><trkpt lat="43.4657011" lon="10.5940149"><ele>507.8</ele><time>2026-04-18T12:17:53.445Z</time></trkpt><trkpt lat="43.4657749" lon="10.594037"><ele>509.20000000000005</ele><time>2026-04-18T12:17:54.443Z</time></trkpt><trkpt lat="43.4658727" lon="10.5941232"><ele>510.6</ele><time>2026-04-18T12:17:56.441Z</time></trkpt><trkpt lat="43.4659376" lon="10.5942442"><ele>512.0</ele><time>2026-04-18T12:17:58.449Z</time></trkpt><trkpt lat="43.4659558" lon="10.594344"><ele>512.0</ele><time>2026-04-18T12:18:00.449Z</time></trkpt><trkpt lat="43.4659748" lon="10.5944825"><ele>512.0</ele><time>2026-04-18T12:18:02.451Z</time></trkpt><trkpt lat="43.465969" lon="10.5945807"><ele>512.0</ele><time>2026-04-18T12:18:04.445Z</time></trkpt><trkpt lat="43.4659746" lon="10.5947119"><ele>512.0</ele><time>2026-04-18T12:18:06.457Z</time></trkpt><trkpt lat="43.4660003" lon="10.5948382"><ele>512.0</ele><time>2026-04-18T12:18:08.433Z</time></trkpt><trkpt lat="43.4660267" lon="10.5949831"><ele>512.8000000000001</ele><time>2026-04-18T12:18:10.441Z</time></trkpt><trkpt lat="43.4660573" lon="10.5950823"><ele>513.6</ele><time>2026-04-18T12:18:11.435Z</time></trkpt><trkpt lat="43.4661041" lon="10.5952402"><ele>514.4000000000001</ele><time>2026-04-18T12:18:13.444Z</time></trkpt><trkpt lat="43.4661377" lon="10.5953878"><ele>515.2</ele><time>2026-04-18T12:18:15.432Z</time></trkpt><trkpt lat="43.466145" lon="10.5954743"><ele>516.0</ele><time>2026-04-18T12:18:16.453Z</time></trkpt><trkpt lat="43.4661603" lon="10.5956516"><ele>516.1666666666666</ele><time>2026-04-18T12:18:18.452Z</time></trkpt><trkpt lat="43.4661785" lon="10.5957618"><ele>516.3333333333334</ele><time>2026-04-18T12:18:19.437Z</time></trkpt><trkpt lat="43.4661836" lon="10.5958826"><ele>516.5</ele><time>2026-04-18T12:18:20.422Z</time></trkpt><trkpt lat="43.4661929" lon="10.5960089"><ele>516.6666666666667</ele><time>2026-04-18T12:18:21.426Z</time></trkpt><trkpt lat="43.4661915" lon="10.5961293"><ele>516.8333333333334</ele><time>2026-04-18T12:18:22.449Z</time></trkpt><trkpt lat="43.4662096" lon="10.5962421"><ele>517.0</ele><time>2026-04-18T12:18:23.448Z</time></trkpt><trkpt lat="43.4661985" lon="10.5963522"><ele>518.0</ele><time>2026-04-18T12:18:24.451Z</time></trkpt><trkpt lat="43.4661742" lon="10.5964644"><ele>519.0</ele><time>2026-04-18T12:18:25.441Z</time></trkpt><trkpt lat="43.4661946" lon="10.596596"><ele>520.0</ele><time>2026-04-18T12:18:26.438Z</time></trkpt><trkpt lat="43.4662046" lon="10.5967017"><ele>521.0</ele><time>2026-04-18T12:18:27.435Z</time></trkpt><trkpt lat="43.466212" lon="10.5968199"><ele>522.0</ele><time>2026-04-18T12:18:28.441Z</time></trkpt><trkpt lat="43.4662095" lon="10.5969247"><ele>523.0</ele><time>2026-04-18T12:18:29.441Z</time></trkpt><trkpt lat="43.4662205" lon="10.5970434"><ele>525.1999999999999</ele><time>2026-04-18T12:18:30.447Z</time></trkpt><trkpt lat="43.4662228" lon="10.5971378"><ele>527.4</ele><time>2026-04-18T12:18:31.438Z</time></trkpt><trkpt lat="43.4662292" lon="10.5972267"><ele>529.5999999999999</ele><time>2026-04-18T12:18:32.451Z</time></trkpt><trkpt lat="43.4661384" lon="10.5973545"><ele>531.8</ele><time>2026-04-18T12:18:34.454Z</time></trkpt><trkpt lat="43.4660743" lon="10.5974119"><ele>534.0</ele><time>2026-04-18T12:18:35.459Z</time></trkpt><trkpt lat="43.46596" lon="10.5974823"><ele>534.0</ele><time>2026-04-18T12:18:37.445Z</time></trkpt><trkpt lat="43.4658984" lon="10.5975346"><ele>534.0</ele><time>2026-04-18T12:18:38.439Z</time></trkpt><trkpt lat="43.4658545" lon="10.5976009"><ele>534.0</ele><time>2026-04-18T12:18:39.433Z</time></trkpt><trkpt lat="43.465772" lon="10.5976692"><ele>534.0</ele><time>2026-04-18T12:18:40.442Z</time></trkpt><trkpt lat="43.4657088" lon="10.5977451"><ele>534.0</ele><time>2026-04-18T12:18:41.46Z</time></trkpt><trkpt lat="43.4656718" lon="10.5978218"><ele>534.0</ele><time>2026-04-18T12:18:42.436Z</time></trkpt><trkpt lat="43.4656807" lon="10.5979784"><ele>537.0</ele><time>2026-04-18T12:18:44.454Z</time></trkpt><trkpt lat="43.4657222" lon="10.5981498"><ele>540.0</ele><time>2026-04-18T12:18:46.44Z</time></trkpt><trkpt lat="43.4657987" lon="10.5982939"><ele>543.0</ele><time>2026-04-18T12:18:48.441Z</time></trkpt><trkpt lat="43.4658787" lon="10.5983919"><ele>546.0</ele><time>2026-04-18T12:18:50.446Z</time></trkpt><trkpt lat="43.4659395" lon="10.5984876"><ele>546.0</ele><time>2026-04-18T12:18:52.425Z</time></trkpt><trkpt lat="43.4659904" lon="10.5986343"><ele>546.0</ele><time>2026-04-18T12:18:54.437Z</time></trkpt><trkpt lat="43.4660665" lon="10.5987765"><ele>546.0</ele><time>2026-04-18T12:18:56.436Z</time></trkpt><trkpt lat="43.4661255" lon="10.5988662"><ele>546.0</ele><time>2026-04-18T12:18:57.439Z</time></trkpt><trkpt lat="43.4661994" lon="10.5989505"><ele>546.0</ele><time>2026-04-18T12:18:58.431Z</time></trkpt><trkpt lat="43.4662747" lon="10.5990256"><ele>548.0</ele><time>2026-04-18T12:18:59.444Z</time></trkpt><trkpt lat="43.4663444" lon="10.5990829"><ele>550.0</ele><time>2026-04-18T12:19:00.457Z</time></trkpt><trkpt lat="43.4664274" lon="10.5991439"><ele>552.0</ele><time>2026-04-18T12:19:01.417Z</time></trkpt><trkpt lat="43.4665156" lon="10.5992115"><ele>554.0</ele><time>2026-04-18T12:19:02.453Z</time></trkpt><trkpt lat="43.4665895" lon="10.599256"><ele>556.0</ele><time>2026-04-18T12:19:03.45Z</time></trkpt><trkpt lat="43.4666679" lon="10.5993304"><ele>556.0</ele><time>2026-04-18T12:19:04.435Z</time></trkpt><trkpt lat="43.4667355" lon="10.5994094"><ele>556.0</ele><time>2026-04-18T12:19:05.449Z</time></trkpt><trkpt lat="43.4668075" lon="10.5994833"><ele>556.0</ele><time>2026-04-18T12:19:06.462Z</time></trkpt><trkpt lat="43.4668818" lon="10.5995433"><ele>556.0</ele><time>2026-04-18T12:19:07.431Z</time></trkpt><trkpt lat="43.4669278" lon="10.5996153"><ele>556.0</ele><time>2026-04-18T12:19:08.447Z</time></trkpt><trkpt lat="43.4669671" lon="10.5996916"><ele>556.0</ele><time>2026-04-18T12:19:09.439Z</time></trkpt><trkpt lat="43.46705" lon="10.5998148"><ele>556.8333333333334</ele><time>2026-04-18T12:19:11.457Z</time></trkpt><trkpt lat="43.4671042" lon="10.599872"><ele>557.6666666666667</ele><time>2026-04-18T12:19:12.436Z</time></trkpt><trkpt lat="43.4671596" lon="10.5999278"><ele>558.5</ele><time>2026-04-18T12:19:13.449Z</time></trkpt><trkpt lat="43.467207" lon="10.5999918"><ele>559.3333333333334</ele><time>2026-04-18T12:19:14.43Z</time></trkpt><trkpt lat="43.4672492" lon="10.6000679"><ele>560.1666666666666</ele><time>2026-04-18T12:19:15.448Z</time></trkpt><trkpt lat="43.4672911" lon="10.6001516"><ele>561.0</ele><time>2026-04-18T12:19:16.441Z</time></trkpt><trkpt lat="43.467326" lon="10.6002979"><ele>563.8333333333334</ele><time>2026-04-18T12:19:18.457Z</time></trkpt><trkpt lat="43.4673469" lon="10.6003884"><ele>566.6666666666666</ele><time>2026-04-18T12:19:19.442Z</time></trkpt><trkpt lat="43.4673779" lon="10.6004932"><ele>569.5</ele><time>2026-04-18T12:19:20.452Z</time></trkpt><trkpt lat="43.4674048" lon="10.6005848"><ele>572.3333333333333</ele><time>2026-04-18T12:19:21.441Z</time></trkpt><trkpt lat="43.4674523" lon="10.6006986"><ele>575.1666666666666</ele><time>2026-04-18T12:19:22.44Z</time></trkpt><trkpt lat="43.4674878" lon="10.6008198"><ele>578.0</ele><time>2026-04-18T12:19:23.446Z</time></trkpt><trkpt lat="43.4675164" lon="10.6009305"><ele>578.0</ele><time>2026-04-18T12:19:24.464Z</time></trkpt><trkpt lat="43.4675656" lon="10.6010505"><ele>578.0</ele><time>2026-04-18T12:19:25.447Z</time></trkpt><trkpt lat="43.4676186" lon="10.6011683"><ele>578.0</ele><time>2026-04-18T12:19:26.445Z</time></trkpt><trkpt lat="43.4676714" lon="10.601272"><ele>578.0</ele><time>2026-04-18T12:19:27.439Z</time></trkpt><trkpt lat="43.4677052" lon="10.6013671"><ele>578.0</ele><time>2026-04-18T12:19:28.436Z</time></trkpt><trkpt lat="43.4677412" lon="10.6014619"><ele>578.0</ele><time>2026-04-18T12:19:29.443Z</time></trkpt><trkpt lat="43.4677803" lon="10.6015865"><ele>578.1666666666666</ele><time>2026-04-18T12:19:30.44Z</time></trkpt><trkpt lat="43.4678083" lon="10.6016968"><ele>578.3333333333333</ele><time>2026-04-18T12:19:31.438Z</time></trkpt><trkpt lat="43.467841" lon="10.6018084"><ele>578.5</ele><time>2026-04-18T12:19:32.434Z</time></trkpt><trkpt lat="43.4678661" lon="10.6019259"><ele>578.6666666666666</ele><time>2026-04-18T12:19:33.452Z</time></trkpt><trkpt lat="43.4678936" lon="10.6020283"><ele>578.8333333333334</ele><time>2026-04-18T12:19:34.452Z</time></trkpt><trkpt lat="43.4679288" lon="10.6021397"><ele>579.0</ele><time>2026-04-18T12:19:35.446Z</time></trkpt><trkpt lat="43.4679637" lon="10.6022219"><ele>579.8333333333334</ele><time>2026-04-18T12:19:36.446Z</time></trkpt><trkpt lat="43.4680088" lon="10.6023049"><ele>580.6666666666666</ele><time>2026-04-18T12:19:37.446Z</time></trkpt><trkpt lat="43.4680477" lon="10.6023748"><ele>581.5</ele><time>2026-04-18T12:19:38.441Z</time></trkpt><trkpt lat="43.4681331" lon="10.6024786"><ele>582.3333333333333</ele><time>2026-04-18T12:19:40.437Z</time></trkpt><trkpt lat="43.468192" lon="10.6025144"><ele>583.1666666666666</ele><time>2026-04-18T12:19:41.445Z</time></trkpt><trkpt lat="43.468257" lon="10.6025573"><ele>584.0</ele><time>2026-04-18T12:19:42.456Z</time></trkpt><trkpt lat="43.4683679" lon="10.602628"><ele>584.0</ele><time>2026-04-18T12:19:44.452Z</time></trkpt><trkpt lat="43.4684311" lon="10.6026721"><ele>584.0</ele><time>2026-04-18T12:19:45.446Z</time></trkpt><trkpt lat="43.4684907" lon="10.6027144"><ele>584.0</ele><time>2026-04-18T12:19:46.445Z</time></trkpt><trkpt lat="43.4685998" lon="10.6027909"><ele>584.0</ele><time>2026-04-18T12:19:48.445Z</time></trkpt><trkpt lat="43.4686637" lon="10.602818"><ele>584.0</ele><time>2026-04-18T12:19:49.468Z</time></trkpt><trkpt lat="43.4687788" lon="10.6028986"><ele>584.8333333333333</ele><time>2026-04-18T12:19:51.418Z</time></trkpt><trkpt lat="43.4688398" lon="10.6029433"><ele>585.6666666666666</ele><time>2026-04-18T12:19:52.448Z</time></trkpt><trkpt lat="43.4688992" lon="10.6029822"><ele>586.5</ele><time>2026-04-18T12:19:53.455Z</time></trkpt><trkpt lat="43.4689716" lon="10.6030393"><ele>587.3333333333334</ele><time>2026-04-18T12:19:54.454Z</time></trkpt><trkpt lat="43.46904" lon="10.6030868"><ele>588.1666666666667</ele><time>2026-04-18T12:19:55.462Z</time></trkpt><trkpt lat="43.4691087" lon="10.6031498"><ele>589.0</ele><time>2026-04-18T12:19:56.43Z</time></trkpt><trkpt lat="43.4691692" lon="10.6032129"><ele>589.0</ele><time>2026-04-18T12:19:57.444Z</time></trkpt><trkpt lat="43.4692699" lon="10.6033104"><ele>589.0</ele><time>2026-04-18T12:19:59.425Z</time></trkpt><trkpt lat="43.4693297" lon="10.6033632"><ele>589.0</ele><time>2026-04-18T12:20:00.414Z</time></trkpt><trkpt lat="43.4694453" lon="10.6034652"><ele>589.0</ele><time>2026-04-18T12:20:02.427Z</time></trkpt><trkpt lat="43.4695258" lon="10.603543"><ele>589.0</ele><time>2026-04-18T12:20:03.428Z</time></trkpt><trkpt lat="43.4695981" lon="10.6036082"><ele>588.1666666666667</ele><time>2026-04-18T12:20:04.43Z</time></trkpt><trkpt lat="43.4696718" lon="10.6036844"><ele>587.3333333333334</ele><time>2026-04-18T12:20:05.421Z</time></trkpt><trkpt lat="43.4697472" lon="10.6037626"><ele>586.5</ele><time>2026-04-18T12:20:06.421Z</time></trkpt><trkpt lat="43.4698258" lon="10.603831"><ele>585.6666666666666</ele><time>2026-04-18T12:20:07.419Z</time></trkpt><trkpt lat="43.4698996" lon="10.6038758"><ele>584.8333333333333</ele><time>2026-04-18T12:20:08.425Z</time></trkpt><trkpt lat="43.469961" lon="10.603918"><ele>584.0</ele><time>2026-04-18T12:20:09.433Z</time></trkpt><trkpt lat="43.470027" lon="10.6039597"><ele>584.0</ele><time>2026-04-18T12:20:10.431Z</time></trkpt><trkpt lat="43.4701093" lon="10.603973"><ele>584.0</ele><time>2026-04-18T12:20:11.432Z</time></trkpt><trkpt lat="43.4701857" lon="10.6039991"><ele>584.0</ele><time>2026-04-18T12:20:12.45Z</time></trkpt><trkpt lat="43.4702551" lon="10.6040219"><ele>584.0</ele><time>2026-04-18T12:20:13.434Z</time></trkpt><trkpt lat="43.4703676" lon="10.6040539"><ele>584.0</ele><time>2026-04-18T12:20:15.438Z</time></trkpt><trkpt lat="43.470494" lon="10.6040864"><ele>583.3333333333333</ele><time>2026-04-18T12:20:17.432Z</time></trkpt><trkpt lat="43.4705646" lon="10.6040889"><ele>582.6666666666666</ele><time>2026-04-18T12:20:18.444Z</time></trkpt><trkpt lat="43.470651" lon="10.6040781"><ele>582.0</ele><time>2026-04-18T12:20:19.436Z</time></trkpt><trkpt lat="43.4707239" lon="10.6040698"><ele>581.3333333333334</ele><time>2026-04-18T12:20:20.428Z</time></trkpt><trkpt lat="43.4708036" lon="10.6040657"><ele>580.6666666666667</ele><time>2026-04-18T12:20:21.419Z</time></trkpt><trkpt lat="43.4708776" lon="10.6040687"><ele>580.0</ele><time>2026-04-18T12:20:22.426Z</time></trkpt><trkpt lat="43.4710057" lon="10.6040829"><ele>580.0</ele><time>2026-04-18T12:20:24.449Z</time></trkpt><trkpt lat="43.4711145" lon="10.6041114"><ele>580.0</ele><time>2026-04-18T12:20:26.433Z</time></trkpt><trkpt lat="43.4711768" lon="10.6041459"><ele>580.0</ele><time>2026-04-18T12:20:27.426Z</time></trkpt><trkpt lat="43.471241" lon="10.6041823"><ele>580.0</ele><time>2026-04-18T12:20:28.433Z</time></trkpt><trkpt lat="43.4713047" lon="10.6042076"><ele>580.0</ele><time>2026-04-18T12:20:29.428Z</time></trkpt><trkpt lat="43.4713752" lon="10.6042284"><ele>580.0</ele><time>2026-04-18T12:20:30.419Z</time></trkpt><trkpt lat="43.4714461" lon="10.6042341"><ele>580.4</ele><time>2026-04-18T12:20:31.43Z</time></trkpt><trkpt lat="43.4715232" lon="10.6042235"><ele>580.8</ele><time>2026-04-18T12:20:32.427Z</time></trkpt><trkpt lat="43.4716467" lon="10.6041516"><ele>581.2</ele><time>2026-04-18T12:20:34.424Z</time></trkpt><trkpt lat="43.4717049" lon="10.6041167"><ele>581.6</ele><time>2026-04-18T12:20:35.427Z</time></trkpt><trkpt lat="43.4717733" lon="10.604085"><ele>582.0</ele><time>2026-04-18T12:20:36.424Z</time></trkpt><trkpt lat="43.471905" lon="10.6040638"><ele>582.0</ele><time>2026-04-18T12:20:38.442Z</time></trkpt><trkpt lat="43.4719933" lon="10.6040737"><ele>582.0</ele><time>2026-04-18T12:20:39.441Z</time></trkpt><trkpt lat="43.4720764" lon="10.6040873"><ele>582.0</ele><time>2026-04-18T12:20:40.429Z</time></trkpt><trkpt lat="43.4721519" lon="10.6041862"><ele>582.0</ele><time>2026-04-18T12:20:42.428Z</time></trkpt><trkpt lat="43.4721786" lon="10.6043139"><ele>582.0</ele><time>2026-04-18T12:20:44.448Z</time></trkpt><trkpt lat="43.4722322" lon="10.6044409"><ele>582.8000000000001</ele><time>2026-04-18T12:20:46.43Z</time></trkpt><trkpt lat="43.4722679" lon="10.6045391"><ele>583.6</ele><time>2026-04-18T12:20:48.426Z</time></trkpt><trkpt lat="43.4723111" lon="10.6046595"><ele>584.4000000000001</ele><time>2026-04-18T12:20:50.434Z</time></trkpt><trkpt lat="43.472336" lon="10.6048083"><ele>585.2</ele><time>2026-04-18T12:20:52.436Z</time></trkpt><trkpt lat="43.4723562" lon="10.6049693"><ele>586.0</ele><time>2026-04-18T12:20:54.448Z</time></trkpt><trkpt lat="43.4723845" lon="10.6051142"><ele>586.0</ele><time>2026-04-18T12:20:56.438Z</time></trkpt><trkpt lat="43.4724144" lon="10.6051934"><ele>586.0</ele><time>2026-04-18T12:20:57.436Z</time></trkpt><trkpt lat="43.4724554" lon="10.6052773"><ele>586.0</ele><time>2026-04-18T12:20:58.427Z</time></trkpt><trkpt lat="43.4724995" lon="10.6053557"><ele>586.0</ele><time>2026-04-18T12:20:59.429Z</time></trkpt><trkpt lat="43.4725594" lon="10.6054343"><ele>586.0</ele><time>2026-04-18T12:21:00.429Z</time></trkpt><trkpt lat="43.4726406" lon="10.6054981"><ele>586.0</ele><time>2026-04-18T12:21:01.43Z</time></trkpt><trkpt lat="43.4727259" lon="10.6055823"><ele>586.4</ele><time>2026-04-18T12:21:02.438Z</time></trkpt><trkpt lat="43.4728035" lon="10.6056551"><ele>586.8</ele><time>2026-04-18T12:21:03.436Z</time></trkpt><trkpt lat="43.4728742" lon="10.6057349"><ele>587.1999999999999</ele><time>2026-04-18T12:21:04.434Z</time></trkpt><trkpt lat="43.4729941" lon="10.6058468"><ele>587.6</ele><time>2026-04-18T12:21:06.423Z</time></trkpt><trkpt lat="43.4730671" lon="10.6059115"><ele>588.0</ele><time>2026-04-18T12:21:07.427Z</time></trkpt><trkpt lat="43.4731348" lon="10.6059814"><ele>588.0</ele><time>2026-04-18T12:21:08.432Z</time></trkpt><trkpt lat="43.4732021" lon="10.6060289"><ele>588.0</ele><time>2026-04-18T12:21:09.431Z</time></trkpt><trkpt lat="43.473296" lon="10.6060684"><ele>588.0</ele><time>2026-04-18T12:21:11.427Z</time></trkpt><trkpt lat="43.4734273" lon="10.606069"><ele>588.0</ele><time>2026-04-18T12:21:13.434Z</time></trkpt><trkpt lat="43.4734951" lon="10.6060572"><ele>588.0</ele><time>2026-04-18T12:21:14.427Z</time></trkpt><trkpt lat="43.4735738" lon="10.6060456"><ele>588.0</ele><time>2026-04-18T12:21:15.45Z</time></trkpt><trkpt lat="43.4736418" lon="10.6060425"><ele>588.0</ele><time>2026-04-18T12:21:16.446Z</time></trkpt><trkpt lat="43.4737198" lon="10.6060495"><ele>588.0</ele><time>2026-04-18T12:21:17.434Z</time></trkpt><trkpt lat="43.4738079" lon="10.6060582"><ele>588.0</ele><time>2026-04-18T12:21:18.429Z</time></trkpt><trkpt lat="43.4738966" lon="10.6060734"><ele>588.0</ele><time>2026-04-18T12:21:19.441Z</time></trkpt><trkpt lat="43.473986" lon="10.6060983"><ele>588.0</ele><time>2026-04-18T12:21:20.433Z</time></trkpt><trkpt lat="43.4740807" lon="10.6061229"><ele>586.0</ele><time>2026-04-18T12:21:21.435Z</time></trkpt><trkpt lat="43.4741677" lon="10.6061357"><ele>584.0</ele><time>2026-04-18T12:21:22.434Z</time></trkpt><trkpt lat="43.4742533" lon="10.6061328"><ele>582.0</ele><time>2026-04-18T12:21:23.432Z</time></trkpt><trkpt lat="43.4743338" lon="10.6061106"><ele>580.0</ele><time>2026-04-18T12:21:24.434Z</time></trkpt><trkpt lat="43.4744028" lon="10.606087"><ele>578.0</ele><time>2026-04-18T12:21:25.443Z</time></trkpt><trkpt lat="43.4744711" lon="10.6060676"><ele>576.0</ele><time>2026-04-18T12:21:26.434Z</time></trkpt><trkpt lat="43.4745353" lon="10.6060553"><ele>575.6666666666666</ele><time>2026-04-18T12:21:27.428Z</time></trkpt><trkpt lat="43.4746278" lon="10.6060622"><ele>575.3333333333334</ele><time>2026-04-18T12:21:29.447Z</time></trkpt><trkpt lat="43.4747255" lon="10.6060631"><ele>575.0</ele><time>2026-04-18T12:21:31.428Z</time></trkpt><trkpt lat="43.474796" lon="10.6060399"><ele>574.6666666666667</ele><time>2026-04-18T12:21:33.429Z</time></trkpt><trkpt lat="43.4748731" lon="10.6060141"><ele>574.3333333333334</ele><time>2026-04-18T12:21:45.431Z</time></trkpt><trkpt lat="43.474848" lon="10.6059201"><ele>574.0</ele><time>2026-04-18T12:21:54.427Z</time></trkpt><trkpt lat="43.474845" lon="10.6057979"><ele>574.0</ele><time>2026-04-18T12:21:59.43Z</time></trkpt><trkpt lat="43.4748602" lon="10.60571"><ele>574.0</ele><time>2026-04-18T12:22:01.42Z</time></trkpt><trkpt lat="43.4748621" lon="10.6056028"><ele>574.0</ele><time>2026-04-18T12:22:03.427Z</time></trkpt><trkpt lat="43.4748646" lon="10.6054929"><ele>574.0</ele><time>2026-04-18T12:22:05.43Z</time></trkpt><trkpt lat="43.4748642" lon="10.6053971"><ele>574.0</ele><time>2026-04-18T12:22:07.418Z</time></trkpt><trkpt lat="43.4748901" lon="10.6053025"><ele>574.0</ele><time>2026-04-18T12:22:10.436Z</time></trkpt><trkpt lat="43.4748898" lon="10.605206"><ele>574.0</ele><time>2026-04-18T12:22:12.431Z</time></trkpt><trkpt lat="43.4749008" lon="10.6051067"><ele>574.4285714285714</ele><time>2026-04-18T12:22:14.428Z</time></trkpt><trkpt lat="43.4749105" lon="10.6050209"><ele>574.8571428571429</ele><time>2026-04-18T12:22:16.436Z</time></trkpt><trkpt lat="43.4749177" lon="10.6049185"><ele>575.2857142857142</ele><time>2026-04-18T12:22:18.436Z</time></trkpt><trkpt lat="43.4748743" lon="10.6048434"><ele>575.7142857142858</ele><time>2026-04-18T12:22:20.434Z</time></trkpt><trkpt lat="43.4748722" lon="10.6047235"><ele>576.1428571428571</ele><time>2026-04-18T12:22:23.433Z</time></trkpt><trkpt lat="43.4748926" lon="10.6046028"><ele>576.5714285714286</ele><time>2026-04-18T12:22:26.443Z</time></trkpt><trkpt lat="43.4748907" lon="10.6045159"><ele>577.0</ele><time>2026-04-18T12:22:28.432Z</time></trkpt><trkpt lat="43.4748869" lon="10.6043998"><ele>577.5</ele><time>2026-04-18T12:22:30.425Z</time></trkpt><trkpt lat="43.4748871" lon="10.6042973"><ele>578.0</ele><time>2026-04-18T12:22:32.432Z</time></trkpt><trkpt lat="43.4748649" lon="10.6041745"><ele>578.5</ele><time>2026-04-18T12:22:34.433Z</time></trkpt><trkpt lat="43.4748399" lon="10.6040507"><ele>579.0</ele><time>2026-04-18T12:22:37.441Z</time></trkpt><trkpt lat="43.4748501" lon="10.6039469"><ele>579.5</ele><time>2026-04-18T12:22:39.435Z</time></trkpt><trkpt lat="43.4748309" lon="10.6038247"><ele>580.0</ele><time>2026-04-18T12:22:41.435Z</time></trkpt><trkpt lat="43.474836" lon="10.6037318"><ele>579.6666666666667</ele><time>2026-04-18T12:22:43.427Z</time></trkpt><trkpt lat="43.4748483" lon="10.6036194"><ele>579.3333333333334</ele><time>2026-04-18T12:22:46.436Z</time></trkpt><trkpt lat="43.4749101" lon="10.6035496"><ele>579.0</ele><time>2026-04-18T12:22:48.434Z</time></trkpt><trkpt lat="43.4749826" lon="10.6034524"><ele>578.6666666666666</ele><time>2026-04-18T12:22:50.438Z</time></trkpt><trkpt lat="43.4750619" lon="10.603388"><ele>578.3333333333333</ele><time>2026-04-18T12:22:52.432Z</time></trkpt><trkpt lat="43.4751276" lon="10.6033886"><ele>578.0</ele><time>2026-04-18T12:22:53.439Z</time></trkpt><trkpt lat="43.4752178" lon="10.6033949"><ele>578.0</ele><time>2026-04-18T12:22:55.434Z</time></trkpt><trkpt lat="43.4753053" lon="10.6033649"><ele>578.0</ele><time>2026-04-18T12:22:57.43Z</time></trkpt><trkpt lat="43.4754102" lon="10.603345"><ele>578.0</ele><time>2026-04-18T12:22:59.441Z</time></trkpt><trkpt lat="43.4755305" lon="10.6033257"><ele>578.0</ele><time>2026-04-18T12:23:01.427Z</time></trkpt><trkpt lat="43.4756051" lon="10.6033197"><ele>578.0</ele><time>2026-04-18T12:23:02.427Z</time></trkpt><trkpt lat="43.4756726" lon="10.6033255"><ele>577.5</ele><time>2026-04-18T12:23:03.433Z</time></trkpt><trkpt lat="43.4757599" lon="10.6033365"><ele>577.0</ele><time>2026-04-18T12:23:04.422Z</time></trkpt><trkpt lat="43.4758446" lon="10.6033544"><ele>576.5</ele><time>2026-04-18T12:23:05.442Z</time></trkpt><trkpt lat="43.4759316" lon="10.6033871"><ele>576.0</ele><time>2026-04-18T12:23:06.438Z</time></trkpt><trkpt lat="43.4760073" lon="10.6034329"><ele>575.5</ele><time>2026-04-18T12:23:07.438Z</time></trkpt><trkpt lat="43.4760735" lon="10.6034912"><ele>575.0</ele><time>2026-04-18T12:23:08.434Z</time></trkpt><trkpt lat="43.476138" lon="10.6035566"><ele>575.0</ele><time>2026-04-18T12:23:09.438Z</time></trkpt><trkpt lat="43.4762003" lon="10.6036324"><ele>575.0</ele><time>2026-04-18T12:23:10.426Z</time></trkpt><trkpt lat="43.4762538" lon="10.603704"><ele>575.0</ele><time>2026-04-18T12:23:11.442Z</time></trkpt><trkpt lat="43.4763194" lon="10.6037755"><ele>575.0</ele><time>2026-04-18T12:23:12.443Z</time></trkpt><trkpt lat="43.4763951" lon="10.6038384"><ele>575.0</ele><time>2026-04-18T12:23:13.46Z</time></trkpt><trkpt lat="43.4764829" lon="10.6038753"><ele>575.0</ele><time>2026-04-18T12:23:14.435Z</time></trkpt><trkpt lat="43.4765807" lon="10.6038892"><ele>573.6</ele><time>2026-04-18T12:23:15.436Z</time></trkpt><trkpt lat="43.4766833" lon="10.6038794"><ele>572.2</ele><time>2026-04-18T12:23:16.446Z</time></trkpt><trkpt lat="43.4767682" lon="10.6038331"><ele>570.8</ele><time>2026-04-18T12:23:17.438Z</time></trkpt><trkpt lat="43.4768565" lon="10.6037795"><ele>569.4</ele><time>2026-04-18T12:23:18.453Z</time></trkpt><trkpt lat="43.4769432" lon="10.6037448"><ele>568.0</ele><time>2026-04-18T12:23:19.446Z</time></trkpt><trkpt lat="43.4770199" lon="10.6037142"><ele>568.0</ele><time>2026-04-18T12:23:20.438Z</time></trkpt><trkpt lat="43.4771001" lon="10.6036733"><ele>568.0</ele><time>2026-04-18T12:23:21.461Z</time></trkpt><trkpt lat="43.4771789" lon="10.6036367"><ele>568.0</ele><time>2026-04-18T12:23:22.441Z</time></trkpt><trkpt lat="43.4772569" lon="10.6036116"><ele>568.0</ele><time>2026-04-18T12:23:23.443Z</time></trkpt><trkpt lat="43.4773389" lon="10.6035892"><ele>568.0</ele><time>2026-04-18T12:23:24.436Z</time></trkpt><trkpt lat="43.4774254" lon="10.6035646"><ele>568.0</ele><time>2026-04-18T12:23:25.44Z</time></trkpt><trkpt lat="43.4775122" lon="10.6035328"><ele>566.7142857142857</ele><time>2026-04-18T12:23:26.438Z</time></trkpt><trkpt lat="43.4775828" lon="10.6034799"><ele>565.4285714285713</ele><time>2026-04-18T12:23:27.442Z</time></trkpt><trkpt lat="43.4776488" lon="10.6034238"><ele>564.1428571428571</ele><time>2026-04-18T12:23:28.427Z</time></trkpt><trkpt lat="43.477697" lon="10.6033534"><ele>562.8571428571429</ele><time>2026-04-18T12:23:29.427Z</time></trkpt><trkpt lat="43.4777401" lon="10.6032826"><ele>561.5714285714287</ele><time>2026-04-18T12:23:30.43Z</time></trkpt><trkpt lat="43.4777844" lon="10.6032124"><ele>560.2857142857143</ele><time>2026-04-18T12:23:31.436Z</time></trkpt><trkpt lat="43.4778375" lon="10.6031244"><ele>559.0</ele><time>2026-04-18T12:23:32.435Z</time></trkpt><trkpt lat="43.4778981" lon="10.6030337"><ele>557.0</ele><time>2026-04-18T12:23:33.436Z</time></trkpt><trkpt lat="43.47796" lon="10.6029562"><ele>555.0</ele><time>2026-04-18T12:23:34.442Z</time></trkpt><trkpt lat="43.4780259" lon="10.6028785"><ele>553.0</ele><time>2026-04-18T12:23:35.45Z</time></trkpt><trkpt lat="43.478089" lon="10.6027969"><ele>551.0</ele><time>2026-04-18T12:23:36.438Z</time></trkpt><trkpt lat="43.4781469" lon="10.6027095"><ele>549.0</ele><time>2026-04-18T12:23:37.434Z</time></trkpt><trkpt lat="43.4781936" lon="10.60261"><ele>547.0</ele><time>2026-04-18T12:23:38.44Z</time></trkpt><trkpt lat="43.4782428" lon="10.6025033"><ele>547.0</ele><time>2026-04-18T12:23:39.429Z</time></trkpt><trkpt lat="43.4782759" lon="10.6023953"><ele>547.0</ele><time>2026-04-18T12:23:40.44Z</time></trkpt><trkpt lat="43.4783111" lon="10.6022774"><ele>547.0</ele><time>2026-04-18T12:23:41.45Z</time></trkpt><trkpt lat="43.4783569" lon="10.6021762"><ele>547.0</ele><time>2026-04-18T12:23:42.427Z</time></trkpt><trkpt lat="43.4784196" lon="10.6020824"><ele>547.0</ele><time>2026-04-18T12:23:43.44Z</time></trkpt><trkpt lat="43.4784828" lon="10.6020113"><ele>547.0</ele><time>2026-04-18T12:23:44.433Z</time></trkpt><trkpt lat="43.4785505" lon="10.6019369"><ele>546.6666666666667</ele><time>2026-04-18T12:23:45.438Z</time></trkpt><trkpt lat="43.4786212" lon="10.6018601"><ele>546.3333333333334</ele><time>2026-04-18T12:23:46.435Z</time></trkpt><trkpt lat="43.4786847" lon="10.6017841"><ele>546.0</ele><time>2026-04-18T12:23:47.441Z</time></trkpt><trkpt lat="43.478753" lon="10.601724"><ele>545.6666666666666</ele><time>2026-04-18T12:23:48.432Z</time></trkpt><trkpt lat="43.4788227" lon="10.6016888"><ele>545.3333333333333</ele><time>2026-04-18T12:23:49.431Z</time></trkpt><trkpt lat="43.478907" lon="10.6016929"><ele>545.0</ele><time>2026-04-18T12:23:50.431Z</time></trkpt><trkpt lat="43.4789948" lon="10.6017389"><ele>544.6</ele><time>2026-04-18T12:23:51.429Z</time></trkpt><trkpt lat="43.4790771" lon="10.6017695"><ele>544.2</ele><time>2026-04-18T12:23:52.431Z</time></trkpt><trkpt lat="43.4791635" lon="10.6017672"><ele>543.8</ele><time>2026-04-18T12:23:53.442Z</time></trkpt><trkpt lat="43.4792454" lon="10.6017296"><ele>543.4</ele><time>2026-04-18T12:23:54.438Z</time></trkpt><trkpt lat="43.4793315" lon="10.6016594"><ele>543.0</ele><time>2026-04-18T12:23:55.445Z</time></trkpt><trkpt lat="43.4794019" lon="10.6015706"><ele>543.0</ele><time>2026-04-18T12:23:56.428Z</time></trkpt><trkpt lat="43.4794638" lon="10.6014657"><ele>543.0</ele><time>2026-04-18T12:23:57.439Z</time></trkpt><trkpt lat="43.4795325" lon="10.6013631"><ele>543.0</ele><time>2026-04-18T12:23:58.447Z</time></trkpt><trkpt lat="43.4796043" lon="10.6012601"><ele>543.0</ele><time>2026-04-18T12:23:59.458Z</time></trkpt><trkpt lat="43.4796765" lon="10.6011939"><ele>543.0</ele><time>2026-04-18T12:24:00.451Z</time></trkpt><trkpt lat="43.479736" lon="10.6011342"><ele>541.5</ele><time>2026-04-18T12:24:01.464Z</time></trkpt><trkpt lat="43.4798055" lon="10.6010693"><ele>540.0</ele><time>2026-04-18T12:24:02.442Z</time></trkpt><trkpt lat="43.4798549" lon="10.6010121"><ele>538.5</ele><time>2026-04-18T12:24:03.433Z</time></trkpt><trkpt lat="43.4799065" lon="10.6009362"><ele>537.0</ele><time>2026-04-18T12:24:04.433Z</time></trkpt><trkpt lat="43.4799347" lon="10.6008385"><ele>535.5</ele><time>2026-04-18T12:24:05.439Z</time></trkpt><trkpt lat="43.4799413" lon="10.6007432"><ele>534.0</ele><time>2026-04-18T12:24:06.44Z</time></trkpt><trkpt lat="43.4799422" lon="10.6006332"><ele>534.0</ele><time>2026-04-18T12:24:07.437Z</time></trkpt><trkpt lat="43.4799368" lon="10.600522"><ele>534.0</ele><time>2026-04-18T12:24:08.419Z</time></trkpt><trkpt lat="43.4799441" lon="10.6003999"><ele>534.0</ele><time>2026-04-18T12:24:09.417Z</time></trkpt><trkpt lat="43.4799637" lon="10.6002704"><ele>534.0</ele><time>2026-04-18T12:24:10.471Z</time></trkpt><trkpt lat="43.4800033" lon="10.6001499"><ele>534.0</ele><time>2026-04-18T12:24:11.42Z</time></trkpt><trkpt lat="43.4800499" lon="10.600041"><ele>533.3333333333334</ele><time>2026-04-18T12:24:12.47Z</time></trkpt><trkpt lat="43.4801107" lon="10.5999272"><ele>532.6666666666666</ele><time>2026-04-18T12:24:13.468Z</time></trkpt><trkpt lat="43.4801838" lon="10.5998306"><ele>532.0</ele><time>2026-04-18T12:24:14.475Z</time></trkpt><trkpt lat="43.4802533" lon="10.5997514"><ele>531.3333333333333</ele><time>2026-04-18T12:24:15.421Z</time></trkpt><trkpt lat="43.4803237" lon="10.5997"><ele>530.6666666666666</ele><time>2026-04-18T12:24:16.43Z</time></trkpt><trkpt lat="43.4803858" lon="10.5996763"><ele>530.0</ele><time>2026-04-18T12:24:17.438Z</time></trkpt><trkpt lat="43.4804491" lon="10.5996463"><ele>529.4285714285713</ele><time>2026-04-18T12:24:18.488Z</time></trkpt><trkpt lat="43.480512" lon="10.5996254"><ele>528.8571428571429</ele><time>2026-04-18T12:24:19.464Z</time></trkpt><trkpt lat="43.4805762" lon="10.5996113"><ele>528.2857142857142</ele><time>2026-04-18T12:24:20.445Z</time></trkpt><trkpt lat="43.4806383" lon="10.5995905"><ele>527.7142857142857</ele><time>2026-04-18T12:24:21.439Z</time></trkpt><trkpt lat="43.4807151" lon="10.5995732"><ele>527.1428571428571</ele><time>2026-04-18T12:24:22.491Z</time></trkpt><trkpt lat="43.4807902" lon="10.5995559"><ele>526.5714285714286</ele><time>2026-04-18T12:24:23.471Z</time></trkpt><trkpt lat="43.4808882" lon="10.5995184"><ele>526.0</ele><time>2026-04-18T12:24:25.436Z</time></trkpt><trkpt lat="43.4809834" lon="10.5995"><ele>525.5</ele><time>2026-04-18T12:24:28.458Z</time></trkpt><trkpt lat="43.4811066" lon="10.5994721"><ele>525.0</ele><time>2026-04-18T12:24:30.425Z</time></trkpt><trkpt lat="43.4811743" lon="10.5994362"><ele>524.5</ele><time>2026-04-18T12:24:31.441Z</time></trkpt><trkpt lat="43.4812568" lon="10.5994051"><ele>524.0</ele><time>2026-04-18T12:24:32.425Z</time></trkpt><trkpt lat="43.4813364" lon="10.5993642"><ele>523.5</ele><time>2026-04-18T12:24:33.436Z</time></trkpt><trkpt lat="43.4814153" lon="10.5993441"><ele>523.0</ele><time>2026-04-18T12:24:34.425Z</time></trkpt><trkpt lat="43.4814994" lon="10.5993317"><ele>521.1666666666667</ele><time>2026-04-18T12:24:35.438Z</time></trkpt><trkpt lat="43.4815797" lon="10.5993236"><ele>519.3333333333334</ele><time>2026-04-18T12:24:36.441Z</time></trkpt><trkpt lat="43.4816663" lon="10.5993175"><ele>517.5</ele><time>2026-04-18T12:24:37.457Z</time></trkpt><trkpt lat="43.4817526" lon="10.5993105"><ele>515.6666666666666</ele><time>2026-04-18T12:24:38.432Z</time></trkpt><trkpt lat="43.4818514" lon="10.5992965"><ele>513.8333333333333</ele><time>2026-04-18T12:24:39.435Z</time></trkpt><trkpt lat="43.4819433" lon="10.5992883"><ele>512.0</ele><time>2026-04-18T12:24:40.421Z</time></trkpt><trkpt lat="43.4820364" lon="10.5992846"><ele>508.8</ele><time>2026-04-18T12:24:41.448Z</time></trkpt><trkpt lat="43.4821365" lon="10.5992875"><ele>505.6</ele><time>2026-04-18T12:24:42.433Z</time></trkpt><trkpt lat="43.4822419" lon="10.5993108"><ele>502.40000000000003</ele><time>2026-04-18T12:24:43.488Z</time></trkpt><trkpt lat="43.4823489" lon="10.5993552"><ele>499.20000000000005</ele><time>2026-04-18T12:24:44.45Z</time></trkpt><trkpt lat="43.4824669" lon="10.5993976"><ele>496.0</ele><time>2026-04-18T12:24:45.421Z</time></trkpt><trkpt lat="43.4825764" lon="10.5994531"><ele>496.25</ele><time>2026-04-18T12:24:46.447Z</time></trkpt><trkpt lat="43.4826843" lon="10.5995203"><ele>496.5</ele><time>2026-04-18T12:24:47.45Z</time></trkpt><trkpt lat="43.4827877" lon="10.5995763"><ele>496.75</ele><time>2026-04-18T12:24:48.473Z</time></trkpt><trkpt lat="43.4829072" lon="10.5996399"><ele>497.0</ele><time>2026-04-18T12:24:49.451Z</time></trkpt><trkpt lat="43.4830094" lon="10.5997086"><ele>497.0</ele><time>2026-04-18T12:24:50.469Z</time></trkpt><trkpt lat="43.483109" lon="10.5997748"><ele>497.00000000000006</ele><time>2026-04-18T12:24:51.473Z</time></trkpt><trkpt lat="43.4832071" lon="10.5998446"><ele>497.00000000000006</ele><time>2026-04-18T12:24:52.501Z</time></trkpt><trkpt lat="43.4833075" lon="10.5999154"><ele>497.0</ele><time>2026-04-18T12:24:53.474Z</time></trkpt><trkpt lat="43.4833983" lon="10.5999744"><ele>497.0</ele><time>2026-04-18T12:24:54.507Z</time></trkpt><trkpt lat="43.4835051" lon="10.6000195"><ele>497.0</ele><time>2026-04-18T12:24:55.465Z</time></trkpt><trkpt lat="43.4836172" lon="10.6000476"><ele>497.0</ele><time>2026-04-18T12:24:56.456Z</time></trkpt><trkpt lat="43.4837315" lon="10.6000504"><ele>497.0</ele><time>2026-04-18T12:24:57.429Z</time></trkpt><trkpt lat="43.4838521" lon="10.6000282"><ele>497.0</ele><time>2026-04-18T12:24:58.478Z</time></trkpt><trkpt lat="43.4840844" lon="10.6000075"><ele>498.5</ele><time>2026-04-18T12:25:00.457Z</time></trkpt><trkpt lat="43.4842024" lon="10.5999824"><ele>500.0</ele><time>2026-04-18T12:25:01.447Z</time></trkpt><trkpt lat="43.4843247" lon="10.5999371"><ele>501.5</ele><time>2026-04-18T12:25:02.477Z</time></trkpt><trkpt lat="43.4844446" lon="10.5999153"><ele>503.0</ele><time>2026-04-18T12:25:03.433Z</time></trkpt><trkpt lat="43.4845659" lon="10.5998877"><ele>503.5</ele><time>2026-04-18T12:25:04.451Z</time></trkpt><trkpt lat="43.4846889" lon="10.5998455"><ele>504.0</ele><time>2026-04-18T12:25:05.441Z</time></trkpt><trkpt lat="43.4848013" lon="10.5998345"><ele>504.5</ele><time>2026-04-18T12:25:06.475Z</time></trkpt><trkpt lat="43.4849166" lon="10.5998171"><ele>505.0</ele><time>2026-04-18T12:25:07.449Z</time></trkpt><trkpt lat="43.4850275" lon="10.5997894"><ele>505.0</ele><time>2026-04-18T12:25:08.473Z</time></trkpt><trkpt lat="43.4851309" lon="10.5997633"><ele>505.0</ele><time>2026-04-18T12:25:09.449Z</time></trkpt><trkpt lat="43.4852212" lon="10.5997221"><ele>505.0</ele><time>2026-04-18T12:25:10.431Z</time></trkpt><trkpt lat="43.4853131" lon="10.5996853"><ele>505.0</ele><time>2026-04-18T12:25:11.422Z</time></trkpt><trkpt lat="43.4854041" lon="10.5996699"><ele>505.0</ele><time>2026-04-18T12:25:12.471Z</time></trkpt><trkpt lat="43.4854929" lon="10.5996491"><ele>505.4</ele><time>2026-04-18T12:25:13.452Z</time></trkpt><trkpt lat="43.4855891" lon="10.5996118"><ele>505.8</ele><time>2026-04-18T12:25:14.435Z</time></trkpt><trkpt lat="43.4856749" lon="10.5995843"><ele>506.20000000000005</ele><time>2026-04-18T12:25:15.47Z</time></trkpt><trkpt lat="43.4857591" lon="10.5995728"><ele>506.6</ele><time>2026-04-18T12:25:16.476Z</time></trkpt><trkpt lat="43.4858622" lon="10.5995646"><ele>507.0</ele><time>2026-04-18T12:25:17.463Z</time></trkpt><trkpt lat="43.4859689" lon="10.5995742"><ele>507.0</ele><time>2026-04-18T12:25:18.486Z</time></trkpt><trkpt lat="43.4860719" lon="10.5995817"><ele>507.00000000000006</ele><time>2026-04-18T12:25:19.481Z</time></trkpt><trkpt lat="43.4861729" lon="10.5995942"><ele>507.00000000000006</ele><time>2026-04-18T12:25:20.437Z</time></trkpt><trkpt lat="43.4862623" lon="10.5996118"><ele>507.0</ele><time>2026-04-18T12:25:21.462Z</time></trkpt><trkpt lat="43.4863523" lon="10.599648"><ele>507.0</ele><time>2026-04-18T12:25:22.451Z</time></trkpt><trkpt lat="43.4864707" lon="10.5996727"><ele>505.75</ele><time>2026-04-18T12:25:23.431Z</time></trkpt><trkpt lat="43.4866164" lon="10.5996716"><ele>504.5</ele><time>2026-04-18T12:25:24.431Z</time></trkpt><trkpt lat="43.4867293" lon="10.5996643"><ele>503.25</ele><time>2026-04-18T12:25:25.437Z</time></trkpt><trkpt lat="43.486819" lon="10.5996482"><ele>502.0</ele><time>2026-04-18T12:25:26.438Z</time></trkpt><trkpt lat="43.4869165" lon="10.5995974"><ele>502.0</ele><time>2026-04-18T12:25:27.43Z</time></trkpt><trkpt lat="43.4870187" lon="10.5995413"><ele>502.0</ele><time>2026-04-18T12:25:28.43Z</time></trkpt><trkpt lat="43.4871062" lon="10.5994436"><ele>502.0</ele><time>2026-04-18T12:25:29.432Z</time></trkpt><trkpt lat="43.4871979" lon="10.5993656"><ele>502.0</ele><time>2026-04-18T12:25:30.447Z</time></trkpt><trkpt lat="43.4873001" lon="10.5992435"><ele>500.0</ele><time>2026-04-18T12:25:31.49Z</time></trkpt><trkpt lat="43.4874001" lon="10.5991275"><ele>498.0</ele><time>2026-04-18T12:25:32.427Z</time></trkpt><trkpt lat="43.487478" lon="10.5990124"><ele>496.0</ele><time>2026-04-18T12:25:33.436Z</time></trkpt><trkpt lat="43.4875565" lon="10.5989105"><ele>494.0</ele><time>2026-04-18T12:25:34.456Z</time></trkpt><trkpt lat="43.4876379" lon="10.5987857"><ele>494.0</ele><time>2026-04-18T12:25:35.423Z</time></trkpt><trkpt lat="43.4877015" lon="10.5986727"><ele>494.0</ele><time>2026-04-18T12:25:36.451Z</time></trkpt><trkpt lat="43.4877521" lon="10.5985528"><ele>494.0</ele><time>2026-04-18T12:25:37.499Z</time></trkpt><trkpt lat="43.4877881" lon="10.5984412"><ele>494.0</ele><time>2026-04-18T12:25:38.435Z</time></trkpt><trkpt lat="43.4878285" lon="10.5983388"><ele>494.0</ele><time>2026-04-18T12:25:39.461Z</time></trkpt><trkpt lat="43.4878885" lon="10.5982141"><ele>493.8333333333333</ele><time>2026-04-18T12:25:40.458Z</time></trkpt><trkpt lat="43.4879538" lon="10.5981128"><ele>493.66666666666663</ele><time>2026-04-18T12:25:41.498Z</time></trkpt><trkpt lat="43.4880149" lon="10.5980177"><ele>493.5</ele><time>2026-04-18T12:25:42.491Z</time></trkpt><trkpt lat="43.488098" lon="10.5979436"><ele>493.33333333333337</ele><time>2026-04-18T12:25:43.458Z</time></trkpt><trkpt lat="43.4881503" lon="10.5978702"><ele>493.1666666666667</ele><time>2026-04-18T12:25:44.472Z</time></trkpt><trkpt lat="43.4881976" lon="10.5978066"><ele>493.0</ele><time>2026-04-18T12:25:45.482Z</time></trkpt><trkpt lat="43.4882349" lon="10.597699"><ele>493.33333333333337</ele><time>2026-04-18T12:25:47.449Z</time></trkpt><trkpt lat="43.488279" lon="10.597582"><ele>493.6666666666667</ele><time>2026-04-18T12:25:49.471Z</time></trkpt><trkpt lat="43.4883339" lon="10.597432"><ele>494.0</ele><time>2026-04-18T12:25:51.481Z</time></trkpt><trkpt lat="43.4883645" lon="10.5973139"><ele>494.33333333333337</ele><time>2026-04-18T12:25:53.481Z</time></trkpt><trkpt lat="43.4883965" lon="10.5972363"><ele>494.6666666666667</ele><time>2026-04-18T12:25:55.467Z</time></trkpt><trkpt lat="43.4884218" lon="10.5971388"><ele>495.0</ele><time>2026-04-18T12:25:57.474Z</time></trkpt><trkpt lat="43.4884422" lon="10.5970493"><ele>495.6666666666667</ele><time>2026-04-18T12:25:58.47Z</time></trkpt><trkpt lat="43.4884738" lon="10.5969647"><ele>496.33333333333337</ele><time>2026-04-18T12:25:59.468Z</time></trkpt><trkpt lat="43.488537" lon="10.5968818"><ele>497.0</ele><time>2026-04-18T12:26:00.475Z</time></trkpt><trkpt lat="43.4885897" lon="10.5967967"><ele>497.6666666666667</ele><time>2026-04-18T12:26:01.446Z</time></trkpt><trkpt lat="43.4886274" lon="10.5966958"><ele>498.33333333333337</ele><time>2026-04-18T12:26:02.461Z</time></trkpt><trkpt lat="43.4886859" lon="10.5966075"><ele>499.0</ele><time>2026-04-18T12:26:03.417Z</time></trkpt><trkpt lat="43.4887517" lon="10.5965187"><ele>497.6</ele><time>2026-04-18T12:26:04.432Z</time></trkpt><trkpt lat="43.4888209" lon="10.5964319"><ele>496.2</ele><time>2026-04-18T12:26:05.437Z</time></trkpt><trkpt lat="43.4889003" lon="10.5963936"><ele>494.80000000000007</ele><time>2026-04-18T12:26:06.435Z</time></trkpt><trkpt lat="43.4890225" lon="10.5963653"><ele>493.40000000000003</ele><time>2026-04-18T12:26:08.447Z</time></trkpt><trkpt lat="43.489162" lon="10.5964116"><ele>492.0</ele><time>2026-04-18T12:26:10.435Z</time></trkpt><trkpt lat="43.4892454" lon="10.5964606"><ele>492.0</ele><time>2026-04-18T12:26:11.438Z</time></trkpt><trkpt lat="43.4893131" lon="10.5965032"><ele>492.0</ele><time>2026-04-18T12:26:12.437Z</time></trkpt><trkpt lat="43.4893925" lon="10.5965493"><ele>492.0</ele><time>2026-04-18T12:26:13.447Z</time></trkpt><trkpt lat="43.489476" lon="10.596601"><ele>492.0</ele><time>2026-04-18T12:26:14.449Z</time></trkpt><trkpt lat="43.4895497" lon="10.5966322"><ele>492.0</ele><time>2026-04-18T12:26:15.439Z</time></trkpt><trkpt lat="43.4896286" lon="10.5966352"><ele>492.0</ele><time>2026-04-18T12:26:16.444Z</time></trkpt><trkpt lat="43.4897064" lon="10.5966208"><ele>492.00000000000006</ele><time>2026-04-18T12:26:17.459Z</time></trkpt><trkpt lat="43.4897816" lon="10.5966199"><ele>492.0</ele><time>2026-04-18T12:26:18.447Z</time></trkpt><trkpt lat="43.489852" lon="10.5966066"><ele>492.00000000000006</ele><time>2026-04-18T12:26:19.448Z</time></trkpt><trkpt lat="43.4899225" lon="10.5965934"><ele>492.00000000000006</ele><time>2026-04-18T12:26:20.454Z</time></trkpt><trkpt lat="43.4899923" lon="10.5965724"><ele>492.0</ele><time>2026-04-18T12:26:21.451Z</time></trkpt><trkpt lat="43.4900595" lon="10.5965309"><ele>492.00000000000006</ele><time>2026-04-18T12:26:22.457Z</time></trkpt><trkpt lat="43.4901262" lon="10.5964751"><ele>492.00000000000006</ele><time>2026-04-18T12:26:23.446Z</time></trkpt><trkpt lat="43.4901943" lon="10.5964148"><ele>492.0</ele><time>2026-04-18T12:26:24.448Z</time></trkpt><trkpt lat="43.4902608" lon="10.5963626"><ele>492.0</ele><time>2026-04-18T12:26:25.458Z</time></trkpt><trkpt lat="43.4903231" lon="10.5963317"><ele>492.0</ele><time>2026-04-18T12:26:26.454Z</time></trkpt><trkpt lat="43.4903914" lon="10.5963039"><ele>492.0</ele><time>2026-04-18T12:26:27.446Z</time></trkpt><trkpt lat="43.4905128" lon="10.5963037"><ele>492.0</ele><time>2026-04-18T12:26:29.466Z</time></trkpt><trkpt lat="43.4905839" lon="10.5963081"><ele>492.0</ele><time>2026-04-18T12:26:30.462Z</time></trkpt><trkpt lat="43.4906581" lon="10.5963324"><ele>491.6666666666667</ele><time>2026-04-18T12:26:31.468Z</time></trkpt><trkpt lat="43.4907329" lon="10.5963511"><ele>491.33333333333337</ele><time>2026-04-18T12:26:32.46Z</time></trkpt><trkpt lat="43.4908135" lon="10.5963544"><ele>491.0</ele><time>2026-04-18T12:26:33.447Z</time></trkpt><trkpt lat="43.4908958" lon="10.5963509"><ele>490.6666666666667</ele><time>2026-04-18T12:26:34.459Z</time></trkpt><trkpt lat="43.4909795" lon="10.5963508"><ele>490.33333333333337</ele><time>2026-04-18T12:26:35.455Z</time></trkpt><trkpt lat="43.4910611" lon="10.596349"><ele>490.0</ele><time>2026-04-18T12:26:36.451Z</time></trkpt><trkpt lat="43.491152" lon="10.5963441"><ele>490.00000000000006</ele><time>2026-04-18T12:26:37.46Z</time></trkpt><trkpt lat="43.4912429" lon="10.5963514"><ele>490.0</ele><time>2026-04-18T12:26:38.441Z</time></trkpt><trkpt lat="43.4913301" lon="10.5963856"><ele>490.0</ele><time>2026-04-18T12:26:39.436Z</time></trkpt><trkpt lat="43.4914094" lon="10.596422"><ele>490.0</ele><time>2026-04-18T12:26:40.432Z</time></trkpt><trkpt lat="43.4914832" lon="10.596468"><ele>490.00000000000006</ele><time>2026-04-18T12:26:41.433Z</time></trkpt><trkpt lat="43.4915591" lon="10.5965263"><ele>490.0</ele><time>2026-04-18T12:26:42.453Z</time></trkpt><trkpt lat="43.4916267" lon="10.5965819"><ele>489.2</ele><time>2026-04-18T12:26:43.428Z</time></trkpt><trkpt lat="43.4916902" lon="10.5966271"><ele>488.4</ele><time>2026-04-18T12:26:44.454Z</time></trkpt><trkpt lat="43.4917473" lon="10.5966741"><ele>487.6</ele><time>2026-04-18T12:26:45.445Z</time></trkpt><trkpt lat="43.4918178" lon="10.5967681"><ele>486.8</ele><time>2026-04-18T12:26:47.439Z</time></trkpt><trkpt lat="43.491863" lon="10.5969301"><ele>486.0</ele><time>2026-04-18T12:26:49.438Z</time></trkpt><trkpt lat="43.4918924" lon="10.5970663"><ele>485.57142857142856</ele><time>2026-04-18T12:26:51.455Z</time></trkpt><trkpt lat="43.4919152" lon="10.5971505"><ele>485.14285714285717</ele><time>2026-04-18T12:26:52.464Z</time></trkpt><trkpt lat="43.4919445" lon="10.5972413"><ele>484.7142857142857</ele><time>2026-04-18T12:26:53.467Z</time></trkpt><trkpt lat="43.4919771" lon="10.5973371"><ele>484.2857142857143</ele><time>2026-04-18T12:26:54.457Z</time></trkpt><trkpt lat="43.4919967" lon="10.5974326"><ele>483.8571428571429</ele><time>2026-04-18T12:26:55.46Z</time></trkpt><trkpt lat="43.4920034" lon="10.5975461"><ele>483.42857142857144</ele><time>2026-04-18T12:26:56.461Z</time></trkpt><trkpt lat="43.4920097" lon="10.5976544"><ele>483.0</ele><time>2026-04-18T12:26:57.46Z</time></trkpt><trkpt lat="43.4920204" lon="10.5977703"><ele>482.0</ele><time>2026-04-18T12:26:58.479Z</time></trkpt><trkpt lat="43.4920412" lon="10.5978884"><ele>481.0</ele><time>2026-04-18T12:26:59.438Z</time></trkpt><trkpt lat="43.4920654" lon="10.5979887"><ele>480.0</ele><time>2026-04-18T12:27:00.472Z</time></trkpt><trkpt lat="43.4920805" lon="10.5980754"><ele>479.0</ele><time>2026-04-18T12:27:01.454Z</time></trkpt><trkpt lat="43.4920892" lon="10.5981621"><ele>478.0</ele><time>2026-04-18T12:27:02.446Z</time></trkpt><trkpt lat="43.4920913" lon="10.5982514"><ele>477.0</ele><time>2026-04-18T12:27:03.451Z</time></trkpt><trkpt lat="43.4920787" lon="10.5983613"><ele>476.0</ele><time>2026-04-18T12:27:04.453Z</time></trkpt><trkpt lat="43.4920607" lon="10.5984673"><ele>475.66666666666663</ele><time>2026-04-18T12:27:05.458Z</time></trkpt><trkpt lat="43.4920316" lon="10.5985785"><ele>475.3333333333333</ele><time>2026-04-18T12:27:06.459Z</time></trkpt><trkpt lat="43.4920046" lon="10.5986778"><ele>475.0</ele><time>2026-04-18T12:27:07.457Z</time></trkpt><trkpt lat="43.4919819" lon="10.5987815"><ele>474.66666666666663</ele><time>2026-04-18T12:27:08.464Z</time></trkpt><trkpt lat="43.4919648" lon="10.5988823"><ele>474.3333333333333</ele><time>2026-04-18T12:27:09.469Z</time></trkpt><trkpt lat="43.4919584" lon="10.5989824"><ele>474.0</ele><time>2026-04-18T12:27:10.463Z</time></trkpt><trkpt lat="43.4919611" lon="10.5990853"><ele>473.0</ele><time>2026-04-18T12:27:11.488Z</time></trkpt><trkpt lat="43.4919661" lon="10.5991787"><ele>472.0</ele><time>2026-04-18T12:27:12.467Z</time></trkpt><trkpt lat="43.4919652" lon="10.5992823"><ele>471.0</ele><time>2026-04-18T12:27:13.465Z</time></trkpt><trkpt lat="43.4919596" lon="10.5993837"><ele>470.0</ele><time>2026-04-18T12:27:14.429Z</time></trkpt><trkpt lat="43.4919547" lon="10.5994955"><ele>469.0</ele><time>2026-04-18T12:27:15.442Z</time></trkpt><trkpt lat="43.4919614" lon="10.5996097"><ele>468.0</ele><time>2026-04-18T12:27:16.473Z</time></trkpt><trkpt lat="43.491988" lon="10.5997166"><ele>467.8571428571429</ele><time>2026-04-18T12:27:17.455Z</time></trkpt><trkpt lat="43.4920371" lon="10.5997916"><ele>467.7142857142858</ele><time>2026-04-18T12:27:18.452Z</time></trkpt><trkpt lat="43.4920952" lon="10.5998645"><ele>467.57142857142856</ele><time>2026-04-18T12:27:19.434Z</time></trkpt><trkpt lat="43.4921517" lon="10.5999169"><ele>467.42857142857144</ele><time>2026-04-18T12:27:20.441Z</time></trkpt><trkpt lat="43.4922155" lon="10.5999538"><ele>467.2857142857143</ele><time>2026-04-18T12:27:21.445Z</time></trkpt><trkpt lat="43.4922773" lon="10.5999993"><ele>467.1428571428571</ele><time>2026-04-18T12:27:22.442Z</time></trkpt><trkpt lat="43.4923352" lon="10.6000695"><ele>466.99999999999994</ele><time>2026-04-18T12:27:23.443Z</time></trkpt><trkpt lat="43.4923766" lon="10.600137"><ele>467.0</ele><time>2026-04-18T12:27:24.448Z</time></trkpt><trkpt lat="43.4924045" lon="10.6002212"><ele>467.00000000000006</ele><time>2026-04-18T12:27:25.441Z</time></trkpt><trkpt lat="43.4924455" lon="10.6003488"><ele>467.00000000000006</ele><time>2026-04-18T12:27:27.443Z</time></trkpt><trkpt lat="43.4925368" lon="10.6004461"><ele>467.0</ele><time>2026-04-18T12:27:29.443Z</time></trkpt><trkpt lat="43.4925946" lon="10.6004805"><ele>467.0</ele><time>2026-04-18T12:27:30.454Z</time></trkpt><trkpt lat="43.4927052" lon="10.6005733"><ele>466.66666666666663</ele><time>2026-04-18T12:27:32.458Z</time></trkpt><trkpt lat="43.4927653" lon="10.6006088"><ele>466.3333333333333</ele><time>2026-04-18T12:27:33.466Z</time></trkpt><trkpt lat="43.492894" lon="10.6005799"><ele>466.0</ele><time>2026-04-18T12:27:35.477Z</time></trkpt><trkpt lat="43.4929598" lon="10.6005547"><ele>465.66666666666663</ele><time>2026-04-18T12:27:36.468Z</time></trkpt><trkpt lat="43.4930253" lon="10.6005258"><ele>465.3333333333333</ele><time>2026-04-18T12:27:37.465Z</time></trkpt><trkpt lat="43.493094" lon="10.6005066"><ele>465.0</ele><time>2026-04-18T12:27:38.47Z</time></trkpt><trkpt lat="43.4931676" lon="10.6004958"><ele>465.0</ele><time>2026-04-18T12:27:39.442Z</time></trkpt><trkpt lat="43.4932522" lon="10.6005022"><ele>465.0</ele><time>2026-04-18T12:27:40.458Z</time></trkpt><trkpt lat="43.4933346" lon="10.6005072"><ele>465.0</ele><time>2026-04-18T12:27:41.438Z</time></trkpt><trkpt lat="43.4934251" lon="10.6005144"><ele>465.0</ele><time>2026-04-18T12:27:42.44Z</time></trkpt><trkpt lat="43.4935112" lon="10.600525"><ele>465.0</ele><time>2026-04-18T12:27:43.442Z</time></trkpt><trkpt lat="43.4935723" lon="10.6005799"><ele>465.0</ele><time>2026-04-18T12:27:44.436Z</time></trkpt><trkpt lat="43.4936375" lon="10.6006384"><ele>465.0</ele><time>2026-04-18T12:27:45.458Z</time></trkpt><trkpt lat="43.4937067" lon="10.6006899"><ele>465.0</ele><time>2026-04-18T12:27:46.451Z</time></trkpt><trkpt lat="43.4937759" lon="10.6007449"><ele>465.0</ele><time>2026-04-18T12:27:47.448Z</time></trkpt><trkpt lat="43.493848" lon="10.600792"><ele>465.0</ele><time>2026-04-18T12:27:48.457Z</time></trkpt><trkpt lat="43.4939225" lon="10.6008426"><ele>465.0</ele><time>2026-04-18T12:27:49.447Z</time></trkpt><trkpt lat="43.4939964" lon="10.6009064"><ele>465.0</ele><time>2026-04-18T12:27:50.451Z</time></trkpt><trkpt lat="43.4940647" lon="10.6009574"><ele>463.0</ele><time>2026-04-18T12:27:51.445Z</time></trkpt><trkpt lat="43.4941321" lon="10.6009988"><ele>461.0</ele><time>2026-04-18T12:27:52.448Z</time></trkpt><trkpt lat="43.4941972" lon="10.6010447"><ele>459.0</ele><time>2026-04-18T12:27:53.448Z</time></trkpt><trkpt lat="43.4942626" lon="10.601078"><ele>457.0</ele><time>2026-04-18T12:27:54.466Z</time></trkpt><trkpt lat="43.4943625" lon="10.601127"><ele>455.0</ele><time>2026-04-18T12:27:56.43Z</time></trkpt><trkpt lat="43.4944705" lon="10.6010762"><ele>453.0</ele><time>2026-04-18T12:27:58.454Z</time></trkpt><trkpt lat="43.4945301" lon="10.6010137"><ele>451.5</ele><time>2026-04-18T12:27:59.451Z</time></trkpt><trkpt lat="43.4945984" lon="10.600941"><ele>450.0</ele><time>2026-04-18T12:28:00.449Z</time></trkpt><trkpt lat="43.4946626" lon="10.6008834"><ele>448.5</ele><time>2026-04-18T12:28:01.435Z</time></trkpt><trkpt lat="43.4947364" lon="10.6008485"><ele>447.0</ele><time>2026-04-18T12:28:02.453Z</time></trkpt><trkpt lat="43.4948117" lon="10.6008342"><ele>445.5</ele><time>2026-04-18T12:28:03.446Z</time></trkpt><trkpt lat="43.4948992" lon="10.6008422"><ele>444.0</ele><time>2026-04-18T12:28:04.447Z</time></trkpt><trkpt lat="43.4949822" lon="10.6008571"><ele>444.0</ele><time>2026-04-18T12:28:05.448Z</time></trkpt><trkpt lat="43.4950697" lon="10.6008909"><ele>444.0</ele><time>2026-04-18T12:28:06.441Z</time></trkpt><trkpt lat="43.4951526" lon="10.6009307"><ele>444.0</ele><time>2026-04-18T12:28:07.438Z</time></trkpt><trkpt lat="43.4952203" lon="10.6009732"><ele>444.0</ele><time>2026-04-18T12:28:08.439Z</time></trkpt><trkpt lat="43.495305" lon="10.6010035"><ele>444.0</ele><time>2026-04-18T12:28:09.441Z</time></trkpt><trkpt lat="43.4954008" lon="10.6010632"><ele>444.0</ele><time>2026-04-18T12:28:10.45Z</time></trkpt><trkpt lat="43.4954999" lon="10.6011235"><ele>443.25</ele><time>2026-04-18T12:28:11.449Z</time></trkpt><trkpt lat="43.4956067" lon="10.6011628"><ele>442.5</ele><time>2026-04-18T12:28:12.425Z</time></trkpt><trkpt lat="43.495729" lon="10.6011849"><ele>441.75</ele><time>2026-04-18T12:28:13.466Z</time></trkpt><trkpt lat="43.4958448" lon="10.6012128"><ele>441.0</ele><time>2026-04-18T12:28:14.449Z</time></trkpt><trkpt lat="43.4959534" lon="10.6012407"><ele>441.0</ele><time>2026-04-18T12:28:15.456Z</time></trkpt><trkpt lat="43.4960683" lon="10.6012717"><ele>441.0</ele><time>2026-04-18T12:28:16.456Z</time></trkpt><trkpt lat="43.4961769" lon="10.6013056"><ele>441.0</ele><time>2026-04-18T12:28:17.483Z</time></trkpt><trkpt lat="43.4962785" lon="10.6013248"><ele>441.0</ele><time>2026-04-18T12:28:18.476Z</time></trkpt><trkpt lat="43.4963698" lon="10.6013435"><ele>441.0</ele><time>2026-04-18T12:28:19.467Z</time></trkpt><trkpt lat="43.49646" lon="10.6013578"><ele>439.5</ele><time>2026-04-18T12:28:20.494Z</time></trkpt><trkpt lat="43.4965408" lon="10.6013742"><ele>438.0</ele><time>2026-04-18T12:28:21.5Z</time></trkpt><trkpt lat="43.4966086" lon="10.6013983"><ele>436.5</ele><time>2026-04-18T12:28:22.469Z</time></trkpt><trkpt lat="43.4966679" lon="10.6015285"><ele>435.0</ele><time>2026-04-18T12:28:24.423Z</time></trkpt><trkpt lat="43.4966678" lon="10.6016376"><ele>433.5</ele><time>2026-04-18T12:28:25.463Z</time></trkpt><trkpt lat="43.4966669" lon="10.6017561"><ele>432.0</ele><time>2026-04-18T12:28:26.448Z</time></trkpt><trkpt lat="43.496663" lon="10.601876"><ele>432.0</ele><time>2026-04-18T12:28:27.447Z</time></trkpt><trkpt lat="43.4966559" lon="10.6019853"><ele>432.0</ele><time>2026-04-18T12:28:28.453Z</time></trkpt><trkpt lat="43.4966604" lon="10.602112"><ele>432.0</ele><time>2026-04-18T12:28:29.425Z</time></trkpt><trkpt lat="43.4966884" lon="10.6022371"><ele>432.0</ele><time>2026-04-18T12:28:30.457Z</time></trkpt><trkpt lat="43.4967284" lon="10.6023402"><ele>432.0</ele><time>2026-04-18T12:28:31.459Z</time></trkpt><trkpt lat="43.4967866" lon="10.6024386"><ele>432.0</ele><time>2026-04-18T12:28:32.433Z</time></trkpt><trkpt lat="43.4968323" lon="10.6025348"><ele>432.20000000000005</ele><time>2026-04-18T12:28:33.433Z</time></trkpt><trkpt lat="43.4968807" lon="10.6026385"><ele>432.40000000000003</ele><time>2026-04-18T12:28:34.447Z</time></trkpt><trkpt lat="43.4969352" lon="10.6027249"><ele>432.59999999999997</ele><time>2026-04-18T12:28:35.439Z</time></trkpt><trkpt lat="43.4970035" lon="10.6028215"><ele>432.79999999999995</ele><time>2026-04-18T12:28:36.433Z</time></trkpt><trkpt lat="43.4970685" lon="10.6029304"><ele>433.0</ele><time>2026-04-18T12:28:37.433Z</time></trkpt><trkpt lat="43.4971146" lon="10.6030395"><ele>430.50000000000006</ele><time>2026-04-18T12:28:38.436Z</time></trkpt><trkpt lat="43.4971449" lon="10.6031453"><ele>428.0</ele><time>2026-04-18T12:28:39.444Z</time></trkpt><trkpt lat="43.4971528" lon="10.6032492"><ele>425.5</ele><time>2026-04-18T12:28:40.442Z</time></trkpt><trkpt lat="43.4971531" lon="10.6033402"><ele>423.0</ele><time>2026-04-18T12:28:41.422Z</time></trkpt><trkpt lat="43.497214" lon="10.6034996"><ele>420.50000000000006</ele><time>2026-04-18T12:28:43.425Z</time></trkpt><trkpt lat="43.4972825" lon="10.6035699"><ele>418.0</ele><time>2026-04-18T12:28:44.426Z</time></trkpt><trkpt lat="43.4973478" lon="10.6036209"><ele>417.33333333333337</ele><time>2026-04-18T12:28:45.461Z</time></trkpt><trkpt lat="43.4974058" lon="10.6036809"><ele>416.6666666666667</ele><time>2026-04-18T12:28:46.445Z</time></trkpt><trkpt lat="43.4974631" lon="10.6037556"><ele>416.0</ele><time>2026-04-18T12:28:47.471Z</time></trkpt><trkpt lat="43.497504" lon="10.6038467"><ele>415.33333333333337</ele><time>2026-04-18T12:28:48.44Z</time></trkpt><trkpt lat="43.497541" lon="10.6039624"><ele>414.6666666666667</ele><time>2026-04-18T12:28:49.448Z</time></trkpt><trkpt lat="43.4975775" lon="10.604074"><ele>414.0</ele><time>2026-04-18T12:28:50.43Z</time></trkpt><trkpt lat="43.4975925" lon="10.6041868"><ele>414.0</ele><time>2026-04-18T12:28:51.426Z</time></trkpt><trkpt lat="43.4976297" lon="10.604273"><ele>414.0</ele><time>2026-04-18T12:28:52.441Z</time></trkpt><trkpt lat="43.4977041" lon="10.6043242"><ele>414.0</ele><time>2026-04-18T12:28:54.439Z</time></trkpt><trkpt lat="43.497822" lon="10.6043254"><ele>414.0</ele><time>2026-04-18T12:28:56.435Z</time></trkpt><trkpt lat="43.4979009" lon="10.6043617"><ele>414.0</ele><time>2026-04-18T12:28:57.447Z</time></trkpt><trkpt lat="43.4979951" lon="10.6044048"><ele>412.5</ele><time>2026-04-18T12:28:58.453Z</time></trkpt><trkpt lat="43.4980637" lon="10.6044643"><ele>411.0</ele><time>2026-04-18T12:28:59.443Z</time></trkpt><trkpt lat="43.4981471" lon="10.6045254"><ele>409.5</ele><time>2026-04-18T12:29:00.438Z</time></trkpt><trkpt lat="43.4982214" lon="10.6045567"><ele>408.0</ele><time>2026-04-18T12:29:01.441Z</time></trkpt><trkpt lat="43.4983129" lon="10.6045815"><ele>406.5</ele><time>2026-04-18T12:29:02.415Z</time></trkpt><trkpt lat="43.4983942" lon="10.6046102"><ele>405.0</ele><time>2026-04-18T12:29:03.429Z</time></trkpt><trkpt lat="43.4984637" lon="10.6046554"><ele>405.0</ele><time>2026-04-18T12:29:04.455Z</time></trkpt><trkpt lat="43.4985354" lon="10.6047096"><ele>405.0</ele><time>2026-04-18T12:29:05.459Z</time></trkpt><trkpt lat="43.4985953" lon="10.6047691"><ele>405.0</ele><time>2026-04-18T12:29:06.45Z</time></trkpt><trkpt lat="43.4986551" lon="10.6048466"><ele>405.0</ele><time>2026-04-18T12:29:07.455Z</time></trkpt><trkpt lat="43.4986951" lon="10.6049522"><ele>405.0</ele><time>2026-04-18T12:29:08.447Z</time></trkpt><trkpt lat="43.498721" lon="10.6050747"><ele>405.0</ele><time>2026-04-18T12:29:09.437Z</time></trkpt><trkpt lat="43.4987397" lon="10.6051937"><ele>402.1666666666667</ele><time>2026-04-18T12:29:10.441Z</time></trkpt><trkpt lat="43.4987662" lon="10.6053042"><ele>399.33333333333337</ele><time>2026-04-18T12:29:11.445Z</time></trkpt><trkpt lat="43.4987995" lon="10.6054288"><ele>396.5</ele><time>2026-04-18T12:29:12.45Z</time></trkpt><trkpt lat="43.4988231" lon="10.6055536"><ele>393.6666666666667</ele><time>2026-04-18T12:29:13.431Z</time></trkpt><trkpt lat="43.4988526" lon="10.6056674"><ele>390.83333333333337</ele><time>2026-04-18T12:29:14.444Z</time></trkpt><trkpt lat="43.4988664" lon="10.6057621"><ele>388.0</ele><time>2026-04-18T12:29:15.443Z</time></trkpt><trkpt lat="43.4988738" lon="10.6058631"><ele>388.00000000000006</ele><time>2026-04-18T12:29:18.435Z</time></trkpt><trkpt lat="43.4988632" lon="10.6059548"><ele>388.0</ele><time>2026-04-18T12:29:24.462Z</time></trkpt><trkpt lat="43.4988454" lon="10.6060415"><ele>388.0</ele><time>2026-04-18T12:29:26.467Z</time></trkpt><trkpt lat="43.4988458" lon="10.606147"><ele>388.0</ele><time>2026-04-18T12:29:28.44Z</time></trkpt><trkpt lat="43.4988949" lon="10.6062769"><ele>388.00000000000006</ele><time>2026-04-18T12:29:30.45Z</time></trkpt><trkpt lat="43.4989575" lon="10.6063994"><ele>388.0</ele><time>2026-04-18T12:29:32.446Z</time></trkpt><trkpt lat="43.499043" lon="10.6065139"><ele>387.79999999999995</ele><time>2026-04-18T12:29:34.47Z</time></trkpt><trkpt lat="43.4991107" lon="10.6066377"><ele>387.6</ele><time>2026-04-18T12:29:36.451Z</time></trkpt><trkpt lat="43.4991508" lon="10.6067767"><ele>387.4</ele><time>2026-04-18T12:29:38.445Z</time></trkpt><trkpt lat="43.4991497" lon="10.6069394"><ele>387.20000000000005</ele><time>2026-04-18T12:29:40.447Z</time></trkpt><trkpt lat="43.4991127" lon="10.6070814"><ele>387.0</ele><time>2026-04-18T12:29:42.442Z</time></trkpt><trkpt lat="43.4990785" lon="10.6072203"><ele>386.3333333333333</ele><time>2026-04-18T12:29:44.464Z</time></trkpt><trkpt lat="43.4991058" lon="10.6073438"><ele>385.6666666666667</ele><time>2026-04-18T12:29:46.453Z</time></trkpt><trkpt lat="43.4991533" lon="10.6074203"><ele>385.0</ele><time>2026-04-18T12:29:47.459Z</time></trkpt><trkpt lat="43.4992133" lon="10.6074715"><ele>384.33333333333337</ele><time>2026-04-18T12:29:48.432Z</time></trkpt><trkpt lat="43.4992876" lon="10.6075241"><ele>383.6666666666667</ele><time>2026-04-18T12:29:49.434Z</time></trkpt><trkpt lat="43.4993721" lon="10.6075692"><ele>383.0</ele><time>2026-04-18T12:29:50.427Z</time></trkpt><trkpt lat="43.4994562" lon="10.6076244"><ele>383.0</ele><time>2026-04-18T12:29:51.438Z</time></trkpt><trkpt lat="43.4995393" lon="10.607677"><ele>383.0</ele><time>2026-04-18T12:29:52.442Z</time></trkpt><trkpt lat="43.4996054" lon="10.6077406"><ele>383.0</ele><time>2026-04-18T12:29:53.444Z</time></trkpt><trkpt lat="43.4996763" lon="10.6078092"><ele>383.0</ele><time>2026-04-18T12:29:54.439Z</time></trkpt><trkpt lat="43.4997461" lon="10.6078777"><ele>383.0</ele><time>2026-04-18T12:29:55.445Z</time></trkpt><trkpt lat="43.4997976" lon="10.6079649"><ele>383.0</ele><time>2026-04-18T12:29:56.45Z</time></trkpt><trkpt lat="43.4998459" lon="10.608047"><ele>381.0</ele><time>2026-04-18T12:29:57.444Z</time></trkpt><trkpt lat="43.4998907" lon="10.60814"><ele>379.0</ele><time>2026-04-18T12:29:58.432Z</time></trkpt><trkpt lat="43.499939" lon="10.6082276"><ele>377.0</ele><time>2026-04-18T12:29:59.439Z</time></trkpt><trkpt lat="43.4999829" lon="10.6083162"><ele>375.0</ele><time>2026-04-18T12:30:00.425Z</time></trkpt><trkpt lat="43.5000253" lon="10.6084051"><ele>373.0</ele><time>2026-04-18T12:30:01.434Z</time></trkpt><trkpt lat="43.5000731" lon="10.6085069"><ele>371.0</ele><time>2026-04-18T12:30:02.448Z</time></trkpt><trkpt lat="43.5001052" lon="10.6086057"><ele>372.5</ele><time>2026-04-18T12:30:03.433Z</time></trkpt><trkpt lat="43.5001459" lon="10.6087144"><ele>374.0</ele><time>2026-04-18T12:30:04.435Z</time></trkpt><trkpt lat="43.5001791" lon="10.6088213"><ele>375.5</ele><time>2026-04-18T12:30:05.446Z</time></trkpt><trkpt lat="43.5002266" lon="10.6089179"><ele>377.0</ele><time>2026-04-18T12:30:06.45Z</time></trkpt><trkpt lat="43.5002847" lon="10.6089971"><ele>378.5</ele><time>2026-04-18T12:30:07.444Z</time></trkpt><trkpt lat="43.500355" lon="10.6090639"><ele>380.0</ele><time>2026-04-18T12:30:08.434Z</time></trkpt><trkpt lat="43.5004232" lon="10.6091173"><ele>378.1666666666667</ele><time>2026-04-18T12:30:09.475Z</time></trkpt><trkpt lat="43.500487" lon="10.6091586"><ele>376.33333333333337</ele><time>2026-04-18T12:30:10.459Z</time></trkpt><trkpt lat="43.5005441" lon="10.6092169"><ele>374.5</ele><time>2026-04-18T12:30:11.465Z</time></trkpt><trkpt lat="43.5005846" lon="10.609289"><ele>372.6666666666667</ele><time>2026-04-18T12:30:12.452Z</time></trkpt><trkpt lat="43.5006168" lon="10.6093681"><ele>370.8333333333333</ele><time>2026-04-18T12:30:13.438Z</time></trkpt><trkpt lat="43.5007067" lon="10.6094982"><ele>369.0</ele><time>2026-04-18T12:30:15.466Z</time></trkpt><trkpt lat="43.5007646" lon="10.6095578"><ele>369.0</ele><time>2026-04-18T12:30:16.473Z</time></trkpt><trkpt lat="43.5008467" lon="10.6095778"><ele>369.0</ele><time>2026-04-18T12:30:17.464Z</time></trkpt><trkpt lat="43.5009152" lon="10.6095804"><ele>369.0</ele><time>2026-04-18T12:30:18.475Z</time></trkpt><trkpt lat="43.501004" lon="10.6095558"><ele>369.0</ele><time>2026-04-18T12:30:19.471Z</time></trkpt><trkpt lat="43.5010957" lon="10.6094998"><ele>369.0</ele><time>2026-04-18T12:30:20.457Z</time></trkpt><trkpt lat="43.5011768" lon="10.6094456"><ele>369.0</ele><time>2026-04-18T12:30:21.439Z</time></trkpt><trkpt lat="43.501275" lon="10.6094119"><ele>366.1666666666667</ele><time>2026-04-18T12:30:22.457Z</time></trkpt><trkpt lat="43.501349" lon="10.6094301"><ele>363.3333333333333</ele><time>2026-04-18T12:30:23.447Z</time></trkpt><trkpt lat="43.5014318" lon="10.6095032"><ele>360.5</ele><time>2026-04-18T12:30:24.478Z</time></trkpt><trkpt lat="43.5014917" lon="10.6095818"><ele>357.66666666666663</ele><time>2026-04-18T12:30:25.479Z</time></trkpt><trkpt lat="43.5015605" lon="10.6096529"><ele>354.8333333333333</ele><time>2026-04-18T12:30:26.476Z</time></trkpt><trkpt lat="43.5016324" lon="10.6096973"><ele>352.0</ele><time>2026-04-18T12:30:27.463Z</time></trkpt><trkpt lat="43.5017098" lon="10.6097168"><ele>352.0</ele><time>2026-04-18T12:30:28.45Z</time></trkpt><trkpt lat="43.501796" lon="10.6097006"><ele>352.0</ele><time>2026-04-18T12:30:29.49Z</time></trkpt><trkpt lat="43.5018906" lon="10.609679"><ele>352.0</ele><time>2026-04-18T12:30:30.436Z</time></trkpt><trkpt lat="43.5019936" lon="10.6096341"><ele>352.0</ele><time>2026-04-18T12:30:31.439Z</time></trkpt><trkpt lat="43.5021081" lon="10.6095972"><ele>352.0</ele><time>2026-04-18T12:30:32.459Z</time></trkpt><trkpt lat="43.5022087" lon="10.6095319"><ele>348.8333333333333</ele><time>2026-04-18T12:30:33.449Z</time></trkpt><trkpt lat="43.5022792" lon="10.6094665"><ele>345.66666666666663</ele><time>2026-04-18T12:30:34.465Z</time></trkpt><trkpt lat="43.5023572" lon="10.6094094"><ele>342.5</ele><time>2026-04-18T12:30:35.475Z</time></trkpt><trkpt lat="43.50243" lon="10.6093596"><ele>339.3333333333333</ele><time>2026-04-18T12:30:36.479Z</time></trkpt><trkpt lat="43.5025046" lon="10.609324"><ele>336.1666666666667</ele><time>2026-04-18T12:30:37.482Z</time></trkpt><trkpt lat="43.5025941" lon="10.609315"><ele>333.0</ele><time>2026-04-18T12:30:38.481Z</time></trkpt><trkpt lat="43.5026792" lon="10.6093383"><ele>333.0</ele><time>2026-04-18T12:30:39.474Z</time></trkpt><trkpt lat="43.5027471" lon="10.6093944"><ele>333.0</ele><time>2026-04-18T12:30:40.484Z</time></trkpt><trkpt lat="43.5028093" lon="10.609467"><ele>333.0</ele><time>2026-04-18T12:30:41.477Z</time></trkpt><trkpt lat="43.5028528" lon="10.6095596"><ele>333.0</ele><time>2026-04-18T12:30:42.463Z</time></trkpt><trkpt lat="43.5028892" lon="10.6096601"><ele>333.0</ele><time>2026-04-18T12:30:43.454Z</time></trkpt><trkpt lat="43.5029047" lon="10.6097571"><ele>333.0</ele><time>2026-04-18T12:30:44.46Z</time></trkpt><trkpt lat="43.5029097" lon="10.6098471"><ele>330.5</ele><time>2026-04-18T12:30:45.422Z</time></trkpt><trkpt lat="43.5029142" lon="10.6100053"><ele>328.0</ele><time>2026-04-18T12:30:47.423Z</time></trkpt><trkpt lat="43.5029273" lon="10.6101744"><ele>325.5</ele><time>2026-04-18T12:30:49.449Z</time></trkpt><trkpt lat="43.5029517" lon="10.6102728"><ele>323.0</ele><time>2026-04-18T12:30:50.44Z</time></trkpt><trkpt lat="43.5030075" lon="10.6104437"><ele>323.0</ele><time>2026-04-18T12:30:52.423Z</time></trkpt><trkpt lat="43.5030589" lon="10.6105502"><ele>323.0</ele><time>2026-04-18T12:30:53.428Z</time></trkpt><trkpt lat="43.5031015" lon="10.6106514"><ele>323.0</ele><time>2026-04-18T12:30:54.463Z</time></trkpt><trkpt lat="43.5031356" lon="10.6107249"><ele>323.0</ele><time>2026-04-18T12:30:55.444Z</time></trkpt><trkpt lat="43.503137" lon="10.6108289"><ele>323.0</ele><time>2026-04-18T12:30:56.434Z</time></trkpt><trkpt lat="43.5030871" lon="10.6109278"><ele>323.0</ele><time>2026-04-18T12:30:57.47Z</time></trkpt><trkpt lat="43.5030365" lon="10.6110178"><ele>323.0</ele><time>2026-04-18T12:30:58.468Z</time></trkpt><trkpt lat="43.5029829" lon="10.6111106"><ele>323.0</ele><time>2026-04-18T12:30:59.468Z</time></trkpt><trkpt lat="43.5029293" lon="10.6111904"><ele>323.0</ele><time>2026-04-18T12:31:00.498Z</time></trkpt><trkpt lat="43.5028841" lon="10.6112712"><ele>323.0</ele><time>2026-04-18T12:31:01.469Z</time></trkpt><trkpt lat="43.5028283" lon="10.6114281"><ele>323.0</ele><time>2026-04-18T12:31:03.471Z</time></trkpt><trkpt lat="43.5028371" lon="10.611544"><ele>323.6666666666667</ele><time>2026-04-18T12:31:05.461Z</time></trkpt><trkpt lat="43.502921" lon="10.611597"><ele>324.33333333333337</ele><time>2026-04-18T12:31:07.472Z</time></trkpt><trkpt lat="43.5030132" lon="10.611519"><ele>325.0</ele><time>2026-04-18T12:31:09.477Z</time></trkpt><trkpt lat="43.503068" lon="10.6114582"><ele>325.6666666666667</ele><time>2026-04-18T12:31:10.457Z</time></trkpt><trkpt lat="43.503133" lon="10.6113985"><ele>326.3333333333333</ele><time>2026-04-18T12:31:11.475Z</time></trkpt><trkpt lat="43.503204" lon="10.6113744"><ele>327.0</ele><time>2026-04-18T12:31:12.472Z</time></trkpt><trkpt lat="43.5032871" lon="10.6113643"><ele>327.0</ele><time>2026-04-18T12:31:13.481Z</time></trkpt><trkpt lat="43.5033783" lon="10.6113764"><ele>327.0</ele><time>2026-04-18T12:31:14.456Z</time></trkpt><trkpt lat="43.5034613" lon="10.6113958"><ele>327.0</ele><time>2026-04-18T12:31:15.469Z</time></trkpt><trkpt lat="43.5035334" lon="10.6114186"><ele>327.0</ele><time>2026-04-18T12:31:16.453Z</time></trkpt><trkpt lat="43.5036121" lon="10.6114634"><ele>327.0</ele><time>2026-04-18T12:31:17.447Z</time></trkpt><trkpt lat="43.5036897" lon="10.6115081"><ele>327.0</ele><time>2026-04-18T12:31:18.422Z</time></trkpt><trkpt lat="43.5037845" lon="10.6115748"><ele>328.40000000000003</ele><time>2026-04-18T12:31:19.438Z</time></trkpt><trkpt lat="43.5038854" lon="10.6116375"><ele>329.8</ele><time>2026-04-18T12:31:20.491Z</time></trkpt><trkpt lat="43.5039741" lon="10.6117124"><ele>331.2</ele><time>2026-04-18T12:31:21.427Z</time></trkpt><trkpt lat="43.5040466" lon="10.6118031"><ele>332.6</ele><time>2026-04-18T12:31:22.461Z</time></trkpt><trkpt lat="43.5041113" lon="10.6118985"><ele>334.0</ele><time>2026-04-18T12:31:23.429Z</time></trkpt><trkpt lat="43.5041693" lon="10.6119958"><ele>334.0</ele><time>2026-04-18T12:31:24.429Z</time></trkpt><trkpt lat="43.5042492" lon="10.6120942"><ele>334.0</ele><time>2026-04-18T12:31:25.43Z</time></trkpt><trkpt lat="43.5043367" lon="10.6121806"><ele>334.0</ele><time>2026-04-18T12:31:26.433Z</time></trkpt><trkpt lat="43.5044268" lon="10.6122511"><ele>334.0</ele><time>2026-04-18T12:31:27.465Z</time></trkpt><trkpt lat="43.5045148" lon="10.6122939"><ele>334.0</ele><time>2026-04-18T12:31:28.411Z</time></trkpt><trkpt lat="43.5046026" lon="10.6123097"><ele>332.0</ele><time>2026-04-18T12:31:29.433Z</time></trkpt><trkpt lat="43.5046886" lon="10.6123045"><ele>330.0</ele><time>2026-04-18T12:31:30.433Z</time></trkpt><trkpt lat="43.5047585" lon="10.6122766"><ele>328.0</ele><time>2026-04-18T12:31:31.486Z</time></trkpt><trkpt lat="43.504834" lon="10.6122571"><ele>326.0</ele><time>2026-04-18T12:31:32.493Z</time></trkpt><trkpt lat="43.5049115" lon="10.6122409"><ele>324.0</ele><time>2026-04-18T12:31:33.445Z</time></trkpt><trkpt lat="43.5049807" lon="10.6122379"><ele>322.0</ele><time>2026-04-18T12:31:34.43Z</time></trkpt><trkpt lat="43.5050853" lon="10.6122592"><ele>322.0</ele><time>2026-04-18T12:31:36.488Z</time></trkpt><trkpt lat="43.5051692" lon="10.6123787"><ele>322.0</ele><time>2026-04-18T12:31:38.458Z</time></trkpt><trkpt lat="43.5052285" lon="10.6124449"><ele>322.0</ele><time>2026-04-18T12:31:39.482Z</time></trkpt><trkpt lat="43.5052726" lon="10.612529"><ele>322.0</ele><time>2026-04-18T12:31:40.456Z</time></trkpt><trkpt lat="43.5053283" lon="10.6126088"><ele>322.0</ele><time>2026-04-18T12:31:41.485Z</time></trkpt><trkpt lat="43.5053907" lon="10.612709"><ele>322.0</ele><time>2026-04-18T12:31:42.459Z</time></trkpt><trkpt lat="43.5054674" lon="10.6127984"><ele>322.5</ele><time>2026-04-18T12:31:43.47Z</time></trkpt><trkpt lat="43.5055433" lon="10.6128709"><ele>323.0</ele><time>2026-04-18T12:31:44.487Z</time></trkpt><trkpt lat="43.5056213" lon="10.6129331"><ele>323.5</ele><time>2026-04-18T12:31:45.428Z</time></trkpt><trkpt lat="43.5056862" lon="10.6130066"><ele>324.0</ele><time>2026-04-18T12:31:46.443Z</time></trkpt><trkpt lat="43.5057208" lon="10.6131277"><ele>324.5</ele><time>2026-04-18T12:31:47.451Z</time></trkpt><trkpt lat="43.5057594" lon="10.6132116"><ele>325.0</ele><time>2026-04-18T12:31:48.413Z</time></trkpt><trkpt lat="43.5057954" lon="10.6133168"><ele>325.0</ele><time>2026-04-18T12:31:49.466Z</time></trkpt><trkpt lat="43.5058045" lon="10.6134285"><ele>325.0</ele><time>2026-04-18T12:31:50.458Z</time></trkpt><trkpt lat="43.5058428" lon="10.6135977"><ele>325.0</ele><time>2026-04-18T12:31:52.453Z</time></trkpt><trkpt lat="43.5058565" lon="10.613697"><ele>325.0</ele><time>2026-04-18T12:31:53.468Z</time></trkpt><trkpt lat="43.5058535" lon="10.6137882"><ele>325.0</ele><time>2026-04-18T12:31:54.451Z</time></trkpt><trkpt lat="43.5058628" lon="10.6139498"><ele>326.0</ele><time>2026-04-18T12:31:56.475Z</time></trkpt><trkpt lat="43.5058657" lon="10.6140389"><ele>327.0</ele><time>2026-04-18T12:31:57.451Z</time></trkpt><trkpt lat="43.5058743" lon="10.6141456"><ele>328.0</ele><time>2026-04-18T12:31:58.422Z</time></trkpt><trkpt lat="43.5058991" lon="10.6142516"><ele>329.0</ele><time>2026-04-18T12:31:59.425Z</time></trkpt><trkpt lat="43.5059188" lon="10.6143616"><ele>330.0</ele><time>2026-04-18T12:32:00.416Z</time></trkpt><trkpt lat="43.5059452" lon="10.614466"><ele>331.0</ele><time>2026-04-18T12:32:01.433Z</time></trkpt><trkpt lat="43.5059849" lon="10.6145801"><ele>331.20000000000005</ele><time>2026-04-18T12:32:02.417Z</time></trkpt><trkpt lat="43.5060233" lon="10.6146948"><ele>331.40000000000003</ele><time>2026-04-18T12:32:03.431Z</time></trkpt><trkpt lat="43.5060711" lon="10.6147812"><ele>331.6</ele><time>2026-04-18T12:32:04.442Z</time></trkpt><trkpt lat="43.5061425" lon="10.6149182"><ele>331.8</ele><time>2026-04-18T12:32:05.424Z</time></trkpt><trkpt lat="43.506207" lon="10.6150697"><ele>332.0</ele><time>2026-04-18T12:32:06.426Z</time></trkpt><trkpt lat="43.506259" lon="10.6151776"><ele>332.0</ele><time>2026-04-18T12:32:07.427Z</time></trkpt><trkpt lat="43.5062994" lon="10.6152594"><ele>332.0</ele><time>2026-04-18T12:32:08.448Z</time></trkpt><trkpt lat="43.5063315" lon="10.6153416"><ele>332.0</ele><time>2026-04-18T12:32:09.433Z</time></trkpt><trkpt lat="43.5063842" lon="10.6154242"><ele>332.0</ele><time>2026-04-18T12:32:10.451Z</time></trkpt><trkpt lat="43.5064374" lon="10.6155254"><ele>332.0</ele><time>2026-04-18T12:32:11.438Z</time></trkpt><trkpt lat="43.5064911" lon="10.615619"><ele>332.0</ele><time>2026-04-18T12:32:12.486Z</time></trkpt><trkpt lat="43.5065394" lon="10.6157188"><ele>330.5</ele><time>2026-04-18T12:32:13.45Z</time></trkpt><trkpt lat="43.5065972" lon="10.6157924"><ele>329.0</ele><time>2026-04-18T12:32:14.441Z</time></trkpt><trkpt lat="43.5066365" lon="10.6158865"><ele>327.5</ele><time>2026-04-18T12:32:15.456Z</time></trkpt><trkpt lat="43.5066904" lon="10.6159673"><ele>326.0</ele><time>2026-04-18T12:32:16.475Z</time></trkpt><trkpt lat="43.5067425" lon="10.6160216"><ele>324.5</ele><time>2026-04-18T12:32:17.481Z</time></trkpt><trkpt lat="43.5068078" lon="10.6160408"><ele>323.0</ele><time>2026-04-18T12:32:18.441Z</time></trkpt><trkpt lat="43.5068901" lon="10.6160334"><ele>323.0</ele><time>2026-04-18T12:32:19.466Z</time></trkpt><trkpt lat="43.506968" lon="10.616023"><ele>323.0</ele><time>2026-04-18T12:32:20.483Z</time></trkpt><trkpt lat="43.5070618" lon="10.6160188"><ele>323.0</ele><time>2026-04-18T12:32:21.451Z</time></trkpt><trkpt lat="43.5071516" lon="10.6160058"><ele>323.0</ele><time>2026-04-18T12:32:22.461Z</time></trkpt><trkpt lat="43.5072532" lon="10.6159966"><ele>323.0</ele><time>2026-04-18T12:32:23.484Z</time></trkpt><trkpt lat="43.5073411" lon="10.6159813"><ele>321.59999999999997</ele><time>2026-04-18T12:32:24.484Z</time></trkpt><trkpt lat="43.5074279" lon="10.6159603"><ele>320.2</ele><time>2026-04-18T12:32:25.458Z</time></trkpt><trkpt lat="43.5075135" lon="10.6159167"><ele>318.8</ele><time>2026-04-18T12:32:26.457Z</time></trkpt><trkpt lat="43.507592" lon="10.615853"><ele>317.4</ele><time>2026-04-18T12:32:27.465Z</time></trkpt><trkpt lat="43.5076778" lon="10.6157805"><ele>316.0</ele><time>2026-04-18T12:32:28.483Z</time></trkpt><trkpt lat="43.5077626" lon="10.6157306"><ele>316.0</ele><time>2026-04-18T12:32:29.474Z</time></trkpt><trkpt lat="43.5078527" lon="10.6156784"><ele>316.0</ele><time>2026-04-18T12:32:30.475Z</time></trkpt><trkpt lat="43.5079442" lon="10.6156424"><ele>316.0</ele><time>2026-04-18T12:32:31.454Z</time></trkpt><trkpt lat="43.5080459" lon="10.6156047"><ele>316.0</ele><time>2026-04-18T12:32:32.476Z</time></trkpt><trkpt lat="43.5081395" lon="10.6155815"><ele>316.0</ele><time>2026-04-18T12:32:33.47Z</time></trkpt><trkpt lat="43.5082162" lon="10.6155535"><ele>315.8333333333333</ele><time>2026-04-18T12:32:34.485Z</time></trkpt><trkpt lat="43.5082993" lon="10.6155234"><ele>315.66666666666663</ele><time>2026-04-18T12:32:35.461Z</time></trkpt><trkpt lat="43.5083798" lon="10.6154705"><ele>315.5</ele><time>2026-04-18T12:32:36.476Z</time></trkpt><trkpt lat="43.5084545" lon="10.615406"><ele>315.3333333333333</ele><time>2026-04-18T12:32:37.487Z</time></trkpt><trkpt lat="43.5085052" lon="10.6153277"><ele>315.1666666666667</ele><time>2026-04-18T12:32:38.478Z</time></trkpt><trkpt lat="43.5085504" lon="10.6152355"><ele>315.0</ele><time>2026-04-18T12:32:39.478Z</time></trkpt><trkpt lat="43.5085983" lon="10.6151652"><ele>315.0</ele><time>2026-04-18T12:32:40.468Z</time></trkpt><trkpt lat="43.5086648" lon="10.6151171"><ele>315.0</ele><time>2026-04-18T12:32:42.447Z</time></trkpt><trkpt lat="43.5087537" lon="10.6152174"><ele>315.0</ele><time>2026-04-18T12:32:44.48Z</time></trkpt><trkpt lat="43.5087857" lon="10.6152925"><ele>315.0</ele><time>2026-04-18T12:32:45.422Z</time></trkpt><trkpt lat="43.5088232" lon="10.6153954"><ele>315.0</ele><time>2026-04-18T12:32:46.416Z</time></trkpt><trkpt lat="43.5088542" lon="10.6154928"><ele>315.0</ele><time>2026-04-18T12:32:47.43Z</time></trkpt><trkpt lat="43.5088823" lon="10.6155905"><ele>311.5</ele><time>2026-04-18T12:32:48.421Z</time></trkpt><trkpt lat="43.508908" lon="10.6157215"><ele>308.0</ele><time>2026-04-18T12:32:49.422Z</time></trkpt><trkpt lat="43.5089238" lon="10.6158463"><ele>304.5</ele><time>2026-04-18T12:32:50.45Z</time></trkpt><trkpt lat="43.5089619" lon="10.6159591"><ele>301.0</ele><time>2026-04-18T12:32:51.422Z</time></trkpt><trkpt lat="43.5089913" lon="10.6160483"><ele>297.5</ele><time>2026-04-18T12:32:52.475Z</time></trkpt><trkpt lat="43.509008" lon="10.6161677"><ele>294.0</ele><time>2026-04-18T12:32:54.483Z</time></trkpt><trkpt lat="43.5089883" lon="10.6162708"><ele>294.0</ele><time>2026-04-18T12:32:56.449Z</time></trkpt><trkpt lat="43.5089508" lon="10.6163406"><ele>294.0</ele><time>2026-04-18T12:34:28.49Z</time></trkpt><trkpt lat="43.5090267" lon="10.6163751"><ele>294.0</ele><time>2026-04-18T12:34:31.454Z</time></trkpt><trkpt lat="43.5090621" lon="10.616242"><ele>294.0</ele><time>2026-04-18T12:34:33.463Z</time></trkpt><trkpt lat="43.5090501" lon="10.6160944"><ele>294.0</ele><time>2026-04-18T12:34:35.464Z</time></trkpt><trkpt lat="43.5089816" lon="10.6159366"><ele>294.0</ele><time>2026-04-18T12:34:37.468Z</time></trkpt><trkpt lat="43.5089307" lon="10.6158418"><ele>294.0</ele><time>2026-04-18T12:34:38.468Z</time></trkpt><trkpt lat="43.5088906" lon="10.61573"><ele>294.0</ele><time>2026-04-18T12:34:39.463Z</time></trkpt><trkpt lat="43.5088745" lon="10.6155876"><ele>294.0</ele><time>2026-04-18T12:34:40.469Z</time></trkpt><trkpt lat="43.5088791" lon="10.6154628"><ele>294.0</ele><time>2026-04-18T12:34:41.488Z</time></trkpt><trkpt lat="43.5088347" lon="10.6153604"><ele>294.2857142857143</ele><time>2026-04-18T12:34:42.483Z</time></trkpt><trkpt lat="43.5087953" lon="10.615266"><ele>294.57142857142856</ele><time>2026-04-18T12:34:43.452Z</time></trkpt><trkpt lat="43.5087553" lon="10.6151746"><ele>294.8571428571429</ele><time>2026-04-18T12:34:44.472Z</time></trkpt><trkpt lat="43.5087122" lon="10.6151091"><ele>295.1428571428571</ele><time>2026-04-18T12:34:45.451Z</time></trkpt><trkpt lat="43.5086398" lon="10.6150852"><ele>295.42857142857144</ele><time>2026-04-18T12:34:47.484Z</time></trkpt><trkpt lat="43.5085779" lon="10.6151169"><ele>295.7142857142857</ele><time>2026-04-18T12:34:49.479Z</time></trkpt><trkpt lat="43.5085233" lon="10.6151939"><ele>296.0</ele><time>2026-04-18T12:34:51.471Z</time></trkpt><trkpt lat="43.5084647" lon="10.6152841"><ele>298.0</ele><time>2026-04-18T12:34:53.456Z</time></trkpt><trkpt lat="43.5084027" lon="10.6153866"><ele>300.0</ele><time>2026-04-18T12:34:55.461Z</time></trkpt><trkpt lat="43.5083032" lon="10.6154952"><ele>302.0</ele><time>2026-04-18T12:34:57.47Z</time></trkpt><trkpt lat="43.5082273" lon="10.6155488"><ele>304.0</ele><time>2026-04-18T12:34:58.48Z</time></trkpt><trkpt lat="43.5081277" lon="10.6155955"><ele>306.0</ele><time>2026-04-18T12:34:59.482Z</time></trkpt><trkpt lat="43.5080378" lon="10.6156131"><ele>306.0</ele><time>2026-04-18T12:35:00.435Z</time></trkpt><trkpt lat="43.5079402" lon="10.6156318"><ele>306.0</ele><time>2026-04-18T12:35:01.493Z</time></trkpt><trkpt lat="43.5078471" lon="10.6156689"><ele>306.0</ele><time>2026-04-18T12:35:02.462Z</time></trkpt><trkpt lat="43.5077603" lon="10.6157269"><ele>306.0</ele><time>2026-04-18T12:35:03.466Z</time></trkpt><trkpt lat="43.50768" lon="10.6157973"><ele>306.0</ele><time>2026-04-18T12:35:04.44Z</time></trkpt><trkpt lat="43.5075979" lon="10.6158569"><ele>308.0</ele><time>2026-04-18T12:35:05.444Z</time></trkpt><trkpt lat="43.5075067" lon="10.6159165"><ele>310.0</ele><time>2026-04-18T12:35:06.453Z</time></trkpt><trkpt lat="43.507421" lon="10.6159693"><ele>312.0</ele><time>2026-04-18T12:35:07.422Z</time></trkpt><trkpt lat="43.5073338" lon="10.6159991"><ele>314.0</ele><time>2026-04-18T12:35:08.443Z</time></trkpt><trkpt lat="43.5072423" lon="10.616012"><ele>316.0</ele><time>2026-04-18T12:35:09.433Z</time></trkpt><trkpt lat="43.507139" lon="10.6160225"><ele>317.4</ele><time>2026-04-18T12:35:10.427Z</time></trkpt><trkpt lat="43.5070337" lon="10.6160386"><ele>318.8</ele><time>2026-04-18T12:35:11.434Z</time></trkpt><trkpt lat="43.5069339" lon="10.6160465"><ele>320.2</ele><time>2026-04-18T12:35:12.443Z</time></trkpt><trkpt lat="43.5068517" lon="10.6160558"><ele>321.59999999999997</ele><time>2026-04-18T12:35:13.461Z</time></trkpt><trkpt lat="43.5067833" lon="10.6160463"><ele>323.0</ele><time>2026-04-18T12:35:14.459Z</time></trkpt><trkpt lat="43.5066704" lon="10.6159713"><ele>323.0</ele><time>2026-04-18T12:35:16.421Z</time></trkpt><trkpt lat="43.5066171" lon="10.6159138"><ele>323.0</ele><time>2026-04-18T12:35:17.429Z</time></trkpt><trkpt lat="43.5065702" lon="10.6158414"><ele>323.0</ele><time>2026-04-18T12:35:18.441Z</time></trkpt><trkpt lat="43.5065203" lon="10.6157611"><ele>323.0</ele><time>2026-04-18T12:35:19.431Z</time></trkpt><trkpt lat="43.5064726" lon="10.6156685"><ele>323.0</ele><time>2026-04-18T12:35:20.421Z</time></trkpt><trkpt lat="43.5064228" lon="10.6155573"><ele>323.0</ele><time>2026-04-18T12:35:21.444Z</time></trkpt><trkpt lat="43.5063687" lon="10.6154506"><ele>323.0</ele><time>2026-04-18T12:35:22.45Z</time></trkpt><trkpt lat="43.5063218" lon="10.6153449"><ele>323.0</ele><time>2026-04-18T12:35:23.438Z</time></trkpt><trkpt lat="43.5062653" lon="10.6152384"><ele>323.0</ele><time>2026-04-18T12:35:24.442Z</time></trkpt><trkpt lat="43.5062189" lon="10.6151276"><ele>323.0</ele><time>2026-04-18T12:35:25.444Z</time></trkpt><trkpt lat="43.5061805" lon="10.6150264"><ele>323.0</ele><time>2026-04-18T12:35:26.427Z</time></trkpt><trkpt lat="43.5061366" lon="10.6149363"><ele>323.0</ele><time>2026-04-18T12:35:27.437Z</time></trkpt><trkpt lat="43.5061019" lon="10.6148536"><ele>324.14285714285717</ele><time>2026-04-18T12:35:28.442Z</time></trkpt><trkpt lat="43.5060766" lon="10.6147704"><ele>325.2857142857143</ele><time>2026-04-18T12:35:29.444Z</time></trkpt><trkpt lat="43.5060558" lon="10.614681"><ele>326.42857142857144</ele><time>2026-04-18T12:35:30.451Z</time></trkpt><trkpt lat="43.5060315" lon="10.6145828"><ele>327.57142857142856</ele><time>2026-04-18T12:35:31.449Z</time></trkpt><trkpt lat="43.5060007" lon="10.6144959"><ele>328.7142857142857</ele><time>2026-04-18T12:35:32.448Z</time></trkpt><trkpt lat="43.5059814" lon="10.6143989"><ele>329.8571428571429</ele><time>2026-04-18T12:35:33.45Z</time></trkpt><trkpt lat="43.5059546" lon="10.614291"><ele>331.0</ele><time>2026-04-18T12:35:34.435Z</time></trkpt><trkpt lat="43.5059347" lon="10.6141822"><ele>331.0</ele><time>2026-04-18T12:35:35.434Z</time></trkpt><trkpt lat="43.5059128" lon="10.6140958"><ele>331.0</ele><time>2026-04-18T12:35:36.443Z</time></trkpt><trkpt lat="43.5058971" lon="10.6140043"><ele>331.0</ele><time>2026-04-18T12:35:37.467Z</time></trkpt><trkpt lat="43.5058865" lon="10.6139161"><ele>331.0</ele><time>2026-04-18T12:35:38.468Z</time></trkpt><trkpt lat="43.5058491" lon="10.613788"><ele>331.0</ele><time>2026-04-18T12:35:40.442Z</time></trkpt><trkpt lat="43.5058011" lon="10.6136359"><ele>331.0</ele><time>2026-04-18T12:35:42.457Z</time></trkpt><trkpt lat="43.5057813" lon="10.6135148"><ele>329.8</ele><time>2026-04-18T12:35:43.431Z</time></trkpt><trkpt lat="43.5057485" lon="10.6133898"><ele>328.6</ele><time>2026-04-18T12:35:44.463Z</time></trkpt><trkpt lat="43.505716" lon="10.6132484"><ele>327.4</ele><time>2026-04-18T12:35:45.441Z</time></trkpt><trkpt lat="43.5056613" lon="10.61311"><ele>326.2</ele><time>2026-04-18T12:35:46.448Z</time></trkpt><trkpt lat="43.505589" lon="10.6129904"><ele>325.0</ele><time>2026-04-18T12:35:47.474Z</time></trkpt><trkpt lat="43.5054994" lon="10.6129028"><ele>324.5</ele><time>2026-04-18T12:35:48.465Z</time></trkpt><trkpt lat="43.5054361" lon="10.6128027"><ele>324.0</ele><time>2026-04-18T12:35:49.463Z</time></trkpt><trkpt lat="43.5053712" lon="10.6127183"><ele>323.5</ele><time>2026-04-18T12:35:50.434Z</time></trkpt><trkpt lat="43.5053094" lon="10.6126309"><ele>323.0</ele><time>2026-04-18T12:35:51.433Z</time></trkpt><trkpt lat="43.5052635" lon="10.6125402"><ele>322.5</ele><time>2026-04-18T12:35:52.428Z</time></trkpt><trkpt lat="43.5052235" lon="10.6124486"><ele>322.0</ele><time>2026-04-18T12:35:53.433Z</time></trkpt><trkpt lat="43.5051791" lon="10.6123776"><ele>322.0</ele><time>2026-04-18T12:35:54.449Z</time></trkpt><trkpt lat="43.5051282" lon="10.6123165"><ele>322.0</ele><time>2026-04-18T12:35:55.435Z</time></trkpt><trkpt lat="43.5050541" lon="10.6123077"><ele>322.0</ele><time>2026-04-18T12:35:56.444Z</time></trkpt><trkpt lat="43.5049695" lon="10.6122984"><ele>322.0</ele><time>2026-04-18T12:35:57.436Z</time></trkpt><trkpt lat="43.5048933" lon="10.612298"><ele>322.0</ele><time>2026-04-18T12:35:58.437Z</time></trkpt><trkpt lat="43.5048193" lon="10.6122909"><ele>322.0</ele><time>2026-04-18T12:35:59.441Z</time></trkpt><trkpt lat="43.5046893" lon="10.612288"><ele>322.0</ele><time>2026-04-18T12:36:01.432Z</time></trkpt><trkpt lat="43.5046189" lon="10.6122795"><ele>322.0</ele><time>2026-04-18T12:36:02.447Z</time></trkpt><trkpt lat="43.5045515" lon="10.6122622"><ele>322.0</ele><time>2026-04-18T12:36:03.437Z</time></trkpt><trkpt lat="43.5044787" lon="10.6122344"><ele>322.0</ele><time>2026-04-18T12:36:04.468Z</time></trkpt><trkpt lat="43.5044085" lon="10.6121845"><ele>322.0</ele><time>2026-04-18T12:36:05.464Z</time></trkpt><trkpt lat="43.5043362" lon="10.6121363"><ele>322.0</ele><time>2026-04-18T12:36:06.454Z</time></trkpt><trkpt lat="43.5042658" lon="10.6120857"><ele>321.40000000000003</ele><time>2026-04-18T12:36:07.469Z</time></trkpt><trkpt lat="43.5041999" lon="10.6120076"><ele>320.8</ele><time>2026-04-18T12:36:08.463Z</time></trkpt><trkpt lat="43.5041381" lon="10.6118978"><ele>320.2</ele><time>2026-04-18T12:36:09.473Z</time></trkpt><trkpt lat="43.504068" lon="10.6118091"><ele>319.6</ele><time>2026-04-18T12:36:10.433Z</time></trkpt><trkpt lat="43.5039883" lon="10.6117238"><ele>319.0</ele><time>2026-04-18T12:36:11.463Z</time></trkpt><trkpt lat="43.5039061" lon="10.6116528"><ele>319.0</ele><time>2026-04-18T12:36:12.432Z</time></trkpt><trkpt lat="43.5038102" lon="10.6115855"><ele>319.0</ele><time>2026-04-18T12:36:13.448Z</time></trkpt><trkpt lat="43.5037187" lon="10.6115296"><ele>319.0</ele><time>2026-04-18T12:36:14.452Z</time></trkpt><trkpt lat="43.5036231" lon="10.6114789"><ele>319.0</ele><time>2026-04-18T12:36:15.46Z</time></trkpt><trkpt lat="43.5035357" lon="10.6114421"><ele>319.0</ele><time>2026-04-18T12:36:16.436Z</time></trkpt><trkpt lat="43.5034577" lon="10.6113974"><ele>320.3333333333333</ele><time>2026-04-18T12:36:17.449Z</time></trkpt><trkpt lat="43.5033836" lon="10.6113619"><ele>321.66666666666663</ele><time>2026-04-18T12:36:18.44Z</time></trkpt><trkpt lat="43.5033187" lon="10.6113425"><ele>323.0</ele><time>2026-04-18T12:36:19.463Z</time></trkpt><trkpt lat="43.5032433" lon="10.6113709"><ele>324.3333333333333</ele><time>2026-04-18T12:36:20.444Z</time></trkpt><trkpt lat="43.5031684" lon="10.6114253"><ele>325.6666666666667</ele><time>2026-04-18T12:36:21.429Z</time></trkpt><trkpt lat="43.5031021" lon="10.6114751"><ele>327.0</ele><time>2026-04-18T12:36:22.453Z</time></trkpt><trkpt lat="43.502993" lon="10.6115302"><ele>327.8</ele><time>2026-04-18T12:36:24.452Z</time></trkpt><trkpt lat="43.5028952" lon="10.6115417"><ele>328.6</ele><time>2026-04-18T12:36:26.458Z</time></trkpt><trkpt lat="43.5028195" lon="10.6113906"><ele>329.40000000000003</ele><time>2026-04-18T12:36:29.452Z</time></trkpt><trkpt lat="43.5028348" lon="10.6112991"><ele>330.20000000000005</ele><time>2026-04-18T12:36:30.425Z</time></trkpt><trkpt lat="43.5028762" lon="10.6112052"><ele>331.0</ele><time>2026-04-18T12:36:31.451Z</time></trkpt><trkpt lat="43.5029303" lon="10.6111151"><ele>329.4</ele><time>2026-04-18T12:36:32.421Z</time></trkpt><trkpt lat="43.5029909" lon="10.6110466"><ele>327.8</ele><time>2026-04-18T12:36:33.455Z</time></trkpt><trkpt lat="43.5030503" lon="10.610977"><ele>326.2</ele><time>2026-04-18T12:36:34.453Z</time></trkpt><trkpt lat="43.5030992" lon="10.6108887"><ele>324.59999999999997</ele><time>2026-04-18T12:36:35.461Z</time></trkpt><trkpt lat="43.5031487" lon="10.6107311"><ele>323.0</ele><time>2026-04-18T12:36:37.445Z</time></trkpt><trkpt lat="43.5030833" lon="10.6105194"><ele>323.00000000000006</ele><time>2026-04-18T12:36:39.444Z</time></trkpt><trkpt lat="43.5030476" lon="10.6104283"><ele>323.0</ele><time>2026-04-18T12:36:40.449Z</time></trkpt><trkpt lat="43.5030148" lon="10.6103413"><ele>323.0</ele><time>2026-04-18T12:36:41.457Z</time></trkpt><trkpt lat="43.502979" lon="10.6102673"><ele>323.0</ele><time>2026-04-18T12:36:42.425Z</time></trkpt><trkpt lat="43.5029662" lon="10.610173"><ele>323.0</ele><time>2026-04-18T12:36:43.444Z</time></trkpt><trkpt lat="43.5029566" lon="10.6100756"><ele>323.00000000000006</ele><time>2026-04-18T12:36:44.423Z</time></trkpt><trkpt lat="43.5029587" lon="10.6099694"><ele>323.0</ele><time>2026-04-18T12:36:45.434Z</time></trkpt><trkpt lat="43.5029569" lon="10.6098751"><ele>322.4</ele><time>2026-04-18T12:36:46.449Z</time></trkpt><trkpt lat="43.5029215" lon="10.6096946"><ele>321.79999999999995</ele><time>2026-04-18T12:36:48.437Z</time></trkpt><trkpt lat="43.5028846" lon="10.6096149"><ele>321.2</ele><time>2026-04-18T12:36:49.458Z</time></trkpt><trkpt lat="43.50283" lon="10.609541"><ele>320.6</ele><time>2026-04-18T12:36:50.463Z</time></trkpt><trkpt lat="43.502762" lon="10.6094643"><ele>320.0</ele><time>2026-04-18T12:36:51.421Z</time></trkpt><trkpt lat="43.5026906" lon="10.6093936"><ele>322.1666666666667</ele><time>2026-04-18T12:36:52.418Z</time></trkpt><trkpt lat="43.5026203" lon="10.6093542"><ele>324.33333333333337</ele><time>2026-04-18T12:36:53.44Z</time></trkpt><trkpt lat="43.5025552" lon="10.6093565"><ele>326.5</ele><time>2026-04-18T12:36:54.431Z</time></trkpt><trkpt lat="43.5024875" lon="10.6093739"><ele>328.6666666666667</ele><time>2026-04-18T12:36:55.482Z</time></trkpt><trkpt lat="43.5024177" lon="10.6094262"><ele>330.8333333333333</ele><time>2026-04-18T12:36:56.465Z</time></trkpt><trkpt lat="43.50234" lon="10.6094767"><ele>333.0</ele><time>2026-04-18T12:36:57.464Z</time></trkpt><trkpt lat="43.5022686" lon="10.6095327"><ele>335.3333333333333</ele><time>2026-04-18T12:36:58.47Z</time></trkpt><trkpt lat="43.5021907" lon="10.6095815"><ele>337.6666666666667</ele><time>2026-04-18T12:36:59.462Z</time></trkpt><trkpt lat="43.502112" lon="10.6096311"><ele>340.0</ele><time>2026-04-18T12:37:00.456Z</time></trkpt><trkpt lat="43.5020244" lon="10.6096604"><ele>342.33333333333337</ele><time>2026-04-18T12:37:01.445Z</time></trkpt><trkpt lat="43.5019431" lon="10.6096935"><ele>344.6666666666667</ele><time>2026-04-18T12:37:02.459Z</time></trkpt><trkpt lat="43.5018648" lon="10.6097266"><ele>347.0</ele><time>2026-04-18T12:37:03.468Z</time></trkpt><trkpt lat="43.5017937" lon="10.6097467"><ele>346.83333333333337</ele><time>2026-04-18T12:37:04.437Z</time></trkpt><trkpt lat="43.5017255" lon="10.6097409"><ele>346.6666666666667</ele><time>2026-04-18T12:37:05.467Z</time></trkpt><trkpt lat="43.5016385" lon="10.6097039"><ele>346.5</ele><time>2026-04-18T12:37:06.467Z</time></trkpt><trkpt lat="43.5015533" lon="10.60962"><ele>346.3333333333333</ele><time>2026-04-18T12:37:07.455Z</time></trkpt><trkpt lat="43.5014843" lon="10.6095236"><ele>346.16666666666663</ele><time>2026-04-18T12:37:08.45Z</time></trkpt><trkpt lat="43.5014114" lon="10.6094783"><ele>346.0</ele><time>2026-04-18T12:37:09.44Z</time></trkpt><trkpt lat="43.5013329" lon="10.6094602"><ele>348.20000000000005</ele><time>2026-04-18T12:37:10.452Z</time></trkpt><trkpt lat="43.5012351" lon="10.6094621"><ele>350.40000000000003</ele><time>2026-04-18T12:37:11.442Z</time></trkpt><trkpt lat="43.5011418" lon="10.6094856"><ele>352.6</ele><time>2026-04-18T12:37:12.465Z</time></trkpt><trkpt lat="43.5010459" lon="10.6095573"><ele>354.8</ele><time>2026-04-18T12:37:13.454Z</time></trkpt><trkpt lat="43.5009551" lon="10.6095919"><ele>357.0</ele><time>2026-04-18T12:37:14.453Z</time></trkpt><trkpt lat="43.5008831" lon="10.6095951"><ele>357.0</ele><time>2026-04-18T12:37:15.458Z</time></trkpt><trkpt lat="43.5007616" lon="10.6095156"><ele>357.0</ele><time>2026-04-18T12:37:17.437Z</time></trkpt><trkpt lat="43.5007094" lon="10.6094519"><ele>357.0</ele><time>2026-04-18T12:37:18.459Z</time></trkpt><trkpt lat="43.5006762" lon="10.6093659"><ele>357.0</ele><time>2026-04-18T12:37:19.425Z</time></trkpt><trkpt lat="43.5006483" lon="10.6092822"><ele>357.0</ele><time>2026-04-18T12:37:20.431Z</time></trkpt><trkpt lat="43.5006031" lon="10.6092079"><ele>357.0</ele><time>2026-04-18T12:37:21.446Z</time></trkpt><trkpt lat="43.5005292" lon="10.6091462"><ele>357.0</ele><time>2026-04-18T12:37:22.428Z</time></trkpt><trkpt lat="43.5004648" lon="10.6091005"><ele>357.0</ele><time>2026-04-18T12:37:23.442Z</time></trkpt><trkpt lat="43.5003881" lon="10.6090326"><ele>357.0</ele><time>2026-04-18T12:37:24.425Z</time></trkpt><trkpt lat="43.5003322" lon="10.6089685"><ele>357.0</ele><time>2026-04-18T12:37:25.412Z</time></trkpt><trkpt lat="43.5002355" lon="10.6087267"><ele>357.0</ele><time>2026-04-18T12:37:28.42Z</time></trkpt><trkpt lat="43.5002033" lon="10.6086438"><ele>359.0</ele><time>2026-04-18T12:37:29.42Z</time></trkpt><trkpt lat="43.5001643" lon="10.6085594"><ele>361.0</ele><time>2026-04-18T12:37:30.419Z</time></trkpt><trkpt lat="43.5001284" lon="10.6084754"><ele>363.0</ele><time>2026-04-18T12:37:31.447Z</time></trkpt><trkpt lat="43.5000878" lon="10.6083977"><ele>365.0</ele><time>2026-04-18T12:37:32.429Z</time></trkpt><trkpt lat="43.5000455" lon="10.6083128"><ele>367.0</ele><time>2026-04-18T12:37:33.439Z</time></trkpt><trkpt lat="43.4999904" lon="10.6082395"><ele>369.0</ele><time>2026-04-18T12:37:34.422Z</time></trkpt><trkpt lat="43.4999436" lon="10.6081727"><ele>371.0</ele><time>2026-04-18T12:37:35.428Z</time></trkpt><trkpt lat="43.4998891" lon="10.6080922"><ele>371.0</ele><time>2026-04-18T12:37:36.429Z</time></trkpt><trkpt lat="43.4998382" lon="10.6080125"><ele>371.0</ele><time>2026-04-18T12:37:37.437Z</time></trkpt><trkpt lat="43.4997884" lon="10.6079361"><ele>371.0</ele><time>2026-04-18T12:37:38.44Z</time></trkpt><trkpt lat="43.4997307" lon="10.6078728"><ele>371.0</ele><time>2026-04-18T12:37:39.429Z</time></trkpt><trkpt lat="43.4996763" lon="10.6078118"><ele>371.0</ele><time>2026-04-18T12:37:40.428Z</time></trkpt><trkpt lat="43.4996167" lon="10.6077563"><ele>371.0</ele><time>2026-04-18T12:37:41.463Z</time></trkpt><trkpt lat="43.4995613" lon="10.607701"><ele>371.0</ele><time>2026-04-18T12:37:42.422Z</time></trkpt><trkpt lat="43.4994973" lon="10.6076508"><ele>373.0</ele><time>2026-04-18T12:37:43.442Z</time></trkpt><trkpt lat="43.4994276" lon="10.6075959"><ele>375.0</ele><time>2026-04-18T12:37:44.42Z</time></trkpt><trkpt lat="43.499353" lon="10.6075466"><ele>377.0</ele><time>2026-04-18T12:37:45.437Z</time></trkpt><trkpt lat="43.4992821" lon="10.6075023"><ele>379.0</ele><time>2026-04-18T12:37:46.437Z</time></trkpt><trkpt lat="43.4992171" lon="10.6074652"><ele>381.0</ele><time>2026-04-18T12:37:47.439Z</time></trkpt><trkpt lat="43.4991547" lon="10.6074073"><ele>383.0</ele><time>2026-04-18T12:37:48.447Z</time></trkpt><trkpt lat="43.499113" lon="10.607334"><ele>383.0</ele><time>2026-04-18T12:37:49.43Z</time></trkpt><trkpt lat="43.4991189" lon="10.6071588"><ele>383.0</ele><time>2026-04-18T12:37:51.44Z</time></trkpt><trkpt lat="43.4991377" lon="10.6070434"><ele>383.0</ele><time>2026-04-18T12:37:52.416Z</time></trkpt><trkpt lat="43.4991482" lon="10.6069561"><ele>383.0</ele><time>2026-04-18T12:37:53.438Z</time></trkpt><trkpt lat="43.4991577" lon="10.6068525"><ele>383.0</ele><time>2026-04-18T12:37:54.47Z</time></trkpt><trkpt lat="43.4991499" lon="10.6067619"><ele>383.0</ele><time>2026-04-18T12:37:55.453Z</time></trkpt><trkpt lat="43.4991005" lon="10.6066127"><ele>383.79999999999995</ele><time>2026-04-18T12:37:57.419Z</time></trkpt><trkpt lat="43.4989614" lon="10.6064724"><ele>384.6</ele><time>2026-04-18T12:38:00.412Z</time></trkpt><trkpt lat="43.4989062" lon="10.6064158"><ele>385.4</ele><time>2026-04-18T12:38:01.414Z</time></trkpt><trkpt lat="43.4988279" lon="10.6062696"><ele>386.20000000000005</ele><time>2026-04-18T12:38:03.416Z</time></trkpt><trkpt lat="43.4987998" lon="10.6061753"><ele>387.0</ele><time>2026-04-18T12:38:04.404Z</time></trkpt><trkpt lat="43.4987897" lon="10.6060797"><ele>387.20000000000005</ele><time>2026-04-18T12:38:05.447Z</time></trkpt><trkpt lat="43.4987979" lon="10.6059151"><ele>387.4</ele><time>2026-04-18T12:38:07.447Z</time></trkpt><trkpt lat="43.4988022" lon="10.6057694"><ele>387.6</ele><time>2026-04-18T12:38:09.459Z</time></trkpt><trkpt lat="43.4987987" lon="10.6056723"><ele>387.79999999999995</ele><time>2026-04-18T12:38:10.444Z</time></trkpt><trkpt lat="43.4988025" lon="10.6054627"><ele>388.0</ele><time>2026-04-18T12:38:12.425Z</time></trkpt><trkpt lat="43.4987978" lon="10.6053586"><ele>387.59999999999997</ele><time>2026-04-18T12:38:13.438Z</time></trkpt><trkpt lat="43.4988164" lon="10.6052238"><ele>387.2</ele><time>2026-04-18T12:38:14.426Z</time></trkpt><trkpt lat="43.498792" lon="10.605098"><ele>386.8</ele><time>2026-04-18T12:38:15.418Z</time></trkpt><trkpt lat="43.4987617" lon="10.604983"><ele>386.4</ele><time>2026-04-18T12:38:16.439Z</time></trkpt><trkpt lat="43.4987008" lon="10.6048706"><ele>386.0</ele><time>2026-04-18T12:38:17.449Z</time></trkpt><trkpt lat="43.4986282" lon="10.6047781"><ele>389.8</ele><time>2026-04-18T12:38:18.444Z</time></trkpt><trkpt lat="43.4985439" lon="10.6047059"><ele>393.6</ele><time>2026-04-18T12:38:19.469Z</time></trkpt><trkpt lat="43.4984639" lon="10.6046473"><ele>397.4</ele><time>2026-04-18T12:38:20.445Z</time></trkpt><trkpt lat="43.4983698" lon="10.6046062"><ele>401.2</ele><time>2026-04-18T12:38:21.446Z</time></trkpt><trkpt lat="43.4982678" lon="10.6045972"><ele>405.0</ele><time>2026-04-18T12:38:22.438Z</time></trkpt><trkpt lat="43.4981816" lon="10.6045816"><ele>405.0</ele><time>2026-04-18T12:38:23.462Z</time></trkpt><trkpt lat="43.4980977" lon="10.6045392"><ele>405.0</ele><time>2026-04-18T12:38:24.459Z</time></trkpt><trkpt lat="43.4980284" lon="10.6044807"><ele>405.0</ele><time>2026-04-18T12:38:25.438Z</time></trkpt><trkpt lat="43.4979658" lon="10.6044231"><ele>405.0</ele><time>2026-04-18T12:38:26.42Z</time></trkpt><trkpt lat="43.4978983" lon="10.6043675"><ele>405.0</ele><time>2026-04-18T12:38:27.447Z</time></trkpt><trkpt lat="43.4978306" lon="10.6043474"><ele>405.0</ele><time>2026-04-18T12:38:28.473Z</time></trkpt><trkpt lat="43.4977527" lon="10.6043549"><ele>406.8</ele><time>2026-04-18T12:38:29.459Z</time></trkpt><trkpt lat="43.4976853" lon="10.6043829"><ele>408.6</ele><time>2026-04-18T12:38:30.449Z</time></trkpt><trkpt lat="43.4976226" lon="10.6043664"><ele>410.4</ele><time>2026-04-18T12:38:31.461Z</time></trkpt><trkpt lat="43.497487" lon="10.6042283"><ele>412.2</ele><time>2026-04-18T12:38:33.466Z</time></trkpt><trkpt lat="43.4974648" lon="10.6041216"><ele>414.0</ele><time>2026-04-18T12:38:34.437Z</time></trkpt><trkpt lat="43.4974445" lon="10.6039922"><ele>414.0</ele><time>2026-04-18T12:38:35.451Z</time></trkpt><trkpt lat="43.4974266" lon="10.6038691"><ele>414.0</ele><time>2026-04-18T12:38:36.429Z</time></trkpt><trkpt lat="43.4973872" lon="10.6037603"><ele>414.0</ele><time>2026-04-18T12:38:37.434Z</time></trkpt><trkpt lat="43.4973619" lon="10.6036721"><ele>414.0</ele><time>2026-04-18T12:38:38.439Z</time></trkpt><trkpt lat="43.49732" lon="10.6035818"><ele>414.0</ele><time>2026-04-18T12:38:39.485Z</time></trkpt><trkpt lat="43.4972197" lon="10.6034693"><ele>414.6666666666667</ele><time>2026-04-18T12:38:41.441Z</time></trkpt><trkpt lat="43.4971777" lon="10.6033885"><ele>415.33333333333337</ele><time>2026-04-18T12:38:42.437Z</time></trkpt><trkpt lat="43.4971583" lon="10.6032799"><ele>416.0</ele><time>2026-04-18T12:38:43.428Z</time></trkpt><trkpt lat="43.497153" lon="10.6031742"><ele>416.6666666666667</ele><time>2026-04-18T12:38:44.423Z</time></trkpt><trkpt lat="43.4971459" lon="10.6030395"><ele>417.33333333333337</ele><time>2026-04-18T12:38:45.444Z</time></trkpt><trkpt lat="43.4971204" lon="10.6029067"><ele>418.0</ele><time>2026-04-18T12:38:46.461Z</time></trkpt><trkpt lat="43.4970565" lon="10.6027758"><ele>421.0</ele><time>2026-04-18T12:38:47.474Z</time></trkpt><trkpt lat="43.4969997" lon="10.6026506"><ele>424.0</ele><time>2026-04-18T12:38:48.437Z</time></trkpt><trkpt lat="43.4969297" lon="10.6025309"><ele>426.99999999999994</ele><time>2026-04-18T12:38:49.448Z</time></trkpt><trkpt lat="43.4968772" lon="10.6024114"><ele>430.0</ele><time>2026-04-18T12:38:50.459Z</time></trkpt><trkpt lat="43.496821" lon="10.6023148"><ele>433.0</ele><time>2026-04-18T12:38:51.479Z</time></trkpt><trkpt lat="43.4967657" lon="10.6022246"><ele>433.00000000000006</ele><time>2026-04-18T12:38:52.47Z</time></trkpt><trkpt lat="43.4967275" lon="10.6021243"><ele>433.0</ele><time>2026-04-18T12:38:53.457Z</time></trkpt><trkpt lat="43.4967008" lon="10.6020099"><ele>433.0</ele><time>2026-04-18T12:38:54.457Z</time></trkpt><trkpt lat="43.4966702" lon="10.6018848"><ele>433.0</ele><time>2026-04-18T12:38:55.471Z</time></trkpt><trkpt lat="43.4966586" lon="10.6017608"><ele>433.00000000000006</ele><time>2026-04-18T12:38:56.484Z</time></trkpt><trkpt lat="43.4966618" lon="10.6016564"><ele>433.0</ele><time>2026-04-18T12:38:57.463Z</time></trkpt><trkpt lat="43.4966638" lon="10.6015452"><ele>432.79999999999995</ele><time>2026-04-18T12:38:58.493Z</time></trkpt><trkpt lat="43.496647" lon="10.6014382"><ele>432.59999999999997</ele><time>2026-04-18T12:38:59.467Z</time></trkpt><trkpt lat="43.4965894" lon="10.601359"><ele>432.40000000000003</ele><time>2026-04-18T12:39:00.473Z</time></trkpt><trkpt lat="43.4965294" lon="10.6013154"><ele>432.20000000000005</ele><time>2026-04-18T12:39:01.476Z</time></trkpt><trkpt lat="43.4964264" lon="10.6013063"><ele>432.0</ele><time>2026-04-18T12:39:02.48Z</time></trkpt><trkpt lat="43.4963078" lon="10.6013026"><ele>433.0</ele><time>2026-04-18T12:39:03.48Z</time></trkpt><trkpt lat="43.4961797" lon="10.6012787"><ele>434.0</ele><time>2026-04-18T12:39:04.488Z</time></trkpt><trkpt lat="43.4960658" lon="10.6012388"><ele>435.0</ele><time>2026-04-18T12:39:05.476Z</time></trkpt><trkpt lat="43.4959375" lon="10.6012066"><ele>436.0</ele><time>2026-04-18T12:39:06.488Z</time></trkpt><trkpt lat="43.4957942" lon="10.6011599"><ele>436.0</ele><time>2026-04-18T12:39:07.474Z</time></trkpt><trkpt lat="43.4956495" lon="10.6011164"><ele>436.0</ele><time>2026-04-18T12:39:08.456Z</time></trkpt><trkpt lat="43.4955074" lon="10.6010565"><ele>436.0</ele><time>2026-04-18T12:39:09.474Z</time></trkpt><trkpt lat="43.4953822" lon="10.6010026"><ele>436.0</ele><time>2026-04-18T12:39:10.46Z</time></trkpt><trkpt lat="43.4952711" lon="10.6009485"><ele>437.6</ele><time>2026-04-18T12:39:11.462Z</time></trkpt><trkpt lat="43.495166" lon="10.6009022"><ele>439.20000000000005</ele><time>2026-04-18T12:39:12.451Z</time></trkpt><trkpt lat="43.4950659" lon="10.6008762"><ele>440.79999999999995</ele><time>2026-04-18T12:39:13.486Z</time></trkpt><trkpt lat="43.4949675" lon="10.6008778"><ele>442.4</ele><time>2026-04-18T12:39:14.498Z</time></trkpt><trkpt lat="43.4948747" lon="10.6008933"><ele>444.0</ele><time>2026-04-18T12:39:15.449Z</time></trkpt><trkpt lat="43.4947951" lon="10.6009239"><ele>444.0</ele><time>2026-04-18T12:39:16.478Z</time></trkpt><trkpt lat="43.4947106" lon="10.6009552"><ele>444.0</ele><time>2026-04-18T12:39:17.495Z</time></trkpt><trkpt lat="43.4946389" lon="10.6010147"><ele>444.0</ele><time>2026-04-18T12:39:18.474Z</time></trkpt><trkpt lat="43.4945752" lon="10.601108"><ele>444.0</ele><time>2026-04-18T12:39:19.467Z</time></trkpt><trkpt lat="43.4945196" lon="10.6011752"><ele>444.0</ele><time>2026-04-18T12:39:20.463Z</time></trkpt><trkpt lat="43.4944587" lon="10.6012318"><ele>444.0</ele><time>2026-04-18T12:39:21.477Z</time></trkpt><trkpt lat="43.4943948" lon="10.6012562"><ele>445.79999999999995</ele><time>2026-04-18T12:39:22.474Z</time></trkpt><trkpt lat="43.4943308" lon="10.6012205"><ele>447.59999999999997</ele><time>2026-04-18T12:39:23.463Z</time></trkpt><trkpt lat="43.4942476" lon="10.601152"><ele>449.4</ele><time>2026-04-18T12:39:24.42Z</time></trkpt><trkpt lat="43.4941633" lon="10.6010573"><ele>451.2</ele><time>2026-04-18T12:39:25.415Z</time></trkpt><trkpt lat="43.4940697" lon="10.6009705"><ele>453.0</ele><time>2026-04-18T12:39:26.42Z</time></trkpt><trkpt lat="43.4939712" lon="10.6008915"><ele>453.0</ele><time>2026-04-18T12:39:27.431Z</time></trkpt><trkpt lat="43.493884" lon="10.6008125"><ele>453.0</ele><time>2026-04-18T12:39:28.467Z</time></trkpt><trkpt lat="43.4938054" lon="10.600754"><ele>453.0</ele><time>2026-04-18T12:39:29.48Z</time></trkpt><trkpt lat="43.4937346" lon="10.6006961"><ele>453.0</ele><time>2026-04-18T12:39:30.461Z</time></trkpt><trkpt lat="43.4936637" lon="10.6006396"><ele>453.0</ele><time>2026-04-18T12:39:31.462Z</time></trkpt><trkpt lat="43.4935987" lon="10.6005879"><ele>453.0</ele><time>2026-04-18T12:39:32.5Z</time></trkpt><trkpt lat="43.4935206" lon="10.6005334"><ele>455.4</ele><time>2026-04-18T12:39:33.475Z</time></trkpt><trkpt lat="43.4934493" lon="10.6004853"><ele>457.79999999999995</ele><time>2026-04-18T12:39:34.476Z</time></trkpt><trkpt lat="43.4933612" lon="10.6004715"><ele>460.2</ele><time>2026-04-18T12:39:35.489Z</time></trkpt><trkpt lat="43.493269" lon="10.6004805"><ele>462.6</ele><time>2026-04-18T12:39:36.495Z</time></trkpt><trkpt lat="43.493177" lon="10.6005063"><ele>465.0</ele><time>2026-04-18T12:39:37.492Z</time></trkpt><trkpt lat="43.4930705" lon="10.600544"><ele>465.0</ele><time>2026-04-18T12:39:38.473Z</time></trkpt><trkpt lat="43.492979" lon="10.6005874"><ele>465.0</ele><time>2026-04-18T12:39:39.485Z</time></trkpt><trkpt lat="43.4929123" lon="10.6006214"><ele>465.0</ele><time>2026-04-18T12:39:40.453Z</time></trkpt><trkpt lat="43.492843" lon="10.6006353"><ele>465.0</ele><time>2026-04-18T12:39:41.468Z</time></trkpt><trkpt lat="43.4927706" lon="10.6005951"><ele>465.0</ele><time>2026-04-18T12:39:42.49Z</time></trkpt><trkpt lat="43.4926904" lon="10.6005543"><ele>465.0</ele><time>2026-04-18T12:39:43.494Z</time></trkpt><trkpt lat="43.4926152" lon="10.6004826"><ele>464.6666666666667</ele><time>2026-04-18T12:39:44.481Z</time></trkpt><trkpt lat="43.4925373" lon="10.600424"><ele>464.33333333333337</ele><time>2026-04-18T12:39:45.475Z</time></trkpt><trkpt lat="43.4924854" lon="10.6003609"><ele>464.0</ele><time>2026-04-18T12:39:46.46Z</time></trkpt><trkpt lat="43.4924377" lon="10.6002966"><ele>463.6666666666667</ele><time>2026-04-18T12:39:48.445Z</time></trkpt><trkpt lat="43.4924084" lon="10.6001857"><ele>463.33333333333337</ele><time>2026-04-18T12:42:11.49Z</time></trkpt><trkpt lat="43.492346" lon="10.6000816"><ele>463.0</ele><time>2026-04-18T12:42:13.467Z</time></trkpt><trkpt lat="43.4922898" lon="10.6000303"><ele>462.83333333333337</ele><time>2026-04-18T12:42:14.487Z</time></trkpt><trkpt lat="43.4922166" lon="10.599995"><ele>462.6666666666667</ele><time>2026-04-18T12:42:15.483Z</time></trkpt><trkpt lat="43.4921415" lon="10.599966"><ele>462.5</ele><time>2026-04-18T12:42:16.486Z</time></trkpt><trkpt lat="43.4920817" lon="10.5999224"><ele>462.33333333333337</ele><time>2026-04-18T12:42:17.484Z</time></trkpt><trkpt lat="43.4920246" lon="10.5998557"><ele>462.1666666666667</ele><time>2026-04-18T12:42:18.486Z</time></trkpt><trkpt lat="43.4919831" lon="10.5997521"><ele>462.0</ele><time>2026-04-18T12:42:19.468Z</time></trkpt><trkpt lat="43.4919691" lon="10.5996091"><ele>463.20000000000005</ele><time>2026-04-18T12:42:20.496Z</time></trkpt><trkpt lat="43.4919797" lon="10.5994507"><ele>464.40000000000003</ele><time>2026-04-18T12:42:21.486Z</time></trkpt><trkpt lat="43.4919852" lon="10.5992953"><ele>465.59999999999997</ele><time>2026-04-18T12:42:22.498Z</time></trkpt><trkpt lat="43.4919741" lon="10.5991521"><ele>466.79999999999995</ele><time>2026-04-18T12:42:23.49Z</time></trkpt><trkpt lat="43.4919591" lon="10.5990109"><ele>468.0</ele><time>2026-04-18T12:42:24.497Z</time></trkpt><trkpt lat="43.4919747" lon="10.5988649"><ele>468.0</ele><time>2026-04-18T12:42:25.472Z</time></trkpt><trkpt lat="43.4920032" lon="10.5987142"><ele>467.99999999999994</ele><time>2026-04-18T12:42:26.539Z</time></trkpt><trkpt lat="43.4920326" lon="10.5985653"><ele>467.99999999999994</ele><time>2026-04-18T12:42:27.498Z</time></trkpt><trkpt lat="43.4920574" lon="10.5984186"><ele>468.0</ele><time>2026-04-18T12:42:28.498Z</time></trkpt><trkpt lat="43.4920758" lon="10.5982959"><ele>468.0</ele><time>2026-04-18T12:42:29.497Z</time></trkpt><trkpt lat="43.4920862" lon="10.5981841"><ele>469.2</ele><time>2026-04-18T12:42:30.51Z</time></trkpt><trkpt lat="43.4920709" lon="10.5980496"><ele>470.4</ele><time>2026-04-18T12:42:31.476Z</time></trkpt><trkpt lat="43.4920424" lon="10.597907"><ele>471.59999999999997</ele><time>2026-04-18T12:42:32.481Z</time></trkpt><trkpt lat="43.4920203" lon="10.5977449"><ele>472.79999999999995</ele><time>2026-04-18T12:42:33.499Z</time></trkpt><trkpt lat="43.4920127" lon="10.5975791"><ele>474.0</ele><time>2026-04-18T12:42:34.439Z</time></trkpt><trkpt lat="43.4919846" lon="10.5974225"><ele>475.79999999999995</ele><time>2026-04-18T12:42:35.469Z</time></trkpt><trkpt lat="43.4919416" lon="10.5972843"><ele>477.59999999999997</ele><time>2026-04-18T12:42:36.494Z</time></trkpt><trkpt lat="43.4919144" lon="10.5971549"><ele>479.4</ele><time>2026-04-18T12:42:37.442Z</time></trkpt><trkpt lat="43.4919104" lon="10.5970321"><ele>481.2</ele><time>2026-04-18T12:42:38.474Z</time></trkpt><trkpt lat="43.4919064" lon="10.5969411"><ele>483.0</ele><time>2026-04-18T12:42:39.498Z</time></trkpt><trkpt lat="43.4918857" lon="10.5967938"><ele>483.59999999999997</ele><time>2026-04-18T12:42:41.503Z</time></trkpt><trkpt lat="43.4918245" lon="10.5967158"><ele>484.19999999999993</ele><time>2026-04-18T12:42:42.552Z</time></trkpt><trkpt lat="43.4917524" lon="10.5966476"><ele>484.8</ele><time>2026-04-18T12:42:43.504Z</time></trkpt><trkpt lat="43.4916516" lon="10.5965836"><ele>485.4</ele><time>2026-04-18T12:42:44.501Z</time></trkpt><trkpt lat="43.491547" lon="10.5965032"><ele>486.0</ele><time>2026-04-18T12:42:45.532Z</time></trkpt><trkpt lat="43.4914231" lon="10.5964395"><ele>486.0</ele><time>2026-04-18T12:42:46.55Z</time></trkpt><trkpt lat="43.4912886" lon="10.5963913"><ele>486.0</ele><time>2026-04-18T12:42:47.55Z</time></trkpt><trkpt lat="43.4911737" lon="10.5963613"><ele>486.0</ele><time>2026-04-18T12:42:48.545Z</time></trkpt><trkpt lat="43.491046" lon="10.5963551"><ele>486.0</ele><time>2026-04-18T12:42:49.522Z</time></trkpt><trkpt lat="43.4909117" lon="10.5963488"><ele>487.0</ele><time>2026-04-18T12:42:50.553Z</time></trkpt><trkpt lat="43.4907886" lon="10.5963288"><ele>488.0</ele><time>2026-04-18T12:42:51.553Z</time></trkpt><trkpt lat="43.4906658" lon="10.5963133"><ele>489.0</ele><time>2026-04-18T12:42:52.568Z</time></trkpt><trkpt lat="43.4905541" lon="10.5962957"><ele>490.0</ele><time>2026-04-18T12:42:53.581Z</time></trkpt><trkpt lat="43.4904469" lon="10.5962953"><ele>490.5</ele><time>2026-04-18T12:42:54.543Z</time></trkpt><trkpt lat="43.4903363" lon="10.5963257"><ele>491.0</ele><time>2026-04-18T12:42:55.553Z</time></trkpt><trkpt lat="43.4902343" lon="10.596377"><ele>491.5</ele><time>2026-04-18T12:42:56.56Z</time></trkpt><trkpt lat="43.4901299" lon="10.5964589"><ele>492.0</ele><time>2026-04-18T12:42:57.555Z</time></trkpt><trkpt lat="43.4900235" lon="10.5965213"><ele>492.0</ele><time>2026-04-18T12:42:58.544Z</time></trkpt><trkpt lat="43.4899162" lon="10.5965558"><ele>492.0</ele><time>2026-04-18T12:42:59.563Z</time></trkpt><trkpt lat="43.489799" lon="10.5965703"><ele>492.0</ele><time>2026-04-18T12:43:00.549Z</time></trkpt><trkpt lat="43.489677" lon="10.5965332"><ele>492.0</ele><time>2026-04-18T12:43:01.558Z</time></trkpt><trkpt lat="43.4895533" lon="10.5965022"><ele>492.0</ele><time>2026-04-18T12:43:02.554Z</time></trkpt><trkpt lat="43.4894245" lon="10.5964654"><ele>492.0</ele><time>2026-04-18T12:43:03.552Z</time></trkpt><trkpt lat="43.4893142" lon="10.5964151"><ele>492.0</ele><time>2026-04-18T12:43:04.548Z</time></trkpt><trkpt lat="43.4892054" lon="10.5963632"><ele>492.0</ele><time>2026-04-18T12:43:05.512Z</time></trkpt><trkpt lat="43.4890951" lon="10.5963421"><ele>492.0</ele><time>2026-04-18T12:43:06.549Z</time></trkpt><trkpt lat="43.4889951" lon="10.5963551"><ele>492.0</ele><time>2026-04-18T12:43:07.551Z</time></trkpt><trkpt lat="43.4888905" lon="10.5964246"><ele>492.0</ele><time>2026-04-18T12:43:08.543Z</time></trkpt><trkpt lat="43.4887948" lon="10.5965387"><ele>492.0</ele><time>2026-04-18T12:43:09.55Z</time></trkpt><trkpt lat="43.4887219" lon="10.5966839"><ele>492.6</ele><time>2026-04-18T12:43:10.472Z</time></trkpt><trkpt lat="43.4886551" lon="10.5968222"><ele>493.20000000000005</ele><time>2026-04-18T12:43:11.509Z</time></trkpt><trkpt lat="43.488597" lon="10.5969291"><ele>493.8</ele><time>2026-04-18T12:43:12.547Z</time></trkpt><trkpt lat="43.4885471" lon="10.5970678"><ele>494.4</ele><time>2026-04-18T12:43:13.557Z</time></trkpt><trkpt lat="43.4885028" lon="10.5972007"><ele>495.0</ele><time>2026-04-18T12:43:14.551Z</time></trkpt><trkpt lat="43.4884493" lon="10.5973278"><ele>495.0</ele><time>2026-04-18T12:43:15.541Z</time></trkpt><trkpt lat="43.4883938" lon="10.5974414"><ele>495.0</ele><time>2026-04-18T12:43:16.543Z</time></trkpt><trkpt lat="43.4883413" lon="10.5975505"><ele>495.0</ele><time>2026-04-18T12:43:17.556Z</time></trkpt><trkpt lat="43.4882637" lon="10.5976606"><ele>495.0</ele><time>2026-04-18T12:43:18.544Z</time></trkpt><trkpt lat="43.4881735" lon="10.5977773"><ele>495.0</ele><time>2026-04-18T12:43:19.544Z</time></trkpt><trkpt lat="43.4880648" lon="10.597885"><ele>494.5</ele><time>2026-04-18T12:43:20.572Z</time></trkpt><trkpt lat="43.4879695" lon="10.5980041"><ele>494.0</ele><time>2026-04-18T12:43:21.555Z</time></trkpt><trkpt lat="43.4878911" lon="10.598172"><ele>493.5</ele><time>2026-04-18T12:43:22.564Z</time></trkpt><trkpt lat="43.4878359" lon="10.5983644"><ele>493.0</ele><time>2026-04-18T12:43:23.548Z</time></trkpt><trkpt lat="43.4877865" lon="10.5985731"><ele>493.33333333333337</ele><time>2026-04-18T12:43:24.555Z</time></trkpt><trkpt lat="43.487709" lon="10.5987529"><ele>493.66666666666663</ele><time>2026-04-18T12:43:25.53Z</time></trkpt><trkpt lat="43.4876042" lon="10.5989162"><ele>494.0</ele><time>2026-04-18T12:43:26.533Z</time></trkpt><trkpt lat="43.4874794" lon="10.5990955"><ele>494.0</ele><time>2026-04-18T12:43:27.503Z</time></trkpt><trkpt lat="43.4873621" lon="10.5992692"><ele>494.0</ele><time>2026-04-18T12:43:28.517Z</time></trkpt><trkpt lat="43.4872572" lon="10.5994067"><ele>494.0</ele><time>2026-04-18T12:43:29.546Z</time></trkpt><trkpt lat="43.4871622" lon="10.5995346"><ele>496.0</ele><time>2026-04-18T12:43:30.495Z</time></trkpt><trkpt lat="43.4870599" lon="10.5996454"><ele>498.0</ele><time>2026-04-18T12:43:31.519Z</time></trkpt><trkpt lat="43.4869382" lon="10.5997261"><ele>500.0</ele><time>2026-04-18T12:43:32.492Z</time></trkpt><trkpt lat="43.486804" lon="10.5997682"><ele>502.0</ele><time>2026-04-18T12:43:33.531Z</time></trkpt><trkpt lat="43.4866714" lon="10.5997697"><ele>502.0</ele><time>2026-04-18T12:43:34.479Z</time></trkpt><trkpt lat="43.4865376" lon="10.5997294"><ele>502.0</ele><time>2026-04-18T12:43:35.549Z</time></trkpt><trkpt lat="43.4863838" lon="10.5996817"><ele>502.0</ele><time>2026-04-18T12:43:36.539Z</time></trkpt><trkpt lat="43.486231" lon="10.5996501"><ele>502.0</ele><time>2026-04-18T12:43:37.548Z</time></trkpt><trkpt lat="43.4860848" lon="10.5996335"><ele>503.25</ele><time>2026-04-18T12:43:38.503Z</time></trkpt><trkpt lat="43.4859469" lon="10.5996185"><ele>504.5</ele><time>2026-04-18T12:43:39.516Z</time></trkpt><trkpt lat="43.4858218" lon="10.5996348"><ele>505.75</ele><time>2026-04-18T12:43:40.48Z</time></trkpt><trkpt lat="43.4857102" lon="10.5996693"><ele>507.0</ele><time>2026-04-18T12:43:41.5Z</time></trkpt><trkpt lat="43.4855935" lon="10.5997265"><ele>507.0</ele><time>2026-04-18T12:43:42.534Z</time></trkpt><trkpt lat="43.4854835" lon="10.5998038"><ele>507.00000000000006</ele><time>2026-04-18T12:43:43.51Z</time></trkpt><trkpt lat="43.4853695" lon="10.5998655"><ele>507.00000000000006</ele><time>2026-04-18T12:43:44.523Z</time></trkpt><trkpt lat="43.4852792" lon="10.5999199"><ele>507.0</ele><time>2026-04-18T12:43:45.562Z</time></trkpt><trkpt lat="43.4851808" lon="10.5999653"><ele>507.0</ele><time>2026-04-18T12:43:46.547Z</time></trkpt><trkpt lat="43.4850817" lon="10.6000031"><ele>506.5</ele><time>2026-04-18T12:43:47.556Z</time></trkpt><trkpt lat="43.4849772" lon="10.6000153"><ele>506.0</ele><time>2026-04-18T12:43:48.556Z</time></trkpt><trkpt lat="43.484861" lon="10.6000217"><ele>505.5</ele><time>2026-04-18T12:43:49.525Z</time></trkpt><trkpt lat="43.4847387" lon="10.6000265"><ele>505.0</ele><time>2026-04-18T12:43:50.535Z</time></trkpt><trkpt lat="43.4846015" lon="10.6000297"><ele>504.5</ele><time>2026-04-18T12:43:51.52Z</time></trkpt><trkpt lat="43.4844639" lon="10.6000465"><ele>504.0</ele><time>2026-04-18T12:43:52.565Z</time></trkpt><trkpt lat="43.4843232" lon="10.6000609"><ele>503.5</ele><time>2026-04-18T12:43:53.55Z</time></trkpt><trkpt lat="43.4841886" lon="10.6000805"><ele>503.0</ele><time>2026-04-18T12:43:54.55Z</time></trkpt><trkpt lat="43.4840561" lon="10.600093"><ele>503.0</ele><time>2026-04-18T12:43:55.551Z</time></trkpt><trkpt lat="43.4839148" lon="10.6000868"><ele>503.0</ele><time>2026-04-18T12:43:56.525Z</time></trkpt><trkpt lat="43.4837711" lon="10.600077"><ele>503.0</ele><time>2026-04-18T12:43:57.538Z</time></trkpt><trkpt lat="43.4836369" lon="10.6000563"><ele>503.0</ele><time>2026-04-18T12:43:58.517Z</time></trkpt><trkpt lat="43.4834854" lon="10.6000104"><ele>501.0</ele><time>2026-04-18T12:43:59.553Z</time></trkpt><trkpt lat="43.4833336" lon="10.5999264"><ele>499.0</ele><time>2026-04-18T12:44:00.559Z</time></trkpt><trkpt lat="43.4831718" lon="10.5998584"><ele>497.0</ele><time>2026-04-18T12:44:01.552Z</time></trkpt><trkpt lat="43.483034" lon="10.5997822"><ele>496.0</ele><time>2026-04-18T12:44:02.555Z</time></trkpt><trkpt lat="43.4828813" lon="10.5996923"><ele>495.0</ele><time>2026-04-18T12:44:03.546Z</time></trkpt><trkpt lat="43.4827464" lon="10.5996017"><ele>494.0</ele><time>2026-04-18T12:44:04.575Z</time></trkpt><trkpt lat="43.4826126" lon="10.5995217"><ele>494.5</ele><time>2026-04-18T12:44:05.565Z</time></trkpt><trkpt lat="43.4824847" lon="10.5994421"><ele>495.0</ele><time>2026-04-18T12:44:06.565Z</time></trkpt><trkpt lat="43.4823606" lon="10.5993745"><ele>495.5</ele><time>2026-04-18T12:44:07.549Z</time></trkpt><trkpt lat="43.4822415" lon="10.5993372"><ele>496.0</ele><time>2026-04-18T12:44:08.536Z</time></trkpt><trkpt lat="43.4821159" lon="10.5993237"><ele>499.20000000000005</ele><time>2026-04-18T12:44:09.535Z</time></trkpt><trkpt lat="43.481992" lon="10.5993326"><ele>502.40000000000003</ele><time>2026-04-18T12:44:10.543Z</time></trkpt><trkpt lat="43.4818825" lon="10.5993442"><ele>505.6</ele><time>2026-04-18T12:44:11.553Z</time></trkpt><trkpt lat="43.4817871" lon="10.5993542"><ele>508.8</ele><time>2026-04-18T12:44:12.508Z</time></trkpt><trkpt lat="43.4816895" lon="10.5993611"><ele>512.0</ele><time>2026-04-18T12:44:13.508Z</time></trkpt><trkpt lat="43.481598" lon="10.5993589"><ele>512.0</ele><time>2026-04-18T12:44:14.48Z</time></trkpt><trkpt lat="43.4815007" lon="10.5993619"><ele>512.0</ele><time>2026-04-18T12:44:15.48Z</time></trkpt><trkpt lat="43.4814022" lon="10.5993676"><ele>512.0</ele><time>2026-04-18T12:44:16.483Z</time></trkpt><trkpt lat="43.4813102" lon="10.5993776"><ele>512.0</ele><time>2026-04-18T12:44:17.45Z</time></trkpt><trkpt lat="43.4812341" lon="10.599406"><ele>512.0</ele><time>2026-04-18T12:44:18.49Z</time></trkpt><trkpt lat="43.4811473" lon="10.5994423"><ele>514.2</ele><time>2026-04-18T12:44:19.468Z</time></trkpt><trkpt lat="43.4810637" lon="10.5994652"><ele>516.4000000000001</ele><time>2026-04-18T12:44:20.476Z</time></trkpt><trkpt lat="43.4809769" lon="10.5994942"><ele>518.5999999999999</ele><time>2026-04-18T12:44:21.472Z</time></trkpt><trkpt lat="43.4808805" lon="10.599516"><ele>520.8</ele><time>2026-04-18T12:44:22.495Z</time></trkpt><trkpt lat="43.4807831" lon="10.599547"><ele>523.0</ele><time>2026-04-18T12:44:23.487Z</time></trkpt><trkpt lat="43.4806774" lon="10.5995799"><ele>523.6</ele><time>2026-04-18T12:44:24.448Z</time></trkpt><trkpt lat="43.480571" lon="10.5996185"><ele>524.1999999999999</ele><time>2026-04-18T12:44:25.438Z</time></trkpt><trkpt lat="43.4804672" lon="10.5996781"><ele>524.8</ele><time>2026-04-18T12:44:26.418Z</time></trkpt><trkpt lat="43.4803699" lon="10.5997371"><ele>525.4</ele><time>2026-04-18T12:44:27.444Z</time></trkpt><trkpt lat="43.4802768" lon="10.5998157"><ele>526.0</ele><time>2026-04-18T12:44:28.442Z</time></trkpt><trkpt lat="43.4802045" lon="10.5998998"><ele>526.8</ele><time>2026-04-18T12:44:29.422Z</time></trkpt><trkpt lat="43.4801194" lon="10.5999893"><ele>527.6</ele><time>2026-04-18T12:44:30.418Z</time></trkpt><trkpt lat="43.4800424" lon="10.6000759"><ele>528.4</ele><time>2026-04-18T12:44:31.458Z</time></trkpt><trkpt lat="43.4799694" lon="10.6001953"><ele>529.2</ele><time>2026-04-18T12:44:32.44Z</time></trkpt><trkpt lat="43.4799163" lon="10.600313"><ele>530.0</ele><time>2026-04-18T12:44:33.418Z</time></trkpt><trkpt lat="43.4798968" lon="10.6004316"><ele>530.8</ele><time>2026-04-18T12:44:34.418Z</time></trkpt><trkpt lat="43.4798894" lon="10.600564"><ele>531.6</ele><time>2026-04-18T12:44:35.42Z</time></trkpt><trkpt lat="43.4798875" lon="10.6007035"><ele>532.4</ele><time>2026-04-18T12:44:36.427Z</time></trkpt><trkpt lat="43.4798699" lon="10.6008279"><ele>533.2</ele><time>2026-04-18T12:44:37.42Z</time></trkpt><trkpt lat="43.479834" lon="10.6009474"><ele>534.0</ele><time>2026-04-18T12:44:38.457Z</time></trkpt><trkpt lat="43.4797852" lon="10.6010537"><ele>534.0</ele><time>2026-04-18T12:44:39.447Z</time></trkpt><trkpt lat="43.4797283" lon="10.6011375"><ele>534.0</ele><time>2026-04-18T12:44:40.427Z</time></trkpt><trkpt lat="43.4796592" lon="10.6011815"><ele>534.0</ele><time>2026-04-18T12:44:41.438Z</time></trkpt><trkpt lat="43.4795824" lon="10.6012348"><ele>534.0</ele><time>2026-04-18T12:44:42.425Z</time></trkpt><trkpt lat="43.4795125" lon="10.6013129"><ele>534.0</ele><time>2026-04-18T12:44:43.439Z</time></trkpt><trkpt lat="43.4794497" lon="10.6014075"><ele>534.0</ele><time>2026-04-18T12:44:44.427Z</time></trkpt><trkpt lat="43.4793872" lon="10.6015102"><ele>535.8</ele><time>2026-04-18T12:44:45.424Z</time></trkpt><trkpt lat="43.4793284" lon="10.6016024"><ele>537.5999999999999</ele><time>2026-04-18T12:44:46.433Z</time></trkpt><trkpt lat="43.4792644" lon="10.6016842"><ele>539.4</ele><time>2026-04-18T12:44:47.429Z</time></trkpt><trkpt lat="43.4791847" lon="10.6017401"><ele>541.1999999999999</ele><time>2026-04-18T12:44:48.43Z</time></trkpt><trkpt lat="43.4790819" lon="10.6017565"><ele>543.0</ele><time>2026-04-18T12:44:49.445Z</time></trkpt><trkpt lat="43.4789851" lon="10.6017411"><ele>543.0</ele><time>2026-04-18T12:44:50.427Z</time></trkpt><trkpt lat="43.4789014" lon="10.6016931"><ele>543.0</ele><time>2026-04-18T12:44:51.451Z</time></trkpt><trkpt lat="43.4788153" lon="10.6016868"><ele>543.0</ele><time>2026-04-18T12:44:52.476Z</time></trkpt><trkpt lat="43.4787179" lon="10.6017579"><ele>543.0</ele><time>2026-04-18T12:44:53.449Z</time></trkpt><trkpt lat="43.4786331" lon="10.6018483"><ele>543.0</ele><time>2026-04-18T12:44:54.455Z</time></trkpt><trkpt lat="43.4785412" lon="10.6019644"><ele>544.0</ele><time>2026-04-18T12:44:55.47Z</time></trkpt><trkpt lat="43.4784568" lon="10.6020668"><ele>545.0</ele><time>2026-04-18T12:44:56.489Z</time></trkpt><trkpt lat="43.4783566" lon="10.6021578"><ele>546.0</ele><time>2026-04-18T12:44:57.459Z</time></trkpt><trkpt lat="43.4782608" lon="10.6023034"><ele>547.0</ele><time>2026-04-18T12:44:58.472Z</time></trkpt><trkpt lat="43.4782019" lon="10.6025214"><ele>547.0</ele><time>2026-04-18T12:44:59.471Z</time></trkpt><trkpt lat="43.4781597" lon="10.6027034"><ele>547.0</ele><time>2026-04-18T12:45:00.447Z</time></trkpt><trkpt lat="43.4781098" lon="10.6028717"><ele>547.0</ele><time>2026-04-18T12:45:01.455Z</time></trkpt><trkpt lat="43.4780296" lon="10.6030201"><ele>547.0</ele><time>2026-04-18T12:45:02.464Z</time></trkpt><trkpt lat="43.4779282" lon="10.6031595"><ele>549.4</ele><time>2026-04-18T12:45:03.442Z</time></trkpt><trkpt lat="43.4778195" lon="10.6032677"><ele>551.8000000000001</ele><time>2026-04-18T12:45:04.439Z</time></trkpt><trkpt lat="43.4777429" lon="10.6033575"><ele>554.2</ele><time>2026-04-18T12:45:05.466Z</time></trkpt><trkpt lat="43.4776834" lon="10.6034557"><ele>556.6</ele><time>2026-04-18T12:45:06.453Z</time></trkpt><trkpt lat="43.4776291" lon="10.6035238"><ele>559.0</ele><time>2026-04-18T12:45:07.453Z</time></trkpt><trkpt lat="43.4775588" lon="10.6035909"><ele>559.0</ele><time>2026-04-18T12:45:08.425Z</time></trkpt><trkpt lat="43.4774829" lon="10.6036282"><ele>559.0</ele><time>2026-04-18T12:45:09.464Z</time></trkpt><trkpt lat="43.4773844" lon="10.603671"><ele>559.0</ele><time>2026-04-18T12:45:10.433Z</time></trkpt><trkpt lat="43.4772792" lon="10.6037049"><ele>559.0</ele><time>2026-04-18T12:45:11.419Z</time></trkpt><trkpt lat="43.4771751" lon="10.6037234"><ele>559.0</ele><time>2026-04-18T12:45:12.465Z</time></trkpt><trkpt lat="43.4770498" lon="10.6037547"><ele>561.25</ele><time>2026-04-18T12:45:13.441Z</time></trkpt><trkpt lat="43.4769336" lon="10.6037942"><ele>563.5</ele><time>2026-04-18T12:45:14.443Z</time></trkpt><trkpt lat="43.4768091" lon="10.6038365"><ele>565.75</ele><time>2026-04-18T12:45:15.449Z</time></trkpt><trkpt lat="43.4766832" lon="10.6038852"><ele>568.0</ele><time>2026-04-18T12:45:16.447Z</time></trkpt><trkpt lat="43.4764148" lon="10.6037937"><ele>571.5</ele><time>2026-04-18T12:45:18.453Z</time></trkpt><trkpt lat="43.4761945" lon="10.6035502"><ele>575.0</ele><time>2026-04-18T12:45:20.451Z</time></trkpt><trkpt lat="43.47594" lon="10.6033945"><ele>575.0</ele><time>2026-04-18T12:45:22.477Z</time></trkpt><trkpt lat="43.4756462" lon="10.6033743"><ele>575.0</ele><time>2026-04-18T12:45:24.434Z</time></trkpt><trkpt lat="43.4754254" lon="10.6033898"><ele>575.5</ele><time>2026-04-18T12:45:26.429Z</time></trkpt><trkpt lat="43.4753346" lon="10.6033899"><ele>576.0</ele><time>2026-04-18T12:45:27.452Z</time></trkpt><trkpt lat="43.4752715" lon="10.6033931"><ele>576.5</ele><time>2026-04-18T12:45:28.443Z</time></trkpt><trkpt lat="43.4751931" lon="10.6033985"><ele>577.0</ele><time>2026-04-18T12:45:30.424Z</time></trkpt><trkpt lat="43.4750924" lon="10.6033995"><ele>577.5</ele><time>2026-04-18T12:45:32.418Z</time></trkpt><trkpt lat="43.4750009" lon="10.6034141"><ele>578.0</ele><time>2026-04-18T12:45:34.418Z</time></trkpt><trkpt lat="43.4749541" lon="10.6034871"><ele>578.0</ele><time>2026-04-18T12:45:36.424Z</time></trkpt><trkpt lat="43.4749265" lon="10.6035829"><ele>578.0</ele><time>2026-04-18T12:45:39.421Z</time></trkpt><trkpt lat="43.4749152" lon="10.6036943"><ele>578.0</ele><time>2026-04-18T12:45:42.482Z</time></trkpt><trkpt lat="43.4749053" lon="10.6037989"><ele>578.0</ele><time>2026-04-18T12:45:44.471Z</time></trkpt><trkpt lat="43.4748737" lon="10.603917"><ele>578.0</ele><time>2026-04-18T12:45:47.452Z</time></trkpt><trkpt lat="43.4748713" lon="10.6040052"><ele>578.0</ele><time>2026-04-18T12:45:50.469Z</time></trkpt><trkpt lat="43.4748653" lon="10.6041389"><ele>577.8</ele><time>2026-04-18T12:45:52.485Z</time></trkpt><trkpt lat="43.4748629" lon="10.6042513"><ele>577.5999999999999</ele><time>2026-04-18T12:45:54.452Z</time></trkpt><trkpt lat="43.4748223" lon="10.6043739"><ele>577.4000000000001</ele><time>2026-04-18T12:45:56.445Z</time></trkpt><trkpt lat="43.4748176" lon="10.6044836"><ele>577.2</ele><time>2026-04-18T12:45:58.433Z</time></trkpt><trkpt lat="43.4748452" lon="10.6046101"><ele>577.0</ele><time>2026-04-18T12:46:00.469Z</time></trkpt><trkpt lat="43.4748574" lon="10.6047396"><ele>577.0</ele><time>2026-04-18T12:46:02.497Z</time></trkpt><trkpt lat="43.4748894" lon="10.6048623"><ele>577.0</ele><time>2026-04-18T12:46:04.449Z</time></trkpt><trkpt lat="43.4749202" lon="10.604983"><ele>577.0</ele><time>2026-04-18T12:46:06.472Z</time></trkpt><trkpt lat="43.4749405" lon="10.6050872"><ele>577.0</ele><time>2026-04-18T12:46:08.44Z</time></trkpt><trkpt lat="43.4749667" lon="10.6051793"><ele>577.0</ele><time>2026-04-18T12:46:10.453Z</time></trkpt><trkpt lat="43.474962" lon="10.6053898"><ele>576.5</ele><time>2026-04-18T12:46:13.461Z</time></trkpt><trkpt lat="43.4750006" lon="10.6055083"><ele>576.0</ele><time>2026-04-18T12:46:15.476Z</time></trkpt><trkpt lat="43.4750091" lon="10.6055983"><ele>575.5</ele><time>2026-04-18T12:46:17.457Z</time></trkpt><trkpt lat="43.4749984" lon="10.6057023"><ele>575.0</ele><time>2026-04-18T12:46:20.428Z</time></trkpt><trkpt lat="43.4749918" lon="10.6057944"><ele>574.5</ele><time>2026-04-18T12:46:23.452Z</time></trkpt><trkpt lat="43.4749409" lon="10.6058708"><ele>574.0</ele><time>2026-04-18T12:46:28.418Z</time></trkpt><trkpt lat="43.4749089" lon="10.6059584"><ele>574.0</ele><time>2026-04-18T12:46:31.452Z</time></trkpt><trkpt lat="43.4748506" lon="10.6060275"><ele>574.0</ele><time>2026-04-18T12:46:33.478Z</time></trkpt><trkpt lat="43.4747796" lon="10.6060967"><ele>574.0</ele><time>2026-04-18T12:46:35.461Z</time></trkpt><trkpt lat="43.4746583" lon="10.6061532"><ele>574.0</ele><time>2026-04-18T12:46:37.406Z</time></trkpt><trkpt lat="43.4745832" lon="10.6061843"><ele>574.0</ele><time>2026-04-18T12:46:38.449Z</time></trkpt><trkpt lat="43.4744971" lon="10.6062051"><ele>574.8</ele><time>2026-04-18T12:46:39.409Z</time></trkpt><trkpt lat="43.4744093" lon="10.6062337"><ele>575.5999999999999</ele><time>2026-04-18T12:46:40.47Z</time></trkpt><trkpt lat="43.4743119" lon="10.6062714"><ele>576.4</ele><time>2026-04-18T12:46:41.426Z</time></trkpt><trkpt lat="43.4742227" lon="10.6062983"><ele>577.1999999999999</ele><time>2026-04-18T12:46:42.413Z</time></trkpt><trkpt lat="43.4741222" lon="10.6063102"><ele>578.0</ele><time>2026-04-18T12:46:43.418Z</time></trkpt><trkpt lat="43.4740325" lon="10.606306"><ele>578.0</ele><time>2026-04-18T12:46:44.417Z</time></trkpt><trkpt lat="43.4739405" lon="10.6063102"><ele>578.0</ele><time>2026-04-18T12:46:45.411Z</time></trkpt><trkpt lat="43.4738521" lon="10.6063113"><ele>578.0</ele><time>2026-04-18T12:46:46.41Z</time></trkpt><trkpt lat="43.4737777" lon="10.6063085"><ele>578.0</ele><time>2026-04-18T12:46:47.447Z</time></trkpt><trkpt lat="43.4737036" lon="10.6063327"><ele>578.0</ele><time>2026-04-18T12:46:48.465Z</time></trkpt><trkpt lat="43.473589" lon="10.6063201"><ele>578.0</ele><time>2026-04-18T12:46:50.45Z</time></trkpt><trkpt lat="43.4734792" lon="10.6063141"><ele>578.6666666666666</ele><time>2026-04-18T12:46:52.439Z</time></trkpt><trkpt lat="43.4733717" lon="10.6062649"><ele>579.3333333333333</ele><time>2026-04-18T12:46:54.442Z</time></trkpt><trkpt lat="43.4733038" lon="10.6062212"><ele>580.0</ele><time>2026-04-18T12:46:55.432Z</time></trkpt><trkpt lat="43.4732387" lon="10.6061583"><ele>580.6666666666666</ele><time>2026-04-18T12:46:56.431Z</time></trkpt><trkpt lat="43.4731767" lon="10.6060903"><ele>581.3333333333334</ele><time>2026-04-18T12:46:57.438Z</time></trkpt><trkpt lat="43.4731091" lon="10.6060149"><ele>582.0</ele><time>2026-04-18T12:46:58.418Z</time></trkpt><trkpt lat="43.4730402" lon="10.6059368"><ele>582.25</ele><time>2026-04-18T12:46:59.446Z</time></trkpt><trkpt lat="43.4729711" lon="10.6058672"><ele>582.5</ele><time>2026-04-18T12:47:00.418Z</time></trkpt><trkpt lat="43.4728198" lon="10.6057339"><ele>582.75</ele><time>2026-04-18T12:47:02.42Z</time></trkpt><trkpt lat="43.4727054" lon="10.6056132"><ele>583.0</ele><time>2026-04-18T12:47:04.441Z</time></trkpt><trkpt lat="43.4726497" lon="10.6054558"><ele>583.0000000000001</ele><time>2026-04-18T12:47:06.437Z</time></trkpt><trkpt lat="43.472637" lon="10.6053584"><ele>583.0</ele><time>2026-04-18T12:47:07.444Z</time></trkpt><trkpt lat="43.4726289" lon="10.6052643"><ele>583.0</ele><time>2026-04-18T12:47:08.438Z</time></trkpt><trkpt lat="43.4726123" lon="10.605161"><ele>583.0</ele><time>2026-04-18T12:47:09.44Z</time></trkpt><trkpt lat="43.4725818" lon="10.6050581"><ele>583.0</ele><time>2026-04-18T12:47:10.473Z</time></trkpt><trkpt lat="43.4725624" lon="10.6049696"><ele>583.0000000000001</ele><time>2026-04-18T12:47:11.479Z</time></trkpt><trkpt lat="43.4725266" lon="10.6048688"><ele>583.0</ele><time>2026-04-18T12:47:12.455Z</time></trkpt><trkpt lat="43.4724776" lon="10.6047469"><ele>583.5</ele><time>2026-04-18T12:47:13.475Z</time></trkpt><trkpt lat="43.4724171" lon="10.6046268"><ele>584.0</ele><time>2026-04-18T12:47:14.449Z</time></trkpt><trkpt lat="43.4723712" lon="10.6045203"><ele>584.5</ele><time>2026-04-18T12:47:15.459Z</time></trkpt><trkpt lat="43.4723433" lon="10.6044179"><ele>585.0</ele><time>2026-04-18T12:47:16.417Z</time></trkpt><trkpt lat="43.4723122" lon="10.6043375"><ele>585.5</ele><time>2026-04-18T12:47:17.416Z</time></trkpt><trkpt lat="43.47228" lon="10.6042542"><ele>586.0</ele><time>2026-04-18T12:47:18.441Z</time></trkpt><trkpt lat="43.4721854" lon="10.6041636"><ele>585.2</ele><time>2026-04-18T12:47:20.477Z</time></trkpt><trkpt lat="43.4720956" lon="10.604162"><ele>584.4000000000001</ele><time>2026-04-18T12:47:21.441Z</time></trkpt><trkpt lat="43.471991" lon="10.6041646"><ele>583.6</ele><time>2026-04-18T12:47:22.431Z</time></trkpt><trkpt lat="43.4719043" lon="10.6041629"><ele>582.8000000000001</ele><time>2026-04-18T12:47:23.408Z</time></trkpt><trkpt lat="43.4718185" lon="10.6041983"><ele>582.0</ele><time>2026-04-18T12:47:24.426Z</time></trkpt><trkpt lat="43.4717435" lon="10.6042419"><ele>582.0</ele><time>2026-04-18T12:47:25.425Z</time></trkpt><trkpt lat="43.4716669" lon="10.6042707"><ele>582.0</ele><time>2026-04-18T12:47:26.446Z</time></trkpt><trkpt lat="43.4715967" lon="10.6042856"><ele>582.0</ele><time>2026-04-18T12:47:27.425Z</time></trkpt><trkpt lat="43.4715319" lon="10.6042715"><ele>582.0</ele><time>2026-04-18T12:47:28.43Z</time></trkpt><trkpt lat="43.4714474" lon="10.6042356"><ele>582.0</ele><time>2026-04-18T12:47:29.43Z</time></trkpt><trkpt lat="43.4712911" lon="10.6041899"><ele>581.6666666666666</ele><time>2026-04-18T12:47:31.426Z</time></trkpt><trkpt lat="43.4711987" lon="10.604191"><ele>581.3333333333334</ele><time>2026-04-18T12:47:32.41Z</time></trkpt><trkpt lat="43.4711231" lon="10.6041801"><ele>581.0</ele><time>2026-04-18T12:47:33.414Z</time></trkpt><trkpt lat="43.4710416" lon="10.604193"><ele>580.6666666666667</ele><time>2026-04-18T12:47:34.424Z</time></trkpt><trkpt lat="43.470966" lon="10.6041917"><ele>580.3333333333334</ele><time>2026-04-18T12:47:35.443Z</time></trkpt><trkpt lat="43.4708845" lon="10.6042055"><ele>580.0</ele><time>2026-04-18T12:47:36.411Z</time></trkpt><trkpt lat="43.4707938" lon="10.6042081"><ele>580.0</ele><time>2026-04-18T12:47:37.411Z</time></trkpt><trkpt lat="43.4706946" lon="10.6042185"><ele>580.0</ele><time>2026-04-18T12:47:38.434Z</time></trkpt><trkpt lat="43.4704449" lon="10.6041536"><ele>580.0</ele><time>2026-04-18T12:47:41.436Z</time></trkpt><trkpt lat="43.4703611" lon="10.6041395"><ele>580.0</ele><time>2026-04-18T12:47:42.428Z</time></trkpt><trkpt lat="43.4702746" lon="10.6041285"><ele>580.6666666666667</ele><time>2026-04-18T12:47:43.43Z</time></trkpt><trkpt lat="43.4701847" lon="10.6041117"><ele>581.3333333333334</ele><time>2026-04-18T12:47:44.44Z</time></trkpt><trkpt lat="43.4700943" lon="10.6040674"><ele>582.0</ele><time>2026-04-18T12:47:45.443Z</time></trkpt><trkpt lat="43.4700249" lon="10.6039969"><ele>582.6666666666666</ele><time>2026-04-18T12:47:46.436Z</time></trkpt><trkpt lat="43.4699618" lon="10.6039515"><ele>583.3333333333333</ele><time>2026-04-18T12:47:47.416Z</time></trkpt><trkpt lat="43.4698931" lon="10.6039164"><ele>584.0</ele><time>2026-04-18T12:47:48.433Z</time></trkpt><trkpt lat="43.4698277" lon="10.6038469"><ele>584.0</ele><time>2026-04-18T12:47:49.437Z</time></trkpt><trkpt lat="43.469761" lon="10.6037798"><ele>584.0</ele><time>2026-04-18T12:47:50.451Z</time></trkpt><trkpt lat="43.4696938" lon="10.6037134"><ele>584.0</ele><time>2026-04-18T12:47:51.452Z</time></trkpt><trkpt lat="43.4696201" lon="10.6036466"><ele>584.0</ele><time>2026-04-18T12:47:52.437Z</time></trkpt><trkpt lat="43.4695345" lon="10.6035989"><ele>584.0</ele><time>2026-04-18T12:47:53.434Z</time></trkpt><trkpt lat="43.4694487" lon="10.6035373"><ele>584.0</ele><time>2026-04-18T12:47:54.456Z</time></trkpt><trkpt lat="43.4693835" lon="10.6034643"><ele>585.0</ele><time>2026-04-18T12:47:55.418Z</time></trkpt><trkpt lat="43.469309" lon="10.6033947"><ele>586.0</ele><time>2026-04-18T12:47:56.414Z</time></trkpt><trkpt lat="43.4692248" lon="10.6033126"><ele>587.0</ele><time>2026-04-18T12:47:57.432Z</time></trkpt><trkpt lat="43.4690694" lon="10.6031973"><ele>588.0</ele><time>2026-04-18T12:47:59.432Z</time></trkpt><trkpt lat="43.4690005" lon="10.6031786"><ele>589.0</ele><time>2026-04-18T12:48:00.437Z</time></trkpt><trkpt lat="43.4689224" lon="10.603141"><ele>589.0</ele><time>2026-04-18T12:48:01.448Z</time></trkpt><trkpt lat="43.4688578" lon="10.6030961"><ele>589.0</ele><time>2026-04-18T12:48:02.432Z</time></trkpt><trkpt lat="43.4687831" lon="10.6030527"><ele>589.0</ele><time>2026-04-18T12:48:03.42Z</time></trkpt><trkpt lat="43.4687087" lon="10.6029914"><ele>589.0</ele><time>2026-04-18T12:48:04.428Z</time></trkpt><trkpt lat="43.4686413" lon="10.6029477"><ele>589.0</ele><time>2026-04-18T12:48:05.41Z</time></trkpt><trkpt lat="43.4685701" lon="10.6029108"><ele>589.0</ele><time>2026-04-18T12:48:06.423Z</time></trkpt><trkpt lat="43.4684505" lon="10.6028416"><ele>588.0</ele><time>2026-04-18T12:48:08.461Z</time></trkpt><trkpt lat="43.4683368" lon="10.6027454"><ele>587.0</ele><time>2026-04-18T12:48:10.443Z</time></trkpt><trkpt lat="43.468274" lon="10.6026758"><ele>586.0</ele><time>2026-04-18T12:48:11.453Z</time></trkpt><trkpt lat="43.468226" lon="10.6025712"><ele>585.0</ele><time>2026-04-18T12:48:12.441Z</time></trkpt><trkpt lat="43.468187" lon="10.6024687"><ele>584.0</ele><time>2026-04-18T12:48:13.437Z</time></trkpt><trkpt lat="43.4681481" lon="10.6023531"><ele>584.0</ele><time>2026-04-18T12:48:14.433Z</time></trkpt><trkpt lat="43.4681056" lon="10.6022303"><ele>584.0</ele><time>2026-04-18T12:48:15.429Z</time></trkpt><trkpt lat="43.4680684" lon="10.602101"><ele>584.0</ele><time>2026-04-18T12:48:16.407Z</time></trkpt><trkpt lat="43.4680097" lon="10.6019592"><ele>584.0</ele><time>2026-04-18T12:48:17.448Z</time></trkpt><trkpt lat="43.4679006" lon="10.6017004"><ele>583.75</ele><time>2026-04-18T12:48:19.418Z</time></trkpt><trkpt lat="43.4678424" lon="10.6015938"><ele>583.5</ele><time>2026-04-18T12:48:20.438Z</time></trkpt><trkpt lat="43.4678021" lon="10.6014675"><ele>583.25</ele><time>2026-04-18T12:48:21.419Z</time></trkpt><trkpt lat="43.467743" lon="10.6013289"><ele>583.0</ele><time>2026-04-18T12:48:22.455Z</time></trkpt><trkpt lat="43.4676703" lon="10.601158"><ele>581.75</ele><time>2026-04-18T12:48:23.452Z</time></trkpt><trkpt lat="43.4675935" lon="10.6009874"><ele>580.5</ele><time>2026-04-18T12:48:24.448Z</time></trkpt><trkpt lat="43.4675187" lon="10.6008307"><ele>579.25</ele><time>2026-04-18T12:48:25.434Z</time></trkpt><trkpt lat="43.4674669" lon="10.6006903"><ele>578.0</ele><time>2026-04-18T12:48:26.46Z</time></trkpt><trkpt lat="43.4674361" lon="10.600567"><ele>578.0</ele><time>2026-04-18T12:48:27.425Z</time></trkpt><trkpt lat="43.4674089" lon="10.6004554"><ele>578.0</ele><time>2026-04-18T12:48:28.445Z</time></trkpt><trkpt lat="43.4673538" lon="10.6003597"><ele>578.0</ele><time>2026-04-18T12:48:29.438Z</time></trkpt><trkpt lat="43.4673026" lon="10.6002714"><ele>578.0</ele><time>2026-04-18T12:48:30.448Z</time></trkpt><trkpt lat="43.4672315" lon="10.60019"><ele>578.0</ele><time>2026-04-18T12:48:31.447Z</time></trkpt><trkpt lat="43.4671408" lon="10.6000639"><ele>573.75</ele><time>2026-04-18T12:48:32.455Z</time></trkpt><trkpt lat="43.4670509" lon="10.5999333"><ele>569.5</ele><time>2026-04-18T12:48:33.421Z</time></trkpt><trkpt lat="43.4669491" lon="10.599818"><ele>565.25</ele><time>2026-04-18T12:48:34.413Z</time></trkpt><trkpt lat="43.4668548" lon="10.5997044"><ele>561.0</ele><time>2026-04-18T12:48:35.441Z</time></trkpt><trkpt lat="43.4667662" lon="10.599595"><ele>561.0</ele><time>2026-04-18T12:48:36.433Z</time></trkpt><trkpt lat="43.466671" lon="10.5995049"><ele>561.0</ele><time>2026-04-18T12:48:37.442Z</time></trkpt><trkpt lat="43.4665791" lon="10.5994373"><ele>561.0</ele><time>2026-04-18T12:48:38.442Z</time></trkpt><trkpt lat="43.4664832" lon="10.5993861"><ele>561.0</ele><time>2026-04-18T12:48:39.447Z</time></trkpt><trkpt lat="43.4663874" lon="10.5993189"><ele>561.0</ele><time>2026-04-18T12:48:40.449Z</time></trkpt><trkpt lat="43.4663074" lon="10.5992504"><ele>558.8333333333334</ele><time>2026-04-18T12:48:41.478Z</time></trkpt><trkpt lat="43.4662472" lon="10.599174"><ele>556.6666666666666</ele><time>2026-04-18T12:48:42.457Z</time></trkpt><trkpt lat="43.4662013" lon="10.5991029"><ele>554.5</ele><time>2026-04-18T12:48:43.442Z</time></trkpt><trkpt lat="43.4661451" lon="10.5990129"><ele>552.3333333333333</ele><time>2026-04-18T12:48:44.443Z</time></trkpt><trkpt lat="43.466074" lon="10.5989097"><ele>550.1666666666666</ele><time>2026-04-18T12:48:45.422Z</time></trkpt><trkpt lat="43.4660088" lon="10.5988275"><ele>548.0</ele><time>2026-04-18T12:48:46.43Z</time></trkpt><trkpt lat="43.4659333" lon="10.5987317"><ele>547.6</ele><time>2026-04-18T12:48:47.426Z</time></trkpt><trkpt lat="43.4658485" lon="10.5986319"><ele>547.1999999999999</ele><time>2026-04-18T12:48:48.418Z</time></trkpt><trkpt lat="43.4657938" lon="10.5985493"><ele>546.8</ele><time>2026-04-18T12:48:49.466Z</time></trkpt><trkpt lat="43.4657512" lon="10.5984342"><ele>546.4</ele><time>2026-04-18T12:48:50.476Z</time></trkpt><trkpt lat="43.4657062" lon="10.5983041"><ele>546.0</ele><time>2026-04-18T12:48:51.465Z</time></trkpt><trkpt lat="43.4656878" lon="10.598171"><ele>546.0</ele><time>2026-04-18T12:48:52.475Z</time></trkpt><trkpt lat="43.4656871" lon="10.5980308"><ele>546.0</ele><time>2026-04-18T12:48:53.471Z</time></trkpt><trkpt lat="43.4656974" lon="10.5978931"><ele>546.0</ele><time>2026-04-18T12:48:54.449Z</time></trkpt><trkpt lat="43.465719" lon="10.5978075"><ele>546.0</ele><time>2026-04-18T12:48:55.487Z</time></trkpt><trkpt lat="43.4657796" lon="10.5977376"><ele>546.0</ele><time>2026-04-18T12:48:56.461Z</time></trkpt><trkpt lat="43.4658693" lon="10.5976729"><ele>546.0</ele><time>2026-04-18T12:48:57.473Z</time></trkpt><trkpt lat="43.4659468" lon="10.5976286"><ele>544.1666666666666</ele><time>2026-04-18T12:48:58.466Z</time></trkpt><trkpt lat="43.4660218" lon="10.5975895"><ele>542.3333333333334</ele><time>2026-04-18T12:48:59.466Z</time></trkpt><trkpt lat="43.4661002" lon="10.5975465"><ele>540.5</ele><time>2026-04-18T12:49:00.491Z</time></trkpt><trkpt lat="43.466161" lon="10.5975066"><ele>538.6666666666667</ele><time>2026-04-18T12:49:01.487Z</time></trkpt><trkpt lat="43.466216" lon="10.5974529"><ele>536.8333333333334</ele><time>2026-04-18T12:49:02.46Z</time></trkpt><trkpt lat="43.4662683" lon="10.597275"><ele>535.0</ele><time>2026-04-18T12:49:04.466Z</time></trkpt><trkpt lat="43.4662846" lon="10.5971474"><ele>534.8</ele><time>2026-04-18T12:49:05.44Z</time></trkpt><trkpt lat="43.4662717" lon="10.5970201"><ele>534.6</ele><time>2026-04-18T12:49:06.419Z</time></trkpt><trkpt lat="43.4662713" lon="10.5968882"><ele>534.4</ele><time>2026-04-18T12:49:07.479Z</time></trkpt><trkpt lat="43.4662654" lon="10.5967546"><ele>534.2</ele><time>2026-04-18T12:49:08.473Z</time></trkpt><trkpt lat="43.4662601" lon="10.5966325"><ele>534.0</ele><time>2026-04-18T12:49:09.417Z</time></trkpt><trkpt lat="43.4662555" lon="10.5965203"><ele>532.1666666666666</ele><time>2026-04-18T12:49:10.452Z</time></trkpt><trkpt lat="43.4662713" lon="10.5964229"><ele>530.3333333333334</ele><time>2026-04-18T12:49:11.459Z</time></trkpt><trkpt lat="43.466276" lon="10.5963091"><ele>528.5</ele><time>2026-04-18T12:49:12.463Z</time></trkpt><trkpt lat="43.4662579" lon="10.5961727"><ele>526.6666666666667</ele><time>2026-04-18T12:49:13.464Z</time></trkpt><trkpt lat="43.4662444" lon="10.5960279"><ele>524.8333333333334</ele><time>2026-04-18T12:49:14.477Z</time></trkpt><trkpt lat="43.4662362" lon="10.5959181"><ele>523.0</ele><time>2026-04-18T12:49:15.454Z</time></trkpt><trkpt lat="43.4662145" lon="10.595804"><ele>522.0</ele><time>2026-04-18T12:49:16.457Z</time></trkpt><trkpt lat="43.4661843" lon="10.5956823"><ele>521.0</ele><time>2026-04-18T12:49:17.463Z</time></trkpt><trkpt lat="43.4661553" lon="10.5955744"><ele>520.0</ele><time>2026-04-18T12:49:18.458Z</time></trkpt><trkpt lat="43.4661216" lon="10.5954739"><ele>519.0</ele><time>2026-04-18T12:49:19.449Z</time></trkpt><trkpt lat="43.4661095" lon="10.595374"><ele>518.0</ele><time>2026-04-18T12:49:20.462Z</time></trkpt><trkpt lat="43.4660903" lon="10.5952478"><ele>517.0</ele><time>2026-04-18T12:49:21.463Z</time></trkpt><trkpt lat="43.4660647" lon="10.5951108"><ele>516.8333333333334</ele><time>2026-04-18T12:49:22.47Z</time></trkpt><trkpt lat="43.4660324" lon="10.5949575"><ele>516.6666666666667</ele><time>2026-04-18T12:49:23.448Z</time></trkpt><trkpt lat="43.4660185" lon="10.5948198"><ele>516.5</ele><time>2026-04-18T12:49:24.5Z</time></trkpt><trkpt lat="43.4660116" lon="10.5947042"><ele>516.3333333333334</ele><time>2026-04-18T12:49:25.479Z</time></trkpt><trkpt lat="43.4660049" lon="10.5946005"><ele>516.1666666666666</ele><time>2026-04-18T12:49:26.465Z</time></trkpt><trkpt lat="43.4660073" lon="10.5945"><ele>516.0</ele><time>2026-04-18T12:49:27.44Z</time></trkpt><trkpt lat="43.465997" lon="10.5944099"><ele>515.3333333333334</ele><time>2026-04-18T12:49:28.457Z</time></trkpt><trkpt lat="43.4659624" lon="10.5943075"><ele>514.6666666666666</ele><time>2026-04-18T12:49:29.47Z</time></trkpt><trkpt lat="43.465922" lon="10.59422"><ele>514.0</ele><time>2026-04-18T12:49:30.461Z</time></trkpt><trkpt lat="43.4658766" lon="10.5941405"><ele>513.3333333333333</ele><time>2026-04-18T12:49:31.452Z</time></trkpt><trkpt lat="43.4658208" lon="10.5940765"><ele>512.6666666666666</ele><time>2026-04-18T12:49:32.462Z</time></trkpt><trkpt lat="43.4657497" lon="10.5940166"><ele>512.0</ele><time>2026-04-18T12:49:33.45Z</time></trkpt><trkpt lat="43.465662" lon="10.5939662"><ele>512.0</ele><time>2026-04-18T12:49:34.458Z</time></trkpt><trkpt lat="43.4655694" lon="10.5939414"><ele>512.0</ele><time>2026-04-18T12:49:35.442Z</time></trkpt><trkpt lat="43.4654761" lon="10.5939356"><ele>512.0</ele><time>2026-04-18T12:49:36.467Z</time></trkpt><trkpt lat="43.4653932" lon="10.5939246"><ele>512.0</ele><time>2026-04-18T12:49:37.478Z</time></trkpt><trkpt lat="43.4652758" lon="10.5939547"><ele>512.0</ele><time>2026-04-18T12:49:39.469Z</time></trkpt><trkpt lat="43.4652372" lon="10.5941041"><ele>510.8333333333333</ele><time>2026-04-18T12:49:41.476Z</time></trkpt><trkpt lat="43.4652397" lon="10.5942089"><ele>509.66666666666663</ele><time>2026-04-18T12:49:42.432Z</time></trkpt><trkpt lat="43.4652192" lon="10.5943571"><ele>508.5</ele><time>2026-04-18T12:49:44.474Z</time></trkpt><trkpt lat="43.4651746" lon="10.5944337"><ele>507.33333333333337</ele><time>2026-04-18T12:49:45.475Z</time></trkpt><trkpt lat="43.4651537" lon="10.5945343"><ele>506.1666666666667</ele><time>2026-04-18T12:49:46.471Z</time></trkpt><trkpt lat="43.4651466" lon="10.5946308"><ele>505.0</ele><time>2026-04-18T12:49:47.469Z</time></trkpt><trkpt lat="43.465144" lon="10.5947453"><ele>505.0</ele><time>2026-04-18T12:49:48.469Z</time></trkpt><trkpt lat="43.4651428" lon="10.5948748"><ele>505.0</ele><time>2026-04-18T12:49:49.479Z</time></trkpt><trkpt lat="43.4651442" lon="10.5950046"><ele>505.0</ele><time>2026-04-18T12:49:50.489Z</time></trkpt><trkpt lat="43.4651428" lon="10.5951292"><ele>505.0</ele><time>2026-04-18T12:49:51.449Z</time></trkpt><trkpt lat="43.4651666" lon="10.595252"><ele>505.0</ele><time>2026-04-18T12:49:52.476Z</time></trkpt><trkpt lat="43.4652078" lon="10.5953691"><ele>504.50000000000006</ele><time>2026-04-18T12:49:53.465Z</time></trkpt><trkpt lat="43.4652514" lon="10.5954717"><ele>504.0</ele><time>2026-04-18T12:49:54.474Z</time></trkpt><trkpt lat="43.4653184" lon="10.5955615"><ele>503.5</ele><time>2026-04-18T12:49:55.459Z</time></trkpt><trkpt lat="43.4653688" lon="10.5956635"><ele>503.0</ele><time>2026-04-18T12:49:56.465Z</time></trkpt><trkpt lat="43.4654154" lon="10.5957651"><ele>502.50000000000006</ele><time>2026-04-18T12:49:57.438Z</time></trkpt><trkpt lat="43.4654498" lon="10.5958478"><ele>502.0</ele><time>2026-04-18T12:49:58.422Z</time></trkpt><trkpt lat="43.4654723" lon="10.5959525"><ele>502.50000000000006</ele><time>2026-04-18T12:49:59.448Z</time></trkpt><trkpt lat="43.4654826" lon="10.596047"><ele>503.0</ele><time>2026-04-18T12:50:00.413Z</time></trkpt><trkpt lat="43.4654754" lon="10.5961378"><ele>503.5</ele><time>2026-04-18T12:50:01.448Z</time></trkpt><trkpt lat="43.4653958" lon="10.5962155"><ele>504.0</ele><time>2026-04-18T12:50:03.412Z</time></trkpt><trkpt lat="43.4652962" lon="10.5961918"><ele>504.50000000000006</ele><time>2026-04-18T12:50:04.413Z</time></trkpt><trkpt lat="43.4652219" lon="10.5961892"><ele>505.0</ele><time>2026-04-18T12:50:05.414Z</time></trkpt><trkpt lat="43.4651517" lon="10.5961798"><ele>505.0</ele><time>2026-04-18T12:50:06.42Z</time></trkpt><trkpt lat="43.4650657" lon="10.5961769"><ele>505.0</ele><time>2026-04-18T12:50:07.412Z</time></trkpt><trkpt lat="43.4649921" lon="10.5961857"><ele>505.0</ele><time>2026-04-18T12:50:08.416Z</time></trkpt><trkpt lat="43.4648939" lon="10.5962582"><ele>505.0</ele><time>2026-04-18T12:50:10.434Z</time></trkpt><trkpt lat="43.4648567" lon="10.5963472"><ele>505.0</ele><time>2026-04-18T12:50:11.429Z</time></trkpt><trkpt lat="43.4648169" lon="10.5965012"><ele>505.0</ele><time>2026-04-18T12:50:12.438Z</time></trkpt><trkpt lat="43.4647656" lon="10.5966545"><ele>505.0</ele><time>2026-04-18T12:50:13.443Z</time></trkpt><trkpt lat="43.4647291" lon="10.5968082"><ele>505.0</ele><time>2026-04-18T12:50:14.434Z</time></trkpt><trkpt lat="43.4646824" lon="10.5969576"><ele>505.0</ele><time>2026-04-18T12:50:15.435Z</time></trkpt><trkpt lat="43.4646314" lon="10.5970775"><ele>502.4</ele><time>2026-04-18T12:50:16.437Z</time></trkpt><trkpt lat="43.4645979" lon="10.5972186"><ele>499.8</ele><time>2026-04-18T12:50:17.43Z</time></trkpt><trkpt lat="43.4645811" lon="10.5973354"><ele>497.20000000000005</ele><time>2026-04-18T12:50:18.45Z</time></trkpt><trkpt lat="43.4645618" lon="10.5974484"><ele>494.6</ele><time>2026-04-18T12:50:19.436Z</time></trkpt><trkpt lat="43.4645407" lon="10.5975597"><ele>492.0</ele><time>2026-04-18T12:50:20.439Z</time></trkpt><trkpt lat="43.4644892" lon="10.5976642"><ele>492.0</ele><time>2026-04-18T12:50:21.436Z</time></trkpt><trkpt lat="43.464443" lon="10.5977732"><ele>492.0</ele><time>2026-04-18T12:50:22.439Z</time></trkpt><trkpt lat="43.4644066" lon="10.5978654"><ele>492.0</ele><time>2026-04-18T12:50:23.439Z</time></trkpt><trkpt lat="43.4643336" lon="10.5979145"><ele>492.0</ele><time>2026-04-18T12:50:24.441Z</time></trkpt><trkpt lat="43.4642631" lon="10.5979909"><ele>492.0</ele><time>2026-04-18T12:50:25.436Z</time></trkpt><trkpt lat="43.4641872" lon="10.5980109"><ele>492.0</ele><time>2026-04-18T12:50:26.431Z</time></trkpt><trkpt lat="43.4640898" lon="10.5980171"><ele>494.20000000000005</ele><time>2026-04-18T12:50:27.431Z</time></trkpt><trkpt lat="43.4639909" lon="10.5980236"><ele>496.40000000000003</ele><time>2026-04-18T12:50:28.432Z</time></trkpt><trkpt lat="43.4639034" lon="10.5980518"><ele>498.59999999999997</ele><time>2026-04-18T12:50:29.442Z</time></trkpt><trkpt lat="43.4638317" lon="10.598071"><ele>500.79999999999995</ele><time>2026-04-18T12:50:30.433Z</time></trkpt><trkpt lat="43.4637665" lon="10.5981081"><ele>503.0</ele><time>2026-04-18T12:50:31.424Z</time></trkpt><trkpt lat="43.4636878" lon="10.5982577"><ele>498.0</ele><time>2026-04-18T12:50:33.432Z</time></trkpt><trkpt lat="43.4636468" lon="10.5983608"><ele>492.99999999999994</ele><time>2026-04-18T12:50:34.444Z</time></trkpt><trkpt lat="43.4636297" lon="10.5984851"><ele>487.99999999999994</ele><time>2026-04-18T12:50:35.417Z</time></trkpt><trkpt lat="43.463592" lon="10.5986097"><ele>483.0</ele><time>2026-04-18T12:50:36.431Z</time></trkpt><trkpt lat="43.4635881" lon="10.5987403"><ele>478.0</ele><time>2026-04-18T12:50:37.423Z</time></trkpt><trkpt lat="43.4635956" lon="10.5988902"><ele>478.0</ele><time>2026-04-18T12:50:38.438Z</time></trkpt><trkpt lat="43.4635924" lon="10.599032"><ele>477.99999999999994</ele><time>2026-04-18T12:50:39.444Z</time></trkpt><trkpt lat="43.4636024" lon="10.5991759"><ele>477.99999999999994</ele><time>2026-04-18T12:50:40.44Z</time></trkpt><trkpt lat="43.4636016" lon="10.5993137"><ele>478.0</ele><time>2026-04-18T12:50:41.437Z</time></trkpt><trkpt lat="43.4636083" lon="10.599431"><ele>478.0</ele><time>2026-04-18T12:50:42.416Z</time></trkpt><trkpt lat="43.4636162" lon="10.5995582"><ele>477.50000000000006</ele><time>2026-04-18T12:50:43.427Z</time></trkpt><trkpt lat="43.4636282" lon="10.5996856"><ele>477.0</ele><time>2026-04-18T12:50:44.431Z</time></trkpt><trkpt lat="43.4636362" lon="10.5998123"><ele>476.5</ele><time>2026-04-18T12:50:45.419Z</time></trkpt><trkpt lat="43.4636528" lon="10.5999484"><ele>476.0</ele><time>2026-04-18T12:50:46.416Z</time></trkpt><trkpt lat="43.4636621" lon="10.6000545"><ele>475.50000000000006</ele><time>2026-04-18T12:50:47.416Z</time></trkpt><trkpt lat="43.4636527" lon="10.6001691"><ele>475.0</ele><time>2026-04-18T12:50:48.435Z</time></trkpt><trkpt lat="43.4636671" lon="10.6002805"><ele>474.6</ele><time>2026-04-18T12:50:49.407Z</time></trkpt><trkpt lat="43.463678" lon="10.6004043"><ele>474.2</ele><time>2026-04-18T12:50:50.416Z</time></trkpt><trkpt lat="43.4636856" lon="10.6005266"><ele>473.79999999999995</ele><time>2026-04-18T12:50:51.412Z</time></trkpt><trkpt lat="43.4636904" lon="10.6006602"><ele>473.4</ele><time>2026-04-18T12:50:52.407Z</time></trkpt><trkpt lat="43.4636955" lon="10.6007899"><ele>473.0</ele><time>2026-04-18T12:50:53.415Z</time></trkpt><trkpt lat="43.4637102" lon="10.6009127"><ele>473.0</ele><time>2026-04-18T12:50:54.414Z</time></trkpt><trkpt lat="43.4637411" lon="10.6010043"><ele>473.0</ele><time>2026-04-18T12:50:55.427Z</time></trkpt><trkpt lat="43.4637681" lon="10.6010944"><ele>473.0</ele><time>2026-04-18T12:50:56.422Z</time></trkpt><trkpt lat="43.4638234" lon="10.6011748"><ele>473.0</ele><time>2026-04-18T12:50:57.422Z</time></trkpt><trkpt lat="43.463899" lon="10.6012209"><ele>473.0</ele><time>2026-04-18T12:50:58.416Z</time></trkpt><trkpt lat="43.4639665" lon="10.6012443"><ele>473.0</ele><time>2026-04-18T12:50:59.418Z</time></trkpt><trkpt lat="43.4640296" lon="10.6012331"><ele>473.0</ele><time>2026-04-18T12:51:00.422Z</time></trkpt><trkpt lat="43.4640926" lon="10.6012026"><ele>474.0</ele><time>2026-04-18T12:51:01.423Z</time></trkpt><trkpt lat="43.4641844" lon="10.6012203"><ele>474.99999999999994</ele><time>2026-04-18T12:51:03.417Z</time></trkpt><trkpt lat="43.464249" lon="10.6013434"><ele>475.99999999999994</ele><time>2026-04-18T12:51:05.426Z</time></trkpt><trkpt lat="43.4642462" lon="10.6015311"><ele>477.0</ele><time>2026-04-18T12:51:07.423Z</time></trkpt><trkpt lat="43.4642511" lon="10.6016511"><ele>478.0</ele><time>2026-04-18T12:51:08.425Z</time></trkpt><trkpt lat="43.4642336" lon="10.601764"><ele>478.0</ele><time>2026-04-18T12:51:09.421Z</time></trkpt><trkpt lat="43.4641804" lon="10.6019323"><ele>477.99999999999994</ele><time>2026-04-18T12:51:11.425Z</time></trkpt><trkpt lat="43.464114" lon="10.6019951"><ele>477.99999999999994</ele><time>2026-04-18T12:51:12.428Z</time></trkpt><trkpt lat="43.4640623" lon="10.6020745"><ele>478.0</ele><time>2026-04-18T12:51:13.417Z</time></trkpt><trkpt lat="43.4639973" lon="10.6021568"><ele>478.0</ele><time>2026-04-18T12:51:14.428Z</time></trkpt><trkpt lat="43.4639241" lon="10.6022126"><ele>479.1666666666667</ele><time>2026-04-18T12:51:15.429Z</time></trkpt><trkpt lat="43.4638645" lon="10.6022713"><ele>480.33333333333337</ele><time>2026-04-18T12:51:16.425Z</time></trkpt><trkpt lat="43.4638163" lon="10.6023353"><ele>481.5</ele><time>2026-04-18T12:51:17.424Z</time></trkpt><trkpt lat="43.4637625" lon="10.6024056"><ele>482.66666666666663</ele><time>2026-04-18T12:51:18.422Z</time></trkpt><trkpt lat="43.4637163" lon="10.6024911"><ele>483.8333333333333</ele><time>2026-04-18T12:51:19.418Z</time></trkpt><trkpt lat="43.463685" lon="10.6026416"><ele>485.0</ele><time>2026-04-18T12:51:20.427Z</time></trkpt><trkpt lat="43.4636636" lon="10.6027837"><ele>478.99999999999994</ele><time>2026-04-18T12:51:21.418Z</time></trkpt><trkpt lat="43.4636326" lon="10.602893"><ele>473.0</ele><time>2026-04-18T12:51:22.414Z</time></trkpt><trkpt lat="43.4636266" lon="10.6029931"><ele>467.0</ele><time>2026-04-18T12:51:23.426Z</time></trkpt><trkpt lat="43.4636367" lon="10.6030955"><ele>461.0</ele><time>2026-04-18T12:51:24.419Z</time></trkpt><trkpt lat="43.4636721" lon="10.6031962"><ele>454.99999999999994</ele><time>2026-04-18T12:51:25.414Z</time></trkpt><trkpt lat="43.4637385" lon="10.6032793"><ele>449.0</ele><time>2026-04-18T12:51:26.429Z</time></trkpt><trkpt lat="43.4637741" lon="10.6033907"><ele>452.99999999999994</ele><time>2026-04-18T12:51:27.426Z</time></trkpt><trkpt lat="43.4638186" lon="10.6034918"><ele>457.0</ele><time>2026-04-18T12:51:28.422Z</time></trkpt><trkpt lat="43.4638629" lon="10.6035618"><ele>461.0</ele><time>2026-04-18T12:51:29.425Z</time></trkpt><trkpt lat="43.4639135" lon="10.6036419"><ele>465.0</ele><time>2026-04-18T12:51:30.425Z</time></trkpt><trkpt lat="43.46396" lon="10.6037179"><ele>468.99999999999994</ele><time>2026-04-18T12:51:31.424Z</time></trkpt><trkpt lat="43.4639986" lon="10.6038044"><ele>473.0</ele><time>2026-04-18T12:51:32.42Z</time></trkpt><trkpt lat="43.4640361" lon="10.6038944"><ele>472.99999999999994</ele><time>2026-04-18T12:51:33.43Z</time></trkpt><trkpt lat="43.4640832" lon="10.6039688"><ele>473.0</ele><time>2026-04-18T12:51:34.428Z</time></trkpt><trkpt lat="43.4641269" lon="10.6040474"><ele>473.0</ele><time>2026-04-18T12:51:35.441Z</time></trkpt><trkpt lat="43.4641675" lon="10.6041254"><ele>473.0</ele><time>2026-04-18T12:51:36.42Z</time></trkpt><trkpt lat="43.464184" lon="10.6042627"><ele>472.99999999999994</ele><time>2026-04-18T12:51:38.43Z</time></trkpt><trkpt lat="43.464137" lon="10.6043293"><ele>473.0</ele><time>2026-04-18T12:51:39.415Z</time></trkpt><trkpt lat="43.464057" lon="10.6043802"><ele>473.0</ele><time>2026-04-18T12:51:40.431Z</time></trkpt><trkpt lat="43.4639654" lon="10.6043872"><ele>472.99999999999994</ele><time>2026-04-18T12:51:41.426Z</time></trkpt><trkpt lat="43.4638897" lon="10.6043562"><ele>472.99999999999994</ele><time>2026-04-18T12:51:42.425Z</time></trkpt><trkpt lat="43.4638296" lon="10.6043287"><ele>473.0</ele><time>2026-04-18T12:51:43.424Z</time></trkpt><trkpt lat="43.4637352" lon="10.6042666"><ele>473.0</ele><time>2026-04-18T12:51:45.422Z</time></trkpt><trkpt lat="43.463616" lon="10.6041926"><ele>470.8333333333333</ele><time>2026-04-18T12:51:47.427Z</time></trkpt><trkpt lat="43.4635427" lon="10.6041502"><ele>468.66666666666663</ele><time>2026-04-18T12:51:48.418Z</time></trkpt><trkpt lat="43.463443" lon="10.6041019"><ele>466.5</ele><time>2026-04-18T12:51:50.42Z</time></trkpt><trkpt lat="43.4633784" lon="10.6040679"><ele>464.33333333333337</ele><time>2026-04-18T12:51:51.423Z</time></trkpt><trkpt lat="43.4632992" lon="10.6040283"><ele>462.1666666666667</ele><time>2026-04-18T12:51:52.439Z</time></trkpt><trkpt lat="43.4632227" lon="10.604"><ele>460.0</ele><time>2026-04-18T12:51:53.426Z</time></trkpt><trkpt lat="43.4631467" lon="10.6039605"><ele>460.00000000000006</ele><time>2026-04-18T12:51:54.421Z</time></trkpt><trkpt lat="43.4630649" lon="10.6039201"><ele>460.0</ele><time>2026-04-18T12:51:55.416Z</time></trkpt><trkpt lat="43.4629716" lon="10.6038915"><ele>460.0</ele><time>2026-04-18T12:51:56.415Z</time></trkpt><trkpt lat="43.4628963" lon="10.6038504"><ele>460.0</ele><time>2026-04-18T12:51:57.442Z</time></trkpt><trkpt lat="43.4628189" lon="10.603814"><ele>460.00000000000006</ele><time>2026-04-18T12:51:58.457Z</time></trkpt><trkpt lat="43.462742" lon="10.6037923"><ele>460.0</ele><time>2026-04-18T12:51:59.447Z</time></trkpt><trkpt lat="43.462659" lon="10.6038022"><ele>457.6666666666667</ele><time>2026-04-18T12:52:00.428Z</time></trkpt><trkpt lat="43.4625689" lon="10.6037926"><ele>455.33333333333337</ele><time>2026-04-18T12:52:01.463Z</time></trkpt><trkpt lat="43.4624877" lon="10.6038173"><ele>453.0</ele><time>2026-04-18T12:52:02.454Z</time></trkpt><trkpt lat="43.4624122" lon="10.6038494"><ele>450.66666666666663</ele><time>2026-04-18T12:52:03.45Z</time></trkpt><trkpt lat="43.4623529" lon="10.6039388"><ele>448.3333333333333</ele><time>2026-04-18T12:52:04.436Z</time></trkpt><trkpt lat="43.4623146" lon="10.6040361"><ele>446.0</ele><time>2026-04-18T12:52:05.413Z</time></trkpt><trkpt lat="43.4622806" lon="10.6041796"><ele>446.0</ele><time>2026-04-18T12:52:06.431Z</time></trkpt><trkpt lat="43.4622256" lon="10.6042925"><ele>446.0</ele><time>2026-04-18T12:52:07.421Z</time></trkpt><trkpt lat="43.4621681" lon="10.6043941"><ele>446.0</ele><time>2026-04-18T12:52:08.464Z</time></trkpt><trkpt lat="43.4621094" lon="10.6044987"><ele>446.0</ele><time>2026-04-18T12:52:09.452Z</time></trkpt><trkpt lat="43.4620582" lon="10.6046032"><ele>446.0</ele><time>2026-04-18T12:52:10.415Z</time></trkpt><trkpt lat="43.4620089" lon="10.6047031"><ele>441.8</ele><time>2026-04-18T12:52:11.426Z</time></trkpt><trkpt lat="43.4619626" lon="10.6048079"><ele>437.6</ele><time>2026-04-18T12:52:12.407Z</time></trkpt><trkpt lat="43.461903" lon="10.6049167"><ele>433.4</ele><time>2026-04-18T12:52:13.426Z</time></trkpt><trkpt lat="43.4618429" lon="10.6050335"><ele>429.2</ele><time>2026-04-18T12:52:14.463Z</time></trkpt><trkpt lat="43.4617734" lon="10.6051548"><ele>425.0</ele><time>2026-04-18T12:52:15.46Z</time></trkpt><trkpt lat="43.4617085" lon="10.6052695"><ele>427.49999999999994</ele><time>2026-04-18T12:52:16.428Z</time></trkpt><trkpt lat="43.4616672" lon="10.6053974"><ele>430.0</ele><time>2026-04-18T12:52:17.485Z</time></trkpt><trkpt lat="43.4616255" lon="10.6055198"><ele>432.5</ele><time>2026-04-18T12:52:18.457Z</time></trkpt><trkpt lat="43.461598" lon="10.6056158"><ele>435.0</ele><time>2026-04-18T12:52:19.475Z</time></trkpt><trkpt lat="43.461547" lon="10.6057044"><ele>437.49999999999994</ele><time>2026-04-18T12:52:20.46Z</time></trkpt><trkpt lat="43.4615013" lon="10.6057814"><ele>440.0</ele><time>2026-04-18T12:52:21.447Z</time></trkpt><trkpt lat="43.4614554" lon="10.6058592"><ele>439.99999999999994</ele><time>2026-04-18T12:52:22.447Z</time></trkpt><trkpt lat="43.4614082" lon="10.6059345"><ele>440.0</ele><time>2026-04-18T12:52:23.475Z</time></trkpt><trkpt lat="43.461366" lon="10.6060135"><ele>440.0</ele><time>2026-04-18T12:52:24.44Z</time></trkpt><trkpt lat="43.4613176" lon="10.6060837"><ele>440.0</ele><time>2026-04-18T12:52:25.462Z</time></trkpt><trkpt lat="43.4612401" lon="10.6062044"><ele>439.99999999999994</ele><time>2026-04-18T12:52:27.459Z</time></trkpt><trkpt lat="43.4612013" lon="10.606273"><ele>440.0</ele><time>2026-04-18T12:52:28.473Z</time></trkpt><trkpt lat="43.4611485" lon="10.6064194"><ele>439.2</ele><time>2026-04-18T12:52:30.423Z</time></trkpt><trkpt lat="43.461129" lon="10.6065711"><ele>438.4</ele><time>2026-04-18T12:52:32.468Z</time></trkpt><trkpt lat="43.4611439" lon="10.6067131"><ele>437.6</ele><time>2026-04-18T12:52:34.465Z</time></trkpt><trkpt lat="43.4611745" lon="10.606839"><ele>436.8</ele><time>2026-04-18T12:52:36.44Z</time></trkpt><trkpt lat="43.461179" lon="10.6069976"><ele>436.0</ele><time>2026-04-18T12:52:38.453Z</time></trkpt><trkpt lat="43.4611766" lon="10.6071564"><ele>436.0</ele><time>2026-04-18T12:52:40.463Z</time></trkpt><trkpt lat="43.4611687" lon="10.6072832"><ele>436.0</ele><time>2026-04-18T12:52:42.45Z</time></trkpt><trkpt lat="43.461138" lon="10.6073862"><ele>436.0</ele><time>2026-04-18T12:57:27.476Z</time></trkpt><trkpt lat="43.461144" lon="10.6074824"><ele>436.0</ele><time>2026-04-18T12:57:29.412Z</time></trkpt><trkpt lat="43.4611268" lon="10.6076335"><ele>436.0</ele><time>2026-04-18T12:57:31.414Z</time></trkpt><trkpt lat="43.4611042" lon="10.6078196"><ele>437.50000000000006</ele><time>2026-04-18T12:57:33.472Z</time></trkpt><trkpt lat="43.4610883" lon="10.6079121"><ele>439.0</ele><time>2026-04-18T12:57:34.464Z</time></trkpt><trkpt lat="43.4610673" lon="10.608005"><ele>440.5</ele><time>2026-04-18T12:57:35.434Z</time></trkpt><trkpt lat="43.4610493" lon="10.6080945"><ele>442.0</ele><time>2026-04-18T12:57:36.464Z</time></trkpt><trkpt lat="43.4609851" lon="10.6082461"><ele>443.50000000000006</ele><time>2026-04-18T12:57:38.452Z</time></trkpt><trkpt lat="43.4609365" lon="10.6083164"><ele>445.0</ele><time>2026-04-18T12:57:39.435Z</time></trkpt><trkpt lat="43.4608627" lon="10.6083812"><ele>445.00000000000006</ele><time>2026-04-18T12:57:40.472Z</time></trkpt><trkpt lat="43.4607955" lon="10.6084257"><ele>445.0</ele><time>2026-04-18T12:57:41.437Z</time></trkpt><trkpt lat="43.4607324" lon="10.6084423"><ele>445.0</ele><time>2026-04-18T12:57:42.477Z</time></trkpt><trkpt lat="43.4606305" lon="10.6084129"><ele>445.0</ele><time>2026-04-18T12:57:44.454Z</time></trkpt><trkpt lat="43.4605444" lon="10.6083323"><ele>445.00000000000006</ele><time>2026-04-18T12:57:46.447Z</time></trkpt><trkpt lat="43.4604626" lon="10.6082799"><ele>445.0</ele><time>2026-04-18T12:57:48.437Z</time></trkpt><trkpt lat="43.460378" lon="10.6082093"><ele>442.4</ele><time>2026-04-18T12:57:51.434Z</time></trkpt><trkpt lat="43.4602983" lon="10.6081833"><ele>439.8</ele><time>2026-04-18T12:57:53.433Z</time></trkpt><trkpt lat="43.4602081" lon="10.6081936"><ele>437.20000000000005</ele><time>2026-04-18T12:57:55.418Z</time></trkpt><trkpt lat="43.4601223" lon="10.6082826"><ele>434.6</ele><time>2026-04-18T12:57:57.423Z</time></trkpt><trkpt lat="43.4600811" lon="10.6083502"><ele>432.0</ele><time>2026-04-18T12:57:58.426Z</time></trkpt><trkpt lat="43.4600422" lon="10.6084887"><ele>432.0</ele><time>2026-04-18T12:58:00.434Z</time></trkpt><trkpt lat="43.4600231" lon="10.6086511"><ele>432.0</ele><time>2026-04-18T12:58:02.445Z</time></trkpt><trkpt lat="43.4599721" lon="10.608864"><ele>432.0</ele><time>2026-04-18T12:58:05.419Z</time></trkpt><trkpt lat="43.4599105" lon="10.6090059"><ele>432.0</ele><time>2026-04-18T12:58:07.425Z</time></trkpt><trkpt lat="43.4598778" lon="10.6091018"><ele>434.0</ele><time>2026-04-18T12:58:08.421Z</time></trkpt><trkpt lat="43.4598485" lon="10.6091788"><ele>436.0</ele><time>2026-04-18T12:58:09.428Z</time></trkpt><trkpt lat="43.4597851" lon="10.6093236"><ele>438.0</ele><time>2026-04-18T12:58:11.427Z</time></trkpt><trkpt lat="43.4597514" lon="10.6094171"><ele>440.0</ele><time>2026-04-18T12:58:12.429Z</time></trkpt><trkpt lat="43.4597152" lon="10.6095182"><ele>442.0</ele><time>2026-04-18T12:58:13.433Z</time></trkpt><trkpt lat="43.45966" lon="10.6096137"><ele>444.0</ele><time>2026-04-18T12:58:14.434Z</time></trkpt><trkpt lat="43.4596289" lon="10.6097252"><ele>442.5</ele><time>2026-04-18T12:58:15.422Z</time></trkpt><trkpt lat="43.459581" lon="10.6098105"><ele>441.0</ele><time>2026-04-18T12:58:16.426Z</time></trkpt><trkpt lat="43.4595272" lon="10.6099658"><ele>439.5</ele><time>2026-04-18T12:58:18.419Z</time></trkpt><trkpt lat="43.4594751" lon="10.6100398"><ele>438.0</ele><time>2026-04-18T12:58:19.434Z</time></trkpt><trkpt lat="43.4594475" lon="10.61013"><ele>436.5</ele><time>2026-04-18T12:58:20.419Z</time></trkpt><trkpt lat="43.4594003" lon="10.6102191"><ele>435.0</ele><time>2026-04-18T12:58:21.437Z</time></trkpt><trkpt lat="43.4593634" lon="10.6103038"><ele>437.0</ele><time>2026-04-18T12:58:22.423Z</time></trkpt><trkpt lat="43.459313" lon="10.6103763"><ele>439.0</ele><time>2026-04-18T12:58:23.42Z</time></trkpt><trkpt lat="43.4592329" lon="10.6105103"><ele>441.0</ele><time>2026-04-18T12:58:25.429Z</time></trkpt><trkpt lat="43.4591829" lon="10.6106198"><ele>443.0</ele><time>2026-04-18T12:58:27.425Z</time></trkpt><trkpt lat="43.4590786" lon="10.6107119"><ele>445.0</ele><time>2026-04-18T12:58:29.43Z</time></trkpt><trkpt lat="43.4590106" lon="10.6107547"><ele>445.0</ele><time>2026-04-18T12:58:30.427Z</time></trkpt><trkpt lat="43.4589055" lon="10.6108239"><ele>445.0</ele><time>2026-04-18T12:58:32.43Z</time></trkpt><trkpt lat="43.4588418" lon="10.6109566"><ele>445.0</ele><time>2026-04-18T12:58:34.441Z</time></trkpt><trkpt lat="43.4587497" lon="10.6110551"><ele>445.0</ele><time>2026-04-18T12:58:36.422Z</time></trkpt><trkpt lat="43.4586624" lon="10.6111647"><ele>443.4</ele><time>2026-04-18T12:58:38.433Z</time></trkpt><trkpt lat="43.4586306" lon="10.6112463"><ele>441.8</ele><time>2026-04-18T12:58:39.431Z</time></trkpt><trkpt lat="43.4585862" lon="10.6113925"><ele>440.20000000000005</ele><time>2026-04-18T12:58:41.427Z</time></trkpt><trkpt lat="43.4584955" lon="10.6114819"><ele>438.6</ele><time>2026-04-18T12:58:43.424Z</time></trkpt><trkpt lat="43.4583941" lon="10.6115174"><ele>437.0</ele><time>2026-04-18T12:58:45.435Z</time></trkpt><trkpt lat="43.4583091" lon="10.6115752"><ele>437.0</ele><time>2026-04-18T12:58:47.443Z</time></trkpt><trkpt lat="43.4582458" lon="10.6117218"><ele>437.00000000000006</ele><time>2026-04-18T12:58:49.426Z</time></trkpt><trkpt lat="43.4582306" lon="10.6118146"><ele>437.00000000000006</ele><time>2026-04-18T12:58:50.448Z</time></trkpt><trkpt lat="43.4582042" lon="10.6119746"><ele>437.0</ele><time>2026-04-18T12:58:52.425Z</time></trkpt><trkpt lat="43.4581766" lon="10.6121288"><ele>437.0</ele><time>2026-04-18T12:58:54.425Z</time></trkpt><trkpt lat="43.4581642" lon="10.6122235"><ele>439.20000000000005</ele><time>2026-04-18T12:58:55.425Z</time></trkpt><trkpt lat="43.4581276" lon="10.612383"><ele>441.40000000000003</ele><time>2026-04-18T12:58:57.428Z</time></trkpt><trkpt lat="43.4581215" lon="10.6124778"><ele>443.59999999999997</ele><time>2026-04-18T12:58:58.429Z</time></trkpt><trkpt lat="43.4581002" lon="10.6126"><ele>445.79999999999995</ele><time>2026-04-18T12:59:00.423Z</time></trkpt><trkpt lat="43.4580522" lon="10.6127262"><ele>448.0</ele><time>2026-04-18T12:59:02.436Z</time></trkpt><trkpt lat="43.4579819" lon="10.612835"><ele>444.2</ele><time>2026-04-18T12:59:04.429Z</time></trkpt><trkpt lat="43.4579277" lon="10.6128863"><ele>440.4</ele><time>2026-04-18T12:59:05.424Z</time></trkpt><trkpt lat="43.4578204" lon="10.6129832"><ele>436.59999999999997</ele><time>2026-04-18T12:59:07.441Z</time></trkpt><trkpt lat="43.4577343" lon="10.6130691"><ele>432.79999999999995</ele><time>2026-04-18T12:59:09.419Z</time></trkpt><trkpt lat="43.4576657" lon="10.6131509"><ele>429.0</ele><time>2026-04-18T12:59:11.444Z</time></trkpt><trkpt lat="43.457617" lon="10.6132482"><ele>429.0</ele><time>2026-04-18T12:59:13.423Z</time></trkpt><trkpt lat="43.4575963" lon="10.6133653"><ele>429.0</ele><time>2026-04-18T12:59:15.432Z</time></trkpt><trkpt lat="43.4575624" lon="10.6134772"><ele>429.0</ele><time>2026-04-18T12:59:17.431Z</time></trkpt><trkpt lat="43.4575219" lon="10.6135943"><ele>429.0</ele><time>2026-04-18T12:59:19.431Z</time></trkpt><trkpt lat="43.4574976" lon="10.6136758"><ele>429.0</ele><time>2026-04-18T12:59:20.438Z</time></trkpt><trkpt lat="43.4574751" lon="10.6138388"><ele>430.6</ele><time>2026-04-18T12:59:22.449Z</time></trkpt><trkpt lat="43.4574612" lon="10.6139237"><ele>432.2</ele><time>2026-04-18T12:59:23.418Z</time></trkpt><trkpt lat="43.4574602" lon="10.6140196"><ele>433.80000000000007</ele><time>2026-04-18T12:59:24.433Z</time></trkpt><trkpt lat="43.4574725" lon="10.6141797"><ele>435.40000000000003</ele><time>2026-04-18T12:59:26.434Z</time></trkpt><trkpt lat="43.4574668" lon="10.6143233"><ele>437.0</ele><time>2026-04-18T12:59:28.429Z</time></trkpt><trkpt lat="43.4574819" lon="10.614454"><ele>436.8</ele><time>2026-04-18T12:59:30.428Z</time></trkpt><trkpt lat="43.4575285" lon="10.614592"><ele>436.6</ele><time>2026-04-18T12:59:32.437Z</time></trkpt><trkpt lat="43.4575416" lon="10.6147312"><ele>436.40000000000003</ele><time>2026-04-18T12:59:34.434Z</time></trkpt><trkpt lat="43.4575819" lon="10.6148556"><ele>436.20000000000005</ele><time>2026-04-18T12:59:36.435Z</time></trkpt><trkpt lat="43.4575986" lon="10.6149656"><ele>436.0</ele><time>2026-04-18T12:59:38.427Z</time></trkpt><trkpt lat="43.457582" lon="10.6150694"><ele>436.0</ele><time>2026-04-18T12:59:40.428Z</time></trkpt><trkpt lat="43.4575862" lon="10.6152022"><ele>436.0</ele><time>2026-04-18T12:59:42.425Z</time></trkpt><trkpt lat="43.4576036" lon="10.6153396"><ele>436.0</ele><time>2026-04-18T12:59:44.424Z</time></trkpt><trkpt lat="43.4576379" lon="10.6154158"><ele>436.0</ele><time>2026-04-18T12:59:45.436Z</time></trkpt><trkpt lat="43.4576952" lon="10.6155363"><ele>436.0</ele><time>2026-04-18T12:59:47.446Z</time></trkpt><trkpt lat="43.4577446" lon="10.6156574"><ele>435.0</ele><time>2026-04-18T12:59:49.436Z</time></trkpt><trkpt lat="43.4577924" lon="10.6157794"><ele>434.0</ele><time>2026-04-18T12:59:51.443Z</time></trkpt><trkpt lat="43.4578201" lon="10.6158967"><ele>433.0</ele><time>2026-04-18T12:59:53.415Z</time></trkpt><trkpt lat="43.4578581" lon="10.6159993"><ele>432.0</ele><time>2026-04-18T12:59:55.413Z</time></trkpt><trkpt lat="43.4578884" lon="10.6161728"><ele>431.0</ele><time>2026-04-18T12:59:57.441Z</time></trkpt><trkpt lat="43.4579135" lon="10.6163219"><ele>430.16666666666663</ele><time>2026-04-18T12:59:59.423Z</time></trkpt><trkpt lat="43.4579197" lon="10.6164207"><ele>429.3333333333333</ele><time>2026-04-18T13:00:01.445Z</time></trkpt><trkpt lat="43.4579378" lon="10.6165329"><ele>428.5</ele><time>2026-04-18T13:00:04.421Z</time></trkpt><trkpt lat="43.457951" lon="10.6166921"><ele>427.66666666666663</ele><time>2026-04-18T13:00:06.469Z</time></trkpt><trkpt lat="43.4579501" lon="10.6167994"><ele>426.8333333333333</ele><time>2026-04-18T13:00:07.456Z</time></trkpt><trkpt lat="43.4579555" lon="10.6168961"><ele>426.0</ele><time>2026-04-18T13:00:08.473Z</time></trkpt><trkpt lat="43.4579508" lon="10.6169848"><ele>430.57142857142856</ele><time>2026-04-18T13:00:09.47Z</time></trkpt><trkpt lat="43.4579582" lon="10.6170759"><ele>435.1428571428571</ele><time>2026-04-18T13:00:10.421Z</time></trkpt><trkpt lat="43.4579641" lon="10.6172075"><ele>439.71428571428567</ele><time>2026-04-18T13:00:12.427Z</time></trkpt><trkpt lat="43.4579706" lon="10.6173252"><ele>444.2857142857143</ele><time>2026-04-18T13:00:13.42Z</time></trkpt><trkpt lat="43.4579805" lon="10.6174145"><ele>448.8571428571429</ele><time>2026-04-18T13:00:14.436Z</time></trkpt><trkpt lat="43.4579764" lon="10.6175033"><ele>453.4285714285714</ele><time>2026-04-18T13:00:15.427Z</time></trkpt><trkpt lat="43.4579887" lon="10.6175959"><ele>458.0</ele><time>2026-04-18T13:00:16.433Z</time></trkpt><trkpt lat="43.4579825" lon="10.6177291"><ele>457.0</ele><time>2026-04-18T13:00:18.419Z</time></trkpt><trkpt lat="43.4579906" lon="10.617875"><ele>455.99999999999994</ele><time>2026-04-18T13:00:20.414Z</time></trkpt><trkpt lat="43.4580191" lon="10.6179995"><ele>454.99999999999994</ele><time>2026-04-18T13:00:22.424Z</time></trkpt><trkpt lat="43.4580425" lon="10.6181322"><ele>454.0</ele><time>2026-04-18T13:00:24.436Z</time></trkpt><trkpt lat="43.458077" lon="10.6182936"><ele>453.0</ele><time>2026-04-18T13:00:26.436Z</time></trkpt><trkpt lat="43.458106" lon="10.6183737"><ele>453.0</ele><time>2026-04-18T13:00:27.46Z</time></trkpt><trkpt lat="43.4581418" lon="10.6184461"><ele>452.99999999999994</ele><time>2026-04-18T13:00:28.437Z</time></trkpt><trkpt lat="43.4581995" lon="10.6185709"><ele>452.99999999999994</ele><time>2026-04-18T13:00:30.451Z</time></trkpt><trkpt lat="43.4582383" lon="10.6187173"><ele>453.0</ele><time>2026-04-18T13:00:32.417Z</time></trkpt><trkpt lat="43.4582805" lon="10.6188264"><ele>453.0</ele><time>2026-04-18T13:00:34.418Z</time></trkpt><trkpt lat="43.4583051" lon="10.6189686"><ele>452.0</ele><time>2026-04-18T13:00:36.422Z</time></trkpt><trkpt lat="43.4583195" lon="10.6190639"><ele>450.99999999999994</ele><time>2026-04-18T13:00:37.42Z</time></trkpt><trkpt lat="43.4583221" lon="10.6192228"><ele>449.99999999999994</ele><time>2026-04-18T13:00:39.424Z</time></trkpt><trkpt lat="43.45829" lon="10.6193611"><ele>449.0</ele><time>2026-04-18T13:00:41.435Z</time></trkpt><trkpt lat="43.4582909" lon="10.6194959"><ele>448.0</ele><time>2026-04-18T13:00:43.423Z</time></trkpt><trkpt lat="43.4582974" lon="10.6196409"><ele>448.0</ele><time>2026-04-18T13:00:45.442Z</time></trkpt><trkpt lat="43.4582627" lon="10.6197931"><ele>448.0</ele><time>2026-04-18T13:00:47.443Z</time></trkpt><trkpt lat="43.4582479" lon="10.6198798"><ele>448.0</ele><time>2026-04-18T13:00:48.432Z</time></trkpt><trkpt lat="43.4581988" lon="10.6200334"><ele>448.0</ele><time>2026-04-18T13:00:50.409Z</time></trkpt><trkpt lat="43.4581497" lon="10.6202301"><ele>447.59999999999997</ele><time>2026-04-18T13:00:52.421Z</time></trkpt><trkpt lat="43.4581481" lon="10.6203223"><ele>447.19999999999993</ele><time>2026-04-18T13:00:53.413Z</time></trkpt><trkpt lat="43.4581759" lon="10.6204933"><ele>446.8</ele><time>2026-04-18T13:00:55.47Z</time></trkpt><trkpt lat="43.458215" lon="10.6206473"><ele>446.4</ele><time>2026-04-18T13:00:57.456Z</time></trkpt><trkpt lat="43.4582424" lon="10.6208268"><ele>446.0</ele><time>2026-04-18T13:00:59.468Z</time></trkpt><trkpt lat="43.458264" lon="10.6209781"><ele>445.99999999999994</ele><time>2026-04-18T13:01:01.452Z</time></trkpt><trkpt lat="43.4583155" lon="10.6211304"><ele>446.0</ele><time>2026-04-18T13:01:03.445Z</time></trkpt><trkpt lat="43.458384" lon="10.6212599"><ele>446.0</ele><time>2026-04-18T13:01:05.486Z</time></trkpt><trkpt lat="43.4584322" lon="10.6213304"><ele>446.0</ele><time>2026-04-18T13:01:06.477Z</time></trkpt><trkpt lat="43.4584645" lon="10.621406"><ele>445.99999999999994</ele><time>2026-04-18T13:01:07.492Z</time></trkpt><trkpt lat="43.4585091" lon="10.6214759"><ele>446.0</ele><time>2026-04-18T13:01:08.439Z</time></trkpt><trkpt lat="43.4585768" lon="10.6215993"><ele>445.4</ele><time>2026-04-18T13:01:10.456Z</time></trkpt><trkpt lat="43.4586603" lon="10.6217217"><ele>444.8</ele><time>2026-04-18T13:01:12.465Z</time></trkpt><trkpt lat="43.4587009" lon="10.621795"><ele>444.19999999999993</ele><time>2026-04-18T13:01:13.428Z</time></trkpt><trkpt lat="43.4587645" lon="10.6219154"><ele>443.59999999999997</ele><time>2026-04-18T13:01:15.429Z</time></trkpt><trkpt lat="43.4588263" lon="10.6220446"><ele>443.0</ele><time>2026-04-18T13:01:17.471Z</time></trkpt><trkpt lat="43.4588882" lon="10.622163"><ele>442.99999999999994</ele><time>2026-04-18T13:01:19.484Z</time></trkpt><trkpt lat="43.4589402" lon="10.6222529"><ele>443.0</ele><time>2026-04-18T13:01:21.471Z</time></trkpt><trkpt lat="43.4590081" lon="10.6223249"><ele>443.0</ele><time>2026-04-18T13:01:24.428Z</time></trkpt><trkpt lat="43.4590993" lon="10.6223309"><ele>443.0</ele><time>2026-04-18T13:01:27.457Z</time></trkpt><trkpt lat="43.4591788" lon="10.622327"><ele>442.99999999999994</ele><time>2026-04-18T13:01:29.468Z</time></trkpt><trkpt lat="43.4592546" lon="10.6223453"><ele>443.0</ele><time>2026-04-18T13:01:31.431Z</time></trkpt><trkpt lat="43.4593202" lon="10.6223532"><ele>442.99999999999994</ele><time>2026-04-18T13:01:33.425Z</time></trkpt><trkpt lat="43.4593893" lon="10.6223642"><ele>443.0</ele><time>2026-04-18T13:01:35.427Z</time></trkpt><trkpt lat="43.459479" lon="10.62234"><ele>443.0</ele><time>2026-04-18T13:01:38.429Z</time></trkpt><trkpt lat="43.459541" lon="10.6223126"><ele>443.0</ele><time>2026-04-18T13:01:40.432Z</time></trkpt><trkpt lat="43.4596033" lon="10.622247"><ele>442.99999999999994</ele><time>2026-04-18T13:01:42.421Z</time></trkpt><trkpt lat="43.4596695" lon="10.622139"><ele>443.0</ele><time>2026-04-18T13:01:44.423Z</time></trkpt><trkpt lat="43.4597227" lon="10.6220429"><ele>445.3333333333333</ele><time>2026-04-18T13:01:46.417Z</time></trkpt><trkpt lat="43.459757" lon="10.6219356"><ele>447.66666666666663</ele><time>2026-04-18T13:01:49.44Z</time></trkpt><trkpt lat="43.4597862" lon="10.6218583"><ele>450.0</ele><time>2026-04-18T13:01:51.425Z</time></trkpt><trkpt lat="43.4598237" lon="10.6217397"><ele>452.33333333333337</ele><time>2026-04-18T13:01:53.422Z</time></trkpt><trkpt lat="43.4598519" lon="10.621644"><ele>454.6666666666667</ele><time>2026-04-18T13:01:55.427Z</time></trkpt><trkpt lat="43.4599124" lon="10.621548"><ele>457.0</ele><time>2026-04-18T13:01:57.425Z</time></trkpt><trkpt lat="43.4599483" lon="10.621453"><ele>457.00000000000006</ele><time>2026-04-18T13:01:59.426Z</time></trkpt><trkpt lat="43.4599957" lon="10.6213666"><ele>457.0</ele><time>2026-04-18T13:02:01.429Z</time></trkpt><trkpt lat="43.4600257" lon="10.6212898"><ele>457.00000000000006</ele><time>2026-04-18T13:02:03.428Z</time></trkpt><trkpt lat="43.4600558" lon="10.6212063"><ele>457.00000000000006</ele><time>2026-04-18T13:02:05.425Z</time></trkpt><trkpt lat="43.4600878" lon="10.6211192"><ele>457.0</ele><time>2026-04-18T13:02:07.42Z</time></trkpt><trkpt lat="43.4601142" lon="10.6210296"><ele>457.00000000000006</ele><time>2026-04-18T13:02:09.427Z</time></trkpt><trkpt lat="43.4601438" lon="10.6209445"><ele>457.00000000000006</ele><time>2026-04-18T13:02:11.424Z</time></trkpt><trkpt lat="43.4601699" lon="10.6208528"><ele>459.83333333333337</ele><time>2026-04-18T13:02:13.417Z</time></trkpt><trkpt lat="43.4601919" lon="10.6207525"><ele>462.6666666666667</ele><time>2026-04-18T13:02:15.431Z</time></trkpt><trkpt lat="43.4602269" lon="10.6206477"><ele>465.5</ele><time>2026-04-18T13:02:17.422Z</time></trkpt><trkpt lat="43.4602698" lon="10.6205417"><ele>468.33333333333337</ele><time>2026-04-18T13:02:19.418Z</time></trkpt><trkpt lat="43.460305" lon="10.6204355"><ele>471.1666666666667</ele><time>2026-04-18T13:02:21.423Z</time></trkpt><trkpt lat="43.4603345" lon="10.6203363"><ele>474.0</ele><time>2026-04-18T13:02:23.425Z</time></trkpt><trkpt lat="43.4603668" lon="10.6202238"><ele>476.5</ele><time>2026-04-18T13:02:25.423Z</time></trkpt><trkpt lat="43.4603891" lon="10.6201214"><ele>479.0</ele><time>2026-04-18T13:02:27.428Z</time></trkpt><trkpt lat="43.460415" lon="10.6200039"><ele>481.5</ele><time>2026-04-18T13:02:29.418Z</time></trkpt><trkpt lat="43.460443" lon="10.6198921"><ele>484.0</ele><time>2026-04-18T13:02:31.426Z</time></trkpt><trkpt lat="43.4604599" lon="10.6197954"><ele>486.5</ele><time>2026-04-18T13:02:33.421Z</time></trkpt><trkpt lat="43.4604673" lon="10.6196978"><ele>489.0</ele><time>2026-04-18T13:02:35.423Z</time></trkpt><trkpt lat="43.4604866" lon="10.6196008"><ele>485.7142857142857</ele><time>2026-04-18T13:02:37.439Z</time></trkpt><trkpt lat="43.4604987" lon="10.6195012"><ele>482.42857142857144</ele><time>2026-04-18T13:02:39.422Z</time></trkpt><trkpt lat="43.4605202" lon="10.6194094"><ele>479.14285714285717</ele><time>2026-04-18T13:02:41.43Z</time></trkpt><trkpt lat="43.4605615" lon="10.6193283"><ele>475.8571428571429</ele><time>2026-04-18T13:02:43.432Z</time></trkpt><trkpt lat="43.4606134" lon="10.6192558"><ele>472.57142857142856</ele><time>2026-04-18T13:02:45.424Z</time></trkpt><trkpt lat="43.4606659" lon="10.6191937"><ele>469.28571428571433</ele><time>2026-04-18T13:02:47.427Z</time></trkpt><trkpt lat="43.4607212" lon="10.619117"><ele>466.0</ele><time>2026-04-18T13:02:50.431Z</time></trkpt><trkpt lat="43.4607807" lon="10.6190204"><ele>466.00000000000006</ele><time>2026-04-18T13:02:53.427Z</time></trkpt><trkpt lat="43.4608024" lon="10.6189343"><ele>466.0</ele><time>2026-04-18T13:02:55.425Z</time></trkpt><trkpt lat="43.4608241" lon="10.6188446"><ele>466.0</ele><time>2026-04-18T13:02:58.403Z</time></trkpt><trkpt lat="43.4608369" lon="10.6187365"><ele>466.0</ele><time>2026-04-18T13:03:00.42Z</time></trkpt><trkpt lat="43.4608687" lon="10.6186245"><ele>466.00000000000006</ele><time>2026-04-18T13:03:02.477Z</time></trkpt><trkpt lat="43.4609113" lon="10.6185106"><ele>466.0</ele><time>2026-04-18T13:03:04.406Z</time></trkpt><trkpt lat="43.4609414" lon="10.6184313"><ele>468.6666666666667</ele><time>2026-04-18T13:03:06.426Z</time></trkpt><trkpt lat="43.4609567" lon="10.6183397"><ele>471.33333333333337</ele><time>2026-04-18T13:03:08.412Z</time></trkpt><trkpt lat="43.4609726" lon="10.6181995"><ele>474.0</ele><time>2026-04-18T13:03:11.416Z</time></trkpt><trkpt lat="43.4609758" lon="10.6180654"><ele>476.66666666666663</ele><time>2026-04-18T13:03:13.414Z</time></trkpt><trkpt lat="43.4609831" lon="10.6179346"><ele>479.3333333333333</ele><time>2026-04-18T13:03:15.413Z</time></trkpt><trkpt lat="43.4609993" lon="10.6178327"><ele>482.0</ele><time>2026-04-18T13:03:17.423Z</time></trkpt><trkpt lat="43.461004" lon="10.6177421"><ele>483.0</ele><time>2026-04-18T13:03:19.426Z</time></trkpt><trkpt lat="43.4610247" lon="10.6176422"><ele>484.00000000000006</ele><time>2026-04-18T13:03:21.415Z</time></trkpt><trkpt lat="43.4610657" lon="10.6175604"><ele>485.0</ele><time>2026-04-18T13:03:23.422Z</time></trkpt><trkpt lat="43.4611257" lon="10.6175101"><ele>486.0</ele><time>2026-04-18T13:03:25.429Z</time></trkpt><trkpt lat="43.4611715" lon="10.6174393"><ele>487.00000000000006</ele><time>2026-04-18T13:03:27.425Z</time></trkpt><trkpt lat="43.461238" lon="10.6173844"><ele>488.0</ele><time>2026-04-18T13:03:29.429Z</time></trkpt><trkpt lat="43.4613098" lon="10.6173314"><ele>489.0</ele><time>2026-04-18T13:03:31.427Z</time></trkpt><trkpt lat="43.4613579" lon="10.6172539"><ele>485.8333333333333</ele><time>2026-04-18T13:03:33.45Z</time></trkpt><trkpt lat="43.4614075" lon="10.6171624"><ele>482.66666666666663</ele><time>2026-04-18T13:03:35.409Z</time></trkpt><trkpt lat="43.4614484" lon="10.6170733"><ele>479.5</ele><time>2026-04-18T13:03:37.421Z</time></trkpt><trkpt lat="43.4614691" lon="10.6169361"><ele>476.3333333333333</ele><time>2026-04-18T13:03:40.438Z</time></trkpt><trkpt lat="43.4614817" lon="10.6168496"><ele>473.16666666666663</ele><time>2026-04-18T13:03:42.431Z</time></trkpt><trkpt lat="43.4615147" lon="10.6167538"><ele>470.0</ele><time>2026-04-18T13:03:44.433Z</time></trkpt><trkpt lat="43.4615809" lon="10.6166652"><ele>469.99999999999994</ele><time>2026-04-18T13:03:46.439Z</time></trkpt><trkpt lat="43.4616297" lon="10.6165927"><ele>470.0</ele><time>2026-04-18T13:03:48.419Z</time></trkpt><trkpt lat="43.4616892" lon="10.6164969"><ele>470.0</ele><time>2026-04-18T13:03:51.42Z</time></trkpt><trkpt lat="43.461742" lon="10.6164321"><ele>470.0</ele><time>2026-04-18T13:03:53.415Z</time></trkpt><trkpt lat="43.4618142" lon="10.6163901"><ele>469.99999999999994</ele><time>2026-04-18T13:03:55.441Z</time></trkpt><trkpt lat="43.4618588" lon="10.6163026"><ele>470.0</ele><time>2026-04-18T13:03:58.418Z</time></trkpt><trkpt lat="43.4618669" lon="10.6161743"><ele>468.25</ele><time>2026-04-18T13:04:02.421Z</time></trkpt><trkpt lat="43.4619067" lon="10.6161026"><ele>466.5</ele><time>2026-04-18T13:04:04.438Z</time></trkpt><trkpt lat="43.4621262" lon="10.6161695"><ele>464.75</ele><time>2026-04-18T13:04:10.417Z</time></trkpt><trkpt lat="43.4622021" lon="10.6162312"><ele>463.0</ele><time>2026-04-18T13:04:12.442Z</time></trkpt><trkpt lat="43.4622741" lon="10.6162819"><ele>463.0</ele><time>2026-04-18T13:04:14.427Z</time></trkpt><trkpt lat="43.462354" lon="10.6163425"><ele>462.99999999999994</ele><time>2026-04-18T13:04:16.418Z</time></trkpt><trkpt lat="43.4624337" lon="10.6164497"><ele>462.99999999999994</ele><time>2026-04-18T13:04:18.426Z</time></trkpt><trkpt lat="43.462505" lon="10.6165586"><ele>463.0</ele><time>2026-04-18T13:04:20.431Z</time></trkpt><trkpt lat="43.4625788" lon="10.6166472"><ele>463.0</ele><time>2026-04-18T13:04:22.422Z</time></trkpt><trkpt lat="43.4626289" lon="10.6167068"><ele>463.00000000000006</ele><time>2026-04-18T13:04:24.441Z</time></trkpt><trkpt lat="43.4626807" lon="10.6167819"><ele>463.0</ele><time>2026-04-18T13:04:26.436Z</time></trkpt><trkpt lat="43.4627515" lon="10.6168421"><ele>463.0</ele><time>2026-04-18T13:04:28.414Z</time></trkpt><trkpt lat="43.462844" lon="10.6168771"><ele>463.0</ele><time>2026-04-18T13:04:30.408Z</time></trkpt><trkpt lat="43.4629108" lon="10.6168563"><ele>463.00000000000006</ele><time>2026-04-18T13:04:32.411Z</time></trkpt><trkpt lat="43.4629784" lon="10.6168115"><ele>463.0</ele><time>2026-04-18T13:04:35.443Z</time></trkpt><trkpt lat="43.4630127" lon="10.6167345"><ele>462.83333333333337</ele><time>2026-04-18T13:04:37.437Z</time></trkpt><trkpt lat="43.4630774" lon="10.6166235"><ele>462.6666666666667</ele><time>2026-04-18T13:04:40.422Z</time></trkpt><trkpt lat="43.4631332" lon="10.6165476"><ele>462.5</ele><time>2026-04-18T13:04:43.453Z</time></trkpt><trkpt lat="43.4631799" lon="10.6164242"><ele>462.33333333333337</ele><time>2026-04-18T13:04:45.44Z</time></trkpt><trkpt lat="43.4632019" lon="10.6163416"><ele>462.1666666666667</ele><time>2026-04-18T13:04:46.469Z</time></trkpt><trkpt lat="43.4632456" lon="10.616268"><ele>462.0</ele><time>2026-04-18T13:04:47.434Z</time></trkpt><trkpt lat="43.4632593" lon="10.6161547"><ele>463.8333333333333</ele><time>2026-04-18T13:04:49.433Z</time></trkpt><trkpt lat="43.4632467" lon="10.6160363"><ele>465.66666666666663</ele><time>2026-04-18T13:04:51.457Z</time></trkpt><trkpt lat="43.4632387" lon="10.615946"><ele>467.5</ele><time>2026-04-18T13:04:53.441Z</time></trkpt><trkpt lat="43.4632161" lon="10.6158378"><ele>469.3333333333333</ele><time>2026-04-18T13:04:55.424Z</time></trkpt><trkpt lat="43.463196" lon="10.615721"><ele>471.16666666666663</ele><time>2026-04-18T13:04:57.413Z</time></trkpt><trkpt lat="43.4631768" lon="10.6155815"><ele>473.0</ele><time>2026-04-18T13:04:59.427Z</time></trkpt><trkpt lat="43.4631724" lon="10.6154467"><ele>474.66666666666663</ele><time>2026-04-18T13:05:01.415Z</time></trkpt><trkpt lat="43.4631472" lon="10.6153049"><ele>476.3333333333333</ele><time>2026-04-18T13:05:03.425Z</time></trkpt><trkpt lat="43.463126" lon="10.6151836"><ele>478.0</ele><time>2026-04-18T13:05:05.422Z</time></trkpt><trkpt lat="43.4631805" lon="10.6151119"><ele>479.66666666666663</ele><time>2026-04-18T13:05:08.424Z</time></trkpt><trkpt lat="43.4632552" lon="10.6151453"><ele>481.3333333333333</ele><time>2026-04-18T13:05:10.416Z</time></trkpt><trkpt lat="43.4633102" lon="10.6152377"><ele>483.0</ele><time>2026-04-18T13:05:12.415Z</time></trkpt><trkpt lat="43.4633673" lon="10.6153091"><ele>481.0</ele><time>2026-04-18T13:05:14.429Z</time></trkpt><trkpt lat="43.4634316" lon="10.6154029"><ele>478.99999999999994</ele><time>2026-04-18T13:05:16.421Z</time></trkpt><trkpt lat="43.463508" lon="10.6155064"><ele>476.99999999999994</ele><time>2026-04-18T13:05:18.439Z</time></trkpt><trkpt lat="43.4635599" lon="10.6155846"><ele>475.0</ele><time>2026-04-18T13:05:20.417Z</time></trkpt><trkpt lat="43.4636313" lon="10.6156737"><ele>473.0</ele><time>2026-04-18T13:05:23.425Z</time></trkpt><trkpt lat="43.4636785" lon="10.6157678"><ele>472.99999999999994</ele><time>2026-04-18T13:05:25.417Z</time></trkpt><trkpt lat="43.4637312" lon="10.6158421"><ele>473.0</ele><time>2026-04-18T13:05:27.426Z</time></trkpt><trkpt lat="43.4637914" lon="10.6159265"><ele>473.0</ele><time>2026-04-18T13:05:29.433Z</time></trkpt><trkpt lat="43.4638326" lon="10.6160066"><ele>473.0</ele><time>2026-04-18T13:05:31.458Z</time></trkpt><trkpt lat="43.4638833" lon="10.6160877"><ele>472.99999999999994</ele><time>2026-04-18T13:05:33.415Z</time></trkpt><trkpt lat="43.4639218" lon="10.616177"><ele>473.0</ele><time>2026-04-18T13:05:35.429Z</time></trkpt><trkpt lat="43.4639527" lon="10.6162704"><ele>470.7142857142857</ele><time>2026-04-18T13:05:37.425Z</time></trkpt><trkpt lat="43.4639779" lon="10.6163804"><ele>468.42857142857144</ele><time>2026-04-18T13:05:39.422Z</time></trkpt><trkpt lat="43.4640052" lon="10.616479"><ele>466.14285714285717</ele><time>2026-04-18T13:05:41.431Z</time></trkpt><trkpt lat="43.4640431" lon="10.6165817"><ele>463.8571428571429</ele><time>2026-04-18T13:05:44.422Z</time></trkpt><trkpt lat="43.4640657" lon="10.6166763"><ele>461.57142857142856</ele><time>2026-04-18T13:05:48.425Z</time></trkpt><trkpt lat="43.4640974" lon="10.6167537"><ele>459.28571428571433</ele><time>2026-04-18T13:05:51.435Z</time></trkpt><trkpt lat="43.464138" lon="10.6166854"><ele>457.00000000000006</ele><time>2026-04-18T13:07:01.487Z</time></trkpt><trkpt lat="43.4640957" lon="10.6166082"><ele>457.00000000000006</ele><time>2026-04-18T13:07:09.449Z</time></trkpt><trkpt lat="43.4641452" lon="10.6165277"><ele>457.0</ele><time>2026-04-18T13:07:18.448Z</time></trkpt><trkpt lat="43.4641369" lon="10.6163933"><ele>457.0</ele><time>2026-04-18T13:07:38.412Z</time></trkpt><trkpt lat="43.4641458" lon="10.6164888"><ele>457.0</ele><time>2026-04-18T13:07:48.453Z</time></trkpt><trkpt lat="43.464112" lon="10.6165791"><ele>457.00000000000006</ele><time>2026-04-18T13:08:03.519Z</time></trkpt><trkpt lat="43.4640937" lon="10.6166685"><ele>457.0</ele><time>2026-04-18T13:08:07.453Z</time></trkpt><trkpt lat="43.4641128" lon="10.6167571"><ele>457.00000000000006</ele><time>2026-04-18T13:08:13.437Z</time></trkpt><trkpt lat="43.4641629" lon="10.6168113"><ele>457.0</ele><time>2026-04-18T13:08:20.435Z</time></trkpt><trkpt lat="43.4641387" lon="10.6167252"><ele>457.00000000000006</ele><time>2026-04-18T13:08:47.446Z</time></trkpt><trkpt lat="43.4641521" lon="10.6166371"><ele>457.00000000000006</ele><time>2026-04-18T13:08:52.456Z</time></trkpt><trkpt lat="43.4641479" lon="10.6165367"><ele>457.0</ele><time>2026-04-18T13:08:58.492Z</time></trkpt><trkpt lat="43.4641492" lon="10.6164419"><ele>457.00000000000006</ele><time>2026-04-18T13:09:05.43Z</time></trkpt><trkpt lat="43.4641356" lon="10.6163484"><ele>457.00000000000006</ele><time>2026-04-18T13:09:13.454Z</time></trkpt><trkpt lat="43.4641416" lon="10.6164518"><ele>457.00000000000006</ele><time>2026-04-18T13:09:43.406Z</time></trkpt><trkpt lat="43.4641413" lon="10.6165426"><ele>457.0</ele><time>2026-04-18T13:09:47.39Z</time></trkpt><trkpt lat="43.464131" lon="10.6166474"><ele>457.00000000000006</ele><time>2026-04-18T13:09:52.455Z</time></trkpt><trkpt lat="43.4640824" lon="10.6167253"><ele>457.00000000000006</ele><time>2026-04-18T13:09:56.487Z</time></trkpt><trkpt lat="43.4640658" lon="10.6166267"><ele>457.0</ele><time>2026-04-18T13:10:32.445Z</time></trkpt><trkpt lat="43.4640937" lon="10.6165369"><ele>457.00000000000006</ele><time>2026-04-18T13:10:37.434Z</time></trkpt><trkpt lat="43.4641367" lon="10.6166013"><ele>457.00000000000006</ele><time>2026-04-18T13:10:42.418Z</time></trkpt><trkpt lat="43.4641388" lon="10.6165099"><ele>457.00000000000006</ele><time>2026-04-18T13:11:31.427Z</time></trkpt><trkpt lat="43.4641555" lon="10.616415"><ele>457.0</ele><time>2026-04-18T13:11:36.423Z</time></trkpt><trkpt lat="43.4641589" lon="10.6163172"><ele>457.00000000000006</ele><time>2026-04-18T13:12:21.476Z</time></trkpt><trkpt lat="43.4642129" lon="10.6164028"><ele>457.00000000000006</ele><time>2026-04-18T13:13:21.472Z</time></trkpt><trkpt lat="43.4641753" lon="10.6164961"><ele>457.0</ele><time>2026-04-18T13:13:24.442Z</time></trkpt><trkpt lat="43.4641472" lon="10.6165772"><ele>457.00000000000006</ele><time>2026-04-18T13:13:29.468Z</time></trkpt><trkpt lat="43.4641303" lon="10.6166635"><ele>457.00000000000006</ele><time>2026-04-18T13:13:36.387Z</time></trkpt><trkpt lat="43.4641005" lon="10.6167424"><ele>457.00000000000006</ele><time>2026-04-18T13:13:41.447Z</time></trkpt><trkpt lat="43.4641188" lon="10.6166554"><ele>457.0</ele><time>2026-04-18T13:15:08.476Z</time></trkpt><trkpt lat="43.4641199" lon="10.6165587"><ele>457.00000000000006</ele><time>2026-04-18T13:15:15.409Z</time></trkpt><trkpt lat="43.4641" lon="10.6164544"><ele>457.00000000000006</ele><time>2026-04-18T13:15:23.431Z</time></trkpt><trkpt lat="43.4640756" lon="10.6163397"><ele>457.0</ele><time>2026-04-18T13:15:31.417Z</time></trkpt><trkpt lat="43.4640304" lon="10.6162702"><ele>457.00000000000006</ele><time>2026-04-18T13:15:36.428Z</time></trkpt><trkpt lat="43.4640869" lon="10.6162228"><ele>457.00000000000006</ele><time>2026-04-18T13:15:38.426Z</time></trkpt><trkpt lat="43.4641113" lon="10.6161409"><ele>459.4285714285715</ele><time>2026-04-18T13:15:43.412Z</time></trkpt><trkpt lat="43.4641489" lon="10.6160684"><ele>461.8571428571429</ele><time>2026-04-18T13:15:47.42Z</time></trkpt><trkpt lat="43.4642226" lon="10.6160603"><ele>464.2857142857143</ele><time>2026-04-18T13:16:09.427Z</time></trkpt><trkpt lat="43.4641615" lon="10.6160971"><ele>466.7142857142857</ele><time>2026-04-18T13:17:16.43Z</time></trkpt><trkpt lat="43.4641837" lon="10.6160104"><ele>469.1428571428571</ele><time>2026-04-18T13:20:37.439Z</time></trkpt><trkpt lat="43.4641647" lon="10.6159229"><ele>471.5714285714285</ele><time>2026-04-18T13:20:43.425Z</time></trkpt><trkpt lat="43.4641199" lon="10.615837"><ele>473.99999999999994</ele><time>2026-04-18T13:20:49.462Z</time></trkpt><trkpt lat="43.4640696" lon="10.615768"><ele>473.99999999999994</ele><time>2026-04-18T13:20:54.465Z</time></trkpt><trkpt lat="43.4640621" lon="10.6156754"><ele>474.0</ele><time>2026-04-18T13:21:00.45Z</time></trkpt><trkpt lat="43.4640299" lon="10.6155937"><ele>473.99999999999994</ele><time>2026-04-18T13:21:05.455Z</time></trkpt><trkpt lat="43.4640419" lon="10.6155022"><ele>473.99999999999994</ele><time>2026-04-18T13:21:13.479Z</time></trkpt><trkpt lat="43.4640448" lon="10.6153973"><ele>474.0</ele><time>2026-04-18T13:21:19.459Z</time></trkpt><trkpt lat="43.464066" lon="10.6153064"><ele>473.99999999999994</ele><time>2026-04-18T13:21:25.462Z</time></trkpt><trkpt lat="43.464092" lon="10.6152274"><ele>473.99999999999994</ele><time>2026-04-18T13:21:30.463Z</time></trkpt><trkpt lat="43.4641336" lon="10.6151448"><ele>476.99999999999994</ele><time>2026-04-18T13:21:38.46Z</time></trkpt><trkpt lat="43.4641732" lon="10.615073"><ele>480.0</ele><time>2026-04-18T13:21:46.469Z</time></trkpt><trkpt lat="43.4642024" lon="10.6149786"><ele>482.99999999999994</ele><time>2026-04-18T13:21:52.476Z</time></trkpt><trkpt lat="43.4642153" lon="10.614875"><ele>485.99999999999994</ele><time>2026-04-18T13:21:59.456Z</time></trkpt><trkpt lat="43.4642198" lon="10.6147833"><ele>489.0</ele><time>2026-04-18T13:22:03.453Z</time></trkpt><trkpt lat="43.4642323" lon="10.6146926"><ele>491.99999999999994</ele><time>2026-04-18T13:22:08.472Z</time></trkpt><trkpt lat="43.4642647" lon="10.6146167"><ele>494.99999999999994</ele><time>2026-04-18T13:22:16.459Z</time></trkpt><trkpt lat="43.4643042" lon="10.6145325"><ele>497.1428571428571</ele><time>2026-04-18T13:22:21.449Z</time></trkpt><trkpt lat="43.4643207" lon="10.6144466"><ele>499.2857142857143</ele><time>2026-04-18T13:22:27.477Z</time></trkpt><trkpt lat="43.4643382" lon="10.6143509"><ele>501.42857142857144</ele><time>2026-04-18T13:22:32.461Z</time></trkpt><trkpt lat="43.4643514" lon="10.614256"><ele>503.57142857142856</ele><time>2026-04-18T13:22:36.417Z</time></trkpt><trkpt lat="43.4643659" lon="10.6141611"><ele>505.7142857142858</ele><time>2026-04-18T13:22:39.449Z</time></trkpt><trkpt lat="43.4643904" lon="10.6140806"><ele>507.8571428571429</ele><time>2026-04-18T13:22:42.45Z</time></trkpt><trkpt lat="43.4644312" lon="10.6139977"><ele>510.0</ele><time>2026-04-18T13:22:45.416Z</time></trkpt><trkpt lat="43.4644685" lon="10.6139163"><ele>510.0</ele><time>2026-04-18T13:22:48.434Z</time></trkpt><trkpt lat="43.4644636" lon="10.6138016"><ele>510.0</ele><time>2026-04-18T13:22:52.419Z</time></trkpt><trkpt lat="43.4644825" lon="10.613696"><ele>510.0</ele><time>2026-04-18T13:22:56.415Z</time></trkpt><trkpt lat="43.4645207" lon="10.6135945"><ele>510.0</ele><time>2026-04-18T13:23:00.409Z</time></trkpt><trkpt lat="43.4645451" lon="10.6134939"><ele>510.0</ele><time>2026-04-18T13:23:04.409Z</time></trkpt><trkpt lat="43.464567" lon="10.613399"><ele>510.0</ele><time>2026-04-18T13:23:07.456Z</time></trkpt><trkpt lat="43.4646099" lon="10.6133183"><ele>510.5</ele><time>2026-04-18T13:23:11.468Z</time></trkpt><trkpt lat="43.4645913" lon="10.6132052"><ele>511.0</ele><time>2026-04-18T13:23:15.446Z</time></trkpt><trkpt lat="43.4646255" lon="10.61312"><ele>511.5</ele><time>2026-04-18T13:23:19.462Z</time></trkpt><trkpt lat="43.4646552" lon="10.6130262"><ele>512.0</ele><time>2026-04-18T13:23:22.452Z</time></trkpt><trkpt lat="43.4646141" lon="10.6129327"><ele>512.5</ele><time>2026-04-18T13:23:26.457Z</time></trkpt><trkpt lat="43.4645977" lon="10.6128336"><ele>513.0</ele><time>2026-04-18T13:23:30.448Z</time></trkpt><trkpt lat="43.4645818" lon="10.612732"><ele>515.4285714285714</ele><time>2026-04-18T13:23:35.46Z</time></trkpt><trkpt lat="43.464583" lon="10.6126442"><ele>517.8571428571429</ele><time>2026-04-18T13:23:46.459Z</time></trkpt><trkpt lat="43.4645858" lon="10.6125556"><ele>520.2857142857142</ele><time>2026-04-18T13:23:54.436Z</time></trkpt><trkpt lat="43.4645568" lon="10.6124645"><ele>522.7142857142858</ele><time>2026-04-18T13:23:59.451Z</time></trkpt><trkpt lat="43.4645284" lon="10.6123869"><ele>525.1428571428571</ele><time>2026-04-18T13:24:04.483Z</time></trkpt><trkpt lat="43.4645378" lon="10.6122951"><ele>527.5714285714286</ele><time>2026-04-18T13:24:09.486Z</time></trkpt><trkpt lat="43.4645491" lon="10.6122063"><ele>530.0</ele><time>2026-04-18T13:24:14.469Z</time></trkpt><trkpt lat="43.4645582" lon="10.6121127"><ele>529.9999999999999</ele><time>2026-04-18T13:24:20.469Z</time></trkpt><trkpt lat="43.4645675" lon="10.6120238"><ele>530.0</ele><time>2026-04-18T13:24:24.446Z</time></trkpt><trkpt lat="43.4645679" lon="10.6119354"><ele>530.0</ele><time>2026-04-18T13:24:28.471Z</time></trkpt><trkpt lat="43.4645612" lon="10.6118314"><ele>530.0</ele><time>2026-04-18T13:24:33.487Z</time></trkpt><trkpt lat="43.4645604" lon="10.6117361"><ele>530.0</ele><time>2026-04-18T13:24:39.46Z</time></trkpt><trkpt lat="43.4645655" lon="10.6116482"><ele>529.9999999999999</ele><time>2026-04-18T13:24:43.464Z</time></trkpt><trkpt lat="43.4646003" lon="10.6115699"><ele>530.0</ele><time>2026-04-18T13:24:48.465Z</time></trkpt><trkpt lat="43.4645989" lon="10.6114651"><ele>532.1428571428571</ele><time>2026-04-18T13:24:54.483Z</time></trkpt><trkpt lat="43.4646174" lon="10.6113763"><ele>534.2857142857142</ele><time>2026-04-18T13:24:58.495Z</time></trkpt><trkpt lat="43.464632" lon="10.6112695"><ele>536.4285714285714</ele><time>2026-04-18T13:25:03.473Z</time></trkpt><trkpt lat="43.4646573" lon="10.6111747"><ele>538.5714285714286</ele><time>2026-04-18T13:25:09.485Z</time></trkpt><trkpt lat="43.4646746" lon="10.6110822"><ele>540.7142857142858</ele><time>2026-04-18T13:25:14.475Z</time></trkpt><trkpt lat="43.4646981" lon="10.6109883"><ele>542.8571428571429</ele><time>2026-04-18T13:25:19.463Z</time></trkpt><trkpt lat="43.464734" lon="10.6109137"><ele>545.0</ele><time>2026-04-18T13:25:24.451Z</time></trkpt><trkpt lat="43.4647775" lon="10.6108335"><ele>547.1428571428571</ele><time>2026-04-18T13:25:29.484Z</time></trkpt><trkpt lat="43.4648139" lon="10.6107611"><ele>549.2857142857143</ele><time>2026-04-18T13:25:33.442Z</time></trkpt><trkpt lat="43.464838" lon="10.6106674"><ele>551.4285714285714</ele><time>2026-04-18T13:25:39.475Z</time></trkpt><trkpt lat="43.4648923" lon="10.6105915"><ele>553.5714285714286</ele><time>2026-04-18T13:25:44.429Z</time></trkpt><trkpt lat="43.4649146" lon="10.6105005"><ele>555.7142857142858</ele><time>2026-04-18T13:25:47.464Z</time></trkpt><trkpt lat="43.4649297" lon="10.6104149"><ele>557.8571428571429</ele><time>2026-04-18T13:25:50.471Z</time></trkpt><trkpt lat="43.4649541" lon="10.610331"><ele>560.0</ele><time>2026-04-18T13:25:53.472Z</time></trkpt><trkpt lat="43.4650089" lon="10.610261"><ele>560.5714285714286</ele><time>2026-04-18T13:25:56.486Z</time></trkpt><trkpt lat="43.4650517" lon="10.6101729"><ele>561.1428571428571</ele><time>2026-04-18T13:25:59.454Z</time></trkpt><trkpt lat="43.4650636" lon="10.6100594"><ele>561.7142857142858</ele><time>2026-04-18T13:26:03.458Z</time></trkpt><trkpt lat="43.4650791" lon="10.6099716"><ele>562.2857142857142</ele><time>2026-04-18T13:26:06.44Z</time></trkpt><trkpt lat="43.4651169" lon="10.6098977"><ele>562.8571428571429</ele><time>2026-04-18T13:26:09.474Z</time></trkpt><trkpt lat="43.4651459" lon="10.6098105"><ele>563.4285714285714</ele><time>2026-04-18T13:26:12.459Z</time></trkpt><trkpt lat="43.465182" lon="10.6097151"><ele>564.0</ele><time>2026-04-18T13:26:15.477Z</time></trkpt><trkpt lat="43.4652133" lon="10.6096155"><ele>564.0</ele><time>2026-04-18T13:26:18.479Z</time></trkpt><trkpt lat="43.4652574" lon="10.6095395"><ele>564.0</ele><time>2026-04-18T13:26:21.431Z</time></trkpt><trkpt lat="43.465306" lon="10.6094334"><ele>564.0</ele><time>2026-04-18T13:26:23.43Z</time></trkpt><trkpt lat="43.4653449" lon="10.609353"><ele>564.0</ele><time>2026-04-18T13:26:26.414Z</time></trkpt><trkpt lat="43.4653565" lon="10.6092343"><ele>564.0</ele><time>2026-04-18T13:26:32.421Z</time></trkpt><trkpt lat="43.4654089" lon="10.6091658"><ele>564.0</ele><time>2026-04-18T13:26:35.417Z</time></trkpt><trkpt lat="43.4654732" lon="10.6091187"><ele>565.5714285714286</ele><time>2026-04-18T13:26:37.418Z</time></trkpt><trkpt lat="43.4655312" lon="10.6090366"><ele>567.1428571428571</ele><time>2026-04-18T13:26:40.432Z</time></trkpt><trkpt lat="43.4655591" lon="10.6089425"><ele>568.7142857142857</ele><time>2026-04-18T13:26:43.418Z</time></trkpt><trkpt lat="43.4655642" lon="10.6088482"><ele>570.2857142857142</ele><time>2026-04-18T13:26:48.408Z</time></trkpt><trkpt lat="43.4655381" lon="10.6087531"><ele>571.8571428571428</ele><time>2026-04-18T13:26:51.424Z</time></trkpt><trkpt lat="43.4655471" lon="10.6086479"><ele>573.4285714285714</ele><time>2026-04-18T13:26:54.438Z</time></trkpt><trkpt lat="43.4656055" lon="10.6085948"><ele>575.0</ele><time>2026-04-18T13:26:58.423Z</time></trkpt><trkpt lat="43.4656819" lon="10.6085594"><ele>575.1666666666666</ele><time>2026-04-18T13:27:03.418Z</time></trkpt><trkpt lat="43.465758" lon="10.6085211"><ele>575.3333333333333</ele><time>2026-04-18T13:27:07.418Z</time></trkpt><trkpt lat="43.4658422" lon="10.6085302"><ele>575.5</ele><time>2026-04-18T13:27:10.445Z</time></trkpt><trkpt lat="43.4659229" lon="10.6085202"><ele>575.6666666666666</ele><time>2026-04-18T13:27:13.423Z</time></trkpt><trkpt lat="43.4659994" lon="10.6085365"><ele>575.8333333333334</ele><time>2026-04-18T13:27:15.418Z</time></trkpt><trkpt lat="43.4660732" lon="10.6085496"><ele>576.0</ele><time>2026-04-18T13:27:17.429Z</time></trkpt><trkpt lat="43.4661424" lon="10.608546"><ele>576.0000000000001</ele><time>2026-04-18T13:27:21.432Z</time></trkpt><trkpt lat="43.4662185" lon="10.6085693"><ele>576.0</ele><time>2026-04-18T13:27:24.418Z</time></trkpt><trkpt lat="43.4662898" lon="10.6085725"><ele>576.0</ele><time>2026-04-18T13:27:26.418Z</time></trkpt><trkpt lat="43.4663577" lon="10.6085654"><ele>576.0</ele><time>2026-04-18T13:27:28.419Z</time></trkpt><trkpt lat="43.4664249" lon="10.6085576"><ele>576.0</ele><time>2026-04-18T13:27:30.436Z</time></trkpt><trkpt lat="43.4665137" lon="10.6085076"><ele>576.0000000000001</ele><time>2026-04-18T13:27:33.43Z</time></trkpt><trkpt lat="43.4665445" lon="10.6084273"><ele>576.0</ele><time>2026-04-18T13:27:35.419Z</time></trkpt><trkpt lat="43.4665817" lon="10.6083527"><ele>576.3333333333334</ele><time>2026-04-18T13:27:38.433Z</time></trkpt><trkpt lat="43.4666385" lon="10.6082758"><ele>576.6666666666666</ele><time>2026-04-18T13:27:41.434Z</time></trkpt><trkpt lat="43.4666915" lon="10.6081886"><ele>577.0</ele><time>2026-04-18T13:27:44.424Z</time></trkpt><trkpt lat="43.4667549" lon="10.6081299"><ele>577.3333333333333</ele><time>2026-04-18T13:27:48.421Z</time></trkpt><trkpt lat="43.4668039" lon="10.6080446"><ele>577.6666666666666</ele><time>2026-04-18T13:27:51.433Z</time></trkpt><trkpt lat="43.4668232" lon="10.6079614"><ele>578.0</ele><time>2026-04-18T13:27:54.44Z</time></trkpt><trkpt lat="43.4668275" lon="10.6078356"><ele>577.5</ele><time>2026-04-18T13:27:59.435Z</time></trkpt><trkpt lat="43.4668743" lon="10.6077655"><ele>577.0</ele><time>2026-04-18T13:28:01.429Z</time></trkpt><trkpt lat="43.4669897" lon="10.6076998"><ele>576.5</ele><time>2026-04-18T13:28:33.442Z</time></trkpt><trkpt lat="43.4669419" lon="10.6077568"><ele>576.0</ele><time>2026-04-18T13:28:42.426Z</time></trkpt><trkpt lat="43.4669487" lon="10.607666"><ele>575.5</ele><time>2026-04-18T13:28:57.423Z</time></trkpt><trkpt lat="43.4668763" lon="10.6076035"><ele>575.0</ele><time>2026-04-18T13:29:10.413Z</time></trkpt><trkpt lat="43.4668603" lon="10.6076908"><ele>575.0</ele><time>2026-04-18T13:29:19.424Z</time></trkpt><trkpt lat="43.4668991" lon="10.607765"><ele>575.0</ele><time>2026-04-18T13:29:42.426Z</time></trkpt><trkpt lat="43.4669025" lon="10.6076715"><ele>575.0</ele><time>2026-04-18T13:30:13.415Z</time></trkpt><trkpt lat="43.466927" lon="10.6075843"><ele>575.0</ele><time>2026-04-18T13:30:19.423Z</time></trkpt><trkpt lat="43.4669178" lon="10.607692"><ele>575.0</ele><time>2026-04-18T13:31:24.418Z</time></trkpt><trkpt lat="43.4669651" lon="10.6077665"><ele>575.0</ele><time>2026-04-18T13:31:29.464Z</time></trkpt><trkpt lat="43.4668935" lon="10.6077096"><ele>575.0</ele><time>2026-04-18T13:32:02.462Z</time></trkpt><trkpt lat="43.4668809" lon="10.6076149"><ele>575.0</ele><time>2026-04-18T13:32:14.432Z</time></trkpt><trkpt lat="43.4669388" lon="10.6076589"><ele>575.0</ele><time>2026-04-18T13:32:38.47Z</time></trkpt><trkpt lat="43.4669883" lon="10.6075959"><ele>575.0</ele><time>2026-04-18T13:34:31.459Z</time></trkpt><trkpt lat="43.4670304" lon="10.6075311"><ele>575.0</ele><time>2026-04-18T13:34:44.462Z</time></trkpt><trkpt lat="43.4669625" lon="10.6075393"><ele>575.0</ele><time>2026-04-18T13:35:00.435Z</time></trkpt><trkpt lat="43.4669963" lon="10.6076171"><ele>575.0</ele><time>2026-04-18T13:35:18.444Z</time></trkpt><trkpt lat="43.4669291" lon="10.6076307"><ele>575.0</ele><time>2026-04-18T13:36:17.432Z</time></trkpt><trkpt lat="43.4669469" lon="10.6075382"><ele>575.0</ele><time>2026-04-18T13:37:05.447Z</time></trkpt><trkpt lat="43.4669428" lon="10.6076254"><ele>575.0</ele><time>2026-04-18T13:38:16.433Z</time></trkpt><trkpt lat="43.4669631" lon="10.6075374"><ele>575.0</ele><time>2026-04-18T13:39:02.441Z</time></trkpt><trkpt lat="43.4670287" lon="10.6075814"><ele>575.0</ele><time>2026-04-18T13:39:18.448Z</time></trkpt><trkpt lat="43.4669549" lon="10.6075383"><ele>575.0</ele><time>2026-04-18T13:39:42.434Z</time></trkpt><trkpt lat="43.4670183" lon="10.6075067"><ele>575.0</ele><time>2026-04-18T13:40:06.477Z</time></trkpt><trkpt lat="43.4669959" lon="10.6074255"><ele>575.0</ele><time>2026-04-18T13:40:46.387Z</time></trkpt><trkpt lat="43.4670012" lon="10.6075125"><ele>575.0</ele><time>2026-04-18T13:41:01.485Z</time></trkpt><trkpt lat="43.4669296" lon="10.6075273"><ele>575.0</ele><time>2026-04-18T13:41:25.461Z</time></trkpt><trkpt lat="43.4668879" lon="10.6075945"><ele>575.0</ele><time>2026-04-18T13:41:31.469Z</time></trkpt><trkpt lat="43.4669502" lon="10.6075746"><ele>575.0</ele><time>2026-04-18T13:42:08.451Z</time></trkpt><trkpt lat="43.4669993" lon="10.6075148"><ele>575.0</ele><time>2026-04-18T13:43:10.448Z</time></trkpt><trkpt lat="43.4670691" lon="10.6075127"><ele>575.0</ele><time>2026-04-18T13:43:24.456Z</time></trkpt><trkpt lat="43.4671382" lon="10.6075605"><ele>575.0</ele><time>2026-04-18T13:43:31.456Z</time></trkpt><trkpt lat="43.4670746" lon="10.6075038"><ele>575.0</ele><time>2026-04-18T13:44:30.443Z</time></trkpt><trkpt lat="43.467009" lon="10.6074647"><ele>575.0</ele><time>2026-04-18T13:44:34.42Z</time></trkpt><trkpt lat="43.4669567" lon="10.6074078"><ele>575.0</ele><time>2026-04-18T13:44:59.417Z</time></trkpt><trkpt lat="43.4668938" lon="10.6073632"><ele>575.0</ele><time>2026-04-18T13:45:04.417Z</time></trkpt><trkpt lat="43.4668362" lon="10.6073055"><ele>575.0</ele><time>2026-04-18T13:45:10.389Z</time></trkpt><trkpt lat="43.4667709" lon="10.6072727"><ele>575.0</ele><time>2026-04-18T13:45:16.422Z</time></trkpt><trkpt lat="43.4667064" lon="10.6072272"><ele>575.0</ele><time>2026-04-18T13:45:22.369Z</time></trkpt><trkpt lat="43.4666618" lon="10.6071621"><ele>575.0</ele><time>2026-04-18T13:45:28.425Z</time></trkpt><trkpt lat="43.4667015" lon="10.6072351"><ele>575.0</ele><time>2026-04-18T13:46:43.424Z</time></trkpt><trkpt lat="43.4667474" lon="10.607309"><ele>575.0</ele><time>2026-04-18T13:47:44.416Z</time></trkpt><trkpt lat="43.4668008" lon="10.6073768"><ele>575.0</ele><time>2026-04-18T13:47:49.498Z</time></trkpt><trkpt lat="43.4668672" lon="10.6074167"><ele>575.0</ele><time>2026-04-18T13:47:55.451Z</time></trkpt><trkpt lat="43.4669238" lon="10.6074566"><ele>575.0</ele><time>2026-04-18T13:48:00.462Z</time></trkpt><trkpt lat="43.4669915" lon="10.6074722"><ele>575.0</ele><time>2026-04-18T13:48:08.465Z</time></trkpt><trkpt lat="43.4670576" lon="10.6074823"><ele>575.0</ele><time>2026-04-18T13:48:48.472Z</time></trkpt><trkpt lat="43.4671117" lon="10.6075492"><ele>574.0</ele><time>2026-04-18T13:48:56.387Z</time></trkpt><trkpt lat="43.4670764" lon="10.6074677"><ele>575.0</ele><time>2026-04-18T13:49:51.43Z</time></trkpt><trkpt lat="43.4669993" lon="10.6074313"><ele>575.0</ele><time>2026-04-18T13:49:56.432Z</time></trkpt><trkpt lat="43.4669387" lon="10.6073953"><ele>575.0</ele><time>2026-04-18T13:50:02.364Z</time></trkpt><trkpt lat="43.4668757" lon="10.6073523"><ele>575.0</ele><time>2026-04-18T13:50:10.417Z</time></trkpt><trkpt lat="43.4668281" lon="10.6072875"><ele>575.0</ele><time>2026-04-18T13:50:18.431Z</time></trkpt></trkseg><trkseg><trkpt lat="43.4669833" lon="10.6077472"><ele>575.0</ele><time>2026-04-18T14:47:15.452Z</time></trkpt><trkpt lat="43.4669833" lon="10.6077472"><ele>575.0</ele><time>2026-04-18T14:47:15.452Z</time></trkpt><trkpt lat="43.4669833" lon="10.6077472"><ele>575.0</ele><time>2026-04-18T14:47:15.452Z</time></trkpt><trkpt lat="43.4669833" lon="10.6077472"><ele>575.0</ele><time>2026-04-18T14:47:15.452Z</time></trkpt></trkseg></trk></gpx>